<?xml version="1.0" encoding="UTF-8" standalone="no" ?>
<gpx xmlns="http://www.topografix.com/GPX/1/1" creator="www.cicloide.com" version="1.1" xmlns:xsi="http://www.w3.org/2001/XMLSchema-instance" xsi:schemaLocation="http://www.topografix.com/GPX/1/1 http://www.topografix.com/GPX/1/1/gpx.xsd">
  <trk>
    <name>www.cicloide.com 10966</name>
    <desc>www.cicloide.com 10966</desc>
    <trkseg>
      <trkpt lat="42.456962100" lon="-2.453087300">
        <ele>392.20</ele>
        <time>2012-10-20T08:50:46Z</time>
      </trkpt>
      <trkpt lat="42.456991400" lon="-2.453137200">
        <ele>392.20</ele>
        <time>2012-10-20T08:50:48Z</time>
      </trkpt>
      <trkpt lat="42.456884100" lon="-2.453233400">
        <ele>392.20</ele>
        <time>2012-10-20T08:50:50Z</time>
      </trkpt>
      <trkpt lat="42.456787900" lon="-2.453503900">
        <ele>392.20</ele>
        <time>2012-10-20T08:50:51Z</time>
      </trkpt>
      <trkpt lat="42.456753000" lon="-2.453695600">
        <ele>392.20</ele>
        <time>2012-10-20T08:50:53Z</time>
      </trkpt>
      <trkpt lat="42.456799900" lon="-2.453773400">
        <ele>392.20</ele>
        <time>2012-10-20T08:50:57Z</time>
      </trkpt>
      <trkpt lat="42.456815400" lon="-2.454367800">
        <ele>392.20</ele>
        <time>2012-10-20T08:50:58Z</time>
      </trkpt>
      <trkpt lat="42.456824700" lon="-2.454411600">
        <ele>392.20</ele>
        <time>2012-10-20T08:51:00Z</time>
      </trkpt>
      <trkpt lat="42.456875300" lon="-2.454827300">
        <ele>392.20</ele>
        <time>2012-10-20T08:51:02Z</time>
      </trkpt>
      <trkpt lat="42.456950900" lon="-2.455013200">
        <ele>392.20</ele>
        <time>2012-10-20T08:51:05Z</time>
      </trkpt>
      <trkpt lat="42.456967000" lon="-2.455074700">
        <ele>392.60</ele>
        <time>2012-10-20T08:51:07Z</time>
      </trkpt>
      <trkpt lat="42.456988600" lon="-2.455135900">
        <ele>393.00</ele>
        <time>2012-10-20T08:51:07Z</time>
      </trkpt>
      <trkpt lat="42.456981700" lon="-2.455184200">
        <ele>393.60</ele>
        <time>2012-10-20T08:51:09Z</time>
      </trkpt>
      <trkpt lat="42.456971600" lon="-2.455234500">
        <ele>394.00</ele>
        <time>2012-10-20T08:51:09Z</time>
      </trkpt>
      <trkpt lat="42.456986600" lon="-2.455322500">
        <ele>394.40</ele>
        <time>2012-10-20T08:51:11Z</time>
      </trkpt>
      <trkpt lat="42.457010100" lon="-2.455460300">
        <ele>394.40</ele>
        <time>2012-10-20T08:51:12Z</time>
      </trkpt>
      <trkpt lat="42.456972600" lon="-2.455758100">
        <ele>394.40</ele>
        <time>2012-10-20T08:51:16Z</time>
      </trkpt>
      <trkpt lat="42.456965000" lon="-2.455874000">
        <ele>394.40</ele>
        <time>2012-10-20T08:51:19Z</time>
      </trkpt>
      <trkpt lat="42.456990800" lon="-2.455963100">
        <ele>394.40</ele>
        <time>2012-10-20T08:51:21Z</time>
      </trkpt>
      <trkpt lat="42.457071100" lon="-2.456333600">
        <ele>394.40</ele>
        <time>2012-10-20T08:51:26Z</time>
      </trkpt>
      <trkpt lat="42.457076200" lon="-2.456392600">
        <ele>394.40</ele>
        <time>2012-10-20T08:51:26Z</time>
      </trkpt>
      <trkpt lat="42.457086600" lon="-2.456442000">
        <ele>394.40</ele>
        <time>2012-10-20T08:51:28Z</time>
      </trkpt>
      <trkpt lat="42.457119800" lon="-2.456570300">
        <ele>394.40</ele>
        <time>2012-10-20T08:51:31Z</time>
      </trkpt>
      <trkpt lat="42.457145300" lon="-2.456623800">
        <ele>394.40</ele>
        <time>2012-10-20T08:51:35Z</time>
      </trkpt>
      <trkpt lat="42.457164400" lon="-2.456648900">
        <ele>394.40</ele>
        <time>2012-10-20T08:51:37Z</time>
      </trkpt>
      <trkpt lat="42.457173600" lon="-2.456647900">
        <ele>394.40</ele>
        <time>2012-10-20T08:51:40Z</time>
      </trkpt>
      <trkpt lat="42.457116800" lon="-2.456738900">
        <ele>394.40</ele>
        <time>2012-10-20T08:52:24Z</time>
      </trkpt>
      <trkpt lat="42.457124800" lon="-2.456755000">
        <ele>394.40</ele>
        <time>2012-10-20T08:52:24Z</time>
      </trkpt>
      <trkpt lat="42.457143900" lon="-2.456776100">
        <ele>394.40</ele>
        <time>2012-10-20T08:52:25Z</time>
      </trkpt>
      <trkpt lat="42.457195500" lon="-2.456812800">
        <ele>394.40</ele>
        <time>2012-10-20T08:52:27Z</time>
      </trkpt>
      <trkpt lat="42.457276000" lon="-2.456863000">
        <ele>394.40</ele>
        <time>2012-10-20T08:52:29Z</time>
      </trkpt>
      <trkpt lat="42.457293500" lon="-2.456931100">
        <ele>394.40</ele>
        <time>2012-10-20T08:52:31Z</time>
      </trkpt>
      <trkpt lat="42.457203700" lon="-2.457057800">
        <ele>394.40</ele>
        <time>2012-10-20T08:52:34Z</time>
      </trkpt>
      <trkpt lat="42.457160500" lon="-2.457109600">
        <ele>394.40</ele>
        <time>2012-10-20T08:52:36Z</time>
      </trkpt>
      <trkpt lat="42.457051100" lon="-2.457288600">
        <ele>394.40</ele>
        <time>2012-10-20T08:52:38Z</time>
      </trkpt>
      <trkpt lat="42.457051000" lon="-2.457481100">
        <ele>394.40</ele>
        <time>2012-10-20T08:52:41Z</time>
      </trkpt>
      <trkpt lat="42.457095700" lon="-2.457659500">
        <ele>394.40</ele>
        <time>2012-10-20T08:52:45Z</time>
      </trkpt>
      <trkpt lat="42.457106200" lon="-2.457722400">
        <ele>394.40</ele>
        <time>2012-10-20T08:52:46Z</time>
      </trkpt>
      <trkpt lat="42.457135300" lon="-2.457838900">
        <ele>394.40</ele>
        <time>2012-10-20T08:52:48Z</time>
      </trkpt>
      <trkpt lat="42.457196400" lon="-2.457970600">
        <ele>394.40</ele>
        <time>2012-10-20T08:52:50Z</time>
      </trkpt>
      <trkpt lat="42.457235100" lon="-2.458015200">
        <ele>394.40</ele>
        <time>2012-10-20T08:52:50Z</time>
      </trkpt>
      <trkpt lat="42.457276900" lon="-2.458115600">
        <ele>394.40</ele>
        <time>2012-10-20T08:52:53Z</time>
      </trkpt>
      <trkpt lat="42.457341400" lon="-2.458232700">
        <ele>394.40</ele>
        <time>2012-10-20T08:52:55Z</time>
      </trkpt>
      <trkpt lat="42.457397000" lon="-2.458440400">
        <ele>394.40</ele>
        <time>2012-10-20T08:52:59Z</time>
      </trkpt>
      <trkpt lat="42.457401100" lon="-2.458515000">
        <ele>394.40</ele>
        <time>2012-10-20T08:53:00Z</time>
      </trkpt>
      <trkpt lat="42.457404200" lon="-2.458659800">
        <ele>394.40</ele>
        <time>2012-10-20T08:53:02Z</time>
      </trkpt>
      <trkpt lat="42.457397900" lon="-2.458788100">
        <ele>394.40</ele>
        <time>2012-10-20T08:53:04Z</time>
      </trkpt>
      <trkpt lat="42.457393100" lon="-2.459067400">
        <ele>394.40</ele>
        <time>2012-10-20T08:53:07Z</time>
      </trkpt>
      <trkpt lat="42.457396000" lon="-2.459161500">
        <ele>394.40</ele>
        <time>2012-10-20T08:53:07Z</time>
      </trkpt>
      <trkpt lat="42.457410200" lon="-2.459338000">
        <ele>394.40</ele>
        <time>2012-10-20T08:53:09Z</time>
      </trkpt>
      <trkpt lat="42.457462600" lon="-2.459599700">
        <ele>394.40</ele>
        <time>2012-10-20T08:53:12Z</time>
      </trkpt>
      <trkpt lat="42.457480000" lon="-2.459649800">
        <ele>394.40</ele>
        <time>2012-10-20T08:53:14Z</time>
      </trkpt>
      <trkpt lat="42.457537900" lon="-2.459745600">
        <ele>394.40</ele>
        <time>2012-10-20T08:53:16Z</time>
      </trkpt>
      <trkpt lat="42.457587100" lon="-2.459861800">
        <ele>394.40</ele>
        <time>2012-10-20T08:53:19Z</time>
      </trkpt>
      <trkpt lat="42.457638700" lon="-2.459943500">
        <ele>394.40</ele>
        <time>2012-10-20T08:53:23Z</time>
      </trkpt>
      <trkpt lat="42.457668300" lon="-2.460035000">
        <ele>394.40</ele>
        <time>2012-10-20T08:53:25Z</time>
      </trkpt>
      <trkpt lat="42.457683900" lon="-2.460068100">
        <ele>394.40</ele>
        <time>2012-10-20T08:53:26Z</time>
      </trkpt>
      <trkpt lat="42.457721800" lon="-2.460128100">
        <ele>394.40</ele>
        <time>2012-10-20T08:53:30Z</time>
      </trkpt>
      <trkpt lat="42.457731000" lon="-2.460189000">
        <ele>394.40</ele>
        <time>2012-10-20T08:53:33Z</time>
      </trkpt>
      <trkpt lat="42.457758500" lon="-2.460317500">
        <ele>394.40</ele>
        <time>2012-10-20T08:53:37Z</time>
      </trkpt>
      <trkpt lat="42.457848100" lon="-2.460546000">
        <ele>394.40</ele>
        <time>2012-10-20T08:54:10Z</time>
      </trkpt>
      <trkpt lat="42.457945700" lon="-2.460678200">
        <ele>394.40</ele>
        <time>2012-10-20T08:54:10Z</time>
      </trkpt>
      <trkpt lat="42.457953800" lon="-2.460922300">
        <ele>394.40</ele>
        <time>2012-10-20T08:54:15Z</time>
      </trkpt>
      <trkpt lat="42.457939700" lon="-2.461065600">
        <ele>394.40</ele>
        <time>2012-10-20T08:54:17Z</time>
      </trkpt>
      <trkpt lat="42.457907800" lon="-2.461268600">
        <ele>394.40</ele>
        <time>2012-10-20T08:54:19Z</time>
      </trkpt>
      <trkpt lat="42.457932900" lon="-2.461461900">
        <ele>394.40</ele>
        <time>2012-10-20T08:54:22Z</time>
      </trkpt>
      <trkpt lat="42.457927700" lon="-2.461572200">
        <ele>394.80</ele>
        <time>2012-10-20T08:54:24Z</time>
      </trkpt>
      <trkpt lat="42.457923800" lon="-2.461627400">
        <ele>395.20</ele>
        <time>2012-10-20T08:54:26Z</time>
      </trkpt>
      <trkpt lat="42.457918600" lon="-2.461678500">
        <ele>395.80</ele>
        <time>2012-10-20T08:54:26Z</time>
      </trkpt>
      <trkpt lat="42.457926800" lon="-2.461731300">
        <ele>396.20</ele>
        <time>2012-10-20T08:54:27Z</time>
      </trkpt>
      <trkpt lat="42.457940200" lon="-2.461785200">
        <ele>396.60</ele>
        <time>2012-10-20T08:54:29Z</time>
      </trkpt>
      <trkpt lat="42.457954500" lon="-2.461846300">
        <ele>396.60</ele>
        <time>2012-10-20T08:54:29Z</time>
      </trkpt>
      <trkpt lat="42.457970500" lon="-2.462028700">
        <ele>396.60</ele>
        <time>2012-10-20T08:54:33Z</time>
      </trkpt>
      <trkpt lat="42.457973000" lon="-2.462130200">
        <ele>396.60</ele>
        <time>2012-10-20T08:54:34Z</time>
      </trkpt>
      <trkpt lat="42.457990600" lon="-2.462347500">
        <ele>396.60</ele>
        <time>2012-10-20T08:54:38Z</time>
      </trkpt>
      <trkpt lat="42.458000100" lon="-2.462414500">
        <ele>396.60</ele>
        <time>2012-10-20T08:54:40Z</time>
      </trkpt>
      <trkpt lat="42.458010800" lon="-2.462575700">
        <ele>396.60</ele>
        <time>2012-10-20T08:54:43Z</time>
      </trkpt>
      <trkpt lat="42.458038300" lon="-2.462683900">
        <ele>396.60</ele>
        <time>2012-10-20T08:54:45Z</time>
      </trkpt>
      <trkpt lat="42.458032700" lon="-2.462952700">
        <ele>396.60</ele>
        <time>2012-10-20T08:54:48Z</time>
      </trkpt>
      <trkpt lat="42.458017900" lon="-2.463064200">
        <ele>397.00</ele>
        <time>2012-10-20T08:54:50Z</time>
      </trkpt>
      <trkpt lat="42.458014200" lon="-2.463126400">
        <ele>397.40</ele>
        <time>2012-10-20T08:54:52Z</time>
      </trkpt>
      <trkpt lat="42.458013000" lon="-2.463192700">
        <ele>397.80</ele>
        <time>2012-10-20T08:54:52Z</time>
      </trkpt>
      <trkpt lat="42.458019800" lon="-2.463264600">
        <ele>398.20</ele>
        <time>2012-10-20T08:54:54Z</time>
      </trkpt>
      <trkpt lat="42.458026200" lon="-2.463332500">
        <ele>398.60</ele>
        <time>2012-10-20T08:54:55Z</time>
      </trkpt>
      <trkpt lat="42.458030500" lon="-2.463399600">
        <ele>398.60</ele>
        <time>2012-10-20T08:54:55Z</time>
      </trkpt>
      <trkpt lat="42.458024900" lon="-2.463581300">
        <ele>398.60</ele>
        <time>2012-10-20T08:54:59Z</time>
      </trkpt>
      <trkpt lat="42.458137700" lon="-2.463954900">
        <ele>398.60</ele>
        <time>2012-10-20T08:55:04Z</time>
      </trkpt>
      <trkpt lat="42.458244200" lon="-2.464173400">
        <ele>398.60</ele>
        <time>2012-10-20T08:55:07Z</time>
      </trkpt>
      <trkpt lat="42.458251100" lon="-2.464237100">
        <ele>398.60</ele>
        <time>2012-10-20T08:55:09Z</time>
      </trkpt>
      <trkpt lat="42.458269500" lon="-2.464438000">
        <ele>399.00</ele>
        <time>2012-10-20T08:55:11Z</time>
      </trkpt>
      <trkpt lat="42.458279800" lon="-2.464508400">
        <ele>399.40</ele>
        <time>2012-10-20T08:55:13Z</time>
      </trkpt>
      <trkpt lat="42.458293300" lon="-2.464577000">
        <ele>399.80</ele>
        <time>2012-10-20T08:55:13Z</time>
      </trkpt>
      <trkpt lat="42.458308600" lon="-2.464638900">
        <ele>400.20</ele>
        <time>2012-10-20T08:55:14Z</time>
      </trkpt>
      <trkpt lat="42.458322800" lon="-2.464696400">
        <ele>400.60</ele>
        <time>2012-10-20T08:55:16Z</time>
      </trkpt>
      <trkpt lat="42.458359200" lon="-2.464801900">
        <ele>400.60</ele>
        <time>2012-10-20T08:55:18Z</time>
      </trkpt>
      <trkpt lat="42.458371500" lon="-2.464842000">
        <ele>400.60</ele>
        <time>2012-10-20T08:55:18Z</time>
      </trkpt>
      <trkpt lat="42.458409500" lon="-2.465003100">
        <ele>400.60</ele>
        <time>2012-10-20T08:55:23Z</time>
      </trkpt>
      <trkpt lat="42.458462600" lon="-2.465242900">
        <ele>400.60</ele>
        <time>2012-10-20T08:55:28Z</time>
      </trkpt>
      <trkpt lat="42.458568400" lon="-2.465687100">
        <ele>400.60</ele>
        <time>2012-10-20T08:55:35Z</time>
      </trkpt>
      <trkpt lat="42.458693900" lon="-2.465714800">
        <ele>400.60</ele>
        <time>2012-10-20T08:55:39Z</time>
      </trkpt>
      <trkpt lat="42.458714700" lon="-2.465715500">
        <ele>400.60</ele>
        <time>2012-10-20T08:55:39Z</time>
      </trkpt>
      <trkpt lat="42.458919300" lon="-2.465196800">
        <ele>400.60</ele>
        <time>2012-10-20T09:09:05Z</time>
      </trkpt>
      <trkpt lat="42.458885900" lon="-2.465057100">
        <ele>400.60</ele>
        <time>2012-10-20T09:09:05Z</time>
      </trkpt>
      <trkpt lat="42.458564500" lon="-2.463537300">
        <ele>400.60</ele>
        <time>2012-10-20T09:09:23Z</time>
      </trkpt>
      <trkpt lat="42.458534900" lon="-2.462101700">
        <ele>400.60</ele>
        <time>2012-10-20T09:09:26Z</time>
      </trkpt>
      <trkpt lat="42.458479100" lon="-2.461872300">
        <ele>400.60</ele>
        <time>2012-10-20T09:09:26Z</time>
      </trkpt>
      <trkpt lat="42.458475600" lon="-2.461824600">
        <ele>400.60</ele>
        <time>2012-10-20T09:09:28Z</time>
      </trkpt>
      <trkpt lat="42.458456800" lon="-2.461803800">
        <ele>400.60</ele>
        <time>2012-10-20T09:09:31Z</time>
      </trkpt>
      <trkpt lat="42.458452700" lon="-2.461774300">
        <ele>400.60</ele>
        <time>2012-10-20T09:09:37Z</time>
      </trkpt>
      <trkpt lat="42.458441200" lon="-2.461743200">
        <ele>400.60</ele>
        <time>2012-10-20T09:09:40Z</time>
      </trkpt>
      <trkpt lat="42.458380800" lon="-2.461584100">
        <ele>400.60</ele>
        <time>2012-10-20T09:09:49Z</time>
      </trkpt>
      <trkpt lat="42.458372900" lon="-2.461578800">
        <ele>400.60</ele>
        <time>2012-10-20T09:09:49Z</time>
      </trkpt>
      <trkpt lat="42.458401000" lon="-2.461388400">
        <ele>400.60</ele>
        <time>2012-10-20T09:10:43Z</time>
      </trkpt>
      <trkpt lat="42.458463500" lon="-2.461150000">
        <ele>400.60</ele>
        <time>2012-10-20T09:10:46Z</time>
      </trkpt>
      <trkpt lat="42.458489400" lon="-2.461139400">
        <ele>400.60</ele>
        <time>2012-10-20T09:10:48Z</time>
      </trkpt>
      <trkpt lat="42.458524200" lon="-2.461185800">
        <ele>400.60</ele>
        <time>2012-10-20T09:10:50Z</time>
      </trkpt>
      <trkpt lat="42.458554500" lon="-2.461213900">
        <ele>401.00</ele>
        <time>2012-10-20T09:10:53Z</time>
      </trkpt>
      <trkpt lat="42.458571800" lon="-2.461222700">
        <ele>401.40</ele>
        <time>2012-10-20T09:10:53Z</time>
      </trkpt>
      <trkpt lat="42.458595000" lon="-2.461247100">
        <ele>401.80</ele>
        <time>2012-10-20T09:10:55Z</time>
      </trkpt>
      <trkpt lat="42.458613000" lon="-2.461264800">
        <ele>402.20</ele>
        <time>2012-10-20T09:10:55Z</time>
      </trkpt>
      <trkpt lat="42.458653300" lon="-2.461288800">
        <ele>402.60</ele>
        <time>2012-10-20T09:10:57Z</time>
      </trkpt>
      <trkpt lat="42.458702300" lon="-2.461335800">
        <ele>402.60</ele>
        <time>2012-10-20T09:10:59Z</time>
      </trkpt>
      <trkpt lat="42.458724800" lon="-2.461369300">
        <ele>402.60</ele>
        <time>2012-10-20T09:11:00Z</time>
      </trkpt>
      <trkpt lat="42.458729000" lon="-2.461398300">
        <ele>402.60</ele>
        <time>2012-10-20T09:11:02Z</time>
      </trkpt>
      <trkpt lat="42.458743300" lon="-2.461418200">
        <ele>403.00</ele>
        <time>2012-10-20T09:11:04Z</time>
      </trkpt>
      <trkpt lat="42.458755600" lon="-2.461438800">
        <ele>403.40</ele>
        <time>2012-10-20T09:11:04Z</time>
      </trkpt>
      <trkpt lat="42.458776800" lon="-2.461463400">
        <ele>403.80</ele>
        <time>2012-10-20T09:11:06Z</time>
      </trkpt>
      <trkpt lat="42.458796700" lon="-2.461488600">
        <ele>404.40</ele>
        <time>2012-10-20T09:11:07Z</time>
      </trkpt>
      <trkpt lat="42.458816400" lon="-2.461511300">
        <ele>404.80</ele>
        <time>2012-10-20T09:11:07Z</time>
      </trkpt>
      <trkpt lat="42.458887300" lon="-2.461560500">
        <ele>404.80</ele>
        <time>2012-10-20T09:11:11Z</time>
      </trkpt>
      <trkpt lat="42.458895000" lon="-2.461647700">
        <ele>404.80</ele>
        <time>2012-10-20T09:11:14Z</time>
      </trkpt>
      <trkpt lat="42.458860600" lon="-2.461768100">
        <ele>404.80</ele>
        <time>2012-10-20T09:11:18Z</time>
      </trkpt>
      <trkpt lat="42.458853200" lon="-2.461803400">
        <ele>404.80</ele>
        <time>2012-10-20T09:11:19Z</time>
      </trkpt>
      <trkpt lat="42.458833200" lon="-2.461997300">
        <ele>404.80</ele>
        <time>2012-10-20T09:11:25Z</time>
      </trkpt>
      <trkpt lat="42.458810100" lon="-2.462150100">
        <ele>404.80</ele>
        <time>2012-10-20T09:11:30Z</time>
      </trkpt>
      <trkpt lat="42.458757600" lon="-2.462315800">
        <ele>404.80</ele>
        <time>2012-10-20T09:11:35Z</time>
      </trkpt>
      <trkpt lat="42.458707500" lon="-2.462646700">
        <ele>404.80</ele>
        <time>2012-10-20T09:11:44Z</time>
      </trkpt>
      <trkpt lat="42.458721500" lon="-2.462792700">
        <ele>404.80</ele>
        <time>2012-10-20T09:11:47Z</time>
      </trkpt>
      <trkpt lat="42.458716300" lon="-2.462910300">
        <ele>404.80</ele>
        <time>2012-10-20T09:11:51Z</time>
      </trkpt>
      <trkpt lat="42.458719900" lon="-2.462992400">
        <ele>404.80</ele>
        <time>2012-10-20T09:11:53Z</time>
      </trkpt>
      <trkpt lat="42.458739100" lon="-2.463136000">
        <ele>404.80</ele>
        <time>2012-10-20T09:11:56Z</time>
      </trkpt>
      <trkpt lat="42.458744300" lon="-2.463419600">
        <ele>404.80</ele>
        <time>2012-10-20T09:12:03Z</time>
      </trkpt>
      <trkpt lat="42.458729300" lon="-2.463536600">
        <ele>405.20</ele>
        <time>2012-10-20T09:12:06Z</time>
      </trkpt>
      <trkpt lat="42.458721000" lon="-2.463573500">
        <ele>405.60</ele>
        <time>2012-10-20T09:12:08Z</time>
      </trkpt>
      <trkpt lat="42.458709300" lon="-2.463600400">
        <ele>406.00</ele>
        <time>2012-10-20T09:12:08Z</time>
      </trkpt>
      <trkpt lat="42.458692900" lon="-2.463639900">
        <ele>406.40</ele>
        <time>2012-10-20T09:12:10Z</time>
      </trkpt>
      <trkpt lat="42.458668500" lon="-2.463672300">
        <ele>407.00</ele>
        <time>2012-10-20T09:12:10Z</time>
      </trkpt>
      <trkpt lat="42.458620600" lon="-2.463740100">
        <ele>407.00</ele>
        <time>2012-10-20T09:12:12Z</time>
      </trkpt>
      <trkpt lat="42.458467200" lon="-2.463855500">
        <ele>407.00</ele>
        <time>2012-10-20T09:12:17Z</time>
      </trkpt>
      <trkpt lat="42.458331100" lon="-2.463932500">
        <ele>407.00</ele>
        <time>2012-10-20T09:12:22Z</time>
      </trkpt>
      <trkpt lat="42.458277000" lon="-2.463948000">
        <ele>407.00</ele>
        <time>2012-10-20T09:12:24Z</time>
      </trkpt>
      <trkpt lat="42.458211600" lon="-2.463976300">
        <ele>407.40</ele>
        <time>2012-10-20T09:12:26Z</time>
      </trkpt>
      <trkpt lat="42.458179500" lon="-2.463985400">
        <ele>407.80</ele>
        <time>2012-10-20T09:12:26Z</time>
      </trkpt>
      <trkpt lat="42.458146800" lon="-2.463992300">
        <ele>408.20</ele>
        <time>2012-10-20T09:12:27Z</time>
      </trkpt>
      <trkpt lat="42.458121300" lon="-2.463991900">
        <ele>408.80</ele>
        <time>2012-10-20T09:12:29Z</time>
      </trkpt>
      <trkpt lat="42.458096300" lon="-2.463995500">
        <ele>409.20</ele>
        <time>2012-10-20T09:12:29Z</time>
      </trkpt>
      <trkpt lat="42.457969800" lon="-2.464006800">
        <ele>409.20</ele>
        <time>2012-10-20T09:12:36Z</time>
      </trkpt>
      <trkpt lat="42.457824700" lon="-2.464090800">
        <ele>409.20</ele>
        <time>2012-10-20T09:12:41Z</time>
      </trkpt>
      <trkpt lat="42.457813400" lon="-2.464124700">
        <ele>409.20</ele>
        <time>2012-10-20T09:12:43Z</time>
      </trkpt>
      <trkpt lat="42.457813000" lon="-2.464199000">
        <ele>409.20</ele>
        <time>2012-10-20T09:12:45Z</time>
      </trkpt>
      <trkpt lat="42.457845000" lon="-2.464411000">
        <ele>409.20</ele>
        <time>2012-10-20T09:12:50Z</time>
      </trkpt>
      <trkpt lat="42.457882800" lon="-2.464591000">
        <ele>409.20</ele>
        <time>2012-10-20T09:12:55Z</time>
      </trkpt>
      <trkpt lat="42.457872600" lon="-2.464701400">
        <ele>409.20</ele>
        <time>2012-10-20T09:12:57Z</time>
      </trkpt>
      <trkpt lat="42.457869000" lon="-2.464732900">
        <ele>409.60</ele>
        <time>2012-10-20T09:12:59Z</time>
      </trkpt>
      <trkpt lat="42.457869600" lon="-2.464771700">
        <ele>410.20</ele>
        <time>2012-10-20T09:12:59Z</time>
      </trkpt>
      <trkpt lat="42.457872900" lon="-2.464808900">
        <ele>410.60</ele>
        <time>2012-10-20T09:13:00Z</time>
      </trkpt>
      <trkpt lat="42.457875600" lon="-2.464836200">
        <ele>411.00</ele>
        <time>2012-10-20T09:13:02Z</time>
      </trkpt>
      <trkpt lat="42.457878700" lon="-2.464872800">
        <ele>411.40</ele>
        <time>2012-10-20T09:13:02Z</time>
      </trkpt>
      <trkpt lat="42.457917800" lon="-2.465132000">
        <ele>411.40</ele>
        <time>2012-10-20T09:13:09Z</time>
      </trkpt>
      <trkpt lat="42.457955700" lon="-2.465330300">
        <ele>411.40</ele>
        <time>2012-10-20T09:13:13Z</time>
      </trkpt>
      <trkpt lat="42.457975600" lon="-2.465607500">
        <ele>411.40</ele>
        <time>2012-10-20T09:13:18Z</time>
      </trkpt>
      <trkpt lat="42.457980400" lon="-2.465967200">
        <ele>411.40</ele>
        <time>2012-10-20T09:13:25Z</time>
      </trkpt>
      <trkpt lat="42.457970600" lon="-2.466158300">
        <ele>411.40</ele>
        <time>2012-10-20T09:13:28Z</time>
      </trkpt>
      <trkpt lat="42.457961000" lon="-2.466198600">
        <ele>411.40</ele>
        <time>2012-10-20T09:13:30Z</time>
      </trkpt>
      <trkpt lat="42.457932100" lon="-2.466294100">
        <ele>411.40</ele>
        <time>2012-10-20T09:13:32Z</time>
      </trkpt>
      <trkpt lat="42.457879500" lon="-2.466433100">
        <ele>411.40</ele>
        <time>2012-10-20T09:13:35Z</time>
      </trkpt>
      <trkpt lat="42.457818100" lon="-2.466622000">
        <ele>411.40</ele>
        <time>2012-10-20T09:13:39Z</time>
      </trkpt>
      <trkpt lat="42.457700100" lon="-2.466814300">
        <ele>411.40</ele>
        <time>2012-10-20T09:13:44Z</time>
      </trkpt>
      <trkpt lat="42.457591400" lon="-2.467005400">
        <ele>411.40</ele>
        <time>2012-10-20T09:13:49Z</time>
      </trkpt>
      <trkpt lat="42.457496200" lon="-2.467230000">
        <ele>411.40</ele>
        <time>2012-10-20T09:13:56Z</time>
      </trkpt>
      <trkpt lat="42.457423100" lon="-2.467541000">
        <ele>411.40</ele>
        <time>2012-10-20T09:14:03Z</time>
      </trkpt>
      <trkpt lat="42.457344600" lon="-2.467830200">
        <ele>411.40</ele>
        <time>2012-10-20T09:14:08Z</time>
      </trkpt>
      <trkpt lat="42.457243100" lon="-2.468064000">
        <ele>411.40</ele>
        <time>2012-10-20T09:14:14Z</time>
      </trkpt>
      <trkpt lat="42.457222900" lon="-2.468080100">
        <ele>411.00</ele>
        <time>2012-10-20T09:14:14Z</time>
      </trkpt>
      <trkpt lat="42.457196400" lon="-2.468093600">
        <ele>410.60</ele>
        <time>2012-10-20T09:14:15Z</time>
      </trkpt>
      <trkpt lat="42.457169500" lon="-2.468101200">
        <ele>410.00</ele>
        <time>2012-10-20T09:14:17Z</time>
      </trkpt>
      <trkpt lat="42.457146700" lon="-2.468116000">
        <ele>409.60</ele>
        <time>2012-10-20T09:14:17Z</time>
      </trkpt>
      <trkpt lat="42.457120300" lon="-2.468133100">
        <ele>409.20</ele>
        <time>2012-10-20T09:14:19Z</time>
      </trkpt>
      <trkpt lat="42.457046600" lon="-2.468257000">
        <ele>409.20</ele>
        <time>2012-10-20T09:14:22Z</time>
      </trkpt>
      <trkpt lat="42.457036700" lon="-2.468303000">
        <ele>409.20</ele>
        <time>2012-10-20T09:14:24Z</time>
      </trkpt>
      <trkpt lat="42.456963500" lon="-2.468574500">
        <ele>409.20</ele>
        <time>2012-10-20T09:14:29Z</time>
      </trkpt>
      <trkpt lat="42.456977100" lon="-2.468760200">
        <ele>409.20</ele>
        <time>2012-10-20T09:14:35Z</time>
      </trkpt>
      <trkpt lat="42.456974500" lon="-2.468792300">
        <ele>409.20</ele>
        <time>2012-10-20T09:14:36Z</time>
      </trkpt>
      <trkpt lat="42.456921000" lon="-2.469000700">
        <ele>409.20</ele>
        <time>2012-10-20T09:14:41Z</time>
      </trkpt>
      <trkpt lat="42.456866000" lon="-2.469087100">
        <ele>409.20</ele>
        <time>2012-10-20T09:14:45Z</time>
      </trkpt>
      <trkpt lat="42.456729500" lon="-2.469156500">
        <ele>409.20</ele>
        <time>2012-10-20T09:14:50Z</time>
      </trkpt>
      <trkpt lat="42.456622500" lon="-2.469294800">
        <ele>409.20</ele>
        <time>2012-10-20T09:14:55Z</time>
      </trkpt>
      <trkpt lat="42.456586200" lon="-2.469318100">
        <ele>409.20</ele>
        <time>2012-10-20T09:14:57Z</time>
      </trkpt>
      <trkpt lat="42.456487500" lon="-2.469335200">
        <ele>409.60</ele>
        <time>2012-10-20T09:15:02Z</time>
      </trkpt>
      <trkpt lat="42.456471600" lon="-2.469369100">
        <ele>410.00</ele>
        <time>2012-10-20T09:15:04Z</time>
      </trkpt>
      <trkpt lat="42.456456700" lon="-2.469411600">
        <ele>410.40</ele>
        <time>2012-10-20T09:15:04Z</time>
      </trkpt>
      <trkpt lat="42.456443400" lon="-2.469449100">
        <ele>410.80</ele>
        <time>2012-10-20T09:15:06Z</time>
      </trkpt>
      <trkpt lat="42.456432900" lon="-2.469494200">
        <ele>411.20</ele>
        <time>2012-10-20T09:15:06Z</time>
      </trkpt>
      <trkpt lat="42.456418400" lon="-2.469537600">
        <ele>411.20</ele>
        <time>2012-10-20T09:15:08Z</time>
      </trkpt>
      <trkpt lat="42.456387200" lon="-2.469603000">
        <ele>411.20</ele>
        <time>2012-10-20T09:15:09Z</time>
      </trkpt>
      <trkpt lat="42.456344700" lon="-2.469709300">
        <ele>411.20</ele>
        <time>2012-10-20T09:15:13Z</time>
      </trkpt>
      <trkpt lat="42.456305900" lon="-2.469807800">
        <ele>411.60</ele>
        <time>2012-10-20T09:15:16Z</time>
      </trkpt>
      <trkpt lat="42.456293100" lon="-2.469812700">
        <ele>412.20</ele>
        <time>2012-10-20T09:15:18Z</time>
      </trkpt>
      <trkpt lat="42.456278500" lon="-2.469808200">
        <ele>412.60</ele>
        <time>2012-10-20T09:15:18Z</time>
      </trkpt>
      <trkpt lat="42.456264400" lon="-2.469813000">
        <ele>413.00</ele>
        <time>2012-10-20T09:15:20Z</time>
      </trkpt>
      <trkpt lat="42.456251100" lon="-2.469830000">
        <ele>413.40</ele>
        <time>2012-10-20T09:15:20Z</time>
      </trkpt>
      <trkpt lat="42.456202800" lon="-2.470078400">
        <ele>413.40</ele>
        <time>2012-10-20T09:15:25Z</time>
      </trkpt>
      <trkpt lat="42.456190000" lon="-2.470303800">
        <ele>413.40</ele>
        <time>2012-10-20T09:15:32Z</time>
      </trkpt>
      <trkpt lat="42.456191400" lon="-2.470334000">
        <ele>413.40</ele>
        <time>2012-10-20T09:15:32Z</time>
      </trkpt>
      <trkpt lat="42.456204300" lon="-2.470485800">
        <ele>413.80</ele>
        <time>2012-10-20T09:15:37Z</time>
      </trkpt>
      <trkpt lat="42.456205100" lon="-2.470578900">
        <ele>414.60</ele>
        <time>2012-10-20T09:15:39Z</time>
      </trkpt>
      <trkpt lat="42.456206900" lon="-2.470625600">
        <ele>414.60</ele>
        <time>2012-10-20T09:15:39Z</time>
      </trkpt>
      <trkpt lat="42.456207900" lon="-2.470669600">
        <ele>415.00</ele>
        <time>2012-10-20T09:15:41Z</time>
      </trkpt>
      <trkpt lat="42.456206600" lon="-2.470715300">
        <ele>415.40</ele>
        <time>2012-10-20T09:15:41Z</time>
      </trkpt>
      <trkpt lat="42.456203000" lon="-2.470878000">
        <ele>415.40</ele>
        <time>2012-10-20T09:15:46Z</time>
      </trkpt>
      <trkpt lat="42.456148100" lon="-2.471259100">
        <ele>415.40</ele>
        <time>2012-10-20T09:15:53Z</time>
      </trkpt>
      <trkpt lat="42.456071200" lon="-2.471494000">
        <ele>415.40</ele>
        <time>2012-10-20T09:15:58Z</time>
      </trkpt>
      <trkpt lat="42.455987200" lon="-2.471679300">
        <ele>415.40</ele>
        <time>2012-10-20T09:16:03Z</time>
      </trkpt>
      <trkpt lat="42.455911800" lon="-2.471862100">
        <ele>415.40</ele>
        <time>2012-10-20T09:16:07Z</time>
      </trkpt>
      <trkpt lat="42.455900900" lon="-2.471967600">
        <ele>415.40</ele>
        <time>2012-10-20T09:16:10Z</time>
      </trkpt>
      <trkpt lat="42.455899100" lon="-2.472308900">
        <ele>415.40</ele>
        <time>2012-10-20T09:16:16Z</time>
      </trkpt>
      <trkpt lat="42.455826300" lon="-2.472789400">
        <ele>415.40</ele>
        <time>2012-10-20T09:16:19Z</time>
      </trkpt>
      <trkpt lat="42.455748600" lon="-2.473265800">
        <ele>415.40</ele>
        <time>2012-10-20T09:16:21Z</time>
      </trkpt>
      <trkpt lat="42.455678800" lon="-2.473523200">
        <ele>415.40</ele>
        <time>2012-10-20T09:16:24Z</time>
      </trkpt>
      <trkpt lat="42.455662800" lon="-2.473745000">
        <ele>415.40</ele>
        <time>2012-10-20T09:16:26Z</time>
      </trkpt>
      <trkpt lat="42.455670900" lon="-2.473834600">
        <ele>415.00</ele>
        <time>2012-10-20T09:16:26Z</time>
      </trkpt>
      <trkpt lat="42.455659000" lon="-2.473905600">
        <ele>414.60</ele>
        <time>2012-10-20T09:16:28Z</time>
      </trkpt>
      <trkpt lat="42.455640000" lon="-2.473993600">
        <ele>414.20</ele>
        <time>2012-10-20T09:16:28Z</time>
      </trkpt>
      <trkpt lat="42.455630100" lon="-2.474077000">
        <ele>413.80</ele>
        <time>2012-10-20T09:16:29Z</time>
      </trkpt>
      <trkpt lat="42.455603800" lon="-2.474192800">
        <ele>413.40</ele>
        <time>2012-10-20T09:16:31Z</time>
      </trkpt>
      <trkpt lat="42.455576400" lon="-2.474306000">
        <ele>413.00</ele>
        <time>2012-10-20T09:16:31Z</time>
      </trkpt>
      <trkpt lat="42.455544800" lon="-2.474405700">
        <ele>412.40</ele>
        <time>2012-10-20T09:16:33Z</time>
      </trkpt>
      <trkpt lat="42.455520300" lon="-2.474494600">
        <ele>412.00</ele>
        <time>2012-10-20T09:16:33Z</time>
      </trkpt>
      <trkpt lat="42.455495600" lon="-2.474596500">
        <ele>411.40</ele>
        <time>2012-10-20T09:16:35Z</time>
      </trkpt>
      <trkpt lat="42.455481600" lon="-2.474824600">
        <ele>411.00</ele>
        <time>2012-10-20T09:16:35Z</time>
      </trkpt>
      <trkpt lat="42.455462200" lon="-2.474891000">
        <ele>410.60</ele>
        <time>2012-10-20T09:16:36Z</time>
      </trkpt>
      <trkpt lat="42.455442700" lon="-2.474963000">
        <ele>410.00</ele>
        <time>2012-10-20T09:16:38Z</time>
      </trkpt>
      <trkpt lat="42.455436400" lon="-2.474951500">
        <ele>409.60</ele>
        <time>2012-10-20T09:16:38Z</time>
      </trkpt>
      <trkpt lat="42.455427300" lon="-2.474962900">
        <ele>409.00</ele>
        <time>2012-10-20T09:16:40Z</time>
      </trkpt>
      <trkpt lat="42.455413400" lon="-2.474978800">
        <ele>408.60</ele>
        <time>2012-10-20T09:16:40Z</time>
      </trkpt>
      <trkpt lat="42.455218700" lon="-2.475216000">
        <ele>408.60</ele>
        <time>2012-10-20T09:16:49Z</time>
      </trkpt>
      <trkpt lat="42.455142600" lon="-2.475249000">
        <ele>408.60</ele>
        <time>2012-10-20T09:16:54Z</time>
      </trkpt>
      <trkpt lat="42.455093900" lon="-2.475366400">
        <ele>408.60</ele>
        <time>2012-10-20T09:16:57Z</time>
      </trkpt>
      <trkpt lat="42.455090500" lon="-2.475417900">
        <ele>408.60</ele>
        <time>2012-10-20T09:16:59Z</time>
      </trkpt>
      <trkpt lat="42.455111900" lon="-2.475479400">
        <ele>408.60</ele>
        <time>2012-10-20T09:17:03Z</time>
      </trkpt>
      <trkpt lat="42.455109200" lon="-2.475515600">
        <ele>408.60</ele>
        <time>2012-10-20T09:17:04Z</time>
      </trkpt>
      <trkpt lat="42.455075900" lon="-2.475737800">
        <ele>408.60</ele>
        <time>2012-10-20T09:17:10Z</time>
      </trkpt>
      <trkpt lat="42.455079200" lon="-2.475779800">
        <ele>408.60</ele>
        <time>2012-10-20T09:17:11Z</time>
      </trkpt>
      <trkpt lat="42.455047000" lon="-2.476057800">
        <ele>408.60</ele>
        <time>2012-10-20T09:17:17Z</time>
      </trkpt>
      <trkpt lat="42.455036300" lon="-2.476166000">
        <ele>409.00</ele>
        <time>2012-10-20T09:17:20Z</time>
      </trkpt>
      <trkpt lat="42.455026000" lon="-2.476205800">
        <ele>409.80</ele>
        <time>2012-10-20T09:17:22Z</time>
      </trkpt>
      <trkpt lat="42.455020400" lon="-2.476245900">
        <ele>410.20</ele>
        <time>2012-10-20T09:17:22Z</time>
      </trkpt>
      <trkpt lat="42.455010100" lon="-2.476315900">
        <ele>410.60</ele>
        <time>2012-10-20T09:17:24Z</time>
      </trkpt>
      <trkpt lat="42.454998400" lon="-2.476488200">
        <ele>410.60</ele>
        <time>2012-10-20T09:17:27Z</time>
      </trkpt>
      <trkpt lat="42.454963800" lon="-2.476692800">
        <ele>410.60</ele>
        <time>2012-10-20T09:17:32Z</time>
      </trkpt>
      <trkpt lat="42.454907400" lon="-2.476952000">
        <ele>410.60</ele>
        <time>2012-10-20T09:17:37Z</time>
      </trkpt>
      <trkpt lat="42.454825400" lon="-2.477142800">
        <ele>410.60</ele>
        <time>2012-10-20T09:17:41Z</time>
      </trkpt>
      <trkpt lat="42.454804800" lon="-2.477198400">
        <ele>410.60</ele>
        <time>2012-10-20T09:17:43Z</time>
      </trkpt>
      <trkpt lat="42.454669700" lon="-2.477482700">
        <ele>410.60</ele>
        <time>2012-10-20T09:17:50Z</time>
      </trkpt>
      <trkpt lat="42.454590600" lon="-2.477628300">
        <ele>410.60</ele>
        <time>2012-10-20T09:17:53Z</time>
      </trkpt>
      <trkpt lat="42.454512600" lon="-2.477793900">
        <ele>410.60</ele>
        <time>2012-10-20T09:17:55Z</time>
      </trkpt>
      <trkpt lat="42.454467600" lon="-2.477891000">
        <ele>410.60</ele>
        <time>2012-10-20T09:17:58Z</time>
      </trkpt>
      <trkpt lat="42.454339600" lon="-2.478186300">
        <ele>410.60</ele>
        <time>2012-10-20T09:18:04Z</time>
      </trkpt>
      <trkpt lat="42.454306800" lon="-2.478269400">
        <ele>410.60</ele>
        <time>2012-10-20T09:18:05Z</time>
      </trkpt>
      <trkpt lat="42.454248800" lon="-2.478405900">
        <ele>410.60</ele>
        <time>2012-10-20T09:18:09Z</time>
      </trkpt>
      <trkpt lat="42.454182600" lon="-2.478551300">
        <ele>410.60</ele>
        <time>2012-10-20T09:18:12Z</time>
      </trkpt>
      <trkpt lat="42.454098800" lon="-2.478722600">
        <ele>410.60</ele>
        <time>2012-10-20T09:18:16Z</time>
      </trkpt>
      <trkpt lat="42.454054700" lon="-2.478828800">
        <ele>410.60</ele>
        <time>2012-10-20T09:18:19Z</time>
      </trkpt>
      <trkpt lat="42.454035700" lon="-2.478863700">
        <ele>410.60</ele>
        <time>2012-10-20T09:18:19Z</time>
      </trkpt>
      <trkpt lat="42.453958400" lon="-2.479016900">
        <ele>410.60</ele>
        <time>2012-10-20T09:18:23Z</time>
      </trkpt>
      <trkpt lat="42.453923700" lon="-2.479112700">
        <ele>410.60</ele>
        <time>2012-10-20T09:18:26Z</time>
      </trkpt>
      <trkpt lat="42.453844800" lon="-2.479318200">
        <ele>410.60</ele>
        <time>2012-10-20T09:18:30Z</time>
      </trkpt>
      <trkpt lat="42.453765600" lon="-2.479537000">
        <ele>410.60</ele>
        <time>2012-10-20T09:18:35Z</time>
      </trkpt>
      <trkpt lat="42.453726100" lon="-2.479669000">
        <ele>410.60</ele>
        <time>2012-10-20T09:18:38Z</time>
      </trkpt>
      <trkpt lat="42.453701900" lon="-2.479767700">
        <ele>410.60</ele>
        <time>2012-10-20T09:18:40Z</time>
      </trkpt>
      <trkpt lat="42.453670600" lon="-2.479875200">
        <ele>410.60</ele>
        <time>2012-10-20T09:18:42Z</time>
      </trkpt>
      <trkpt lat="42.453603600" lon="-2.480086500">
        <ele>410.60</ele>
        <time>2012-10-20T09:18:47Z</time>
      </trkpt>
      <trkpt lat="42.453590500" lon="-2.480137000">
        <ele>410.60</ele>
        <time>2012-10-20T09:18:47Z</time>
      </trkpt>
      <trkpt lat="42.453532900" lon="-2.480323300">
        <ele>410.60</ele>
        <time>2012-10-20T09:18:52Z</time>
      </trkpt>
      <trkpt lat="42.453459000" lon="-2.480604500">
        <ele>410.60</ele>
        <time>2012-10-20T09:18:56Z</time>
      </trkpt>
      <trkpt lat="42.453445500" lon="-2.480734500">
        <ele>410.60</ele>
        <time>2012-10-20T09:18:59Z</time>
      </trkpt>
      <trkpt lat="42.453431600" lon="-2.480840400">
        <ele>410.60</ele>
        <time>2012-10-20T09:19:01Z</time>
      </trkpt>
      <trkpt lat="42.453402200" lon="-2.481022800">
        <ele>410.60</ele>
        <time>2012-10-20T09:19:06Z</time>
      </trkpt>
      <trkpt lat="42.453388000" lon="-2.481074900">
        <ele>410.60</ele>
        <time>2012-10-20T09:19:06Z</time>
      </trkpt>
      <trkpt lat="42.453349700" lon="-2.481231000">
        <ele>410.60</ele>
        <time>2012-10-20T09:19:10Z</time>
      </trkpt>
      <trkpt lat="42.453335000" lon="-2.481501100">
        <ele>410.60</ele>
        <time>2012-10-20T09:19:15Z</time>
      </trkpt>
      <trkpt lat="42.453325400" lon="-2.481554500">
        <ele>410.60</ele>
        <time>2012-10-20T09:19:15Z</time>
      </trkpt>
      <trkpt lat="42.453298700" lon="-2.481737000">
        <ele>410.60</ele>
        <time>2012-10-20T09:19:18Z</time>
      </trkpt>
      <trkpt lat="42.453261600" lon="-2.482071600">
        <ele>410.60</ele>
        <time>2012-10-20T09:19:24Z</time>
      </trkpt>
      <trkpt lat="42.453222300" lon="-2.482245100">
        <ele>410.60</ele>
        <time>2012-10-20T09:19:27Z</time>
      </trkpt>
      <trkpt lat="42.453188700" lon="-2.482466500">
        <ele>410.60</ele>
        <time>2012-10-20T09:19:31Z</time>
      </trkpt>
      <trkpt lat="42.453166300" lon="-2.482565100">
        <ele>410.60</ele>
        <time>2012-10-20T09:19:34Z</time>
      </trkpt>
      <trkpt lat="42.453123600" lon="-2.482891000">
        <ele>410.60</ele>
        <time>2012-10-20T09:19:39Z</time>
      </trkpt>
      <trkpt lat="42.453073900" lon="-2.483252600">
        <ele>410.60</ele>
        <time>2012-10-20T09:19:46Z</time>
      </trkpt>
      <trkpt lat="42.453063700" lon="-2.483482100">
        <ele>410.60</ele>
        <time>2012-10-20T09:19:50Z</time>
      </trkpt>
      <trkpt lat="42.453069500" lon="-2.483667500">
        <ele>410.60</ele>
        <time>2012-10-20T09:19:53Z</time>
      </trkpt>
      <trkpt lat="42.453083200" lon="-2.483704700">
        <ele>410.60</ele>
        <time>2012-10-20T09:19:55Z</time>
      </trkpt>
      <trkpt lat="42.453096900" lon="-2.483748800">
        <ele>411.00</ele>
        <time>2012-10-20T09:19:55Z</time>
      </trkpt>
      <trkpt lat="42.453103100" lon="-2.483804200">
        <ele>411.40</ele>
        <time>2012-10-20T09:19:57Z</time>
      </trkpt>
      <trkpt lat="42.453091900" lon="-2.483854300">
        <ele>411.40</ele>
        <time>2012-10-20T09:19:57Z</time>
      </trkpt>
      <trkpt lat="42.453079600" lon="-2.483917400">
        <ele>412.40</ele>
        <time>2012-10-20T09:19:59Z</time>
      </trkpt>
      <trkpt lat="42.453077200" lon="-2.483978900">
        <ele>412.80</ele>
        <time>2012-10-20T09:20:00Z</time>
      </trkpt>
      <trkpt lat="42.453063000" lon="-2.484095500">
        <ele>412.80</ele>
        <time>2012-10-20T09:20:02Z</time>
      </trkpt>
      <trkpt lat="42.453059200" lon="-2.484152300">
        <ele>412.80</ele>
        <time>2012-10-20T09:20:02Z</time>
      </trkpt>
      <trkpt lat="42.452999100" lon="-2.484543100">
        <ele>412.80</ele>
        <time>2012-10-20T09:20:09Z</time>
      </trkpt>
      <trkpt lat="42.452964700" lon="-2.484687300">
        <ele>412.80</ele>
        <time>2012-10-20T09:20:11Z</time>
      </trkpt>
      <trkpt lat="42.452876300" lon="-2.484878600">
        <ele>412.80</ele>
        <time>2012-10-20T09:20:14Z</time>
      </trkpt>
      <trkpt lat="42.452817700" lon="-2.485039800">
        <ele>412.80</ele>
        <time>2012-10-20T09:20:18Z</time>
      </trkpt>
      <trkpt lat="42.452761500" lon="-2.485214800">
        <ele>412.80</ele>
        <time>2012-10-20T09:20:21Z</time>
      </trkpt>
      <trkpt lat="42.452645300" lon="-2.485542000">
        <ele>412.80</ele>
        <time>2012-10-20T09:20:26Z</time>
      </trkpt>
      <trkpt lat="42.452587200" lon="-2.485768800">
        <ele>412.80</ele>
        <time>2012-10-20T09:20:32Z</time>
      </trkpt>
      <trkpt lat="42.452461400" lon="-2.486133500">
        <ele>412.80</ele>
        <time>2012-10-20T09:20:40Z</time>
      </trkpt>
      <trkpt lat="42.452421200" lon="-2.486235200">
        <ele>412.80</ele>
        <time>2012-10-20T09:20:42Z</time>
      </trkpt>
      <trkpt lat="42.452347400" lon="-2.486451100">
        <ele>412.80</ele>
        <time>2012-10-20T09:20:46Z</time>
      </trkpt>
      <trkpt lat="42.452230900" lon="-2.486710300">
        <ele>412.80</ele>
        <time>2012-10-20T09:20:51Z</time>
      </trkpt>
      <trkpt lat="42.452178200" lon="-2.486929900">
        <ele>413.20</ele>
        <time>2012-10-20T09:20:54Z</time>
      </trkpt>
      <trkpt lat="42.452169300" lon="-2.486981700">
        <ele>413.60</ele>
        <time>2012-10-20T09:20:54Z</time>
      </trkpt>
      <trkpt lat="42.452154600" lon="-2.487037600">
        <ele>414.00</ele>
        <time>2012-10-20T09:20:56Z</time>
      </trkpt>
      <trkpt lat="42.452138100" lon="-2.487080000">
        <ele>414.40</ele>
        <time>2012-10-20T09:20:56Z</time>
      </trkpt>
      <trkpt lat="42.452119800" lon="-2.487114400">
        <ele>414.80</ele>
        <time>2012-10-20T09:20:58Z</time>
      </trkpt>
      <trkpt lat="42.452104000" lon="-2.487165400">
        <ele>414.80</ele>
        <time>2012-10-20T09:20:58Z</time>
      </trkpt>
      <trkpt lat="42.452062800" lon="-2.487270200">
        <ele>414.80</ele>
        <time>2012-10-20T09:21:01Z</time>
      </trkpt>
      <trkpt lat="42.451975400" lon="-2.487524600">
        <ele>414.80</ele>
        <time>2012-10-20T09:21:05Z</time>
      </trkpt>
      <trkpt lat="42.451913900" lon="-2.487728600">
        <ele>414.80</ele>
        <time>2012-10-20T09:21:10Z</time>
      </trkpt>
      <trkpt lat="42.451876700" lon="-2.487820800">
        <ele>414.80</ele>
        <time>2012-10-20T09:21:12Z</time>
      </trkpt>
      <trkpt lat="42.451769800" lon="-2.488108000">
        <ele>414.80</ele>
        <time>2012-10-20T09:21:17Z</time>
      </trkpt>
      <trkpt lat="42.451697300" lon="-2.488390500">
        <ele>414.80</ele>
        <time>2012-10-20T09:21:22Z</time>
      </trkpt>
      <trkpt lat="42.451678500" lon="-2.488485100">
        <ele>415.20</ele>
        <time>2012-10-20T09:21:24Z</time>
      </trkpt>
      <trkpt lat="42.451669200" lon="-2.488514400">
        <ele>415.60</ele>
        <time>2012-10-20T09:21:24Z</time>
      </trkpt>
      <trkpt lat="42.451653100" lon="-2.488613700">
        <ele>416.40</ele>
        <time>2012-10-20T09:21:26Z</time>
      </trkpt>
      <trkpt lat="42.451644200" lon="-2.488652900">
        <ele>416.80</ele>
        <time>2012-10-20T09:21:27Z</time>
      </trkpt>
      <trkpt lat="42.451626400" lon="-2.488785100">
        <ele>416.80</ele>
        <time>2012-10-20T09:21:31Z</time>
      </trkpt>
      <trkpt lat="42.451557700" lon="-2.489028100">
        <ele>416.80</ele>
        <time>2012-10-20T09:21:36Z</time>
      </trkpt>
      <trkpt lat="42.451498100" lon="-2.489309300">
        <ele>416.80</ele>
        <time>2012-10-20T09:21:41Z</time>
      </trkpt>
      <trkpt lat="42.451437300" lon="-2.489612600">
        <ele>416.80</ele>
        <time>2012-10-20T09:21:47Z</time>
      </trkpt>
      <trkpt lat="42.451361300" lon="-2.489868000">
        <ele>416.80</ele>
        <time>2012-10-20T09:21:52Z</time>
      </trkpt>
      <trkpt lat="42.451312300" lon="-2.490061600">
        <ele>416.80</ele>
        <time>2012-10-20T09:21:55Z</time>
      </trkpt>
      <trkpt lat="42.451286000" lon="-2.490153400">
        <ele>416.80</ele>
        <time>2012-10-20T09:21:57Z</time>
      </trkpt>
      <trkpt lat="42.451238500" lon="-2.490439700">
        <ele>416.80</ele>
        <time>2012-10-20T09:22:00Z</time>
      </trkpt>
      <trkpt lat="42.451209800" lon="-2.490547200">
        <ele>417.40</ele>
        <time>2012-10-20T09:22:02Z</time>
      </trkpt>
      <trkpt lat="42.451202800" lon="-2.490564800">
        <ele>417.80</ele>
        <time>2012-10-20T09:22:04Z</time>
      </trkpt>
      <trkpt lat="42.451184100" lon="-2.490614000">
        <ele>418.20</ele>
        <time>2012-10-20T09:22:04Z</time>
      </trkpt>
      <trkpt lat="42.451169500" lon="-2.490667500">
        <ele>418.60</ele>
        <time>2012-10-20T09:22:06Z</time>
      </trkpt>
      <trkpt lat="42.451159600" lon="-2.490716000">
        <ele>419.00</ele>
        <time>2012-10-20T09:22:06Z</time>
      </trkpt>
      <trkpt lat="42.451128500" lon="-2.490830000">
        <ele>419.00</ele>
        <time>2012-10-20T09:22:09Z</time>
      </trkpt>
      <trkpt lat="42.451107500" lon="-2.490940600">
        <ele>419.00</ele>
        <time>2012-10-20T09:22:11Z</time>
      </trkpt>
      <trkpt lat="42.451040200" lon="-2.491318000">
        <ele>419.00</ele>
        <time>2012-10-20T09:22:18Z</time>
      </trkpt>
      <trkpt lat="42.450992300" lon="-2.491468700">
        <ele>419.00</ele>
        <time>2012-10-20T09:22:21Z</time>
      </trkpt>
      <trkpt lat="42.450932000" lon="-2.491685200">
        <ele>419.00</ele>
        <time>2012-10-20T09:22:25Z</time>
      </trkpt>
      <trkpt lat="42.450853300" lon="-2.492006700">
        <ele>419.00</ele>
        <time>2012-10-20T09:22:30Z</time>
      </trkpt>
      <trkpt lat="42.450809600" lon="-2.492178500">
        <ele>419.00</ele>
        <time>2012-10-20T09:22:34Z</time>
      </trkpt>
      <trkpt lat="42.450773100" lon="-2.492299900">
        <ele>419.00</ele>
        <time>2012-10-20T09:22:35Z</time>
      </trkpt>
      <trkpt lat="42.450669000" lon="-2.492594000">
        <ele>419.00</ele>
        <time>2012-10-20T09:22:41Z</time>
      </trkpt>
      <trkpt lat="42.450621900" lon="-2.492783900">
        <ele>419.00</ele>
        <time>2012-10-20T09:22:44Z</time>
      </trkpt>
      <trkpt lat="42.450607400" lon="-2.492843900">
        <ele>419.60</ele>
        <time>2012-10-20T09:22:44Z</time>
      </trkpt>
      <trkpt lat="42.450598100" lon="-2.492895400">
        <ele>420.00</ele>
        <time>2012-10-20T09:22:46Z</time>
      </trkpt>
      <trkpt lat="42.450581600" lon="-2.492957300">
        <ele>420.40</ele>
        <time>2012-10-20T09:22:46Z</time>
      </trkpt>
      <trkpt lat="42.450564000" lon="-2.493005200">
        <ele>420.80</ele>
        <time>2012-10-20T09:22:48Z</time>
      </trkpt>
      <trkpt lat="42.450545200" lon="-2.493059600">
        <ele>421.40</ele>
        <time>2012-10-20T09:22:49Z</time>
      </trkpt>
      <trkpt lat="42.450532900" lon="-2.493123100">
        <ele>421.40</ele>
        <time>2012-10-20T09:22:49Z</time>
      </trkpt>
      <trkpt lat="42.450472800" lon="-2.493340300">
        <ele>421.40</ele>
        <time>2012-10-20T09:22:53Z</time>
      </trkpt>
      <trkpt lat="42.450404100" lon="-2.493537100">
        <ele>421.40</ele>
        <time>2012-10-20T09:22:58Z</time>
      </trkpt>
      <trkpt lat="42.450371000" lon="-2.493565700">
        <ele>421.40</ele>
        <time>2012-10-20T09:22:58Z</time>
      </trkpt>
      <trkpt lat="42.450330500" lon="-2.493565700">
        <ele>421.80</ele>
        <time>2012-10-20T09:23:00Z</time>
      </trkpt>
      <trkpt lat="42.450292400" lon="-2.493554800">
        <ele>422.20</ele>
        <time>2012-10-20T09:23:00Z</time>
      </trkpt>
      <trkpt lat="42.450255500" lon="-2.493530900">
        <ele>422.60</ele>
        <time>2012-10-20T09:23:01Z</time>
      </trkpt>
      <trkpt lat="42.450222200" lon="-2.493507900">
        <ele>423.00</ele>
        <time>2012-10-20T09:23:03Z</time>
      </trkpt>
      <trkpt lat="42.450190900" lon="-2.493476600">
        <ele>423.40</ele>
        <time>2012-10-20T09:23:03Z</time>
      </trkpt>
      <trkpt lat="42.450050300" lon="-2.493538800">
        <ele>423.40</ele>
        <time>2012-10-20T09:23:05Z</time>
      </trkpt>
      <trkpt lat="42.449928000" lon="-2.493719700">
        <ele>423.40</ele>
        <time>2012-10-20T09:23:08Z</time>
      </trkpt>
      <trkpt lat="42.449963700" lon="-2.494076300">
        <ele>423.40</ele>
        <time>2012-10-20T09:23:12Z</time>
      </trkpt>
      <trkpt lat="42.449954700" lon="-2.494114400">
        <ele>423.40</ele>
        <time>2012-10-20T09:23:14Z</time>
      </trkpt>
      <trkpt lat="42.449949900" lon="-2.494176900">
        <ele>423.80</ele>
        <time>2012-10-20T09:23:15Z</time>
      </trkpt>
      <trkpt lat="42.449952600" lon="-2.494215200">
        <ele>424.40</ele>
        <time>2012-10-20T09:23:17Z</time>
      </trkpt>
      <trkpt lat="42.449951700" lon="-2.494265100">
        <ele>424.80</ele>
        <time>2012-10-20T09:23:17Z</time>
      </trkpt>
      <trkpt lat="42.449958800" lon="-2.494304500">
        <ele>425.20</ele>
        <time>2012-10-20T09:23:19Z</time>
      </trkpt>
      <trkpt lat="42.449960600" lon="-2.494356100">
        <ele>425.60</ele>
        <time>2012-10-20T09:23:19Z</time>
      </trkpt>
      <trkpt lat="42.449952100" lon="-2.494650600">
        <ele>425.60</ele>
        <time>2012-10-20T09:23:24Z</time>
      </trkpt>
      <trkpt lat="42.449952700" lon="-2.494744100">
        <ele>425.60</ele>
        <time>2012-10-20T09:23:26Z</time>
      </trkpt>
      <trkpt lat="42.449960700" lon="-2.494830100">
        <ele>425.60</ele>
        <time>2012-10-20T09:23:29Z</time>
      </trkpt>
      <trkpt lat="42.449992900" lon="-2.494980400">
        <ele>426.00</ele>
        <time>2012-10-20T09:23:31Z</time>
      </trkpt>
      <trkpt lat="42.449996500" lon="-2.495036300">
        <ele>426.40</ele>
        <time>2012-10-20T09:23:33Z</time>
      </trkpt>
      <trkpt lat="42.450001300" lon="-2.495091200">
        <ele>427.00</ele>
        <time>2012-10-20T09:23:33Z</time>
      </trkpt>
      <trkpt lat="42.450002100" lon="-2.495138200">
        <ele>427.40</ele>
        <time>2012-10-20T09:23:35Z</time>
      </trkpt>
      <trkpt lat="42.450006300" lon="-2.495190200">
        <ele>427.80</ele>
        <time>2012-10-20T09:23:36Z</time>
      </trkpt>
      <trkpt lat="42.449981500" lon="-2.495618700">
        <ele>427.80</ele>
        <time>2012-10-20T09:23:45Z</time>
      </trkpt>
      <trkpt lat="42.449967000" lon="-2.495759500">
        <ele>428.20</ele>
        <time>2012-10-20T09:23:47Z</time>
      </trkpt>
      <trkpt lat="42.449963000" lon="-2.495825900">
        <ele>428.80</ele>
        <time>2012-10-20T09:23:48Z</time>
      </trkpt>
      <trkpt lat="42.449961700" lon="-2.495899900">
        <ele>429.20</ele>
        <time>2012-10-20T09:23:50Z</time>
      </trkpt>
      <trkpt lat="42.449963500" lon="-2.495959300">
        <ele>429.60</ele>
        <time>2012-10-20T09:23:50Z</time>
      </trkpt>
      <trkpt lat="42.449967800" lon="-2.496021100">
        <ele>430.00</ele>
        <time>2012-10-20T09:23:52Z</time>
      </trkpt>
      <trkpt lat="42.449957400" lon="-2.496328000">
        <ele>430.00</ele>
        <time>2012-10-20T09:23:57Z</time>
      </trkpt>
      <trkpt lat="42.449938900" lon="-2.496507900">
        <ele>430.40</ele>
        <time>2012-10-20T09:23:59Z</time>
      </trkpt>
      <trkpt lat="42.449932400" lon="-2.496556800">
        <ele>430.80</ele>
        <time>2012-10-20T09:24:01Z</time>
      </trkpt>
      <trkpt lat="42.449919500" lon="-2.496608300">
        <ele>431.20</ele>
        <time>2012-10-20T09:24:01Z</time>
      </trkpt>
      <trkpt lat="42.449908600" lon="-2.496656800">
        <ele>431.80</ele>
        <time>2012-10-20T09:24:02Z</time>
      </trkpt>
      <trkpt lat="42.449898500" lon="-2.496703600">
        <ele>432.20</ele>
        <time>2012-10-20T09:24:04Z</time>
      </trkpt>
      <trkpt lat="42.449806600" lon="-2.496926500">
        <ele>432.20</ele>
        <time>2012-10-20T09:24:09Z</time>
      </trkpt>
      <trkpt lat="42.449749000" lon="-2.497007000">
        <ele>432.60</ele>
        <time>2012-10-20T09:24:11Z</time>
      </trkpt>
      <trkpt lat="42.449716200" lon="-2.497060700">
        <ele>433.00</ele>
        <time>2012-10-20T09:24:11Z</time>
      </trkpt>
      <trkpt lat="42.449689100" lon="-2.497102400">
        <ele>433.40</ele>
        <time>2012-10-20T09:24:13Z</time>
      </trkpt>
      <trkpt lat="42.449664800" lon="-2.497123800">
        <ele>433.80</ele>
        <time>2012-10-20T09:24:13Z</time>
      </trkpt>
      <trkpt lat="42.449586500" lon="-2.497219200">
        <ele>434.20</ele>
        <time>2012-10-20T09:24:16Z</time>
      </trkpt>
      <trkpt lat="42.449449800" lon="-2.498074600">
        <ele>434.20</ele>
        <time>2012-10-20T09:24:20Z</time>
      </trkpt>
      <trkpt lat="42.449311000" lon="-2.498198100">
        <ele>434.20</ele>
        <time>2012-10-20T09:24:25Z</time>
      </trkpt>
      <trkpt lat="42.449164300" lon="-2.498246400">
        <ele>434.20</ele>
        <time>2012-10-20T09:24:30Z</time>
      </trkpt>
      <trkpt lat="42.449113500" lon="-2.498242400">
        <ele>434.20</ele>
        <time>2012-10-20T09:24:30Z</time>
      </trkpt>
      <trkpt lat="42.448908000" lon="-2.498217800">
        <ele>434.20</ele>
        <time>2012-10-20T09:24:34Z</time>
      </trkpt>
      <trkpt lat="42.448868200" lon="-2.498219500">
        <ele>434.20</ele>
        <time>2012-10-20T09:24:35Z</time>
      </trkpt>
      <trkpt lat="42.448788600" lon="-2.498274300">
        <ele>434.20</ele>
        <time>2012-10-20T09:24:39Z</time>
      </trkpt>
      <trkpt lat="42.448778600" lon="-2.498312800">
        <ele>434.20</ele>
        <time>2012-10-20T09:24:39Z</time>
      </trkpt>
      <trkpt lat="42.448779900" lon="-2.498586600">
        <ele>434.20</ele>
        <time>2012-10-20T09:24:44Z</time>
      </trkpt>
      <trkpt lat="42.448765300" lon="-2.498705900">
        <ele>433.80</ele>
        <time>2012-10-20T09:24:46Z</time>
      </trkpt>
      <trkpt lat="42.448744700" lon="-2.498762600">
        <ele>433.40</ele>
        <time>2012-10-20T09:24:48Z</time>
      </trkpt>
      <trkpt lat="42.448724600" lon="-2.498813800">
        <ele>433.00</ele>
        <time>2012-10-20T09:24:48Z</time>
      </trkpt>
      <trkpt lat="42.448693500" lon="-2.498860200">
        <ele>432.40</ele>
        <time>2012-10-20T09:24:49Z</time>
      </trkpt>
      <trkpt lat="42.448660700" lon="-2.498906300">
        <ele>432.00</ele>
        <time>2012-10-20T09:24:51Z</time>
      </trkpt>
      <trkpt lat="42.448487300" lon="-2.499053500">
        <ele>432.00</ele>
        <time>2012-10-20T09:24:55Z</time>
      </trkpt>
      <trkpt lat="42.448407700" lon="-2.499112400">
        <ele>432.00</ele>
        <time>2012-10-20T09:24:56Z</time>
      </trkpt>
      <trkpt lat="42.448341100" lon="-2.499174200">
        <ele>432.00</ele>
        <time>2012-10-20T09:24:58Z</time>
      </trkpt>
      <trkpt lat="42.448252100" lon="-2.499367400">
        <ele>432.00</ele>
        <time>2012-10-20T09:25:02Z</time>
      </trkpt>
      <trkpt lat="42.448229200" lon="-2.499428500">
        <ele>432.00</ele>
        <time>2012-10-20T09:25:03Z</time>
      </trkpt>
      <trkpt lat="42.448169600" lon="-2.499640800">
        <ele>431.60</ele>
        <time>2012-10-20T09:25:07Z</time>
      </trkpt>
      <trkpt lat="42.448142700" lon="-2.499707600">
        <ele>431.20</ele>
        <time>2012-10-20T09:25:07Z</time>
      </trkpt>
      <trkpt lat="42.448113700" lon="-2.499773400">
        <ele>430.80</ele>
        <time>2012-10-20T09:25:09Z</time>
      </trkpt>
      <trkpt lat="42.448070000" lon="-2.499825900">
        <ele>430.40</ele>
        <time>2012-10-20T09:25:10Z</time>
      </trkpt>
      <trkpt lat="42.448034900" lon="-2.499866200">
        <ele>430.00</ele>
        <time>2012-10-20T09:25:10Z</time>
      </trkpt>
      <trkpt lat="42.447991100" lon="-2.499904000">
        <ele>430.00</ele>
        <time>2012-10-20T09:25:12Z</time>
      </trkpt>
      <trkpt lat="42.447921700" lon="-2.499943400">
        <ele>430.00</ele>
        <time>2012-10-20T09:25:14Z</time>
      </trkpt>
      <trkpt lat="42.447873800" lon="-2.499939300">
        <ele>430.00</ele>
        <time>2012-10-20T09:25:14Z</time>
      </trkpt>
      <trkpt lat="42.447833900" lon="-2.499932800">
        <ele>430.00</ele>
        <time>2012-10-20T09:25:16Z</time>
      </trkpt>
      <trkpt lat="42.447725200" lon="-2.499932200">
        <ele>430.00</ele>
        <time>2012-10-20T09:25:17Z</time>
      </trkpt>
      <trkpt lat="42.447625700" lon="-2.499951300">
        <ele>430.40</ele>
        <time>2012-10-20T09:25:19Z</time>
      </trkpt>
      <trkpt lat="42.447597000" lon="-2.499986300">
        <ele>430.80</ele>
        <time>2012-10-20T09:25:21Z</time>
      </trkpt>
      <trkpt lat="42.447575700" lon="-2.500026100">
        <ele>431.20</ele>
        <time>2012-10-20T09:25:21Z</time>
      </trkpt>
      <trkpt lat="42.447565600" lon="-2.500059800">
        <ele>431.80</ele>
        <time>2012-10-20T09:25:23Z</time>
      </trkpt>
      <trkpt lat="42.447559600" lon="-2.500100400">
        <ele>432.20</ele>
        <time>2012-10-20T09:25:24Z</time>
      </trkpt>
      <trkpt lat="42.447533400" lon="-2.500177500">
        <ele>432.20</ele>
        <time>2012-10-20T09:25:26Z</time>
      </trkpt>
      <trkpt lat="42.447513300" lon="-2.500207400">
        <ele>432.60</ele>
        <time>2012-10-20T09:25:26Z</time>
      </trkpt>
      <trkpt lat="42.447485800" lon="-2.500242800">
        <ele>433.20</ele>
        <time>2012-10-20T09:25:28Z</time>
      </trkpt>
      <trkpt lat="42.447462800" lon="-2.500273700">
        <ele>433.60</ele>
        <time>2012-10-20T09:25:28Z</time>
      </trkpt>
      <trkpt lat="42.447444300" lon="-2.500308400">
        <ele>434.00</ele>
        <time>2012-10-20T09:25:29Z</time>
      </trkpt>
      <trkpt lat="42.447419000" lon="-2.500330700">
        <ele>434.60</ele>
        <time>2012-10-20T09:25:31Z</time>
      </trkpt>
      <trkpt lat="42.447363900" lon="-2.500370900">
        <ele>434.60</ele>
        <time>2012-10-20T09:25:33Z</time>
      </trkpt>
      <trkpt lat="42.447305400" lon="-2.500382100">
        <ele>435.00</ele>
        <time>2012-10-20T09:25:35Z</time>
      </trkpt>
      <trkpt lat="42.447271800" lon="-2.500388400">
        <ele>435.40</ele>
        <time>2012-10-20T09:25:35Z</time>
      </trkpt>
      <trkpt lat="42.447211700" lon="-2.500387800">
        <ele>436.20</ele>
        <time>2012-10-20T09:25:38Z</time>
      </trkpt>
      <trkpt lat="42.447182200" lon="-2.500379300">
        <ele>436.60</ele>
        <time>2012-10-20T09:25:38Z</time>
      </trkpt>
      <trkpt lat="42.447071800" lon="-2.500300800">
        <ele>436.60</ele>
        <time>2012-10-20T09:25:42Z</time>
      </trkpt>
      <trkpt lat="42.446962900" lon="-2.500151100">
        <ele>437.00</ele>
        <time>2012-10-20T09:25:47Z</time>
      </trkpt>
      <trkpt lat="42.446941800" lon="-2.500117700">
        <ele>437.60</ele>
        <time>2012-10-20T09:25:49Z</time>
      </trkpt>
      <trkpt lat="42.446920200" lon="-2.500084300">
        <ele>438.00</ele>
        <time>2012-10-20T09:25:49Z</time>
      </trkpt>
      <trkpt lat="42.446894300" lon="-2.500044600">
        <ele>438.60</ele>
        <time>2012-10-20T09:25:50Z</time>
      </trkpt>
      <trkpt lat="42.446876700" lon="-2.500006600">
        <ele>439.00</ele>
        <time>2012-10-20T09:25:52Z</time>
      </trkpt>
      <trkpt lat="42.446828700" lon="-2.499916500">
        <ele>439.00</ele>
        <time>2012-10-20T09:25:54Z</time>
      </trkpt>
      <trkpt lat="42.446798100" lon="-2.499868300">
        <ele>439.00</ele>
        <time>2012-10-20T09:25:54Z</time>
      </trkpt>
      <trkpt lat="42.446741700" lon="-2.499784900">
        <ele>439.00</ele>
        <time>2012-10-20T09:25:57Z</time>
      </trkpt>
      <trkpt lat="42.446709300" lon="-2.499743400">
        <ele>439.00</ele>
        <time>2012-10-20T09:25:57Z</time>
      </trkpt>
      <trkpt lat="42.446505000" lon="-2.499548200">
        <ele>439.00</ele>
        <time>2012-10-20T09:26:04Z</time>
      </trkpt>
      <trkpt lat="42.446335200" lon="-2.499312500">
        <ele>439.00</ele>
        <time>2012-10-20T09:26:11Z</time>
      </trkpt>
      <trkpt lat="42.446270000" lon="-2.499246000">
        <ele>439.00</ele>
        <time>2012-10-20T09:26:13Z</time>
      </trkpt>
      <trkpt lat="42.446107000" lon="-2.499163300">
        <ele>439.00</ele>
        <time>2012-10-20T09:26:18Z</time>
      </trkpt>
      <trkpt lat="42.445956300" lon="-2.499136300">
        <ele>439.00</ele>
        <time>2012-10-20T09:26:20Z</time>
      </trkpt>
      <trkpt lat="42.445910800" lon="-2.499137200">
        <ele>439.00</ele>
        <time>2012-10-20T09:26:22Z</time>
      </trkpt>
      <trkpt lat="42.445839600" lon="-2.499151100">
        <ele>439.00</ele>
        <time>2012-10-20T09:26:23Z</time>
      </trkpt>
      <trkpt lat="42.445782000" lon="-2.499187400">
        <ele>439.00</ele>
        <time>2012-10-20T09:26:25Z</time>
      </trkpt>
      <trkpt lat="42.445747500" lon="-2.499205500">
        <ele>439.00</ele>
        <time>2012-10-20T09:26:27Z</time>
      </trkpt>
      <trkpt lat="42.445564200" lon="-2.499227500">
        <ele>439.00</ele>
        <time>2012-10-20T09:26:30Z</time>
      </trkpt>
      <trkpt lat="42.445481600" lon="-2.499234800">
        <ele>439.00</ele>
        <time>2012-10-20T09:26:32Z</time>
      </trkpt>
      <trkpt lat="42.445283800" lon="-2.499285000">
        <ele>439.00</ele>
        <time>2012-10-20T09:26:37Z</time>
      </trkpt>
      <trkpt lat="42.444985600" lon="-2.499410400">
        <ele>439.00</ele>
        <time>2012-10-20T09:26:44Z</time>
      </trkpt>
      <trkpt lat="42.444855200" lon="-2.499494600">
        <ele>439.00</ele>
        <time>2012-10-20T09:26:48Z</time>
      </trkpt>
      <trkpt lat="42.444775200" lon="-2.499549900">
        <ele>439.00</ele>
        <time>2012-10-20T09:26:50Z</time>
      </trkpt>
      <trkpt lat="42.444741800" lon="-2.499576500">
        <ele>439.00</ele>
        <time>2012-10-20T09:26:50Z</time>
      </trkpt>
      <trkpt lat="42.444660700" lon="-2.499604500">
        <ele>439.00</ele>
        <time>2012-10-20T09:26:53Z</time>
      </trkpt>
      <trkpt lat="42.444589100" lon="-2.499591200">
        <ele>439.00</ele>
        <time>2012-10-20T09:26:55Z</time>
      </trkpt>
      <trkpt lat="42.444523200" lon="-2.499541700">
        <ele>439.00</ele>
        <time>2012-10-20T09:26:57Z</time>
      </trkpt>
      <trkpt lat="42.444464000" lon="-2.499479400">
        <ele>439.00</ele>
        <time>2012-10-20T09:26:58Z</time>
      </trkpt>
      <trkpt lat="42.444431200" lon="-2.499448500">
        <ele>439.00</ele>
        <time>2012-10-20T09:27:00Z</time>
      </trkpt>
      <trkpt lat="42.444187400" lon="-2.499099000">
        <ele>439.00</ele>
        <time>2012-10-20T09:27:09Z</time>
      </trkpt>
      <trkpt lat="42.444096500" lon="-2.498979600">
        <ele>439.00</ele>
        <time>2012-10-20T09:27:12Z</time>
      </trkpt>
      <trkpt lat="42.443997300" lon="-2.498875600">
        <ele>439.40</ele>
        <time>2012-10-20T09:27:16Z</time>
      </trkpt>
      <trkpt lat="42.443966500" lon="-2.498854700">
        <ele>440.00</ele>
        <time>2012-10-20T09:27:17Z</time>
      </trkpt>
      <trkpt lat="42.443899900" lon="-2.498808600">
        <ele>440.80</ele>
        <time>2012-10-20T09:27:19Z</time>
      </trkpt>
      <trkpt lat="42.443864900" lon="-2.498787700">
        <ele>441.20</ele>
        <time>2012-10-20T09:27:21Z</time>
      </trkpt>
      <trkpt lat="42.443705200" lon="-2.498726300">
        <ele>441.20</ele>
        <time>2012-10-20T09:27:26Z</time>
      </trkpt>
      <trkpt lat="42.443674600" lon="-2.498716000">
        <ele>441.20</ele>
        <time>2012-10-20T09:27:26Z</time>
      </trkpt>
      <trkpt lat="42.443547500" lon="-2.498721500">
        <ele>441.60</ele>
        <time>2012-10-20T09:27:30Z</time>
      </trkpt>
      <trkpt lat="42.443516500" lon="-2.498738600">
        <ele>442.00</ele>
        <time>2012-10-20T09:27:31Z</time>
      </trkpt>
      <trkpt lat="42.443464500" lon="-2.498791300">
        <ele>442.80</ele>
        <time>2012-10-20T09:27:33Z</time>
      </trkpt>
      <trkpt lat="42.443449500" lon="-2.498834700">
        <ele>443.20</ele>
        <time>2012-10-20T09:27:35Z</time>
      </trkpt>
      <trkpt lat="42.443319800" lon="-2.499080000">
        <ele>443.20</ele>
        <time>2012-10-20T09:27:42Z</time>
      </trkpt>
      <trkpt lat="42.443270800" lon="-2.499104500">
        <ele>443.20</ele>
        <time>2012-10-20T09:27:44Z</time>
      </trkpt>
      <trkpt lat="42.443233700" lon="-2.499118900">
        <ele>443.20</ele>
        <time>2012-10-20T09:27:45Z</time>
      </trkpt>
      <trkpt lat="42.443107800" lon="-2.499115500">
        <ele>443.80</ele>
        <time>2012-10-20T09:27:49Z</time>
      </trkpt>
      <trkpt lat="42.443085000" lon="-2.499089400">
        <ele>444.20</ele>
        <time>2012-10-20T09:27:49Z</time>
      </trkpt>
      <trkpt lat="42.443059000" lon="-2.499055300">
        <ele>444.60</ele>
        <time>2012-10-20T09:27:51Z</time>
      </trkpt>
      <trkpt lat="42.443034000" lon="-2.499013500">
        <ele>445.00</ele>
        <time>2012-10-20T09:27:52Z</time>
      </trkpt>
      <trkpt lat="42.443005700" lon="-2.498975400">
        <ele>445.40</ele>
        <time>2012-10-20T09:27:52Z</time>
      </trkpt>
      <trkpt lat="42.442883400" lon="-2.498930200">
        <ele>445.40</ele>
        <time>2012-10-20T09:27:56Z</time>
      </trkpt>
      <trkpt lat="42.442667800" lon="-2.498956100">
        <ele>445.80</ele>
        <time>2012-10-20T09:28:03Z</time>
      </trkpt>
      <trkpt lat="42.442621200" lon="-2.498952900">
        <ele>446.40</ele>
        <time>2012-10-20T09:28:03Z</time>
      </trkpt>
      <trkpt lat="42.442544100" lon="-2.498954000">
        <ele>447.20</ele>
        <time>2012-10-20T09:28:06Z</time>
      </trkpt>
      <trkpt lat="42.442506800" lon="-2.498956100">
        <ele>447.60</ele>
        <time>2012-10-20T09:28:06Z</time>
      </trkpt>
      <trkpt lat="42.442472000" lon="-2.498955100">
        <ele>447.60</ele>
        <time>2012-10-20T09:28:08Z</time>
      </trkpt>
      <trkpt lat="42.442268400" lon="-2.498909400">
        <ele>447.60</ele>
        <time>2012-10-20T09:28:13Z</time>
      </trkpt>
      <trkpt lat="42.442234100" lon="-2.498904800">
        <ele>447.60</ele>
        <time>2012-10-20T09:28:13Z</time>
      </trkpt>
      <trkpt lat="42.442129600" lon="-2.498932200">
        <ele>447.60</ele>
        <time>2012-10-20T09:28:17Z</time>
      </trkpt>
      <trkpt lat="42.442096500" lon="-2.498955500">
        <ele>447.60</ele>
        <time>2012-10-20T09:28:17Z</time>
      </trkpt>
      <trkpt lat="42.442058100" lon="-2.498976500">
        <ele>447.60</ele>
        <time>2012-10-20T09:28:18Z</time>
      </trkpt>
      <trkpt lat="42.442028300" lon="-2.499002800">
        <ele>447.60</ele>
        <time>2012-10-20T09:28:20Z</time>
      </trkpt>
      <trkpt lat="42.441884300" lon="-2.499098200">
        <ele>447.60</ele>
        <time>2012-10-20T09:28:24Z</time>
      </trkpt>
      <trkpt lat="42.441833900" lon="-2.499238400">
        <ele>447.60</ele>
        <time>2012-10-20T09:28:27Z</time>
      </trkpt>
      <trkpt lat="42.441857100" lon="-2.499450100">
        <ele>447.60</ele>
        <time>2012-10-20T09:28:32Z</time>
      </trkpt>
      <trkpt lat="42.441815500" lon="-2.499625700">
        <ele>447.60</ele>
        <time>2012-10-20T09:28:36Z</time>
      </trkpt>
      <trkpt lat="42.441767500" lon="-2.499700400">
        <ele>447.60</ele>
        <time>2012-10-20T09:28:38Z</time>
      </trkpt>
      <trkpt lat="42.441688600" lon="-2.499750500">
        <ele>447.60</ele>
        <time>2012-10-20T09:28:41Z</time>
      </trkpt>
      <trkpt lat="42.441604100" lon="-2.499796200">
        <ele>447.60</ele>
        <time>2012-10-20T09:28:43Z</time>
      </trkpt>
      <trkpt lat="42.441444900" lon="-2.499926100">
        <ele>447.60</ele>
        <time>2012-10-20T09:28:46Z</time>
      </trkpt>
      <trkpt lat="42.441407200" lon="-2.499964400">
        <ele>447.60</ele>
        <time>2012-10-20T09:28:48Z</time>
      </trkpt>
      <trkpt lat="42.441285800" lon="-2.500134200">
        <ele>447.60</ele>
        <time>2012-10-20T09:28:52Z</time>
      </trkpt>
      <trkpt lat="42.441056700" lon="-2.500589400">
        <ele>447.60</ele>
        <time>2012-10-20T09:29:02Z</time>
      </trkpt>
      <trkpt lat="42.441027300" lon="-2.500633400">
        <ele>447.60</ele>
        <time>2012-10-20T09:29:02Z</time>
      </trkpt>
      <trkpt lat="42.440974400" lon="-2.500728900">
        <ele>447.60</ele>
        <time>2012-10-20T09:29:04Z</time>
      </trkpt>
      <trkpt lat="42.440887600" lon="-2.500860700">
        <ele>447.60</ele>
        <time>2012-10-20T09:29:07Z</time>
      </trkpt>
      <trkpt lat="42.440731700" lon="-2.501146900">
        <ele>447.60</ele>
        <time>2012-10-20T09:29:14Z</time>
      </trkpt>
      <trkpt lat="42.440541900" lon="-2.501437700">
        <ele>447.60</ele>
        <time>2012-10-20T09:29:21Z</time>
      </trkpt>
      <trkpt lat="42.440509100" lon="-2.501464600">
        <ele>447.60</ele>
        <time>2012-10-20T09:29:21Z</time>
      </trkpt>
      <trkpt lat="42.440470400" lon="-2.501556300">
        <ele>447.60</ele>
        <time>2012-10-20T09:29:23Z</time>
      </trkpt>
      <trkpt lat="42.440436400" lon="-2.501658000">
        <ele>447.60</ele>
        <time>2012-10-20T09:29:25Z</time>
      </trkpt>
      <trkpt lat="42.440421000" lon="-2.501777800">
        <ele>447.60</ele>
        <time>2012-10-20T09:29:28Z</time>
      </trkpt>
      <trkpt lat="42.440381800" lon="-2.502024500">
        <ele>447.60</ele>
        <time>2012-10-20T09:29:32Z</time>
      </trkpt>
      <trkpt lat="42.440346300" lon="-2.502138900">
        <ele>447.60</ele>
        <time>2012-10-20T09:29:33Z</time>
      </trkpt>
      <trkpt lat="42.440298900" lon="-2.502244900">
        <ele>447.60</ele>
        <time>2012-10-20T09:29:35Z</time>
      </trkpt>
      <trkpt lat="42.440247800" lon="-2.502411100">
        <ele>447.60</ele>
        <time>2012-10-20T09:29:39Z</time>
      </trkpt>
      <trkpt lat="42.440213200" lon="-2.502653300">
        <ele>447.60</ele>
        <time>2012-10-20T09:29:42Z</time>
      </trkpt>
      <trkpt lat="42.440198300" lon="-2.502777800">
        <ele>447.60</ele>
        <time>2012-10-20T09:29:44Z</time>
      </trkpt>
      <trkpt lat="42.440187100" lon="-2.502842400">
        <ele>447.60</ele>
        <time>2012-10-20T09:29:46Z</time>
      </trkpt>
      <trkpt lat="42.440135300" lon="-2.503081200">
        <ele>447.60</ele>
        <time>2012-10-20T09:29:49Z</time>
      </trkpt>
      <trkpt lat="42.440080900" lon="-2.503248200">
        <ele>447.60</ele>
        <time>2012-10-20T09:29:53Z</time>
      </trkpt>
      <trkpt lat="42.440034300" lon="-2.503427500">
        <ele>447.60</ele>
        <time>2012-10-20T09:29:56Z</time>
      </trkpt>
      <trkpt lat="42.439980600" lon="-2.503647800">
        <ele>447.60</ele>
        <time>2012-10-20T09:30:00Z</time>
      </trkpt>
      <trkpt lat="42.439946200" lon="-2.503762900">
        <ele>447.60</ele>
        <time>2012-10-20T09:30:01Z</time>
      </trkpt>
      <trkpt lat="42.439894400" lon="-2.503988000">
        <ele>447.60</ele>
        <time>2012-10-20T09:30:05Z</time>
      </trkpt>
      <trkpt lat="42.439871600" lon="-2.504108700">
        <ele>447.60</ele>
        <time>2012-10-20T09:30:08Z</time>
      </trkpt>
      <trkpt lat="42.439830000" lon="-2.504485900">
        <ele>447.60</ele>
        <time>2012-10-20T09:30:13Z</time>
      </trkpt>
      <trkpt lat="42.439794100" lon="-2.504662900">
        <ele>447.60</ele>
        <time>2012-10-20T09:30:17Z</time>
      </trkpt>
      <trkpt lat="42.439749900" lon="-2.504846500">
        <ele>447.60</ele>
        <time>2012-10-20T09:30:19Z</time>
      </trkpt>
      <trkpt lat="42.439701900" lon="-2.505017000">
        <ele>447.60</ele>
        <time>2012-10-20T09:30:22Z</time>
      </trkpt>
      <trkpt lat="42.439631400" lon="-2.505148400">
        <ele>447.60</ele>
        <time>2012-10-20T09:30:26Z</time>
      </trkpt>
      <trkpt lat="42.439512100" lon="-2.505309500">
        <ele>447.60</ele>
        <time>2012-10-20T09:30:29Z</time>
      </trkpt>
      <trkpt lat="42.439346900" lon="-2.505551900">
        <ele>447.60</ele>
        <time>2012-10-20T09:30:34Z</time>
      </trkpt>
      <trkpt lat="42.439191400" lon="-2.505766600">
        <ele>447.60</ele>
        <time>2012-10-20T09:30:40Z</time>
      </trkpt>
      <trkpt lat="42.439170700" lon="-2.505812300">
        <ele>447.60</ele>
        <time>2012-10-20T09:30:41Z</time>
      </trkpt>
      <trkpt lat="42.439101300" lon="-2.505954400">
        <ele>447.60</ele>
        <time>2012-10-20T09:30:43Z</time>
      </trkpt>
      <trkpt lat="42.439008600" lon="-2.506124800">
        <ele>447.60</ele>
        <time>2012-10-20T09:30:48Z</time>
      </trkpt>
      <trkpt lat="42.438948300" lon="-2.506256400">
        <ele>447.60</ele>
        <time>2012-10-20T09:30:50Z</time>
      </trkpt>
      <trkpt lat="42.438908200" lon="-2.506343700">
        <ele>448.00</ele>
        <time>2012-10-20T09:30:52Z</time>
      </trkpt>
      <trkpt lat="42.438892600" lon="-2.506382200">
        <ele>448.40</ele>
        <time>2012-10-20T09:30:54Z</time>
      </trkpt>
      <trkpt lat="42.438879500" lon="-2.506425100">
        <ele>448.80</ele>
        <time>2012-10-20T09:30:55Z</time>
      </trkpt>
      <trkpt lat="42.438862600" lon="-2.506465400">
        <ele>449.20</ele>
        <time>2012-10-20T09:30:55Z</time>
      </trkpt>
      <trkpt lat="42.438845900" lon="-2.506500400">
        <ele>449.60</ele>
        <time>2012-10-20T09:30:57Z</time>
      </trkpt>
      <trkpt lat="42.438744900" lon="-2.506687800">
        <ele>450.00</ele>
        <time>2012-10-20T09:31:02Z</time>
      </trkpt>
      <trkpt lat="42.438732200" lon="-2.506719400">
        <ele>450.60</ele>
        <time>2012-10-20T09:31:04Z</time>
      </trkpt>
      <trkpt lat="42.438700000" lon="-2.506785900">
        <ele>451.40</ele>
        <time>2012-10-20T09:31:06Z</time>
      </trkpt>
      <trkpt lat="42.438688900" lon="-2.506817400">
        <ele>451.80</ele>
        <time>2012-10-20T09:31:06Z</time>
      </trkpt>
      <trkpt lat="42.438661500" lon="-2.506888900">
        <ele>451.80</ele>
        <time>2012-10-20T09:31:09Z</time>
      </trkpt>
      <trkpt lat="42.438630800" lon="-2.506958300">
        <ele>452.20</ele>
        <time>2012-10-20T09:31:11Z</time>
      </trkpt>
      <trkpt lat="42.438615800" lon="-2.506992500">
        <ele>452.60</ele>
        <time>2012-10-20T09:31:11Z</time>
      </trkpt>
      <trkpt lat="42.438594600" lon="-2.507030100">
        <ele>453.00</ele>
        <time>2012-10-20T09:31:13Z</time>
      </trkpt>
      <trkpt lat="42.438576500" lon="-2.507064900">
        <ele>453.40</ele>
        <time>2012-10-20T09:31:13Z</time>
      </trkpt>
      <trkpt lat="42.438562100" lon="-2.507104300">
        <ele>453.80</ele>
        <time>2012-10-20T09:31:14Z</time>
      </trkpt>
      <trkpt lat="42.438517800" lon="-2.507218100">
        <ele>453.80</ele>
        <time>2012-10-20T09:31:18Z</time>
      </trkpt>
      <trkpt lat="42.438477700" lon="-2.507343400">
        <ele>453.80</ele>
        <time>2012-10-20T09:31:21Z</time>
      </trkpt>
      <trkpt lat="42.438430000" lon="-2.507532200">
        <ele>453.80</ele>
        <time>2012-10-20T09:31:25Z</time>
      </trkpt>
      <trkpt lat="42.438416500" lon="-2.507595500">
        <ele>453.80</ele>
        <time>2012-10-20T09:31:25Z</time>
      </trkpt>
      <trkpt lat="42.438396400" lon="-2.507719500">
        <ele>453.80</ele>
        <time>2012-10-20T09:31:28Z</time>
      </trkpt>
      <trkpt lat="42.438366300" lon="-2.507929900">
        <ele>453.80</ele>
        <time>2012-10-20T09:31:30Z</time>
      </trkpt>
      <trkpt lat="42.438353800" lon="-2.508001600">
        <ele>453.40</ele>
        <time>2012-10-20T09:31:32Z</time>
      </trkpt>
      <trkpt lat="42.438338900" lon="-2.508072300">
        <ele>452.80</ele>
        <time>2012-10-20T09:31:32Z</time>
      </trkpt>
      <trkpt lat="42.438327100" lon="-2.508141900">
        <ele>452.40</ele>
        <time>2012-10-20T09:31:34Z</time>
      </trkpt>
      <trkpt lat="42.438312200" lon="-2.508215500">
        <ele>452.00</ele>
        <time>2012-10-20T09:31:35Z</time>
      </trkpt>
      <trkpt lat="42.438297000" lon="-2.508289100">
        <ele>451.60</ele>
        <time>2012-10-20T09:31:35Z</time>
      </trkpt>
      <trkpt lat="42.438248600" lon="-2.508519800">
        <ele>451.60</ele>
        <time>2012-10-20T09:31:39Z</time>
      </trkpt>
      <trkpt lat="42.438144600" lon="-2.509136700">
        <ele>451.60</ele>
        <time>2012-10-20T09:31:46Z</time>
      </trkpt>
      <trkpt lat="42.438112500" lon="-2.509294600">
        <ele>451.20</ele>
        <time>2012-10-20T09:31:49Z</time>
      </trkpt>
      <trkpt lat="42.438096000" lon="-2.509371100">
        <ele>450.60</ele>
        <time>2012-10-20T09:31:49Z</time>
      </trkpt>
      <trkpt lat="42.438078900" lon="-2.509453500">
        <ele>450.20</ele>
        <time>2012-10-20T09:31:51Z</time>
      </trkpt>
      <trkpt lat="42.438064300" lon="-2.509531000">
        <ele>449.80</ele>
        <time>2012-10-20T09:31:51Z</time>
      </trkpt>
      <trkpt lat="42.438048000" lon="-2.509614300">
        <ele>449.40</ele>
        <time>2012-10-20T09:31:53Z</time>
      </trkpt>
      <trkpt lat="42.438032200" lon="-2.509691300">
        <ele>449.40</ele>
        <time>2012-10-20T09:31:53Z</time>
      </trkpt>
      <trkpt lat="42.438002600" lon="-2.509905600">
        <ele>449.40</ele>
        <time>2012-10-20T09:31:56Z</time>
      </trkpt>
      <trkpt lat="42.437999400" lon="-2.510107300">
        <ele>449.40</ele>
        <time>2012-10-20T09:32:00Z</time>
      </trkpt>
      <trkpt lat="42.437999800" lon="-2.510236900">
        <ele>449.40</ele>
        <time>2012-10-20T09:32:01Z</time>
      </trkpt>
      <trkpt lat="42.437977400" lon="-2.510289500">
        <ele>449.40</ele>
        <time>2012-10-20T09:32:03Z</time>
      </trkpt>
      <trkpt lat="42.437947600" lon="-2.510315400">
        <ele>449.40</ele>
        <time>2012-10-20T09:32:03Z</time>
      </trkpt>
      <trkpt lat="42.437811100" lon="-2.510335800">
        <ele>449.40</ele>
        <time>2012-10-20T09:32:07Z</time>
      </trkpt>
      <trkpt lat="42.437535900" lon="-2.510391300">
        <ele>449.40</ele>
        <time>2012-10-20T09:32:14Z</time>
      </trkpt>
      <trkpt lat="42.437394200" lon="-2.510429500">
        <ele>449.40</ele>
        <time>2012-10-20T09:32:19Z</time>
      </trkpt>
      <trkpt lat="42.437374600" lon="-2.510449200">
        <ele>449.40</ele>
        <time>2012-10-20T09:32:22Z</time>
      </trkpt>
      <trkpt lat="42.437381500" lon="-2.510451700">
        <ele>449.40</ele>
        <time>2012-10-20T09:32:24Z</time>
      </trkpt>
      <trkpt lat="42.437325600" lon="-2.510410300">
        <ele>449.40</ele>
        <time>2012-10-20T09:34:38Z</time>
      </trkpt>
      <trkpt lat="42.437303700" lon="-2.510422700">
        <ele>449.40</ele>
        <time>2012-10-20T09:34:40Z</time>
      </trkpt>
      <trkpt lat="42.437281000" lon="-2.510440100">
        <ele>449.40</ele>
        <time>2012-10-20T09:34:40Z</time>
      </trkpt>
      <trkpt lat="42.437234700" lon="-2.510468200">
        <ele>449.40</ele>
        <time>2012-10-20T09:34:42Z</time>
      </trkpt>
      <trkpt lat="42.437156200" lon="-2.510529700">
        <ele>449.40</ele>
        <time>2012-10-20T09:34:47Z</time>
      </trkpt>
      <trkpt lat="42.437127900" lon="-2.510544800">
        <ele>449.80</ele>
        <time>2012-10-20T09:34:47Z</time>
      </trkpt>
      <trkpt lat="42.437070900" lon="-2.510578700">
        <ele>450.60</ele>
        <time>2012-10-20T09:34:49Z</time>
      </trkpt>
      <trkpt lat="42.437040400" lon="-2.510592600">
        <ele>451.00</ele>
        <time>2012-10-20T09:34:50Z</time>
      </trkpt>
      <trkpt lat="42.437013100" lon="-2.510609400">
        <ele>451.40</ele>
        <time>2012-10-20T09:34:52Z</time>
      </trkpt>
      <trkpt lat="42.436982600" lon="-2.510624700">
        <ele>451.40</ele>
        <time>2012-10-20T09:34:52Z</time>
      </trkpt>
      <trkpt lat="42.436830100" lon="-2.510685900">
        <ele>451.40</ele>
        <time>2012-10-20T09:34:57Z</time>
      </trkpt>
      <trkpt lat="42.436763900" lon="-2.510705100">
        <ele>451.40</ele>
        <time>2012-10-20T09:34:59Z</time>
      </trkpt>
      <trkpt lat="42.436629000" lon="-2.510747500">
        <ele>451.40</ele>
        <time>2012-10-20T09:35:04Z</time>
      </trkpt>
      <trkpt lat="42.436598000" lon="-2.510762800">
        <ele>451.80</ele>
        <time>2012-10-20T09:35:04Z</time>
      </trkpt>
      <trkpt lat="42.436540000" lon="-2.510793700">
        <ele>452.60</ele>
        <time>2012-10-20T09:35:06Z</time>
      </trkpt>
      <trkpt lat="42.436508900" lon="-2.510806500">
        <ele>453.00</ele>
        <time>2012-10-20T09:35:08Z</time>
      </trkpt>
      <trkpt lat="42.436478500" lon="-2.510822600">
        <ele>453.40</ele>
        <time>2012-10-20T09:35:08Z</time>
      </trkpt>
      <trkpt lat="42.436353800" lon="-2.510866400">
        <ele>453.40</ele>
        <time>2012-10-20T09:35:13Z</time>
      </trkpt>
      <trkpt lat="42.436167900" lon="-2.510925200">
        <ele>453.40</ele>
        <time>2012-10-20T09:35:18Z</time>
      </trkpt>
      <trkpt lat="42.436133600" lon="-2.510931900">
        <ele>453.40</ele>
        <time>2012-10-20T09:35:20Z</time>
      </trkpt>
      <trkpt lat="42.436102000" lon="-2.510941000">
        <ele>453.80</ele>
        <time>2012-10-20T09:35:20Z</time>
      </trkpt>
      <trkpt lat="42.436075900" lon="-2.510947800">
        <ele>454.20</ele>
        <time>2012-10-20T09:35:22Z</time>
      </trkpt>
      <trkpt lat="42.436050300" lon="-2.510970300">
        <ele>454.80</ele>
        <time>2012-10-20T09:35:22Z</time>
      </trkpt>
      <trkpt lat="42.436034400" lon="-2.510994100">
        <ele>455.20</ele>
        <time>2012-10-20T09:35:24Z</time>
      </trkpt>
      <trkpt lat="42.436028000" lon="-2.511028900">
        <ele>455.60</ele>
        <time>2012-10-20T09:35:25Z</time>
      </trkpt>
      <trkpt lat="42.436080800" lon="-2.511190100">
        <ele>455.60</ele>
        <time>2012-10-20T09:35:29Z</time>
      </trkpt>
      <trkpt lat="42.436153200" lon="-2.511571500">
        <ele>455.60</ele>
        <time>2012-10-20T09:35:37Z</time>
      </trkpt>
      <trkpt lat="42.436164900" lon="-2.511606200">
        <ele>455.60</ele>
        <time>2012-10-20T09:35:39Z</time>
      </trkpt>
      <trkpt lat="42.436175100" lon="-2.511643000">
        <ele>456.00</ele>
        <time>2012-10-20T09:35:39Z</time>
      </trkpt>
      <trkpt lat="42.436183500" lon="-2.511681900">
        <ele>456.40</ele>
        <time>2012-10-20T09:35:41Z</time>
      </trkpt>
      <trkpt lat="42.436194000" lon="-2.511717500">
        <ele>456.80</ele>
        <time>2012-10-20T09:35:41Z</time>
      </trkpt>
      <trkpt lat="42.436203000" lon="-2.511755600">
        <ele>457.20</ele>
        <time>2012-10-20T09:35:43Z</time>
      </trkpt>
      <trkpt lat="42.436210800" lon="-2.511794400">
        <ele>457.60</ele>
        <time>2012-10-20T09:35:43Z</time>
      </trkpt>
      <trkpt lat="42.436234700" lon="-2.511916300">
        <ele>457.60</ele>
        <time>2012-10-20T09:35:46Z</time>
      </trkpt>
      <trkpt lat="42.436302500" lon="-2.512241900">
        <ele>457.60</ele>
        <time>2012-10-20T09:35:53Z</time>
      </trkpt>
      <trkpt lat="42.436348600" lon="-2.512417200">
        <ele>457.60</ele>
        <time>2012-10-20T09:35:55Z</time>
      </trkpt>
      <trkpt lat="42.436393600" lon="-2.512608400">
        <ele>457.60</ele>
        <time>2012-10-20T09:35:58Z</time>
      </trkpt>
      <trkpt lat="42.436442000" lon="-2.512845600">
        <ele>457.60</ele>
        <time>2012-10-20T09:36:02Z</time>
      </trkpt>
      <trkpt lat="42.436455200" lon="-2.512900100">
        <ele>457.60</ele>
        <time>2012-10-20T09:36:04Z</time>
      </trkpt>
      <trkpt lat="42.436475800" lon="-2.513012300">
        <ele>457.20</ele>
        <time>2012-10-20T09:36:05Z</time>
      </trkpt>
      <trkpt lat="42.436485200" lon="-2.513064000">
        <ele>456.80</ele>
        <time>2012-10-20T09:36:07Z</time>
      </trkpt>
      <trkpt lat="42.436496900" lon="-2.513114100">
        <ele>456.40</ele>
        <time>2012-10-20T09:36:07Z</time>
      </trkpt>
      <trkpt lat="42.436508000" lon="-2.513162900">
        <ele>455.80</ele>
        <time>2012-10-20T09:36:09Z</time>
      </trkpt>
      <trkpt lat="42.436519900" lon="-2.513212200">
        <ele>455.40</ele>
        <time>2012-10-20T09:36:09Z</time>
      </trkpt>
      <trkpt lat="42.436555200" lon="-2.513318400">
        <ele>455.40</ele>
        <time>2012-10-20T09:36:12Z</time>
      </trkpt>
      <trkpt lat="42.436597800" lon="-2.513406000">
        <ele>455.40</ele>
        <time>2012-10-20T09:36:16Z</time>
      </trkpt>
      <trkpt lat="42.436606600" lon="-2.513441700">
        <ele>455.40</ele>
        <time>2012-10-20T09:36:16Z</time>
      </trkpt>
      <trkpt lat="42.436686800" lon="-2.513637700">
        <ele>455.40</ele>
        <time>2012-10-20T09:36:23Z</time>
      </trkpt>
      <trkpt lat="42.436760700" lon="-2.513775900">
        <ele>455.40</ele>
        <time>2012-10-20T09:36:26Z</time>
      </trkpt>
      <trkpt lat="42.436796300" lon="-2.513838900">
        <ele>455.40</ele>
        <time>2012-10-20T09:36:28Z</time>
      </trkpt>
      <trkpt lat="42.436854600" lon="-2.513967400">
        <ele>455.40</ele>
        <time>2012-10-20T09:36:33Z</time>
      </trkpt>
      <trkpt lat="42.436919000" lon="-2.514164800">
        <ele>455.40</ele>
        <time>2012-10-20T09:36:38Z</time>
      </trkpt>
      <trkpt lat="42.436935300" lon="-2.514201100">
        <ele>455.40</ele>
        <time>2012-10-20T09:36:40Z</time>
      </trkpt>
      <trkpt lat="42.436984200" lon="-2.514300300">
        <ele>455.40</ele>
        <time>2012-10-20T09:36:42Z</time>
      </trkpt>
      <trkpt lat="42.436995100" lon="-2.514327300">
        <ele>455.80</ele>
        <time>2012-10-20T09:36:44Z</time>
      </trkpt>
      <trkpt lat="42.437006700" lon="-2.514357700">
        <ele>456.20</ele>
        <time>2012-10-20T09:36:45Z</time>
      </trkpt>
      <trkpt lat="42.437020000" lon="-2.514386600">
        <ele>456.60</ele>
        <time>2012-10-20T09:36:45Z</time>
      </trkpt>
      <trkpt lat="42.437031300" lon="-2.514414500">
        <ele>457.00</ele>
        <time>2012-10-20T09:36:47Z</time>
      </trkpt>
      <trkpt lat="42.437044900" lon="-2.514449800">
        <ele>457.40</ele>
        <time>2012-10-20T09:36:47Z</time>
      </trkpt>
      <trkpt lat="42.437103100" lon="-2.514588900">
        <ele>457.40</ele>
        <time>2012-10-20T09:36:52Z</time>
      </trkpt>
      <trkpt lat="42.437225000" lon="-2.514742100">
        <ele>457.40</ele>
        <time>2012-10-20T09:36:58Z</time>
      </trkpt>
      <trkpt lat="42.437253200" lon="-2.514754100">
        <ele>458.00</ele>
        <time>2012-10-20T09:36:59Z</time>
      </trkpt>
      <trkpt lat="42.437281900" lon="-2.514762500">
        <ele>458.40</ele>
        <time>2012-10-20T09:36:59Z</time>
      </trkpt>
      <trkpt lat="42.437304300" lon="-2.514759000">
        <ele>458.80</ele>
        <time>2012-10-20T09:37:01Z</time>
      </trkpt>
      <trkpt lat="42.437328100" lon="-2.514746600">
        <ele>459.40</ele>
        <time>2012-10-20T09:37:01Z</time>
      </trkpt>
      <trkpt lat="42.437344300" lon="-2.514730300">
        <ele>459.80</ele>
        <time>2012-10-20T09:37:03Z</time>
      </trkpt>
      <trkpt lat="42.437445400" lon="-2.514673100">
        <ele>459.80</ele>
        <time>2012-10-20T09:37:06Z</time>
      </trkpt>
      <trkpt lat="42.437581500" lon="-2.514564700">
        <ele>459.80</ele>
        <time>2012-10-20T09:37:11Z</time>
      </trkpt>
      <trkpt lat="42.437718100" lon="-2.514440700">
        <ele>460.20</ele>
        <time>2012-10-20T09:37:17Z</time>
      </trkpt>
      <trkpt lat="42.437736900" lon="-2.514440000">
        <ele>460.60</ele>
        <time>2012-10-20T09:37:17Z</time>
      </trkpt>
      <trkpt lat="42.437746800" lon="-2.514454700">
        <ele>461.00</ele>
        <time>2012-10-20T09:37:18Z</time>
      </trkpt>
      <trkpt lat="42.437742300" lon="-2.514481500">
        <ele>461.40</ele>
        <time>2012-10-20T09:37:20Z</time>
      </trkpt>
      <trkpt lat="42.437734900" lon="-2.514511100">
        <ele>461.80</ele>
        <time>2012-10-20T09:37:20Z</time>
      </trkpt>
      <trkpt lat="42.437617300" lon="-2.514683900">
        <ele>462.20</ele>
        <time>2012-10-20T09:37:27Z</time>
      </trkpt>
      <trkpt lat="42.437607900" lon="-2.514708100">
        <ele>462.60</ele>
        <time>2012-10-20T09:37:29Z</time>
      </trkpt>
      <trkpt lat="42.437596500" lon="-2.514733500">
        <ele>463.00</ele>
        <time>2012-10-20T09:37:29Z</time>
      </trkpt>
      <trkpt lat="42.437584000" lon="-2.514759300">
        <ele>463.60</ele>
        <time>2012-10-20T09:37:31Z</time>
      </trkpt>
      <trkpt lat="42.437573200" lon="-2.514783100">
        <ele>464.00</ele>
        <time>2012-10-20T09:37:31Z</time>
      </trkpt>
      <trkpt lat="42.437538000" lon="-2.514859000">
        <ele>464.00</ele>
        <time>2012-10-20T09:37:34Z</time>
      </trkpt>
      <trkpt lat="42.437509600" lon="-2.514931900">
        <ele>464.40</ele>
        <time>2012-10-20T09:37:38Z</time>
      </trkpt>
      <trkpt lat="42.437499900" lon="-2.514953500">
        <ele>464.80</ele>
        <time>2012-10-20T09:37:38Z</time>
      </trkpt>
      <trkpt lat="42.437475300" lon="-2.515010100">
        <ele>465.60</ele>
        <time>2012-10-20T09:37:41Z</time>
      </trkpt>
      <trkpt lat="42.437462800" lon="-2.515037900">
        <ele>466.20</ele>
        <time>2012-10-20T09:37:41Z</time>
      </trkpt>
      <trkpt lat="42.437420500" lon="-2.515156900">
        <ele>466.20</ele>
        <time>2012-10-20T09:37:46Z</time>
      </trkpt>
      <trkpt lat="42.437388600" lon="-2.515211900">
        <ele>466.20</ele>
        <time>2012-10-20T09:37:48Z</time>
      </trkpt>
      <trkpt lat="42.437368100" lon="-2.515238700">
        <ele>466.60</ele>
        <time>2012-10-20T09:37:48Z</time>
      </trkpt>
      <trkpt lat="42.437355500" lon="-2.515259800">
        <ele>467.00</ele>
        <time>2012-10-20T09:37:50Z</time>
      </trkpt>
      <trkpt lat="42.437343600" lon="-2.515268600">
        <ele>467.40</ele>
        <time>2012-10-20T09:37:50Z</time>
      </trkpt>
      <trkpt lat="42.437325900" lon="-2.515290800">
        <ele>467.80</ele>
        <time>2012-10-20T09:37:52Z</time>
      </trkpt>
      <trkpt lat="42.437316300" lon="-2.515303400">
        <ele>468.20</ele>
        <time>2012-10-20T09:37:53Z</time>
      </trkpt>
      <trkpt lat="42.437268100" lon="-2.515374800">
        <ele>468.20</ele>
        <time>2012-10-20T09:37:57Z</time>
      </trkpt>
      <trkpt lat="42.437264000" lon="-2.515397800">
        <ele>468.20</ele>
        <time>2012-10-20T09:37:57Z</time>
      </trkpt>
      <trkpt lat="42.437244900" lon="-2.515414600">
        <ele>468.60</ele>
        <time>2012-10-20T09:37:59Z</time>
      </trkpt>
      <trkpt lat="42.437229300" lon="-2.515438000">
        <ele>469.00</ele>
        <time>2012-10-20T09:38:00Z</time>
      </trkpt>
      <trkpt lat="42.437211200" lon="-2.515456200">
        <ele>469.60</ele>
        <time>2012-10-20T09:38:00Z</time>
      </trkpt>
      <trkpt lat="42.437196600" lon="-2.515478700">
        <ele>470.00</ele>
        <time>2012-10-20T09:38:02Z</time>
      </trkpt>
      <trkpt lat="42.437182100" lon="-2.515498100">
        <ele>470.60</ele>
        <time>2012-10-20T09:38:02Z</time>
      </trkpt>
      <trkpt lat="42.437100300" lon="-2.515554400">
        <ele>471.00</ele>
        <time>2012-10-20T09:38:07Z</time>
      </trkpt>
      <trkpt lat="42.437073200" lon="-2.515568800">
        <ele>471.40</ele>
        <time>2012-10-20T09:38:07Z</time>
      </trkpt>
      <trkpt lat="42.437054200" lon="-2.515578000">
        <ele>471.80</ele>
        <time>2012-10-20T09:38:09Z</time>
      </trkpt>
      <trkpt lat="42.437033400" lon="-2.515588900">
        <ele>472.20</ele>
        <time>2012-10-20T09:38:09Z</time>
      </trkpt>
      <trkpt lat="42.437014100" lon="-2.515598500">
        <ele>472.60</ele>
        <time>2012-10-20T09:38:11Z</time>
      </trkpt>
      <trkpt lat="42.436960800" lon="-2.515637000">
        <ele>472.60</ele>
        <time>2012-10-20T09:38:14Z</time>
      </trkpt>
      <trkpt lat="42.436938400" lon="-2.515638500">
        <ele>473.00</ele>
        <time>2012-10-20T09:38:14Z</time>
      </trkpt>
      <trkpt lat="42.436924400" lon="-2.515654800">
        <ele>473.40</ele>
        <time>2012-10-20T09:38:16Z</time>
      </trkpt>
      <trkpt lat="42.436907200" lon="-2.515669600">
        <ele>473.80</ele>
        <time>2012-10-20T09:38:16Z</time>
      </trkpt>
      <trkpt lat="42.436892900" lon="-2.515679100">
        <ele>474.20</ele>
        <time>2012-10-20T09:38:18Z</time>
      </trkpt>
      <trkpt lat="42.436874200" lon="-2.515689200">
        <ele>474.60</ele>
        <time>2012-10-20T09:38:18Z</time>
      </trkpt>
      <trkpt lat="42.436832900" lon="-2.515758200">
        <ele>474.60</ele>
        <time>2012-10-20T09:38:21Z</time>
      </trkpt>
      <trkpt lat="42.436814300" lon="-2.515771700">
        <ele>474.60</ele>
        <time>2012-10-20T09:38:23Z</time>
      </trkpt>
      <trkpt lat="42.436796000" lon="-2.515789600">
        <ele>475.20</ele>
        <time>2012-10-20T09:38:23Z</time>
      </trkpt>
      <trkpt lat="42.436779000" lon="-2.515806900">
        <ele>475.60</ele>
        <time>2012-10-20T09:38:25Z</time>
      </trkpt>
      <trkpt lat="42.436761100" lon="-2.515823500">
        <ele>476.20</ele>
        <time>2012-10-20T09:38:25Z</time>
      </trkpt>
      <trkpt lat="42.436744100" lon="-2.515841600">
        <ele>476.60</ele>
        <time>2012-10-20T09:38:26Z</time>
      </trkpt>
      <trkpt lat="42.436733800" lon="-2.515867600">
        <ele>477.00</ele>
        <time>2012-10-20T09:38:28Z</time>
      </trkpt>
      <trkpt lat="42.436688600" lon="-2.515957700">
        <ele>477.00</ele>
        <time>2012-10-20T09:38:32Z</time>
      </trkpt>
      <trkpt lat="42.436670400" lon="-2.516007100">
        <ele>477.40</ele>
        <time>2012-10-20T09:38:33Z</time>
      </trkpt>
      <trkpt lat="42.436660600" lon="-2.516026000">
        <ele>477.80</ele>
        <time>2012-10-20T09:38:35Z</time>
      </trkpt>
      <trkpt lat="42.436648200" lon="-2.516048800">
        <ele>478.20</ele>
        <time>2012-10-20T09:38:35Z</time>
      </trkpt>
      <trkpt lat="42.436635900" lon="-2.516075600">
        <ele>478.80</ele>
        <time>2012-10-20T09:38:37Z</time>
      </trkpt>
      <trkpt lat="42.436624800" lon="-2.516098300">
        <ele>479.20</ele>
        <time>2012-10-20T09:38:37Z</time>
      </trkpt>
      <trkpt lat="42.436576400" lon="-2.516186400">
        <ele>479.60</ele>
        <time>2012-10-20T09:38:42Z</time>
      </trkpt>
      <trkpt lat="42.436576000" lon="-2.516206700">
        <ele>480.00</ele>
        <time>2012-10-20T09:38:42Z</time>
      </trkpt>
      <trkpt lat="42.436568500" lon="-2.516236600">
        <ele>480.40</ele>
        <time>2012-10-20T09:38:44Z</time>
      </trkpt>
      <trkpt lat="42.436565200" lon="-2.516264900">
        <ele>480.80</ele>
        <time>2012-10-20T09:38:44Z</time>
      </trkpt>
      <trkpt lat="42.436567600" lon="-2.516296600">
        <ele>481.20</ele>
        <time>2012-10-20T09:38:46Z</time>
      </trkpt>
      <trkpt lat="42.436593100" lon="-2.516393200">
        <ele>481.20</ele>
        <time>2012-10-20T09:38:49Z</time>
      </trkpt>
      <trkpt lat="42.436605800" lon="-2.516424500">
        <ele>481.60</ele>
        <time>2012-10-20T09:38:49Z</time>
      </trkpt>
      <trkpt lat="42.436622800" lon="-2.516438900">
        <ele>482.00</ele>
        <time>2012-10-20T09:38:51Z</time>
      </trkpt>
      <trkpt lat="42.436640700" lon="-2.516465300">
        <ele>482.40</ele>
        <time>2012-10-20T09:38:51Z</time>
      </trkpt>
      <trkpt lat="42.436657900" lon="-2.516488800">
        <ele>482.80</ele>
        <time>2012-10-20T09:38:53Z</time>
      </trkpt>
      <trkpt lat="42.436674200" lon="-2.516509200">
        <ele>483.40</ele>
        <time>2012-10-20T09:38:54Z</time>
      </trkpt>
      <trkpt lat="42.436740700" lon="-2.516589400">
        <ele>483.80</ele>
        <time>2012-10-20T09:38:58Z</time>
      </trkpt>
      <trkpt lat="42.436755600" lon="-2.516614100">
        <ele>484.20</ele>
        <time>2012-10-20T09:38:58Z</time>
      </trkpt>
      <trkpt lat="42.436766700" lon="-2.516635200">
        <ele>484.60</ele>
        <time>2012-10-20T09:38:59Z</time>
      </trkpt>
      <trkpt lat="42.436783200" lon="-2.516657200">
        <ele>485.00</ele>
        <time>2012-10-20T09:39:01Z</time>
      </trkpt>
      <trkpt lat="42.436797700" lon="-2.516681200">
        <ele>485.40</ele>
        <time>2012-10-20T09:39:01Z</time>
      </trkpt>
      <trkpt lat="42.436863700" lon="-2.516815800">
        <ele>485.40</ele>
        <time>2012-10-20T09:39:06Z</time>
      </trkpt>
      <trkpt lat="42.437006100" lon="-2.516995900">
        <ele>485.40</ele>
        <time>2012-10-20T09:39:13Z</time>
      </trkpt>
      <trkpt lat="42.437133500" lon="-2.517168300">
        <ele>485.40</ele>
        <time>2012-10-20T09:39:19Z</time>
      </trkpt>
      <trkpt lat="42.437210500" lon="-2.517261200">
        <ele>485.40</ele>
        <time>2012-10-20T09:39:24Z</time>
      </trkpt>
      <trkpt lat="42.437319900" lon="-2.517377800">
        <ele>485.40</ele>
        <time>2012-10-20T09:39:29Z</time>
      </trkpt>
      <trkpt lat="42.437412300" lon="-2.517526700">
        <ele>485.40</ele>
        <time>2012-10-20T09:39:34Z</time>
      </trkpt>
      <trkpt lat="42.437516600" lon="-2.517660400">
        <ele>485.40</ele>
        <time>2012-10-20T09:39:38Z</time>
      </trkpt>
      <trkpt lat="42.437621100" lon="-2.517835700">
        <ele>485.40</ele>
        <time>2012-10-20T09:39:43Z</time>
      </trkpt>
      <trkpt lat="42.437710400" lon="-2.518019300">
        <ele>485.40</ele>
        <time>2012-10-20T09:39:48Z</time>
      </trkpt>
      <trkpt lat="42.437726000" lon="-2.518061900">
        <ele>485.40</ele>
        <time>2012-10-20T09:39:50Z</time>
      </trkpt>
      <trkpt lat="42.437776400" lon="-2.518227600">
        <ele>485.80</ele>
        <time>2012-10-20T09:39:54Z</time>
      </trkpt>
      <trkpt lat="42.437788400" lon="-2.518267300">
        <ele>486.40</ele>
        <time>2012-10-20T09:39:55Z</time>
      </trkpt>
      <trkpt lat="42.437816200" lon="-2.518339000">
        <ele>487.20</ele>
        <time>2012-10-20T09:39:57Z</time>
      </trkpt>
      <trkpt lat="42.437825600" lon="-2.518375900">
        <ele>487.60</ele>
        <time>2012-10-20T09:39:57Z</time>
      </trkpt>
      <trkpt lat="42.437908500" lon="-2.518615800">
        <ele>487.60</ele>
        <time>2012-10-20T09:40:04Z</time>
      </trkpt>
      <trkpt lat="42.437928000" lon="-2.518690800">
        <ele>488.00</ele>
        <time>2012-10-20T09:40:06Z</time>
      </trkpt>
      <trkpt lat="42.437941100" lon="-2.518759900">
        <ele>488.80</ele>
        <time>2012-10-20T09:40:09Z</time>
      </trkpt>
      <trkpt lat="42.437951400" lon="-2.518821700">
        <ele>489.80</ele>
        <time>2012-10-20T09:40:11Z</time>
      </trkpt>
      <trkpt lat="42.437957800" lon="-2.518850400">
        <ele>489.80</ele>
        <time>2012-10-20T09:40:11Z</time>
      </trkpt>
      <trkpt lat="42.438023100" lon="-2.519120400">
        <ele>489.80</ele>
        <time>2012-10-20T09:40:20Z</time>
      </trkpt>
      <trkpt lat="42.438118100" lon="-2.519307900">
        <ele>489.80</ele>
        <time>2012-10-20T09:40:25Z</time>
      </trkpt>
      <trkpt lat="42.438137000" lon="-2.519338200">
        <ele>490.20</ele>
        <time>2012-10-20T09:40:27Z</time>
      </trkpt>
      <trkpt lat="42.438150600" lon="-2.519357100">
        <ele>490.80</ele>
        <time>2012-10-20T09:40:28Z</time>
      </trkpt>
      <trkpt lat="42.438167900" lon="-2.519388500">
        <ele>491.20</ele>
        <time>2012-10-20T09:40:28Z</time>
      </trkpt>
      <trkpt lat="42.438180300" lon="-2.519423600">
        <ele>491.80</ele>
        <time>2012-10-20T09:40:30Z</time>
      </trkpt>
      <trkpt lat="42.438194800" lon="-2.519453600">
        <ele>492.20</ele>
        <time>2012-10-20T09:40:30Z</time>
      </trkpt>
      <trkpt lat="42.438224000" lon="-2.519523500">
        <ele>492.80</ele>
        <time>2012-10-20T09:40:32Z</time>
      </trkpt>
      <trkpt lat="42.438242400" lon="-2.519548100">
        <ele>493.20</ele>
        <time>2012-10-20T09:40:34Z</time>
      </trkpt>
      <trkpt lat="42.438253700" lon="-2.519577200">
        <ele>493.60</ele>
        <time>2012-10-20T09:40:35Z</time>
      </trkpt>
      <trkpt lat="42.438270400" lon="-2.519607600">
        <ele>494.00</ele>
        <time>2012-10-20T09:40:35Z</time>
      </trkpt>
      <trkpt lat="42.438285700" lon="-2.519635100">
        <ele>494.60</ele>
        <time>2012-10-20T09:40:37Z</time>
      </trkpt>
      <trkpt lat="42.438367500" lon="-2.519736900">
        <ele>494.60</ele>
        <time>2012-10-20T09:40:41Z</time>
      </trkpt>
      <trkpt lat="42.438391200" lon="-2.519761600">
        <ele>494.60</ele>
        <time>2012-10-20T09:40:42Z</time>
      </trkpt>
      <trkpt lat="42.438437900" lon="-2.519820800">
        <ele>495.00</ele>
        <time>2012-10-20T09:40:44Z</time>
      </trkpt>
      <trkpt lat="42.438459800" lon="-2.519849000">
        <ele>495.40</ele>
        <time>2012-10-20T09:40:44Z</time>
      </trkpt>
      <trkpt lat="42.438479200" lon="-2.519878400">
        <ele>495.80</ele>
        <time>2012-10-20T09:40:46Z</time>
      </trkpt>
      <trkpt lat="42.438498200" lon="-2.519905300">
        <ele>496.20</ele>
        <time>2012-10-20T09:40:46Z</time>
      </trkpt>
      <trkpt lat="42.438516600" lon="-2.519943100">
        <ele>496.60</ele>
        <time>2012-10-20T09:40:48Z</time>
      </trkpt>
      <trkpt lat="42.438628700" lon="-2.520161900">
        <ele>496.60</ele>
        <time>2012-10-20T09:40:54Z</time>
      </trkpt>
      <trkpt lat="42.438724700" lon="-2.520386700">
        <ele>496.60</ele>
        <time>2012-10-20T09:41:00Z</time>
      </trkpt>
      <trkpt lat="42.438783800" lon="-2.520572200">
        <ele>497.00</ele>
        <time>2012-10-20T09:41:05Z</time>
      </trkpt>
      <trkpt lat="42.438794800" lon="-2.520606000">
        <ele>497.40</ele>
        <time>2012-10-20T09:41:07Z</time>
      </trkpt>
      <trkpt lat="42.438809500" lon="-2.520646900">
        <ele>498.00</ele>
        <time>2012-10-20T09:41:07Z</time>
      </trkpt>
      <trkpt lat="42.438820900" lon="-2.520678000">
        <ele>498.40</ele>
        <time>2012-10-20T09:41:08Z</time>
      </trkpt>
      <trkpt lat="42.438834000" lon="-2.520710900">
        <ele>498.80</ele>
        <time>2012-10-20T09:41:10Z</time>
      </trkpt>
      <trkpt lat="42.438859400" lon="-2.520773500">
        <ele>498.80</ele>
        <time>2012-10-20T09:41:12Z</time>
      </trkpt>
      <trkpt lat="42.438913900" lon="-2.520882800">
        <ele>499.20</ele>
        <time>2012-10-20T09:41:15Z</time>
      </trkpt>
      <trkpt lat="42.438935100" lon="-2.520917500">
        <ele>499.60</ele>
        <time>2012-10-20T09:41:17Z</time>
      </trkpt>
      <trkpt lat="42.438952000" lon="-2.520948300">
        <ele>500.00</ele>
        <time>2012-10-20T09:41:17Z</time>
      </trkpt>
      <trkpt lat="42.438969600" lon="-2.520981300">
        <ele>500.40</ele>
        <time>2012-10-20T09:41:19Z</time>
      </trkpt>
      <trkpt lat="42.438991500" lon="-2.521010300">
        <ele>500.80</ele>
        <time>2012-10-20T09:41:19Z</time>
      </trkpt>
      <trkpt lat="42.439074400" lon="-2.521142300">
        <ele>501.20</ele>
        <time>2012-10-20T09:41:24Z</time>
      </trkpt>
      <trkpt lat="42.439094600" lon="-2.521175900">
        <ele>501.60</ele>
        <time>2012-10-20T09:41:24Z</time>
      </trkpt>
      <trkpt lat="42.439113000" lon="-2.521207500">
        <ele>502.00</ele>
        <time>2012-10-20T09:41:26Z</time>
      </trkpt>
      <trkpt lat="42.439131400" lon="-2.521244500">
        <ele>502.40</ele>
        <time>2012-10-20T09:41:26Z</time>
      </trkpt>
      <trkpt lat="42.439146200" lon="-2.521280700">
        <ele>502.80</ele>
        <time>2012-10-20T09:41:28Z</time>
      </trkpt>
      <trkpt lat="42.439199500" lon="-2.521436300">
        <ele>502.80</ele>
        <time>2012-10-20T09:41:33Z</time>
      </trkpt>
      <trkpt lat="42.439225000" lon="-2.521503300">
        <ele>503.20</ele>
        <time>2012-10-20T09:41:35Z</time>
      </trkpt>
      <trkpt lat="42.439234600" lon="-2.521538400">
        <ele>503.60</ele>
        <time>2012-10-20T09:41:36Z</time>
      </trkpt>
      <trkpt lat="42.439248800" lon="-2.521574500">
        <ele>504.00</ele>
        <time>2012-10-20T09:41:36Z</time>
      </trkpt>
      <trkpt lat="42.439264700" lon="-2.521608100">
        <ele>504.60</ele>
        <time>2012-10-20T09:41:38Z</time>
      </trkpt>
      <trkpt lat="42.439280300" lon="-2.521639700">
        <ele>505.00</ele>
        <time>2012-10-20T09:41:38Z</time>
      </trkpt>
      <trkpt lat="42.439337200" lon="-2.521846500">
        <ele>505.00</ele>
        <time>2012-10-20T09:41:45Z</time>
      </trkpt>
      <trkpt lat="42.439347600" lon="-2.521915800">
        <ele>505.40</ele>
        <time>2012-10-20T09:41:47Z</time>
      </trkpt>
      <trkpt lat="42.439357300" lon="-2.521951000">
        <ele>505.80</ele>
        <time>2012-10-20T09:41:47Z</time>
      </trkpt>
      <trkpt lat="42.439364400" lon="-2.521987800">
        <ele>506.20</ele>
        <time>2012-10-20T09:41:48Z</time>
      </trkpt>
      <trkpt lat="42.439369100" lon="-2.522021000">
        <ele>506.60</ele>
        <time>2012-10-20T09:41:50Z</time>
      </trkpt>
      <trkpt lat="42.439374900" lon="-2.522057000">
        <ele>507.00</ele>
        <time>2012-10-20T09:41:50Z</time>
      </trkpt>
      <trkpt lat="42.439382400" lon="-2.522091900">
        <ele>507.00</ele>
        <time>2012-10-20T09:41:52Z</time>
      </trkpt>
      <trkpt lat="42.439423100" lon="-2.522290100">
        <ele>507.40</ele>
        <time>2012-10-20T09:41:57Z</time>
      </trkpt>
      <trkpt lat="42.439432900" lon="-2.522324300">
        <ele>507.80</ele>
        <time>2012-10-20T09:41:59Z</time>
      </trkpt>
      <trkpt lat="42.439454100" lon="-2.522383700">
        <ele>508.60</ele>
        <time>2012-10-20T09:42:01Z</time>
      </trkpt>
      <trkpt lat="42.439461000" lon="-2.522410500">
        <ele>509.00</ele>
        <time>2012-10-20T09:42:01Z</time>
      </trkpt>
      <trkpt lat="42.439510000" lon="-2.522552100">
        <ele>509.00</ele>
        <time>2012-10-20T09:42:06Z</time>
      </trkpt>
      <trkpt lat="42.439577100" lon="-2.522712500">
        <ele>509.00</ele>
        <time>2012-10-20T09:42:11Z</time>
      </trkpt>
      <trkpt lat="42.439653800" lon="-2.522854500">
        <ele>509.60</ele>
        <time>2012-10-20T09:42:16Z</time>
      </trkpt>
      <trkpt lat="42.439673900" lon="-2.522886000">
        <ele>510.00</ele>
        <time>2012-10-20T09:42:16Z</time>
      </trkpt>
      <trkpt lat="42.439694800" lon="-2.522909200">
        <ele>510.40</ele>
        <time>2012-10-20T09:42:18Z</time>
      </trkpt>
      <trkpt lat="42.439715300" lon="-2.522930100">
        <ele>511.00</ele>
        <time>2012-10-20T09:42:18Z</time>
      </trkpt>
      <trkpt lat="42.439725900" lon="-2.522963800">
        <ele>511.40</ele>
        <time>2012-10-20T09:42:20Z</time>
      </trkpt>
      <trkpt lat="42.439780400" lon="-2.523032100">
        <ele>511.40</ele>
        <time>2012-10-20T09:42:23Z</time>
      </trkpt>
      <trkpt lat="42.439845800" lon="-2.523130100">
        <ele>511.80</ele>
        <time>2012-10-20T09:42:27Z</time>
      </trkpt>
      <trkpt lat="42.439861300" lon="-2.523153900">
        <ele>512.20</ele>
        <time>2012-10-20T09:42:27Z</time>
      </trkpt>
      <trkpt lat="42.439875200" lon="-2.523181800">
        <ele>512.80</ele>
        <time>2012-10-20T09:42:29Z</time>
      </trkpt>
      <trkpt lat="42.439887600" lon="-2.523205900">
        <ele>513.20</ele>
        <time>2012-10-20T09:42:30Z</time>
      </trkpt>
      <trkpt lat="42.439897900" lon="-2.523233700">
        <ele>513.60</ele>
        <time>2012-10-20T09:42:30Z</time>
      </trkpt>
      <trkpt lat="42.439929800" lon="-2.523314600">
        <ele>513.60</ele>
        <time>2012-10-20T09:42:34Z</time>
      </trkpt>
      <trkpt lat="42.439992800" lon="-2.523509900">
        <ele>513.60</ele>
        <time>2012-10-20T09:42:39Z</time>
      </trkpt>
      <trkpt lat="42.440091100" lon="-2.523763100">
        <ele>513.60</ele>
        <time>2012-10-20T09:42:46Z</time>
      </trkpt>
      <trkpt lat="42.440103100" lon="-2.523838200">
        <ele>514.00</ele>
        <time>2012-10-20T09:42:48Z</time>
      </trkpt>
      <trkpt lat="42.440106300" lon="-2.523874300">
        <ele>514.40</ele>
        <time>2012-10-20T09:42:49Z</time>
      </trkpt>
      <trkpt lat="42.440103500" lon="-2.523910600">
        <ele>515.00</ele>
        <time>2012-10-20T09:42:51Z</time>
      </trkpt>
      <trkpt lat="42.440101200" lon="-2.523946100">
        <ele>515.40</ele>
        <time>2012-10-20T09:42:51Z</time>
      </trkpt>
      <trkpt lat="42.440094900" lon="-2.523980100">
        <ele>515.80</ele>
        <time>2012-10-20T09:42:53Z</time>
      </trkpt>
      <trkpt lat="42.440033300" lon="-2.524176700">
        <ele>515.80</ele>
        <time>2012-10-20T09:42:58Z</time>
      </trkpt>
      <trkpt lat="42.440005800" lon="-2.524315500">
        <ele>516.20</ele>
        <time>2012-10-20T09:43:02Z</time>
      </trkpt>
      <trkpt lat="42.440000900" lon="-2.524351800">
        <ele>516.60</ele>
        <time>2012-10-20T09:43:03Z</time>
      </trkpt>
      <trkpt lat="42.439996200" lon="-2.524388800">
        <ele>517.20</ele>
        <time>2012-10-20T09:43:05Z</time>
      </trkpt>
      <trkpt lat="42.439994700" lon="-2.524422800">
        <ele>517.60</ele>
        <time>2012-10-20T09:43:05Z</time>
      </trkpt>
      <trkpt lat="42.439991000" lon="-2.524457900">
        <ele>518.00</ele>
        <time>2012-10-20T09:43:07Z</time>
      </trkpt>
      <trkpt lat="42.439985100" lon="-2.524525300">
        <ele>518.00</ele>
        <time>2012-10-20T09:43:09Z</time>
      </trkpt>
      <trkpt lat="42.439968000" lon="-2.524629200">
        <ele>518.40</ele>
        <time>2012-10-20T09:43:12Z</time>
      </trkpt>
      <trkpt lat="42.439962300" lon="-2.524663500">
        <ele>518.80</ele>
        <time>2012-10-20T09:43:12Z</time>
      </trkpt>
      <trkpt lat="42.439954700" lon="-2.524699300">
        <ele>519.20</ele>
        <time>2012-10-20T09:43:14Z</time>
      </trkpt>
      <trkpt lat="42.439941500" lon="-2.524765200">
        <ele>520.00</ele>
        <time>2012-10-20T09:43:16Z</time>
      </trkpt>
      <trkpt lat="42.439934600" lon="-2.524928600">
        <ele>520.00</ele>
        <time>2012-10-20T09:43:21Z</time>
      </trkpt>
      <trkpt lat="42.439916400" lon="-2.525076300">
        <ele>520.00</ele>
        <time>2012-10-20T09:43:28Z</time>
      </trkpt>
      <trkpt lat="42.439891400" lon="-2.525178900">
        <ele>520.40</ele>
        <time>2012-10-20T09:43:33Z</time>
      </trkpt>
      <trkpt lat="42.439889200" lon="-2.525205500">
        <ele>520.80</ele>
        <time>2012-10-20T09:43:33Z</time>
      </trkpt>
      <trkpt lat="42.439887200" lon="-2.525234900">
        <ele>521.20</ele>
        <time>2012-10-20T09:43:35Z</time>
      </trkpt>
      <trkpt lat="42.439885600" lon="-2.525262700">
        <ele>521.60</ele>
        <time>2012-10-20T09:43:35Z</time>
      </trkpt>
      <trkpt lat="42.439884200" lon="-2.525289100">
        <ele>522.00</ele>
        <time>2012-10-20T09:43:36Z</time>
      </trkpt>
      <trkpt lat="42.439884800" lon="-2.525444700">
        <ele>522.00</ele>
        <time>2012-10-20T09:43:42Z</time>
      </trkpt>
      <trkpt lat="42.439875800" lon="-2.525582400">
        <ele>522.00</ele>
        <time>2012-10-20T09:43:47Z</time>
      </trkpt>
      <trkpt lat="42.439876100" lon="-2.525716700">
        <ele>522.00</ele>
        <time>2012-10-20T09:43:52Z</time>
      </trkpt>
      <trkpt lat="42.439881900" lon="-2.525756100">
        <ele>522.00</ele>
        <time>2012-10-20T09:43:56Z</time>
      </trkpt>
      <trkpt lat="42.439884000" lon="-2.525787100">
        <ele>522.00</ele>
        <time>2012-10-20T09:44:04Z</time>
      </trkpt>
      <trkpt lat="42.439879000" lon="-2.525810700">
        <ele>522.00</ele>
        <time>2012-10-20T09:44:04Z</time>
      </trkpt>
      <trkpt lat="42.439863300" lon="-2.526049700">
        <ele>522.00</ele>
        <time>2012-10-20T09:44:11Z</time>
      </trkpt>
      <trkpt lat="42.439855900" lon="-2.526335500">
        <ele>522.00</ele>
        <time>2012-10-20T09:44:15Z</time>
      </trkpt>
      <trkpt lat="42.439852500" lon="-2.526398100">
        <ele>522.00</ele>
        <time>2012-10-20T09:44:17Z</time>
      </trkpt>
      <trkpt lat="42.439816600" lon="-2.526754900">
        <ele>521.60</ele>
        <time>2012-10-20T09:44:22Z</time>
      </trkpt>
      <trkpt lat="42.439810800" lon="-2.526879000">
        <ele>520.80</ele>
        <time>2012-10-20T09:44:25Z</time>
      </trkpt>
      <trkpt lat="42.439805700" lon="-2.527010200">
        <ele>520.00</ele>
        <time>2012-10-20T09:44:27Z</time>
      </trkpt>
      <trkpt lat="42.439793000" lon="-2.527202200">
        <ele>520.00</ele>
        <time>2012-10-20T09:44:29Z</time>
      </trkpt>
      <trkpt lat="42.439774300" lon="-2.527439800">
        <ele>519.40</ele>
        <time>2012-10-20T09:44:30Z</time>
      </trkpt>
      <trkpt lat="42.439762800" lon="-2.527560100">
        <ele>518.80</ele>
        <time>2012-10-20T09:44:32Z</time>
      </trkpt>
      <trkpt lat="42.439750400" lon="-2.527672100">
        <ele>518.00</ele>
        <time>2012-10-20T09:44:32Z</time>
      </trkpt>
      <trkpt lat="42.439740000" lon="-2.527771300">
        <ele>517.00</ele>
        <time>2012-10-20T09:44:34Z</time>
      </trkpt>
      <trkpt lat="42.439726000" lon="-2.527885400">
        <ele>516.20</ele>
        <time>2012-10-20T09:44:34Z</time>
      </trkpt>
      <trkpt lat="42.439708800" lon="-2.527993900">
        <ele>515.40</ele>
        <time>2012-10-20T09:44:36Z</time>
      </trkpt>
      <trkpt lat="42.439695100" lon="-2.528101500">
        <ele>514.40</ele>
        <time>2012-10-20T09:44:36Z</time>
      </trkpt>
      <trkpt lat="42.439628600" lon="-2.528576900">
        <ele>514.40</ele>
        <time>2012-10-20T09:44:41Z</time>
      </trkpt>
      <trkpt lat="42.439587200" lon="-2.529025700">
        <ele>514.00</ele>
        <time>2012-10-20T09:44:46Z</time>
      </trkpt>
      <trkpt lat="42.439574400" lon="-2.529141900">
        <ele>513.60</ele>
        <time>2012-10-20T09:44:48Z</time>
      </trkpt>
      <trkpt lat="42.439555400" lon="-2.529251700">
        <ele>513.00</ele>
        <time>2012-10-20T09:44:48Z</time>
      </trkpt>
      <trkpt lat="42.439536400" lon="-2.529370000">
        <ele>512.60</ele>
        <time>2012-10-20T09:44:50Z</time>
      </trkpt>
      <trkpt lat="42.439513900" lon="-2.529483300">
        <ele>512.20</ele>
        <time>2012-10-20T09:44:50Z</time>
      </trkpt>
      <trkpt lat="42.439489700" lon="-2.529591200">
        <ele>511.80</ele>
        <time>2012-10-20T09:44:51Z</time>
      </trkpt>
      <trkpt lat="42.439464200" lon="-2.529696900">
        <ele>511.20</ele>
        <time>2012-10-20T09:44:53Z</time>
      </trkpt>
      <trkpt lat="42.439439500" lon="-2.529797200">
        <ele>510.80</ele>
        <time>2012-10-20T09:44:53Z</time>
      </trkpt>
      <trkpt lat="42.439416400" lon="-2.529905100">
        <ele>510.40</ele>
        <time>2012-10-20T09:44:55Z</time>
      </trkpt>
      <trkpt lat="42.439395800" lon="-2.530012000">
        <ele>510.00</ele>
        <time>2012-10-20T09:44:55Z</time>
      </trkpt>
      <trkpt lat="42.439333300" lon="-2.530335700">
        <ele>509.40</ele>
        <time>2012-10-20T09:44:58Z</time>
      </trkpt>
      <trkpt lat="42.439313200" lon="-2.530449900">
        <ele>509.00</ele>
        <time>2012-10-20T09:45:00Z</time>
      </trkpt>
      <trkpt lat="42.439295700" lon="-2.530557800">
        <ele>508.60</ele>
        <time>2012-10-20T09:45:00Z</time>
      </trkpt>
      <trkpt lat="42.439269300" lon="-2.530662300">
        <ele>508.00</ele>
        <time>2012-10-20T09:45:02Z</time>
      </trkpt>
      <trkpt lat="42.439250000" lon="-2.530771300">
        <ele>507.40</ele>
        <time>2012-10-20T09:45:02Z</time>
      </trkpt>
      <trkpt lat="42.439235300" lon="-2.530847800">
        <ele>506.80</ele>
        <time>2012-10-20T09:45:04Z</time>
      </trkpt>
      <trkpt lat="42.439217000" lon="-2.530936800">
        <ele>506.20</ele>
        <time>2012-10-20T09:45:05Z</time>
      </trkpt>
      <trkpt lat="42.439203600" lon="-2.530999300">
        <ele>505.60</ele>
        <time>2012-10-20T09:45:05Z</time>
      </trkpt>
      <trkpt lat="42.439136100" lon="-2.531170000">
        <ele>505.60</ele>
        <time>2012-10-20T09:45:12Z</time>
      </trkpt>
      <trkpt lat="42.439123100" lon="-2.531185200">
        <ele>505.60</ele>
        <time>2012-10-20T09:45:14Z</time>
      </trkpt>
      <trkpt lat="42.439070900" lon="-2.531272700">
        <ele>505.60</ele>
        <time>2012-10-20T09:45:16Z</time>
      </trkpt>
      <trkpt lat="42.439010500" lon="-2.531546500">
        <ele>505.60</ele>
        <time>2012-10-20T09:45:21Z</time>
      </trkpt>
      <trkpt lat="42.438952800" lon="-2.531839400">
        <ele>505.60</ele>
        <time>2012-10-20T09:45:28Z</time>
      </trkpt>
      <trkpt lat="42.438915900" lon="-2.532043700">
        <ele>505.60</ele>
        <time>2012-10-20T09:45:31Z</time>
      </trkpt>
      <trkpt lat="42.438887200" lon="-2.532342400">
        <ele>505.60</ele>
        <time>2012-10-20T09:45:37Z</time>
      </trkpt>
      <trkpt lat="42.438861500" lon="-2.532573000">
        <ele>505.60</ele>
        <time>2012-10-20T09:45:40Z</time>
      </trkpt>
      <trkpt lat="42.438845400" lon="-2.532846800">
        <ele>505.60</ele>
        <time>2012-10-20T09:45:45Z</time>
      </trkpt>
      <trkpt lat="42.438838100" lon="-2.533052600">
        <ele>505.20</ele>
        <time>2012-10-20T09:45:47Z</time>
      </trkpt>
      <trkpt lat="42.438832500" lon="-2.533106800">
        <ele>504.80</ele>
        <time>2012-10-20T09:45:49Z</time>
      </trkpt>
      <trkpt lat="42.438832800" lon="-2.533166200">
        <ele>504.20</ele>
        <time>2012-10-20T09:45:49Z</time>
      </trkpt>
      <trkpt lat="42.438831600" lon="-2.533223300">
        <ele>503.80</ele>
        <time>2012-10-20T09:45:51Z</time>
      </trkpt>
      <trkpt lat="42.438827400" lon="-2.533276300">
        <ele>503.40</ele>
        <time>2012-10-20T09:45:52Z</time>
      </trkpt>
      <trkpt lat="42.438817300" lon="-2.533332000">
        <ele>503.40</ele>
        <time>2012-10-20T09:45:52Z</time>
      </trkpt>
      <trkpt lat="42.438800400" lon="-2.533470800">
        <ele>503.40</ele>
        <time>2012-10-20T09:45:56Z</time>
      </trkpt>
      <trkpt lat="42.438783900" lon="-2.533527500">
        <ele>503.40</ele>
        <time>2012-10-20T09:45:56Z</time>
      </trkpt>
      <trkpt lat="42.438748300" lon="-2.533720200">
        <ele>503.40</ele>
        <time>2012-10-20T09:45:59Z</time>
      </trkpt>
      <trkpt lat="42.438668500" lon="-2.534112900">
        <ele>503.40</ele>
        <time>2012-10-20T09:46:06Z</time>
      </trkpt>
      <trkpt lat="42.438647500" lon="-2.534374000">
        <ele>503.40</ele>
        <time>2012-10-20T09:46:10Z</time>
      </trkpt>
      <trkpt lat="42.438627800" lon="-2.534691800">
        <ele>503.40</ele>
        <time>2012-10-20T09:46:17Z</time>
      </trkpt>
      <trkpt lat="42.438594700" lon="-2.534976400">
        <ele>503.00</ele>
        <time>2012-10-20T09:46:20Z</time>
      </trkpt>
      <trkpt lat="42.438583300" lon="-2.535050500">
        <ele>502.60</ele>
        <time>2012-10-20T09:46:22Z</time>
      </trkpt>
      <trkpt lat="42.438572700" lon="-2.535122000">
        <ele>502.00</ele>
        <time>2012-10-20T09:46:22Z</time>
      </trkpt>
      <trkpt lat="42.438550400" lon="-2.535267100">
        <ele>501.20</ele>
        <time>2012-10-20T09:46:24Z</time>
      </trkpt>
      <trkpt lat="42.438480500" lon="-2.535632200">
        <ele>501.20</ele>
        <time>2012-10-20T09:46:29Z</time>
      </trkpt>
      <trkpt lat="42.438434700" lon="-2.535764000">
        <ele>501.20</ele>
        <time>2012-10-20T09:46:31Z</time>
      </trkpt>
      <trkpt lat="42.438405200" lon="-2.535835400">
        <ele>500.80</ele>
        <time>2012-10-20T09:46:32Z</time>
      </trkpt>
      <trkpt lat="42.438375300" lon="-2.535902900">
        <ele>500.20</ele>
        <time>2012-10-20T09:46:34Z</time>
      </trkpt>
      <trkpt lat="42.438349700" lon="-2.535974600">
        <ele>499.80</ele>
        <time>2012-10-20T09:46:34Z</time>
      </trkpt>
      <trkpt lat="42.438325800" lon="-2.536051600">
        <ele>499.40</ele>
        <time>2012-10-20T09:46:36Z</time>
      </trkpt>
      <trkpt lat="42.438298300" lon="-2.536131600">
        <ele>499.00</ele>
        <time>2012-10-20T09:46:36Z</time>
      </trkpt>
      <trkpt lat="42.438127600" lon="-2.536612200">
        <ele>499.00</ele>
        <time>2012-10-20T09:46:43Z</time>
      </trkpt>
      <trkpt lat="42.438086600" lon="-2.536734700">
        <ele>499.00</ele>
        <time>2012-10-20T09:46:46Z</time>
      </trkpt>
      <trkpt lat="42.438067500" lon="-2.536802800">
        <ele>499.00</ele>
        <time>2012-10-20T09:46:46Z</time>
      </trkpt>
      <trkpt lat="42.438050300" lon="-2.536863500">
        <ele>498.60</ele>
        <time>2012-10-20T09:46:48Z</time>
      </trkpt>
      <trkpt lat="42.438038500" lon="-2.536919000">
        <ele>498.00</ele>
        <time>2012-10-20T09:46:48Z</time>
      </trkpt>
      <trkpt lat="42.438027400" lon="-2.536977300">
        <ele>497.60</ele>
        <time>2012-10-20T09:46:50Z</time>
      </trkpt>
      <trkpt lat="42.438013800" lon="-2.537020200">
        <ele>497.20</ele>
        <time>2012-10-20T09:46:50Z</time>
      </trkpt>
      <trkpt lat="42.438005500" lon="-2.537062600">
        <ele>496.80</ele>
        <time>2012-10-20T09:46:52Z</time>
      </trkpt>
      <trkpt lat="42.437982200" lon="-2.537164100">
        <ele>496.80</ele>
        <time>2012-10-20T09:46:55Z</time>
      </trkpt>
      <trkpt lat="42.438004400" lon="-2.537262700">
        <ele>496.80</ele>
        <time>2012-10-20T09:46:59Z</time>
      </trkpt>
      <trkpt lat="42.438014400" lon="-2.537334600">
        <ele>496.80</ele>
        <time>2012-10-20T09:47:00Z</time>
      </trkpt>
      <trkpt lat="42.438005500" lon="-2.537441300">
        <ele>496.80</ele>
        <time>2012-10-20T09:47:02Z</time>
      </trkpt>
      <trkpt lat="42.437939200" lon="-2.537643600">
        <ele>496.80</ele>
        <time>2012-10-20T09:47:07Z</time>
      </trkpt>
      <trkpt lat="42.437906700" lon="-2.537718800">
        <ele>496.80</ele>
        <time>2012-10-20T09:47:09Z</time>
      </trkpt>
      <trkpt lat="42.437848300" lon="-2.537919200">
        <ele>496.80</ele>
        <time>2012-10-20T09:47:14Z</time>
      </trkpt>
      <trkpt lat="42.437771600" lon="-2.538122500">
        <ele>496.80</ele>
        <time>2012-10-20T09:47:18Z</time>
      </trkpt>
      <trkpt lat="42.437675600" lon="-2.538276500">
        <ele>496.80</ele>
        <time>2012-10-20T09:47:23Z</time>
      </trkpt>
      <trkpt lat="42.437643200" lon="-2.538295800">
        <ele>497.20</ele>
        <time>2012-10-20T09:47:23Z</time>
      </trkpt>
      <trkpt lat="42.437615700" lon="-2.538314400">
        <ele>497.60</ele>
        <time>2012-10-20T09:47:25Z</time>
      </trkpt>
      <trkpt lat="42.437585300" lon="-2.538338000">
        <ele>498.20</ele>
        <time>2012-10-20T09:47:25Z</time>
      </trkpt>
      <trkpt lat="42.437560600" lon="-2.538369700">
        <ele>498.60</ele>
        <time>2012-10-20T09:47:26Z</time>
      </trkpt>
      <trkpt lat="42.437533000" lon="-2.538405600">
        <ele>499.00</ele>
        <time>2012-10-20T09:47:28Z</time>
      </trkpt>
      <trkpt lat="42.437484500" lon="-2.538487500">
        <ele>499.00</ele>
        <time>2012-10-20T09:47:30Z</time>
      </trkpt>
      <trkpt lat="42.437429700" lon="-2.538562600">
        <ele>499.00</ele>
        <time>2012-10-20T09:47:32Z</time>
      </trkpt>
      <trkpt lat="42.437248300" lon="-2.538828300">
        <ele>499.00</ele>
        <time>2012-10-20T09:47:39Z</time>
      </trkpt>
      <trkpt lat="42.437145800" lon="-2.538967500">
        <ele>499.00</ele>
        <time>2012-10-20T09:47:42Z</time>
      </trkpt>
      <trkpt lat="42.437119400" lon="-2.538999800">
        <ele>499.00</ele>
        <time>2012-10-20T09:47:44Z</time>
      </trkpt>
      <trkpt lat="42.437090000" lon="-2.539035700">
        <ele>499.40</ele>
        <time>2012-10-20T09:47:44Z</time>
      </trkpt>
      <trkpt lat="42.437065100" lon="-2.539065800">
        <ele>499.80</ele>
        <time>2012-10-20T09:47:46Z</time>
      </trkpt>
      <trkpt lat="42.437034200" lon="-2.539101100">
        <ele>500.20</ele>
        <time>2012-10-20T09:47:47Z</time>
      </trkpt>
      <trkpt lat="42.437004500" lon="-2.539134100">
        <ele>500.60</ele>
        <time>2012-10-20T09:47:47Z</time>
      </trkpt>
      <trkpt lat="42.436976500" lon="-2.539169300">
        <ele>501.00</ele>
        <time>2012-10-20T09:47:49Z</time>
      </trkpt>
      <trkpt lat="42.436812000" lon="-2.539311200">
        <ele>501.00</ele>
        <time>2012-10-20T09:47:54Z</time>
      </trkpt>
      <trkpt lat="42.436767800" lon="-2.539334300">
        <ele>501.00</ele>
        <time>2012-10-20T09:47:54Z</time>
      </trkpt>
      <trkpt lat="42.436558600" lon="-2.539460500">
        <ele>500.60</ele>
        <time>2012-10-20T09:47:58Z</time>
      </trkpt>
      <trkpt lat="42.436505100" lon="-2.539506000">
        <ele>500.20</ele>
        <time>2012-10-20T09:47:59Z</time>
      </trkpt>
      <trkpt lat="42.436440700" lon="-2.539559200">
        <ele>499.60</ele>
        <time>2012-10-20T09:48:01Z</time>
      </trkpt>
      <trkpt lat="42.436382500" lon="-2.539615600">
        <ele>499.20</ele>
        <time>2012-10-20T09:48:01Z</time>
      </trkpt>
      <trkpt lat="42.436320700" lon="-2.539677500">
        <ele>498.60</ele>
        <time>2012-10-20T09:48:03Z</time>
      </trkpt>
      <trkpt lat="42.436193900" lon="-2.539821200">
        <ele>498.20</ele>
        <time>2012-10-20T09:48:05Z</time>
      </trkpt>
      <trkpt lat="42.436130000" lon="-2.539904400">
        <ele>497.60</ele>
        <time>2012-10-20T09:48:05Z</time>
      </trkpt>
      <trkpt lat="42.436067900" lon="-2.539991200">
        <ele>497.20</ele>
        <time>2012-10-20T09:48:06Z</time>
      </trkpt>
      <trkpt lat="42.436005300" lon="-2.540077000">
        <ele>496.60</ele>
        <time>2012-10-20T09:48:08Z</time>
      </trkpt>
      <trkpt lat="42.435942700" lon="-2.540167600">
        <ele>496.20</ele>
        <time>2012-10-20T09:48:08Z</time>
      </trkpt>
      <trkpt lat="42.435883200" lon="-2.540260100">
        <ele>495.60</ele>
        <time>2012-10-20T09:48:10Z</time>
      </trkpt>
      <trkpt lat="42.435822700" lon="-2.540348900">
        <ele>495.00</ele>
        <time>2012-10-20T09:48:10Z</time>
      </trkpt>
      <trkpt lat="42.435763800" lon="-2.540437000">
        <ele>494.60</ele>
        <time>2012-10-20T09:48:12Z</time>
      </trkpt>
      <trkpt lat="42.435704600" lon="-2.540527200">
        <ele>494.00</ele>
        <time>2012-10-20T09:48:12Z</time>
      </trkpt>
      <trkpt lat="42.435582200" lon="-2.540710600">
        <ele>493.60</ele>
        <time>2012-10-20T09:48:15Z</time>
      </trkpt>
      <trkpt lat="42.435521900" lon="-2.540800400">
        <ele>493.00</ele>
        <time>2012-10-20T09:48:15Z</time>
      </trkpt>
      <trkpt lat="42.435338600" lon="-2.541054400">
        <ele>491.80</ele>
        <time>2012-10-20T09:48:19Z</time>
      </trkpt>
      <trkpt lat="42.435164200" lon="-2.541310100">
        <ele>491.20</ele>
        <time>2012-10-20T09:48:22Z</time>
      </trkpt>
      <trkpt lat="42.435106400" lon="-2.541403800">
        <ele>490.80</ele>
        <time>2012-10-20T09:48:22Z</time>
      </trkpt>
      <trkpt lat="42.435057900" lon="-2.541502700">
        <ele>490.40</ele>
        <time>2012-10-20T09:48:24Z</time>
      </trkpt>
      <trkpt lat="42.435020000" lon="-2.541610200">
        <ele>489.80</ele>
        <time>2012-10-20T09:48:24Z</time>
      </trkpt>
      <trkpt lat="42.434944700" lon="-2.541832800">
        <ele>488.60</ele>
        <time>2012-10-20T09:48:26Z</time>
      </trkpt>
      <trkpt lat="42.434902100" lon="-2.541952100">
        <ele>488.00</ele>
        <time>2012-10-20T09:48:27Z</time>
      </trkpt>
      <trkpt lat="42.434854700" lon="-2.542071800">
        <ele>487.40</ele>
        <time>2012-10-20T09:48:29Z</time>
      </trkpt>
      <trkpt lat="42.434802500" lon="-2.542190800">
        <ele>487.00</ele>
        <time>2012-10-20T09:48:29Z</time>
      </trkpt>
      <trkpt lat="42.434679700" lon="-2.542412900">
        <ele>485.80</ele>
        <time>2012-10-20T09:48:31Z</time>
      </trkpt>
      <trkpt lat="42.434609700" lon="-2.542511400">
        <ele>485.20</ele>
        <time>2012-10-20T09:48:33Z</time>
      </trkpt>
      <trkpt lat="42.434538000" lon="-2.542605700">
        <ele>484.60</ele>
        <time>2012-10-20T09:48:34Z</time>
      </trkpt>
      <trkpt lat="42.434466100" lon="-2.542692600">
        <ele>484.00</ele>
        <time>2012-10-20T09:48:34Z</time>
      </trkpt>
      <trkpt lat="42.434392800" lon="-2.542779100">
        <ele>483.20</ele>
        <time>2012-10-20T09:48:36Z</time>
      </trkpt>
      <trkpt lat="42.434322100" lon="-2.542862100">
        <ele>482.80</ele>
        <time>2012-10-20T09:48:36Z</time>
      </trkpt>
      <trkpt lat="42.434186400" lon="-2.543029800">
        <ele>482.00</ele>
        <time>2012-10-20T09:48:38Z</time>
      </trkpt>
      <trkpt lat="42.434060700" lon="-2.543190900">
        <ele>481.20</ele>
        <time>2012-10-20T09:48:41Z</time>
      </trkpt>
      <trkpt lat="42.433755700" lon="-2.543583400">
        <ele>481.20</ele>
        <time>2012-10-20T09:48:45Z</time>
      </trkpt>
      <trkpt lat="42.433507300" lon="-2.543959700">
        <ele>481.20</ele>
        <time>2012-10-20T09:48:50Z</time>
      </trkpt>
      <trkpt lat="42.433413100" lon="-2.544266900">
        <ele>481.20</ele>
        <time>2012-10-20T09:48:55Z</time>
      </trkpt>
      <trkpt lat="42.433407700" lon="-2.544338700">
        <ele>481.20</ele>
        <time>2012-10-20T09:48:55Z</time>
      </trkpt>
      <trkpt lat="42.433403700" lon="-2.544533800">
        <ele>481.20</ele>
        <time>2012-10-20T09:48:59Z</time>
      </trkpt>
      <trkpt lat="42.433410900" lon="-2.544594000">
        <ele>481.20</ele>
        <time>2012-10-20T09:48:59Z</time>
      </trkpt>
      <trkpt lat="42.433411200" lon="-2.544703200">
        <ele>481.20</ele>
        <time>2012-10-20T09:49:02Z</time>
      </trkpt>
      <trkpt lat="42.433427700" lon="-2.544822800">
        <ele>481.20</ele>
        <time>2012-10-20T09:49:04Z</time>
      </trkpt>
      <trkpt lat="42.433435300" lon="-2.544889100">
        <ele>481.60</ele>
        <time>2012-10-20T09:49:04Z</time>
      </trkpt>
      <trkpt lat="42.433431700" lon="-2.544950300">
        <ele>482.20</ele>
        <time>2012-10-20T09:49:06Z</time>
      </trkpt>
      <trkpt lat="42.433427100" lon="-2.545015900">
        <ele>482.60</ele>
        <time>2012-10-20T09:49:06Z</time>
      </trkpt>
      <trkpt lat="42.433410000" lon="-2.545063500">
        <ele>483.00</ele>
        <time>2012-10-20T09:49:07Z</time>
      </trkpt>
      <trkpt lat="42.433380400" lon="-2.545111200">
        <ele>483.40</ele>
        <time>2012-10-20T09:49:09Z</time>
      </trkpt>
      <trkpt lat="42.433344600" lon="-2.545139500">
        <ele>483.40</ele>
        <time>2012-10-20T09:49:09Z</time>
      </trkpt>
      <trkpt lat="42.433267800" lon="-2.545187900">
        <ele>483.40</ele>
        <time>2012-10-20T09:49:11Z</time>
      </trkpt>
      <trkpt lat="42.433099800" lon="-2.545299200">
        <ele>483.40</ele>
        <time>2012-10-20T09:49:16Z</time>
      </trkpt>
      <trkpt lat="42.433024900" lon="-2.545351900">
        <ele>484.20</ele>
        <time>2012-10-20T09:49:18Z</time>
      </trkpt>
      <trkpt lat="42.432988100" lon="-2.545378600">
        <ele>484.80</ele>
        <time>2012-10-20T09:49:20Z</time>
      </trkpt>
      <trkpt lat="42.432949400" lon="-2.545404000">
        <ele>485.20</ele>
        <time>2012-10-20T09:49:21Z</time>
      </trkpt>
      <trkpt lat="42.432909000" lon="-2.545433300">
        <ele>485.60</ele>
        <time>2012-10-20T09:49:21Z</time>
      </trkpt>
      <trkpt lat="42.432824000" lon="-2.545495300">
        <ele>485.60</ele>
        <time>2012-10-20T09:49:23Z</time>
      </trkpt>
      <trkpt lat="42.432575100" lon="-2.545669800">
        <ele>485.20</ele>
        <time>2012-10-20T09:49:28Z</time>
      </trkpt>
      <trkpt lat="42.432520900" lon="-2.545713200">
        <ele>484.60</ele>
        <time>2012-10-20T09:49:30Z</time>
      </trkpt>
      <trkpt lat="42.432464400" lon="-2.545754600">
        <ele>484.20</ele>
        <time>2012-10-20T09:49:30Z</time>
      </trkpt>
      <trkpt lat="42.432406900" lon="-2.545791900">
        <ele>483.80</ele>
        <time>2012-10-20T09:49:32Z</time>
      </trkpt>
      <trkpt lat="42.432342600" lon="-2.545834000">
        <ele>483.40</ele>
        <time>2012-10-20T09:49:32Z</time>
      </trkpt>
      <trkpt lat="42.432278500" lon="-2.545881600">
        <ele>483.00</ele>
        <time>2012-10-20T09:49:34Z</time>
      </trkpt>
      <trkpt lat="42.432219600" lon="-2.545935000">
        <ele>482.60</ele>
        <time>2012-10-20T09:49:35Z</time>
      </trkpt>
      <trkpt lat="42.432155300" lon="-2.545993300">
        <ele>482.00</ele>
        <time>2012-10-20T09:49:35Z</time>
      </trkpt>
      <trkpt lat="42.432092300" lon="-2.546066000">
        <ele>481.60</ele>
        <time>2012-10-20T09:49:37Z</time>
      </trkpt>
      <trkpt lat="42.432039000" lon="-2.546145600">
        <ele>481.20</ele>
        <time>2012-10-20T09:49:37Z</time>
      </trkpt>
      <trkpt lat="42.431995800" lon="-2.546235400">
        <ele>480.60</ele>
        <time>2012-10-20T09:49:39Z</time>
      </trkpt>
      <trkpt lat="42.431958900" lon="-2.546334500">
        <ele>480.20</ele>
        <time>2012-10-20T09:49:39Z</time>
      </trkpt>
      <trkpt lat="42.431929100" lon="-2.546440100">
        <ele>479.60</ele>
        <time>2012-10-20T09:49:41Z</time>
      </trkpt>
      <trkpt lat="42.431907300" lon="-2.546549800">
        <ele>479.20</ele>
        <time>2012-10-20T09:49:42Z</time>
      </trkpt>
      <trkpt lat="42.431888500" lon="-2.546667200">
        <ele>479.20</ele>
        <time>2012-10-20T09:49:42Z</time>
      </trkpt>
      <trkpt lat="42.431867500" lon="-2.546783000">
        <ele>478.80</ele>
        <time>2012-10-20T09:49:44Z</time>
      </trkpt>
      <trkpt lat="42.431839400" lon="-2.546888600">
        <ele>478.20</ele>
        <time>2012-10-20T09:49:44Z</time>
      </trkpt>
      <trkpt lat="42.431806400" lon="-2.546989900">
        <ele>477.80</ele>
        <time>2012-10-20T09:49:46Z</time>
      </trkpt>
      <trkpt lat="42.431767700" lon="-2.547079700">
        <ele>477.40</ele>
        <time>2012-10-20T09:49:46Z</time>
      </trkpt>
      <trkpt lat="42.431720400" lon="-2.547167400">
        <ele>476.80</ele>
        <time>2012-10-20T09:49:47Z</time>
      </trkpt>
      <trkpt lat="42.431675200" lon="-2.547246600">
        <ele>476.80</ele>
        <time>2012-10-20T09:49:49Z</time>
      </trkpt>
      <trkpt lat="42.431485900" lon="-2.547559900">
        <ele>476.80</ele>
        <time>2012-10-20T09:49:53Z</time>
      </trkpt>
      <trkpt lat="42.431413800" lon="-2.547706200">
        <ele>476.80</ele>
        <time>2012-10-20T09:49:54Z</time>
      </trkpt>
      <trkpt lat="42.431362200" lon="-2.547851400">
        <ele>476.80</ele>
        <time>2012-10-20T09:49:56Z</time>
      </trkpt>
      <trkpt lat="42.431334200" lon="-2.547919800">
        <ele>476.40</ele>
        <time>2012-10-20T09:49:58Z</time>
      </trkpt>
      <trkpt lat="42.431283100" lon="-2.548050100">
        <ele>475.60</ele>
        <time>2012-10-20T09:50:00Z</time>
      </trkpt>
      <trkpt lat="42.431227600" lon="-2.548180600">
        <ele>474.80</ele>
        <time>2012-10-20T09:50:01Z</time>
      </trkpt>
      <trkpt lat="42.431173700" lon="-2.548314700">
        <ele>474.80</ele>
        <time>2012-10-20T09:50:03Z</time>
      </trkpt>
      <trkpt lat="42.431075700" lon="-2.548585800">
        <ele>474.80</ele>
        <time>2012-10-20T09:50:07Z</time>
      </trkpt>
      <trkpt lat="42.430969600" lon="-2.548894200">
        <ele>474.80</ele>
        <time>2012-10-20T09:50:12Z</time>
      </trkpt>
      <trkpt lat="42.430802600" lon="-2.549345400">
        <ele>474.80</ele>
        <time>2012-10-20T09:50:19Z</time>
      </trkpt>
      <trkpt lat="42.430550600" lon="-2.550176700">
        <ele>474.80</ele>
        <time>2012-10-20T09:50:31Z</time>
      </trkpt>
      <trkpt lat="42.430507700" lon="-2.550390800">
        <ele>474.80</ele>
        <time>2012-10-20T09:50:35Z</time>
      </trkpt>
      <trkpt lat="42.430423500" lon="-2.550902400">
        <ele>474.80</ele>
        <time>2012-10-20T09:50:42Z</time>
      </trkpt>
      <trkpt lat="42.430361100" lon="-2.551110300">
        <ele>474.80</ele>
        <time>2012-10-20T09:50:45Z</time>
      </trkpt>
      <trkpt lat="42.430243000" lon="-2.551443900">
        <ele>474.80</ele>
        <time>2012-10-20T09:50:50Z</time>
      </trkpt>
      <trkpt lat="42.430090000" lon="-2.551818200">
        <ele>474.80</ele>
        <time>2012-10-20T09:50:55Z</time>
      </trkpt>
      <trkpt lat="42.430036500" lon="-2.551922400">
        <ele>474.80</ele>
        <time>2012-10-20T09:50:57Z</time>
      </trkpt>
      <trkpt lat="42.429959100" lon="-2.552002100">
        <ele>474.80</ele>
        <time>2012-10-20T09:50:59Z</time>
      </trkpt>
      <trkpt lat="42.429816500" lon="-2.552084400">
        <ele>474.80</ele>
        <time>2012-10-20T09:51:02Z</time>
      </trkpt>
      <trkpt lat="42.429725500" lon="-2.552147400">
        <ele>474.80</ele>
        <time>2012-10-20T09:51:04Z</time>
      </trkpt>
      <trkpt lat="42.429652300" lon="-2.552320800">
        <ele>474.80</ele>
        <time>2012-10-20T09:51:08Z</time>
      </trkpt>
      <trkpt lat="42.429712800" lon="-2.552522100">
        <ele>474.80</ele>
        <time>2012-10-20T09:51:11Z</time>
      </trkpt>
      <trkpt lat="42.429738900" lon="-2.552579400">
        <ele>474.80</ele>
        <time>2012-10-20T09:51:11Z</time>
      </trkpt>
      <trkpt lat="42.429836500" lon="-2.552827600">
        <ele>474.80</ele>
        <time>2012-10-20T09:51:16Z</time>
      </trkpt>
      <trkpt lat="42.429850700" lon="-2.552899100">
        <ele>474.80</ele>
        <time>2012-10-20T09:51:16Z</time>
      </trkpt>
      <trkpt lat="42.429922900" lon="-2.553355300">
        <ele>474.80</ele>
        <time>2012-10-20T09:51:23Z</time>
      </trkpt>
      <trkpt lat="42.429920100" lon="-2.553783800">
        <ele>474.80</ele>
        <time>2012-10-20T09:51:30Z</time>
      </trkpt>
      <trkpt lat="42.429923800" lon="-2.553846900">
        <ele>474.80</ele>
        <time>2012-10-20T09:51:30Z</time>
      </trkpt>
      <trkpt lat="42.429919500" lon="-2.553983100">
        <ele>474.80</ele>
        <time>2012-10-20T09:51:32Z</time>
      </trkpt>
      <trkpt lat="42.429880500" lon="-2.554246900">
        <ele>474.80</ele>
        <time>2012-10-20T09:51:37Z</time>
      </trkpt>
      <trkpt lat="42.429844700" lon="-2.554556500">
        <ele>475.20</ele>
        <time>2012-10-20T09:51:41Z</time>
      </trkpt>
      <trkpt lat="42.429839800" lon="-2.554618200">
        <ele>475.60</ele>
        <time>2012-10-20T09:51:42Z</time>
      </trkpt>
      <trkpt lat="42.429830000" lon="-2.554675900">
        <ele>476.00</ele>
        <time>2012-10-20T09:51:44Z</time>
      </trkpt>
      <trkpt lat="42.429822700" lon="-2.554731100">
        <ele>476.40</ele>
        <time>2012-10-20T09:51:44Z</time>
      </trkpt>
      <trkpt lat="42.429812500" lon="-2.554787700">
        <ele>477.00</ele>
        <time>2012-10-20T09:51:46Z</time>
      </trkpt>
      <trkpt lat="42.429755900" lon="-2.555062100">
        <ele>477.00</ele>
        <time>2012-10-20T09:51:51Z</time>
      </trkpt>
      <trkpt lat="42.429735200" lon="-2.555159400">
        <ele>477.40</ele>
        <time>2012-10-20T09:51:53Z</time>
      </trkpt>
      <trkpt lat="42.429726400" lon="-2.555207500">
        <ele>478.00</ele>
        <time>2012-10-20T09:51:53Z</time>
      </trkpt>
      <trkpt lat="42.429718800" lon="-2.555253400">
        <ele>478.40</ele>
        <time>2012-10-20T09:51:55Z</time>
      </trkpt>
      <trkpt lat="42.429713500" lon="-2.555296000">
        <ele>479.00</ele>
        <time>2012-10-20T09:51:55Z</time>
      </trkpt>
      <trkpt lat="42.429707700" lon="-2.555342400">
        <ele>479.40</ele>
        <time>2012-10-20T09:51:56Z</time>
      </trkpt>
      <trkpt lat="42.429703400" lon="-2.555386900">
        <ele>479.40</ele>
        <time>2012-10-20T09:51:58Z</time>
      </trkpt>
      <trkpt lat="42.429678700" lon="-2.555570900">
        <ele>479.40</ele>
        <time>2012-10-20T09:52:02Z</time>
      </trkpt>
      <trkpt lat="42.429674600" lon="-2.555664100">
        <ele>479.40</ele>
        <time>2012-10-20T09:52:03Z</time>
      </trkpt>
      <trkpt lat="42.429664700" lon="-2.555765200">
        <ele>479.80</ele>
        <time>2012-10-20T09:52:05Z</time>
      </trkpt>
      <trkpt lat="42.429659900" lon="-2.555817400">
        <ele>480.40</ele>
        <time>2012-10-20T09:52:07Z</time>
      </trkpt>
      <trkpt lat="42.429658300" lon="-2.555869800">
        <ele>480.80</ele>
        <time>2012-10-20T09:52:07Z</time>
      </trkpt>
      <trkpt lat="42.429650700" lon="-2.555971700">
        <ele>481.60</ele>
        <time>2012-10-20T09:52:10Z</time>
      </trkpt>
      <trkpt lat="42.429645100" lon="-2.556022600">
        <ele>481.60</ele>
        <time>2012-10-20T09:52:10Z</time>
      </trkpt>
      <trkpt lat="42.429617800" lon="-2.556213800">
        <ele>482.00</ele>
        <time>2012-10-20T09:52:14Z</time>
      </trkpt>
      <trkpt lat="42.429598300" lon="-2.556256300">
        <ele>482.40</ele>
        <time>2012-10-20T09:52:16Z</time>
      </trkpt>
      <trkpt lat="42.429581600" lon="-2.556302400">
        <ele>482.80</ele>
        <time>2012-10-20T09:52:17Z</time>
      </trkpt>
      <trkpt lat="42.429568300" lon="-2.556348900">
        <ele>483.20</ele>
        <time>2012-10-20T09:52:17Z</time>
      </trkpt>
      <trkpt lat="42.429560400" lon="-2.556401000">
        <ele>483.60</ele>
        <time>2012-10-20T09:52:19Z</time>
      </trkpt>
      <trkpt lat="42.429568900" lon="-2.556441200">
        <ele>483.60</ele>
        <time>2012-10-20T09:52:19Z</time>
      </trkpt>
      <trkpt lat="42.429575700" lon="-2.556587300">
        <ele>484.00</ele>
        <time>2012-10-20T09:52:23Z</time>
      </trkpt>
      <trkpt lat="42.429574200" lon="-2.556629700">
        <ele>484.40</ele>
        <time>2012-10-20T09:52:24Z</time>
      </trkpt>
      <trkpt lat="42.429574500" lon="-2.556668500">
        <ele>484.80</ele>
        <time>2012-10-20T09:52:24Z</time>
      </trkpt>
      <trkpt lat="42.429576800" lon="-2.556703900">
        <ele>485.40</ele>
        <time>2012-10-20T09:52:26Z</time>
      </trkpt>
      <trkpt lat="42.429580600" lon="-2.556736300">
        <ele>485.80</ele>
        <time>2012-10-20T09:52:26Z</time>
      </trkpt>
      <trkpt lat="42.429580500" lon="-2.556789400">
        <ele>485.80</ele>
        <time>2012-10-20T09:52:28Z</time>
      </trkpt>
      <trkpt lat="42.429528000" lon="-2.556880400">
        <ele>485.80</ele>
        <time>2012-10-20T09:52:31Z</time>
      </trkpt>
      <trkpt lat="42.429399000" lon="-2.556973300">
        <ele>485.80</ele>
        <time>2012-10-20T09:52:36Z</time>
      </trkpt>
      <trkpt lat="42.429373200" lon="-2.556990300">
        <ele>486.20</ele>
        <time>2012-10-20T09:52:38Z</time>
      </trkpt>
      <trkpt lat="42.429346500" lon="-2.557010700">
        <ele>486.80</ele>
        <time>2012-10-20T09:52:38Z</time>
      </trkpt>
      <trkpt lat="42.429322700" lon="-2.557033000">
        <ele>487.40</ele>
        <time>2012-10-20T09:52:40Z</time>
      </trkpt>
      <trkpt lat="42.429294000" lon="-2.557057100">
        <ele>487.80</ele>
        <time>2012-10-20T09:52:40Z</time>
      </trkpt>
      <trkpt lat="42.429278300" lon="-2.557076300">
        <ele>488.40</ele>
        <time>2012-10-20T09:52:42Z</time>
      </trkpt>
      <trkpt lat="42.429238900" lon="-2.557103300">
        <ele>488.40</ele>
        <time>2012-10-20T09:52:43Z</time>
      </trkpt>
      <trkpt lat="42.429207300" lon="-2.557197800">
        <ele>488.40</ele>
        <time>2012-10-20T09:52:47Z</time>
      </trkpt>
      <trkpt lat="42.429166900" lon="-2.557353400">
        <ele>488.80</ele>
        <time>2012-10-20T09:52:50Z</time>
      </trkpt>
      <trkpt lat="42.429159000" lon="-2.557395500">
        <ele>489.40</ele>
        <time>2012-10-20T09:52:52Z</time>
      </trkpt>
      <trkpt lat="42.429159900" lon="-2.557435800">
        <ele>489.80</ele>
        <time>2012-10-20T09:52:52Z</time>
      </trkpt>
      <trkpt lat="42.429158300" lon="-2.557475500">
        <ele>490.20</ele>
        <time>2012-10-20T09:52:54Z</time>
      </trkpt>
      <trkpt lat="42.429157100" lon="-2.557523800">
        <ele>490.60</ele>
        <time>2012-10-20T09:52:54Z</time>
      </trkpt>
      <trkpt lat="42.429150100" lon="-2.557698200">
        <ele>490.60</ele>
        <time>2012-10-20T09:52:59Z</time>
      </trkpt>
      <trkpt lat="42.429149800" lon="-2.557820000">
        <ele>491.20</ele>
        <time>2012-10-20T09:53:01Z</time>
      </trkpt>
      <trkpt lat="42.429144700" lon="-2.557857200">
        <ele>491.60</ele>
        <time>2012-10-20T09:53:03Z</time>
      </trkpt>
      <trkpt lat="42.429139200" lon="-2.557891400">
        <ele>492.00</ele>
        <time>2012-10-20T09:53:04Z</time>
      </trkpt>
      <trkpt lat="42.429136200" lon="-2.557930500">
        <ele>492.40</ele>
        <time>2012-10-20T09:53:04Z</time>
      </trkpt>
      <trkpt lat="42.429128700" lon="-2.557976700">
        <ele>493.00</ele>
        <time>2012-10-20T09:53:06Z</time>
      </trkpt>
      <trkpt lat="42.429104000" lon="-2.558139900">
        <ele>493.00</ele>
        <time>2012-10-20T09:53:10Z</time>
      </trkpt>
      <trkpt lat="42.429071400" lon="-2.558305400">
        <ele>493.40</ele>
        <time>2012-10-20T09:53:13Z</time>
      </trkpt>
      <trkpt lat="42.429060700" lon="-2.558350600">
        <ele>493.80</ele>
        <time>2012-10-20T09:53:15Z</time>
      </trkpt>
      <trkpt lat="42.429051100" lon="-2.558392000">
        <ele>494.20</ele>
        <time>2012-10-20T09:53:15Z</time>
      </trkpt>
      <trkpt lat="42.429041700" lon="-2.558440300">
        <ele>494.60</ele>
        <time>2012-10-20T09:53:17Z</time>
      </trkpt>
      <trkpt lat="42.429038000" lon="-2.558487800">
        <ele>495.00</ele>
        <time>2012-10-20T09:53:18Z</time>
      </trkpt>
      <trkpt lat="42.429031700" lon="-2.558802700">
        <ele>495.00</ele>
        <time>2012-10-20T09:53:25Z</time>
      </trkpt>
      <trkpt lat="42.429093100" lon="-2.558876900">
        <ele>495.00</ele>
        <time>2012-10-20T09:53:29Z</time>
      </trkpt>
      <trkpt lat="42.429096000" lon="-2.558944200">
        <ele>495.40</ele>
        <time>2012-10-20T09:53:30Z</time>
      </trkpt>
      <trkpt lat="42.429091400" lon="-2.558971600">
        <ele>496.00</ele>
        <time>2012-10-20T09:53:32Z</time>
      </trkpt>
      <trkpt lat="42.429075600" lon="-2.558997300">
        <ele>496.40</ele>
        <time>2012-10-20T09:53:32Z</time>
      </trkpt>
      <trkpt lat="42.429066500" lon="-2.559025300">
        <ele>496.80</ele>
        <time>2012-10-20T09:53:34Z</time>
      </trkpt>
      <trkpt lat="42.429083400" lon="-2.559080400">
        <ele>497.20</ele>
        <time>2012-10-20T09:53:34Z</time>
      </trkpt>
      <trkpt lat="42.429097500" lon="-2.559120700">
        <ele>497.20</ele>
        <time>2012-10-20T09:53:36Z</time>
      </trkpt>
      <trkpt lat="42.429108500" lon="-2.559333500">
        <ele>497.20</ele>
        <time>2012-10-20T09:53:41Z</time>
      </trkpt>
      <trkpt lat="42.429172200" lon="-2.559437300">
        <ele>497.20</ele>
        <time>2012-10-20T09:53:43Z</time>
      </trkpt>
      <trkpt lat="42.429175500" lon="-2.559580700">
        <ele>497.20</ele>
        <time>2012-10-20T09:53:44Z</time>
      </trkpt>
      <trkpt lat="42.429169900" lon="-2.559683500">
        <ele>497.20</ele>
        <time>2012-10-20T09:53:46Z</time>
      </trkpt>
      <trkpt lat="42.429168700" lon="-2.559754200">
        <ele>497.60</ele>
        <time>2012-10-20T09:53:48Z</time>
      </trkpt>
      <trkpt lat="42.429155200" lon="-2.559799700">
        <ele>498.20</ele>
        <time>2012-10-20T09:53:48Z</time>
      </trkpt>
      <trkpt lat="42.429130600" lon="-2.559833900">
        <ele>498.60</ele>
        <time>2012-10-20T09:53:50Z</time>
      </trkpt>
      <trkpt lat="42.429117200" lon="-2.559875000">
        <ele>499.00</ele>
        <time>2012-10-20T09:53:50Z</time>
      </trkpt>
      <trkpt lat="42.429121600" lon="-2.559903100">
        <ele>499.40</ele>
        <time>2012-10-20T09:53:51Z</time>
      </trkpt>
      <trkpt lat="42.429090600" lon="-2.559938300">
        <ele>499.40</ele>
        <time>2012-10-20T09:53:53Z</time>
      </trkpt>
      <trkpt lat="42.429031200" lon="-2.560059700">
        <ele>499.40</ele>
        <time>2012-10-20T09:53:55Z</time>
      </trkpt>
      <trkpt lat="42.428995100" lon="-2.560160700">
        <ele>499.40</ele>
        <time>2012-10-20T09:53:58Z</time>
      </trkpt>
      <trkpt lat="42.428915200" lon="-2.560370600">
        <ele>499.40</ele>
        <time>2012-10-20T09:54:02Z</time>
      </trkpt>
      <trkpt lat="42.428873400" lon="-2.560453400">
        <ele>499.80</ele>
        <time>2012-10-20T09:54:05Z</time>
      </trkpt>
      <trkpt lat="42.428852000" lon="-2.560501500">
        <ele>500.20</ele>
        <time>2012-10-20T09:54:05Z</time>
      </trkpt>
      <trkpt lat="42.428838400" lon="-2.560547800">
        <ele>500.60</ele>
        <time>2012-10-20T09:54:07Z</time>
      </trkpt>
      <trkpt lat="42.428842900" lon="-2.560606300">
        <ele>501.00</ele>
        <time>2012-10-20T09:54:07Z</time>
      </trkpt>
      <trkpt lat="42.428857100" lon="-2.560663200">
        <ele>501.40</ele>
        <time>2012-10-20T09:54:09Z</time>
      </trkpt>
      <trkpt lat="42.428898300" lon="-2.560885800">
        <ele>501.40</ele>
        <time>2012-10-20T09:54:12Z</time>
      </trkpt>
      <trkpt lat="42.428981800" lon="-2.561161600">
        <ele>501.40</ele>
        <time>2012-10-20T09:54:18Z</time>
      </trkpt>
      <trkpt lat="42.428994200" lon="-2.561270100">
        <ele>501.80</ele>
        <time>2012-10-20T09:54:19Z</time>
      </trkpt>
      <trkpt lat="42.428992600" lon="-2.561311900">
        <ele>502.20</ele>
        <time>2012-10-20T09:54:21Z</time>
      </trkpt>
      <trkpt lat="42.428994000" lon="-2.561348400">
        <ele>502.60</ele>
        <time>2012-10-20T09:54:21Z</time>
      </trkpt>
      <trkpt lat="42.428992900" lon="-2.561374300">
        <ele>503.20</ele>
        <time>2012-10-20T09:54:23Z</time>
      </trkpt>
      <trkpt lat="42.428997100" lon="-2.561399100">
        <ele>503.60</ele>
        <time>2012-10-20T09:54:23Z</time>
      </trkpt>
      <trkpt lat="42.429069100" lon="-2.561479100">
        <ele>503.60</ele>
        <time>2012-10-20T09:54:26Z</time>
      </trkpt>
      <trkpt lat="42.429088700" lon="-2.561509400">
        <ele>503.60</ele>
        <time>2012-10-20T09:54:28Z</time>
      </trkpt>
      <trkpt lat="42.429148000" lon="-2.561658000">
        <ele>503.60</ele>
        <time>2012-10-20T09:54:30Z</time>
      </trkpt>
      <trkpt lat="42.429168000" lon="-2.561855700">
        <ele>503.60</ele>
        <time>2012-10-20T09:54:33Z</time>
      </trkpt>
      <trkpt lat="42.429176000" lon="-2.561920800">
        <ele>504.00</ele>
        <time>2012-10-20T09:54:35Z</time>
      </trkpt>
      <trkpt lat="42.429184000" lon="-2.561975600">
        <ele>504.40</ele>
        <time>2012-10-20T09:54:35Z</time>
      </trkpt>
      <trkpt lat="42.429190800" lon="-2.562033800">
        <ele>504.80</ele>
        <time>2012-10-20T09:54:37Z</time>
      </trkpt>
      <trkpt lat="42.429201100" lon="-2.562100300">
        <ele>505.20</ele>
        <time>2012-10-20T09:54:37Z</time>
      </trkpt>
      <trkpt lat="42.429208200" lon="-2.562163900">
        <ele>505.60</ele>
        <time>2012-10-20T09:54:38Z</time>
      </trkpt>
      <trkpt lat="42.429222900" lon="-2.562225600">
        <ele>505.60</ele>
        <time>2012-10-20T09:54:40Z</time>
      </trkpt>
      <trkpt lat="42.429276600" lon="-2.562329000">
        <ele>505.60</ele>
        <time>2012-10-20T09:54:42Z</time>
      </trkpt>
      <trkpt lat="42.429336800" lon="-2.562406300">
        <ele>505.60</ele>
        <time>2012-10-20T09:54:44Z</time>
      </trkpt>
      <trkpt lat="42.429415900" lon="-2.562536400">
        <ele>505.60</ele>
        <time>2012-10-20T09:54:47Z</time>
      </trkpt>
      <trkpt lat="42.429548200" lon="-2.562739100">
        <ele>505.60</ele>
        <time>2012-10-20T09:54:52Z</time>
      </trkpt>
      <trkpt lat="42.429626400" lon="-2.562936500">
        <ele>505.60</ele>
        <time>2012-10-20T09:54:56Z</time>
      </trkpt>
      <trkpt lat="42.429643700" lon="-2.562985500">
        <ele>505.60</ele>
        <time>2012-10-20T09:54:56Z</time>
      </trkpt>
      <trkpt lat="42.429654500" lon="-2.563040400">
        <ele>505.60</ele>
        <time>2012-10-20T09:54:58Z</time>
      </trkpt>
      <trkpt lat="42.429661100" lon="-2.563200700">
        <ele>505.60</ele>
        <time>2012-10-20T09:55:01Z</time>
      </trkpt>
      <trkpt lat="42.429733700" lon="-2.563313600">
        <ele>505.60</ele>
        <time>2012-10-20T09:55:03Z</time>
      </trkpt>
      <trkpt lat="42.429760900" lon="-2.563346200">
        <ele>505.60</ele>
        <time>2012-10-20T09:55:05Z</time>
      </trkpt>
      <trkpt lat="42.429870400" lon="-2.563543000">
        <ele>505.60</ele>
        <time>2012-10-20T09:55:08Z</time>
      </trkpt>
      <trkpt lat="42.430083300" lon="-2.563720800">
        <ele>505.60</ele>
        <time>2012-10-20T09:55:13Z</time>
      </trkpt>
      <trkpt lat="42.430127300" lon="-2.563751300">
        <ele>505.60</ele>
        <time>2012-10-20T09:55:15Z</time>
      </trkpt>
      <trkpt lat="42.430248000" lon="-2.563842300">
        <ele>505.60</ele>
        <time>2012-10-20T09:55:17Z</time>
      </trkpt>
      <trkpt lat="42.430275800" lon="-2.563981900">
        <ele>505.60</ele>
        <time>2012-10-20T09:55:20Z</time>
      </trkpt>
      <trkpt lat="42.430283800" lon="-2.564234900">
        <ele>505.60</ele>
        <time>2012-10-20T09:55:22Z</time>
      </trkpt>
      <trkpt lat="42.430411400" lon="-2.564390800">
        <ele>505.60</ele>
        <time>2012-10-20T09:55:27Z</time>
      </trkpt>
      <trkpt lat="42.430458300" lon="-2.564402800">
        <ele>505.60</ele>
        <time>2012-10-20T09:55:27Z</time>
      </trkpt>
      <trkpt lat="42.430548600" lon="-2.564433900">
        <ele>505.60</ele>
        <time>2012-10-20T09:55:29Z</time>
      </trkpt>
      <trkpt lat="42.430640600" lon="-2.564473800">
        <ele>505.60</ele>
        <time>2012-10-20T09:55:32Z</time>
      </trkpt>
      <trkpt lat="42.430660400" lon="-2.564493800">
        <ele>505.60</ele>
        <time>2012-10-20T09:55:34Z</time>
      </trkpt>
      <trkpt lat="42.430674400" lon="-2.564521800">
        <ele>505.60</ele>
        <time>2012-10-20T09:55:34Z</time>
      </trkpt>
      <trkpt lat="42.430664200" lon="-2.564671700">
        <ele>505.60</ele>
        <time>2012-10-20T09:55:38Z</time>
      </trkpt>
      <trkpt lat="42.430584700" lon="-2.564976500">
        <ele>505.60</ele>
        <time>2012-10-20T09:55:41Z</time>
      </trkpt>
      <trkpt lat="42.430532400" lon="-2.565356000">
        <ele>505.60</ele>
        <time>2012-10-20T09:55:46Z</time>
      </trkpt>
      <trkpt lat="42.430558400" lon="-2.565532200">
        <ele>505.60</ele>
        <time>2012-10-20T09:55:48Z</time>
      </trkpt>
      <trkpt lat="42.430555700" lon="-2.565684000">
        <ele>505.60</ele>
        <time>2012-10-20T09:55:50Z</time>
      </trkpt>
      <trkpt lat="42.430537800" lon="-2.565773600">
        <ele>505.60</ele>
        <time>2012-10-20T09:55:52Z</time>
      </trkpt>
      <trkpt lat="42.430500300" lon="-2.565938700">
        <ele>505.60</ele>
        <time>2012-10-20T09:55:53Z</time>
      </trkpt>
      <trkpt lat="42.430443700" lon="-2.566158600">
        <ele>505.60</ele>
        <time>2012-10-20T09:55:57Z</time>
      </trkpt>
      <trkpt lat="42.430417700" lon="-2.566312500">
        <ele>505.60</ele>
        <time>2012-10-20T09:55:59Z</time>
      </trkpt>
      <trkpt lat="42.430383400" lon="-2.566656100">
        <ele>505.60</ele>
        <time>2012-10-20T09:56:04Z</time>
      </trkpt>
      <trkpt lat="42.430318700" lon="-2.566995600">
        <ele>505.60</ele>
        <time>2012-10-20T09:56:09Z</time>
      </trkpt>
      <trkpt lat="42.430298900" lon="-2.567123800">
        <ele>505.60</ele>
        <time>2012-10-20T09:56:11Z</time>
      </trkpt>
      <trkpt lat="42.430290300" lon="-2.567316800">
        <ele>505.60</ele>
        <time>2012-10-20T09:56:14Z</time>
      </trkpt>
      <trkpt lat="42.430279800" lon="-2.567367900">
        <ele>505.60</ele>
        <time>2012-10-20T09:56:14Z</time>
      </trkpt>
      <trkpt lat="42.430274900" lon="-2.567535900">
        <ele>505.60</ele>
        <time>2012-10-20T09:56:18Z</time>
      </trkpt>
      <trkpt lat="42.430271000" lon="-2.567783700">
        <ele>505.60</ele>
        <time>2012-10-20T09:56:21Z</time>
      </trkpt>
      <trkpt lat="42.430253100" lon="-2.567986400">
        <ele>505.60</ele>
        <time>2012-10-20T09:56:25Z</time>
      </trkpt>
      <trkpt lat="42.430220900" lon="-2.568038700">
        <ele>505.60</ele>
        <time>2012-10-20T09:56:26Z</time>
      </trkpt>
      <trkpt lat="42.430183900" lon="-2.568094400">
        <ele>505.60</ele>
        <time>2012-10-20T09:56:28Z</time>
      </trkpt>
      <trkpt lat="42.430024800" lon="-2.568461100">
        <ele>505.60</ele>
        <time>2012-10-20T09:56:33Z</time>
      </trkpt>
      <trkpt lat="42.429976000" lon="-2.568559800">
        <ele>505.60</ele>
        <time>2012-10-20T09:56:35Z</time>
      </trkpt>
      <trkpt lat="42.429837900" lon="-2.568905300">
        <ele>505.60</ele>
        <time>2012-10-20T09:56:42Z</time>
      </trkpt>
      <trkpt lat="42.429750400" lon="-2.569061100">
        <ele>505.60</ele>
        <time>2012-10-20T09:56:44Z</time>
      </trkpt>
      <trkpt lat="42.429722000" lon="-2.569113100">
        <ele>506.00</ele>
        <time>2012-10-20T09:56:46Z</time>
      </trkpt>
      <trkpt lat="42.429695200" lon="-2.569167100">
        <ele>506.40</ele>
        <time>2012-10-20T09:56:47Z</time>
      </trkpt>
      <trkpt lat="42.429674100" lon="-2.569219200">
        <ele>506.80</ele>
        <time>2012-10-20T09:56:47Z</time>
      </trkpt>
      <trkpt lat="42.429643900" lon="-2.569269600">
        <ele>507.20</ele>
        <time>2012-10-20T09:56:49Z</time>
      </trkpt>
      <trkpt lat="42.429624800" lon="-2.569326000">
        <ele>507.60</ele>
        <time>2012-10-20T09:56:49Z</time>
      </trkpt>
      <trkpt lat="42.429597900" lon="-2.569376100">
        <ele>507.60</ele>
        <time>2012-10-20T09:56:51Z</time>
      </trkpt>
      <trkpt lat="42.429577800" lon="-2.569435400">
        <ele>507.60</ele>
        <time>2012-10-20T09:56:51Z</time>
      </trkpt>
      <trkpt lat="42.429486700" lon="-2.569591100">
        <ele>507.60</ele>
        <time>2012-10-20T09:56:54Z</time>
      </trkpt>
      <trkpt lat="42.429468000" lon="-2.569649200">
        <ele>507.60</ele>
        <time>2012-10-20T09:56:56Z</time>
      </trkpt>
      <trkpt lat="42.429210100" lon="-2.570221200">
        <ele>507.60</ele>
        <time>2012-10-20T09:57:05Z</time>
      </trkpt>
      <trkpt lat="42.429181100" lon="-2.570274700">
        <ele>507.60</ele>
        <time>2012-10-20T09:57:06Z</time>
      </trkpt>
      <trkpt lat="42.429055100" lon="-2.570546200">
        <ele>507.60</ele>
        <time>2012-10-20T09:57:12Z</time>
      </trkpt>
      <trkpt lat="42.428859800" lon="-2.570977600">
        <ele>507.60</ele>
        <time>2012-10-20T09:57:19Z</time>
      </trkpt>
      <trkpt lat="42.428820600" lon="-2.571088300">
        <ele>507.60</ele>
        <time>2012-10-20T09:57:22Z</time>
      </trkpt>
      <trkpt lat="42.428767900" lon="-2.571196200">
        <ele>508.00</ele>
        <time>2012-10-20T09:57:24Z</time>
      </trkpt>
      <trkpt lat="42.428742900" lon="-2.571246500">
        <ele>508.40</ele>
        <time>2012-10-20T09:57:24Z</time>
      </trkpt>
      <trkpt lat="42.428716800" lon="-2.571297800">
        <ele>508.80</ele>
        <time>2012-10-20T09:57:26Z</time>
      </trkpt>
      <trkpt lat="42.428687500" lon="-2.571353200">
        <ele>509.20</ele>
        <time>2012-10-20T09:57:26Z</time>
      </trkpt>
      <trkpt lat="42.428661300" lon="-2.571404900">
        <ele>509.60</ele>
        <time>2012-10-20T09:57:27Z</time>
      </trkpt>
      <trkpt lat="42.428538700" lon="-2.571681500">
        <ele>509.60</ele>
        <time>2012-10-20T09:57:33Z</time>
      </trkpt>
      <trkpt lat="42.428338200" lon="-2.572052000">
        <ele>509.60</ele>
        <time>2012-10-20T09:57:40Z</time>
      </trkpt>
      <trkpt lat="42.428106100" lon="-2.572486700">
        <ele>509.60</ele>
        <time>2012-10-20T09:57:48Z</time>
      </trkpt>
      <trkpt lat="42.427930500" lon="-2.572857400">
        <ele>509.60</ele>
        <time>2012-10-20T09:57:55Z</time>
      </trkpt>
      <trkpt lat="42.427813300" lon="-2.573113600">
        <ele>509.60</ele>
        <time>2012-10-20T09:57:59Z</time>
      </trkpt>
      <trkpt lat="42.427788000" lon="-2.573167900">
        <ele>510.00</ele>
        <time>2012-10-20T09:58:00Z</time>
      </trkpt>
      <trkpt lat="42.427759700" lon="-2.573221600">
        <ele>510.40</ele>
        <time>2012-10-20T09:58:02Z</time>
      </trkpt>
      <trkpt lat="42.427732000" lon="-2.573272000">
        <ele>510.80</ele>
        <time>2012-10-20T09:58:02Z</time>
      </trkpt>
      <trkpt lat="42.427709100" lon="-2.573323900">
        <ele>511.20</ele>
        <time>2012-10-20T09:58:04Z</time>
      </trkpt>
      <trkpt lat="42.427683000" lon="-2.573375500">
        <ele>511.60</ele>
        <time>2012-10-20T09:58:04Z</time>
      </trkpt>
      <trkpt lat="42.427606100" lon="-2.573524900">
        <ele>511.60</ele>
        <time>2012-10-20T09:58:07Z</time>
      </trkpt>
      <trkpt lat="42.427423500" lon="-2.573793500">
        <ele>511.60</ele>
        <time>2012-10-20T09:58:13Z</time>
      </trkpt>
      <trkpt lat="42.427388200" lon="-2.573828800">
        <ele>511.60</ele>
        <time>2012-10-20T09:58:14Z</time>
      </trkpt>
      <trkpt lat="42.427318100" lon="-2.573907500">
        <ele>511.60</ele>
        <time>2012-10-20T09:58:16Z</time>
      </trkpt>
      <trkpt lat="42.427259800" lon="-2.574001500">
        <ele>511.60</ele>
        <time>2012-10-20T09:58:18Z</time>
      </trkpt>
      <trkpt lat="42.427212600" lon="-2.574102300">
        <ele>512.00</ele>
        <time>2012-10-20T09:58:21Z</time>
      </trkpt>
      <trkpt lat="42.427192400" lon="-2.574150800">
        <ele>512.40</ele>
        <time>2012-10-20T09:58:21Z</time>
      </trkpt>
      <trkpt lat="42.427170800" lon="-2.574202700">
        <ele>512.80</ele>
        <time>2012-10-20T09:58:23Z</time>
      </trkpt>
      <trkpt lat="42.427145100" lon="-2.574246700">
        <ele>513.20</ele>
        <time>2012-10-20T09:58:23Z</time>
      </trkpt>
      <trkpt lat="42.427124100" lon="-2.574294000">
        <ele>513.60</ele>
        <time>2012-10-20T09:58:25Z</time>
      </trkpt>
      <trkpt lat="42.427101400" lon="-2.574339600">
        <ele>513.60</ele>
        <time>2012-10-20T09:58:25Z</time>
      </trkpt>
      <trkpt lat="42.426971500" lon="-2.574629500">
        <ele>513.60</ele>
        <time>2012-10-20T09:58:32Z</time>
      </trkpt>
      <trkpt lat="42.426949900" lon="-2.574674600">
        <ele>513.60</ele>
        <time>2012-10-20T09:58:32Z</time>
      </trkpt>
      <trkpt lat="42.426922600" lon="-2.574713800">
        <ele>513.60</ele>
        <time>2012-10-20T09:58:34Z</time>
      </trkpt>
      <trkpt lat="42.426840700" lon="-2.574888800">
        <ele>513.60</ele>
        <time>2012-10-20T09:58:37Z</time>
      </trkpt>
      <trkpt lat="42.426821400" lon="-2.574933000">
        <ele>513.60</ele>
        <time>2012-10-20T09:58:39Z</time>
      </trkpt>
      <trkpt lat="42.426745300" lon="-2.575129800">
        <ele>514.20</ele>
        <time>2012-10-20T09:58:42Z</time>
      </trkpt>
      <trkpt lat="42.426725100" lon="-2.575173800">
        <ele>514.60</ele>
        <time>2012-10-20T09:58:44Z</time>
      </trkpt>
      <trkpt lat="42.426704700" lon="-2.575223900">
        <ele>515.00</ele>
        <time>2012-10-20T09:58:44Z</time>
      </trkpt>
      <trkpt lat="42.426684100" lon="-2.575270100">
        <ele>515.40</ele>
        <time>2012-10-20T09:58:46Z</time>
      </trkpt>
      <trkpt lat="42.426663900" lon="-2.575313400">
        <ele>515.80</ele>
        <time>2012-10-20T09:58:46Z</time>
      </trkpt>
      <trkpt lat="42.426556600" lon="-2.575519500">
        <ele>515.80</ele>
        <time>2012-10-20T09:58:51Z</time>
      </trkpt>
      <trkpt lat="42.426544200" lon="-2.575563300">
        <ele>515.80</ele>
        <time>2012-10-20T09:58:53Z</time>
      </trkpt>
      <trkpt lat="42.426469300" lon="-2.575743800">
        <ele>515.80</ele>
        <time>2012-10-20T09:58:56Z</time>
      </trkpt>
      <trkpt lat="42.426344000" lon="-2.576056200">
        <ele>516.20</ele>
        <time>2012-10-20T09:59:03Z</time>
      </trkpt>
      <trkpt lat="42.426322500" lon="-2.576104100">
        <ele>516.80</ele>
        <time>2012-10-20T09:59:05Z</time>
      </trkpt>
      <trkpt lat="42.426304400" lon="-2.576147000">
        <ele>517.20</ele>
        <time>2012-10-20T09:59:05Z</time>
      </trkpt>
      <trkpt lat="42.426283400" lon="-2.576193900">
        <ele>517.60</ele>
        <time>2012-10-20T09:59:07Z</time>
      </trkpt>
      <trkpt lat="42.426270600" lon="-2.576234500">
        <ele>518.00</ele>
        <time>2012-10-20T09:59:07Z</time>
      </trkpt>
      <trkpt lat="42.426230900" lon="-2.576325700">
        <ele>518.00</ele>
        <time>2012-10-20T09:59:10Z</time>
      </trkpt>
      <trkpt lat="42.426207500" lon="-2.576363400">
        <ele>518.00</ele>
        <time>2012-10-20T09:59:10Z</time>
      </trkpt>
      <trkpt lat="42.426125600" lon="-2.576544200">
        <ele>518.00</ele>
        <time>2012-10-20T09:59:14Z</time>
      </trkpt>
      <trkpt lat="42.425978300" lon="-2.576860600">
        <ele>518.00</ele>
        <time>2012-10-20T09:59:22Z</time>
      </trkpt>
      <trkpt lat="42.425954200" lon="-2.576901000">
        <ele>518.00</ele>
        <time>2012-10-20T09:59:22Z</time>
      </trkpt>
      <trkpt lat="42.425930500" lon="-2.576948200">
        <ele>518.40</ele>
        <time>2012-10-20T09:59:24Z</time>
      </trkpt>
      <trkpt lat="42.425905200" lon="-2.576987500">
        <ele>518.80</ele>
        <time>2012-10-20T09:59:24Z</time>
      </trkpt>
      <trkpt lat="42.425878600" lon="-2.577029300">
        <ele>519.20</ele>
        <time>2012-10-20T09:59:26Z</time>
      </trkpt>
      <trkpt lat="42.425854600" lon="-2.577061500">
        <ele>519.60</ele>
        <time>2012-10-20T09:59:26Z</time>
      </trkpt>
      <trkpt lat="42.425817200" lon="-2.577087200">
        <ele>520.00</ele>
        <time>2012-10-20T09:59:28Z</time>
      </trkpt>
      <trkpt lat="42.425717100" lon="-2.577179200">
        <ele>520.00</ele>
        <time>2012-10-20T09:59:31Z</time>
      </trkpt>
      <trkpt lat="42.425639800" lon="-2.577298300">
        <ele>520.00</ele>
        <time>2012-10-20T09:59:33Z</time>
      </trkpt>
      <trkpt lat="42.425562800" lon="-2.577424200">
        <ele>520.00</ele>
        <time>2012-10-20T09:59:36Z</time>
      </trkpt>
      <trkpt lat="42.425506300" lon="-2.577493300">
        <ele>520.00</ele>
        <time>2012-10-20T09:59:38Z</time>
      </trkpt>
      <trkpt lat="42.425422400" lon="-2.577585400">
        <ele>520.60</ele>
        <time>2012-10-20T09:59:41Z</time>
      </trkpt>
      <trkpt lat="42.425394000" lon="-2.577609800">
        <ele>521.00</ele>
        <time>2012-10-20T09:59:43Z</time>
      </trkpt>
      <trkpt lat="42.425335700" lon="-2.577665400">
        <ele>521.80</ele>
        <time>2012-10-20T09:59:45Z</time>
      </trkpt>
      <trkpt lat="42.425305000" lon="-2.577691200">
        <ele>522.40</ele>
        <time>2012-10-20T09:59:45Z</time>
      </trkpt>
      <trkpt lat="42.425117600" lon="-2.577855600">
        <ele>522.40</ele>
        <time>2012-10-20T09:59:52Z</time>
      </trkpt>
      <trkpt lat="42.424993700" lon="-2.577962100">
        <ele>522.80</ele>
        <time>2012-10-20T09:59:55Z</time>
      </trkpt>
      <trkpt lat="42.424965000" lon="-2.577988800">
        <ele>523.20</ele>
        <time>2012-10-20T09:59:57Z</time>
      </trkpt>
      <trkpt lat="42.424933000" lon="-2.578014900">
        <ele>523.60</ele>
        <time>2012-10-20T09:59:57Z</time>
      </trkpt>
      <trkpt lat="42.424905300" lon="-2.578043800">
        <ele>524.00</ele>
        <time>2012-10-20T09:59:59Z</time>
      </trkpt>
      <trkpt lat="42.424879900" lon="-2.578074200">
        <ele>524.40</ele>
        <time>2012-10-20T09:59:59Z</time>
      </trkpt>
      <trkpt lat="42.424759800" lon="-2.578235100">
        <ele>524.40</ele>
        <time>2012-10-20T10:00:04Z</time>
      </trkpt>
      <trkpt lat="42.424552800" lon="-2.578399800">
        <ele>525.00</ele>
        <time>2012-10-20T10:00:11Z</time>
      </trkpt>
      <trkpt lat="42.424522600" lon="-2.578414400">
        <ele>525.40</ele>
        <time>2012-10-20T10:00:13Z</time>
      </trkpt>
      <trkpt lat="42.424489400" lon="-2.578426200">
        <ele>525.80</ele>
        <time>2012-10-20T10:00:13Z</time>
      </trkpt>
      <trkpt lat="42.424459700" lon="-2.578444700">
        <ele>526.20</ele>
        <time>2012-10-20T10:00:15Z</time>
      </trkpt>
      <trkpt lat="42.424427200" lon="-2.578459600">
        <ele>526.60</ele>
        <time>2012-10-20T10:00:16Z</time>
      </trkpt>
      <trkpt lat="42.424364300" lon="-2.578496000">
        <ele>526.60</ele>
        <time>2012-10-20T10:00:18Z</time>
      </trkpt>
      <trkpt lat="42.424153800" lon="-2.578640200">
        <ele>526.60</ele>
        <time>2012-10-20T10:00:25Z</time>
      </trkpt>
      <trkpt lat="42.424012500" lon="-2.578729800">
        <ele>527.20</ele>
        <time>2012-10-20T10:00:30Z</time>
      </trkpt>
      <trkpt lat="42.423951100" lon="-2.578768600">
        <ele>528.00</ele>
        <time>2012-10-20T10:00:32Z</time>
      </trkpt>
      <trkpt lat="42.423925200" lon="-2.578790200">
        <ele>528.40</ele>
        <time>2012-10-20T10:00:32Z</time>
      </trkpt>
      <trkpt lat="42.423892500" lon="-2.578808700">
        <ele>528.80</ele>
        <time>2012-10-20T10:00:34Z</time>
      </trkpt>
      <trkpt lat="42.423770500" lon="-2.578890900">
        <ele>528.80</ele>
        <time>2012-10-20T10:00:37Z</time>
      </trkpt>
      <trkpt lat="42.423544300" lon="-2.579038000">
        <ele>528.80</ele>
        <time>2012-10-20T10:00:44Z</time>
      </trkpt>
      <trkpt lat="42.423486000" lon="-2.579069700">
        <ele>529.20</ele>
        <time>2012-10-20T10:00:46Z</time>
      </trkpt>
      <trkpt lat="42.423463200" lon="-2.579083900">
        <ele>529.60</ele>
        <time>2012-10-20T10:00:48Z</time>
      </trkpt>
      <trkpt lat="42.423409300" lon="-2.579122300">
        <ele>530.00</ele>
        <time>2012-10-20T10:00:49Z</time>
      </trkpt>
      <trkpt lat="42.423358500" lon="-2.579157500">
        <ele>530.40</ele>
        <time>2012-10-20T10:00:51Z</time>
      </trkpt>
      <trkpt lat="42.423326600" lon="-2.579182200">
        <ele>531.00</ele>
        <time>2012-10-20T10:00:53Z</time>
      </trkpt>
      <trkpt lat="42.423179800" lon="-2.579304400">
        <ele>531.00</ele>
        <time>2012-10-20T10:00:58Z</time>
      </trkpt>
      <trkpt lat="42.423098500" lon="-2.579394500">
        <ele>531.40</ele>
        <time>2012-10-20T10:01:00Z</time>
      </trkpt>
      <trkpt lat="42.423069200" lon="-2.579426100">
        <ele>531.80</ele>
        <time>2012-10-20T10:01:02Z</time>
      </trkpt>
      <trkpt lat="42.423042400" lon="-2.579453800">
        <ele>532.20</ele>
        <time>2012-10-20T10:01:02Z</time>
      </trkpt>
      <trkpt lat="42.422984000" lon="-2.579507400">
        <ele>533.00</ele>
        <time>2012-10-20T10:01:05Z</time>
      </trkpt>
      <trkpt lat="42.422791100" lon="-2.579628100">
        <ele>533.00</ele>
        <time>2012-10-20T10:01:10Z</time>
      </trkpt>
      <trkpt lat="42.422758600" lon="-2.579642000">
        <ele>533.40</ele>
        <time>2012-10-20T10:01:12Z</time>
      </trkpt>
      <trkpt lat="42.422726800" lon="-2.579654900">
        <ele>534.00</ele>
        <time>2012-10-20T10:01:12Z</time>
      </trkpt>
      <trkpt lat="42.422699000" lon="-2.579665400">
        <ele>534.40</ele>
        <time>2012-10-20T10:01:14Z</time>
      </trkpt>
      <trkpt lat="42.422637900" lon="-2.579695200">
        <ele>535.20</ele>
        <time>2012-10-20T10:01:16Z</time>
      </trkpt>
      <trkpt lat="42.422574500" lon="-2.579728900">
        <ele>535.20</ele>
        <time>2012-10-20T10:01:17Z</time>
      </trkpt>
      <trkpt lat="42.422372700" lon="-2.579861500">
        <ele>535.20</ele>
        <time>2012-10-20T10:01:24Z</time>
      </trkpt>
      <trkpt lat="42.422191900" lon="-2.580052600">
        <ele>535.20</ele>
        <time>2012-10-20T10:01:31Z</time>
      </trkpt>
      <trkpt lat="42.422132800" lon="-2.580114100">
        <ele>535.60</ele>
        <time>2012-10-20T10:01:33Z</time>
      </trkpt>
      <trkpt lat="42.422103900" lon="-2.580143900">
        <ele>536.00</ele>
        <time>2012-10-20T10:01:33Z</time>
      </trkpt>
      <trkpt lat="42.422081400" lon="-2.580174700">
        <ele>536.40</ele>
        <time>2012-10-20T10:01:35Z</time>
      </trkpt>
      <trkpt lat="42.422056300" lon="-2.580204000">
        <ele>537.00</ele>
        <time>2012-10-20T10:01:35Z</time>
      </trkpt>
      <trkpt lat="42.422029800" lon="-2.580232300">
        <ele>537.40</ele>
        <time>2012-10-20T10:01:36Z</time>
      </trkpt>
      <trkpt lat="42.421848800" lon="-2.580394500">
        <ele>537.40</ele>
        <time>2012-10-20T10:01:42Z</time>
      </trkpt>
      <trkpt lat="42.421720900" lon="-2.580548200">
        <ele>537.40</ele>
        <time>2012-10-20T10:01:47Z</time>
      </trkpt>
      <trkpt lat="42.421681300" lon="-2.580621500">
        <ele>537.80</ele>
        <time>2012-10-20T10:01:49Z</time>
      </trkpt>
      <trkpt lat="42.421632900" lon="-2.580697000">
        <ele>538.60</ele>
        <time>2012-10-20T10:01:52Z</time>
      </trkpt>
      <trkpt lat="42.421607600" lon="-2.580728100">
        <ele>539.20</ele>
        <time>2012-10-20T10:01:52Z</time>
      </trkpt>
      <trkpt lat="42.421579800" lon="-2.580760700">
        <ele>539.60</ele>
        <time>2012-10-20T10:01:54Z</time>
      </trkpt>
      <trkpt lat="42.421418300" lon="-2.580980300">
        <ele>539.60</ele>
        <time>2012-10-20T10:02:01Z</time>
      </trkpt>
      <trkpt lat="42.421393200" lon="-2.581052300">
        <ele>540.00</ele>
        <time>2012-10-20T10:02:03Z</time>
      </trkpt>
      <trkpt lat="42.421381000" lon="-2.581087100">
        <ele>540.40</ele>
        <time>2012-10-20T10:02:04Z</time>
      </trkpt>
      <trkpt lat="42.421364900" lon="-2.581124100">
        <ele>540.80</ele>
        <time>2012-10-20T10:02:04Z</time>
      </trkpt>
      <trkpt lat="42.421344800" lon="-2.581161800">
        <ele>541.20</ele>
        <time>2012-10-20T10:02:06Z</time>
      </trkpt>
      <trkpt lat="42.421324200" lon="-2.581199000">
        <ele>541.80</ele>
        <time>2012-10-20T10:02:06Z</time>
      </trkpt>
      <trkpt lat="42.421276100" lon="-2.581274600">
        <ele>541.80</ele>
        <time>2012-10-20T10:02:08Z</time>
      </trkpt>
      <trkpt lat="42.421136200" lon="-2.581457300">
        <ele>541.80</ele>
        <time>2012-10-20T10:02:15Z</time>
      </trkpt>
      <trkpt lat="42.421000000" lon="-2.581649000">
        <ele>541.80</ele>
        <time>2012-10-20T10:02:20Z</time>
      </trkpt>
      <trkpt lat="42.420975300" lon="-2.581681700">
        <ele>542.20</ele>
        <time>2012-10-20T10:02:22Z</time>
      </trkpt>
      <trkpt lat="42.420951100" lon="-2.581710000">
        <ele>542.60</ele>
        <time>2012-10-20T10:02:22Z</time>
      </trkpt>
      <trkpt lat="42.420921900" lon="-2.581738300">
        <ele>543.00</ele>
        <time>2012-10-20T10:02:24Z</time>
      </trkpt>
      <trkpt lat="42.420868800" lon="-2.581794200">
        <ele>543.80</ele>
        <time>2012-10-20T10:02:25Z</time>
      </trkpt>
      <trkpt lat="42.420840400" lon="-2.581823500">
        <ele>543.80</ele>
        <time>2012-10-20T10:02:27Z</time>
      </trkpt>
      <trkpt lat="42.420672100" lon="-2.582039500">
        <ele>544.20</ele>
        <time>2012-10-20T10:02:34Z</time>
      </trkpt>
      <trkpt lat="42.420647500" lon="-2.582071900">
        <ele>544.60</ele>
        <time>2012-10-20T10:02:36Z</time>
      </trkpt>
      <trkpt lat="42.420625800" lon="-2.582101400">
        <ele>545.00</ele>
        <time>2012-10-20T10:02:36Z</time>
      </trkpt>
      <trkpt lat="42.420600800" lon="-2.582128900">
        <ele>545.40</ele>
        <time>2012-10-20T10:02:37Z</time>
      </trkpt>
      <trkpt lat="42.420577300" lon="-2.582154600">
        <ele>545.80</ele>
        <time>2012-10-20T10:02:39Z</time>
      </trkpt>
      <trkpt lat="42.420502200" lon="-2.582217000">
        <ele>545.80</ele>
        <time>2012-10-20T10:02:41Z</time>
      </trkpt>
      <trkpt lat="42.420335500" lon="-2.582340500">
        <ele>545.80</ele>
        <time>2012-10-20T10:02:48Z</time>
      </trkpt>
      <trkpt lat="42.420246200" lon="-2.582405200">
        <ele>546.20</ele>
        <time>2012-10-20T10:02:50Z</time>
      </trkpt>
      <trkpt lat="42.420157600" lon="-2.582465600">
        <ele>547.40</ele>
        <time>2012-10-20T10:02:53Z</time>
      </trkpt>
      <trkpt lat="42.420129100" lon="-2.582485300">
        <ele>548.00</ele>
        <time>2012-10-20T10:02:55Z</time>
      </trkpt>
      <trkpt lat="42.419864800" lon="-2.582691000">
        <ele>548.00</ele>
        <time>2012-10-20T10:03:04Z</time>
      </trkpt>
      <trkpt lat="42.419834500" lon="-2.582716000">
        <ele>548.40</ele>
        <time>2012-10-20T10:03:05Z</time>
      </trkpt>
      <trkpt lat="42.419777300" lon="-2.582767000">
        <ele>549.20</ele>
        <time>2012-10-20T10:03:07Z</time>
      </trkpt>
      <trkpt lat="42.419750900" lon="-2.582791900">
        <ele>549.60</ele>
        <time>2012-10-20T10:03:07Z</time>
      </trkpt>
      <trkpt lat="42.419723700" lon="-2.582819800">
        <ele>550.00</ele>
        <time>2012-10-20T10:03:09Z</time>
      </trkpt>
      <trkpt lat="42.419698600" lon="-2.582848800">
        <ele>550.00</ele>
        <time>2012-10-20T10:03:09Z</time>
      </trkpt>
      <trkpt lat="42.419579800" lon="-2.583059900">
        <ele>550.00</ele>
        <time>2012-10-20T10:03:16Z</time>
      </trkpt>
      <trkpt lat="42.419504300" lon="-2.583324500">
        <ele>550.00</ele>
        <time>2012-10-20T10:03:21Z</time>
      </trkpt>
      <trkpt lat="42.419388500" lon="-2.583566800">
        <ele>550.00</ele>
        <time>2012-10-20T10:03:28Z</time>
      </trkpt>
      <trkpt lat="42.419364600" lon="-2.583599800">
        <ele>550.40</ele>
        <time>2012-10-20T10:03:28Z</time>
      </trkpt>
      <trkpt lat="42.419339800" lon="-2.583630700">
        <ele>550.80</ele>
        <time>2012-10-20T10:03:30Z</time>
      </trkpt>
      <trkpt lat="42.419314200" lon="-2.583661100">
        <ele>551.20</ele>
        <time>2012-10-20T10:03:30Z</time>
      </trkpt>
      <trkpt lat="42.419289000" lon="-2.583689600">
        <ele>551.60</ele>
        <time>2012-10-20T10:03:31Z</time>
      </trkpt>
      <trkpt lat="42.419261900" lon="-2.583719800">
        <ele>552.20</ele>
        <time>2012-10-20T10:03:33Z</time>
      </trkpt>
      <trkpt lat="42.419166800" lon="-2.583842500">
        <ele>552.20</ele>
        <time>2012-10-20T10:03:37Z</time>
      </trkpt>
      <trkpt lat="42.419045100" lon="-2.584125200">
        <ele>552.20</ele>
        <time>2012-10-20T10:03:44Z</time>
      </trkpt>
      <trkpt lat="42.418968900" lon="-2.584280400">
        <ele>552.60</ele>
        <time>2012-10-20T10:03:47Z</time>
      </trkpt>
      <trkpt lat="42.418946300" lon="-2.584316300">
        <ele>553.00</ele>
        <time>2012-10-20T10:03:49Z</time>
      </trkpt>
      <trkpt lat="42.418901200" lon="-2.584384200">
        <ele>553.80</ele>
        <time>2012-10-20T10:03:51Z</time>
      </trkpt>
      <trkpt lat="42.418876100" lon="-2.584419900">
        <ele>553.80</ele>
        <time>2012-10-20T10:03:52Z</time>
      </trkpt>
      <trkpt lat="42.418853100" lon="-2.584451500">
        <ele>554.20</ele>
        <time>2012-10-20T10:03:52Z</time>
      </trkpt>
      <trkpt lat="42.418696400" lon="-2.584630800">
        <ele>554.20</ele>
        <time>2012-10-20T10:03:59Z</time>
      </trkpt>
      <trkpt lat="42.418607000" lon="-2.584705800">
        <ele>554.80</ele>
        <time>2012-10-20T10:04:01Z</time>
      </trkpt>
      <trkpt lat="42.418578300" lon="-2.584728900">
        <ele>555.20</ele>
        <time>2012-10-20T10:04:03Z</time>
      </trkpt>
      <trkpt lat="42.418521500" lon="-2.584776600">
        <ele>555.60</ele>
        <time>2012-10-20T10:04:05Z</time>
      </trkpt>
      <trkpt lat="42.418493300" lon="-2.584799500">
        <ele>556.00</ele>
        <time>2012-10-20T10:04:06Z</time>
      </trkpt>
      <trkpt lat="42.418464600" lon="-2.584824100">
        <ele>556.60</ele>
        <time>2012-10-20T10:04:06Z</time>
      </trkpt>
      <trkpt lat="42.418184100" lon="-2.585076900">
        <ele>556.60</ele>
        <time>2012-10-20T10:04:17Z</time>
      </trkpt>
      <trkpt lat="42.418127900" lon="-2.585118700">
        <ele>557.00</ele>
        <time>2012-10-20T10:04:18Z</time>
      </trkpt>
      <trkpt lat="42.418070700" lon="-2.585163000">
        <ele>557.80</ele>
        <time>2012-10-20T10:04:20Z</time>
      </trkpt>
      <trkpt lat="42.418043500" lon="-2.585185600">
        <ele>558.20</ele>
        <time>2012-10-20T10:04:22Z</time>
      </trkpt>
      <trkpt lat="42.418015700" lon="-2.585210600">
        <ele>558.60</ele>
        <time>2012-10-20T10:04:22Z</time>
      </trkpt>
      <trkpt lat="42.417987900" lon="-2.585236000">
        <ele>558.60</ele>
        <time>2012-10-20T10:04:24Z</time>
      </trkpt>
      <trkpt lat="42.417841500" lon="-2.585406500">
        <ele>558.60</ele>
        <time>2012-10-20T10:04:29Z</time>
      </trkpt>
      <trkpt lat="42.417814900" lon="-2.585436000">
        <ele>559.00</ele>
        <time>2012-10-20T10:04:31Z</time>
      </trkpt>
      <trkpt lat="42.417789500" lon="-2.585462700">
        <ele>559.60</ele>
        <time>2012-10-20T10:04:31Z</time>
      </trkpt>
      <trkpt lat="42.417709700" lon="-2.585547300">
        <ele>560.80</ele>
        <time>2012-10-20T10:04:34Z</time>
      </trkpt>
      <trkpt lat="42.417631200" lon="-2.585630000">
        <ele>560.80</ele>
        <time>2012-10-20T10:04:38Z</time>
      </trkpt>
      <trkpt lat="42.417491200" lon="-2.585785200">
        <ele>560.80</ele>
        <time>2012-10-20T10:04:43Z</time>
      </trkpt>
      <trkpt lat="42.417310000" lon="-2.585959600">
        <ele>561.20</ele>
        <time>2012-10-20T10:04:50Z</time>
      </trkpt>
      <trkpt lat="42.417278800" lon="-2.585985400">
        <ele>561.60</ele>
        <time>2012-10-20T10:04:52Z</time>
      </trkpt>
      <trkpt lat="42.417247600" lon="-2.586011200">
        <ele>562.20</ele>
        <time>2012-10-20T10:04:53Z</time>
      </trkpt>
      <trkpt lat="42.417216600" lon="-2.586037600">
        <ele>562.60</ele>
        <time>2012-10-20T10:04:53Z</time>
      </trkpt>
      <trkpt lat="42.417186700" lon="-2.586064400">
        <ele>563.00</ele>
        <time>2012-10-20T10:04:55Z</time>
      </trkpt>
      <trkpt lat="42.416923400" lon="-2.586305900">
        <ele>563.40</ele>
        <time>2012-10-20T10:05:04Z</time>
      </trkpt>
      <trkpt lat="42.416895600" lon="-2.586334300">
        <ele>563.80</ele>
        <time>2012-10-20T10:05:04Z</time>
      </trkpt>
      <trkpt lat="42.416869700" lon="-2.586363600">
        <ele>564.20</ele>
        <time>2012-10-20T10:05:06Z</time>
      </trkpt>
      <trkpt lat="42.416842900" lon="-2.586395200">
        <ele>564.60</ele>
        <time>2012-10-20T10:05:07Z</time>
      </trkpt>
      <trkpt lat="42.416818600" lon="-2.586426800">
        <ele>565.20</ele>
        <time>2012-10-20T10:05:07Z</time>
      </trkpt>
      <trkpt lat="42.416698400" lon="-2.586589100">
        <ele>565.20</ele>
        <time>2012-10-20T10:05:12Z</time>
      </trkpt>
      <trkpt lat="42.416560800" lon="-2.586783800">
        <ele>565.20</ele>
        <time>2012-10-20T10:05:18Z</time>
      </trkpt>
      <trkpt lat="42.416432700" lon="-2.586928000">
        <ele>565.60</ele>
        <time>2012-10-20T10:05:23Z</time>
      </trkpt>
      <trkpt lat="42.416402800" lon="-2.586957400">
        <ele>566.00</ele>
        <time>2012-10-20T10:05:25Z</time>
      </trkpt>
      <trkpt lat="42.416376600" lon="-2.586984600">
        <ele>566.60</ele>
        <time>2012-10-20T10:05:25Z</time>
      </trkpt>
      <trkpt lat="42.416349000" lon="-2.587010700">
        <ele>567.00</ele>
        <time>2012-10-20T10:05:26Z</time>
      </trkpt>
      <trkpt lat="42.416320800" lon="-2.587034000">
        <ele>567.60</ele>
        <time>2012-10-20T10:05:28Z</time>
      </trkpt>
      <trkpt lat="42.416204900" lon="-2.587121100">
        <ele>567.60</ele>
        <time>2012-10-20T10:05:32Z</time>
      </trkpt>
      <trkpt lat="42.415971600" lon="-2.587271100">
        <ele>567.60</ele>
        <time>2012-10-20T10:05:40Z</time>
      </trkpt>
      <trkpt lat="42.415938300" lon="-2.587290800">
        <ele>568.00</ele>
        <time>2012-10-20T10:05:40Z</time>
      </trkpt>
      <trkpt lat="42.415877400" lon="-2.587324600">
        <ele>568.80</ele>
        <time>2012-10-20T10:05:42Z</time>
      </trkpt>
      <trkpt lat="42.415848900" lon="-2.587340500">
        <ele>569.20</ele>
        <time>2012-10-20T10:05:44Z</time>
      </trkpt>
      <trkpt lat="42.415816900" lon="-2.587354200">
        <ele>569.60</ele>
        <time>2012-10-20T10:05:44Z</time>
      </trkpt>
      <trkpt lat="42.415658700" lon="-2.587415600">
        <ele>569.60</ele>
        <time>2012-10-20T10:05:49Z</time>
      </trkpt>
      <trkpt lat="42.415536600" lon="-2.587466600">
        <ele>570.00</ele>
        <time>2012-10-20T10:05:54Z</time>
      </trkpt>
      <trkpt lat="42.415458300" lon="-2.587519700">
        <ele>571.20</ele>
        <time>2012-10-20T10:05:56Z</time>
      </trkpt>
      <trkpt lat="42.415429500" lon="-2.587529000">
        <ele>571.60</ele>
        <time>2012-10-20T10:05:58Z</time>
      </trkpt>
      <trkpt lat="42.415350700" lon="-2.587560700">
        <ele>571.60</ele>
        <time>2012-10-20T10:06:01Z</time>
      </trkpt>
      <trkpt lat="42.415131300" lon="-2.587630700">
        <ele>571.60</ele>
        <time>2012-10-20T10:06:08Z</time>
      </trkpt>
      <trkpt lat="42.415049300" lon="-2.587769300">
        <ele>571.60</ele>
        <time>2012-10-20T10:06:13Z</time>
      </trkpt>
      <trkpt lat="42.415051600" lon="-2.587861000">
        <ele>572.00</ele>
        <time>2012-10-20T10:06:15Z</time>
      </trkpt>
      <trkpt lat="42.415060200" lon="-2.587904700">
        <ele>572.40</ele>
        <time>2012-10-20T10:06:17Z</time>
      </trkpt>
      <trkpt lat="42.415069100" lon="-2.587941700">
        <ele>572.80</ele>
        <time>2012-10-20T10:06:17Z</time>
      </trkpt>
      <trkpt lat="42.415076500" lon="-2.587985900">
        <ele>573.20</ele>
        <time>2012-10-20T10:06:19Z</time>
      </trkpt>
      <trkpt lat="42.415087300" lon="-2.588022400">
        <ele>573.80</ele>
        <time>2012-10-20T10:06:19Z</time>
      </trkpt>
      <trkpt lat="42.415111200" lon="-2.588142400">
        <ele>573.80</ele>
        <time>2012-10-20T10:06:22Z</time>
      </trkpt>
      <trkpt lat="42.415150800" lon="-2.588521700">
        <ele>573.80</ele>
        <time>2012-10-20T10:06:31Z</time>
      </trkpt>
      <trkpt lat="42.415172100" lon="-2.588679800">
        <ele>573.80</ele>
        <time>2012-10-20T10:06:36Z</time>
      </trkpt>
      <trkpt lat="42.415193000" lon="-2.589045100">
        <ele>573.80</ele>
        <time>2012-10-20T10:06:43Z</time>
      </trkpt>
      <trkpt lat="42.415137800" lon="-2.589311400">
        <ele>573.80</ele>
        <time>2012-10-20T10:06:50Z</time>
      </trkpt>
      <trkpt lat="42.415132000" lon="-2.589350600">
        <ele>574.20</ele>
        <time>2012-10-20T10:06:52Z</time>
      </trkpt>
      <trkpt lat="42.415122100" lon="-2.589389500">
        <ele>574.60</ele>
        <time>2012-10-20T10:06:52Z</time>
      </trkpt>
      <trkpt lat="42.415116900" lon="-2.589430700">
        <ele>575.00</ele>
        <time>2012-10-20T10:06:54Z</time>
      </trkpt>
      <trkpt lat="42.415111100" lon="-2.589469500">
        <ele>575.40</ele>
        <time>2012-10-20T10:06:55Z</time>
      </trkpt>
      <trkpt lat="42.415105500" lon="-2.589514600">
        <ele>575.80</ele>
        <time>2012-10-20T10:06:55Z</time>
      </trkpt>
      <trkpt lat="42.415101100" lon="-2.589553900">
        <ele>575.80</ele>
        <time>2012-10-20T10:06:57Z</time>
      </trkpt>
      <trkpt lat="42.415087200" lon="-2.589847100">
        <ele>575.80</ele>
        <time>2012-10-20T10:07:04Z</time>
      </trkpt>
      <trkpt lat="42.415087100" lon="-2.590146500">
        <ele>576.20</ele>
        <time>2012-10-20T10:07:11Z</time>
      </trkpt>
      <trkpt lat="42.415082600" lon="-2.590191500">
        <ele>576.80</ele>
        <time>2012-10-20T10:07:11Z</time>
      </trkpt>
      <trkpt lat="42.415076800" lon="-2.590232800">
        <ele>577.20</ele>
        <time>2012-10-20T10:07:13Z</time>
      </trkpt>
      <trkpt lat="42.415070500" lon="-2.590277000">
        <ele>577.60</ele>
        <time>2012-10-20T10:07:13Z</time>
      </trkpt>
      <trkpt lat="42.415066400" lon="-2.590316500">
        <ele>578.00</ele>
        <time>2012-10-20T10:07:14Z</time>
      </trkpt>
      <trkpt lat="42.415014700" lon="-2.590719300">
        <ele>578.00</ele>
        <time>2012-10-20T10:07:25Z</time>
      </trkpt>
      <trkpt lat="42.415002900" lon="-2.590868500">
        <ele>578.40</ele>
        <time>2012-10-20T10:07:30Z</time>
      </trkpt>
      <trkpt lat="42.415001400" lon="-2.590907500">
        <ele>579.00</ele>
        <time>2012-10-20T10:07:30Z</time>
      </trkpt>
      <trkpt lat="42.414998900" lon="-2.590990000">
        <ele>579.80</ele>
        <time>2012-10-20T10:07:32Z</time>
      </trkpt>
      <trkpt lat="42.414996600" lon="-2.591028600">
        <ele>580.20</ele>
        <time>2012-10-20T10:07:34Z</time>
      </trkpt>
      <trkpt lat="42.414992700" lon="-2.591157700">
        <ele>580.20</ele>
        <time>2012-10-20T10:07:37Z</time>
      </trkpt>
      <trkpt lat="42.414973500" lon="-2.591505400">
        <ele>580.20</ele>
        <time>2012-10-20T10:07:44Z</time>
      </trkpt>
      <trkpt lat="42.414938800" lon="-2.591810900">
        <ele>580.20</ele>
        <time>2012-10-20T10:07:51Z</time>
      </trkpt>
      <trkpt lat="42.414924300" lon="-2.591986500">
        <ele>580.80</ele>
        <time>2012-10-20T10:07:56Z</time>
      </trkpt>
      <trkpt lat="42.414918600" lon="-2.592074300">
        <ele>581.60</ele>
        <time>2012-10-20T10:07:58Z</time>
      </trkpt>
      <trkpt lat="42.414915100" lon="-2.592114800">
        <ele>582.20</ele>
        <time>2012-10-20T10:07:58Z</time>
      </trkpt>
      <trkpt lat="42.414912000" lon="-2.592155000">
        <ele>582.60</ele>
        <time>2012-10-20T10:08:00Z</time>
      </trkpt>
      <trkpt lat="42.414878700" lon="-2.592343200">
        <ele>582.60</ele>
        <time>2012-10-20T10:08:05Z</time>
      </trkpt>
      <trkpt lat="42.414862300" lon="-2.592387000">
        <ele>582.60</ele>
        <time>2012-10-20T10:08:07Z</time>
      </trkpt>
      <trkpt lat="42.414845900" lon="-2.592441100">
        <ele>582.60</ele>
        <time>2012-10-20T10:08:10Z</time>
      </trkpt>
      <trkpt lat="42.414827300" lon="-2.592474500">
        <ele>582.60</ele>
        <time>2012-10-20T10:08:12Z</time>
      </trkpt>
      <trkpt lat="42.414812300" lon="-2.592507500">
        <ele>582.60</ele>
        <time>2012-10-20T10:08:14Z</time>
      </trkpt>
      <trkpt lat="42.414802000" lon="-2.592525800">
        <ele>582.60</ele>
        <time>2012-10-20T10:08:17Z</time>
      </trkpt>
      <trkpt lat="42.414807200" lon="-2.592580200">
        <ele>582.60</ele>
        <time>2012-10-20T10:10:40Z</time>
      </trkpt>
      <trkpt lat="42.414804200" lon="-2.592598400">
        <ele>582.60</ele>
        <time>2012-10-20T10:10:40Z</time>
      </trkpt>
      <trkpt lat="42.414764700" lon="-2.592751200">
        <ele>582.60</ele>
        <time>2012-10-20T10:10:45Z</time>
      </trkpt>
      <trkpt lat="42.414745600" lon="-2.592831700">
        <ele>582.60</ele>
        <time>2012-10-20T10:10:47Z</time>
      </trkpt>
      <trkpt lat="42.414707700" lon="-2.593061900">
        <ele>582.60</ele>
        <time>2012-10-20T10:10:54Z</time>
      </trkpt>
      <trkpt lat="42.414689900" lon="-2.593431100">
        <ele>582.60</ele>
        <time>2012-10-20T10:11:01Z</time>
      </trkpt>
      <trkpt lat="42.414683100" lon="-2.593705300">
        <ele>582.60</ele>
        <time>2012-10-20T10:11:06Z</time>
      </trkpt>
      <trkpt lat="42.414678100" lon="-2.593756600">
        <ele>582.60</ele>
        <time>2012-10-20T10:11:06Z</time>
      </trkpt>
      <trkpt lat="42.414661600" lon="-2.594014700">
        <ele>582.60</ele>
        <time>2012-10-20T10:11:11Z</time>
      </trkpt>
      <trkpt lat="42.414666300" lon="-2.594072900">
        <ele>582.60</ele>
        <time>2012-10-20T10:11:13Z</time>
      </trkpt>
      <trkpt lat="42.414683000" lon="-2.594133100">
        <ele>582.60</ele>
        <time>2012-10-20T10:11:13Z</time>
      </trkpt>
      <trkpt lat="42.414743600" lon="-2.594321400">
        <ele>582.20</ele>
        <time>2012-10-20T10:11:17Z</time>
      </trkpt>
      <trkpt lat="42.414792700" lon="-2.594451700">
        <ele>581.40</ele>
        <time>2012-10-20T10:11:18Z</time>
      </trkpt>
      <trkpt lat="42.414823700" lon="-2.594516700">
        <ele>580.80</ele>
        <time>2012-10-20T10:11:20Z</time>
      </trkpt>
      <trkpt lat="42.414869000" lon="-2.594625100">
        <ele>580.40</ele>
        <time>2012-10-20T10:11:20Z</time>
      </trkpt>
      <trkpt lat="42.414955800" lon="-2.594787500">
        <ele>580.40</ele>
        <time>2012-10-20T10:11:22Z</time>
      </trkpt>
      <trkpt lat="42.415005100" lon="-2.594845400">
        <ele>580.40</ele>
        <time>2012-10-20T10:11:23Z</time>
      </trkpt>
      <trkpt lat="42.415082200" lon="-2.594927400">
        <ele>580.40</ele>
        <time>2012-10-20T10:11:25Z</time>
      </trkpt>
      <trkpt lat="42.415123900" lon="-2.594983200">
        <ele>580.40</ele>
        <time>2012-10-20T10:11:27Z</time>
      </trkpt>
      <trkpt lat="42.415157900" lon="-2.595039300">
        <ele>580.00</ele>
        <time>2012-10-20T10:11:27Z</time>
      </trkpt>
      <trkpt lat="42.415196200" lon="-2.595095000">
        <ele>579.60</ele>
        <time>2012-10-20T10:11:29Z</time>
      </trkpt>
      <trkpt lat="42.415233000" lon="-2.595151600">
        <ele>579.20</ele>
        <time>2012-10-20T10:11:29Z</time>
      </trkpt>
      <trkpt lat="42.415269700" lon="-2.595208300">
        <ele>578.60</ele>
        <time>2012-10-20T10:11:30Z</time>
      </trkpt>
      <trkpt lat="42.415312500" lon="-2.595270900">
        <ele>578.20</ele>
        <time>2012-10-20T10:11:32Z</time>
      </trkpt>
      <trkpt lat="42.415357800" lon="-2.595337000">
        <ele>577.60</ele>
        <time>2012-10-20T10:11:32Z</time>
      </trkpt>
      <trkpt lat="42.415406300" lon="-2.595405700">
        <ele>577.00</ele>
        <time>2012-10-20T10:11:34Z</time>
      </trkpt>
      <trkpt lat="42.415510900" lon="-2.595541000">
        <ele>575.80</ele>
        <time>2012-10-20T10:11:36Z</time>
      </trkpt>
      <trkpt lat="42.415562900" lon="-2.595601200">
        <ele>574.80</ele>
        <time>2012-10-20T10:11:36Z</time>
      </trkpt>
      <trkpt lat="42.415664400" lon="-2.595724400">
        <ele>572.80</ele>
        <time>2012-10-20T10:11:39Z</time>
      </trkpt>
      <trkpt lat="42.415708900" lon="-2.595788800">
        <ele>572.00</ele>
        <time>2012-10-20T10:11:39Z</time>
      </trkpt>
      <trkpt lat="42.415750300" lon="-2.595855700">
        <ele>571.20</ele>
        <time>2012-10-20T10:11:41Z</time>
      </trkpt>
      <trkpt lat="42.415787600" lon="-2.595924500">
        <ele>570.40</ele>
        <time>2012-10-20T10:11:41Z</time>
      </trkpt>
      <trkpt lat="42.415818600" lon="-2.596000000">
        <ele>569.60</ele>
        <time>2012-10-20T10:11:43Z</time>
      </trkpt>
      <trkpt lat="42.415847900" lon="-2.596068400">
        <ele>568.80</ele>
        <time>2012-10-20T10:11:43Z</time>
      </trkpt>
      <trkpt lat="42.415975000" lon="-2.596364200">
        <ele>568.80</ele>
        <time>2012-10-20T10:11:48Z</time>
      </trkpt>
      <trkpt lat="42.416072300" lon="-2.596561400">
        <ele>569.20</ele>
        <time>2012-10-20T10:11:53Z</time>
      </trkpt>
      <trkpt lat="42.416091900" lon="-2.596603700">
        <ele>569.60</ele>
        <time>2012-10-20T10:11:53Z</time>
      </trkpt>
      <trkpt lat="42.416113100" lon="-2.596655400">
        <ele>570.00</ele>
        <time>2012-10-20T10:11:55Z</time>
      </trkpt>
      <trkpt lat="42.416131500" lon="-2.596707800">
        <ele>570.60</ele>
        <time>2012-10-20T10:11:55Z</time>
      </trkpt>
      <trkpt lat="42.416149900" lon="-2.596763100">
        <ele>571.00</ele>
        <time>2012-10-20T10:11:57Z</time>
      </trkpt>
      <trkpt lat="42.416185100" lon="-2.596873900">
        <ele>571.00</ele>
        <time>2012-10-20T10:11:58Z</time>
      </trkpt>
      <trkpt lat="42.416199600" lon="-2.596934800">
        <ele>571.40</ele>
        <time>2012-10-20T10:12:00Z</time>
      </trkpt>
      <trkpt lat="42.416216700" lon="-2.596995500">
        <ele>572.00</ele>
        <time>2012-10-20T10:12:00Z</time>
      </trkpt>
      <trkpt lat="42.416234400" lon="-2.597056500">
        <ele>572.40</ele>
        <time>2012-10-20T10:12:02Z</time>
      </trkpt>
      <trkpt lat="42.416255200" lon="-2.597117700">
        <ele>572.80</ele>
        <time>2012-10-20T10:12:02Z</time>
      </trkpt>
      <trkpt lat="42.416272200" lon="-2.597178000">
        <ele>573.20</ele>
        <time>2012-10-20T10:12:04Z</time>
      </trkpt>
      <trkpt lat="42.416322100" lon="-2.597344300">
        <ele>573.20</ele>
        <time>2012-10-20T10:12:07Z</time>
      </trkpt>
      <trkpt lat="42.416354400" lon="-2.597441200">
        <ele>573.20</ele>
        <time>2012-10-20T10:12:09Z</time>
      </trkpt>
      <trkpt lat="42.416403500" lon="-2.597608500">
        <ele>573.20</ele>
        <time>2012-10-20T10:12:12Z</time>
      </trkpt>
      <trkpt lat="42.416436200" lon="-2.597736300">
        <ele>573.20</ele>
        <time>2012-10-20T10:12:14Z</time>
      </trkpt>
      <trkpt lat="42.416463600" lon="-2.597849600">
        <ele>572.80</ele>
        <time>2012-10-20T10:12:16Z</time>
      </trkpt>
      <trkpt lat="42.416474500" lon="-2.597902200">
        <ele>572.40</ele>
        <time>2012-10-20T10:12:16Z</time>
      </trkpt>
      <trkpt lat="42.416482100" lon="-2.597952800">
        <ele>572.00</ele>
        <time>2012-10-20T10:12:17Z</time>
      </trkpt>
      <trkpt lat="42.416490200" lon="-2.597999300">
        <ele>571.40</ele>
        <time>2012-10-20T10:12:19Z</time>
      </trkpt>
      <trkpt lat="42.416501200" lon="-2.598047400">
        <ele>570.80</ele>
        <time>2012-10-20T10:12:19Z</time>
      </trkpt>
      <trkpt lat="42.416517500" lon="-2.598094400">
        <ele>570.20</ele>
        <time>2012-10-20T10:12:21Z</time>
      </trkpt>
      <trkpt lat="42.416553500" lon="-2.598120900">
        <ele>569.40</ele>
        <time>2012-10-20T10:12:21Z</time>
      </trkpt>
      <trkpt lat="42.416598700" lon="-2.598127700">
        <ele>568.80</ele>
        <time>2012-10-20T10:12:23Z</time>
      </trkpt>
      <trkpt lat="42.416652300" lon="-2.598126500">
        <ele>568.00</ele>
        <time>2012-10-20T10:12:23Z</time>
      </trkpt>
      <trkpt lat="42.416714000" lon="-2.598113000">
        <ele>567.40</ele>
        <time>2012-10-20T10:12:24Z</time>
      </trkpt>
      <trkpt lat="42.416771800" lon="-2.598084200">
        <ele>566.60</ele>
        <time>2012-10-20T10:12:26Z</time>
      </trkpt>
      <trkpt lat="42.416828200" lon="-2.598054500">
        <ele>566.60</ele>
        <time>2012-10-20T10:12:26Z</time>
      </trkpt>
      <trkpt lat="42.416887000" lon="-2.598025700">
        <ele>566.20</ele>
        <time>2012-10-20T10:12:28Z</time>
      </trkpt>
      <trkpt lat="42.416936400" lon="-2.598020800">
        <ele>565.80</ele>
        <time>2012-10-20T10:12:28Z</time>
      </trkpt>
      <trkpt lat="42.416990500" lon="-2.598034800">
        <ele>565.40</ele>
        <time>2012-10-20T10:12:30Z</time>
      </trkpt>
      <trkpt lat="42.417032600" lon="-2.598067700">
        <ele>564.80</ele>
        <time>2012-10-20T10:12:30Z</time>
      </trkpt>
      <trkpt lat="42.417074000" lon="-2.598108400">
        <ele>564.40</ele>
        <time>2012-10-20T10:12:31Z</time>
      </trkpt>
      <trkpt lat="42.417106900" lon="-2.598166600">
        <ele>564.40</ele>
        <time>2012-10-20T10:12:33Z</time>
      </trkpt>
      <trkpt lat="42.417133300" lon="-2.598328000">
        <ele>564.40</ele>
        <time>2012-10-20T10:12:35Z</time>
      </trkpt>
      <trkpt lat="42.416976600" lon="-2.598559100">
        <ele>564.40</ele>
        <time>2012-10-20T10:12:40Z</time>
      </trkpt>
      <trkpt lat="42.416841500" lon="-2.598840300">
        <ele>564.40</ele>
        <time>2012-10-20T10:12:45Z</time>
      </trkpt>
      <trkpt lat="42.416799500" lon="-2.598946000">
        <ele>564.80</ele>
        <time>2012-10-20T10:12:47Z</time>
      </trkpt>
      <trkpt lat="42.416777500" lon="-2.598996800">
        <ele>565.20</ele>
        <time>2012-10-20T10:12:49Z</time>
      </trkpt>
      <trkpt lat="42.416759600" lon="-2.599043200">
        <ele>565.60</ele>
        <time>2012-10-20T10:12:49Z</time>
      </trkpt>
      <trkpt lat="42.416738500" lon="-2.599090100">
        <ele>566.00</ele>
        <time>2012-10-20T10:12:51Z</time>
      </trkpt>
      <trkpt lat="42.416719700" lon="-2.599137100">
        <ele>566.40</ele>
        <time>2012-10-20T10:12:52Z</time>
      </trkpt>
      <trkpt lat="42.416592300" lon="-2.599478300">
        <ele>566.40</ele>
        <time>2012-10-20T10:12:59Z</time>
      </trkpt>
      <trkpt lat="42.416553000" lon="-2.599560000">
        <ele>566.80</ele>
        <time>2012-10-20T10:13:01Z</time>
      </trkpt>
      <trkpt lat="42.416529600" lon="-2.599596100">
        <ele>567.20</ele>
        <time>2012-10-20T10:13:03Z</time>
      </trkpt>
      <trkpt lat="42.416502700" lon="-2.599635700">
        <ele>567.60</ele>
        <time>2012-10-20T10:13:03Z</time>
      </trkpt>
      <trkpt lat="42.416463400" lon="-2.599712300">
        <ele>568.40</ele>
        <time>2012-10-20T10:13:06Z</time>
      </trkpt>
      <trkpt lat="42.416349500" lon="-2.599965600">
        <ele>568.40</ele>
        <time>2012-10-20T10:13:12Z</time>
      </trkpt>
      <trkpt lat="42.416227100" lon="-2.600257900">
        <ele>568.40</ele>
        <time>2012-10-20T10:13:18Z</time>
      </trkpt>
      <trkpt lat="42.416189800" lon="-2.600335000">
        <ele>568.80</ele>
        <time>2012-10-20T10:13:20Z</time>
      </trkpt>
      <trkpt lat="42.416169100" lon="-2.600374900">
        <ele>569.20</ele>
        <time>2012-10-20T10:13:22Z</time>
      </trkpt>
      <trkpt lat="42.416147400" lon="-2.600417200">
        <ele>569.60</ele>
        <time>2012-10-20T10:13:22Z</time>
      </trkpt>
      <trkpt lat="42.416124300" lon="-2.600462500">
        <ele>570.20</ele>
        <time>2012-10-20T10:13:24Z</time>
      </trkpt>
      <trkpt lat="42.416104200" lon="-2.600505100">
        <ele>570.60</ele>
        <time>2012-10-20T10:13:24Z</time>
      </trkpt>
      <trkpt lat="42.416079400" lon="-2.600549600">
        <ele>570.60</ele>
        <time>2012-10-20T10:13:25Z</time>
      </trkpt>
      <trkpt lat="42.415972100" lon="-2.600813400">
        <ele>570.60</ele>
        <time>2012-10-20T10:13:31Z</time>
      </trkpt>
      <trkpt lat="42.415873800" lon="-2.601101000">
        <ele>570.60</ele>
        <time>2012-10-20T10:13:38Z</time>
      </trkpt>
      <trkpt lat="42.415808000" lon="-2.601310200">
        <ele>571.00</ele>
        <time>2012-10-20T10:13:43Z</time>
      </trkpt>
      <trkpt lat="42.415792400" lon="-2.601356700">
        <ele>571.40</ele>
        <time>2012-10-20T10:13:45Z</time>
      </trkpt>
      <trkpt lat="42.415775100" lon="-2.601396900">
        <ele>571.80</ele>
        <time>2012-10-20T10:13:46Z</time>
      </trkpt>
      <trkpt lat="42.415756000" lon="-2.601440800">
        <ele>572.20</ele>
        <time>2012-10-20T10:13:46Z</time>
      </trkpt>
      <trkpt lat="42.415737500" lon="-2.601487300">
        <ele>572.60</ele>
        <time>2012-10-20T10:13:48Z</time>
      </trkpt>
      <trkpt lat="42.415671100" lon="-2.601660100">
        <ele>572.60</ele>
        <time>2012-10-20T10:13:52Z</time>
      </trkpt>
      <trkpt lat="42.415595600" lon="-2.601875900">
        <ele>572.60</ele>
        <time>2012-10-20T10:13:57Z</time>
      </trkpt>
      <trkpt lat="42.415469200" lon="-2.602215100">
        <ele>572.60</ele>
        <time>2012-10-20T10:14:04Z</time>
      </trkpt>
      <trkpt lat="42.415397400" lon="-2.602412600">
        <ele>573.00</ele>
        <time>2012-10-20T10:14:09Z</time>
      </trkpt>
      <trkpt lat="42.415383300" lon="-2.602455300">
        <ele>573.60</ele>
        <time>2012-10-20T10:14:11Z</time>
      </trkpt>
      <trkpt lat="42.415367500" lon="-2.602496900">
        <ele>574.00</ele>
        <time>2012-10-20T10:14:11Z</time>
      </trkpt>
      <trkpt lat="42.415333100" lon="-2.602588500">
        <ele>574.80</ele>
        <time>2012-10-20T10:14:14Z</time>
      </trkpt>
      <trkpt lat="42.415255700" lon="-2.602798400">
        <ele>574.80</ele>
        <time>2012-10-20T10:14:18Z</time>
      </trkpt>
      <trkpt lat="42.415134100" lon="-2.603155900">
        <ele>574.80</ele>
        <time>2012-10-20T10:14:26Z</time>
      </trkpt>
      <trkpt lat="42.414896900" lon="-2.603765000">
        <ele>574.80</ele>
        <time>2012-10-20T10:14:40Z</time>
      </trkpt>
      <trkpt lat="42.414883900" lon="-2.603803600">
        <ele>575.20</ele>
        <time>2012-10-20T10:14:42Z</time>
      </trkpt>
      <trkpt lat="42.414867500" lon="-2.603852400">
        <ele>575.60</ele>
        <time>2012-10-20T10:14:42Z</time>
      </trkpt>
      <trkpt lat="42.414854800" lon="-2.603895300">
        <ele>576.20</ele>
        <time>2012-10-20T10:14:44Z</time>
      </trkpt>
      <trkpt lat="42.414837200" lon="-2.603938000">
        <ele>576.60</ele>
        <time>2012-10-20T10:14:44Z</time>
      </trkpt>
      <trkpt lat="42.414821400" lon="-2.603975200">
        <ele>577.00</ele>
        <time>2012-10-20T10:14:46Z</time>
      </trkpt>
      <trkpt lat="42.414770900" lon="-2.604161800">
        <ele>577.00</ele>
        <time>2012-10-20T10:14:49Z</time>
      </trkpt>
      <trkpt lat="42.414683900" lon="-2.604375600">
        <ele>577.00</ele>
        <time>2012-10-20T10:14:54Z</time>
      </trkpt>
      <trkpt lat="42.414624000" lon="-2.604542700">
        <ele>577.40</ele>
        <time>2012-10-20T10:14:58Z</time>
      </trkpt>
      <trkpt lat="42.414611100" lon="-2.604585400">
        <ele>577.80</ele>
        <time>2012-10-20T10:15:00Z</time>
      </trkpt>
      <trkpt lat="42.414603700" lon="-2.604628000">
        <ele>578.20</ele>
        <time>2012-10-20T10:15:01Z</time>
      </trkpt>
      <trkpt lat="42.414594400" lon="-2.604667400">
        <ele>578.60</ele>
        <time>2012-10-20T10:15:01Z</time>
      </trkpt>
      <trkpt lat="42.414585000" lon="-2.604703200">
        <ele>579.00</ele>
        <time>2012-10-20T10:15:03Z</time>
      </trkpt>
      <trkpt lat="42.414539100" lon="-2.604830400">
        <ele>579.00</ele>
        <time>2012-10-20T10:15:05Z</time>
      </trkpt>
      <trkpt lat="42.414412200" lon="-2.605170300">
        <ele>579.00</ele>
        <time>2012-10-20T10:15:12Z</time>
      </trkpt>
      <trkpt lat="42.414319900" lon="-2.605397000">
        <ele>579.00</ele>
        <time>2012-10-20T10:15:17Z</time>
      </trkpt>
      <trkpt lat="42.414295600" lon="-2.605420300">
        <ele>579.00</ele>
        <time>2012-10-20T10:15:19Z</time>
      </trkpt>
      <trkpt lat="42.414263300" lon="-2.605514400">
        <ele>579.00</ele>
        <time>2012-10-20T10:15:20Z</time>
      </trkpt>
      <trkpt lat="42.414175500" lon="-2.605790900">
        <ele>579.00</ele>
        <time>2012-10-20T10:15:26Z</time>
      </trkpt>
      <trkpt lat="42.414160500" lon="-2.605835500">
        <ele>579.40</ele>
        <time>2012-10-20T10:15:27Z</time>
      </trkpt>
      <trkpt lat="42.414144800" lon="-2.605879300">
        <ele>579.80</ele>
        <time>2012-10-20T10:15:29Z</time>
      </trkpt>
      <trkpt lat="42.414131500" lon="-2.605920700">
        <ele>580.20</ele>
        <time>2012-10-20T10:15:29Z</time>
      </trkpt>
      <trkpt lat="42.414110500" lon="-2.605965000">
        <ele>580.60</ele>
        <time>2012-10-20T10:15:31Z</time>
      </trkpt>
      <trkpt lat="42.414096100" lon="-2.606009600">
        <ele>581.00</ele>
        <time>2012-10-20T10:15:31Z</time>
      </trkpt>
      <trkpt lat="42.414069600" lon="-2.606099300">
        <ele>581.00</ele>
        <time>2012-10-20T10:15:34Z</time>
      </trkpt>
      <trkpt lat="42.413987800" lon="-2.606356000">
        <ele>581.00</ele>
        <time>2012-10-20T10:15:40Z</time>
      </trkpt>
      <trkpt lat="42.413881000" lon="-2.606629600">
        <ele>581.00</ele>
        <time>2012-10-20T10:15:45Z</time>
      </trkpt>
      <trkpt lat="42.413846900" lon="-2.606722900">
        <ele>581.60</ele>
        <time>2012-10-20T10:15:48Z</time>
      </trkpt>
      <trkpt lat="42.413830100" lon="-2.606766500">
        <ele>582.00</ele>
        <time>2012-10-20T10:15:48Z</time>
      </trkpt>
      <trkpt lat="42.413814500" lon="-2.606807200">
        <ele>582.40</ele>
        <time>2012-10-20T10:15:50Z</time>
      </trkpt>
      <trkpt lat="42.413804000" lon="-2.606850900">
        <ele>583.00</ele>
        <time>2012-10-20T10:15:50Z</time>
      </trkpt>
      <trkpt lat="42.413790100" lon="-2.606885700">
        <ele>583.40</ele>
        <time>2012-10-20T10:15:52Z</time>
      </trkpt>
      <trkpt lat="42.413652900" lon="-2.607243700">
        <ele>583.40</ele>
        <time>2012-10-20T10:15:59Z</time>
      </trkpt>
      <trkpt lat="42.413568400" lon="-2.607483900">
        <ele>583.40</ele>
        <time>2012-10-20T10:16:04Z</time>
      </trkpt>
      <trkpt lat="42.413456200" lon="-2.607814400">
        <ele>583.40</ele>
        <time>2012-10-20T10:16:11Z</time>
      </trkpt>
      <trkpt lat="42.413390400" lon="-2.608015300">
        <ele>583.40</ele>
        <time>2012-10-20T10:16:16Z</time>
      </trkpt>
      <trkpt lat="42.413373600" lon="-2.608062400">
        <ele>583.80</ele>
        <time>2012-10-20T10:16:16Z</time>
      </trkpt>
      <trkpt lat="42.413357000" lon="-2.608107200">
        <ele>584.40</ele>
        <time>2012-10-20T10:16:18Z</time>
      </trkpt>
      <trkpt lat="42.413342100" lon="-2.608151400">
        <ele>584.40</ele>
        <time>2012-10-20T10:16:18Z</time>
      </trkpt>
      <trkpt lat="42.413322000" lon="-2.608197400">
        <ele>585.20</ele>
        <time>2012-10-20T10:16:20Z</time>
      </trkpt>
      <trkpt lat="42.413303500" lon="-2.608243400">
        <ele>585.60</ele>
        <time>2012-10-20T10:16:21Z</time>
      </trkpt>
      <trkpt lat="42.413213700" lon="-2.608474700">
        <ele>585.60</ele>
        <time>2012-10-20T10:16:25Z</time>
      </trkpt>
      <trkpt lat="42.413119100" lon="-2.608753800">
        <ele>585.60</ele>
        <time>2012-10-20T10:16:32Z</time>
      </trkpt>
      <trkpt lat="42.413031400" lon="-2.609069300">
        <ele>585.60</ele>
        <time>2012-10-20T10:16:39Z</time>
      </trkpt>
      <trkpt lat="42.412978900" lon="-2.609265300">
        <ele>586.00</ele>
        <time>2012-10-20T10:16:42Z</time>
      </trkpt>
      <trkpt lat="42.412970100" lon="-2.609294300">
        <ele>586.40</ele>
        <time>2012-10-20T10:16:44Z</time>
      </trkpt>
      <trkpt lat="42.412959400" lon="-2.609331300">
        <ele>586.80</ele>
        <time>2012-10-20T10:16:44Z</time>
      </trkpt>
      <trkpt lat="42.412935200" lon="-2.609403000">
        <ele>587.60</ele>
        <time>2012-10-20T10:16:46Z</time>
      </trkpt>
      <trkpt lat="42.412883300" lon="-2.609569900">
        <ele>587.60</ele>
        <time>2012-10-20T10:16:51Z</time>
      </trkpt>
      <trkpt lat="42.412806600" lon="-2.609879600">
        <ele>587.60</ele>
        <time>2012-10-20T10:16:56Z</time>
      </trkpt>
      <trkpt lat="42.412744800" lon="-2.610126700">
        <ele>588.00</ele>
        <time>2012-10-20T10:17:03Z</time>
      </trkpt>
      <trkpt lat="42.412733900" lon="-2.610164800">
        <ele>588.60</ele>
        <time>2012-10-20T10:17:03Z</time>
      </trkpt>
      <trkpt lat="42.412706700" lon="-2.610249000">
        <ele>589.40</ele>
        <time>2012-10-20T10:17:05Z</time>
      </trkpt>
      <trkpt lat="42.412693100" lon="-2.610292500">
        <ele>590.00</ele>
        <time>2012-10-20T10:17:07Z</time>
      </trkpt>
      <trkpt lat="42.412642400" lon="-2.610464500">
        <ele>590.00</ele>
        <time>2012-10-20T10:17:10Z</time>
      </trkpt>
      <trkpt lat="42.412628200" lon="-2.610501000">
        <ele>590.40</ele>
        <time>2012-10-20T10:17:12Z</time>
      </trkpt>
      <trkpt lat="42.412622200" lon="-2.610538000">
        <ele>590.80</ele>
        <time>2012-10-20T10:17:12Z</time>
      </trkpt>
      <trkpt lat="42.412609800" lon="-2.610599900">
        <ele>591.60</ele>
        <time>2012-10-20T10:17:14Z</time>
      </trkpt>
      <trkpt lat="42.412600000" lon="-2.610636000">
        <ele>592.00</ele>
        <time>2012-10-20T10:17:15Z</time>
      </trkpt>
      <trkpt lat="42.412516500" lon="-2.611092800">
        <ele>592.00</ele>
        <time>2012-10-20T10:17:26Z</time>
      </trkpt>
      <trkpt lat="42.412471300" lon="-2.611438500">
        <ele>592.00</ele>
        <time>2012-10-20T10:17:35Z</time>
      </trkpt>
      <trkpt lat="42.412452400" lon="-2.611653800">
        <ele>592.00</ele>
        <time>2012-10-20T10:17:40Z</time>
      </trkpt>
      <trkpt lat="42.412445400" lon="-2.611696800">
        <ele>592.40</ele>
        <time>2012-10-20T10:17:40Z</time>
      </trkpt>
      <trkpt lat="42.412439000" lon="-2.611741600">
        <ele>593.00</ele>
        <time>2012-10-20T10:17:42Z</time>
      </trkpt>
      <trkpt lat="42.412432100" lon="-2.611788300">
        <ele>593.40</ele>
        <time>2012-10-20T10:17:43Z</time>
      </trkpt>
      <trkpt lat="42.412421800" lon="-2.611834600">
        <ele>593.80</ele>
        <time>2012-10-20T10:17:43Z</time>
      </trkpt>
      <trkpt lat="42.412412400" lon="-2.611878200">
        <ele>594.20</ele>
        <time>2012-10-20T10:17:45Z</time>
      </trkpt>
      <trkpt lat="42.412383900" lon="-2.612013700">
        <ele>594.20</ele>
        <time>2012-10-20T10:17:47Z</time>
      </trkpt>
      <trkpt lat="42.412330900" lon="-2.612280300">
        <ele>594.20</ele>
        <time>2012-10-20T10:17:54Z</time>
      </trkpt>
      <trkpt lat="42.412291900" lon="-2.612572500">
        <ele>594.20</ele>
        <time>2012-10-20T10:18:01Z</time>
      </trkpt>
      <trkpt lat="42.412264800" lon="-2.612839200">
        <ele>594.20</ele>
        <time>2012-10-20T10:18:06Z</time>
      </trkpt>
      <trkpt lat="42.412260500" lon="-2.612930200">
        <ele>594.60</ele>
        <time>2012-10-20T10:18:09Z</time>
      </trkpt>
      <trkpt lat="42.412255900" lon="-2.612973300">
        <ele>595.00</ele>
        <time>2012-10-20T10:18:09Z</time>
      </trkpt>
      <trkpt lat="42.412248200" lon="-2.613018000">
        <ele>595.40</ele>
        <time>2012-10-20T10:18:11Z</time>
      </trkpt>
      <trkpt lat="42.412245600" lon="-2.613059500">
        <ele>596.00</ele>
        <time>2012-10-20T10:18:11Z</time>
      </trkpt>
      <trkpt lat="42.412239400" lon="-2.613100700">
        <ele>596.40</ele>
        <time>2012-10-20T10:18:13Z</time>
      </trkpt>
      <trkpt lat="42.412235300" lon="-2.613175500">
        <ele>596.40</ele>
        <time>2012-10-20T10:18:15Z</time>
      </trkpt>
      <trkpt lat="42.412243800" lon="-2.613375100">
        <ele>596.40</ele>
        <time>2012-10-20T10:18:20Z</time>
      </trkpt>
      <trkpt lat="42.412236300" lon="-2.613547300">
        <ele>596.40</ele>
        <time>2012-10-20T10:18:23Z</time>
      </trkpt>
      <trkpt lat="42.412218000" lon="-2.613720000">
        <ele>596.80</ele>
        <time>2012-10-20T10:18:27Z</time>
      </trkpt>
      <trkpt lat="42.412217100" lon="-2.613765300">
        <ele>597.20</ele>
        <time>2012-10-20T10:18:29Z</time>
      </trkpt>
      <trkpt lat="42.412217400" lon="-2.613806300">
        <ele>597.60</ele>
        <time>2012-10-20T10:18:30Z</time>
      </trkpt>
      <trkpt lat="42.412217100" lon="-2.613850200">
        <ele>598.00</ele>
        <time>2012-10-20T10:18:30Z</time>
      </trkpt>
      <trkpt lat="42.412217400" lon="-2.613890800">
        <ele>598.40</ele>
        <time>2012-10-20T10:18:32Z</time>
      </trkpt>
      <trkpt lat="42.412220700" lon="-2.614041800">
        <ele>598.40</ele>
        <time>2012-10-20T10:18:36Z</time>
      </trkpt>
      <trkpt lat="42.412205500" lon="-2.614130700">
        <ele>598.40</ele>
        <time>2012-10-20T10:18:39Z</time>
      </trkpt>
      <trkpt lat="42.412190000" lon="-2.614144500">
        <ele>598.40</ele>
        <time>2012-10-20T10:18:39Z</time>
      </trkpt>
      <trkpt lat="42.412059400" lon="-2.614145800">
        <ele>598.40</ele>
        <time>2012-10-20T10:18:44Z</time>
      </trkpt>
      <trkpt lat="42.412028900" lon="-2.614141800">
        <ele>598.40</ele>
        <time>2012-10-20T10:18:46Z</time>
      </trkpt>
      <trkpt lat="42.411829100" lon="-2.614128700">
        <ele>598.40</ele>
        <time>2012-10-20T10:18:51Z</time>
      </trkpt>
      <trkpt lat="42.411736200" lon="-2.614142700">
        <ele>598.80</ele>
        <time>2012-10-20T10:18:55Z</time>
      </trkpt>
      <trkpt lat="42.411708300" lon="-2.614149600">
        <ele>599.20</ele>
        <time>2012-10-20T10:18:55Z</time>
      </trkpt>
      <trkpt lat="42.411679800" lon="-2.614163600">
        <ele>599.60</ele>
        <time>2012-10-20T10:18:56Z</time>
      </trkpt>
      <trkpt lat="42.411652100" lon="-2.614172000">
        <ele>600.00</ele>
        <time>2012-10-20T10:18:58Z</time>
      </trkpt>
      <trkpt lat="42.411624900" lon="-2.614183700">
        <ele>600.40</ele>
        <time>2012-10-20T10:18:58Z</time>
      </trkpt>
      <trkpt lat="42.411504800" lon="-2.614283200">
        <ele>600.40</ele>
        <time>2012-10-20T10:19:03Z</time>
      </trkpt>
      <trkpt lat="42.411432100" lon="-2.614464200">
        <ele>600.40</ele>
        <time>2012-10-20T10:19:09Z</time>
      </trkpt>
      <trkpt lat="42.411409400" lon="-2.614620500">
        <ele>600.80</ele>
        <time>2012-10-20T10:19:12Z</time>
      </trkpt>
      <trkpt lat="42.411404900" lon="-2.614658800">
        <ele>601.20</ele>
        <time>2012-10-20T10:19:14Z</time>
      </trkpt>
      <trkpt lat="42.411401700" lon="-2.614699000">
        <ele>601.80</ele>
        <time>2012-10-20T10:19:14Z</time>
      </trkpt>
      <trkpt lat="42.411395400" lon="-2.614735900">
        <ele>602.20</ele>
        <time>2012-10-20T10:19:16Z</time>
      </trkpt>
      <trkpt lat="42.411384500" lon="-2.614775000">
        <ele>602.60</ele>
        <time>2012-10-20T10:19:17Z</time>
      </trkpt>
      <trkpt lat="42.411349000" lon="-2.614944100">
        <ele>602.60</ele>
        <time>2012-10-20T10:19:21Z</time>
      </trkpt>
      <trkpt lat="42.411272400" lon="-2.615141000">
        <ele>603.00</ele>
        <time>2012-10-20T10:19:26Z</time>
      </trkpt>
      <trkpt lat="42.411254700" lon="-2.615173800">
        <ele>603.40</ele>
        <time>2012-10-20T10:19:28Z</time>
      </trkpt>
      <trkpt lat="42.411235200" lon="-2.615207900">
        <ele>603.80</ele>
        <time>2012-10-20T10:19:28Z</time>
      </trkpt>
      <trkpt lat="42.411217700" lon="-2.615240000">
        <ele>604.20</ele>
        <time>2012-10-20T10:19:30Z</time>
      </trkpt>
      <trkpt lat="42.411198100" lon="-2.615275900">
        <ele>604.60</ele>
        <time>2012-10-20T10:19:31Z</time>
      </trkpt>
      <trkpt lat="42.411151700" lon="-2.615386100">
        <ele>604.60</ele>
        <time>2012-10-20T10:19:33Z</time>
      </trkpt>
      <trkpt lat="42.411062500" lon="-2.615650500">
        <ele>604.60</ele>
        <time>2012-10-20T10:19:40Z</time>
      </trkpt>
      <trkpt lat="42.410955800" lon="-2.615912900">
        <ele>604.60</ele>
        <time>2012-10-20T10:19:47Z</time>
      </trkpt>
      <trkpt lat="42.410935500" lon="-2.615947600">
        <ele>605.00</ele>
        <time>2012-10-20T10:19:49Z</time>
      </trkpt>
      <trkpt lat="42.410915300" lon="-2.615979500">
        <ele>605.40</ele>
        <time>2012-10-20T10:19:49Z</time>
      </trkpt>
      <trkpt lat="42.410896400" lon="-2.616013900">
        <ele>606.00</ele>
        <time>2012-10-20T10:19:50Z</time>
      </trkpt>
      <trkpt lat="42.410878600" lon="-2.616047400">
        <ele>606.40</ele>
        <time>2012-10-20T10:19:52Z</time>
      </trkpt>
      <trkpt lat="42.410857400" lon="-2.616084400">
        <ele>606.80</ele>
        <time>2012-10-20T10:19:52Z</time>
      </trkpt>
      <trkpt lat="42.410800800" lon="-2.616193300">
        <ele>606.80</ele>
        <time>2012-10-20T10:19:56Z</time>
      </trkpt>
      <trkpt lat="42.410674800" lon="-2.616412300">
        <ele>606.80</ele>
        <time>2012-10-20T10:20:01Z</time>
      </trkpt>
      <trkpt lat="42.410505800" lon="-2.616697000">
        <ele>606.80</ele>
        <time>2012-10-20T10:20:08Z</time>
      </trkpt>
      <trkpt lat="42.410179700" lon="-2.617297100">
        <ele>606.80</ele>
        <time>2012-10-20T10:20:22Z</time>
      </trkpt>
      <trkpt lat="42.410138900" lon="-2.617388600">
        <ele>606.80</ele>
        <time>2012-10-20T10:20:25Z</time>
      </trkpt>
      <trkpt lat="42.410099600" lon="-2.617542700">
        <ele>607.20</ele>
        <time>2012-10-20T10:20:27Z</time>
      </trkpt>
      <trkpt lat="42.410090000" lon="-2.617599700">
        <ele>607.60</ele>
        <time>2012-10-20T10:20:29Z</time>
      </trkpt>
      <trkpt lat="42.410077200" lon="-2.617711500">
        <ele>608.40</ele>
        <time>2012-10-20T10:20:30Z</time>
      </trkpt>
      <trkpt lat="42.410072100" lon="-2.617764200">
        <ele>608.80</ele>
        <time>2012-10-20T10:20:32Z</time>
      </trkpt>
      <trkpt lat="42.410068900" lon="-2.617819200">
        <ele>608.80</ele>
        <time>2012-10-20T10:20:32Z</time>
      </trkpt>
      <trkpt lat="42.410000500" lon="-2.618338500">
        <ele>608.80</ele>
        <time>2012-10-20T10:20:43Z</time>
      </trkpt>
      <trkpt lat="42.409941000" lon="-2.618573400">
        <ele>608.80</ele>
        <time>2012-10-20T10:20:48Z</time>
      </trkpt>
      <trkpt lat="42.409907800" lon="-2.618654800">
        <ele>609.20</ele>
        <time>2012-10-20T10:20:50Z</time>
      </trkpt>
      <trkpt lat="42.409889000" lon="-2.618690100">
        <ele>609.60</ele>
        <time>2012-10-20T10:20:50Z</time>
      </trkpt>
      <trkpt lat="42.409870200" lon="-2.618716600">
        <ele>610.00</ele>
        <time>2012-10-20T10:20:51Z</time>
      </trkpt>
      <trkpt lat="42.409845900" lon="-2.618748600">
        <ele>610.40</ele>
        <time>2012-10-20T10:20:53Z</time>
      </trkpt>
      <trkpt lat="42.409821500" lon="-2.618776100">
        <ele>611.00</ele>
        <time>2012-10-20T10:20:53Z</time>
      </trkpt>
      <trkpt lat="42.409651100" lon="-2.618937500">
        <ele>611.00</ele>
        <time>2012-10-20T10:21:00Z</time>
      </trkpt>
      <trkpt lat="42.409591000" lon="-2.618984600">
        <ele>611.40</ele>
        <time>2012-10-20T10:21:02Z</time>
      </trkpt>
      <trkpt lat="42.409561600" lon="-2.619011100">
        <ele>611.80</ele>
        <time>2012-10-20T10:21:02Z</time>
      </trkpt>
      <trkpt lat="42.409532400" lon="-2.619042200">
        <ele>612.20</ele>
        <time>2012-10-20T10:21:04Z</time>
      </trkpt>
      <trkpt lat="42.409503800" lon="-2.619073200">
        <ele>612.80</ele>
        <time>2012-10-20T10:21:05Z</time>
      </trkpt>
      <trkpt lat="42.409476900" lon="-2.619105600">
        <ele>613.20</ele>
        <time>2012-10-20T10:21:05Z</time>
      </trkpt>
      <trkpt lat="42.409382400" lon="-2.619259300">
        <ele>613.20</ele>
        <time>2012-10-20T10:21:11Z</time>
      </trkpt>
      <trkpt lat="42.409341800" lon="-2.619357900">
        <ele>613.60</ele>
        <time>2012-10-20T10:21:14Z</time>
      </trkpt>
      <trkpt lat="42.409311200" lon="-2.619438000">
        <ele>614.40</ele>
        <time>2012-10-20T10:21:16Z</time>
      </trkpt>
      <trkpt lat="42.409294700" lon="-2.619480500">
        <ele>614.80</ele>
        <time>2012-10-20T10:21:16Z</time>
      </trkpt>
      <trkpt lat="42.409279000" lon="-2.619525400">
        <ele>615.40</ele>
        <time>2012-10-20T10:21:17Z</time>
      </trkpt>
      <trkpt lat="42.409266200" lon="-2.619569000">
        <ele>615.40</ele>
        <time>2012-10-20T10:21:19Z</time>
      </trkpt>
      <trkpt lat="42.409181100" lon="-2.619790700">
        <ele>615.40</ele>
        <time>2012-10-20T10:21:24Z</time>
      </trkpt>
      <trkpt lat="42.409037500" lon="-2.620095400">
        <ele>615.40</ele>
        <time>2012-10-20T10:21:33Z</time>
      </trkpt>
      <trkpt lat="42.408826500" lon="-2.620387200">
        <ele>615.40</ele>
        <time>2012-10-20T10:21:40Z</time>
      </trkpt>
      <trkpt lat="42.408774700" lon="-2.620466500">
        <ele>615.80</ele>
        <time>2012-10-20T10:21:42Z</time>
      </trkpt>
      <trkpt lat="42.408756800" lon="-2.620509700">
        <ele>616.20</ele>
        <time>2012-10-20T10:21:44Z</time>
      </trkpt>
      <trkpt lat="42.408743800" lon="-2.620548800">
        <ele>616.60</ele>
        <time>2012-10-20T10:21:45Z</time>
      </trkpt>
      <trkpt lat="42.408730300" lon="-2.620591500">
        <ele>617.00</ele>
        <time>2012-10-20T10:21:45Z</time>
      </trkpt>
      <trkpt lat="42.408722400" lon="-2.620635000">
        <ele>617.40</ele>
        <time>2012-10-20T10:21:47Z</time>
      </trkpt>
      <trkpt lat="42.408691200" lon="-2.620898500">
        <ele>617.40</ele>
        <time>2012-10-20T10:21:52Z</time>
      </trkpt>
      <trkpt lat="42.408644200" lon="-2.621119500">
        <ele>617.80</ele>
        <time>2012-10-20T10:21:58Z</time>
      </trkpt>
      <trkpt lat="42.408634600" lon="-2.621165400">
        <ele>618.20</ele>
        <time>2012-10-20T10:21:59Z</time>
      </trkpt>
      <trkpt lat="42.408629100" lon="-2.621206900">
        <ele>618.60</ele>
        <time>2012-10-20T10:21:59Z</time>
      </trkpt>
      <trkpt lat="42.408613400" lon="-2.621245300">
        <ele>619.00</ele>
        <time>2012-10-20T10:22:01Z</time>
      </trkpt>
      <trkpt lat="42.408605400" lon="-2.621280900">
        <ele>619.40</ele>
        <time>2012-10-20T10:22:01Z</time>
      </trkpt>
      <trkpt lat="42.408596200" lon="-2.621312000">
        <ele>619.40</ele>
        <time>2012-10-20T10:22:03Z</time>
      </trkpt>
      <trkpt lat="42.408488700" lon="-2.621498600">
        <ele>619.40</ele>
        <time>2012-10-20T10:22:08Z</time>
      </trkpt>
      <trkpt lat="42.408277500" lon="-2.621740100">
        <ele>619.40</ele>
        <time>2012-10-20T10:22:17Z</time>
      </trkpt>
      <trkpt lat="42.408119100" lon="-2.621926900">
        <ele>619.40</ele>
        <time>2012-10-20T10:22:22Z</time>
      </trkpt>
      <trkpt lat="42.408017100" lon="-2.622205800">
        <ele>619.40</ele>
        <time>2012-10-20T10:22:29Z</time>
      </trkpt>
      <trkpt lat="42.407997500" lon="-2.622253300">
        <ele>619.40</ele>
        <time>2012-10-20T10:22:29Z</time>
      </trkpt>
      <trkpt lat="42.407797500" lon="-2.622556300">
        <ele>619.40</ele>
        <time>2012-10-20T10:22:38Z</time>
      </trkpt>
      <trkpt lat="42.407598200" lon="-2.622734400">
        <ele>619.80</ele>
        <time>2012-10-20T10:22:43Z</time>
      </trkpt>
      <trkpt lat="42.407567400" lon="-2.622747000">
        <ele>620.20</ele>
        <time>2012-10-20T10:22:45Z</time>
      </trkpt>
      <trkpt lat="42.407536400" lon="-2.622763000">
        <ele>620.60</ele>
        <time>2012-10-20T10:22:46Z</time>
      </trkpt>
      <trkpt lat="42.407503200" lon="-2.622776700">
        <ele>621.00</ele>
        <time>2012-10-20T10:22:46Z</time>
      </trkpt>
      <trkpt lat="42.407472800" lon="-2.622790600">
        <ele>621.40</ele>
        <time>2012-10-20T10:22:48Z</time>
      </trkpt>
      <trkpt lat="42.407342300" lon="-2.622857600">
        <ele>621.40</ele>
        <time>2012-10-20T10:22:52Z</time>
      </trkpt>
      <trkpt lat="42.407168100" lon="-2.623007900">
        <ele>621.40</ele>
        <time>2012-10-20T10:22:57Z</time>
      </trkpt>
      <trkpt lat="42.407145300" lon="-2.623031200">
        <ele>621.80</ele>
        <time>2012-10-20T10:22:59Z</time>
      </trkpt>
      <trkpt lat="42.407119900" lon="-2.623055900">
        <ele>622.20</ele>
        <time>2012-10-20T10:23:00Z</time>
      </trkpt>
      <trkpt lat="42.407092300" lon="-2.623080900">
        <ele>622.60</ele>
        <time>2012-10-20T10:23:00Z</time>
      </trkpt>
      <trkpt lat="42.407065200" lon="-2.623103100">
        <ele>623.00</ele>
        <time>2012-10-20T10:23:02Z</time>
      </trkpt>
      <trkpt lat="42.407037400" lon="-2.623124700">
        <ele>623.40</ele>
        <time>2012-10-20T10:23:02Z</time>
      </trkpt>
      <trkpt lat="42.406978500" lon="-2.623168100">
        <ele>623.40</ele>
        <time>2012-10-20T10:23:04Z</time>
      </trkpt>
      <trkpt lat="42.406814500" lon="-2.623284100">
        <ele>623.40</ele>
        <time>2012-10-20T10:23:11Z</time>
      </trkpt>
      <trkpt lat="42.406753700" lon="-2.623326400">
        <ele>623.80</ele>
        <time>2012-10-20T10:23:12Z</time>
      </trkpt>
      <trkpt lat="42.406724000" lon="-2.623345200">
        <ele>624.20</ele>
        <time>2012-10-20T10:23:14Z</time>
      </trkpt>
      <trkpt lat="42.406692000" lon="-2.623370000">
        <ele>624.60</ele>
        <time>2012-10-20T10:23:14Z</time>
      </trkpt>
      <trkpt lat="42.406632100" lon="-2.623416800">
        <ele>625.40</ele>
        <time>2012-10-20T10:23:16Z</time>
      </trkpt>
      <trkpt lat="42.406462200" lon="-2.623534600">
        <ele>625.40</ele>
        <time>2012-10-20T10:23:23Z</time>
      </trkpt>
      <trkpt lat="42.406362400" lon="-2.623629200">
        <ele>625.80</ele>
        <time>2012-10-20T10:23:26Z</time>
      </trkpt>
      <trkpt lat="42.406343100" lon="-2.623658200">
        <ele>626.40</ele>
        <time>2012-10-20T10:23:28Z</time>
      </trkpt>
      <trkpt lat="42.406324300" lon="-2.623687800">
        <ele>626.80</ele>
        <time>2012-10-20T10:23:28Z</time>
      </trkpt>
      <trkpt lat="42.406303100" lon="-2.623713100">
        <ele>627.20</ele>
        <time>2012-10-20T10:23:30Z</time>
      </trkpt>
      <trkpt lat="42.406280300" lon="-2.623739200">
        <ele>627.60</ele>
        <time>2012-10-20T10:23:30Z</time>
      </trkpt>
      <trkpt lat="42.406181500" lon="-2.623836400">
        <ele>627.60</ele>
        <time>2012-10-20T10:23:35Z</time>
      </trkpt>
      <trkpt lat="42.406090000" lon="-2.623952400">
        <ele>628.00</ele>
        <time>2012-10-20T10:23:39Z</time>
      </trkpt>
      <trkpt lat="42.406069200" lon="-2.623981000">
        <ele>628.40</ele>
        <time>2012-10-20T10:23:40Z</time>
      </trkpt>
      <trkpt lat="42.406050700" lon="-2.624008100">
        <ele>628.80</ele>
        <time>2012-10-20T10:23:40Z</time>
      </trkpt>
      <trkpt lat="42.406031400" lon="-2.624037600">
        <ele>629.20</ele>
        <time>2012-10-20T10:23:42Z</time>
      </trkpt>
      <trkpt lat="42.406007800" lon="-2.624054800">
        <ele>629.60</ele>
        <time>2012-10-20T10:23:42Z</time>
      </trkpt>
      <trkpt lat="42.405960500" lon="-2.624085800">
        <ele>629.60</ele>
        <time>2012-10-20T10:23:44Z</time>
      </trkpt>
      <trkpt lat="42.405861400" lon="-2.624161300">
        <ele>629.60</ele>
        <time>2012-10-20T10:23:49Z</time>
      </trkpt>
      <trkpt lat="42.405817800" lon="-2.624216500">
        <ele>629.60</ele>
        <time>2012-10-20T10:23:51Z</time>
      </trkpt>
      <trkpt lat="42.405759100" lon="-2.624306900">
        <ele>630.20</ele>
        <time>2012-10-20T10:23:54Z</time>
      </trkpt>
      <trkpt lat="42.405726100" lon="-2.624368200">
        <ele>631.00</ele>
        <time>2012-10-20T10:23:56Z</time>
      </trkpt>
      <trkpt lat="42.405706800" lon="-2.624403600">
        <ele>631.40</ele>
        <time>2012-10-20T10:23:56Z</time>
      </trkpt>
      <trkpt lat="42.405689400" lon="-2.624435200">
        <ele>631.80</ele>
        <time>2012-10-20T10:23:58Z</time>
      </trkpt>
      <trkpt lat="42.405579200" lon="-2.624668400">
        <ele>631.80</ele>
        <time>2012-10-20T10:24:05Z</time>
      </trkpt>
      <trkpt lat="42.405495800" lon="-2.624860600">
        <ele>632.40</ele>
        <time>2012-10-20T10:24:10Z</time>
      </trkpt>
      <trkpt lat="42.405480600" lon="-2.624892700">
        <ele>632.80</ele>
        <time>2012-10-20T10:24:12Z</time>
      </trkpt>
      <trkpt lat="42.405461300" lon="-2.624913000">
        <ele>633.20</ele>
        <time>2012-10-20T10:24:12Z</time>
      </trkpt>
      <trkpt lat="42.405426700" lon="-2.624957100">
        <ele>634.00</ele>
        <time>2012-10-20T10:24:15Z</time>
      </trkpt>
      <trkpt lat="42.405407400" lon="-2.624970600">
        <ele>634.00</ele>
        <time>2012-10-20T10:24:15Z</time>
      </trkpt>
      <trkpt lat="42.405357100" lon="-2.624943100">
        <ele>634.00</ele>
        <time>2012-10-20T10:24:19Z</time>
      </trkpt>
      <trkpt lat="42.405339700" lon="-2.624929200">
        <ele>634.00</ele>
        <time>2012-10-20T10:24:19Z</time>
      </trkpt>
      <trkpt lat="42.405221600" lon="-2.624809500">
        <ele>634.00</ele>
        <time>2012-10-20T10:24:26Z</time>
      </trkpt>
      <trkpt lat="42.405106900" lon="-2.624688000">
        <ele>634.00</ele>
        <time>2012-10-20T10:24:31Z</time>
      </trkpt>
      <trkpt lat="42.405049900" lon="-2.624660600">
        <ele>634.00</ele>
        <time>2012-10-20T10:24:33Z</time>
      </trkpt>
      <trkpt lat="42.404916400" lon="-2.624680400">
        <ele>634.00</ele>
        <time>2012-10-20T10:24:38Z</time>
      </trkpt>
      <trkpt lat="42.404863300" lon="-2.624743100">
        <ele>634.00</ele>
        <time>2012-10-20T10:24:41Z</time>
      </trkpt>
      <trkpt lat="42.404850400" lon="-2.624762000">
        <ele>634.00</ele>
        <time>2012-10-20T10:24:41Z</time>
      </trkpt>
      <trkpt lat="42.404681600" lon="-2.624908100">
        <ele>634.60</ele>
        <time>2012-10-20T10:24:48Z</time>
      </trkpt>
      <trkpt lat="42.404663500" lon="-2.624935600">
        <ele>635.00</ele>
        <time>2012-10-20T10:24:50Z</time>
      </trkpt>
      <trkpt lat="42.404644100" lon="-2.624964600">
        <ele>635.40</ele>
        <time>2012-10-20T10:24:50Z</time>
      </trkpt>
      <trkpt lat="42.404626400" lon="-2.624997800">
        <ele>635.80</ele>
        <time>2012-10-20T10:24:52Z</time>
      </trkpt>
      <trkpt lat="42.404608600" lon="-2.625026300">
        <ele>636.20</ele>
        <time>2012-10-20T10:24:52Z</time>
      </trkpt>
      <trkpt lat="42.404591200" lon="-2.625060000">
        <ele>636.20</ele>
        <time>2012-10-20T10:24:54Z</time>
      </trkpt>
      <trkpt lat="42.404538500" lon="-2.625208900">
        <ele>636.20</ele>
        <time>2012-10-20T10:24:59Z</time>
      </trkpt>
      <trkpt lat="42.404466500" lon="-2.625404500">
        <ele>636.20</ele>
        <time>2012-10-20T10:25:04Z</time>
      </trkpt>
      <trkpt lat="42.404452800" lon="-2.625446300">
        <ele>636.60</ele>
        <time>2012-10-20T10:25:04Z</time>
      </trkpt>
      <trkpt lat="42.404432200" lon="-2.625492100">
        <ele>637.00</ele>
        <time>2012-10-20T10:25:06Z</time>
      </trkpt>
      <trkpt lat="42.404411200" lon="-2.625538800">
        <ele>637.40</ele>
        <time>2012-10-20T10:25:06Z</time>
      </trkpt>
      <trkpt lat="42.404386400" lon="-2.625585800">
        <ele>637.80</ele>
        <time>2012-10-20T10:25:07Z</time>
      </trkpt>
      <trkpt lat="42.404368300" lon="-2.625640700">
        <ele>638.20</ele>
        <time>2012-10-20T10:25:09Z</time>
      </trkpt>
      <trkpt lat="42.404315400" lon="-2.625817900">
        <ele>638.20</ele>
        <time>2012-10-20T10:25:13Z</time>
      </trkpt>
      <trkpt lat="42.404265400" lon="-2.625951400">
        <ele>638.20</ele>
        <time>2012-10-20T10:25:16Z</time>
      </trkpt>
      <trkpt lat="42.404251500" lon="-2.625997700">
        <ele>638.20</ele>
        <time>2012-10-20T10:25:18Z</time>
      </trkpt>
      <trkpt lat="42.404202500" lon="-2.626184200">
        <ele>638.20</ele>
        <time>2012-10-20T10:25:23Z</time>
      </trkpt>
      <trkpt lat="42.404155800" lon="-2.626329900">
        <ele>638.20</ele>
        <time>2012-10-20T10:25:28Z</time>
      </trkpt>
      <trkpt lat="42.404146600" lon="-2.626376700">
        <ele>638.20</ele>
        <time>2012-10-20T10:25:30Z</time>
      </trkpt>
      <trkpt lat="42.404140200" lon="-2.626400500">
        <ele>638.20</ele>
        <time>2012-10-20T10:25:32Z</time>
      </trkpt>
      <trkpt lat="42.404143500" lon="-2.626372900">
        <ele>638.20</ele>
        <time>2012-10-20T10:25:37Z</time>
      </trkpt>
      <trkpt lat="42.403897700" lon="-2.626667300">
        <ele>638.20</ele>
        <time>2012-10-20T10:28:56Z</time>
      </trkpt>
      <trkpt lat="42.403881500" lon="-2.626697700">
        <ele>638.20</ele>
        <time>2012-10-20T10:28:57Z</time>
      </trkpt>
      <trkpt lat="42.403758200" lon="-2.626787500">
        <ele>638.20</ele>
        <time>2012-10-20T10:29:01Z</time>
      </trkpt>
      <trkpt lat="42.403688600" lon="-2.626810000">
        <ele>638.20</ele>
        <time>2012-10-20T10:29:04Z</time>
      </trkpt>
      <trkpt lat="42.403644600" lon="-2.626832000">
        <ele>638.20</ele>
        <time>2012-10-20T10:29:06Z</time>
      </trkpt>
      <trkpt lat="42.403637300" lon="-2.626845700">
        <ele>638.60</ele>
        <time>2012-10-20T10:29:06Z</time>
      </trkpt>
      <trkpt lat="42.403636900" lon="-2.626863600">
        <ele>639.00</ele>
        <time>2012-10-20T10:29:08Z</time>
      </trkpt>
      <trkpt lat="42.403637200" lon="-2.626886000">
        <ele>639.40</ele>
        <time>2012-10-20T10:29:08Z</time>
      </trkpt>
      <trkpt lat="42.403645700" lon="-2.626912800">
        <ele>639.80</ele>
        <time>2012-10-20T10:29:10Z</time>
      </trkpt>
      <trkpt lat="42.403656700" lon="-2.626940800">
        <ele>640.20</ele>
        <time>2012-10-20T10:29:11Z</time>
      </trkpt>
      <trkpt lat="42.403654900" lon="-2.626968900">
        <ele>640.20</ele>
        <time>2012-10-20T10:29:11Z</time>
      </trkpt>
      <trkpt lat="42.403630000" lon="-2.627028700">
        <ele>640.20</ele>
        <time>2012-10-20T10:29:13Z</time>
      </trkpt>
      <trkpt lat="42.403519500" lon="-2.627120200">
        <ele>640.20</ele>
        <time>2012-10-20T10:29:18Z</time>
      </trkpt>
      <trkpt lat="42.403443500" lon="-2.627166800">
        <ele>640.20</ele>
        <time>2012-10-20T10:29:20Z</time>
      </trkpt>
      <trkpt lat="42.403389500" lon="-2.627238700">
        <ele>640.20</ele>
        <time>2012-10-20T10:29:25Z</time>
      </trkpt>
      <trkpt lat="42.403380500" lon="-2.627241500">
        <ele>640.80</ele>
        <time>2012-10-20T10:29:27Z</time>
      </trkpt>
      <trkpt lat="42.403362800" lon="-2.627244100">
        <ele>641.20</ele>
        <time>2012-10-20T10:29:27Z</time>
      </trkpt>
      <trkpt lat="42.403336000" lon="-2.627245400">
        <ele>641.60</ele>
        <time>2012-10-20T10:29:29Z</time>
      </trkpt>
      <trkpt lat="42.403304600" lon="-2.627250400">
        <ele>642.00</ele>
        <time>2012-10-20T10:29:29Z</time>
      </trkpt>
      <trkpt lat="42.403275100" lon="-2.627253600">
        <ele>642.60</ele>
        <time>2012-10-20T10:29:30Z</time>
      </trkpt>
      <trkpt lat="42.403215100" lon="-2.627274200">
        <ele>642.60</ele>
        <time>2012-10-20T10:29:32Z</time>
      </trkpt>
      <trkpt lat="42.403123400" lon="-2.627292500">
        <ele>642.60</ele>
        <time>2012-10-20T10:29:36Z</time>
      </trkpt>
      <trkpt lat="42.403059900" lon="-2.627303400">
        <ele>642.60</ele>
        <time>2012-10-20T10:29:37Z</time>
      </trkpt>
      <trkpt lat="42.402999500" lon="-2.627311900">
        <ele>643.00</ele>
        <time>2012-10-20T10:29:39Z</time>
      </trkpt>
      <trkpt lat="42.402971700" lon="-2.627306100">
        <ele>643.40</ele>
        <time>2012-10-20T10:29:41Z</time>
      </trkpt>
      <trkpt lat="42.402911600" lon="-2.627307000">
        <ele>644.20</ele>
        <time>2012-10-20T10:29:43Z</time>
      </trkpt>
      <trkpt lat="42.402879200" lon="-2.627313000">
        <ele>644.60</ele>
        <time>2012-10-20T10:29:43Z</time>
      </trkpt>
      <trkpt lat="42.402802200" lon="-2.627361700">
        <ele>644.60</ele>
        <time>2012-10-20T10:29:46Z</time>
      </trkpt>
      <trkpt lat="42.402776400" lon="-2.627380800">
        <ele>644.60</ele>
        <time>2012-10-20T10:29:48Z</time>
      </trkpt>
      <trkpt lat="42.402759800" lon="-2.627407100">
        <ele>645.00</ele>
        <time>2012-10-20T10:29:48Z</time>
      </trkpt>
      <trkpt lat="42.402741500" lon="-2.627432400">
        <ele>645.40</ele>
        <time>2012-10-20T10:29:50Z</time>
      </trkpt>
      <trkpt lat="42.402724700" lon="-2.627459500">
        <ele>645.80</ele>
        <time>2012-10-20T10:29:50Z</time>
      </trkpt>
      <trkpt lat="42.402708900" lon="-2.627484100">
        <ele>646.20</ele>
        <time>2012-10-20T10:29:51Z</time>
      </trkpt>
      <trkpt lat="42.402691400" lon="-2.627511600">
        <ele>646.20</ele>
        <time>2012-10-20T10:29:53Z</time>
      </trkpt>
      <trkpt lat="42.402675500" lon="-2.627542500">
        <ele>646.60</ele>
        <time>2012-10-20T10:29:53Z</time>
      </trkpt>
      <trkpt lat="42.402585500" lon="-2.627718500">
        <ele>646.60</ele>
        <time>2012-10-20T10:30:00Z</time>
      </trkpt>
      <trkpt lat="42.402571500" lon="-2.627750600">
        <ele>647.00</ele>
        <time>2012-10-20T10:30:00Z</time>
      </trkpt>
      <trkpt lat="42.402557300" lon="-2.627784500">
        <ele>647.60</ele>
        <time>2012-10-20T10:30:02Z</time>
      </trkpt>
      <trkpt lat="42.402543300" lon="-2.627821700">
        <ele>648.00</ele>
        <time>2012-10-20T10:30:02Z</time>
      </trkpt>
      <trkpt lat="42.402530600" lon="-2.627856600">
        <ele>648.40</ele>
        <time>2012-10-20T10:30:04Z</time>
      </trkpt>
      <trkpt lat="42.402519000" lon="-2.627892800">
        <ele>649.00</ele>
        <time>2012-10-20T10:30:05Z</time>
      </trkpt>
      <trkpt lat="42.402480500" lon="-2.628003300">
        <ele>649.00</ele>
        <time>2012-10-20T10:30:07Z</time>
      </trkpt>
      <trkpt lat="42.402401300" lon="-2.628211600">
        <ele>649.00</ele>
        <time>2012-10-20T10:30:14Z</time>
      </trkpt>
      <trkpt lat="42.402332700" lon="-2.628436400">
        <ele>649.40</ele>
        <time>2012-10-20T10:30:21Z</time>
      </trkpt>
      <trkpt lat="42.402327300" lon="-2.628462300">
        <ele>649.80</ele>
        <time>2012-10-20T10:30:21Z</time>
      </trkpt>
      <trkpt lat="42.402320300" lon="-2.628489100">
        <ele>650.20</ele>
        <time>2012-10-20T10:30:23Z</time>
      </trkpt>
      <trkpt lat="42.402300400" lon="-2.628542700">
        <ele>651.00</ele>
        <time>2012-10-20T10:30:24Z</time>
      </trkpt>
      <trkpt lat="42.402188100" lon="-2.628853800">
        <ele>651.00</ele>
        <time>2012-10-20T10:30:35Z</time>
      </trkpt>
      <trkpt lat="42.402135700" lon="-2.628997600">
        <ele>651.60</ele>
        <time>2012-10-20T10:30:40Z</time>
      </trkpt>
      <trkpt lat="42.402127300" lon="-2.629025600">
        <ele>652.00</ele>
        <time>2012-10-20T10:30:42Z</time>
      </trkpt>
      <trkpt lat="42.402116400" lon="-2.629052700">
        <ele>652.40</ele>
        <time>2012-10-20T10:30:42Z</time>
      </trkpt>
      <trkpt lat="42.402105100" lon="-2.629080200">
        <ele>652.80</ele>
        <time>2012-10-20T10:30:44Z</time>
      </trkpt>
      <trkpt lat="42.402091600" lon="-2.629107400">
        <ele>653.20</ele>
        <time>2012-10-20T10:30:45Z</time>
      </trkpt>
      <trkpt lat="42.402077600" lon="-2.629135200">
        <ele>653.20</ele>
        <time>2012-10-20T10:30:45Z</time>
      </trkpt>
      <trkpt lat="42.401921900" lon="-2.629401100">
        <ele>653.20</ele>
        <time>2012-10-20T10:30:56Z</time>
      </trkpt>
      <trkpt lat="42.401905100" lon="-2.629428300">
        <ele>653.80</ele>
        <time>2012-10-20T10:30:56Z</time>
      </trkpt>
      <trkpt lat="42.401866800" lon="-2.629481900">
        <ele>654.60</ele>
        <time>2012-10-20T10:30:59Z</time>
      </trkpt>
      <trkpt lat="42.401845000" lon="-2.629508900">
        <ele>655.00</ele>
        <time>2012-10-20T10:30:59Z</time>
      </trkpt>
      <trkpt lat="42.401823300" lon="-2.629534000">
        <ele>655.40</ele>
        <time>2012-10-20T10:31:01Z</time>
      </trkpt>
      <trkpt lat="42.401759800" lon="-2.629602800">
        <ele>655.40</ele>
        <time>2012-10-20T10:31:03Z</time>
      </trkpt>
      <trkpt lat="42.401593400" lon="-2.629718700">
        <ele>655.40</ele>
        <time>2012-10-20T10:31:10Z</time>
      </trkpt>
      <trkpt lat="42.401403900" lon="-2.629716800">
        <ele>655.40</ele>
        <time>2012-10-20T10:31:17Z</time>
      </trkpt>
      <trkpt lat="42.401177100" lon="-2.629688800">
        <ele>655.80</ele>
        <time>2012-10-20T10:31:25Z</time>
      </trkpt>
      <trkpt lat="42.401148800" lon="-2.629686100">
        <ele>656.20</ele>
        <time>2012-10-20T10:31:27Z</time>
      </trkpt>
      <trkpt lat="42.401118100" lon="-2.629685800">
        <ele>656.60</ele>
        <time>2012-10-20T10:31:27Z</time>
      </trkpt>
      <trkpt lat="42.401057200" lon="-2.629682100">
        <ele>657.40</ele>
        <time>2012-10-20T10:31:29Z</time>
      </trkpt>
      <trkpt lat="42.400896800" lon="-2.629706900">
        <ele>657.40</ele>
        <time>2012-10-20T10:31:34Z</time>
      </trkpt>
      <trkpt lat="42.400664500" lon="-2.629820900">
        <ele>657.40</ele>
        <time>2012-10-20T10:31:43Z</time>
      </trkpt>
      <trkpt lat="42.400522500" lon="-2.629906000">
        <ele>657.40</ele>
        <time>2012-10-20T10:31:48Z</time>
      </trkpt>
      <trkpt lat="42.400466500" lon="-2.629942800">
        <ele>657.40</ele>
        <time>2012-10-20T10:31:50Z</time>
      </trkpt>
      <trkpt lat="42.400328900" lon="-2.630028900">
        <ele>657.80</ele>
        <time>2012-10-20T10:31:55Z</time>
      </trkpt>
      <trkpt lat="42.400248400" lon="-2.630077800">
        <ele>659.00</ele>
        <time>2012-10-20T10:31:57Z</time>
      </trkpt>
      <trkpt lat="42.400223600" lon="-2.630091700">
        <ele>659.60</ele>
        <time>2012-10-20T10:31:59Z</time>
      </trkpt>
      <trkpt lat="42.400105400" lon="-2.630159100">
        <ele>659.60</ele>
        <time>2012-10-20T10:32:04Z</time>
      </trkpt>
      <trkpt lat="42.399998800" lon="-2.630226200">
        <ele>660.00</ele>
        <time>2012-10-20T10:32:09Z</time>
      </trkpt>
      <trkpt lat="42.399978800" lon="-2.630238200">
        <ele>660.40</ele>
        <time>2012-10-20T10:32:09Z</time>
      </trkpt>
      <trkpt lat="42.399941700" lon="-2.630268000">
        <ele>661.20</ele>
        <time>2012-10-20T10:32:11Z</time>
      </trkpt>
      <trkpt lat="42.399923700" lon="-2.630282000">
        <ele>661.80</ele>
        <time>2012-10-20T10:32:12Z</time>
      </trkpt>
      <trkpt lat="42.399797500" lon="-2.630394700">
        <ele>662.20</ele>
        <time>2012-10-20T10:32:19Z</time>
      </trkpt>
      <trkpt lat="42.399782300" lon="-2.630413400">
        <ele>662.60</ele>
        <time>2012-10-20T10:32:21Z</time>
      </trkpt>
      <trkpt lat="42.399764400" lon="-2.630432700">
        <ele>663.00</ele>
        <time>2012-10-20T10:32:21Z</time>
      </trkpt>
      <trkpt lat="42.399749300" lon="-2.630454200">
        <ele>663.40</ele>
        <time>2012-10-20T10:32:23Z</time>
      </trkpt>
      <trkpt lat="42.399733100" lon="-2.630477800">
        <ele>664.00</ele>
        <time>2012-10-20T10:32:23Z</time>
      </trkpt>
      <trkpt lat="42.399669700" lon="-2.630593600">
        <ele>664.00</ele>
        <time>2012-10-20T10:32:28Z</time>
      </trkpt>
      <trkpt lat="42.399612400" lon="-2.630794700">
        <ele>664.00</ele>
        <time>2012-10-20T10:32:35Z</time>
      </trkpt>
      <trkpt lat="42.399602600" lon="-2.630854400">
        <ele>664.40</ele>
        <time>2012-10-20T10:32:37Z</time>
      </trkpt>
      <trkpt lat="42.399587700" lon="-2.630975900">
        <ele>666.00</ele>
        <time>2012-10-20T10:32:42Z</time>
      </trkpt>
      <trkpt lat="42.399583200" lon="-2.631075200">
        <ele>666.00</ele>
        <time>2012-10-20T10:32:44Z</time>
      </trkpt>
      <trkpt lat="42.399596200" lon="-2.631297700">
        <ele>666.00</ele>
        <time>2012-10-20T10:32:51Z</time>
      </trkpt>
      <trkpt lat="42.399615600" lon="-2.631487000">
        <ele>666.00</ele>
        <time>2012-10-20T10:32:58Z</time>
      </trkpt>
      <trkpt lat="42.399622700" lon="-2.631555000">
        <ele>666.60</ele>
        <time>2012-10-20T10:32:59Z</time>
      </trkpt>
      <trkpt lat="42.399625100" lon="-2.631591400">
        <ele>667.00</ele>
        <time>2012-10-20T10:33:01Z</time>
      </trkpt>
      <trkpt lat="42.399628400" lon="-2.631625700">
        <ele>667.40</ele>
        <time>2012-10-20T10:33:01Z</time>
      </trkpt>
      <trkpt lat="42.399629200" lon="-2.631660700">
        <ele>667.80</ele>
        <time>2012-10-20T10:33:03Z</time>
      </trkpt>
      <trkpt lat="42.399628300" lon="-2.631697400">
        <ele>668.20</ele>
        <time>2012-10-20T10:33:03Z</time>
      </trkpt>
      <trkpt lat="42.399621500" lon="-2.632024400">
        <ele>668.20</ele>
        <time>2012-10-20T10:33:12Z</time>
      </trkpt>
      <trkpt lat="42.399604600" lon="-2.632380700">
        <ele>668.20</ele>
        <time>2012-10-20T10:33:19Z</time>
      </trkpt>
      <trkpt lat="42.399586000" lon="-2.632648900">
        <ele>668.20</ele>
        <time>2012-10-20T10:33:26Z</time>
      </trkpt>
      <trkpt lat="42.399582900" lon="-2.632731500">
        <ele>668.20</ele>
        <time>2012-10-20T10:33:27Z</time>
      </trkpt>
      <trkpt lat="42.399580800" lon="-2.632893900">
        <ele>668.20</ele>
        <time>2012-10-20T10:33:31Z</time>
      </trkpt>
      <trkpt lat="42.399590600" lon="-2.633094600">
        <ele>668.20</ele>
        <time>2012-10-20T10:33:36Z</time>
      </trkpt>
      <trkpt lat="42.399595700" lon="-2.633346800">
        <ele>668.20</ele>
        <time>2012-10-20T10:33:43Z</time>
      </trkpt>
      <trkpt lat="42.399606700" lon="-2.633546000">
        <ele>668.20</ele>
        <time>2012-10-20T10:33:48Z</time>
      </trkpt>
      <trkpt lat="42.399609400" lon="-2.633584300">
        <ele>668.60</ele>
        <time>2012-10-20T10:33:48Z</time>
      </trkpt>
      <trkpt lat="42.399609800" lon="-2.633621200">
        <ele>669.20</ele>
        <time>2012-10-20T10:33:50Z</time>
      </trkpt>
      <trkpt lat="42.399613500" lon="-2.633691300">
        <ele>670.00</ele>
        <time>2012-10-20T10:33:52Z</time>
      </trkpt>
      <trkpt lat="42.399614000" lon="-2.633723400">
        <ele>670.40</ele>
        <time>2012-10-20T10:33:52Z</time>
      </trkpt>
      <trkpt lat="42.399618700" lon="-2.633922500">
        <ele>670.80</ele>
        <time>2012-10-20T10:33:59Z</time>
      </trkpt>
      <trkpt lat="42.399623900" lon="-2.633996000">
        <ele>671.60</ele>
        <time>2012-10-20T10:34:00Z</time>
      </trkpt>
      <trkpt lat="42.399626700" lon="-2.634031000">
        <ele>672.00</ele>
        <time>2012-10-20T10:34:02Z</time>
      </trkpt>
      <trkpt lat="42.399631900" lon="-2.634066900">
        <ele>672.40</ele>
        <time>2012-10-20T10:34:02Z</time>
      </trkpt>
      <trkpt lat="42.399643500" lon="-2.634206500">
        <ele>672.40</ele>
        <time>2012-10-20T10:34:06Z</time>
      </trkpt>
      <trkpt lat="42.399659300" lon="-2.634371100">
        <ele>672.80</ele>
        <time>2012-10-20T10:34:11Z</time>
      </trkpt>
      <trkpt lat="42.399663100" lon="-2.634405300">
        <ele>673.40</ele>
        <time>2012-10-20T10:34:13Z</time>
      </trkpt>
      <trkpt lat="42.399667300" lon="-2.634442400">
        <ele>673.80</ele>
        <time>2012-10-20T10:34:13Z</time>
      </trkpt>
      <trkpt lat="42.399671600" lon="-2.634478600">
        <ele>674.20</ele>
        <time>2012-10-20T10:34:14Z</time>
      </trkpt>
      <trkpt lat="42.399675700" lon="-2.634513200">
        <ele>674.80</ele>
        <time>2012-10-20T10:34:16Z</time>
      </trkpt>
      <trkpt lat="42.399721500" lon="-2.634831600">
        <ele>674.80</ele>
        <time>2012-10-20T10:34:25Z</time>
      </trkpt>
      <trkpt lat="42.399741100" lon="-2.634892500">
        <ele>675.20</ele>
        <time>2012-10-20T10:34:27Z</time>
      </trkpt>
      <trkpt lat="42.399750600" lon="-2.634917600">
        <ele>675.80</ele>
        <time>2012-10-20T10:34:28Z</time>
      </trkpt>
      <trkpt lat="42.399759800" lon="-2.634944800">
        <ele>676.20</ele>
        <time>2012-10-20T10:34:28Z</time>
      </trkpt>
      <trkpt lat="42.399768100" lon="-2.634969900">
        <ele>676.60</ele>
        <time>2012-10-20T10:34:30Z</time>
      </trkpt>
      <trkpt lat="42.399778800" lon="-2.634993300">
        <ele>677.00</ele>
        <time>2012-10-20T10:34:30Z</time>
      </trkpt>
      <trkpt lat="42.399828300" lon="-2.635138600">
        <ele>677.00</ele>
        <time>2012-10-20T10:34:35Z</time>
      </trkpt>
      <trkpt lat="42.399883500" lon="-2.635279800">
        <ele>677.00</ele>
        <time>2012-10-20T10:34:41Z</time>
      </trkpt>
      <trkpt lat="42.399917200" lon="-2.635356200">
        <ele>677.60</ele>
        <time>2012-10-20T10:34:44Z</time>
      </trkpt>
      <trkpt lat="42.399930000" lon="-2.635378300">
        <ele>678.00</ele>
        <time>2012-10-20T10:34:44Z</time>
      </trkpt>
      <trkpt lat="42.399942900" lon="-2.635402600">
        <ele>678.60</ele>
        <time>2012-10-20T10:34:46Z</time>
      </trkpt>
      <trkpt lat="42.399954900" lon="-2.635424100">
        <ele>679.00</ele>
        <time>2012-10-20T10:34:46Z</time>
      </trkpt>
      <trkpt lat="42.399968500" lon="-2.635446700">
        <ele>679.40</ele>
        <time>2012-10-20T10:34:47Z</time>
      </trkpt>
      <trkpt lat="42.400031200" lon="-2.635527900">
        <ele>679.40</ele>
        <time>2012-10-20T10:34:51Z</time>
      </trkpt>
      <trkpt lat="42.400064400" lon="-2.635567900">
        <ele>679.80</ele>
        <time>2012-10-20T10:34:53Z</time>
      </trkpt>
      <trkpt lat="42.400080900" lon="-2.635589800">
        <ele>680.20</ele>
        <time>2012-10-20T10:34:54Z</time>
      </trkpt>
      <trkpt lat="42.400096400" lon="-2.635607500">
        <ele>680.60</ele>
        <time>2012-10-20T10:34:56Z</time>
      </trkpt>
      <trkpt lat="42.400114500" lon="-2.635628400">
        <ele>681.00</ele>
        <time>2012-10-20T10:34:56Z</time>
      </trkpt>
      <trkpt lat="42.400130600" lon="-2.635647000">
        <ele>681.40</ele>
        <time>2012-10-20T10:34:58Z</time>
      </trkpt>
      <trkpt lat="42.400161600" lon="-2.635685200">
        <ele>681.40</ele>
        <time>2012-10-20T10:35:00Z</time>
      </trkpt>
      <trkpt lat="42.400191600" lon="-2.635721200">
        <ele>682.00</ele>
        <time>2012-10-20T10:35:01Z</time>
      </trkpt>
      <trkpt lat="42.400203700" lon="-2.635739200">
        <ele>682.40</ele>
        <time>2012-10-20T10:35:03Z</time>
      </trkpt>
      <trkpt lat="42.400243900" lon="-2.635806000">
        <ele>683.60</ele>
        <time>2012-10-20T10:35:05Z</time>
      </trkpt>
      <trkpt lat="42.400257700" lon="-2.635831000">
        <ele>683.60</ele>
        <time>2012-10-20T10:35:07Z</time>
      </trkpt>
      <trkpt lat="42.400313500" lon="-2.635914700">
        <ele>684.20</ele>
        <time>2012-10-20T10:35:10Z</time>
      </trkpt>
      <trkpt lat="42.400341800" lon="-2.635953900">
        <ele>685.00</ele>
        <time>2012-10-20T10:35:12Z</time>
      </trkpt>
      <trkpt lat="42.400371700" lon="-2.635993900">
        <ele>686.00</ele>
        <time>2012-10-20T10:35:14Z</time>
      </trkpt>
      <trkpt lat="42.400476300" lon="-2.636132700">
        <ele>686.00</ele>
        <time>2012-10-20T10:35:22Z</time>
      </trkpt>
      <trkpt lat="42.400491600" lon="-2.636150700">
        <ele>686.00</ele>
        <time>2012-10-20T10:35:22Z</time>
      </trkpt>
      <trkpt lat="42.400540600" lon="-2.636208900">
        <ele>686.40</ele>
        <time>2012-10-20T10:35:26Z</time>
      </trkpt>
      <trkpt lat="42.400557300" lon="-2.636228700">
        <ele>686.80</ele>
        <time>2012-10-20T10:35:26Z</time>
      </trkpt>
      <trkpt lat="42.400593100" lon="-2.636269800">
        <ele>687.60</ele>
        <time>2012-10-20T10:35:29Z</time>
      </trkpt>
      <trkpt lat="42.400612200" lon="-2.636289900">
        <ele>688.20</ele>
        <time>2012-10-20T10:35:29Z</time>
      </trkpt>
      <trkpt lat="42.400648600" lon="-2.636334300">
        <ele>688.20</ele>
        <time>2012-10-20T10:35:31Z</time>
      </trkpt>
      <trkpt lat="42.400665400" lon="-2.636355600">
        <ele>688.60</ele>
        <time>2012-10-20T10:35:33Z</time>
      </trkpt>
      <trkpt lat="42.400686400" lon="-2.636377700">
        <ele>689.00</ele>
        <time>2012-10-20T10:35:33Z</time>
      </trkpt>
      <trkpt lat="42.400705800" lon="-2.636398400">
        <ele>689.40</ele>
        <time>2012-10-20T10:35:35Z</time>
      </trkpt>
      <trkpt lat="42.400723500" lon="-2.636417300">
        <ele>689.80</ele>
        <time>2012-10-20T10:35:36Z</time>
      </trkpt>
      <trkpt lat="42.400741800" lon="-2.636435400">
        <ele>690.20</ele>
        <time>2012-10-20T10:35:36Z</time>
      </trkpt>
      <trkpt lat="42.400780500" lon="-2.636472900">
        <ele>690.20</ele>
        <time>2012-10-20T10:35:38Z</time>
      </trkpt>
      <trkpt lat="42.400939600" lon="-2.636616200">
        <ele>690.20</ele>
        <time>2012-10-20T10:35:47Z</time>
      </trkpt>
      <trkpt lat="42.401051700" lon="-2.636679500">
        <ele>690.20</ele>
        <time>2012-10-20T10:35:52Z</time>
      </trkpt>
      <trkpt lat="42.401200900" lon="-2.636703500">
        <ele>690.20</ele>
        <time>2012-10-20T10:35:57Z</time>
      </trkpt>
      <trkpt lat="42.401255700" lon="-2.636702700">
        <ele>690.60</ele>
        <time>2012-10-20T10:35:59Z</time>
      </trkpt>
      <trkpt lat="42.401277700" lon="-2.636699800">
        <ele>691.00</ele>
        <time>2012-10-20T10:36:01Z</time>
      </trkpt>
      <trkpt lat="42.401303500" lon="-2.636699500">
        <ele>691.40</ele>
        <time>2012-10-20T10:36:01Z</time>
      </trkpt>
      <trkpt lat="42.401331800" lon="-2.636699900">
        <ele>691.80</ele>
        <time>2012-10-20T10:36:02Z</time>
      </trkpt>
      <trkpt lat="42.401358600" lon="-2.636699300">
        <ele>692.20</ele>
        <time>2012-10-20T10:36:04Z</time>
      </trkpt>
      <trkpt lat="42.401623300" lon="-2.636734500">
        <ele>692.20</ele>
        <time>2012-10-20T10:36:13Z</time>
      </trkpt>
      <trkpt lat="42.401723800" lon="-2.636754500">
        <ele>692.60</ele>
        <time>2012-10-20T10:36:18Z</time>
      </trkpt>
      <trkpt lat="42.401774200" lon="-2.636765700">
        <ele>693.40</ele>
        <time>2012-10-20T10:36:20Z</time>
      </trkpt>
      <trkpt lat="42.401821400" lon="-2.636774700">
        <ele>694.20</ele>
        <time>2012-10-20T10:36:22Z</time>
      </trkpt>
      <trkpt lat="42.401951800" lon="-2.636785100">
        <ele>694.20</ele>
        <time>2012-10-20T10:36:27Z</time>
      </trkpt>
      <trkpt lat="42.402119500" lon="-2.636754600">
        <ele>694.60</ele>
        <time>2012-10-20T10:36:32Z</time>
      </trkpt>
      <trkpt lat="42.402146900" lon="-2.636754700">
        <ele>695.00</ele>
        <time>2012-10-20T10:36:34Z</time>
      </trkpt>
      <trkpt lat="42.402174100" lon="-2.636758600">
        <ele>695.40</ele>
        <time>2012-10-20T10:36:34Z</time>
      </trkpt>
      <trkpt lat="42.402224800" lon="-2.636770800">
        <ele>696.20</ele>
        <time>2012-10-20T10:36:37Z</time>
      </trkpt>
      <trkpt lat="42.402323900" lon="-2.636802600">
        <ele>696.20</ele>
        <time>2012-10-20T10:36:41Z</time>
      </trkpt>
      <trkpt lat="42.402486500" lon="-2.636885500">
        <ele>696.60</ele>
        <time>2012-10-20T10:36:46Z</time>
      </trkpt>
      <trkpt lat="42.402514100" lon="-2.636906600">
        <ele>697.20</ele>
        <time>2012-10-20T10:36:48Z</time>
      </trkpt>
      <trkpt lat="42.402541700" lon="-2.636928300">
        <ele>697.60</ele>
        <time>2012-10-20T10:36:48Z</time>
      </trkpt>
      <trkpt lat="42.402592300" lon="-2.636972800">
        <ele>698.40</ele>
        <time>2012-10-20T10:36:51Z</time>
      </trkpt>
      <trkpt lat="42.402682100" lon="-2.637070500">
        <ele>698.40</ele>
        <time>2012-10-20T10:36:55Z</time>
      </trkpt>
      <trkpt lat="42.402839300" lon="-2.637230300">
        <ele>698.40</ele>
        <time>2012-10-20T10:37:02Z</time>
      </trkpt>
      <trkpt lat="42.402922500" lon="-2.637315400">
        <ele>698.80</ele>
        <time>2012-10-20T10:37:05Z</time>
      </trkpt>
      <trkpt lat="42.402945300" lon="-2.637337500">
        <ele>699.20</ele>
        <time>2012-10-20T10:37:07Z</time>
      </trkpt>
      <trkpt lat="42.403004200" lon="-2.637403800">
        <ele>700.40</ele>
        <time>2012-10-20T10:37:10Z</time>
      </trkpt>
      <trkpt lat="42.403057900" lon="-2.637477200">
        <ele>700.40</ele>
        <time>2012-10-20T10:37:12Z</time>
      </trkpt>
      <trkpt lat="42.403124900" lon="-2.637583800">
        <ele>700.80</ele>
        <time>2012-10-20T10:37:17Z</time>
      </trkpt>
      <trkpt lat="42.403155800" lon="-2.637633600">
        <ele>701.60</ele>
        <time>2012-10-20T10:37:19Z</time>
      </trkpt>
      <trkpt lat="42.403171500" lon="-2.637657400">
        <ele>702.00</ele>
        <time>2012-10-20T10:37:19Z</time>
      </trkpt>
      <trkpt lat="42.403187300" lon="-2.637680200">
        <ele>702.60</ele>
        <time>2012-10-20T10:37:21Z</time>
      </trkpt>
      <trkpt lat="42.403281600" lon="-2.637823400">
        <ele>703.00</ele>
        <time>2012-10-20T10:37:26Z</time>
      </trkpt>
      <trkpt lat="42.403343100" lon="-2.637924200">
        <ele>704.60</ele>
        <time>2012-10-20T10:37:31Z</time>
      </trkpt>
      <trkpt lat="42.403411500" lon="-2.638022600">
        <ele>705.00</ele>
        <time>2012-10-20T10:37:35Z</time>
      </trkpt>
      <trkpt lat="42.403446500" lon="-2.638073600">
        <ele>705.80</ele>
        <time>2012-10-20T10:37:36Z</time>
      </trkpt>
      <trkpt lat="42.403463500" lon="-2.638099700">
        <ele>706.40</ele>
        <time>2012-10-20T10:37:38Z</time>
      </trkpt>
      <trkpt lat="42.403480000" lon="-2.638125200">
        <ele>706.80</ele>
        <time>2012-10-20T10:37:38Z</time>
      </trkpt>
      <trkpt lat="42.403572500" lon="-2.638247900">
        <ele>706.80</ele>
        <time>2012-10-20T10:37:43Z</time>
      </trkpt>
      <trkpt lat="42.403629000" lon="-2.638319400">
        <ele>707.20</ele>
        <time>2012-10-20T10:37:47Z</time>
      </trkpt>
      <trkpt lat="42.403646800" lon="-2.638342100">
        <ele>707.80</ele>
        <time>2012-10-20T10:37:47Z</time>
      </trkpt>
      <trkpt lat="42.403665400" lon="-2.638365200">
        <ele>708.20</ele>
        <time>2012-10-20T10:37:49Z</time>
      </trkpt>
      <trkpt lat="42.403683400" lon="-2.638389000">
        <ele>708.80</ele>
        <time>2012-10-20T10:37:49Z</time>
      </trkpt>
      <trkpt lat="42.403700900" lon="-2.638414600">
        <ele>709.20</ele>
        <time>2012-10-20T10:37:50Z</time>
      </trkpt>
      <trkpt lat="42.403717900" lon="-2.638441900">
        <ele>709.20</ele>
        <time>2012-10-20T10:37:52Z</time>
      </trkpt>
      <trkpt lat="42.403821800" lon="-2.638598100">
        <ele>709.60</ele>
        <time>2012-10-20T10:37:57Z</time>
      </trkpt>
      <trkpt lat="42.403876100" lon="-2.638661800">
        <ele>710.80</ele>
        <time>2012-10-20T10:38:01Z</time>
      </trkpt>
      <trkpt lat="42.403893800" lon="-2.638684100">
        <ele>711.40</ele>
        <time>2012-10-20T10:38:01Z</time>
      </trkpt>
      <trkpt lat="42.403974200" lon="-2.638810700">
        <ele>711.80</ele>
        <time>2012-10-20T10:38:06Z</time>
      </trkpt>
      <trkpt lat="42.403987500" lon="-2.638837600">
        <ele>712.20</ele>
        <time>2012-10-20T10:38:08Z</time>
      </trkpt>
      <trkpt lat="42.403998400" lon="-2.638863800">
        <ele>712.60</ele>
        <time>2012-10-20T10:38:08Z</time>
      </trkpt>
      <trkpt lat="42.404008500" lon="-2.638890500">
        <ele>713.00</ele>
        <time>2012-10-20T10:38:10Z</time>
      </trkpt>
      <trkpt lat="42.404015700" lon="-2.638915800">
        <ele>713.40</ele>
        <time>2012-10-20T10:38:11Z</time>
      </trkpt>
      <trkpt lat="42.404022600" lon="-2.638992300">
        <ele>713.40</ele>
        <time>2012-10-20T10:38:13Z</time>
      </trkpt>
      <trkpt lat="42.403974700" lon="-2.639142200">
        <ele>713.40</ele>
        <time>2012-10-20T10:38:20Z</time>
      </trkpt>
      <trkpt lat="42.403927600" lon="-2.639204300">
        <ele>713.80</ele>
        <time>2012-10-20T10:38:22Z</time>
      </trkpt>
      <trkpt lat="42.403912300" lon="-2.639223600">
        <ele>714.20</ele>
        <time>2012-10-20T10:38:24Z</time>
      </trkpt>
      <trkpt lat="42.403897200" lon="-2.639240200">
        <ele>714.60</ele>
        <time>2012-10-20T10:38:25Z</time>
      </trkpt>
      <trkpt lat="42.403881400" lon="-2.639254600">
        <ele>715.00</ele>
        <time>2012-10-20T10:38:25Z</time>
      </trkpt>
      <trkpt lat="42.403866100" lon="-2.639266300">
        <ele>715.40</ele>
        <time>2012-10-20T10:38:27Z</time>
      </trkpt>
      <trkpt lat="42.403733500" lon="-2.639300600">
        <ele>715.80</ele>
        <time>2012-10-20T10:38:34Z</time>
      </trkpt>
      <trkpt lat="42.403712400" lon="-2.639303500">
        <ele>716.40</ele>
        <time>2012-10-20T10:38:34Z</time>
      </trkpt>
      <trkpt lat="42.403691200" lon="-2.639305200">
        <ele>716.80</ele>
        <time>2012-10-20T10:38:36Z</time>
      </trkpt>
      <trkpt lat="42.403670500" lon="-2.639304200">
        <ele>717.20</ele>
        <time>2012-10-20T10:38:36Z</time>
      </trkpt>
      <trkpt lat="42.403649400" lon="-2.639301500">
        <ele>717.60</ele>
        <time>2012-10-20T10:38:37Z</time>
      </trkpt>
      <trkpt lat="42.403588300" lon="-2.639292000">
        <ele>717.60</ele>
        <time>2012-10-20T10:38:41Z</time>
      </trkpt>
      <trkpt lat="42.403567900" lon="-2.639290500">
        <ele>718.00</ele>
        <time>2012-10-20T10:38:41Z</time>
      </trkpt>
      <trkpt lat="42.403527500" lon="-2.639289700">
        <ele>718.80</ele>
        <time>2012-10-20T10:38:43Z</time>
      </trkpt>
      <trkpt lat="42.403484800" lon="-2.639289900">
        <ele>719.60</ele>
        <time>2012-10-20T10:38:46Z</time>
      </trkpt>
      <trkpt lat="42.403403000" lon="-2.639287700">
        <ele>719.60</ele>
        <time>2012-10-20T10:38:50Z</time>
      </trkpt>
      <trkpt lat="42.403321600" lon="-2.639286800">
        <ele>720.00</ele>
        <time>2012-10-20T10:38:53Z</time>
      </trkpt>
      <trkpt lat="42.403300900" lon="-2.639284900">
        <ele>720.60</ele>
        <time>2012-10-20T10:38:55Z</time>
      </trkpt>
      <trkpt lat="42.403239500" lon="-2.639273900">
        <ele>721.80</ele>
        <time>2012-10-20T10:38:58Z</time>
      </trkpt>
      <trkpt lat="42.403219300" lon="-2.639269100">
        <ele>721.80</ele>
        <time>2012-10-20T10:38:58Z</time>
      </trkpt>
      <trkpt lat="42.403118600" lon="-2.639245200">
        <ele>722.20</ele>
        <time>2012-10-20T10:39:04Z</time>
      </trkpt>
      <trkpt lat="42.403078500" lon="-2.639238100">
        <ele>723.00</ele>
        <time>2012-10-20T10:39:05Z</time>
      </trkpt>
      <trkpt lat="42.403059200" lon="-2.639234800">
        <ele>723.40</ele>
        <time>2012-10-20T10:39:07Z</time>
      </trkpt>
      <trkpt lat="42.403040100" lon="-2.639232700">
        <ele>723.80</ele>
        <time>2012-10-20T10:39:07Z</time>
      </trkpt>
      <trkpt lat="42.402926400" lon="-2.639222000">
        <ele>723.80</ele>
        <time>2012-10-20T10:39:14Z</time>
      </trkpt>
      <trkpt lat="42.402887100" lon="-2.639217700">
        <ele>724.20</ele>
        <time>2012-10-20T10:39:16Z</time>
      </trkpt>
      <trkpt lat="42.402866600" lon="-2.639218100">
        <ele>724.80</ele>
        <time>2012-10-20T10:39:16Z</time>
      </trkpt>
      <trkpt lat="42.402803100" lon="-2.639221000">
        <ele>726.00</ele>
        <time>2012-10-20T10:39:19Z</time>
      </trkpt>
      <trkpt lat="42.402759400" lon="-2.639217600">
        <ele>726.00</ele>
        <time>2012-10-20T10:39:21Z</time>
      </trkpt>
      <trkpt lat="42.402632400" lon="-2.639193800">
        <ele>726.40</ele>
        <time>2012-10-20T10:39:28Z</time>
      </trkpt>
      <trkpt lat="42.402611100" lon="-2.639190200">
        <ele>726.80</ele>
        <time>2012-10-20T10:39:28Z</time>
      </trkpt>
      <trkpt lat="42.402588900" lon="-2.639185300">
        <ele>727.20</ele>
        <time>2012-10-20T10:39:30Z</time>
      </trkpt>
      <trkpt lat="42.402543200" lon="-2.639174400">
        <ele>728.00</ele>
        <time>2012-10-20T10:39:31Z</time>
      </trkpt>
      <trkpt lat="42.402433100" lon="-2.639153900">
        <ele>728.00</ele>
        <time>2012-10-20T10:39:37Z</time>
      </trkpt>
      <trkpt lat="42.402332900" lon="-2.639128700">
        <ele>728.40</ele>
        <time>2012-10-20T10:39:42Z</time>
      </trkpt>
      <trkpt lat="42.402291600" lon="-2.639127000">
        <ele>729.20</ele>
        <time>2012-10-20T10:39:44Z</time>
      </trkpt>
      <trkpt lat="42.402270300" lon="-2.639126700">
        <ele>729.80</ele>
        <time>2012-10-20T10:39:45Z</time>
      </trkpt>
      <trkpt lat="42.402249400" lon="-2.639126500">
        <ele>730.20</ele>
        <time>2012-10-20T10:39:45Z</time>
      </trkpt>
      <trkpt lat="42.402101100" lon="-2.639119500">
        <ele>730.60</ele>
        <time>2012-10-20T10:39:52Z</time>
      </trkpt>
      <trkpt lat="42.402060500" lon="-2.639115700">
        <ele>731.40</ele>
        <time>2012-10-20T10:39:54Z</time>
      </trkpt>
      <trkpt lat="42.402040200" lon="-2.639112000">
        <ele>731.80</ele>
        <time>2012-10-20T10:39:56Z</time>
      </trkpt>
      <trkpt lat="42.402019100" lon="-2.639107300">
        <ele>732.20</ele>
        <time>2012-10-20T10:39:56Z</time>
      </trkpt>
      <trkpt lat="42.401875600" lon="-2.639081200">
        <ele>732.20</ele>
        <time>2012-10-20T10:40:03Z</time>
      </trkpt>
      <trkpt lat="42.401816900" lon="-2.639077400">
        <ele>732.60</ele>
        <time>2012-10-20T10:40:06Z</time>
      </trkpt>
      <trkpt lat="42.401738800" lon="-2.639058100">
        <ele>734.20</ele>
        <time>2012-10-20T10:40:10Z</time>
      </trkpt>
      <trkpt lat="42.401718900" lon="-2.639053900">
        <ele>734.20</ele>
        <time>2012-10-20T10:40:12Z</time>
      </trkpt>
      <trkpt lat="42.401554400" lon="-2.639022300">
        <ele>734.60</ele>
        <time>2012-10-20T10:40:20Z</time>
      </trkpt>
      <trkpt lat="42.401534300" lon="-2.639017400">
        <ele>735.20</ele>
        <time>2012-10-20T10:40:20Z</time>
      </trkpt>
      <trkpt lat="42.401514600" lon="-2.639014900">
        <ele>735.60</ele>
        <time>2012-10-20T10:40:22Z</time>
      </trkpt>
      <trkpt lat="42.401495900" lon="-2.639013800">
        <ele>736.00</ele>
        <time>2012-10-20T10:40:22Z</time>
      </trkpt>
      <trkpt lat="42.401477800" lon="-2.639014800">
        <ele>736.40</ele>
        <time>2012-10-20T10:40:24Z</time>
      </trkpt>
      <trkpt lat="42.401405200" lon="-2.639015200">
        <ele>736.40</ele>
        <time>2012-10-20T10:40:27Z</time>
      </trkpt>
      <trkpt lat="42.401322600" lon="-2.639007800">
        <ele>736.80</ele>
        <time>2012-10-20T10:40:31Z</time>
      </trkpt>
      <trkpt lat="42.401261600" lon="-2.639001600">
        <ele>738.00</ele>
        <time>2012-10-20T10:40:34Z</time>
      </trkpt>
      <trkpt lat="42.401242100" lon="-2.639000600">
        <ele>738.40</ele>
        <time>2012-10-20T10:40:36Z</time>
      </trkpt>
      <trkpt lat="42.401223400" lon="-2.638998700">
        <ele>738.40</ele>
        <time>2012-10-20T10:40:36Z</time>
      </trkpt>
      <trkpt lat="42.401074600" lon="-2.638966700">
        <ele>738.80</ele>
        <time>2012-10-20T10:40:45Z</time>
      </trkpt>
      <trkpt lat="42.401035800" lon="-2.638955500">
        <ele>739.60</ele>
        <time>2012-10-20T10:40:46Z</time>
      </trkpt>
      <trkpt lat="42.401017500" lon="-2.638952200">
        <ele>740.20</ele>
        <time>2012-10-20T10:40:48Z</time>
      </trkpt>
      <trkpt lat="42.400999100" lon="-2.638949900">
        <ele>740.60</ele>
        <time>2012-10-20T10:40:48Z</time>
      </trkpt>
      <trkpt lat="42.400927600" lon="-2.638936400">
        <ele>740.60</ele>
        <time>2012-10-20T10:40:53Z</time>
      </trkpt>
      <trkpt lat="42.400833400" lon="-2.638918800">
        <ele>741.00</ele>
        <time>2012-10-20T10:40:57Z</time>
      </trkpt>
      <trkpt lat="42.400792900" lon="-2.638915000">
        <ele>741.80</ele>
        <time>2012-10-20T10:41:00Z</time>
      </trkpt>
      <trkpt lat="42.400772300" lon="-2.638913500">
        <ele>742.40</ele>
        <time>2012-10-20T10:41:00Z</time>
      </trkpt>
      <trkpt lat="42.400752400" lon="-2.638912300">
        <ele>742.80</ele>
        <time>2012-10-20T10:41:02Z</time>
      </trkpt>
      <trkpt lat="42.400713700" lon="-2.638908600">
        <ele>742.80</ele>
        <time>2012-10-20T10:41:04Z</time>
      </trkpt>
      <trkpt lat="42.400562100" lon="-2.638887700">
        <ele>743.20</ele>
        <time>2012-10-20T10:41:11Z</time>
      </trkpt>
      <trkpt lat="42.400542500" lon="-2.638886400">
        <ele>743.60</ele>
        <time>2012-10-20T10:41:12Z</time>
      </trkpt>
      <trkpt lat="42.400523800" lon="-2.638885100">
        <ele>744.00</ele>
        <time>2012-10-20T10:41:14Z</time>
      </trkpt>
      <trkpt lat="42.400486300" lon="-2.638880800">
        <ele>744.80</ele>
        <time>2012-10-20T10:41:16Z</time>
      </trkpt>
      <trkpt lat="42.400329300" lon="-2.638860700">
        <ele>744.80</ele>
        <time>2012-10-20T10:41:23Z</time>
      </trkpt>
      <trkpt lat="42.400250600" lon="-2.638851900">
        <ele>745.20</ele>
        <time>2012-10-20T10:41:28Z</time>
      </trkpt>
      <trkpt lat="42.400230800" lon="-2.638848300">
        <ele>745.80</ele>
        <time>2012-10-20T10:41:28Z</time>
      </trkpt>
      <trkpt lat="42.400171900" lon="-2.638839400">
        <ele>747.00</ele>
        <time>2012-10-20T10:41:32Z</time>
      </trkpt>
      <trkpt lat="42.400151600" lon="-2.638836300">
        <ele>747.00</ele>
        <time>2012-10-20T10:41:33Z</time>
      </trkpt>
      <trkpt lat="42.399997300" lon="-2.638819800">
        <ele>747.60</ele>
        <time>2012-10-20T10:41:40Z</time>
      </trkpt>
      <trkpt lat="42.399957700" lon="-2.638819100">
        <ele>748.40</ele>
        <time>2012-10-20T10:41:42Z</time>
      </trkpt>
      <trkpt lat="42.399938200" lon="-2.638818500">
        <ele>749.00</ele>
        <time>2012-10-20T10:41:44Z</time>
      </trkpt>
      <trkpt lat="42.399919100" lon="-2.638817500">
        <ele>749.40</ele>
        <time>2012-10-20T10:41:44Z</time>
      </trkpt>
      <trkpt lat="42.399825100" lon="-2.638813300">
        <ele>749.40</ele>
        <time>2012-10-20T10:41:49Z</time>
      </trkpt>
      <trkpt lat="42.399715200" lon="-2.638794000">
        <ele>749.80</ele>
        <time>2012-10-20T10:41:56Z</time>
      </trkpt>
      <trkpt lat="42.399680300" lon="-2.638787700">
        <ele>750.60</ele>
        <time>2012-10-20T10:41:58Z</time>
      </trkpt>
      <trkpt lat="42.399661900" lon="-2.638784300">
        <ele>751.20</ele>
        <time>2012-10-20T10:41:58Z</time>
      </trkpt>
      <trkpt lat="42.399642600" lon="-2.638780800">
        <ele>751.60</ele>
        <time>2012-10-20T10:42:00Z</time>
      </trkpt>
      <trkpt lat="42.399469800" lon="-2.638760200">
        <ele>751.60</ele>
        <time>2012-10-20T10:42:08Z</time>
      </trkpt>
      <trkpt lat="42.399392800" lon="-2.638752500">
        <ele>752.00</ele>
        <time>2012-10-20T10:42:12Z</time>
      </trkpt>
      <trkpt lat="42.399374200" lon="-2.638750200">
        <ele>752.40</ele>
        <time>2012-10-20T10:42:12Z</time>
      </trkpt>
      <trkpt lat="42.399355000" lon="-2.638746800">
        <ele>752.80</ele>
        <time>2012-10-20T10:42:13Z</time>
      </trkpt>
      <trkpt lat="42.399315200" lon="-2.638737400">
        <ele>753.60</ele>
        <time>2012-10-20T10:42:15Z</time>
      </trkpt>
      <trkpt lat="42.399294100" lon="-2.638732800">
        <ele>753.60</ele>
        <time>2012-10-20T10:42:17Z</time>
      </trkpt>
      <trkpt lat="42.399061200" lon="-2.638695500">
        <ele>753.60</ele>
        <time>2012-10-20T10:42:26Z</time>
      </trkpt>
      <trkpt lat="42.398861300" lon="-2.638647300">
        <ele>753.60</ele>
        <time>2012-10-20T10:42:34Z</time>
      </trkpt>
      <trkpt lat="42.398623400" lon="-2.638554700">
        <ele>753.60</ele>
        <time>2012-10-20T10:42:41Z</time>
      </trkpt>
      <trkpt lat="42.398473400" lon="-2.638467400">
        <ele>753.60</ele>
        <time>2012-10-20T10:42:45Z</time>
      </trkpt>
      <trkpt lat="42.398416000" lon="-2.638421200">
        <ele>753.60</ele>
        <time>2012-10-20T10:42:48Z</time>
      </trkpt>
      <trkpt lat="42.398243500" lon="-2.638300900">
        <ele>753.60</ele>
        <time>2012-10-20T10:42:54Z</time>
      </trkpt>
      <trkpt lat="42.398104400" lon="-2.638260700">
        <ele>753.60</ele>
        <time>2012-10-20T10:42:59Z</time>
      </trkpt>
      <trkpt lat="42.398054800" lon="-2.638240800">
        <ele>753.60</ele>
        <time>2012-10-20T10:43:00Z</time>
      </trkpt>
      <trkpt lat="42.397998800" lon="-2.638215600">
        <ele>753.60</ele>
        <time>2012-10-20T10:43:04Z</time>
      </trkpt>
      <trkpt lat="42.397929900" lon="-2.638199500">
        <ele>753.60</ele>
        <time>2012-10-20T10:43:07Z</time>
      </trkpt>
      <trkpt lat="42.397864900" lon="-2.638192900">
        <ele>753.60</ele>
        <time>2012-10-20T10:43:11Z</time>
      </trkpt>
      <trkpt lat="42.397754000" lon="-2.638163100">
        <ele>753.60</ele>
        <time>2012-10-20T10:43:16Z</time>
      </trkpt>
      <trkpt lat="42.397732200" lon="-2.638155200">
        <ele>753.60</ele>
        <time>2012-10-20T10:43:16Z</time>
      </trkpt>
      <trkpt lat="42.397585100" lon="-2.638081300">
        <ele>753.60</ele>
        <time>2012-10-20T10:43:23Z</time>
      </trkpt>
      <trkpt lat="42.397404100" lon="-2.637977000">
        <ele>753.60</ele>
        <time>2012-10-20T10:43:32Z</time>
      </trkpt>
      <trkpt lat="42.397258300" lon="-2.637900300">
        <ele>753.60</ele>
        <time>2012-10-20T10:43:37Z</time>
      </trkpt>
      <trkpt lat="42.397161100" lon="-2.637840100">
        <ele>753.60</ele>
        <time>2012-10-20T10:43:42Z</time>
      </trkpt>
      <trkpt lat="42.397081900" lon="-2.637798300">
        <ele>753.60</ele>
        <time>2012-10-20T10:43:44Z</time>
      </trkpt>
      <trkpt lat="42.396886200" lon="-2.637710400">
        <ele>753.60</ele>
        <time>2012-10-20T10:43:51Z</time>
      </trkpt>
      <trkpt lat="42.396796400" lon="-2.637675800">
        <ele>753.60</ele>
        <time>2012-10-20T10:43:54Z</time>
      </trkpt>
      <trkpt lat="42.396709200" lon="-2.637637200">
        <ele>753.60</ele>
        <time>2012-10-20T10:43:58Z</time>
      </trkpt>
      <trkpt lat="42.396655800" lon="-2.637616800">
        <ele>753.60</ele>
        <time>2012-10-20T10:44:00Z</time>
      </trkpt>
      <trkpt lat="42.396430400" lon="-2.637571700">
        <ele>753.60</ele>
        <time>2012-10-20T10:44:07Z</time>
      </trkpt>
      <trkpt lat="42.396274800" lon="-2.637573300">
        <ele>753.60</ele>
        <time>2012-10-20T10:44:14Z</time>
      </trkpt>
      <trkpt lat="42.396169000" lon="-2.637567900">
        <ele>753.60</ele>
        <time>2012-10-20T10:44:19Z</time>
      </trkpt>
      <trkpt lat="42.396070000" lon="-2.637571200">
        <ele>753.60</ele>
        <time>2012-10-20T10:44:24Z</time>
      </trkpt>
      <trkpt lat="42.396022400" lon="-2.637568100">
        <ele>753.60</ele>
        <time>2012-10-20T10:44:26Z</time>
      </trkpt>
      <trkpt lat="42.395972900" lon="-2.637567900">
        <ele>753.60</ele>
        <time>2012-10-20T10:44:29Z</time>
      </trkpt>
      <trkpt lat="42.395819800" lon="-2.637581200">
        <ele>753.60</ele>
        <time>2012-10-20T10:44:40Z</time>
      </trkpt>
      <trkpt lat="42.395819900" lon="-2.637560500">
        <ele>753.60</ele>
        <time>2012-10-20T10:45:06Z</time>
      </trkpt>
      <trkpt lat="42.395793100" lon="-2.637556300">
        <ele>753.60</ele>
        <time>2012-10-20T10:45:09Z</time>
      </trkpt>
      <trkpt lat="42.395769500" lon="-2.637555900">
        <ele>753.60</ele>
        <time>2012-10-20T10:45:11Z</time>
      </trkpt>
      <trkpt lat="42.395718000" lon="-2.637570700">
        <ele>753.60</ele>
        <time>2012-10-20T10:45:15Z</time>
      </trkpt>
      <trkpt lat="42.395578800" lon="-2.637627800">
        <ele>753.60</ele>
        <time>2012-10-20T10:45:22Z</time>
      </trkpt>
      <trkpt lat="42.395544500" lon="-2.637647500">
        <ele>753.60</ele>
        <time>2012-10-20T10:45:23Z</time>
      </trkpt>
      <trkpt lat="42.395508000" lon="-2.637672400">
        <ele>753.60</ele>
        <time>2012-10-20T10:45:23Z</time>
      </trkpt>
      <trkpt lat="42.395421200" lon="-2.637741800">
        <ele>753.20</ele>
        <time>2012-10-20T10:45:25Z</time>
      </trkpt>
      <trkpt lat="42.395309800" lon="-2.637850200">
        <ele>752.80</ele>
        <time>2012-10-20T10:45:27Z</time>
      </trkpt>
      <trkpt lat="42.395252300" lon="-2.637905500">
        <ele>752.40</ele>
        <time>2012-10-20T10:45:27Z</time>
      </trkpt>
      <trkpt lat="42.395194800" lon="-2.637968200">
        <ele>751.80</ele>
        <time>2012-10-20T10:45:29Z</time>
      </trkpt>
      <trkpt lat="42.395135000" lon="-2.638039700">
        <ele>751.40</ele>
        <time>2012-10-20T10:45:30Z</time>
      </trkpt>
      <trkpt lat="42.395074600" lon="-2.638117900">
        <ele>750.80</ele>
        <time>2012-10-20T10:45:30Z</time>
      </trkpt>
      <trkpt lat="42.395006600" lon="-2.638200300">
        <ele>750.40</ele>
        <time>2012-10-20T10:45:32Z</time>
      </trkpt>
      <trkpt lat="42.394937800" lon="-2.638282300">
        <ele>749.60</ele>
        <time>2012-10-20T10:45:32Z</time>
      </trkpt>
      <trkpt lat="42.394865700" lon="-2.638377400">
        <ele>748.80</ele>
        <time>2012-10-20T10:45:34Z</time>
      </trkpt>
      <trkpt lat="42.394800700" lon="-2.638464900">
        <ele>748.00</ele>
        <time>2012-10-20T10:45:34Z</time>
      </trkpt>
      <trkpt lat="42.394725500" lon="-2.638561800">
        <ele>747.40</ele>
        <time>2012-10-20T10:45:35Z</time>
      </trkpt>
      <trkpt lat="42.394576800" lon="-2.638761800">
        <ele>745.80</ele>
        <time>2012-10-20T10:45:37Z</time>
      </trkpt>
      <trkpt lat="42.394512300" lon="-2.638857800">
        <ele>745.20</ele>
        <time>2012-10-20T10:45:39Z</time>
      </trkpt>
      <trkpt lat="42.394448700" lon="-2.638953700">
        <ele>744.40</ele>
        <time>2012-10-20T10:45:39Z</time>
      </trkpt>
      <trkpt lat="42.394338000" lon="-2.639129600">
        <ele>743.60</ele>
        <time>2012-10-20T10:45:41Z</time>
      </trkpt>
      <trkpt lat="42.394284900" lon="-2.639218300">
        <ele>743.20</ele>
        <time>2012-10-20T10:45:42Z</time>
      </trkpt>
      <trkpt lat="42.394176600" lon="-2.639383900">
        <ele>742.40</ele>
        <time>2012-10-20T10:45:44Z</time>
      </trkpt>
      <trkpt lat="42.393945300" lon="-2.639682700">
        <ele>742.40</ele>
        <time>2012-10-20T10:45:49Z</time>
      </trkpt>
      <trkpt lat="42.393866000" lon="-2.639796400">
        <ele>742.40</ele>
        <time>2012-10-20T10:45:51Z</time>
      </trkpt>
      <trkpt lat="42.393734400" lon="-2.639996600">
        <ele>742.40</ele>
        <time>2012-10-20T10:45:55Z</time>
      </trkpt>
      <trkpt lat="42.393672600" lon="-2.640087500">
        <ele>742.40</ele>
        <time>2012-10-20T10:45:58Z</time>
      </trkpt>
      <trkpt lat="42.393638800" lon="-2.640128900">
        <ele>742.40</ele>
        <time>2012-10-20T10:45:58Z</time>
      </trkpt>
      <trkpt lat="42.393530500" lon="-2.640298300">
        <ele>742.40</ele>
        <time>2012-10-20T10:46:02Z</time>
      </trkpt>
      <trkpt lat="42.393482400" lon="-2.640386900">
        <ele>742.40</ele>
        <time>2012-10-20T10:46:05Z</time>
      </trkpt>
      <trkpt lat="42.393224700" lon="-2.640744600">
        <ele>742.40</ele>
        <time>2012-10-20T10:46:14Z</time>
      </trkpt>
      <trkpt lat="42.393046900" lon="-2.641210300">
        <ele>742.40</ele>
        <time>2012-10-20T10:46:26Z</time>
      </trkpt>
      <trkpt lat="42.392959200" lon="-2.641407000">
        <ele>742.40</ele>
        <time>2012-10-20T10:46:31Z</time>
      </trkpt>
      <trkpt lat="42.392945200" lon="-2.641443700">
        <ele>742.40</ele>
        <time>2012-10-20T10:46:33Z</time>
      </trkpt>
      <trkpt lat="42.392826400" lon="-2.641617000">
        <ele>742.40</ele>
        <time>2012-10-20T10:46:38Z</time>
      </trkpt>
      <trkpt lat="42.392697800" lon="-2.641767800">
        <ele>742.40</ele>
        <time>2012-10-20T10:46:42Z</time>
      </trkpt>
      <trkpt lat="42.392548500" lon="-2.641886900">
        <ele>742.40</ele>
        <time>2012-10-20T10:46:49Z</time>
      </trkpt>
      <trkpt lat="42.392494900" lon="-2.641921400">
        <ele>742.40</ele>
        <time>2012-10-20T10:46:50Z</time>
      </trkpt>
      <trkpt lat="42.392408600" lon="-2.641939700">
        <ele>742.80</ele>
        <time>2012-10-20T10:46:54Z</time>
      </trkpt>
      <trkpt lat="42.392347800" lon="-2.641937900">
        <ele>743.60</ele>
        <time>2012-10-20T10:46:56Z</time>
      </trkpt>
      <trkpt lat="42.392317600" lon="-2.641935900">
        <ele>744.20</ele>
        <time>2012-10-20T10:46:57Z</time>
      </trkpt>
      <trkpt lat="42.392288300" lon="-2.641933000">
        <ele>744.60</ele>
        <time>2012-10-20T10:46:57Z</time>
      </trkpt>
      <trkpt lat="42.392227600" lon="-2.641916100">
        <ele>744.60</ele>
        <time>2012-10-20T10:46:59Z</time>
      </trkpt>
      <trkpt lat="42.392030100" lon="-2.641893700">
        <ele>744.60</ele>
        <time>2012-10-20T10:47:04Z</time>
      </trkpt>
      <trkpt lat="42.391747600" lon="-2.641962000">
        <ele>744.00</ele>
        <time>2012-10-20T10:47:11Z</time>
      </trkpt>
      <trkpt lat="42.391693400" lon="-2.641980200">
        <ele>743.60</ele>
        <time>2012-10-20T10:47:11Z</time>
      </trkpt>
      <trkpt lat="42.391637800" lon="-2.642004300">
        <ele>743.20</ele>
        <time>2012-10-20T10:47:13Z</time>
      </trkpt>
      <trkpt lat="42.391583000" lon="-2.642031900">
        <ele>742.60</ele>
        <time>2012-10-20T10:47:13Z</time>
      </trkpt>
      <trkpt lat="42.391528400" lon="-2.642061200">
        <ele>742.20</ele>
        <time>2012-10-20T10:47:15Z</time>
      </trkpt>
      <trkpt lat="42.391357900" lon="-2.642147900">
        <ele>741.80</ele>
        <time>2012-10-20T10:47:18Z</time>
      </trkpt>
      <trkpt lat="42.391298400" lon="-2.642174400">
        <ele>741.40</ele>
        <time>2012-10-20T10:47:18Z</time>
      </trkpt>
      <trkpt lat="42.391237200" lon="-2.642201100">
        <ele>740.80</ele>
        <time>2012-10-20T10:47:20Z</time>
      </trkpt>
      <trkpt lat="42.391177400" lon="-2.642226400">
        <ele>740.40</ele>
        <time>2012-10-20T10:47:20Z</time>
      </trkpt>
      <trkpt lat="42.391114100" lon="-2.642250800">
        <ele>740.00</ele>
        <time>2012-10-20T10:47:22Z</time>
      </trkpt>
      <trkpt lat="42.390908900" lon="-2.642313100">
        <ele>739.60</ele>
        <time>2012-10-20T10:47:25Z</time>
      </trkpt>
      <trkpt lat="42.390840300" lon="-2.642326100">
        <ele>739.00</ele>
        <time>2012-10-20T10:47:25Z</time>
      </trkpt>
      <trkpt lat="42.390767500" lon="-2.642336100">
        <ele>738.60</ele>
        <time>2012-10-20T10:47:27Z</time>
      </trkpt>
      <trkpt lat="42.390688500" lon="-2.642340700">
        <ele>738.20</ele>
        <time>2012-10-20T10:47:27Z</time>
      </trkpt>
      <trkpt lat="42.390606100" lon="-2.642338800">
        <ele>737.60</ele>
        <time>2012-10-20T10:47:29Z</time>
      </trkpt>
      <trkpt lat="42.390523500" lon="-2.642328700">
        <ele>737.00</ele>
        <time>2012-10-20T10:47:29Z</time>
      </trkpt>
      <trkpt lat="42.390440200" lon="-2.642308600">
        <ele>736.60</ele>
        <time>2012-10-20T10:47:30Z</time>
      </trkpt>
      <trkpt lat="42.390279500" lon="-2.642248000">
        <ele>736.00</ele>
        <time>2012-10-20T10:47:32Z</time>
      </trkpt>
      <trkpt lat="42.390203300" lon="-2.642211200">
        <ele>735.60</ele>
        <time>2012-10-20T10:47:34Z</time>
      </trkpt>
      <trkpt lat="42.390127500" lon="-2.642174400">
        <ele>735.00</ele>
        <time>2012-10-20T10:47:34Z</time>
      </trkpt>
      <trkpt lat="42.390054600" lon="-2.642139400">
        <ele>734.40</ele>
        <time>2012-10-20T10:47:36Z</time>
      </trkpt>
      <trkpt lat="42.389918200" lon="-2.642080100">
        <ele>734.00</ele>
        <time>2012-10-20T10:47:37Z</time>
      </trkpt>
      <trkpt lat="42.389849800" lon="-2.642053600">
        <ele>733.40</ele>
        <time>2012-10-20T10:47:39Z</time>
      </trkpt>
      <trkpt lat="42.389653300" lon="-2.641980000">
        <ele>732.20</ele>
        <time>2012-10-20T10:47:41Z</time>
      </trkpt>
      <trkpt lat="42.389533000" lon="-2.641929400">
        <ele>731.80</ele>
        <time>2012-10-20T10:47:43Z</time>
      </trkpt>
      <trkpt lat="42.389465400" lon="-2.641914300">
        <ele>731.20</ele>
        <time>2012-10-20T10:47:44Z</time>
      </trkpt>
      <trkpt lat="42.389392000" lon="-2.641915700">
        <ele>730.80</ele>
        <time>2012-10-20T10:47:46Z</time>
      </trkpt>
      <trkpt lat="42.389077800" lon="-2.642039300">
        <ele>730.40</ele>
        <time>2012-10-20T10:47:50Z</time>
      </trkpt>
      <trkpt lat="42.389000300" lon="-2.642082800">
        <ele>730.00</ele>
        <time>2012-10-20T10:47:50Z</time>
      </trkpt>
      <trkpt lat="42.388922800" lon="-2.642130700">
        <ele>729.40</ele>
        <time>2012-10-20T10:47:51Z</time>
      </trkpt>
      <trkpt lat="42.388777300" lon="-2.642230800">
        <ele>728.60</ele>
        <time>2012-10-20T10:47:53Z</time>
      </trkpt>
      <trkpt lat="42.388705400" lon="-2.642280100">
        <ele>728.60</ele>
        <time>2012-10-20T10:47:55Z</time>
      </trkpt>
      <trkpt lat="42.388558800" lon="-2.642383700">
        <ele>727.80</ele>
        <time>2012-10-20T10:47:57Z</time>
      </trkpt>
      <trkpt lat="42.388485800" lon="-2.642434000">
        <ele>727.20</ele>
        <time>2012-10-20T10:47:58Z</time>
      </trkpt>
      <trkpt lat="42.388417100" lon="-2.642479000">
        <ele>726.80</ele>
        <time>2012-10-20T10:47:58Z</time>
      </trkpt>
      <trkpt lat="42.388347200" lon="-2.642517400">
        <ele>726.40</ele>
        <time>2012-10-20T10:48:00Z</time>
      </trkpt>
      <trkpt lat="42.387986700" lon="-2.642722800">
        <ele>726.40</ele>
        <time>2012-10-20T10:48:05Z</time>
      </trkpt>
      <trkpt lat="42.387833400" lon="-2.642817000">
        <ele>726.40</ele>
        <time>2012-10-20T10:48:09Z</time>
      </trkpt>
      <trkpt lat="42.387697300" lon="-2.642898300">
        <ele>726.40</ele>
        <time>2012-10-20T10:48:12Z</time>
      </trkpt>
      <trkpt lat="42.387483400" lon="-2.643032300">
        <ele>726.40</ele>
        <time>2012-10-20T10:48:16Z</time>
      </trkpt>
      <trkpt lat="42.387357000" lon="-2.643104600">
        <ele>726.40</ele>
        <time>2012-10-20T10:48:19Z</time>
      </trkpt>
      <trkpt lat="42.387279700" lon="-2.643151700">
        <ele>726.40</ele>
        <time>2012-10-20T10:48:21Z</time>
      </trkpt>
      <trkpt lat="42.387124900" lon="-2.643258800">
        <ele>726.40</ele>
        <time>2012-10-20T10:48:26Z</time>
      </trkpt>
      <trkpt lat="42.386976500" lon="-2.643335100">
        <ele>726.40</ele>
        <time>2012-10-20T10:48:30Z</time>
      </trkpt>
      <trkpt lat="42.386910500" lon="-2.643362900">
        <ele>726.40</ele>
        <time>2012-10-20T10:48:31Z</time>
      </trkpt>
      <trkpt lat="42.386845900" lon="-2.643398200">
        <ele>726.40</ele>
        <time>2012-10-20T10:48:33Z</time>
      </trkpt>
      <trkpt lat="42.386717200" lon="-2.643485300">
        <ele>726.40</ele>
        <time>2012-10-20T10:48:37Z</time>
      </trkpt>
      <trkpt lat="42.386481800" lon="-2.643638000">
        <ele>726.40</ele>
        <time>2012-10-20T10:48:45Z</time>
      </trkpt>
      <trkpt lat="42.386449200" lon="-2.643666700">
        <ele>726.40</ele>
        <time>2012-10-20T10:48:45Z</time>
      </trkpt>
      <trkpt lat="42.386291200" lon="-2.643837400">
        <ele>726.40</ele>
        <time>2012-10-20T10:48:51Z</time>
      </trkpt>
      <trkpt lat="42.386256900" lon="-2.643872400">
        <ele>726.40</ele>
        <time>2012-10-20T10:48:52Z</time>
      </trkpt>
      <trkpt lat="42.386110100" lon="-2.644013400">
        <ele>726.40</ele>
        <time>2012-10-20T10:48:56Z</time>
      </trkpt>
      <trkpt lat="42.385961500" lon="-2.644194200">
        <ele>726.40</ele>
        <time>2012-10-20T10:49:01Z</time>
      </trkpt>
      <trkpt lat="42.385755600" lon="-2.644458300">
        <ele>726.40</ele>
        <time>2012-10-20T10:49:08Z</time>
      </trkpt>
      <trkpt lat="42.385611700" lon="-2.644657800">
        <ele>726.40</ele>
        <time>2012-10-20T10:49:13Z</time>
      </trkpt>
      <trkpt lat="42.385451100" lon="-2.644857900">
        <ele>726.40</ele>
        <time>2012-10-20T10:49:20Z</time>
      </trkpt>
      <trkpt lat="42.385322600" lon="-2.644992600">
        <ele>726.40</ele>
        <time>2012-10-20T10:49:24Z</time>
      </trkpt>
      <trkpt lat="42.385296700" lon="-2.645015900">
        <ele>727.00</ele>
        <time>2012-10-20T10:49:25Z</time>
      </trkpt>
      <trkpt lat="42.385269000" lon="-2.645036900">
        <ele>727.40</ele>
        <time>2012-10-20T10:49:27Z</time>
      </trkpt>
      <trkpt lat="42.385217900" lon="-2.645073200">
        <ele>728.20</ele>
        <time>2012-10-20T10:49:29Z</time>
      </trkpt>
      <trkpt lat="42.385192000" lon="-2.645094400">
        <ele>728.80</ele>
        <time>2012-10-20T10:49:29Z</time>
      </trkpt>
      <trkpt lat="42.385142000" lon="-2.645141400">
        <ele>728.80</ele>
        <time>2012-10-20T10:49:31Z</time>
      </trkpt>
      <trkpt lat="42.385060900" lon="-2.645204600">
        <ele>728.80</ele>
        <time>2012-10-20T10:49:34Z</time>
      </trkpt>
      <trkpt lat="42.385007500" lon="-2.645241200">
        <ele>729.20</ele>
        <time>2012-10-20T10:49:36Z</time>
      </trkpt>
      <trkpt lat="42.384980000" lon="-2.645260200">
        <ele>729.60</ele>
        <time>2012-10-20T10:49:38Z</time>
      </trkpt>
      <trkpt lat="42.384953900" lon="-2.645277800">
        <ele>730.00</ele>
        <time>2012-10-20T10:49:38Z</time>
      </trkpt>
      <trkpt lat="42.384927900" lon="-2.645295100">
        <ele>730.40</ele>
        <time>2012-10-20T10:49:39Z</time>
      </trkpt>
      <trkpt lat="42.384902600" lon="-2.645309800">
        <ele>730.80</ele>
        <time>2012-10-20T10:49:41Z</time>
      </trkpt>
      <trkpt lat="42.384833300" lon="-2.645335400">
        <ele>730.80</ele>
        <time>2012-10-20T10:49:43Z</time>
      </trkpt>
      <trkpt lat="42.384725100" lon="-2.645370200">
        <ele>730.80</ele>
        <time>2012-10-20T10:49:48Z</time>
      </trkpt>
      <trkpt lat="42.384526800" lon="-2.645468600">
        <ele>730.80</ele>
        <time>2012-10-20T10:49:53Z</time>
      </trkpt>
      <trkpt lat="42.384273100" lon="-2.645621500">
        <ele>730.80</ele>
        <time>2012-10-20T10:50:00Z</time>
      </trkpt>
      <trkpt lat="42.384191100" lon="-2.645657500">
        <ele>730.80</ele>
        <time>2012-10-20T10:50:02Z</time>
      </trkpt>
      <trkpt lat="42.384125600" lon="-2.645679100">
        <ele>730.80</ele>
        <time>2012-10-20T10:50:04Z</time>
      </trkpt>
      <trkpt lat="42.384001100" lon="-2.645730100">
        <ele>730.40</ele>
        <time>2012-10-20T10:50:07Z</time>
      </trkpt>
      <trkpt lat="42.383896500" lon="-2.645782200">
        <ele>729.60</ele>
        <time>2012-10-20T10:50:09Z</time>
      </trkpt>
      <trkpt lat="42.383849000" lon="-2.645808800">
        <ele>729.20</ele>
        <time>2012-10-20T10:50:11Z</time>
      </trkpt>
      <trkpt lat="42.383801300" lon="-2.645838800">
        <ele>728.60</ele>
        <time>2012-10-20T10:50:11Z</time>
      </trkpt>
      <trkpt lat="42.383653000" lon="-2.645920200">
        <ele>728.60</ele>
        <time>2012-10-20T10:50:14Z</time>
      </trkpt>
      <trkpt lat="42.383434200" lon="-2.646058700">
        <ele>728.60</ele>
        <time>2012-10-20T10:50:19Z</time>
      </trkpt>
      <trkpt lat="42.383397200" lon="-2.646083800">
        <ele>728.60</ele>
        <time>2012-10-20T10:50:21Z</time>
      </trkpt>
      <trkpt lat="42.383189500" lon="-2.646209400">
        <ele>728.60</ele>
        <time>2012-10-20T10:50:25Z</time>
      </trkpt>
      <trkpt lat="42.382952300" lon="-2.646333100">
        <ele>728.60</ele>
        <time>2012-10-20T10:50:32Z</time>
      </trkpt>
      <trkpt lat="42.382918100" lon="-2.646353700">
        <ele>728.60</ele>
        <time>2012-10-20T10:50:33Z</time>
      </trkpt>
      <trkpt lat="42.382783700" lon="-2.646443900">
        <ele>728.60</ele>
        <time>2012-10-20T10:50:37Z</time>
      </trkpt>
      <trkpt lat="42.382748100" lon="-2.646463000">
        <ele>728.60</ele>
        <time>2012-10-20T10:50:37Z</time>
      </trkpt>
      <trkpt lat="42.382563800" lon="-2.646547500">
        <ele>728.60</ele>
        <time>2012-10-20T10:50:42Z</time>
      </trkpt>
      <trkpt lat="42.382521200" lon="-2.646569200">
        <ele>728.20</ele>
        <time>2012-10-20T10:50:44Z</time>
      </trkpt>
      <trkpt lat="42.382481800" lon="-2.646588700">
        <ele>727.80</ele>
        <time>2012-10-20T10:50:44Z</time>
      </trkpt>
      <trkpt lat="42.382405400" lon="-2.646621000">
        <ele>727.00</ele>
        <time>2012-10-20T10:50:47Z</time>
      </trkpt>
      <trkpt lat="42.382367100" lon="-2.646630000">
        <ele>726.60</ele>
        <time>2012-10-20T10:50:47Z</time>
      </trkpt>
      <trkpt lat="42.382136800" lon="-2.646672600">
        <ele>726.60</ele>
        <time>2012-10-20T10:50:53Z</time>
      </trkpt>
      <trkpt lat="42.382014500" lon="-2.646706500">
        <ele>726.60</ele>
        <time>2012-10-20T10:50:56Z</time>
      </trkpt>
      <trkpt lat="42.381927300" lon="-2.646719200">
        <ele>726.60</ele>
        <time>2012-10-20T10:50:58Z</time>
      </trkpt>
      <trkpt lat="42.381759200" lon="-2.646718000">
        <ele>726.20</ele>
        <time>2012-10-20T10:51:01Z</time>
      </trkpt>
      <trkpt lat="42.381711600" lon="-2.646717300">
        <ele>725.80</ele>
        <time>2012-10-20T10:51:03Z</time>
      </trkpt>
      <trkpt lat="42.381666300" lon="-2.646713300">
        <ele>725.40</ele>
        <time>2012-10-20T10:51:03Z</time>
      </trkpt>
      <trkpt lat="42.381621400" lon="-2.646711700">
        <ele>725.00</ele>
        <time>2012-10-20T10:51:05Z</time>
      </trkpt>
      <trkpt lat="42.381582600" lon="-2.646714900">
        <ele>724.60</ele>
        <time>2012-10-20T10:51:05Z</time>
      </trkpt>
      <trkpt lat="42.381543400" lon="-2.646720000">
        <ele>724.60</ele>
        <time>2012-10-20T10:51:06Z</time>
      </trkpt>
      <trkpt lat="42.381500700" lon="-2.646727000">
        <ele>724.60</ele>
        <time>2012-10-20T10:51:08Z</time>
      </trkpt>
      <trkpt lat="42.381355100" lon="-2.646746000">
        <ele>724.60</ele>
        <time>2012-10-20T10:51:10Z</time>
      </trkpt>
      <trkpt lat="42.381264800" lon="-2.646747700">
        <ele>724.60</ele>
        <time>2012-10-20T10:51:12Z</time>
      </trkpt>
      <trkpt lat="42.381135700" lon="-2.646744400">
        <ele>724.60</ele>
        <time>2012-10-20T10:51:15Z</time>
      </trkpt>
      <trkpt lat="42.381055400" lon="-2.646764400">
        <ele>724.60</ele>
        <time>2012-10-20T10:51:17Z</time>
      </trkpt>
      <trkpt lat="42.380922100" lon="-2.646794100">
        <ele>724.60</ele>
        <time>2012-10-20T10:51:20Z</time>
      </trkpt>
      <trkpt lat="42.380823700" lon="-2.646827200">
        <ele>724.60</ele>
        <time>2012-10-20T10:51:22Z</time>
      </trkpt>
      <trkpt lat="42.380739400" lon="-2.646879400">
        <ele>724.60</ele>
        <time>2012-10-20T10:51:24Z</time>
      </trkpt>
      <trkpt lat="42.380664500" lon="-2.646950200">
        <ele>724.60</ele>
        <time>2012-10-20T10:51:26Z</time>
      </trkpt>
      <trkpt lat="42.380631400" lon="-2.646995400">
        <ele>724.60</ele>
        <time>2012-10-20T10:51:27Z</time>
      </trkpt>
      <trkpt lat="42.380446000" lon="-2.647374800">
        <ele>724.60</ele>
        <time>2012-10-20T10:51:34Z</time>
      </trkpt>
      <trkpt lat="42.380336000" lon="-2.647589000">
        <ele>724.60</ele>
        <time>2012-10-20T10:51:38Z</time>
      </trkpt>
      <trkpt lat="42.380230600" lon="-2.647716700">
        <ele>724.60</ele>
        <time>2012-10-20T10:51:41Z</time>
      </trkpt>
      <trkpt lat="42.380154400" lon="-2.647779300">
        <ele>724.60</ele>
        <time>2012-10-20T10:51:43Z</time>
      </trkpt>
      <trkpt lat="42.379931100" lon="-2.647949600">
        <ele>724.60</ele>
        <time>2012-10-20T10:51:50Z</time>
      </trkpt>
      <trkpt lat="42.379777600" lon="-2.648035200">
        <ele>724.60</ele>
        <time>2012-10-20T10:51:54Z</time>
      </trkpt>
      <trkpt lat="42.379562800" lon="-2.648144600">
        <ele>724.60</ele>
        <time>2012-10-20T10:51:59Z</time>
      </trkpt>
      <trkpt lat="42.379493700" lon="-2.648184700">
        <ele>724.60</ele>
        <time>2012-10-20T10:52:02Z</time>
      </trkpt>
      <trkpt lat="42.379333900" lon="-2.648320900">
        <ele>724.60</ele>
        <time>2012-10-20T10:52:06Z</time>
      </trkpt>
      <trkpt lat="42.379209800" lon="-2.648461400">
        <ele>724.60</ele>
        <time>2012-10-20T10:52:09Z</time>
      </trkpt>
      <trkpt lat="42.379108500" lon="-2.648580500">
        <ele>724.60</ele>
        <time>2012-10-20T10:52:11Z</time>
      </trkpt>
      <trkpt lat="42.379026900" lon="-2.648662200">
        <ele>724.60</ele>
        <time>2012-10-20T10:52:14Z</time>
      </trkpt>
      <trkpt lat="42.378896700" lon="-2.648805200">
        <ele>724.60</ele>
        <time>2012-10-20T10:52:18Z</time>
      </trkpt>
      <trkpt lat="42.378727100" lon="-2.648977500">
        <ele>724.60</ele>
        <time>2012-10-20T10:52:23Z</time>
      </trkpt>
      <trkpt lat="42.378559400" lon="-2.649158500">
        <ele>724.60</ele>
        <time>2012-10-20T10:52:30Z</time>
      </trkpt>
      <trkpt lat="42.378454800" lon="-2.649177900">
        <ele>724.60</ele>
        <time>2012-10-20T10:52:35Z</time>
      </trkpt>
      <trkpt lat="42.378426300" lon="-2.649175000">
        <ele>724.60</ele>
        <time>2012-10-20T10:52:35Z</time>
      </trkpt>
      <trkpt lat="42.378345600" lon="-2.649126100">
        <ele>724.60</ele>
        <time>2012-10-20T10:52:39Z</time>
      </trkpt>
      <trkpt lat="42.378246000" lon="-2.648985300">
        <ele>724.60</ele>
        <time>2012-10-20T10:52:44Z</time>
      </trkpt>
      <trkpt lat="42.378174800" lon="-2.648897700">
        <ele>724.60</ele>
        <time>2012-10-20T10:52:48Z</time>
      </trkpt>
      <trkpt lat="42.378057200" lon="-2.648812000">
        <ele>724.60</ele>
        <time>2012-10-20T10:52:53Z</time>
      </trkpt>
      <trkpt lat="42.378004600" lon="-2.648762000">
        <ele>724.60</ele>
        <time>2012-10-20T10:52:54Z</time>
      </trkpt>
      <trkpt lat="42.377865100" lon="-2.648652100">
        <ele>724.60</ele>
        <time>2012-10-20T10:53:00Z</time>
      </trkpt>
      <trkpt lat="42.377816200" lon="-2.648610000">
        <ele>725.00</ele>
        <time>2012-10-20T10:53:01Z</time>
      </trkpt>
      <trkpt lat="42.377792100" lon="-2.648594600">
        <ele>725.40</ele>
        <time>2012-10-20T10:53:03Z</time>
      </trkpt>
      <trkpt lat="42.377746800" lon="-2.648565500">
        <ele>726.20</ele>
        <time>2012-10-20T10:53:05Z</time>
      </trkpt>
      <trkpt lat="42.377720400" lon="-2.648555300">
        <ele>726.60</ele>
        <time>2012-10-20T10:53:05Z</time>
      </trkpt>
      <trkpt lat="42.377558400" lon="-2.648528200">
        <ele>726.60</ele>
        <time>2012-10-20T10:53:10Z</time>
      </trkpt>
      <trkpt lat="42.377481900" lon="-2.648513300">
        <ele>726.60</ele>
        <time>2012-10-20T10:53:12Z</time>
      </trkpt>
      <trkpt lat="42.377405800" lon="-2.648520500">
        <ele>727.00</ele>
        <time>2012-10-20T10:53:14Z</time>
      </trkpt>
      <trkpt lat="42.377371100" lon="-2.648529700">
        <ele>727.40</ele>
        <time>2012-10-20T10:53:15Z</time>
      </trkpt>
      <trkpt lat="42.377336500" lon="-2.648543200">
        <ele>727.80</ele>
        <time>2012-10-20T10:53:17Z</time>
      </trkpt>
      <trkpt lat="42.377270300" lon="-2.648571900">
        <ele>728.60</ele>
        <time>2012-10-20T10:53:19Z</time>
      </trkpt>
      <trkpt lat="42.377139600" lon="-2.648669800">
        <ele>728.60</ele>
        <time>2012-10-20T10:53:22Z</time>
      </trkpt>
      <trkpt lat="42.376975200" lon="-2.648852800">
        <ele>728.60</ele>
        <time>2012-10-20T10:53:29Z</time>
      </trkpt>
      <trkpt lat="42.376839200" lon="-2.649036100">
        <ele>728.60</ele>
        <time>2012-10-20T10:53:33Z</time>
      </trkpt>
      <trkpt lat="42.376815500" lon="-2.649074500">
        <ele>729.20</ele>
        <time>2012-10-20T10:53:35Z</time>
      </trkpt>
      <trkpt lat="42.376791000" lon="-2.649117300">
        <ele>729.60</ele>
        <time>2012-10-20T10:53:36Z</time>
      </trkpt>
      <trkpt lat="42.376728200" lon="-2.649237400">
        <ele>730.80</ele>
        <time>2012-10-20T10:53:38Z</time>
      </trkpt>
      <trkpt lat="42.376707100" lon="-2.649276800">
        <ele>730.80</ele>
        <time>2012-10-20T10:53:40Z</time>
      </trkpt>
      <trkpt lat="42.376586200" lon="-2.649466600">
        <ele>730.80</ele>
        <time>2012-10-20T10:53:45Z</time>
      </trkpt>
      <trkpt lat="42.376439500" lon="-2.649742000">
        <ele>730.80</ele>
        <time>2012-10-20T10:53:50Z</time>
      </trkpt>
      <trkpt lat="42.376381200" lon="-2.649838900">
        <ele>731.20</ele>
        <time>2012-10-20T10:53:52Z</time>
      </trkpt>
      <trkpt lat="42.376354900" lon="-2.649888600">
        <ele>731.60</ele>
        <time>2012-10-20T10:53:54Z</time>
      </trkpt>
      <trkpt lat="42.376293700" lon="-2.650023700">
        <ele>732.80</ele>
        <time>2012-10-20T10:53:57Z</time>
      </trkpt>
      <trkpt lat="42.376268000" lon="-2.650068000">
        <ele>732.80</ele>
        <time>2012-10-20T10:53:57Z</time>
      </trkpt>
      <trkpt lat="42.376207800" lon="-2.650161300">
        <ele>732.80</ele>
        <time>2012-10-20T10:53:59Z</time>
      </trkpt>
      <trkpt lat="42.376181300" lon="-2.650208200">
        <ele>732.80</ele>
        <time>2012-10-20T10:54:01Z</time>
      </trkpt>
      <trkpt lat="42.376029600" lon="-2.650505800">
        <ele>732.80</ele>
        <time>2012-10-20T10:54:06Z</time>
      </trkpt>
      <trkpt lat="42.375937300" lon="-2.650662200">
        <ele>732.80</ele>
        <time>2012-10-20T10:54:09Z</time>
      </trkpt>
      <trkpt lat="42.375871000" lon="-2.650768900">
        <ele>732.80</ele>
        <time>2012-10-20T10:54:11Z</time>
      </trkpt>
      <trkpt lat="42.375690200" lon="-2.651043200">
        <ele>732.80</ele>
        <time>2012-10-20T10:54:18Z</time>
      </trkpt>
      <trkpt lat="42.375527000" lon="-2.651239100">
        <ele>732.80</ele>
        <time>2012-10-20T10:54:23Z</time>
      </trkpt>
      <trkpt lat="42.375322100" lon="-2.651397800">
        <ele>732.80</ele>
        <time>2012-10-20T10:54:27Z</time>
      </trkpt>
      <trkpt lat="42.375283400" lon="-2.651425300">
        <ele>732.80</ele>
        <time>2012-10-20T10:54:29Z</time>
      </trkpt>
      <trkpt lat="42.375091200" lon="-2.651530100">
        <ele>732.80</ele>
        <time>2012-10-20T10:54:34Z</time>
      </trkpt>
      <trkpt lat="42.374981000" lon="-2.651574500">
        <ele>733.20</ele>
        <time>2012-10-20T10:54:37Z</time>
      </trkpt>
      <trkpt lat="42.374944800" lon="-2.651588300">
        <ele>733.60</ele>
        <time>2012-10-20T10:54:37Z</time>
      </trkpt>
      <trkpt lat="42.374829500" lon="-2.651629300">
        <ele>734.80</ele>
        <time>2012-10-20T10:54:41Z</time>
      </trkpt>
      <trkpt lat="42.374717400" lon="-2.651672200">
        <ele>734.80</ele>
        <time>2012-10-20T10:54:44Z</time>
      </trkpt>
      <trkpt lat="42.374519100" lon="-2.651795300">
        <ele>735.20</ele>
        <time>2012-10-20T10:54:48Z</time>
      </trkpt>
      <trkpt lat="42.374487900" lon="-2.651821500">
        <ele>735.80</ele>
        <time>2012-10-20T10:54:49Z</time>
      </trkpt>
      <trkpt lat="42.374432300" lon="-2.651874300">
        <ele>736.60</ele>
        <time>2012-10-20T10:54:51Z</time>
      </trkpt>
      <trkpt lat="42.374405900" lon="-2.651899700">
        <ele>737.00</ele>
        <time>2012-10-20T10:54:53Z</time>
      </trkpt>
      <trkpt lat="42.374318000" lon="-2.651971100">
        <ele>737.00</ele>
        <time>2012-10-20T10:54:55Z</time>
      </trkpt>
      <trkpt lat="42.374148600" lon="-2.652074600">
        <ele>737.40</ele>
        <time>2012-10-20T10:55:02Z</time>
      </trkpt>
      <trkpt lat="42.374118100" lon="-2.652092800">
        <ele>737.80</ele>
        <time>2012-10-20T10:55:02Z</time>
      </trkpt>
      <trkpt lat="42.374085100" lon="-2.652112700">
        <ele>738.20</ele>
        <time>2012-10-20T10:55:03Z</time>
      </trkpt>
      <trkpt lat="42.374057300" lon="-2.652130900">
        <ele>738.60</ele>
        <time>2012-10-20T10:55:05Z</time>
      </trkpt>
      <trkpt lat="42.374025100" lon="-2.652154000">
        <ele>739.00</ele>
        <time>2012-10-20T10:55:05Z</time>
      </trkpt>
      <trkpt lat="42.373857200" lon="-2.652294300">
        <ele>739.00</ele>
        <time>2012-10-20T10:55:10Z</time>
      </trkpt>
      <trkpt lat="42.373691000" lon="-2.652445900">
        <ele>739.00</ele>
        <time>2012-10-20T10:55:16Z</time>
      </trkpt>
      <trkpt lat="42.373512500" lon="-2.652651200">
        <ele>739.00</ele>
        <time>2012-10-20T10:55:21Z</time>
      </trkpt>
      <trkpt lat="42.373488600" lon="-2.652684400">
        <ele>739.40</ele>
        <time>2012-10-20T10:55:23Z</time>
      </trkpt>
      <trkpt lat="42.373464300" lon="-2.652719000">
        <ele>740.00</ele>
        <time>2012-10-20T10:55:24Z</time>
      </trkpt>
      <trkpt lat="42.373413800" lon="-2.652788300">
        <ele>740.80</ele>
        <time>2012-10-20T10:55:26Z</time>
      </trkpt>
      <trkpt lat="42.373386600" lon="-2.652823200">
        <ele>741.20</ele>
        <time>2012-10-20T10:55:26Z</time>
      </trkpt>
      <trkpt lat="42.373258700" lon="-2.652992600">
        <ele>741.20</ele>
        <time>2012-10-20T10:55:31Z</time>
      </trkpt>
      <trkpt lat="42.373132700" lon="-2.653151100">
        <ele>741.80</ele>
        <time>2012-10-20T10:55:36Z</time>
      </trkpt>
      <trkpt lat="42.373078100" lon="-2.653211200">
        <ele>742.60</ele>
        <time>2012-10-20T10:55:38Z</time>
      </trkpt>
      <trkpt lat="42.373051400" lon="-2.653243300">
        <ele>743.00</ele>
        <time>2012-10-20T10:55:40Z</time>
      </trkpt>
      <trkpt lat="42.373025400" lon="-2.653276800">
        <ele>743.40</ele>
        <time>2012-10-20T10:55:40Z</time>
      </trkpt>
      <trkpt lat="42.372970300" lon="-2.653347900">
        <ele>743.40</ele>
        <time>2012-10-20T10:55:42Z</time>
      </trkpt>
      <trkpt lat="42.372806400" lon="-2.653516800">
        <ele>743.40</ele>
        <time>2012-10-20T10:55:47Z</time>
      </trkpt>
      <trkpt lat="42.372712700" lon="-2.653647400">
        <ele>743.80</ele>
        <time>2012-10-20T10:55:52Z</time>
      </trkpt>
      <trkpt lat="42.372686000" lon="-2.653681000">
        <ele>744.20</ele>
        <time>2012-10-20T10:55:52Z</time>
      </trkpt>
      <trkpt lat="42.372595800" lon="-2.653782800">
        <ele>745.40</ele>
        <time>2012-10-20T10:55:56Z</time>
      </trkpt>
      <trkpt lat="42.372400700" lon="-2.654008400">
        <ele>745.40</ele>
        <time>2012-10-20T10:56:03Z</time>
      </trkpt>
      <trkpt lat="42.372279900" lon="-2.654120600">
        <ele>745.80</ele>
        <time>2012-10-20T10:56:06Z</time>
      </trkpt>
      <trkpt lat="42.372251300" lon="-2.654153400">
        <ele>746.20</ele>
        <time>2012-10-20T10:56:08Z</time>
      </trkpt>
      <trkpt lat="42.372219500" lon="-2.654188200">
        <ele>746.20</ele>
        <time>2012-10-20T10:56:08Z</time>
      </trkpt>
      <trkpt lat="42.372146000" lon="-2.654262700">
        <ele>747.00</ele>
        <time>2012-10-20T10:56:11Z</time>
      </trkpt>
      <trkpt lat="42.372108900" lon="-2.654297700">
        <ele>747.40</ele>
        <time>2012-10-20T10:56:11Z</time>
      </trkpt>
      <trkpt lat="42.372005700" lon="-2.654391800">
        <ele>747.40</ele>
        <time>2012-10-20T10:56:15Z</time>
      </trkpt>
      <trkpt lat="42.371938300" lon="-2.654444700">
        <ele>747.40</ele>
        <time>2012-10-20T10:56:17Z</time>
      </trkpt>
      <trkpt lat="42.371788200" lon="-2.654567700">
        <ele>747.40</ele>
        <time>2012-10-20T10:56:22Z</time>
      </trkpt>
      <trkpt lat="42.371706500" lon="-2.654609500">
        <ele>747.80</ele>
        <time>2012-10-20T10:56:23Z</time>
      </trkpt>
      <trkpt lat="42.371663700" lon="-2.654630500">
        <ele>748.20</ele>
        <time>2012-10-20T10:56:25Z</time>
      </trkpt>
      <trkpt lat="42.371624700" lon="-2.654648100">
        <ele>748.80</ele>
        <time>2012-10-20T10:56:25Z</time>
      </trkpt>
      <trkpt lat="42.371589000" lon="-2.654661100">
        <ele>749.20</ele>
        <time>2012-10-20T10:56:27Z</time>
      </trkpt>
      <trkpt lat="42.371551900" lon="-2.654672200">
        <ele>749.60</ele>
        <time>2012-10-20T10:56:27Z</time>
      </trkpt>
      <trkpt lat="42.371353200" lon="-2.654705800">
        <ele>749.60</ele>
        <time>2012-10-20T10:56:32Z</time>
      </trkpt>
      <trkpt lat="42.371307500" lon="-2.654716000">
        <ele>749.60</ele>
        <time>2012-10-20T10:56:34Z</time>
      </trkpt>
      <trkpt lat="42.371117500" lon="-2.654766700">
        <ele>749.60</ele>
        <time>2012-10-20T10:56:39Z</time>
      </trkpt>
      <trkpt lat="42.370982300" lon="-2.654806100">
        <ele>750.00</ele>
        <time>2012-10-20T10:56:43Z</time>
      </trkpt>
      <trkpt lat="42.370952800" lon="-2.654816800">
        <ele>750.40</ele>
        <time>2012-10-20T10:56:44Z</time>
      </trkpt>
      <trkpt lat="42.370920900" lon="-2.654830100">
        <ele>751.00</ele>
        <time>2012-10-20T10:56:46Z</time>
      </trkpt>
      <trkpt lat="42.370891100" lon="-2.654842100">
        <ele>751.40</ele>
        <time>2012-10-20T10:56:46Z</time>
      </trkpt>
      <trkpt lat="42.370864900" lon="-2.654855200">
        <ele>751.80</ele>
        <time>2012-10-20T10:56:48Z</time>
      </trkpt>
      <trkpt lat="42.370808500" lon="-2.654887400">
        <ele>751.80</ele>
        <time>2012-10-20T10:56:50Z</time>
      </trkpt>
      <trkpt lat="42.370652000" lon="-2.654926800">
        <ele>751.80</ele>
        <time>2012-10-20T10:56:53Z</time>
      </trkpt>
      <trkpt lat="42.370535300" lon="-2.654938400">
        <ele>752.20</ele>
        <time>2012-10-20T10:56:57Z</time>
      </trkpt>
      <trkpt lat="42.370500600" lon="-2.654940400">
        <ele>752.80</ele>
        <time>2012-10-20T10:56:58Z</time>
      </trkpt>
      <trkpt lat="42.370468000" lon="-2.654939300">
        <ele>753.20</ele>
        <time>2012-10-20T10:56:58Z</time>
      </trkpt>
      <trkpt lat="42.370436000" lon="-2.654935800">
        <ele>753.80</ele>
        <time>2012-10-20T10:57:00Z</time>
      </trkpt>
      <trkpt lat="42.370403800" lon="-2.654931500">
        <ele>754.20</ele>
        <time>2012-10-20T10:57:00Z</time>
      </trkpt>
      <trkpt lat="42.370267800" lon="-2.654912300">
        <ele>754.20</ele>
        <time>2012-10-20T10:57:05Z</time>
      </trkpt>
      <trkpt lat="42.370084600" lon="-2.654969000">
        <ele>754.20</ele>
        <time>2012-10-20T10:57:09Z</time>
      </trkpt>
      <trkpt lat="42.369965600" lon="-2.655131900">
        <ele>754.20</ele>
        <time>2012-10-20T10:57:14Z</time>
      </trkpt>
      <trkpt lat="42.369951100" lon="-2.655158800">
        <ele>754.60</ele>
        <time>2012-10-20T10:57:16Z</time>
      </trkpt>
      <trkpt lat="42.369933500" lon="-2.655186000">
        <ele>755.20</ele>
        <time>2012-10-20T10:57:16Z</time>
      </trkpt>
      <trkpt lat="42.369914800" lon="-2.655220400">
        <ele>755.60</ele>
        <time>2012-10-20T10:57:17Z</time>
      </trkpt>
      <trkpt lat="42.369891100" lon="-2.655256500">
        <ele>756.00</ele>
        <time>2012-10-20T10:57:19Z</time>
      </trkpt>
      <trkpt lat="42.369868900" lon="-2.655292200">
        <ele>756.60</ele>
        <time>2012-10-20T10:57:19Z</time>
      </trkpt>
      <trkpt lat="42.369727500" lon="-2.655474700">
        <ele>756.60</ele>
        <time>2012-10-20T10:57:24Z</time>
      </trkpt>
      <trkpt lat="42.369614800" lon="-2.655641600">
        <ele>756.60</ele>
        <time>2012-10-20T10:57:30Z</time>
      </trkpt>
      <trkpt lat="42.369537100" lon="-2.655740100">
        <ele>757.00</ele>
        <time>2012-10-20T10:57:33Z</time>
      </trkpt>
      <trkpt lat="42.369511500" lon="-2.655771600">
        <ele>757.40</ele>
        <time>2012-10-20T10:57:33Z</time>
      </trkpt>
      <trkpt lat="42.369486000" lon="-2.655806800">
        <ele>757.80</ele>
        <time>2012-10-20T10:57:35Z</time>
      </trkpt>
      <trkpt lat="42.369460100" lon="-2.655841200">
        <ele>758.40</ele>
        <time>2012-10-20T10:57:35Z</time>
      </trkpt>
      <trkpt lat="42.369431600" lon="-2.655875700">
        <ele>758.80</ele>
        <time>2012-10-20T10:57:37Z</time>
      </trkpt>
      <trkpt lat="42.369353100" lon="-2.655971400">
        <ele>758.80</ele>
        <time>2012-10-20T10:57:40Z</time>
      </trkpt>
      <trkpt lat="42.369286200" lon="-2.656030000">
        <ele>758.80</ele>
        <time>2012-10-20T10:57:44Z</time>
      </trkpt>
      <trkpt lat="42.369267800" lon="-2.656041800">
        <ele>758.80</ele>
        <time>2012-10-20T10:57:45Z</time>
      </trkpt>
      <trkpt lat="42.369195700" lon="-2.656104800">
        <ele>758.80</ele>
        <time>2012-10-20T10:57:47Z</time>
      </trkpt>
      <trkpt lat="42.369137900" lon="-2.656152600">
        <ele>759.20</ele>
        <time>2012-10-20T10:57:49Z</time>
      </trkpt>
      <trkpt lat="42.369108300" lon="-2.656172600">
        <ele>759.60</ele>
        <time>2012-10-20T10:57:51Z</time>
      </trkpt>
      <trkpt lat="42.369075000" lon="-2.656197500">
        <ele>760.00</ele>
        <time>2012-10-20T10:57:52Z</time>
      </trkpt>
      <trkpt lat="42.369015600" lon="-2.656225300">
        <ele>760.80</ele>
        <time>2012-10-20T10:57:54Z</time>
      </trkpt>
      <trkpt lat="42.368979600" lon="-2.656260900">
        <ele>760.80</ele>
        <time>2012-10-20T10:57:56Z</time>
      </trkpt>
      <trkpt lat="42.368975500" lon="-2.656319200">
        <ele>760.80</ele>
        <time>2012-10-20T10:57:59Z</time>
      </trkpt>
      <trkpt lat="42.368933300" lon="-2.656334100">
        <ele>760.80</ele>
        <time>2012-10-20T10:58:01Z</time>
      </trkpt>
      <trkpt lat="42.368896800" lon="-2.656319300">
        <ele>760.80</ele>
        <time>2012-10-20T10:58:01Z</time>
      </trkpt>
      <trkpt lat="42.368815100" lon="-2.656293300">
        <ele>760.80</ele>
        <time>2012-10-20T10:58:05Z</time>
      </trkpt>
      <trkpt lat="42.368772500" lon="-2.656311900">
        <ele>760.80</ele>
        <time>2012-10-20T10:58:06Z</time>
      </trkpt>
      <trkpt lat="42.368699700" lon="-2.656390800">
        <ele>761.20</ele>
        <time>2012-10-20T10:58:08Z</time>
      </trkpt>
      <trkpt lat="42.368648600" lon="-2.656444700">
        <ele>761.60</ele>
        <time>2012-10-20T10:58:10Z</time>
      </trkpt>
      <trkpt lat="42.368597700" lon="-2.656487500">
        <ele>762.00</ele>
        <time>2012-10-20T10:58:10Z</time>
      </trkpt>
      <trkpt lat="42.368566300" lon="-2.656511200">
        <ele>762.40</ele>
        <time>2012-10-20T10:58:12Z</time>
      </trkpt>
      <trkpt lat="42.368530700" lon="-2.656514200">
        <ele>762.80</ele>
        <time>2012-10-20T10:58:13Z</time>
      </trkpt>
      <trkpt lat="42.368505400" lon="-2.656495100">
        <ele>762.80</ele>
        <time>2012-10-20T10:58:13Z</time>
      </trkpt>
      <trkpt lat="42.368307100" lon="-2.656413100">
        <ele>762.80</ele>
        <time>2012-10-20T10:58:18Z</time>
      </trkpt>
      <trkpt lat="42.368038100" lon="-2.656279200">
        <ele>762.80</ele>
        <time>2012-10-20T10:58:25Z</time>
      </trkpt>
      <trkpt lat="42.367954700" lon="-2.656254100">
        <ele>763.20</ele>
        <time>2012-10-20T10:58:27Z</time>
      </trkpt>
      <trkpt lat="42.367915900" lon="-2.656246400">
        <ele>763.80</ele>
        <time>2012-10-20T10:58:29Z</time>
      </trkpt>
      <trkpt lat="42.367841300" lon="-2.656232500">
        <ele>764.20</ele>
        <time>2012-10-20T10:58:31Z</time>
      </trkpt>
      <trkpt lat="42.367807700" lon="-2.656227800">
        <ele>764.60</ele>
        <time>2012-10-20T10:58:31Z</time>
      </trkpt>
      <trkpt lat="42.367782800" lon="-2.656222000">
        <ele>765.00</ele>
        <time>2012-10-20T10:58:32Z</time>
      </trkpt>
      <trkpt lat="42.367725300" lon="-2.656190000">
        <ele>765.00</ele>
        <time>2012-10-20T10:58:36Z</time>
      </trkpt>
      <trkpt lat="42.367553300" lon="-2.656157100">
        <ele>765.00</ele>
        <time>2012-10-20T10:58:39Z</time>
      </trkpt>
      <trkpt lat="42.367579000" lon="-2.656186300">
        <ele>765.00</ele>
        <time>2012-10-20T10:58:43Z</time>
      </trkpt>
      <trkpt lat="42.367579600" lon="-2.656204000">
        <ele>765.00</ele>
        <time>2012-10-20T10:58:43Z</time>
      </trkpt>
      <trkpt lat="42.367584800" lon="-2.656215600">
        <ele>765.80</ele>
        <time>2012-10-20T10:58:45Z</time>
      </trkpt>
      <trkpt lat="42.367576100" lon="-2.656226000">
        <ele>766.20</ele>
        <time>2012-10-20T10:58:46Z</time>
      </trkpt>
      <trkpt lat="42.367554800" lon="-2.656216500">
        <ele>766.60</ele>
        <time>2012-10-20T10:58:48Z</time>
      </trkpt>
      <trkpt lat="42.367522500" lon="-2.656207400">
        <ele>767.00</ele>
        <time>2012-10-20T10:58:48Z</time>
      </trkpt>
      <trkpt lat="42.367379200" lon="-2.656141000">
        <ele>767.00</ele>
        <time>2012-10-20T10:58:53Z</time>
      </trkpt>
      <trkpt lat="42.367137800" lon="-2.656170700">
        <ele>767.00</ele>
        <time>2012-10-20T10:58:59Z</time>
      </trkpt>
      <trkpt lat="42.367084900" lon="-2.656146900">
        <ele>767.00</ele>
        <time>2012-10-20T10:59:02Z</time>
      </trkpt>
      <trkpt lat="42.367065300" lon="-2.656133200">
        <ele>767.00</ele>
        <time>2012-10-20T10:59:04Z</time>
      </trkpt>
      <trkpt lat="42.366995400" lon="-2.656106500">
        <ele>767.00</ele>
        <time>2012-10-20T10:59:09Z</time>
      </trkpt>
      <trkpt lat="42.366978600" lon="-2.656112100">
        <ele>767.00</ele>
        <time>2012-10-20T10:59:16Z</time>
      </trkpt>
      <trkpt lat="42.366951600" lon="-2.656089600">
        <ele>769.20</ele>
        <time>2012-10-20T10:59:23Z</time>
      </trkpt>
      <trkpt lat="42.366946000" lon="-2.656075500">
        <ele>769.20</ele>
        <time>2012-10-20T10:59:25Z</time>
      </trkpt>
      <trkpt lat="42.366935600" lon="-2.656070600">
        <ele>783.40</ele>
        <time>2012-10-20T11:13:33Z</time>
      </trkpt>
      <trkpt lat="42.366935300" lon="-2.656070500">
        <ele>783.80</ele>
        <time>2012-10-20T11:13:35Z</time>
      </trkpt>
      <trkpt lat="42.366896000" lon="-2.655993100">
        <ele>783.80</ele>
        <time>2012-10-20T11:13:40Z</time>
      </trkpt>
      <trkpt lat="42.366859500" lon="-2.655932800">
        <ele>783.80</ele>
        <time>2012-10-20T11:13:42Z</time>
      </trkpt>
      <trkpt lat="42.366800600" lon="-2.655879700">
        <ele>783.80</ele>
        <time>2012-10-20T11:13:45Z</time>
      </trkpt>
      <trkpt lat="42.366677800" lon="-2.655850900">
        <ele>783.80</ele>
        <time>2012-10-20T11:13:50Z</time>
      </trkpt>
      <trkpt lat="42.366651900" lon="-2.655842300">
        <ele>783.80</ele>
        <time>2012-10-20T11:13:52Z</time>
      </trkpt>
      <trkpt lat="42.366531200" lon="-2.655790300">
        <ele>783.80</ele>
        <time>2012-10-20T11:13:56Z</time>
      </trkpt>
      <trkpt lat="42.366445400" lon="-2.655758700">
        <ele>783.80</ele>
        <time>2012-10-20T11:13:59Z</time>
      </trkpt>
      <trkpt lat="42.366419400" lon="-2.655746500">
        <ele>783.80</ele>
        <time>2012-10-20T11:13:59Z</time>
      </trkpt>
      <trkpt lat="42.366368800" lon="-2.655722200">
        <ele>784.20</ele>
        <time>2012-10-20T11:14:01Z</time>
      </trkpt>
      <trkpt lat="42.366346200" lon="-2.655710500">
        <ele>784.60</ele>
        <time>2012-10-20T11:14:03Z</time>
      </trkpt>
      <trkpt lat="42.366321900" lon="-2.655696100">
        <ele>785.00</ele>
        <time>2012-10-20T11:14:04Z</time>
      </trkpt>
      <trkpt lat="42.366299900" lon="-2.655682600">
        <ele>785.40</ele>
        <time>2012-10-20T11:14:04Z</time>
      </trkpt>
      <trkpt lat="42.366277900" lon="-2.655666000">
        <ele>786.00</ele>
        <time>2012-10-20T11:14:06Z</time>
      </trkpt>
      <trkpt lat="42.366267300" lon="-2.655651900">
        <ele>786.00</ele>
        <time>2012-10-20T11:14:06Z</time>
      </trkpt>
      <trkpt lat="42.366261300" lon="-2.655632900">
        <ele>786.00</ele>
        <time>2012-10-20T11:14:08Z</time>
      </trkpt>
      <trkpt lat="42.366235500" lon="-2.655594100">
        <ele>786.00</ele>
        <time>2012-10-20T11:14:11Z</time>
      </trkpt>
      <trkpt lat="42.366189400" lon="-2.655579000">
        <ele>786.00</ele>
        <time>2012-10-20T11:14:13Z</time>
      </trkpt>
      <trkpt lat="42.366085400" lon="-2.655535100">
        <ele>786.00</ele>
        <time>2012-10-20T11:14:15Z</time>
      </trkpt>
      <trkpt lat="42.365950900" lon="-2.655443500">
        <ele>786.40</ele>
        <time>2012-10-20T11:14:20Z</time>
      </trkpt>
      <trkpt lat="42.365927400" lon="-2.655418600">
        <ele>786.80</ele>
        <time>2012-10-20T11:14:20Z</time>
      </trkpt>
      <trkpt lat="42.365910800" lon="-2.655395700">
        <ele>787.20</ele>
        <time>2012-10-20T11:14:22Z</time>
      </trkpt>
      <trkpt lat="42.365896800" lon="-2.655368000">
        <ele>787.60</ele>
        <time>2012-10-20T11:14:22Z</time>
      </trkpt>
      <trkpt lat="42.365891900" lon="-2.655345200">
        <ele>788.20</ele>
        <time>2012-10-20T11:14:24Z</time>
      </trkpt>
      <trkpt lat="42.365894600" lon="-2.655167200">
        <ele>788.20</ele>
        <time>2012-10-20T11:14:29Z</time>
      </trkpt>
      <trkpt lat="42.365789400" lon="-2.654863900">
        <ele>788.20</ele>
        <time>2012-10-20T11:14:37Z</time>
      </trkpt>
      <trkpt lat="42.365748500" lon="-2.654782600">
        <ele>788.60</ele>
        <time>2012-10-20T11:14:43Z</time>
      </trkpt>
      <trkpt lat="42.365743800" lon="-2.654767800">
        <ele>789.00</ele>
        <time>2012-10-20T11:14:43Z</time>
      </trkpt>
      <trkpt lat="42.365739500" lon="-2.654753900">
        <ele>789.40</ele>
        <time>2012-10-20T11:14:44Z</time>
      </trkpt>
      <trkpt lat="42.365735300" lon="-2.654739100">
        <ele>789.80</ele>
        <time>2012-10-20T11:14:46Z</time>
      </trkpt>
      <trkpt lat="42.365730900" lon="-2.654726100">
        <ele>790.20</ele>
        <time>2012-10-20T11:14:46Z</time>
      </trkpt>
      <trkpt lat="42.365708600" lon="-2.654682200">
        <ele>790.20</ele>
        <time>2012-10-20T11:14:50Z</time>
      </trkpt>
      <trkpt lat="42.365670800" lon="-2.654645200">
        <ele>790.20</ele>
        <time>2012-10-20T11:14:55Z</time>
      </trkpt>
      <trkpt lat="42.365654100" lon="-2.654635400">
        <ele>790.20</ele>
        <time>2012-10-20T11:14:58Z</time>
      </trkpt>
      <trkpt lat="42.365646600" lon="-2.654614800">
        <ele>790.20</ele>
        <time>2012-10-20T11:15:00Z</time>
      </trkpt>
      <trkpt lat="42.365646800" lon="-2.654520700">
        <ele>790.20</ele>
        <time>2012-10-20T11:15:05Z</time>
      </trkpt>
      <trkpt lat="42.365636400" lon="-2.654354400">
        <ele>790.20</ele>
        <time>2012-10-20T11:15:09Z</time>
      </trkpt>
      <trkpt lat="42.365580100" lon="-2.654068300">
        <ele>790.20</ele>
        <time>2012-10-20T11:15:16Z</time>
      </trkpt>
      <trkpt lat="42.365537300" lon="-2.653858100">
        <ele>789.60</ele>
        <time>2012-10-20T11:15:19Z</time>
      </trkpt>
      <trkpt lat="42.365527300" lon="-2.653804300">
        <ele>789.20</ele>
        <time>2012-10-20T11:15:21Z</time>
      </trkpt>
      <trkpt lat="42.365517200" lon="-2.653747000">
        <ele>788.80</ele>
        <time>2012-10-20T11:15:21Z</time>
      </trkpt>
      <trkpt lat="42.365504500" lon="-2.653690100">
        <ele>788.40</ele>
        <time>2012-10-20T11:15:23Z</time>
      </trkpt>
      <trkpt lat="42.365487100" lon="-2.653632800">
        <ele>788.00</ele>
        <time>2012-10-20T11:15:23Z</time>
      </trkpt>
      <trkpt lat="42.365399000" lon="-2.653457700">
        <ele>788.00</ele>
        <time>2012-10-20T11:15:26Z</time>
      </trkpt>
      <trkpt lat="42.365281800" lon="-2.653362000">
        <ele>788.00</ele>
        <time>2012-10-20T11:15:28Z</time>
      </trkpt>
      <trkpt lat="42.365184400" lon="-2.653269900">
        <ele>788.00</ele>
        <time>2012-10-20T11:15:30Z</time>
      </trkpt>
      <trkpt lat="42.365110500" lon="-2.653215600">
        <ele>788.00</ele>
        <time>2012-10-20T11:15:31Z</time>
      </trkpt>
      <trkpt lat="42.365064700" lon="-2.653198600">
        <ele>787.60</ele>
        <time>2012-10-20T11:15:33Z</time>
      </trkpt>
      <trkpt lat="42.365014300" lon="-2.653180500">
        <ele>787.20</ele>
        <time>2012-10-20T11:15:33Z</time>
      </trkpt>
      <trkpt lat="42.364959600" lon="-2.653180100">
        <ele>786.80</ele>
        <time>2012-10-20T11:15:35Z</time>
      </trkpt>
      <trkpt lat="42.364900300" lon="-2.653184700">
        <ele>786.40</ele>
        <time>2012-10-20T11:15:35Z</time>
      </trkpt>
      <trkpt lat="42.364842200" lon="-2.653193500">
        <ele>786.00</ele>
        <time>2012-10-20T11:15:37Z</time>
      </trkpt>
      <trkpt lat="42.364736900" lon="-2.653222000">
        <ele>786.00</ele>
        <time>2012-10-20T11:15:38Z</time>
      </trkpt>
      <trkpt lat="42.364656600" lon="-2.653287600">
        <ele>786.00</ele>
        <time>2012-10-20T11:15:40Z</time>
      </trkpt>
      <trkpt lat="42.364626100" lon="-2.653330500">
        <ele>786.00</ele>
        <time>2012-10-20T11:15:42Z</time>
      </trkpt>
      <trkpt lat="42.364572400" lon="-2.653423200">
        <ele>786.00</ele>
        <time>2012-10-20T11:15:44Z</time>
      </trkpt>
      <trkpt lat="42.364522400" lon="-2.653516600">
        <ele>786.40</ele>
        <time>2012-10-20T11:15:45Z</time>
      </trkpt>
      <trkpt lat="42.364504500" lon="-2.653566400">
        <ele>786.80</ele>
        <time>2012-10-20T11:15:47Z</time>
      </trkpt>
      <trkpt lat="42.364497000" lon="-2.653610100">
        <ele>787.20</ele>
        <time>2012-10-20T11:15:47Z</time>
      </trkpt>
      <trkpt lat="42.364494200" lon="-2.653652500">
        <ele>787.80</ele>
        <time>2012-10-20T11:15:49Z</time>
      </trkpt>
      <trkpt lat="42.364491500" lon="-2.653694500">
        <ele>788.20</ele>
        <time>2012-10-20T11:15:49Z</time>
      </trkpt>
      <trkpt lat="42.364478200" lon="-2.653773000">
        <ele>788.20</ele>
        <time>2012-10-20T11:15:52Z</time>
      </trkpt>
      <trkpt lat="42.364456100" lon="-2.653857200">
        <ele>788.60</ele>
        <time>2012-10-20T11:15:54Z</time>
      </trkpt>
      <trkpt lat="42.364430600" lon="-2.653943500">
        <ele>789.40</ele>
        <time>2012-10-20T11:15:56Z</time>
      </trkpt>
      <trkpt lat="42.364398700" lon="-2.654038900">
        <ele>790.20</ele>
        <time>2012-10-20T11:15:58Z</time>
      </trkpt>
      <trkpt lat="42.364373100" lon="-2.654133700">
        <ele>790.20</ele>
        <time>2012-10-20T11:15:59Z</time>
      </trkpt>
      <trkpt lat="42.364343700" lon="-2.654223100">
        <ele>790.60</ele>
        <time>2012-10-20T11:16:01Z</time>
      </trkpt>
      <trkpt lat="42.364320800" lon="-2.654264300">
        <ele>791.00</ele>
        <time>2012-10-20T11:16:03Z</time>
      </trkpt>
      <trkpt lat="42.364295300" lon="-2.654307600">
        <ele>791.40</ele>
        <time>2012-10-20T11:16:03Z</time>
      </trkpt>
      <trkpt lat="42.364266800" lon="-2.654352100">
        <ele>791.80</ele>
        <time>2012-10-20T11:16:05Z</time>
      </trkpt>
      <trkpt lat="42.364238700" lon="-2.654393700">
        <ele>792.40</ele>
        <time>2012-10-20T11:16:06Z</time>
      </trkpt>
      <trkpt lat="42.364183200" lon="-2.654471700">
        <ele>792.80</ele>
        <time>2012-10-20T11:16:08Z</time>
      </trkpt>
      <trkpt lat="42.364162400" lon="-2.654478900">
        <ele>793.20</ele>
        <time>2012-10-20T11:16:08Z</time>
      </trkpt>
      <trkpt lat="42.364142100" lon="-2.654483500">
        <ele>793.60</ele>
        <time>2012-10-20T11:16:10Z</time>
      </trkpt>
      <trkpt lat="42.364125200" lon="-2.654497500">
        <ele>794.00</ele>
        <time>2012-10-20T11:16:10Z</time>
      </trkpt>
      <trkpt lat="42.364104100" lon="-2.654524300">
        <ele>794.40</ele>
        <time>2012-10-20T11:16:12Z</time>
      </trkpt>
      <trkpt lat="42.364011700" lon="-2.654661700">
        <ele>794.40</ele>
        <time>2012-10-20T11:16:15Z</time>
      </trkpt>
      <trkpt lat="42.363920000" lon="-2.654774100">
        <ele>794.80</ele>
        <time>2012-10-20T11:16:18Z</time>
      </trkpt>
      <trkpt lat="42.363895200" lon="-2.654790500">
        <ele>795.40</ele>
        <time>2012-10-20T11:16:20Z</time>
      </trkpt>
      <trkpt lat="42.363862500" lon="-2.654809500">
        <ele>795.80</ele>
        <time>2012-10-20T11:16:20Z</time>
      </trkpt>
      <trkpt lat="42.363833400" lon="-2.654831600">
        <ele>796.20</ele>
        <time>2012-10-20T11:16:22Z</time>
      </trkpt>
      <trkpt lat="42.363806000" lon="-2.654846300">
        <ele>796.60</ele>
        <time>2012-10-20T11:16:22Z</time>
      </trkpt>
      <trkpt lat="42.363658400" lon="-2.654908200">
        <ele>796.60</ele>
        <time>2012-10-20T11:16:27Z</time>
      </trkpt>
      <trkpt lat="42.363417000" lon="-2.654928900">
        <ele>796.60</ele>
        <time>2012-10-20T11:16:34Z</time>
      </trkpt>
      <trkpt lat="42.363352900" lon="-2.654933200">
        <ele>797.00</ele>
        <time>2012-10-20T11:16:36Z</time>
      </trkpt>
      <trkpt lat="42.363319200" lon="-2.654935200">
        <ele>797.40</ele>
        <time>2012-10-20T11:16:38Z</time>
      </trkpt>
      <trkpt lat="42.363282400" lon="-2.654939600">
        <ele>798.00</ele>
        <time>2012-10-20T11:16:38Z</time>
      </trkpt>
      <trkpt lat="42.363250000" lon="-2.654946800">
        <ele>798.40</ele>
        <time>2012-10-20T11:16:39Z</time>
      </trkpt>
      <trkpt lat="42.363217600" lon="-2.654951700">
        <ele>798.80</ele>
        <time>2012-10-20T11:16:41Z</time>
      </trkpt>
      <trkpt lat="42.363062700" lon="-2.654987400">
        <ele>798.80</ele>
        <time>2012-10-20T11:16:46Z</time>
      </trkpt>
      <trkpt lat="42.362878500" lon="-2.655047500">
        <ele>799.20</ele>
        <time>2012-10-20T11:16:52Z</time>
      </trkpt>
      <trkpt lat="42.362841300" lon="-2.655061500">
        <ele>799.80</ele>
        <time>2012-10-20T11:16:53Z</time>
      </trkpt>
      <trkpt lat="42.362796300" lon="-2.655075200">
        <ele>800.20</ele>
        <time>2012-10-20T11:16:53Z</time>
      </trkpt>
      <trkpt lat="42.362759200" lon="-2.655088900">
        <ele>800.80</ele>
        <time>2012-10-20T11:16:55Z</time>
      </trkpt>
      <trkpt lat="42.362729600" lon="-2.655102400">
        <ele>801.20</ele>
        <time>2012-10-20T11:16:55Z</time>
      </trkpt>
      <trkpt lat="42.362641800" lon="-2.655143600">
        <ele>801.20</ele>
        <time>2012-10-20T11:17:00Z</time>
      </trkpt>
      <trkpt lat="42.362477900" lon="-2.655279400">
        <ele>801.20</ele>
        <time>2012-10-20T11:17:05Z</time>
      </trkpt>
      <trkpt lat="42.362251800" lon="-2.655481100">
        <ele>801.20</ele>
        <time>2012-10-20T11:17:14Z</time>
      </trkpt>
      <trkpt lat="42.362192500" lon="-2.655517000">
        <ele>801.60</ele>
        <time>2012-10-20T11:17:16Z</time>
      </trkpt>
      <trkpt lat="42.362158900" lon="-2.655536900">
        <ele>802.00</ele>
        <time>2012-10-20T11:17:16Z</time>
      </trkpt>
      <trkpt lat="42.362125800" lon="-2.655559400">
        <ele>802.40</ele>
        <time>2012-10-20T11:17:18Z</time>
      </trkpt>
      <trkpt lat="42.362090900" lon="-2.655579500">
        <ele>802.80</ele>
        <time>2012-10-20T11:17:18Z</time>
      </trkpt>
      <trkpt lat="42.362058200" lon="-2.655599000">
        <ele>803.20</ele>
        <time>2012-10-20T11:17:19Z</time>
      </trkpt>
      <trkpt lat="42.362026000" lon="-2.655625100">
        <ele>803.20</ele>
        <time>2012-10-20T11:17:21Z</time>
      </trkpt>
      <trkpt lat="42.361819000" lon="-2.655762200">
        <ele>803.20</ele>
        <time>2012-10-20T11:17:26Z</time>
      </trkpt>
      <trkpt lat="42.361781200" lon="-2.655779000">
        <ele>803.20</ele>
        <time>2012-10-20T11:17:28Z</time>
      </trkpt>
      <trkpt lat="42.361559100" lon="-2.655871100">
        <ele>803.20</ele>
        <time>2012-10-20T11:17:33Z</time>
      </trkpt>
      <trkpt lat="42.361529100" lon="-2.655882500">
        <ele>803.60</ele>
        <time>2012-10-20T11:17:35Z</time>
      </trkpt>
      <trkpt lat="42.361497100" lon="-2.655896100">
        <ele>804.20</ele>
        <time>2012-10-20T11:17:35Z</time>
      </trkpt>
      <trkpt lat="42.361468400" lon="-2.655910000">
        <ele>804.60</ele>
        <time>2012-10-20T11:17:37Z</time>
      </trkpt>
      <trkpt lat="42.361433600" lon="-2.655907900">
        <ele>805.00</ele>
        <time>2012-10-20T11:17:37Z</time>
      </trkpt>
      <trkpt lat="42.361401700" lon="-2.655909000">
        <ele>805.40</ele>
        <time>2012-10-20T11:17:39Z</time>
      </trkpt>
      <trkpt lat="42.361243700" lon="-2.655910500">
        <ele>805.40</ele>
        <time>2012-10-20T11:17:44Z</time>
      </trkpt>
      <trkpt lat="42.361075600" lon="-2.655954200">
        <ele>805.80</ele>
        <time>2012-10-20T11:17:49Z</time>
      </trkpt>
      <trkpt lat="42.361056200" lon="-2.655955100">
        <ele>806.20</ele>
        <time>2012-10-20T11:17:49Z</time>
      </trkpt>
      <trkpt lat="42.361029500" lon="-2.655955600">
        <ele>806.60</ele>
        <time>2012-10-20T11:17:51Z</time>
      </trkpt>
      <trkpt lat="42.360993400" lon="-2.655955200">
        <ele>807.20</ele>
        <time>2012-10-20T11:17:51Z</time>
      </trkpt>
      <trkpt lat="42.360962600" lon="-2.655945000">
        <ele>807.60</ele>
        <time>2012-10-20T11:17:53Z</time>
      </trkpt>
      <trkpt lat="42.360884400" lon="-2.655920200">
        <ele>807.60</ele>
        <time>2012-10-20T11:17:56Z</time>
      </trkpt>
      <trkpt lat="42.360688600" lon="-2.655933300">
        <ele>807.60</ele>
        <time>2012-10-20T11:18:01Z</time>
      </trkpt>
      <trkpt lat="42.360665300" lon="-2.655934100">
        <ele>808.00</ele>
        <time>2012-10-20T11:18:03Z</time>
      </trkpt>
      <trkpt lat="42.360603500" lon="-2.655924300">
        <ele>808.80</ele>
        <time>2012-10-20T11:18:05Z</time>
      </trkpt>
      <trkpt lat="42.360574200" lon="-2.655920300">
        <ele>809.40</ele>
        <time>2012-10-20T11:18:05Z</time>
      </trkpt>
      <trkpt lat="42.360544100" lon="-2.655919700">
        <ele>809.40</ele>
        <time>2012-10-20T11:18:06Z</time>
      </trkpt>
      <trkpt lat="42.360510500" lon="-2.655919700">
        <ele>809.80</ele>
        <time>2012-10-20T11:18:08Z</time>
      </trkpt>
      <trkpt lat="42.360409700" lon="-2.655918500">
        <ele>809.80</ele>
        <time>2012-10-20T11:18:10Z</time>
      </trkpt>
      <trkpt lat="42.360318100" lon="-2.655923800">
        <ele>810.20</ele>
        <time>2012-10-20T11:18:13Z</time>
      </trkpt>
      <trkpt lat="42.360292800" lon="-2.655929600">
        <ele>810.60</ele>
        <time>2012-10-20T11:18:15Z</time>
      </trkpt>
      <trkpt lat="42.360257100" lon="-2.655937400">
        <ele>811.00</ele>
        <time>2012-10-20T11:18:15Z</time>
      </trkpt>
      <trkpt lat="42.360225200" lon="-2.655945400">
        <ele>811.40</ele>
        <time>2012-10-20T11:18:17Z</time>
      </trkpt>
      <trkpt lat="42.360190500" lon="-2.655958200">
        <ele>812.00</ele>
        <time>2012-10-20T11:18:17Z</time>
      </trkpt>
      <trkpt lat="42.360033300" lon="-2.656003100">
        <ele>812.00</ele>
        <time>2012-10-20T11:18:22Z</time>
      </trkpt>
      <trkpt lat="42.359973800" lon="-2.656023300">
        <ele>812.40</ele>
        <time>2012-10-20T11:18:24Z</time>
      </trkpt>
      <trkpt lat="42.359946800" lon="-2.656038400">
        <ele>812.80</ele>
        <time>2012-10-20T11:18:26Z</time>
      </trkpt>
      <trkpt lat="42.359923300" lon="-2.656056400">
        <ele>813.40</ele>
        <time>2012-10-20T11:18:26Z</time>
      </trkpt>
      <trkpt lat="42.359894500" lon="-2.656075700">
        <ele>813.80</ele>
        <time>2012-10-20T11:18:27Z</time>
      </trkpt>
      <trkpt lat="42.359868200" lon="-2.656092600">
        <ele>814.20</ele>
        <time>2012-10-20T11:18:29Z</time>
      </trkpt>
      <trkpt lat="42.359836300" lon="-2.656115000">
        <ele>814.20</ele>
        <time>2012-10-20T11:18:29Z</time>
      </trkpt>
      <trkpt lat="42.359632200" lon="-2.656215800">
        <ele>814.20</ele>
        <time>2012-10-20T11:18:38Z</time>
      </trkpt>
      <trkpt lat="42.359313000" lon="-2.656350200">
        <ele>814.20</ele>
        <time>2012-10-20T11:18:47Z</time>
      </trkpt>
      <trkpt lat="42.359260800" lon="-2.656387100">
        <ele>814.60</ele>
        <time>2012-10-20T11:18:48Z</time>
      </trkpt>
      <trkpt lat="42.359236600" lon="-2.656405600">
        <ele>815.20</ele>
        <time>2012-10-20T11:18:50Z</time>
      </trkpt>
      <trkpt lat="42.359206100" lon="-2.656417100">
        <ele>815.60</ele>
        <time>2012-10-20T11:18:50Z</time>
      </trkpt>
      <trkpt lat="42.359173100" lon="-2.656426600">
        <ele>816.00</ele>
        <time>2012-10-20T11:18:52Z</time>
      </trkpt>
      <trkpt lat="42.359145500" lon="-2.656439500">
        <ele>816.40</ele>
        <time>2012-10-20T11:18:52Z</time>
      </trkpt>
      <trkpt lat="42.359089000" lon="-2.656456200">
        <ele>816.40</ele>
        <time>2012-10-20T11:18:55Z</time>
      </trkpt>
      <trkpt lat="42.358923700" lon="-2.656506600">
        <ele>816.80</ele>
        <time>2012-10-20T11:19:00Z</time>
      </trkpt>
      <trkpt lat="42.358898500" lon="-2.656517400">
        <ele>817.40</ele>
        <time>2012-10-20T11:19:02Z</time>
      </trkpt>
      <trkpt lat="42.358873900" lon="-2.656526800">
        <ele>817.80</ele>
        <time>2012-10-20T11:19:02Z</time>
      </trkpt>
      <trkpt lat="42.358824200" lon="-2.656552500">
        <ele>818.60</ele>
        <time>2012-10-20T11:19:04Z</time>
      </trkpt>
      <trkpt lat="42.358683900" lon="-2.656591000">
        <ele>818.60</ele>
        <time>2012-10-20T11:19:09Z</time>
      </trkpt>
      <trkpt lat="42.358563000" lon="-2.656627300">
        <ele>819.00</ele>
        <time>2012-10-20T11:19:13Z</time>
      </trkpt>
      <trkpt lat="42.358533000" lon="-2.656635100">
        <ele>819.40</ele>
        <time>2012-10-20T11:19:14Z</time>
      </trkpt>
      <trkpt lat="42.358515700" lon="-2.656648000">
        <ele>819.80</ele>
        <time>2012-10-20T11:19:16Z</time>
      </trkpt>
      <trkpt lat="42.358489000" lon="-2.656653700">
        <ele>820.20</ele>
        <time>2012-10-20T11:19:16Z</time>
      </trkpt>
      <trkpt lat="42.358462300" lon="-2.656656700">
        <ele>820.60</ele>
        <time>2012-10-20T11:19:18Z</time>
      </trkpt>
      <trkpt lat="42.358284500" lon="-2.656670700">
        <ele>820.60</ele>
        <time>2012-10-20T11:19:23Z</time>
      </trkpt>
      <trkpt lat="42.358213500" lon="-2.656703300">
        <ele>821.00</ele>
        <time>2012-10-20T11:19:27Z</time>
      </trkpt>
      <trkpt lat="42.358185100" lon="-2.656710100">
        <ele>821.40</ele>
        <time>2012-10-20T11:19:28Z</time>
      </trkpt>
      <trkpt lat="42.358158800" lon="-2.656716600">
        <ele>822.00</ele>
        <time>2012-10-20T11:19:28Z</time>
      </trkpt>
      <trkpt lat="42.358098900" lon="-2.656713600">
        <ele>822.80</ele>
        <time>2012-10-20T11:19:30Z</time>
      </trkpt>
      <trkpt lat="42.358007300" lon="-2.656743700">
        <ele>822.80</ele>
        <time>2012-10-20T11:19:35Z</time>
      </trkpt>
      <trkpt lat="42.357952500" lon="-2.656747200">
        <ele>823.20</ele>
        <time>2012-10-20T11:19:37Z</time>
      </trkpt>
      <trkpt lat="42.357919400" lon="-2.656753100">
        <ele>823.60</ele>
        <time>2012-10-20T11:19:37Z</time>
      </trkpt>
      <trkpt lat="42.357878900" lon="-2.656756300">
        <ele>824.00</ele>
        <time>2012-10-20T11:19:39Z</time>
      </trkpt>
      <trkpt lat="42.357847200" lon="-2.656764400">
        <ele>824.60</ele>
        <time>2012-10-20T11:19:39Z</time>
      </trkpt>
      <trkpt lat="42.357813100" lon="-2.656763900">
        <ele>825.00</ele>
        <time>2012-10-20T11:19:41Z</time>
      </trkpt>
      <trkpt lat="42.357722600" lon="-2.656786100">
        <ele>825.00</ele>
        <time>2012-10-20T11:19:44Z</time>
      </trkpt>
      <trkpt lat="42.357585000" lon="-2.656795800">
        <ele>825.40</ele>
        <time>2012-10-20T11:19:49Z</time>
      </trkpt>
      <trkpt lat="42.357559100" lon="-2.656804200">
        <ele>825.80</ele>
        <time>2012-10-20T11:19:51Z</time>
      </trkpt>
      <trkpt lat="42.357538600" lon="-2.656809600">
        <ele>826.20</ele>
        <time>2012-10-20T11:19:51Z</time>
      </trkpt>
      <trkpt lat="42.357509700" lon="-2.656813900">
        <ele>826.60</ele>
        <time>2012-10-20T11:19:53Z</time>
      </trkpt>
      <trkpt lat="42.357482200" lon="-2.656812900">
        <ele>827.00</ele>
        <time>2012-10-20T11:19:53Z</time>
      </trkpt>
      <trkpt lat="42.357369800" lon="-2.656802100">
        <ele>827.00</ele>
        <time>2012-10-20T11:19:58Z</time>
      </trkpt>
      <trkpt lat="42.357311000" lon="-2.656806800">
        <ele>827.40</ele>
        <time>2012-10-20T11:20:00Z</time>
      </trkpt>
      <trkpt lat="42.357284700" lon="-2.656810700">
        <ele>827.80</ele>
        <time>2012-10-20T11:20:00Z</time>
      </trkpt>
      <trkpt lat="42.357252700" lon="-2.656813000">
        <ele>828.20</ele>
        <time>2012-10-20T11:20:01Z</time>
      </trkpt>
      <trkpt lat="42.357221400" lon="-2.656807500">
        <ele>828.80</ele>
        <time>2012-10-20T11:20:03Z</time>
      </trkpt>
      <trkpt lat="42.357191200" lon="-2.656808200">
        <ele>829.20</ele>
        <time>2012-10-20T11:20:03Z</time>
      </trkpt>
      <trkpt lat="42.357055200" lon="-2.656771700">
        <ele>829.20</ele>
        <time>2012-10-20T11:20:08Z</time>
      </trkpt>
      <trkpt lat="42.357017600" lon="-2.656733900">
        <ele>829.60</ele>
        <time>2012-10-20T11:20:12Z</time>
      </trkpt>
      <trkpt lat="42.357009300" lon="-2.656721300">
        <ele>830.00</ele>
        <time>2012-10-20T11:20:12Z</time>
      </trkpt>
      <trkpt lat="42.356993400" lon="-2.656701100">
        <ele>830.80</ele>
        <time>2012-10-20T11:20:14Z</time>
      </trkpt>
      <trkpt lat="42.356982100" lon="-2.656692200">
        <ele>831.20</ele>
        <time>2012-10-20T11:20:15Z</time>
      </trkpt>
      <trkpt lat="42.356974200" lon="-2.656683300">
        <ele>831.20</ele>
        <time>2012-10-20T11:20:17Z</time>
      </trkpt>
      <trkpt lat="42.356929100" lon="-2.656655200">
        <ele>831.60</ele>
        <time>2012-10-20T11:20:21Z</time>
      </trkpt>
      <trkpt lat="42.356916300" lon="-2.656650100">
        <ele>832.00</ele>
        <time>2012-10-20T11:20:22Z</time>
      </trkpt>
      <trkpt lat="42.356902500" lon="-2.656644800">
        <ele>832.60</ele>
        <time>2012-10-20T11:20:22Z</time>
      </trkpt>
      <trkpt lat="42.356871700" lon="-2.656636400">
        <ele>833.40</ele>
        <time>2012-10-20T11:20:24Z</time>
      </trkpt>
      <trkpt lat="42.356748500" lon="-2.656572100">
        <ele>833.80</ele>
        <time>2012-10-20T11:20:33Z</time>
      </trkpt>
      <trkpt lat="42.356733700" lon="-2.656564200">
        <ele>834.20</ele>
        <time>2012-10-20T11:20:33Z</time>
      </trkpt>
      <trkpt lat="42.356714300" lon="-2.656555300">
        <ele>834.80</ele>
        <time>2012-10-20T11:20:35Z</time>
      </trkpt>
      <trkpt lat="42.356695700" lon="-2.656542200">
        <ele>835.20</ele>
        <time>2012-10-20T11:20:36Z</time>
      </trkpt>
      <trkpt lat="42.356683400" lon="-2.656528100">
        <ele>835.60</ele>
        <time>2012-10-20T11:20:36Z</time>
      </trkpt>
      <trkpt lat="42.356652300" lon="-2.656507800">
        <ele>835.60</ele>
        <time>2012-10-20T11:20:38Z</time>
      </trkpt>
      <trkpt lat="42.356603000" lon="-2.656473100">
        <ele>836.00</ele>
        <time>2012-10-20T11:20:43Z</time>
      </trkpt>
      <trkpt lat="42.356586300" lon="-2.656459700">
        <ele>836.40</ele>
        <time>2012-10-20T11:20:43Z</time>
      </trkpt>
      <trkpt lat="42.356568100" lon="-2.656449400">
        <ele>836.80</ele>
        <time>2012-10-20T11:20:45Z</time>
      </trkpt>
      <trkpt lat="42.356552000" lon="-2.656439800">
        <ele>837.20</ele>
        <time>2012-10-20T11:20:45Z</time>
      </trkpt>
      <trkpt lat="42.356533700" lon="-2.656430600">
        <ele>837.60</ele>
        <time>2012-10-20T11:20:47Z</time>
      </trkpt>
      <trkpt lat="42.356468700" lon="-2.656388600">
        <ele>837.60</ele>
        <time>2012-10-20T11:20:50Z</time>
      </trkpt>
      <trkpt lat="42.356454700" lon="-2.656376700">
        <ele>838.00</ele>
        <time>2012-10-20T11:20:52Z</time>
      </trkpt>
      <trkpt lat="42.356446100" lon="-2.656366500">
        <ele>838.60</ele>
        <time>2012-10-20T11:20:52Z</time>
      </trkpt>
      <trkpt lat="42.356437400" lon="-2.656355600">
        <ele>839.00</ele>
        <time>2012-10-20T11:20:54Z</time>
      </trkpt>
      <trkpt lat="42.356428000" lon="-2.656339700">
        <ele>839.40</ele>
        <time>2012-10-20T11:20:54Z</time>
      </trkpt>
      <trkpt lat="42.356417000" lon="-2.656330700">
        <ele>839.80</ele>
        <time>2012-10-20T11:20:55Z</time>
      </trkpt>
      <trkpt lat="42.356405600" lon="-2.656316100">
        <ele>839.80</ele>
        <time>2012-10-20T11:20:57Z</time>
      </trkpt>
      <trkpt lat="42.356356500" lon="-2.656273100">
        <ele>840.20</ele>
        <time>2012-10-20T11:21:01Z</time>
      </trkpt>
      <trkpt lat="42.356341100" lon="-2.656262700">
        <ele>840.60</ele>
        <time>2012-10-20T11:21:01Z</time>
      </trkpt>
      <trkpt lat="42.356327300" lon="-2.656256600">
        <ele>841.00</ele>
        <time>2012-10-20T11:21:02Z</time>
      </trkpt>
      <trkpt lat="42.356310400" lon="-2.656249300">
        <ele>841.40</ele>
        <time>2012-10-20T11:21:04Z</time>
      </trkpt>
      <trkpt lat="42.356293000" lon="-2.656242500">
        <ele>841.80</ele>
        <time>2012-10-20T11:21:04Z</time>
      </trkpt>
      <trkpt lat="42.356251400" lon="-2.656227600">
        <ele>842.40</ele>
        <time>2012-10-20T11:21:08Z</time>
      </trkpt>
      <trkpt lat="42.356238300" lon="-2.656221800">
        <ele>842.80</ele>
        <time>2012-10-20T11:21:09Z</time>
      </trkpt>
      <trkpt lat="42.356223700" lon="-2.656218200">
        <ele>843.40</ele>
        <time>2012-10-20T11:21:09Z</time>
      </trkpt>
      <trkpt lat="42.356210900" lon="-2.656215200">
        <ele>843.80</ele>
        <time>2012-10-20T11:21:11Z</time>
      </trkpt>
      <trkpt lat="42.356196000" lon="-2.656214200">
        <ele>844.40</ele>
        <time>2012-10-20T11:21:11Z</time>
      </trkpt>
      <trkpt lat="42.356181500" lon="-2.656205800">
        <ele>844.40</ele>
        <time>2012-10-20T11:21:13Z</time>
      </trkpt>
      <trkpt lat="42.356087100" lon="-2.656192800">
        <ele>844.40</ele>
        <time>2012-10-20T11:21:20Z</time>
      </trkpt>
      <trkpt lat="42.356062600" lon="-2.656187900">
        <ele>844.80</ele>
        <time>2012-10-20T11:21:22Z</time>
      </trkpt>
      <trkpt lat="42.356050400" lon="-2.656185400">
        <ele>845.20</ele>
        <time>2012-10-20T11:21:23Z</time>
      </trkpt>
      <trkpt lat="42.356036700" lon="-2.656181900">
        <ele>845.60</ele>
        <time>2012-10-20T11:21:23Z</time>
      </trkpt>
      <trkpt lat="42.356020600" lon="-2.656181100">
        <ele>846.00</ele>
        <time>2012-10-20T11:21:25Z</time>
      </trkpt>
      <trkpt lat="42.356002900" lon="-2.656178500">
        <ele>846.40</ele>
        <time>2012-10-20T11:21:25Z</time>
      </trkpt>
      <trkpt lat="42.355981300" lon="-2.656176200">
        <ele>846.40</ele>
        <time>2012-10-20T11:21:27Z</time>
      </trkpt>
      <trkpt lat="42.355841100" lon="-2.656143600">
        <ele>846.40</ele>
        <time>2012-10-20T11:21:32Z</time>
      </trkpt>
      <trkpt lat="42.355740800" lon="-2.656105800">
        <ele>846.40</ele>
        <time>2012-10-20T11:21:39Z</time>
      </trkpt>
      <trkpt lat="42.355718100" lon="-2.656090600">
        <ele>846.80</ele>
        <time>2012-10-20T11:21:41Z</time>
      </trkpt>
      <trkpt lat="42.355699700" lon="-2.656084600">
        <ele>847.20</ele>
        <time>2012-10-20T11:21:42Z</time>
      </trkpt>
      <trkpt lat="42.355683800" lon="-2.656076400">
        <ele>847.80</ele>
        <time>2012-10-20T11:21:44Z</time>
      </trkpt>
      <trkpt lat="42.355669400" lon="-2.656069600">
        <ele>848.20</ele>
        <time>2012-10-20T11:21:44Z</time>
      </trkpt>
      <trkpt lat="42.355652600" lon="-2.656061600">
        <ele>848.60</ele>
        <time>2012-10-20T11:21:46Z</time>
      </trkpt>
      <trkpt lat="42.355639500" lon="-2.656051900">
        <ele>848.60</ele>
        <time>2012-10-20T11:21:46Z</time>
      </trkpt>
      <trkpt lat="42.355559800" lon="-2.656004900">
        <ele>849.00</ele>
        <time>2012-10-20T11:21:53Z</time>
      </trkpt>
      <trkpt lat="42.355547200" lon="-2.655999600">
        <ele>849.40</ele>
        <time>2012-10-20T11:21:53Z</time>
      </trkpt>
      <trkpt lat="42.355536100" lon="-2.655993400">
        <ele>849.80</ele>
        <time>2012-10-20T11:21:55Z</time>
      </trkpt>
      <trkpt lat="42.355523500" lon="-2.655989600">
        <ele>850.20</ele>
        <time>2012-10-20T11:21:55Z</time>
      </trkpt>
      <trkpt lat="42.355510800" lon="-2.655980300">
        <ele>850.80</ele>
        <time>2012-10-20T11:21:56Z</time>
      </trkpt>
      <trkpt lat="42.355447600" lon="-2.655934900">
        <ele>851.20</ele>
        <time>2012-10-20T11:22:02Z</time>
      </trkpt>
      <trkpt lat="42.355440600" lon="-2.655925200">
        <ele>851.60</ele>
        <time>2012-10-20T11:22:02Z</time>
      </trkpt>
      <trkpt lat="42.355427400" lon="-2.655916700">
        <ele>852.00</ele>
        <time>2012-10-20T11:22:03Z</time>
      </trkpt>
      <trkpt lat="42.355415000" lon="-2.655900400">
        <ele>852.40</ele>
        <time>2012-10-20T11:22:05Z</time>
      </trkpt>
      <trkpt lat="42.355404100" lon="-2.655891200">
        <ele>852.80</ele>
        <time>2012-10-20T11:22:05Z</time>
      </trkpt>
      <trkpt lat="42.355390900" lon="-2.655877900">
        <ele>852.80</ele>
        <time>2012-10-20T11:22:07Z</time>
      </trkpt>
      <trkpt lat="42.355376100" lon="-2.655874500">
        <ele>852.80</ele>
        <time>2012-10-20T11:22:07Z</time>
      </trkpt>
      <trkpt lat="42.355356100" lon="-2.655851400">
        <ele>852.80</ele>
        <time>2012-10-20T11:22:10Z</time>
      </trkpt>
      <trkpt lat="42.355347400" lon="-2.655844700">
        <ele>852.80</ele>
        <time>2012-10-20T11:22:10Z</time>
      </trkpt>
      <trkpt lat="42.355338100" lon="-2.655838000">
        <ele>853.20</ele>
        <time>2012-10-20T11:22:12Z</time>
      </trkpt>
      <trkpt lat="42.355334900" lon="-2.655818100">
        <ele>853.60</ele>
        <time>2012-10-20T11:22:12Z</time>
      </trkpt>
      <trkpt lat="42.355326900" lon="-2.655802200">
        <ele>854.00</ele>
        <time>2012-10-20T11:22:14Z</time>
      </trkpt>
      <trkpt lat="42.355319400" lon="-2.655794100">
        <ele>854.40</ele>
        <time>2012-10-20T11:22:14Z</time>
      </trkpt>
      <trkpt lat="42.355313800" lon="-2.655782000">
        <ele>854.80</ele>
        <time>2012-10-20T11:22:16Z</time>
      </trkpt>
      <trkpt lat="42.355263300" lon="-2.655724400">
        <ele>854.80</ele>
        <time>2012-10-20T11:22:21Z</time>
      </trkpt>
      <trkpt lat="42.355251100" lon="-2.655715300">
        <ele>855.20</ele>
        <time>2012-10-20T11:22:21Z</time>
      </trkpt>
      <trkpt lat="42.355239500" lon="-2.655708400">
        <ele>855.60</ele>
        <time>2012-10-20T11:22:23Z</time>
      </trkpt>
      <trkpt lat="42.355229300" lon="-2.655702800">
        <ele>856.00</ele>
        <time>2012-10-20T11:22:24Z</time>
      </trkpt>
      <trkpt lat="42.355217400" lon="-2.655695100">
        <ele>856.40</ele>
        <time>2012-10-20T11:22:24Z</time>
      </trkpt>
      <trkpt lat="42.355207000" lon="-2.655687300">
        <ele>856.80</ele>
        <time>2012-10-20T11:22:26Z</time>
      </trkpt>
      <trkpt lat="42.355172900" lon="-2.655620700">
        <ele>856.80</ele>
        <time>2012-10-20T11:22:31Z</time>
      </trkpt>
      <trkpt lat="42.355151800" lon="-2.655582600">
        <ele>857.20</ele>
        <time>2012-10-20T11:22:33Z</time>
      </trkpt>
      <trkpt lat="42.355140700" lon="-2.655569100">
        <ele>857.80</ele>
        <time>2012-10-20T11:22:35Z</time>
      </trkpt>
      <trkpt lat="42.355128300" lon="-2.655556100">
        <ele>858.20</ele>
        <time>2012-10-20T11:22:35Z</time>
      </trkpt>
      <trkpt lat="42.355110700" lon="-2.655546700">
        <ele>858.80</ele>
        <time>2012-10-20T11:22:36Z</time>
      </trkpt>
      <trkpt lat="42.355094000" lon="-2.655537500">
        <ele>859.20</ele>
        <time>2012-10-20T11:22:38Z</time>
      </trkpt>
      <trkpt lat="42.355079100" lon="-2.655528400">
        <ele>859.20</ele>
        <time>2012-10-20T11:22:38Z</time>
      </trkpt>
      <trkpt lat="42.355025100" lon="-2.655481100">
        <ele>859.60</ele>
        <time>2012-10-20T11:22:43Z</time>
      </trkpt>
      <trkpt lat="42.355000100" lon="-2.655463500">
        <ele>860.40</ele>
        <time>2012-10-20T11:22:45Z</time>
      </trkpt>
      <trkpt lat="42.354988000" lon="-2.655455500">
        <ele>860.80</ele>
        <time>2012-10-20T11:22:47Z</time>
      </trkpt>
      <trkpt lat="42.354976100" lon="-2.655447900">
        <ele>861.40</ele>
        <time>2012-10-20T11:22:47Z</time>
      </trkpt>
      <trkpt lat="42.354923700" lon="-2.655395400">
        <ele>861.40</ele>
        <time>2012-10-20T11:22:52Z</time>
      </trkpt>
      <trkpt lat="42.354906900" lon="-2.655372800">
        <ele>862.20</ele>
        <time>2012-10-20T11:22:54Z</time>
      </trkpt>
      <trkpt lat="42.354897500" lon="-2.655358900">
        <ele>862.60</ele>
        <time>2012-10-20T11:22:56Z</time>
      </trkpt>
      <trkpt lat="42.354886200" lon="-2.655346900">
        <ele>863.00</ele>
        <time>2012-10-20T11:22:57Z</time>
      </trkpt>
      <trkpt lat="42.354877800" lon="-2.655333600">
        <ele>863.40</ele>
        <time>2012-10-20T11:22:57Z</time>
      </trkpt>
      <trkpt lat="42.354876800" lon="-2.655319600">
        <ele>863.40</ele>
        <time>2012-10-20T11:22:59Z</time>
      </trkpt>
      <trkpt lat="42.354866100" lon="-2.655284000">
        <ele>863.40</ele>
        <time>2012-10-20T11:23:01Z</time>
      </trkpt>
      <trkpt lat="42.354843400" lon="-2.655237500">
        <ele>863.40</ele>
        <time>2012-10-20T11:23:04Z</time>
      </trkpt>
      <trkpt lat="42.354797600" lon="-2.655186800">
        <ele>863.40</ele>
        <time>2012-10-20T11:23:06Z</time>
      </trkpt>
      <trkpt lat="42.354754900" lon="-2.655149700">
        <ele>863.80</ele>
        <time>2012-10-20T11:23:10Z</time>
      </trkpt>
      <trkpt lat="42.354746000" lon="-2.655135300">
        <ele>864.20</ele>
        <time>2012-10-20T11:23:11Z</time>
      </trkpt>
      <trkpt lat="42.354738200" lon="-2.655124800">
        <ele>864.60</ele>
        <time>2012-10-20T11:23:11Z</time>
      </trkpt>
      <trkpt lat="42.354731000" lon="-2.655102800">
        <ele>865.00</ele>
        <time>2012-10-20T11:23:13Z</time>
      </trkpt>
      <trkpt lat="42.354724500" lon="-2.655087900">
        <ele>865.40</ele>
        <time>2012-10-20T11:23:13Z</time>
      </trkpt>
      <trkpt lat="42.354681900" lon="-2.655014200">
        <ele>865.40</ele>
        <time>2012-10-20T11:23:18Z</time>
      </trkpt>
      <trkpt lat="42.354663000" lon="-2.654994700">
        <ele>865.40</ele>
        <time>2012-10-20T11:23:20Z</time>
      </trkpt>
      <trkpt lat="42.354656400" lon="-2.654985900">
        <ele>865.80</ele>
        <time>2012-10-20T11:23:22Z</time>
      </trkpt>
      <trkpt lat="42.354648600" lon="-2.654976500">
        <ele>866.20</ele>
        <time>2012-10-20T11:23:22Z</time>
      </trkpt>
      <trkpt lat="42.354638200" lon="-2.654965800">
        <ele>866.60</ele>
        <time>2012-10-20T11:23:24Z</time>
      </trkpt>
      <trkpt lat="42.354625900" lon="-2.654950100">
        <ele>867.20</ele>
        <time>2012-10-20T11:23:25Z</time>
      </trkpt>
      <trkpt lat="42.354613100" lon="-2.654936200">
        <ele>867.60</ele>
        <time>2012-10-20T11:23:25Z</time>
      </trkpt>
      <trkpt lat="42.354570300" lon="-2.654874400">
        <ele>867.60</ele>
        <time>2012-10-20T11:23:29Z</time>
      </trkpt>
      <trkpt lat="42.354542500" lon="-2.654830600">
        <ele>868.00</ele>
        <time>2012-10-20T11:23:32Z</time>
      </trkpt>
      <trkpt lat="42.354535100" lon="-2.654820100">
        <ele>868.60</ele>
        <time>2012-10-20T11:23:34Z</time>
      </trkpt>
      <trkpt lat="42.354527700" lon="-2.654808100">
        <ele>869.00</ele>
        <time>2012-10-20T11:23:34Z</time>
      </trkpt>
      <trkpt lat="42.354520700" lon="-2.654796800">
        <ele>869.60</ele>
        <time>2012-10-20T11:23:36Z</time>
      </trkpt>
      <trkpt lat="42.354508600" lon="-2.654782300">
        <ele>870.00</ele>
        <time>2012-10-20T11:23:36Z</time>
      </trkpt>
      <trkpt lat="42.354478100" lon="-2.654738800">
        <ele>870.00</ele>
        <time>2012-10-20T11:23:41Z</time>
      </trkpt>
      <trkpt lat="42.354446000" lon="-2.654689100">
        <ele>870.00</ele>
        <time>2012-10-20T11:23:44Z</time>
      </trkpt>
      <trkpt lat="42.354437500" lon="-2.654677300">
        <ele>870.40</ele>
        <time>2012-10-20T11:23:46Z</time>
      </trkpt>
      <trkpt lat="42.354428600" lon="-2.654667400">
        <ele>870.80</ele>
        <time>2012-10-20T11:23:46Z</time>
      </trkpt>
      <trkpt lat="42.354419300" lon="-2.654658700">
        <ele>871.20</ele>
        <time>2012-10-20T11:23:48Z</time>
      </trkpt>
      <trkpt lat="42.354410800" lon="-2.654653400">
        <ele>871.80</ele>
        <time>2012-10-20T11:23:48Z</time>
      </trkpt>
      <trkpt lat="42.354401000" lon="-2.654646500">
        <ele>872.20</ele>
        <time>2012-10-20T11:23:50Z</time>
      </trkpt>
      <trkpt lat="42.354338600" lon="-2.654598300">
        <ele>872.20</ele>
        <time>2012-10-20T11:23:55Z</time>
      </trkpt>
      <trkpt lat="42.354312800" lon="-2.654578100">
        <ele>873.00</ele>
        <time>2012-10-20T11:23:57Z</time>
      </trkpt>
      <trkpt lat="42.354301600" lon="-2.654569700">
        <ele>873.40</ele>
        <time>2012-10-20T11:23:58Z</time>
      </trkpt>
      <trkpt lat="42.354277400" lon="-2.654554100">
        <ele>874.20</ele>
        <time>2012-10-20T11:24:00Z</time>
      </trkpt>
      <trkpt lat="42.354224100" lon="-2.654493900">
        <ele>874.20</ele>
        <time>2012-10-20T11:24:07Z</time>
      </trkpt>
      <trkpt lat="42.354201100" lon="-2.654471400">
        <ele>874.60</ele>
        <time>2012-10-20T11:24:09Z</time>
      </trkpt>
      <trkpt lat="42.354190800" lon="-2.654465500">
        <ele>875.20</ele>
        <time>2012-10-20T11:24:11Z</time>
      </trkpt>
      <trkpt lat="42.354178800" lon="-2.654457300">
        <ele>875.60</ele>
        <time>2012-10-20T11:24:12Z</time>
      </trkpt>
      <trkpt lat="42.354164500" lon="-2.654453100">
        <ele>876.00</ele>
        <time>2012-10-20T11:24:12Z</time>
      </trkpt>
      <trkpt lat="42.354149800" lon="-2.654446000">
        <ele>876.60</ele>
        <time>2012-10-20T11:24:14Z</time>
      </trkpt>
      <trkpt lat="42.354114700" lon="-2.654428800">
        <ele>876.60</ele>
        <time>2012-10-20T11:24:16Z</time>
      </trkpt>
      <trkpt lat="42.354016100" lon="-2.654361600">
        <ele>876.60</ele>
        <time>2012-10-20T11:24:23Z</time>
      </trkpt>
      <trkpt lat="42.353973600" lon="-2.654333300">
        <ele>877.00</ele>
        <time>2012-10-20T11:24:26Z</time>
      </trkpt>
      <trkpt lat="42.353958400" lon="-2.654323300">
        <ele>877.40</ele>
        <time>2012-10-20T11:24:26Z</time>
      </trkpt>
      <trkpt lat="42.353944300" lon="-2.654310900">
        <ele>877.80</ele>
        <time>2012-10-20T11:24:28Z</time>
      </trkpt>
      <trkpt lat="42.353933800" lon="-2.654302900">
        <ele>878.20</ele>
        <time>2012-10-20T11:24:28Z</time>
      </trkpt>
      <trkpt lat="42.353918300" lon="-2.654288500">
        <ele>878.60</ele>
        <time>2012-10-20T11:24:30Z</time>
      </trkpt>
      <trkpt lat="42.353833700" lon="-2.654209900">
        <ele>879.00</ele>
        <time>2012-10-20T11:24:37Z</time>
      </trkpt>
      <trkpt lat="42.353824500" lon="-2.654196600">
        <ele>879.40</ele>
        <time>2012-10-20T11:24:37Z</time>
      </trkpt>
      <trkpt lat="42.353813200" lon="-2.654183600">
        <ele>879.80</ele>
        <time>2012-10-20T11:24:38Z</time>
      </trkpt>
      <trkpt lat="42.353798500" lon="-2.654169100">
        <ele>880.20</ele>
        <time>2012-10-20T11:24:40Z</time>
      </trkpt>
      <trkpt lat="42.353787000" lon="-2.654153400">
        <ele>880.80</ele>
        <time>2012-10-20T11:24:40Z</time>
      </trkpt>
      <trkpt lat="42.353742100" lon="-2.654095200">
        <ele>880.80</ele>
        <time>2012-10-20T11:24:45Z</time>
      </trkpt>
      <trkpt lat="42.353715400" lon="-2.654050900">
        <ele>880.80</ele>
        <time>2012-10-20T11:24:47Z</time>
      </trkpt>
      <trkpt lat="42.353680900" lon="-2.654034200">
        <ele>880.80</ele>
        <time>2012-10-20T11:24:49Z</time>
      </trkpt>
      <trkpt lat="42.353670200" lon="-2.654024200">
        <ele>881.20</ele>
        <time>2012-10-20T11:24:51Z</time>
      </trkpt>
      <trkpt lat="42.353654500" lon="-2.654019300">
        <ele>881.60</ele>
        <time>2012-10-20T11:24:52Z</time>
      </trkpt>
      <trkpt lat="42.353643100" lon="-2.654012300">
        <ele>882.00</ele>
        <time>2012-10-20T11:24:52Z</time>
      </trkpt>
      <trkpt lat="42.353631300" lon="-2.654006400">
        <ele>882.60</ele>
        <time>2012-10-20T11:24:54Z</time>
      </trkpt>
      <trkpt lat="42.353622000" lon="-2.654000600">
        <ele>883.00</ele>
        <time>2012-10-20T11:24:54Z</time>
      </trkpt>
      <trkpt lat="42.353593100" lon="-2.653976200">
        <ele>883.00</ele>
        <time>2012-10-20T11:24:58Z</time>
      </trkpt>
      <trkpt lat="42.353554400" lon="-2.653961200">
        <ele>883.00</ele>
        <time>2012-10-20T11:25:01Z</time>
      </trkpt>
      <trkpt lat="42.353517500" lon="-2.653940300">
        <ele>883.40</ele>
        <time>2012-10-20T11:25:03Z</time>
      </trkpt>
      <trkpt lat="42.353498100" lon="-2.653930600">
        <ele>883.80</ele>
        <time>2012-10-20T11:25:05Z</time>
      </trkpt>
      <trkpt lat="42.353483500" lon="-2.653923900">
        <ele>884.20</ele>
        <time>2012-10-20T11:25:06Z</time>
      </trkpt>
      <trkpt lat="42.353472400" lon="-2.653915600">
        <ele>884.80</ele>
        <time>2012-10-20T11:25:06Z</time>
      </trkpt>
      <trkpt lat="42.353460400" lon="-2.653904800">
        <ele>885.20</ele>
        <time>2012-10-20T11:25:08Z</time>
      </trkpt>
      <trkpt lat="42.353441900" lon="-2.653884600">
        <ele>885.20</ele>
        <time>2012-10-20T11:25:10Z</time>
      </trkpt>
      <trkpt lat="42.353429400" lon="-2.653865800">
        <ele>885.20</ele>
        <time>2012-10-20T11:25:12Z</time>
      </trkpt>
      <trkpt lat="42.353416000" lon="-2.653847500">
        <ele>885.60</ele>
        <time>2012-10-20T11:25:13Z</time>
      </trkpt>
      <trkpt lat="42.353409000" lon="-2.653839500">
        <ele>886.00</ele>
        <time>2012-10-20T11:25:15Z</time>
      </trkpt>
      <trkpt lat="42.353401700" lon="-2.653829100">
        <ele>886.40</ele>
        <time>2012-10-20T11:25:15Z</time>
      </trkpt>
      <trkpt lat="42.353398100" lon="-2.653829200">
        <ele>886.80</ele>
        <time>2012-10-20T11:25:17Z</time>
      </trkpt>
      <trkpt lat="42.353388300" lon="-2.653818900">
        <ele>887.40</ele>
        <time>2012-10-20T11:25:17Z</time>
      </trkpt>
      <trkpt lat="42.353321000" lon="-2.653735900">
        <ele>887.40</ele>
        <time>2012-10-20T11:25:24Z</time>
      </trkpt>
      <trkpt lat="42.353291500" lon="-2.653711900">
        <ele>887.80</ele>
        <time>2012-10-20T11:25:25Z</time>
      </trkpt>
      <trkpt lat="42.353278200" lon="-2.653699100">
        <ele>888.20</ele>
        <time>2012-10-20T11:25:27Z</time>
      </trkpt>
      <trkpt lat="42.353264400" lon="-2.653691800">
        <ele>888.60</ele>
        <time>2012-10-20T11:25:27Z</time>
      </trkpt>
      <trkpt lat="42.353243100" lon="-2.653683600">
        <ele>889.00</ele>
        <time>2012-10-20T11:25:29Z</time>
      </trkpt>
      <trkpt lat="42.353225100" lon="-2.653675500">
        <ele>889.40</ele>
        <time>2012-10-20T11:25:29Z</time>
      </trkpt>
      <trkpt lat="42.353178500" lon="-2.653652600">
        <ele>889.40</ele>
        <time>2012-10-20T11:25:32Z</time>
      </trkpt>
      <trkpt lat="42.353146400" lon="-2.653618700">
        <ele>889.40</ele>
        <time>2012-10-20T11:25:36Z</time>
      </trkpt>
      <trkpt lat="42.353118900" lon="-2.653581500">
        <ele>889.80</ele>
        <time>2012-10-20T11:25:38Z</time>
      </trkpt>
      <trkpt lat="42.353108100" lon="-2.653571200">
        <ele>890.20</ele>
        <time>2012-10-20T11:25:39Z</time>
      </trkpt>
      <trkpt lat="42.353095100" lon="-2.653553600">
        <ele>890.60</ele>
        <time>2012-10-20T11:25:41Z</time>
      </trkpt>
      <trkpt lat="42.353081700" lon="-2.653545700">
        <ele>891.00</ele>
        <time>2012-10-20T11:25:41Z</time>
      </trkpt>
      <trkpt lat="42.353064000" lon="-2.653534900">
        <ele>891.40</ele>
        <time>2012-10-20T11:25:43Z</time>
      </trkpt>
      <trkpt lat="42.353001300" lon="-2.653509500">
        <ele>891.40</ele>
        <time>2012-10-20T11:25:46Z</time>
      </trkpt>
      <trkpt lat="42.352937100" lon="-2.653448100">
        <ele>891.80</ele>
        <time>2012-10-20T11:25:52Z</time>
      </trkpt>
      <trkpt lat="42.352924100" lon="-2.653434500">
        <ele>892.40</ele>
        <time>2012-10-20T11:25:53Z</time>
      </trkpt>
      <trkpt lat="42.352913800" lon="-2.653422000">
        <ele>892.80</ele>
        <time>2012-10-20T11:25:53Z</time>
      </trkpt>
      <trkpt lat="42.352909100" lon="-2.653411100">
        <ele>893.20</ele>
        <time>2012-10-20T11:25:55Z</time>
      </trkpt>
      <trkpt lat="42.352900400" lon="-2.653405600">
        <ele>893.60</ele>
        <time>2012-10-20T11:25:55Z</time>
      </trkpt>
      <trkpt lat="42.352893900" lon="-2.653379100">
        <ele>893.60</ele>
        <time>2012-10-20T11:25:59Z</time>
      </trkpt>
      <trkpt lat="42.352861000" lon="-2.653349500">
        <ele>893.60</ele>
        <time>2012-10-20T11:26:02Z</time>
      </trkpt>
      <trkpt lat="42.352844700" lon="-2.653339800">
        <ele>894.00</ele>
        <time>2012-10-20T11:26:02Z</time>
      </trkpt>
      <trkpt lat="42.352829200" lon="-2.653329000">
        <ele>894.60</ele>
        <time>2012-10-20T11:26:04Z</time>
      </trkpt>
      <trkpt lat="42.352813800" lon="-2.653308600">
        <ele>895.00</ele>
        <time>2012-10-20T11:26:04Z</time>
      </trkpt>
      <trkpt lat="42.352802400" lon="-2.653294600">
        <ele>895.40</ele>
        <time>2012-10-20T11:26:06Z</time>
      </trkpt>
      <trkpt lat="42.352788300" lon="-2.653281100">
        <ele>896.00</ele>
        <time>2012-10-20T11:26:07Z</time>
      </trkpt>
      <trkpt lat="42.352764200" lon="-2.653243300">
        <ele>896.00</ele>
        <time>2012-10-20T11:26:09Z</time>
      </trkpt>
      <trkpt lat="42.352742200" lon="-2.653216300">
        <ele>896.00</ele>
        <time>2012-10-20T11:26:11Z</time>
      </trkpt>
      <trkpt lat="42.352729700" lon="-2.653210300">
        <ele>896.00</ele>
        <time>2012-10-20T11:26:11Z</time>
      </trkpt>
      <trkpt lat="42.352714900" lon="-2.653194600">
        <ele>896.40</ele>
        <time>2012-10-20T11:26:12Z</time>
      </trkpt>
      <trkpt lat="42.352700700" lon="-2.653183700">
        <ele>896.80</ele>
        <time>2012-10-20T11:26:14Z</time>
      </trkpt>
      <trkpt lat="42.352685200" lon="-2.653174300">
        <ele>897.20</ele>
        <time>2012-10-20T11:26:14Z</time>
      </trkpt>
      <trkpt lat="42.352666800" lon="-2.653164900">
        <ele>897.80</ele>
        <time>2012-10-20T11:26:16Z</time>
      </trkpt>
      <trkpt lat="42.352659700" lon="-2.653160800">
        <ele>898.20</ele>
        <time>2012-10-20T11:26:16Z</time>
      </trkpt>
      <trkpt lat="42.352628200" lon="-2.653138800">
        <ele>898.20</ele>
        <time>2012-10-20T11:26:19Z</time>
      </trkpt>
      <trkpt lat="42.352595200" lon="-2.653114400">
        <ele>898.20</ele>
        <time>2012-10-20T11:26:23Z</time>
      </trkpt>
      <trkpt lat="42.352555000" lon="-2.653083700">
        <ele>898.60</ele>
        <time>2012-10-20T11:26:25Z</time>
      </trkpt>
      <trkpt lat="42.352543100" lon="-2.653072300">
        <ele>899.00</ele>
        <time>2012-10-20T11:26:26Z</time>
      </trkpt>
      <trkpt lat="42.352534600" lon="-2.653060900">
        <ele>899.40</ele>
        <time>2012-10-20T11:26:28Z</time>
      </trkpt>
      <trkpt lat="42.352524200" lon="-2.653045200">
        <ele>900.00</ele>
        <time>2012-10-20T11:26:28Z</time>
      </trkpt>
      <trkpt lat="42.352518100" lon="-2.653033100">
        <ele>900.40</ele>
        <time>2012-10-20T11:26:30Z</time>
      </trkpt>
      <trkpt lat="42.352489200" lon="-2.652975500">
        <ele>900.40</ele>
        <time>2012-10-20T11:26:33Z</time>
      </trkpt>
      <trkpt lat="42.352459500" lon="-2.652943000">
        <ele>900.80</ele>
        <time>2012-10-20T11:26:37Z</time>
      </trkpt>
      <trkpt lat="42.352449400" lon="-2.652932700">
        <ele>901.20</ele>
        <time>2012-10-20T11:26:37Z</time>
      </trkpt>
      <trkpt lat="42.352438400" lon="-2.652919500">
        <ele>901.60</ele>
        <time>2012-10-20T11:26:39Z</time>
      </trkpt>
      <trkpt lat="42.352429500" lon="-2.652912400">
        <ele>902.00</ele>
        <time>2012-10-20T11:26:40Z</time>
      </trkpt>
      <trkpt lat="42.352414900" lon="-2.652903700">
        <ele>902.40</ele>
        <time>2012-10-20T11:26:40Z</time>
      </trkpt>
      <trkpt lat="42.352348000" lon="-2.652872100">
        <ele>902.40</ele>
        <time>2012-10-20T11:26:47Z</time>
      </trkpt>
      <trkpt lat="42.352338900" lon="-2.652865800">
        <ele>902.80</ele>
        <time>2012-10-20T11:26:47Z</time>
      </trkpt>
      <trkpt lat="42.352334000" lon="-2.652850800">
        <ele>903.20</ele>
        <time>2012-10-20T11:26:49Z</time>
      </trkpt>
      <trkpt lat="42.352325800" lon="-2.652844900">
        <ele>903.60</ele>
        <time>2012-10-20T11:26:49Z</time>
      </trkpt>
      <trkpt lat="42.352321500" lon="-2.652833300">
        <ele>904.00</ele>
        <time>2012-10-20T11:26:51Z</time>
      </trkpt>
      <trkpt lat="42.352312900" lon="-2.652824300">
        <ele>904.40</ele>
        <time>2012-10-20T11:26:51Z</time>
      </trkpt>
      <trkpt lat="42.352292100" lon="-2.652800100">
        <ele>904.40</ele>
        <time>2012-10-20T11:26:54Z</time>
      </trkpt>
      <trkpt lat="42.352257600" lon="-2.652742700">
        <ele>904.80</ele>
        <time>2012-10-20T11:26:58Z</time>
      </trkpt>
      <trkpt lat="42.352247800" lon="-2.652732900">
        <ele>905.20</ele>
        <time>2012-10-20T11:27:00Z</time>
      </trkpt>
      <trkpt lat="42.352242500" lon="-2.652722800">
        <ele>905.60</ele>
        <time>2012-10-20T11:27:01Z</time>
      </trkpt>
      <trkpt lat="42.352234000" lon="-2.652713900">
        <ele>906.00</ele>
        <time>2012-10-20T11:27:01Z</time>
      </trkpt>
      <trkpt lat="42.352224900" lon="-2.652700500">
        <ele>906.40</ele>
        <time>2012-10-20T11:27:03Z</time>
      </trkpt>
      <trkpt lat="42.352183200" lon="-2.652682100">
        <ele>906.40</ele>
        <time>2012-10-20T11:27:05Z</time>
      </trkpt>
      <trkpt lat="42.352137800" lon="-2.652656500">
        <ele>906.80</ele>
        <time>2012-10-20T11:27:10Z</time>
      </trkpt>
      <trkpt lat="42.352124700" lon="-2.652642900">
        <ele>907.20</ele>
        <time>2012-10-20T11:27:10Z</time>
      </trkpt>
      <trkpt lat="42.352113900" lon="-2.652633000">
        <ele>907.60</ele>
        <time>2012-10-20T11:27:12Z</time>
      </trkpt>
      <trkpt lat="42.352103000" lon="-2.652624800">
        <ele>908.00</ele>
        <time>2012-10-20T11:27:12Z</time>
      </trkpt>
      <trkpt lat="42.352093100" lon="-2.652614100">
        <ele>908.40</ele>
        <time>2012-10-20T11:27:13Z</time>
      </trkpt>
      <trkpt lat="42.352049700" lon="-2.652572000">
        <ele>908.40</ele>
        <time>2012-10-20T11:27:17Z</time>
      </trkpt>
      <trkpt lat="42.351984700" lon="-2.652496000">
        <ele>909.00</ele>
        <time>2012-10-20T11:27:24Z</time>
      </trkpt>
      <trkpt lat="42.351973500" lon="-2.652482900">
        <ele>909.40</ele>
        <time>2012-10-20T11:27:24Z</time>
      </trkpt>
      <trkpt lat="42.351960200" lon="-2.652474500">
        <ele>910.00</ele>
        <time>2012-10-20T11:27:26Z</time>
      </trkpt>
      <trkpt lat="42.351950500" lon="-2.652464900">
        <ele>910.40</ele>
        <time>2012-10-20T11:27:26Z</time>
      </trkpt>
      <trkpt lat="42.351939900" lon="-2.652454200">
        <ele>910.80</ele>
        <time>2012-10-20T11:27:27Z</time>
      </trkpt>
      <trkpt lat="42.351912400" lon="-2.652429600">
        <ele>910.80</ele>
        <time>2012-10-20T11:27:31Z</time>
      </trkpt>
      <trkpt lat="42.351820300" lon="-2.652315700">
        <ele>910.80</ele>
        <time>2012-10-20T11:27:40Z</time>
      </trkpt>
      <trkpt lat="42.351767400" lon="-2.652275400">
        <ele>911.40</ele>
        <time>2012-10-20T11:27:43Z</time>
      </trkpt>
      <trkpt lat="42.351749000" lon="-2.652273600">
        <ele>911.80</ele>
        <time>2012-10-20T11:27:45Z</time>
      </trkpt>
      <trkpt lat="42.351739400" lon="-2.652267000">
        <ele>912.20</ele>
        <time>2012-10-20T11:27:45Z</time>
      </trkpt>
      <trkpt lat="42.351728400" lon="-2.652253200">
        <ele>912.60</ele>
        <time>2012-10-20T11:27:47Z</time>
      </trkpt>
      <trkpt lat="42.351719200" lon="-2.652242800">
        <ele>913.00</ele>
        <time>2012-10-20T11:27:48Z</time>
      </trkpt>
      <trkpt lat="42.351709700" lon="-2.652231700">
        <ele>913.00</ele>
        <time>2012-10-20T11:27:48Z</time>
      </trkpt>
      <trkpt lat="42.351689600" lon="-2.652197200">
        <ele>913.00</ele>
        <time>2012-10-20T11:27:52Z</time>
      </trkpt>
      <trkpt lat="42.351673400" lon="-2.652179400">
        <ele>913.40</ele>
        <time>2012-10-20T11:27:52Z</time>
      </trkpt>
      <trkpt lat="42.351663800" lon="-2.652167000">
        <ele>913.80</ele>
        <time>2012-10-20T11:27:54Z</time>
      </trkpt>
      <trkpt lat="42.351651900" lon="-2.652154000">
        <ele>914.20</ele>
        <time>2012-10-20T11:27:55Z</time>
      </trkpt>
      <trkpt lat="42.351646400" lon="-2.652144300">
        <ele>914.60</ele>
        <time>2012-10-20T11:27:55Z</time>
      </trkpt>
      <trkpt lat="42.351635600" lon="-2.652133100">
        <ele>915.00</ele>
        <time>2012-10-20T11:27:57Z</time>
      </trkpt>
      <trkpt lat="42.351614600" lon="-2.652103900">
        <ele>915.60</ele>
        <time>2012-10-20T11:28:00Z</time>
      </trkpt>
      <trkpt lat="42.351610900" lon="-2.652094600">
        <ele>916.00</ele>
        <time>2012-10-20T11:28:02Z</time>
      </trkpt>
      <trkpt lat="42.351603600" lon="-2.652074000">
        <ele>916.80</ele>
        <time>2012-10-20T11:28:04Z</time>
      </trkpt>
      <trkpt lat="42.351598400" lon="-2.652063200">
        <ele>917.20</ele>
        <time>2012-10-20T11:28:04Z</time>
      </trkpt>
      <trkpt lat="42.351491900" lon="-2.651983000">
        <ele>917.20</ele>
        <time>2012-10-20T11:28:16Z</time>
      </trkpt>
      <trkpt lat="42.351482200" lon="-2.651975900">
        <ele>917.60</ele>
        <time>2012-10-20T11:28:16Z</time>
      </trkpt>
      <trkpt lat="42.351474100" lon="-2.651970000">
        <ele>918.20</ele>
        <time>2012-10-20T11:28:18Z</time>
      </trkpt>
      <trkpt lat="42.351465300" lon="-2.651963700">
        <ele>918.60</ele>
        <time>2012-10-20T11:28:18Z</time>
      </trkpt>
      <trkpt lat="42.351455800" lon="-2.651956500">
        <ele>919.00</ele>
        <time>2012-10-20T11:28:20Z</time>
      </trkpt>
      <trkpt lat="42.351443400" lon="-2.651944100">
        <ele>919.60</ele>
        <time>2012-10-20T11:28:21Z</time>
      </trkpt>
      <trkpt lat="42.351400200" lon="-2.651902100">
        <ele>919.60</ele>
        <time>2012-10-20T11:28:25Z</time>
      </trkpt>
      <trkpt lat="42.351349100" lon="-2.651834800">
        <ele>919.60</ele>
        <time>2012-10-20T11:28:30Z</time>
      </trkpt>
      <trkpt lat="42.351334900" lon="-2.651821300">
        <ele>920.00</ele>
        <time>2012-10-20T11:28:30Z</time>
      </trkpt>
      <trkpt lat="42.351319600" lon="-2.651803900">
        <ele>920.40</ele>
        <time>2012-10-20T11:28:32Z</time>
      </trkpt>
      <trkpt lat="42.351307800" lon="-2.651801200">
        <ele>920.80</ele>
        <time>2012-10-20T11:28:32Z</time>
      </trkpt>
      <trkpt lat="42.351296600" lon="-2.651796100">
        <ele>921.20</ele>
        <time>2012-10-20T11:28:34Z</time>
      </trkpt>
      <trkpt lat="42.351282800" lon="-2.651787600">
        <ele>921.60</ele>
        <time>2012-10-20T11:28:35Z</time>
      </trkpt>
      <trkpt lat="42.351204600" lon="-2.651704300">
        <ele>921.60</ele>
        <time>2012-10-20T11:28:42Z</time>
      </trkpt>
      <trkpt lat="42.351193100" lon="-2.651686900">
        <ele>922.20</ele>
        <time>2012-10-20T11:28:42Z</time>
      </trkpt>
      <trkpt lat="42.351180900" lon="-2.651674300">
        <ele>922.60</ele>
        <time>2012-10-20T11:28:44Z</time>
      </trkpt>
      <trkpt lat="42.351170200" lon="-2.651670000">
        <ele>923.00</ele>
        <time>2012-10-20T11:28:44Z</time>
      </trkpt>
      <trkpt lat="42.351153100" lon="-2.651644400">
        <ele>923.80</ele>
        <time>2012-10-20T11:28:46Z</time>
      </trkpt>
      <trkpt lat="42.351129700" lon="-2.651607800">
        <ele>923.80</ele>
        <time>2012-10-20T11:28:53Z</time>
      </trkpt>
      <trkpt lat="42.351085900" lon="-2.651546800">
        <ele>924.20</ele>
        <time>2012-10-20T11:28:58Z</time>
      </trkpt>
      <trkpt lat="42.351075200" lon="-2.651534100">
        <ele>924.60</ele>
        <time>2012-10-20T11:29:00Z</time>
      </trkpt>
      <trkpt lat="42.351061400" lon="-2.651518900">
        <ele>925.00</ele>
        <time>2012-10-20T11:29:00Z</time>
      </trkpt>
      <trkpt lat="42.351035400" lon="-2.651494100">
        <ele>925.80</ele>
        <time>2012-10-20T11:29:03Z</time>
      </trkpt>
      <trkpt lat="42.350961600" lon="-2.651425000">
        <ele>925.80</ele>
        <time>2012-10-20T11:29:10Z</time>
      </trkpt>
      <trkpt lat="42.350949000" lon="-2.651414600">
        <ele>926.20</ele>
        <time>2012-10-20T11:29:10Z</time>
      </trkpt>
      <trkpt lat="42.350937300" lon="-2.651405400">
        <ele>926.60</ele>
        <time>2012-10-20T11:29:12Z</time>
      </trkpt>
      <trkpt lat="42.350926400" lon="-2.651399800">
        <ele>927.00</ele>
        <time>2012-10-20T11:29:12Z</time>
      </trkpt>
      <trkpt lat="42.350916100" lon="-2.651392900">
        <ele>927.60</ele>
        <time>2012-10-20T11:29:14Z</time>
      </trkpt>
      <trkpt lat="42.350906700" lon="-2.651386600">
        <ele>928.00</ele>
        <time>2012-10-20T11:29:14Z</time>
      </trkpt>
      <trkpt lat="42.350845300" lon="-2.651330400">
        <ele>928.00</ele>
        <time>2012-10-20T11:29:21Z</time>
      </trkpt>
      <trkpt lat="42.350797700" lon="-2.651282300">
        <ele>928.40</ele>
        <time>2012-10-20T11:29:24Z</time>
      </trkpt>
      <trkpt lat="42.350787000" lon="-2.651269700">
        <ele>928.80</ele>
        <time>2012-10-20T11:29:26Z</time>
      </trkpt>
      <trkpt lat="42.350777100" lon="-2.651254600">
        <ele>929.20</ele>
        <time>2012-10-20T11:29:26Z</time>
      </trkpt>
      <trkpt lat="42.350770000" lon="-2.651237000">
        <ele>929.60</ele>
        <time>2012-10-20T11:29:28Z</time>
      </trkpt>
      <trkpt lat="42.350765000" lon="-2.651226200">
        <ele>930.00</ele>
        <time>2012-10-20T11:29:29Z</time>
      </trkpt>
      <trkpt lat="42.350755200" lon="-2.651215300">
        <ele>930.00</ele>
        <time>2012-10-20T11:29:29Z</time>
      </trkpt>
      <trkpt lat="42.350701600" lon="-2.651183800">
        <ele>930.00</ele>
        <time>2012-10-20T11:29:35Z</time>
      </trkpt>
      <trkpt lat="42.350682000" lon="-2.651186800">
        <ele>930.00</ele>
        <time>2012-10-20T11:29:36Z</time>
      </trkpt>
      <trkpt lat="42.350656300" lon="-2.651176400">
        <ele>930.40</ele>
        <time>2012-10-20T11:29:40Z</time>
      </trkpt>
      <trkpt lat="42.350639300" lon="-2.651166600">
        <ele>930.80</ele>
        <time>2012-10-20T11:29:40Z</time>
      </trkpt>
      <trkpt lat="42.350628400" lon="-2.651155200">
        <ele>931.20</ele>
        <time>2012-10-20T11:29:41Z</time>
      </trkpt>
      <trkpt lat="42.350621100" lon="-2.651145800">
        <ele>931.60</ele>
        <time>2012-10-20T11:29:43Z</time>
      </trkpt>
      <trkpt lat="42.350613300" lon="-2.651132900">
        <ele>932.00</ele>
        <time>2012-10-20T11:29:43Z</time>
      </trkpt>
      <trkpt lat="42.350605700" lon="-2.651120100">
        <ele>932.00</ele>
        <time>2012-10-20T11:29:45Z</time>
      </trkpt>
      <trkpt lat="42.350576000" lon="-2.651062200">
        <ele>932.40</ele>
        <time>2012-10-20T11:29:48Z</time>
      </trkpt>
      <trkpt lat="42.350569300" lon="-2.651053600">
        <ele>933.00</ele>
        <time>2012-10-20T11:29:50Z</time>
      </trkpt>
      <trkpt lat="42.350562500" lon="-2.651041200">
        <ele>933.40</ele>
        <time>2012-10-20T11:29:50Z</time>
      </trkpt>
      <trkpt lat="42.350551100" lon="-2.651028600">
        <ele>934.00</ele>
        <time>2012-10-20T11:29:52Z</time>
      </trkpt>
      <trkpt lat="42.350544500" lon="-2.651016900">
        <ele>934.40</ele>
        <time>2012-10-20T11:29:52Z</time>
      </trkpt>
      <trkpt lat="42.350497300" lon="-2.650962700">
        <ele>934.40</ele>
        <time>2012-10-20T11:29:59Z</time>
      </trkpt>
      <trkpt lat="42.350403000" lon="-2.650899200">
        <ele>934.80</ele>
        <time>2012-10-20T11:30:06Z</time>
      </trkpt>
      <trkpt lat="42.350390400" lon="-2.650887300">
        <ele>935.20</ele>
        <time>2012-10-20T11:30:06Z</time>
      </trkpt>
      <trkpt lat="42.350378700" lon="-2.650876200">
        <ele>935.80</ele>
        <time>2012-10-20T11:30:08Z</time>
      </trkpt>
      <trkpt lat="42.350372300" lon="-2.650869000">
        <ele>936.20</ele>
        <time>2012-10-20T11:30:09Z</time>
      </trkpt>
      <trkpt lat="42.350364800" lon="-2.650860400">
        <ele>936.60</ele>
        <time>2012-10-20T11:30:09Z</time>
      </trkpt>
      <trkpt lat="42.350346100" lon="-2.650841500">
        <ele>936.60</ele>
        <time>2012-10-20T11:30:13Z</time>
      </trkpt>
      <trkpt lat="42.350271400" lon="-2.650754200">
        <ele>937.00</ele>
        <time>2012-10-20T11:30:23Z</time>
      </trkpt>
      <trkpt lat="42.350263000" lon="-2.650744100">
        <ele>937.40</ele>
        <time>2012-10-20T11:30:23Z</time>
      </trkpt>
      <trkpt lat="42.350258200" lon="-2.650734100">
        <ele>937.80</ele>
        <time>2012-10-20T11:30:25Z</time>
      </trkpt>
      <trkpt lat="42.350251700" lon="-2.650724600">
        <ele>938.20</ele>
        <time>2012-10-20T11:30:25Z</time>
      </trkpt>
      <trkpt lat="42.350245700" lon="-2.650716000">
        <ele>938.60</ele>
        <time>2012-10-20T11:30:27Z</time>
      </trkpt>
      <trkpt lat="42.350195700" lon="-2.650631300">
        <ele>939.00</ele>
        <time>2012-10-20T11:30:34Z</time>
      </trkpt>
      <trkpt lat="42.350185100" lon="-2.650619200">
        <ele>939.60</ele>
        <time>2012-10-20T11:30:34Z</time>
      </trkpt>
      <trkpt lat="42.350173800" lon="-2.650609200">
        <ele>940.00</ele>
        <time>2012-10-20T11:30:35Z</time>
      </trkpt>
      <trkpt lat="42.350159500" lon="-2.650600000">
        <ele>940.40</ele>
        <time>2012-10-20T11:30:37Z</time>
      </trkpt>
      <trkpt lat="42.350147600" lon="-2.650591000">
        <ele>940.80</ele>
        <time>2012-10-20T11:30:37Z</time>
      </trkpt>
      <trkpt lat="42.350023800" lon="-2.650480000">
        <ele>941.40</ele>
        <time>2012-10-20T11:30:49Z</time>
      </trkpt>
      <trkpt lat="42.350010600" lon="-2.650474100">
        <ele>941.80</ele>
        <time>2012-10-20T11:30:51Z</time>
      </trkpt>
      <trkpt lat="42.349981100" lon="-2.650461600">
        <ele>942.80</ele>
        <time>2012-10-20T11:30:53Z</time>
      </trkpt>
      <trkpt lat="42.349967000" lon="-2.650454800">
        <ele>943.20</ele>
        <time>2012-10-20T11:30:53Z</time>
      </trkpt>
      <trkpt lat="42.349874300" lon="-2.650381900">
        <ele>943.20</ele>
        <time>2012-10-20T11:31:02Z</time>
      </trkpt>
      <trkpt lat="42.349836400" lon="-2.650343800">
        <ele>943.80</ele>
        <time>2012-10-20T11:31:05Z</time>
      </trkpt>
      <trkpt lat="42.349828300" lon="-2.650330000">
        <ele>944.20</ele>
        <time>2012-10-20T11:31:05Z</time>
      </trkpt>
      <trkpt lat="42.349816700" lon="-2.650317700">
        <ele>944.80</ele>
        <time>2012-10-20T11:31:07Z</time>
      </trkpt>
      <trkpt lat="42.349806200" lon="-2.650304500">
        <ele>945.20</ele>
        <time>2012-10-20T11:31:07Z</time>
      </trkpt>
      <trkpt lat="42.349791600" lon="-2.650284400">
        <ele>945.80</ele>
        <time>2012-10-20T11:31:09Z</time>
      </trkpt>
      <trkpt lat="42.349763200" lon="-2.650262200">
        <ele>945.80</ele>
        <time>2012-10-20T11:31:12Z</time>
      </trkpt>
      <trkpt lat="42.349717200" lon="-2.650234600">
        <ele>945.80</ele>
        <time>2012-10-20T11:31:16Z</time>
      </trkpt>
      <trkpt lat="42.349644800" lon="-2.650159900">
        <ele>946.20</ele>
        <time>2012-10-20T11:31:23Z</time>
      </trkpt>
      <trkpt lat="42.349637400" lon="-2.650150700">
        <ele>946.60</ele>
        <time>2012-10-20T11:31:24Z</time>
      </trkpt>
      <trkpt lat="42.349633100" lon="-2.650142000">
        <ele>947.20</ele>
        <time>2012-10-20T11:31:24Z</time>
      </trkpt>
      <trkpt lat="42.349623300" lon="-2.650128300">
        <ele>948.00</ele>
        <time>2012-10-20T11:31:26Z</time>
      </trkpt>
      <trkpt lat="42.349561800" lon="-2.650058700">
        <ele>948.60</ele>
        <time>2012-10-20T11:31:35Z</time>
      </trkpt>
      <trkpt lat="42.349521900" lon="-2.650014700">
        <ele>950.20</ele>
        <time>2012-10-20T11:31:38Z</time>
      </trkpt>
      <trkpt lat="42.349474800" lon="-2.649958200">
        <ele>950.80</ele>
        <time>2012-10-20T11:31:43Z</time>
      </trkpt>
      <trkpt lat="42.349466300" lon="-2.649947000">
        <ele>951.20</ele>
        <time>2012-10-20T11:31:45Z</time>
      </trkpt>
      <trkpt lat="42.349447300" lon="-2.649928000">
        <ele>952.00</ele>
        <time>2012-10-20T11:31:47Z</time>
      </trkpt>
      <trkpt lat="42.349438900" lon="-2.649920200">
        <ele>952.40</ele>
        <time>2012-10-20T11:31:47Z</time>
      </trkpt>
      <trkpt lat="42.349423400" lon="-2.649901200">
        <ele>952.40</ele>
        <time>2012-10-20T11:31:49Z</time>
      </trkpt>
      <trkpt lat="42.349360500" lon="-2.649846400">
        <ele>952.40</ele>
        <time>2012-10-20T11:31:56Z</time>
      </trkpt>
      <trkpt lat="42.349318900" lon="-2.649801600">
        <ele>952.80</ele>
        <time>2012-10-20T11:31:59Z</time>
      </trkpt>
      <trkpt lat="42.349307300" lon="-2.649789300">
        <ele>953.20</ele>
        <time>2012-10-20T11:31:59Z</time>
      </trkpt>
      <trkpt lat="42.349286600" lon="-2.649762400">
        <ele>954.00</ele>
        <time>2012-10-20T11:32:01Z</time>
      </trkpt>
      <trkpt lat="42.349276100" lon="-2.649748000">
        <ele>954.60</ele>
        <time>2012-10-20T11:32:03Z</time>
      </trkpt>
      <trkpt lat="42.349235900" lon="-2.649725200">
        <ele>954.60</ele>
        <time>2012-10-20T11:32:06Z</time>
      </trkpt>
      <trkpt lat="42.349230200" lon="-2.649717500">
        <ele>954.60</ele>
        <time>2012-10-20T11:32:08Z</time>
      </trkpt>
      <trkpt lat="42.349200000" lon="-2.649677500">
        <ele>955.00</ele>
        <time>2012-10-20T11:32:13Z</time>
      </trkpt>
      <trkpt lat="42.349194300" lon="-2.649668400">
        <ele>955.40</ele>
        <time>2012-10-20T11:32:13Z</time>
      </trkpt>
      <trkpt lat="42.349188500" lon="-2.649658600">
        <ele>956.00</ele>
        <time>2012-10-20T11:32:15Z</time>
      </trkpt>
      <trkpt lat="42.349182500" lon="-2.649649300">
        <ele>956.40</ele>
        <time>2012-10-20T11:32:15Z</time>
      </trkpt>
      <trkpt lat="42.349170700" lon="-2.649636800">
        <ele>957.00</ele>
        <time>2012-10-20T11:32:17Z</time>
      </trkpt>
      <trkpt lat="42.349097300" lon="-2.649588100">
        <ele>957.00</ele>
        <time>2012-10-20T11:32:22Z</time>
      </trkpt>
      <trkpt lat="42.349068600" lon="-2.649574300">
        <ele>957.40</ele>
        <time>2012-10-20T11:32:25Z</time>
      </trkpt>
      <trkpt lat="42.349061000" lon="-2.649571200">
        <ele>957.80</ele>
        <time>2012-10-20T11:32:27Z</time>
      </trkpt>
      <trkpt lat="42.349053500" lon="-2.649565700">
        <ele>958.20</ele>
        <time>2012-10-20T11:32:27Z</time>
      </trkpt>
      <trkpt lat="42.349044300" lon="-2.649560900">
        <ele>958.80</ele>
        <time>2012-10-20T11:32:29Z</time>
      </trkpt>
      <trkpt lat="42.349037600" lon="-2.649554200">
        <ele>959.20</ele>
        <time>2012-10-20T11:32:29Z</time>
      </trkpt>
      <trkpt lat="42.349018000" lon="-2.649522700">
        <ele>959.20</ele>
        <time>2012-10-20T11:32:32Z</time>
      </trkpt>
      <trkpt lat="42.348999000" lon="-2.649495000">
        <ele>959.60</ele>
        <time>2012-10-20T11:32:34Z</time>
      </trkpt>
      <trkpt lat="42.348988100" lon="-2.649477900">
        <ele>960.00</ele>
        <time>2012-10-20T11:32:36Z</time>
      </trkpt>
      <trkpt lat="42.348966500" lon="-2.649451400">
        <ele>960.80</ele>
        <time>2012-10-20T11:32:37Z</time>
      </trkpt>
      <trkpt lat="42.348956300" lon="-2.649439600">
        <ele>961.20</ele>
        <time>2012-10-20T11:32:39Z</time>
      </trkpt>
      <trkpt lat="42.348901100" lon="-2.649381600">
        <ele>961.20</ele>
        <time>2012-10-20T11:32:44Z</time>
      </trkpt>
      <trkpt lat="42.348891700" lon="-2.649364400">
        <ele>961.60</ele>
        <time>2012-10-20T11:32:46Z</time>
      </trkpt>
      <trkpt lat="42.348887200" lon="-2.649355800">
        <ele>962.00</ele>
        <time>2012-10-20T11:32:48Z</time>
      </trkpt>
      <trkpt lat="42.348878200" lon="-2.649340800">
        <ele>962.40</ele>
        <time>2012-10-20T11:32:48Z</time>
      </trkpt>
      <trkpt lat="42.348869600" lon="-2.649328800">
        <ele>962.80</ele>
        <time>2012-10-20T11:32:50Z</time>
      </trkpt>
      <trkpt lat="42.348860600" lon="-2.649315100">
        <ele>963.20</ele>
        <time>2012-10-20T11:32:50Z</time>
      </trkpt>
      <trkpt lat="42.348816700" lon="-2.649259800">
        <ele>963.20</ele>
        <time>2012-10-20T11:32:55Z</time>
      </trkpt>
      <trkpt lat="42.348808100" lon="-2.649258100">
        <ele>963.20</ele>
        <time>2012-10-20T11:32:57Z</time>
      </trkpt>
      <trkpt lat="42.348792300" lon="-2.649249700">
        <ele>964.00</ele>
        <time>2012-10-20T11:32:58Z</time>
      </trkpt>
      <trkpt lat="42.348782300" lon="-2.649241700">
        <ele>964.40</ele>
        <time>2012-10-20T11:33:00Z</time>
      </trkpt>
      <trkpt lat="42.348770900" lon="-2.649227700">
        <ele>964.80</ele>
        <time>2012-10-20T11:33:00Z</time>
      </trkpt>
      <trkpt lat="42.348760400" lon="-2.649214400">
        <ele>965.20</ele>
        <time>2012-10-20T11:33:02Z</time>
      </trkpt>
      <trkpt lat="42.348736100" lon="-2.649181600">
        <ele>965.20</ele>
        <time>2012-10-20T11:33:04Z</time>
      </trkpt>
      <trkpt lat="42.348728800" lon="-2.649161200">
        <ele>965.20</ele>
        <time>2012-10-20T11:33:05Z</time>
      </trkpt>
      <trkpt lat="42.348666100" lon="-2.649064000">
        <ele>965.60</ele>
        <time>2012-10-20T11:33:11Z</time>
      </trkpt>
      <trkpt lat="42.348655500" lon="-2.649049500">
        <ele>966.00</ele>
        <time>2012-10-20T11:33:12Z</time>
      </trkpt>
      <trkpt lat="42.348640000" lon="-2.649022000">
        <ele>966.80</ele>
        <time>2012-10-20T11:33:14Z</time>
      </trkpt>
      <trkpt lat="42.348634500" lon="-2.649008000">
        <ele>967.20</ele>
        <time>2012-10-20T11:33:14Z</time>
      </trkpt>
      <trkpt lat="42.348596800" lon="-2.648944800">
        <ele>967.20</ele>
        <time>2012-10-20T11:33:23Z</time>
      </trkpt>
      <trkpt lat="42.348589500" lon="-2.648935400">
        <ele>967.60</ele>
        <time>2012-10-20T11:33:23Z</time>
      </trkpt>
      <trkpt lat="42.348579500" lon="-2.648917500">
        <ele>968.20</ele>
        <time>2012-10-20T11:33:24Z</time>
      </trkpt>
      <trkpt lat="42.348572700" lon="-2.648906900">
        <ele>968.60</ele>
        <time>2012-10-20T11:33:26Z</time>
      </trkpt>
      <trkpt lat="42.348564900" lon="-2.648894100">
        <ele>969.00</ele>
        <time>2012-10-20T11:33:26Z</time>
      </trkpt>
      <trkpt lat="42.348553700" lon="-2.648882700">
        <ele>969.40</ele>
        <time>2012-10-20T11:33:28Z</time>
      </trkpt>
      <trkpt lat="42.348540900" lon="-2.648856600">
        <ele>969.40</ele>
        <time>2012-10-20T11:33:28Z</time>
      </trkpt>
      <trkpt lat="42.348510300" lon="-2.648815700">
        <ele>969.40</ele>
        <time>2012-10-20T11:33:31Z</time>
      </trkpt>
      <trkpt lat="42.348500300" lon="-2.648806800">
        <ele>969.40</ele>
        <time>2012-10-20T11:33:33Z</time>
      </trkpt>
      <trkpt lat="42.348476000" lon="-2.648790800">
        <ele>969.40</ele>
        <time>2012-10-20T11:33:37Z</time>
      </trkpt>
      <trkpt lat="42.348467200" lon="-2.648790100">
        <ele>969.40</ele>
        <time>2012-10-20T11:33:37Z</time>
      </trkpt>
      <trkpt lat="42.348458500" lon="-2.648783700">
        <ele>969.80</ele>
        <time>2012-10-20T11:33:40Z</time>
      </trkpt>
      <trkpt lat="42.348451100" lon="-2.648766600">
        <ele>970.20</ele>
        <time>2012-10-20T11:33:40Z</time>
      </trkpt>
      <trkpt lat="42.348446300" lon="-2.648754100">
        <ele>970.60</ele>
        <time>2012-10-20T11:33:42Z</time>
      </trkpt>
      <trkpt lat="42.348437300" lon="-2.648719500">
        <ele>971.40</ele>
        <time>2012-10-20T11:33:44Z</time>
      </trkpt>
      <trkpt lat="42.348417800" lon="-2.648652700">
        <ele>971.40</ele>
        <time>2012-10-20T11:33:47Z</time>
      </trkpt>
      <trkpt lat="42.348398400" lon="-2.648629000">
        <ele>971.40</ele>
        <time>2012-10-20T11:33:49Z</time>
      </trkpt>
      <trkpt lat="42.348396300" lon="-2.648618900">
        <ele>972.00</ele>
        <time>2012-10-20T11:33:51Z</time>
      </trkpt>
      <trkpt lat="42.348390000" lon="-2.648606600">
        <ele>972.40</ele>
        <time>2012-10-20T11:33:52Z</time>
      </trkpt>
      <trkpt lat="42.348379000" lon="-2.648600300">
        <ele>972.80</ele>
        <time>2012-10-20T11:33:52Z</time>
      </trkpt>
      <trkpt lat="42.348370000" lon="-2.648592100">
        <ele>973.20</ele>
        <time>2012-10-20T11:33:54Z</time>
      </trkpt>
      <trkpt lat="42.348362800" lon="-2.648585800">
        <ele>973.60</ele>
        <time>2012-10-20T11:33:54Z</time>
      </trkpt>
      <trkpt lat="42.348353600" lon="-2.648571800">
        <ele>973.60</ele>
        <time>2012-10-20T11:33:56Z</time>
      </trkpt>
      <trkpt lat="42.348319000" lon="-2.648492200">
        <ele>973.60</ele>
        <time>2012-10-20T11:34:01Z</time>
      </trkpt>
      <trkpt lat="42.348294400" lon="-2.648447400">
        <ele>974.20</ele>
        <time>2012-10-20T11:34:05Z</time>
      </trkpt>
      <trkpt lat="42.348288900" lon="-2.648431700">
        <ele>974.60</ele>
        <time>2012-10-20T11:34:06Z</time>
      </trkpt>
      <trkpt lat="42.348285000" lon="-2.648427600">
        <ele>975.20</ele>
        <time>2012-10-20T11:34:06Z</time>
      </trkpt>
      <trkpt lat="42.348278300" lon="-2.648411300">
        <ele>975.60</ele>
        <time>2012-10-20T11:34:08Z</time>
      </trkpt>
      <trkpt lat="42.348269600" lon="-2.648406100">
        <ele>976.00</ele>
        <time>2012-10-20T11:34:08Z</time>
      </trkpt>
      <trkpt lat="42.348260700" lon="-2.648351700">
        <ele>976.00</ele>
        <time>2012-10-20T11:34:13Z</time>
      </trkpt>
      <trkpt lat="42.348226600" lon="-2.648258600">
        <ele>976.00</ele>
        <time>2012-10-20T11:34:20Z</time>
      </trkpt>
      <trkpt lat="42.348220300" lon="-2.648241200">
        <ele>976.60</ele>
        <time>2012-10-20T11:34:20Z</time>
      </trkpt>
      <trkpt lat="42.348216900" lon="-2.648231200">
        <ele>977.00</ele>
        <time>2012-10-20T11:34:22Z</time>
      </trkpt>
      <trkpt lat="42.348219100" lon="-2.648216100">
        <ele>977.40</ele>
        <time>2012-10-20T11:34:22Z</time>
      </trkpt>
      <trkpt lat="42.348215400" lon="-2.648202800">
        <ele>978.00</ele>
        <time>2012-10-20T11:34:24Z</time>
      </trkpt>
      <trkpt lat="42.348212300" lon="-2.648187900">
        <ele>978.40</ele>
        <time>2012-10-20T11:34:24Z</time>
      </trkpt>
      <trkpt lat="42.348210700" lon="-2.648174400">
        <ele>978.40</ele>
        <time>2012-10-20T11:34:25Z</time>
      </trkpt>
      <trkpt lat="42.348167200" lon="-2.648069900">
        <ele>978.80</ele>
        <time>2012-10-20T11:34:32Z</time>
      </trkpt>
      <trkpt lat="42.348158300" lon="-2.648050900">
        <ele>979.20</ele>
        <time>2012-10-20T11:34:34Z</time>
      </trkpt>
      <trkpt lat="42.348151900" lon="-2.648036300">
        <ele>979.60</ele>
        <time>2012-10-20T11:34:34Z</time>
      </trkpt>
      <trkpt lat="42.348145400" lon="-2.648017600">
        <ele>980.20</ele>
        <time>2012-10-20T11:34:36Z</time>
      </trkpt>
      <trkpt lat="42.348139400" lon="-2.648005700">
        <ele>980.60</ele>
        <time>2012-10-20T11:34:36Z</time>
      </trkpt>
      <trkpt lat="42.348078900" lon="-2.647919700">
        <ele>980.60</ele>
        <time>2012-10-20T11:34:45Z</time>
      </trkpt>
      <trkpt lat="42.348071800" lon="-2.647903000">
        <ele>981.00</ele>
        <time>2012-10-20T11:34:46Z</time>
      </trkpt>
      <trkpt lat="42.348059500" lon="-2.647888000">
        <ele>981.40</ele>
        <time>2012-10-20T11:34:46Z</time>
      </trkpt>
      <trkpt lat="42.348053300" lon="-2.647870800">
        <ele>981.80</ele>
        <time>2012-10-20T11:34:48Z</time>
      </trkpt>
      <trkpt lat="42.348047400" lon="-2.647856000">
        <ele>982.20</ele>
        <time>2012-10-20T11:34:48Z</time>
      </trkpt>
      <trkpt lat="42.348041300" lon="-2.647839700">
        <ele>982.60</ele>
        <time>2012-10-20T11:34:50Z</time>
      </trkpt>
      <trkpt lat="42.348035200" lon="-2.647824600">
        <ele>982.60</ele>
        <time>2012-10-20T11:34:50Z</time>
      </trkpt>
      <trkpt lat="42.348017000" lon="-2.647788100">
        <ele>982.60</ele>
        <time>2012-10-20T11:34:53Z</time>
      </trkpt>
      <trkpt lat="42.348000100" lon="-2.647745800">
        <ele>982.60</ele>
        <time>2012-10-20T11:34:57Z</time>
      </trkpt>
      <trkpt lat="42.347970800" lon="-2.647684000">
        <ele>982.60</ele>
        <time>2012-10-20T11:35:00Z</time>
      </trkpt>
      <trkpt lat="42.347963900" lon="-2.647670100">
        <ele>983.00</ele>
        <time>2012-10-20T11:35:02Z</time>
      </trkpt>
      <trkpt lat="42.347957000" lon="-2.647660200">
        <ele>983.40</ele>
        <time>2012-10-20T11:35:02Z</time>
      </trkpt>
      <trkpt lat="42.347950900" lon="-2.647647900">
        <ele>983.80</ele>
        <time>2012-10-20T11:35:04Z</time>
      </trkpt>
      <trkpt lat="42.347945700" lon="-2.647633700">
        <ele>984.20</ele>
        <time>2012-10-20T11:35:04Z</time>
      </trkpt>
      <trkpt lat="42.347941000" lon="-2.647616200">
        <ele>984.60</ele>
        <time>2012-10-20T11:35:06Z</time>
      </trkpt>
      <trkpt lat="42.347923400" lon="-2.647563300">
        <ele>984.60</ele>
        <time>2012-10-20T11:35:09Z</time>
      </trkpt>
      <trkpt lat="42.347914500" lon="-2.647535000">
        <ele>985.00</ele>
        <time>2012-10-20T11:35:11Z</time>
      </trkpt>
      <trkpt lat="42.347909800" lon="-2.647520800">
        <ele>985.40</ele>
        <time>2012-10-20T11:35:12Z</time>
      </trkpt>
      <trkpt lat="42.347903600" lon="-2.647505800">
        <ele>985.80</ele>
        <time>2012-10-20T11:35:14Z</time>
      </trkpt>
      <trkpt lat="42.347896900" lon="-2.647491200">
        <ele>986.20</ele>
        <time>2012-10-20T11:35:14Z</time>
      </trkpt>
      <trkpt lat="42.347889000" lon="-2.647476400">
        <ele>986.60</ele>
        <time>2012-10-20T11:35:16Z</time>
      </trkpt>
      <trkpt lat="42.347862500" lon="-2.647422000">
        <ele>986.60</ele>
        <time>2012-10-20T11:35:18Z</time>
      </trkpt>
      <trkpt lat="42.347837200" lon="-2.647366200">
        <ele>987.20</ele>
        <time>2012-10-20T11:35:21Z</time>
      </trkpt>
      <trkpt lat="42.347830900" lon="-2.647352000">
        <ele>987.60</ele>
        <time>2012-10-20T11:35:23Z</time>
      </trkpt>
      <trkpt lat="42.347823200" lon="-2.647336400">
        <ele>988.00</ele>
        <time>2012-10-20T11:35:23Z</time>
      </trkpt>
      <trkpt lat="42.347813000" lon="-2.647310000">
        <ele>989.00</ele>
        <time>2012-10-20T11:35:25Z</time>
      </trkpt>
      <trkpt lat="42.347787900" lon="-2.647198600">
        <ele>989.00</ele>
        <time>2012-10-20T11:35:33Z</time>
      </trkpt>
      <trkpt lat="42.347761800" lon="-2.647141000">
        <ele>989.40</ele>
        <time>2012-10-20T11:35:37Z</time>
      </trkpt>
      <trkpt lat="42.347756000" lon="-2.647121700">
        <ele>989.80</ele>
        <time>2012-10-20T11:35:39Z</time>
      </trkpt>
      <trkpt lat="42.347747200" lon="-2.647102500">
        <ele>990.20</ele>
        <time>2012-10-20T11:35:40Z</time>
      </trkpt>
      <trkpt lat="42.347743100" lon="-2.647084900">
        <ele>990.80</ele>
        <time>2012-10-20T11:35:40Z</time>
      </trkpt>
      <trkpt lat="42.347735600" lon="-2.647071900">
        <ele>991.20</ele>
        <time>2012-10-20T11:35:42Z</time>
      </trkpt>
      <trkpt lat="42.347719800" lon="-2.647021400">
        <ele>991.20</ele>
        <time>2012-10-20T11:35:44Z</time>
      </trkpt>
      <trkpt lat="42.347676200" lon="-2.646960600">
        <ele>991.20</ele>
        <time>2012-10-20T11:35:51Z</time>
      </trkpt>
      <trkpt lat="42.347646600" lon="-2.646901500">
        <ele>991.60</ele>
        <time>2012-10-20T11:35:54Z</time>
      </trkpt>
      <trkpt lat="42.347640400" lon="-2.646886200">
        <ele>992.20</ele>
        <time>2012-10-20T11:35:56Z</time>
      </trkpt>
      <trkpt lat="42.347634900" lon="-2.646870400">
        <ele>992.60</ele>
        <time>2012-10-20T11:35:56Z</time>
      </trkpt>
      <trkpt lat="42.347627600" lon="-2.646858800">
        <ele>993.00</ele>
        <time>2012-10-20T11:35:58Z</time>
      </trkpt>
      <trkpt lat="42.347625400" lon="-2.646848000">
        <ele>993.40</ele>
        <time>2012-10-20T11:35:58Z</time>
      </trkpt>
      <trkpt lat="42.347616800" lon="-2.646837800">
        <ele>993.40</ele>
        <time>2012-10-20T11:36:00Z</time>
      </trkpt>
      <trkpt lat="42.347611300" lon="-2.646807400">
        <ele>993.40</ele>
        <time>2012-10-20T11:36:01Z</time>
      </trkpt>
      <trkpt lat="42.347581300" lon="-2.646778300">
        <ele>993.40</ele>
        <time>2012-10-20T11:36:05Z</time>
      </trkpt>
      <trkpt lat="42.347544500" lon="-2.646736500">
        <ele>993.80</ele>
        <time>2012-10-20T11:36:08Z</time>
      </trkpt>
      <trkpt lat="42.347529400" lon="-2.646715300">
        <ele>994.20</ele>
        <time>2012-10-20T11:36:08Z</time>
      </trkpt>
      <trkpt lat="42.347517800" lon="-2.646699300">
        <ele>994.60</ele>
        <time>2012-10-20T11:36:10Z</time>
      </trkpt>
      <trkpt lat="42.347507100" lon="-2.646680400">
        <ele>995.00</ele>
        <time>2012-10-20T11:36:10Z</time>
      </trkpt>
      <trkpt lat="42.347500600" lon="-2.646663000">
        <ele>995.40</ele>
        <time>2012-10-20T11:36:12Z</time>
      </trkpt>
      <trkpt lat="42.347477100" lon="-2.646571400">
        <ele>995.40</ele>
        <time>2012-10-20T11:36:19Z</time>
      </trkpt>
      <trkpt lat="42.347473200" lon="-2.646551400">
        <ele>995.40</ele>
        <time>2012-10-20T11:36:19Z</time>
      </trkpt>
      <trkpt lat="42.347450800" lon="-2.646517400">
        <ele>996.00</ele>
        <time>2012-10-20T11:36:22Z</time>
      </trkpt>
      <trkpt lat="42.347447900" lon="-2.646505000">
        <ele>996.40</ele>
        <time>2012-10-20T11:36:24Z</time>
      </trkpt>
      <trkpt lat="42.347436900" lon="-2.646491400">
        <ele>996.80</ele>
        <time>2012-10-20T11:36:24Z</time>
      </trkpt>
      <trkpt lat="42.347430900" lon="-2.646476600">
        <ele>997.20</ele>
        <time>2012-10-20T11:36:26Z</time>
      </trkpt>
      <trkpt lat="42.347427300" lon="-2.646460900">
        <ele>997.60</ele>
        <time>2012-10-20T11:36:26Z</time>
      </trkpt>
      <trkpt lat="42.347411400" lon="-2.646430000">
        <ele>997.60</ele>
        <time>2012-10-20T11:36:29Z</time>
      </trkpt>
      <trkpt lat="42.347378900" lon="-2.646388300">
        <ele>997.60</ele>
        <time>2012-10-20T11:36:33Z</time>
      </trkpt>
      <trkpt lat="42.347339000" lon="-2.646313000">
        <ele>997.60</ele>
        <time>2012-10-20T11:36:38Z</time>
      </trkpt>
      <trkpt lat="42.347330400" lon="-2.646297800">
        <ele>998.00</ele>
        <time>2012-10-20T11:36:40Z</time>
      </trkpt>
      <trkpt lat="42.347328000" lon="-2.646275700">
        <ele>998.40</ele>
        <time>2012-10-20T11:36:41Z</time>
      </trkpt>
      <trkpt lat="42.347320200" lon="-2.646264700">
        <ele>999.00</ele>
        <time>2012-10-20T11:36:41Z</time>
      </trkpt>
      <trkpt lat="42.347310000" lon="-2.646250100">
        <ele>999.40</ele>
        <time>2012-10-20T11:36:43Z</time>
      </trkpt>
      <trkpt lat="42.347299100" lon="-2.646227900">
        <ele>999.80</ele>
        <time>2012-10-20T11:36:43Z</time>
      </trkpt>
      <trkpt lat="42.347239900" lon="-2.646154500">
        <ele>999.80</ele>
        <time>2012-10-20T11:36:50Z</time>
      </trkpt>
      <trkpt lat="42.347166800" lon="-2.646049200">
        <ele>999.80</ele>
        <time>2012-10-20T11:36:57Z</time>
      </trkpt>
      <trkpt lat="42.347131900" lon="-2.646010700">
        <ele>1000.20</ele>
        <time>2012-10-20T11:36:59Z</time>
      </trkpt>
      <trkpt lat="42.347121400" lon="-2.645999400">
        <ele>1000.60</ele>
        <time>2012-10-20T11:37:00Z</time>
      </trkpt>
      <trkpt lat="42.347112100" lon="-2.645987100">
        <ele>1001.00</ele>
        <time>2012-10-20T11:37:02Z</time>
      </trkpt>
      <trkpt lat="42.347102200" lon="-2.645977200">
        <ele>1001.40</ele>
        <time>2012-10-20T11:37:02Z</time>
      </trkpt>
      <trkpt lat="42.347092200" lon="-2.645964300">
        <ele>1001.80</ele>
        <time>2012-10-20T11:37:04Z</time>
      </trkpt>
      <trkpt lat="42.347030300" lon="-2.645922200">
        <ele>1002.40</ele>
        <time>2012-10-20T11:37:09Z</time>
      </trkpt>
      <trkpt lat="42.347021900" lon="-2.645916900">
        <ele>1002.80</ele>
        <time>2012-10-20T11:37:11Z</time>
      </trkpt>
      <trkpt lat="42.347012900" lon="-2.645903100">
        <ele>1003.20</ele>
        <time>2012-10-20T11:37:11Z</time>
      </trkpt>
      <trkpt lat="42.347004500" lon="-2.645894600">
        <ele>1003.80</ele>
        <time>2012-10-20T11:37:13Z</time>
      </trkpt>
      <trkpt lat="42.346993100" lon="-2.645881600">
        <ele>1004.20</ele>
        <time>2012-10-20T11:37:13Z</time>
      </trkpt>
      <trkpt lat="42.346953900" lon="-2.645834300">
        <ele>1004.20</ele>
        <time>2012-10-20T11:37:18Z</time>
      </trkpt>
      <trkpt lat="42.346904100" lon="-2.645767200">
        <ele>1004.60</ele>
        <time>2012-10-20T11:37:23Z</time>
      </trkpt>
      <trkpt lat="42.346894500" lon="-2.645754300">
        <ele>1005.00</ele>
        <time>2012-10-20T11:37:23Z</time>
      </trkpt>
      <trkpt lat="42.346888800" lon="-2.645744600">
        <ele>1005.40</ele>
        <time>2012-10-20T11:37:25Z</time>
      </trkpt>
      <trkpt lat="42.346875500" lon="-2.645737300">
        <ele>1005.80</ele>
        <time>2012-10-20T11:37:25Z</time>
      </trkpt>
      <trkpt lat="42.346865000" lon="-2.645730400">
        <ele>1006.20</ele>
        <time>2012-10-20T11:37:27Z</time>
      </trkpt>
      <trkpt lat="42.346801800" lon="-2.645688900">
        <ele>1006.20</ele>
        <time>2012-10-20T11:37:30Z</time>
      </trkpt>
      <trkpt lat="42.346728100" lon="-2.645651800">
        <ele>1006.20</ele>
        <time>2012-10-20T11:37:35Z</time>
      </trkpt>
      <trkpt lat="42.346632500" lon="-2.645586600">
        <ele>1006.20</ele>
        <time>2012-10-20T11:37:41Z</time>
      </trkpt>
      <trkpt lat="42.346576900" lon="-2.645560300">
        <ele>1006.20</ele>
        <time>2012-10-20T11:37:44Z</time>
      </trkpt>
      <trkpt lat="42.346565000" lon="-2.645557900">
        <ele>1006.20</ele>
        <time>2012-10-20T11:37:46Z</time>
      </trkpt>
      <trkpt lat="42.346540300" lon="-2.645565700">
        <ele>1006.20</ele>
        <time>2012-10-20T11:37:49Z</time>
      </trkpt>
      <trkpt lat="42.346521900" lon="-2.645565000">
        <ele>1006.20</ele>
        <time>2012-10-20T11:37:51Z</time>
      </trkpt>
      <trkpt lat="42.346455400" lon="-2.645568200">
        <ele>1006.60</ele>
        <time>2012-10-20T11:37:56Z</time>
      </trkpt>
      <trkpt lat="42.346431400" lon="-2.645569000">
        <ele>1007.00</ele>
        <time>2012-10-20T11:37:56Z</time>
      </trkpt>
      <trkpt lat="42.346415400" lon="-2.645570600">
        <ele>1007.60</ele>
        <time>2012-10-20T11:37:58Z</time>
      </trkpt>
      <trkpt lat="42.346398000" lon="-2.645569200">
        <ele>1008.00</ele>
        <time>2012-10-20T11:37:58Z</time>
      </trkpt>
      <trkpt lat="42.346379400" lon="-2.645569000">
        <ele>1008.40</ele>
        <time>2012-10-20T11:38:00Z</time>
      </trkpt>
      <trkpt lat="42.346311300" lon="-2.645559400">
        <ele>1008.40</ele>
        <time>2012-10-20T11:38:03Z</time>
      </trkpt>
      <trkpt lat="42.346261000" lon="-2.645573800">
        <ele>1008.80</ele>
        <time>2012-10-20T11:38:08Z</time>
      </trkpt>
      <trkpt lat="42.346246300" lon="-2.645581700">
        <ele>1009.20</ele>
        <time>2012-10-20T11:38:10Z</time>
      </trkpt>
      <trkpt lat="42.346228400" lon="-2.645587100">
        <ele>1009.80</ele>
        <time>2012-10-20T11:38:10Z</time>
      </trkpt>
      <trkpt lat="42.346210300" lon="-2.645589900">
        <ele>1010.20</ele>
        <time>2012-10-20T11:38:12Z</time>
      </trkpt>
      <trkpt lat="42.346193400" lon="-2.645598300">
        <ele>1010.60</ele>
        <time>2012-10-20T11:38:12Z</time>
      </trkpt>
      <trkpt lat="42.346147100" lon="-2.645613100">
        <ele>1010.60</ele>
        <time>2012-10-20T11:38:15Z</time>
      </trkpt>
      <trkpt lat="42.346066300" lon="-2.645622800">
        <ele>1011.00</ele>
        <time>2012-10-20T11:38:22Z</time>
      </trkpt>
      <trkpt lat="42.346050800" lon="-2.645623100">
        <ele>1011.60</ele>
        <time>2012-10-20T11:38:22Z</time>
      </trkpt>
      <trkpt lat="42.346037200" lon="-2.645623300">
        <ele>1012.00</ele>
        <time>2012-10-20T11:38:24Z</time>
      </trkpt>
      <trkpt lat="42.346029400" lon="-2.645630900">
        <ele>1012.60</ele>
        <time>2012-10-20T11:38:24Z</time>
      </trkpt>
      <trkpt lat="42.346015500" lon="-2.645631300">
        <ele>1013.00</ele>
        <time>2012-10-20T11:38:26Z</time>
      </trkpt>
      <trkpt lat="42.346004600" lon="-2.645632200">
        <ele>1013.00</ele>
        <time>2012-10-20T11:38:26Z</time>
      </trkpt>
      <trkpt lat="42.345795600" lon="-2.645619200">
        <ele>1013.00</ele>
        <time>2012-10-20T11:38:45Z</time>
      </trkpt>
      <trkpt lat="42.345781800" lon="-2.645613900">
        <ele>1013.40</ele>
        <time>2012-10-20T11:38:47Z</time>
      </trkpt>
      <trkpt lat="42.345769900" lon="-2.645610800">
        <ele>1014.00</ele>
        <time>2012-10-20T11:38:47Z</time>
      </trkpt>
      <trkpt lat="42.345753000" lon="-2.645607200">
        <ele>1014.40</ele>
        <time>2012-10-20T11:38:48Z</time>
      </trkpt>
      <trkpt lat="42.345737900" lon="-2.645604200">
        <ele>1014.80</ele>
        <time>2012-10-20T11:38:50Z</time>
      </trkpt>
      <trkpt lat="42.345727900" lon="-2.645599400">
        <ele>1015.20</ele>
        <time>2012-10-20T11:38:50Z</time>
      </trkpt>
      <trkpt lat="42.345718600" lon="-2.645594600">
        <ele>1015.20</ele>
        <time>2012-10-20T11:38:52Z</time>
      </trkpt>
      <trkpt lat="42.345657100" lon="-2.645583100">
        <ele>1015.20</ele>
        <time>2012-10-20T11:38:57Z</time>
      </trkpt>
      <trkpt lat="42.345646400" lon="-2.645574700">
        <ele>1015.20</ele>
        <time>2012-10-20T11:38:57Z</time>
      </trkpt>
      <trkpt lat="42.345618900" lon="-2.645555000">
        <ele>1015.60</ele>
        <time>2012-10-20T11:38:59Z</time>
      </trkpt>
      <trkpt lat="42.345600000" lon="-2.645544600">
        <ele>1016.00</ele>
        <time>2012-10-20T11:39:01Z</time>
      </trkpt>
      <trkpt lat="42.345587000" lon="-2.645532700">
        <ele>1016.40</ele>
        <time>2012-10-20T11:39:01Z</time>
      </trkpt>
      <trkpt lat="42.345558500" lon="-2.645508000">
        <ele>1017.20</ele>
        <time>2012-10-20T11:39:04Z</time>
      </trkpt>
      <trkpt lat="42.345531700" lon="-2.645479900">
        <ele>1017.20</ele>
        <time>2012-10-20T11:39:06Z</time>
      </trkpt>
      <trkpt lat="42.345521800" lon="-2.645477200">
        <ele>1017.20</ele>
        <time>2012-10-20T11:39:06Z</time>
      </trkpt>
      <trkpt lat="42.345501000" lon="-2.645453600">
        <ele>1017.20</ele>
        <time>2012-10-20T11:39:09Z</time>
      </trkpt>
      <trkpt lat="42.345482400" lon="-2.645444600">
        <ele>1017.20</ele>
        <time>2012-10-20T11:39:11Z</time>
      </trkpt>
      <trkpt lat="42.345473300" lon="-2.645433100">
        <ele>1017.60</ele>
        <time>2012-10-20T11:39:13Z</time>
      </trkpt>
      <trkpt lat="42.345464800" lon="-2.645427200">
        <ele>1018.20</ele>
        <time>2012-10-20T11:39:13Z</time>
      </trkpt>
      <trkpt lat="42.345455300" lon="-2.645419700">
        <ele>1018.60</ele>
        <time>2012-10-20T11:39:15Z</time>
      </trkpt>
      <trkpt lat="42.345445300" lon="-2.645412000">
        <ele>1019.20</ele>
        <time>2012-10-20T11:39:16Z</time>
      </trkpt>
      <trkpt lat="42.345445100" lon="-2.645403300">
        <ele>1019.60</ele>
        <time>2012-10-20T11:39:16Z</time>
      </trkpt>
      <trkpt lat="42.345370800" lon="-2.645324500">
        <ele>1019.60</ele>
        <time>2012-10-20T11:39:25Z</time>
      </trkpt>
      <trkpt lat="42.345350200" lon="-2.645306600">
        <ele>1020.00</ele>
        <time>2012-10-20T11:39:27Z</time>
      </trkpt>
      <trkpt lat="42.345342700" lon="-2.645301200">
        <ele>1020.60</ele>
        <time>2012-10-20T11:39:27Z</time>
      </trkpt>
      <trkpt lat="42.345328600" lon="-2.645290800">
        <ele>1021.00</ele>
        <time>2012-10-20T11:39:29Z</time>
      </trkpt>
      <trkpt lat="42.345310500" lon="-2.645273000">
        <ele>1021.80</ele>
        <time>2012-10-20T11:39:30Z</time>
      </trkpt>
      <trkpt lat="42.345260200" lon="-2.645195500">
        <ele>1021.80</ele>
        <time>2012-10-20T11:39:37Z</time>
      </trkpt>
      <trkpt lat="42.345254000" lon="-2.645184500">
        <ele>1022.20</ele>
        <time>2012-10-20T11:39:37Z</time>
      </trkpt>
      <trkpt lat="42.345249100" lon="-2.645176600">
        <ele>1022.80</ele>
        <time>2012-10-20T11:39:39Z</time>
      </trkpt>
      <trkpt lat="42.345244700" lon="-2.645162800">
        <ele>1023.20</ele>
        <time>2012-10-20T11:39:39Z</time>
      </trkpt>
      <trkpt lat="42.345240600" lon="-2.645153000">
        <ele>1023.60</ele>
        <time>2012-10-20T11:39:41Z</time>
      </trkpt>
      <trkpt lat="42.345235900" lon="-2.645142700">
        <ele>1024.00</ele>
        <time>2012-10-20T11:39:41Z</time>
      </trkpt>
      <trkpt lat="42.345230100" lon="-2.645137200">
        <ele>1024.00</ele>
        <time>2012-10-20T11:39:42Z</time>
      </trkpt>
      <trkpt lat="42.345226700" lon="-2.645124300">
        <ele>1024.00</ele>
        <time>2012-10-20T11:39:44Z</time>
      </trkpt>
      <trkpt lat="42.345189600" lon="-2.645079800">
        <ele>1024.00</ele>
        <time>2012-10-20T11:39:48Z</time>
      </trkpt>
      <trkpt lat="42.345170900" lon="-2.645061700">
        <ele>1024.00</ele>
        <time>2012-10-20T11:39:51Z</time>
      </trkpt>
      <trkpt lat="42.345146700" lon="-2.645042300">
        <ele>1024.40</ele>
        <time>2012-10-20T11:39:53Z</time>
      </trkpt>
      <trkpt lat="42.345135400" lon="-2.645032200">
        <ele>1024.80</ele>
        <time>2012-10-20T11:39:53Z</time>
      </trkpt>
      <trkpt lat="42.345125700" lon="-2.645022000">
        <ele>1025.20</ele>
        <time>2012-10-20T11:39:55Z</time>
      </trkpt>
      <trkpt lat="42.345117200" lon="-2.645008600">
        <ele>1025.60</ele>
        <time>2012-10-20T11:39:55Z</time>
      </trkpt>
      <trkpt lat="42.345109500" lon="-2.644994500">
        <ele>1026.00</ele>
        <time>2012-10-20T11:39:56Z</time>
      </trkpt>
      <trkpt lat="42.345053400" lon="-2.644895000">
        <ele>1026.00</ele>
        <time>2012-10-20T11:40:05Z</time>
      </trkpt>
      <trkpt lat="42.345048000" lon="-2.644882300">
        <ele>1026.60</ele>
        <time>2012-10-20T11:40:07Z</time>
      </trkpt>
      <trkpt lat="42.345042900" lon="-2.644872700">
        <ele>1027.00</ele>
        <time>2012-10-20T11:40:07Z</time>
      </trkpt>
      <trkpt lat="42.345035900" lon="-2.644860300">
        <ele>1027.40</ele>
        <time>2012-10-20T11:40:09Z</time>
      </trkpt>
      <trkpt lat="42.345029200" lon="-2.644848700">
        <ele>1027.80</ele>
        <time>2012-10-20T11:40:10Z</time>
      </trkpt>
      <trkpt lat="42.345024200" lon="-2.644839000">
        <ele>1028.20</ele>
        <time>2012-10-20T11:40:10Z</time>
      </trkpt>
      <trkpt lat="42.344961200" lon="-2.644747500">
        <ele>1028.20</ele>
        <time>2012-10-20T11:40:21Z</time>
      </trkpt>
      <trkpt lat="42.344951900" lon="-2.644727900">
        <ele>1028.60</ele>
        <time>2012-10-20T11:40:23Z</time>
      </trkpt>
      <trkpt lat="42.344947300" lon="-2.644716400">
        <ele>1029.00</ele>
        <time>2012-10-20T11:40:24Z</time>
      </trkpt>
      <trkpt lat="42.344940300" lon="-2.644701800">
        <ele>1029.40</ele>
        <time>2012-10-20T11:40:24Z</time>
      </trkpt>
      <trkpt lat="42.344934200" lon="-2.644690700">
        <ele>1030.00</ele>
        <time>2012-10-20T11:40:26Z</time>
      </trkpt>
      <trkpt lat="42.344928200" lon="-2.644679200">
        <ele>1030.40</ele>
        <time>2012-10-20T11:40:26Z</time>
      </trkpt>
      <trkpt lat="42.344922500" lon="-2.644659500">
        <ele>1030.40</ele>
        <time>2012-10-20T11:40:28Z</time>
      </trkpt>
      <trkpt lat="42.344894600" lon="-2.644613600">
        <ele>1030.40</ele>
        <time>2012-10-20T11:40:35Z</time>
      </trkpt>
      <trkpt lat="42.344872200" lon="-2.644596100">
        <ele>1030.40</ele>
        <time>2012-10-20T11:40:36Z</time>
      </trkpt>
      <trkpt lat="42.344828000" lon="-2.644559500">
        <ele>1030.80</ele>
        <time>2012-10-20T11:40:40Z</time>
      </trkpt>
      <trkpt lat="42.344819600" lon="-2.644552800">
        <ele>1031.20</ele>
        <time>2012-10-20T11:40:42Z</time>
      </trkpt>
      <trkpt lat="42.344811700" lon="-2.644544700">
        <ele>1031.60</ele>
        <time>2012-10-20T11:40:42Z</time>
      </trkpt>
      <trkpt lat="42.344802900" lon="-2.644534700">
        <ele>1032.00</ele>
        <time>2012-10-20T11:40:43Z</time>
      </trkpt>
      <trkpt lat="42.344794800" lon="-2.644521700">
        <ele>1032.40</ele>
        <time>2012-10-20T11:40:45Z</time>
      </trkpt>
      <trkpt lat="42.344779000" lon="-2.644490400">
        <ele>1032.40</ele>
        <time>2012-10-20T11:40:47Z</time>
      </trkpt>
      <trkpt lat="42.344761200" lon="-2.644468700">
        <ele>1032.40</ele>
        <time>2012-10-20T11:40:49Z</time>
      </trkpt>
      <trkpt lat="42.344710500" lon="-2.644416300">
        <ele>1032.80</ele>
        <time>2012-10-20T11:40:54Z</time>
      </trkpt>
      <trkpt lat="42.344700700" lon="-2.644409600">
        <ele>1033.20</ele>
        <time>2012-10-20T11:40:56Z</time>
      </trkpt>
      <trkpt lat="42.344690200" lon="-2.644400300">
        <ele>1033.60</ele>
        <time>2012-10-20T11:40:57Z</time>
      </trkpt>
      <trkpt lat="42.344680700" lon="-2.644396500">
        <ele>1034.00</ele>
        <time>2012-10-20T11:40:57Z</time>
      </trkpt>
      <trkpt lat="42.344672900" lon="-2.644390000">
        <ele>1034.40</ele>
        <time>2012-10-20T11:40:59Z</time>
      </trkpt>
      <trkpt lat="42.344669000" lon="-2.644379500">
        <ele>1034.40</ele>
        <time>2012-10-20T11:40:59Z</time>
      </trkpt>
      <trkpt lat="42.344630800" lon="-2.644322100">
        <ele>1034.40</ele>
        <time>2012-10-20T11:41:04Z</time>
      </trkpt>
      <trkpt lat="42.344601800" lon="-2.644284600">
        <ele>1034.80</ele>
        <time>2012-10-20T11:41:08Z</time>
      </trkpt>
      <trkpt lat="42.344594100" lon="-2.644273400">
        <ele>1035.20</ele>
        <time>2012-10-20T11:41:08Z</time>
      </trkpt>
      <trkpt lat="42.344584600" lon="-2.644255100">
        <ele>1036.00</ele>
        <time>2012-10-20T11:41:11Z</time>
      </trkpt>
      <trkpt lat="42.344579900" lon="-2.644247200">
        <ele>1036.40</ele>
        <time>2012-10-20T11:41:11Z</time>
      </trkpt>
      <trkpt lat="42.344562400" lon="-2.644222600">
        <ele>1036.40</ele>
        <time>2012-10-20T11:41:15Z</time>
      </trkpt>
      <trkpt lat="42.344517400" lon="-2.644173300">
        <ele>1036.40</ele>
        <time>2012-10-20T11:41:20Z</time>
      </trkpt>
      <trkpt lat="42.344507000" lon="-2.644169500">
        <ele>1037.00</ele>
        <time>2012-10-20T11:41:22Z</time>
      </trkpt>
      <trkpt lat="42.344490100" lon="-2.644161100">
        <ele>1037.40</ele>
        <time>2012-10-20T11:41:22Z</time>
      </trkpt>
      <trkpt lat="42.344476100" lon="-2.644155500">
        <ele>1037.80</ele>
        <time>2012-10-20T11:41:23Z</time>
      </trkpt>
      <trkpt lat="42.344465600" lon="-2.644145500">
        <ele>1038.20</ele>
        <time>2012-10-20T11:41:25Z</time>
      </trkpt>
      <trkpt lat="42.344452400" lon="-2.644137700">
        <ele>1038.60</ele>
        <time>2012-10-20T11:41:25Z</time>
      </trkpt>
      <trkpt lat="42.344439800" lon="-2.644127900">
        <ele>1038.60</ele>
        <time>2012-10-20T11:41:27Z</time>
      </trkpt>
      <trkpt lat="42.344360500" lon="-2.644069900">
        <ele>1039.00</ele>
        <time>2012-10-20T11:41:34Z</time>
      </trkpt>
      <trkpt lat="42.344349600" lon="-2.644063700">
        <ele>1039.40</ele>
        <time>2012-10-20T11:41:34Z</time>
      </trkpt>
      <trkpt lat="42.344336200" lon="-2.644047600">
        <ele>1039.80</ele>
        <time>2012-10-20T11:41:36Z</time>
      </trkpt>
      <trkpt lat="42.344328100" lon="-2.644039200">
        <ele>1040.20</ele>
        <time>2012-10-20T11:41:37Z</time>
      </trkpt>
      <trkpt lat="42.344320900" lon="-2.644029600">
        <ele>1040.80</ele>
        <time>2012-10-20T11:41:39Z</time>
      </trkpt>
      <trkpt lat="42.344228700" lon="-2.643926200">
        <ele>1040.80</ele>
        <time>2012-10-20T11:41:48Z</time>
      </trkpt>
      <trkpt lat="42.344226300" lon="-2.643914500">
        <ele>1041.20</ele>
        <time>2012-10-20T11:41:48Z</time>
      </trkpt>
      <trkpt lat="42.344220000" lon="-2.643902600">
        <ele>1041.60</ele>
        <time>2012-10-20T11:41:50Z</time>
      </trkpt>
      <trkpt lat="42.344213800" lon="-2.643889600">
        <ele>1042.00</ele>
        <time>2012-10-20T11:41:50Z</time>
      </trkpt>
      <trkpt lat="42.344202800" lon="-2.643867400">
        <ele>1042.80</ele>
        <time>2012-10-20T11:41:53Z</time>
      </trkpt>
      <trkpt lat="42.344177300" lon="-2.643841000">
        <ele>1042.80</ele>
        <time>2012-10-20T11:41:55Z</time>
      </trkpt>
      <trkpt lat="42.344111100" lon="-2.643807900">
        <ele>1043.20</ele>
        <time>2012-10-20T11:42:00Z</time>
      </trkpt>
      <trkpt lat="42.344098500" lon="-2.643799900">
        <ele>1043.60</ele>
        <time>2012-10-20T11:42:02Z</time>
      </trkpt>
      <trkpt lat="42.344086900" lon="-2.643793800">
        <ele>1044.00</ele>
        <time>2012-10-20T11:42:02Z</time>
      </trkpt>
      <trkpt lat="42.344079300" lon="-2.643784200">
        <ele>1044.60</ele>
        <time>2012-10-20T11:42:04Z</time>
      </trkpt>
      <trkpt lat="42.344071600" lon="-2.643776900">
        <ele>1045.00</ele>
        <time>2012-10-20T11:42:05Z</time>
      </trkpt>
      <trkpt lat="42.344064100" lon="-2.643767600">
        <ele>1045.00</ele>
        <time>2012-10-20T11:42:05Z</time>
      </trkpt>
      <trkpt lat="42.343978200" lon="-2.643692700">
        <ele>1045.00</ele>
        <time>2012-10-20T11:42:16Z</time>
      </trkpt>
      <trkpt lat="42.343968800" lon="-2.643687300">
        <ele>1045.40</ele>
        <time>2012-10-20T11:42:16Z</time>
      </trkpt>
      <trkpt lat="42.343960200" lon="-2.643683400">
        <ele>1045.80</ele>
        <time>2012-10-20T11:42:17Z</time>
      </trkpt>
      <trkpt lat="42.343950500" lon="-2.643677700">
        <ele>1046.20</ele>
        <time>2012-10-20T11:42:19Z</time>
      </trkpt>
      <trkpt lat="42.343939900" lon="-2.643676900">
        <ele>1046.60</ele>
        <time>2012-10-20T11:42:19Z</time>
      </trkpt>
      <trkpt lat="42.343931900" lon="-2.643673800">
        <ele>1047.20</ele>
        <time>2012-10-20T11:42:21Z</time>
      </trkpt>
      <trkpt lat="42.343905100" lon="-2.643659400">
        <ele>1047.20</ele>
        <time>2012-10-20T11:42:23Z</time>
      </trkpt>
      <trkpt lat="42.343853000" lon="-2.643591900">
        <ele>1047.60</ele>
        <time>2012-10-20T11:42:31Z</time>
      </trkpt>
      <trkpt lat="42.343846000" lon="-2.643582400">
        <ele>1048.00</ele>
        <time>2012-10-20T11:42:33Z</time>
      </trkpt>
      <trkpt lat="42.343833100" lon="-2.643561500">
        <ele>1048.80</ele>
        <time>2012-10-20T11:42:35Z</time>
      </trkpt>
      <trkpt lat="42.343827700" lon="-2.643551000">
        <ele>1049.20</ele>
        <time>2012-10-20T11:42:35Z</time>
      </trkpt>
      <trkpt lat="42.343776600" lon="-2.643463800">
        <ele>1049.20</ele>
        <time>2012-10-20T11:42:45Z</time>
      </trkpt>
      <trkpt lat="42.343769400" lon="-2.643456200">
        <ele>1049.60</ele>
        <time>2012-10-20T11:42:45Z</time>
      </trkpt>
      <trkpt lat="42.343762600" lon="-2.643448700">
        <ele>1050.20</ele>
        <time>2012-10-20T11:42:47Z</time>
      </trkpt>
      <trkpt lat="42.343755900" lon="-2.643441500">
        <ele>1050.60</ele>
        <time>2012-10-20T11:42:47Z</time>
      </trkpt>
      <trkpt lat="42.343747400" lon="-2.643433300">
        <ele>1051.00</ele>
        <time>2012-10-20T11:42:49Z</time>
      </trkpt>
      <trkpt lat="42.343738000" lon="-2.643424400">
        <ele>1051.40</ele>
        <time>2012-10-20T11:42:49Z</time>
      </trkpt>
      <trkpt lat="42.343681300" lon="-2.643357000">
        <ele>1051.40</ele>
        <time>2012-10-20T11:42:56Z</time>
      </trkpt>
      <trkpt lat="42.343669200" lon="-2.643348900">
        <ele>1051.40</ele>
        <time>2012-10-20T11:42:56Z</time>
      </trkpt>
      <trkpt lat="42.343633300" lon="-2.643298000">
        <ele>1052.00</ele>
        <time>2012-10-20T11:43:01Z</time>
      </trkpt>
      <trkpt lat="42.343623400" lon="-2.643286000">
        <ele>1052.40</ele>
        <time>2012-10-20T11:43:03Z</time>
      </trkpt>
      <trkpt lat="42.343614900" lon="-2.643278500">
        <ele>1052.80</ele>
        <time>2012-10-20T11:43:03Z</time>
      </trkpt>
      <trkpt lat="42.343605400" lon="-2.643267700">
        <ele>1053.40</ele>
        <time>2012-10-20T11:43:05Z</time>
      </trkpt>
      <trkpt lat="42.343595800" lon="-2.643256700">
        <ele>1053.80</ele>
        <time>2012-10-20T11:43:06Z</time>
      </trkpt>
      <trkpt lat="42.343555600" lon="-2.643233500">
        <ele>1053.80</ele>
        <time>2012-10-20T11:43:08Z</time>
      </trkpt>
      <trkpt lat="42.343520400" lon="-2.643196500">
        <ele>1053.80</ele>
        <time>2012-10-20T11:43:13Z</time>
      </trkpt>
      <trkpt lat="42.343516000" lon="-2.643186700">
        <ele>1053.80</ele>
        <time>2012-10-20T11:43:15Z</time>
      </trkpt>
      <trkpt lat="42.343499100" lon="-2.643155300">
        <ele>1054.20</ele>
        <time>2012-10-20T11:43:17Z</time>
      </trkpt>
      <trkpt lat="42.343492900" lon="-2.643145700">
        <ele>1054.60</ele>
        <time>2012-10-20T11:43:18Z</time>
      </trkpt>
      <trkpt lat="42.343484300" lon="-2.643136000">
        <ele>1055.20</ele>
        <time>2012-10-20T11:43:20Z</time>
      </trkpt>
      <trkpt lat="42.343476600" lon="-2.643130100">
        <ele>1055.60</ele>
        <time>2012-10-20T11:43:20Z</time>
      </trkpt>
      <trkpt lat="42.343471100" lon="-2.643119600">
        <ele>1056.00</ele>
        <time>2012-10-20T11:43:22Z</time>
      </trkpt>
      <trkpt lat="42.343436200" lon="-2.643073600">
        <ele>1056.00</ele>
        <time>2012-10-20T11:43:27Z</time>
      </trkpt>
      <trkpt lat="42.343419500" lon="-2.643048500">
        <ele>1056.40</ele>
        <time>2012-10-20T11:43:31Z</time>
      </trkpt>
      <trkpt lat="42.343415000" lon="-2.643041500">
        <ele>1056.80</ele>
        <time>2012-10-20T11:43:31Z</time>
      </trkpt>
      <trkpt lat="42.343407400" lon="-2.643037400">
        <ele>1057.20</ele>
        <time>2012-10-20T11:43:32Z</time>
      </trkpt>
      <trkpt lat="42.343400700" lon="-2.643032900">
        <ele>1057.60</ele>
        <time>2012-10-20T11:43:34Z</time>
      </trkpt>
      <trkpt lat="42.343394600" lon="-2.643028200">
        <ele>1058.00</ele>
        <time>2012-10-20T11:43:34Z</time>
      </trkpt>
      <trkpt lat="42.343365600" lon="-2.642986500">
        <ele>1058.00</ele>
        <time>2012-10-20T11:43:39Z</time>
      </trkpt>
      <trkpt lat="42.343307300" lon="-2.642909200">
        <ele>1058.00</ele>
        <time>2012-10-20T11:43:46Z</time>
      </trkpt>
      <trkpt lat="42.343290800" lon="-2.642898000">
        <ele>1058.60</ele>
        <time>2012-10-20T11:43:48Z</time>
      </trkpt>
      <trkpt lat="42.343288500" lon="-2.642890300">
        <ele>1059.00</ele>
        <time>2012-10-20T11:43:50Z</time>
      </trkpt>
      <trkpt lat="42.343285500" lon="-2.642887800">
        <ele>1059.40</ele>
        <time>2012-10-20T11:43:50Z</time>
      </trkpt>
      <trkpt lat="42.343281400" lon="-2.642884100">
        <ele>1059.80</ele>
        <time>2012-10-20T11:43:52Z</time>
      </trkpt>
      <trkpt lat="42.343279000" lon="-2.642882300">
        <ele>1060.40</ele>
        <time>2012-10-20T11:43:53Z</time>
      </trkpt>
      <trkpt lat="42.343196600" lon="-2.642821900">
        <ele>1060.80</ele>
        <time>2012-10-20T11:44:02Z</time>
      </trkpt>
      <trkpt lat="42.343186600" lon="-2.642814700">
        <ele>1061.20</ele>
        <time>2012-10-20T11:44:04Z</time>
      </trkpt>
      <trkpt lat="42.343179000" lon="-2.642803900">
        <ele>1061.60</ele>
        <time>2012-10-20T11:44:04Z</time>
      </trkpt>
      <trkpt lat="42.343158400" lon="-2.642781100">
        <ele>1062.40</ele>
        <time>2012-10-20T11:44:07Z</time>
      </trkpt>
      <trkpt lat="42.343080200" lon="-2.642711500">
        <ele>1062.40</ele>
        <time>2012-10-20T11:44:12Z</time>
      </trkpt>
      <trkpt lat="42.343013500" lon="-2.642639800">
        <ele>1062.80</ele>
        <time>2012-10-20T11:44:19Z</time>
      </trkpt>
      <trkpt lat="42.342990800" lon="-2.642611300">
        <ele>1064.00</ele>
        <time>2012-10-20T11:44:23Z</time>
      </trkpt>
      <trkpt lat="42.342988900" lon="-2.642606500">
        <ele>1064.40</ele>
        <time>2012-10-20T11:44:23Z</time>
      </trkpt>
      <trkpt lat="42.342957100" lon="-2.642562900">
        <ele>1064.40</ele>
        <time>2012-10-20T11:44:30Z</time>
      </trkpt>
      <trkpt lat="42.342951200" lon="-2.642549600">
        <ele>1064.40</ele>
        <time>2012-10-20T11:44:30Z</time>
      </trkpt>
      <trkpt lat="42.342914600" lon="-2.642499200">
        <ele>1065.00</ele>
        <time>2012-10-20T11:44:35Z</time>
      </trkpt>
      <trkpt lat="42.342906600" lon="-2.642488300">
        <ele>1065.40</ele>
        <time>2012-10-20T11:44:35Z</time>
      </trkpt>
      <trkpt lat="42.342901800" lon="-2.642472300">
        <ele>1065.80</ele>
        <time>2012-10-20T11:44:37Z</time>
      </trkpt>
      <trkpt lat="42.342891300" lon="-2.642462500">
        <ele>1066.20</ele>
        <time>2012-10-20T11:44:37Z</time>
      </trkpt>
      <trkpt lat="42.342883600" lon="-2.642451300">
        <ele>1066.80</ele>
        <time>2012-10-20T11:44:39Z</time>
      </trkpt>
      <trkpt lat="42.342866900" lon="-2.642414100">
        <ele>1066.80</ele>
        <time>2012-10-20T11:44:42Z</time>
      </trkpt>
      <trkpt lat="42.342812300" lon="-2.642354200">
        <ele>1066.80</ele>
        <time>2012-10-20T11:44:49Z</time>
      </trkpt>
      <trkpt lat="42.342805800" lon="-2.642345000">
        <ele>1067.20</ele>
        <time>2012-10-20T11:44:49Z</time>
      </trkpt>
      <trkpt lat="42.342801000" lon="-2.642333500">
        <ele>1067.60</ele>
        <time>2012-10-20T11:44:51Z</time>
      </trkpt>
      <trkpt lat="42.342793100" lon="-2.642319200">
        <ele>1068.00</ele>
        <time>2012-10-20T11:44:51Z</time>
      </trkpt>
      <trkpt lat="42.342782200" lon="-2.642309900">
        <ele>1068.40</ele>
        <time>2012-10-20T11:44:53Z</time>
      </trkpt>
      <trkpt lat="42.342770300" lon="-2.642296400">
        <ele>1068.80</ele>
        <time>2012-10-20T11:44:54Z</time>
      </trkpt>
      <trkpt lat="42.342748500" lon="-2.642274700">
        <ele>1068.80</ele>
        <time>2012-10-20T11:44:56Z</time>
      </trkpt>
      <trkpt lat="42.342684500" lon="-2.642201100">
        <ele>1068.80</ele>
        <time>2012-10-20T11:45:03Z</time>
      </trkpt>
      <trkpt lat="42.342649700" lon="-2.642157500">
        <ele>1069.20</ele>
        <time>2012-10-20T11:45:06Z</time>
      </trkpt>
      <trkpt lat="42.342642300" lon="-2.642142800">
        <ele>1069.60</ele>
        <time>2012-10-20T11:45:08Z</time>
      </trkpt>
      <trkpt lat="42.342639600" lon="-2.642135200">
        <ele>1070.20</ele>
        <time>2012-10-20T11:45:08Z</time>
      </trkpt>
      <trkpt lat="42.342633500" lon="-2.642121700">
        <ele>1070.60</ele>
        <time>2012-10-20T11:45:10Z</time>
      </trkpt>
      <trkpt lat="42.342624500" lon="-2.642115400">
        <ele>1071.00</ele>
        <time>2012-10-20T11:45:10Z</time>
      </trkpt>
      <trkpt lat="42.342599700" lon="-2.642077000">
        <ele>1071.00</ele>
        <time>2012-10-20T11:45:13Z</time>
      </trkpt>
      <trkpt lat="42.342544400" lon="-2.641999800">
        <ele>1071.00</ele>
        <time>2012-10-20T11:45:19Z</time>
      </trkpt>
      <trkpt lat="42.342527400" lon="-2.641953100">
        <ele>1071.40</ele>
        <time>2012-10-20T11:45:22Z</time>
      </trkpt>
      <trkpt lat="42.342523900" lon="-2.641937700">
        <ele>1071.80</ele>
        <time>2012-10-20T11:45:24Z</time>
      </trkpt>
      <trkpt lat="42.342526100" lon="-2.641918600">
        <ele>1072.20</ele>
        <time>2012-10-20T11:45:24Z</time>
      </trkpt>
      <trkpt lat="42.342524700" lon="-2.641901500">
        <ele>1072.60</ele>
        <time>2012-10-20T11:45:26Z</time>
      </trkpt>
      <trkpt lat="42.342524800" lon="-2.641886800">
        <ele>1073.00</ele>
        <time>2012-10-20T11:45:26Z</time>
      </trkpt>
      <trkpt lat="42.342551900" lon="-2.641747800">
        <ele>1073.00</ele>
        <time>2012-10-20T11:45:34Z</time>
      </trkpt>
      <trkpt lat="42.342568900" lon="-2.641702200">
        <ele>1073.40</ele>
        <time>2012-10-20T11:45:38Z</time>
      </trkpt>
      <trkpt lat="42.342577000" lon="-2.641687100">
        <ele>1073.80</ele>
        <time>2012-10-20T11:45:38Z</time>
      </trkpt>
      <trkpt lat="42.342583900" lon="-2.641673100">
        <ele>1074.20</ele>
        <time>2012-10-20T11:45:40Z</time>
      </trkpt>
      <trkpt lat="42.342591300" lon="-2.641658700">
        <ele>1074.80</ele>
        <time>2012-10-20T11:45:41Z</time>
      </trkpt>
      <trkpt lat="42.342601100" lon="-2.641647800">
        <ele>1075.20</ele>
        <time>2012-10-20T11:45:41Z</time>
      </trkpt>
      <trkpt lat="42.342613100" lon="-2.641643700">
        <ele>1075.20</ele>
        <time>2012-10-20T11:45:43Z</time>
      </trkpt>
      <trkpt lat="42.342628100" lon="-2.641631700">
        <ele>1075.20</ele>
        <time>2012-10-20T11:45:43Z</time>
      </trkpt>
      <trkpt lat="42.342655200" lon="-2.641583000">
        <ele>1075.20</ele>
        <time>2012-10-20T11:45:48Z</time>
      </trkpt>
      <trkpt lat="42.342687000" lon="-2.641512700">
        <ele>1075.60</ele>
        <time>2012-10-20T11:45:54Z</time>
      </trkpt>
      <trkpt lat="42.342695100" lon="-2.641497600">
        <ele>1076.00</ele>
        <time>2012-10-20T11:45:55Z</time>
      </trkpt>
      <trkpt lat="42.342703900" lon="-2.641479300">
        <ele>1076.40</ele>
        <time>2012-10-20T11:45:55Z</time>
      </trkpt>
      <trkpt lat="42.342710500" lon="-2.641460300">
        <ele>1076.80</ele>
        <time>2012-10-20T11:45:57Z</time>
      </trkpt>
      <trkpt lat="42.342714900" lon="-2.641442800">
        <ele>1077.40</ele>
        <time>2012-10-20T11:45:57Z</time>
      </trkpt>
      <trkpt lat="42.342738200" lon="-2.641363300">
        <ele>1077.40</ele>
        <time>2012-10-20T11:46:02Z</time>
      </trkpt>
      <trkpt lat="42.342779500" lon="-2.641260500">
        <ele>1077.40</ele>
        <time>2012-10-20T11:46:09Z</time>
      </trkpt>
      <trkpt lat="42.342797800" lon="-2.641191200">
        <ele>1077.40</ele>
        <time>2012-10-20T11:46:13Z</time>
      </trkpt>
      <trkpt lat="42.342822900" lon="-2.641136100">
        <ele>1077.80</ele>
        <time>2012-10-20T11:46:16Z</time>
      </trkpt>
      <trkpt lat="42.342832300" lon="-2.641121000">
        <ele>1078.20</ele>
        <time>2012-10-20T11:46:18Z</time>
      </trkpt>
      <trkpt lat="42.342843600" lon="-2.641100600">
        <ele>1078.80</ele>
        <time>2012-10-20T11:46:18Z</time>
      </trkpt>
      <trkpt lat="42.342851900" lon="-2.641090500">
        <ele>1079.20</ele>
        <time>2012-10-20T11:46:20Z</time>
      </trkpt>
      <trkpt lat="42.342859900" lon="-2.641071200">
        <ele>1079.80</ele>
        <time>2012-10-20T11:46:21Z</time>
      </trkpt>
      <trkpt lat="42.342866100" lon="-2.641043700">
        <ele>1079.80</ele>
        <time>2012-10-20T11:46:23Z</time>
      </trkpt>
      <trkpt lat="42.342882100" lon="-2.641006500">
        <ele>1079.80</ele>
        <time>2012-10-20T11:46:25Z</time>
      </trkpt>
      <trkpt lat="42.342901200" lon="-2.640980700">
        <ele>1079.80</ele>
        <time>2012-10-20T11:46:27Z</time>
      </trkpt>
      <trkpt lat="42.342958600" lon="-2.640858100">
        <ele>1079.80</ele>
        <time>2012-10-20T11:46:35Z</time>
      </trkpt>
      <trkpt lat="42.342970400" lon="-2.640804800">
        <ele>1080.20</ele>
        <time>2012-10-20T11:46:37Z</time>
      </trkpt>
      <trkpt lat="42.342974300" lon="-2.640787200">
        <ele>1080.60</ele>
        <time>2012-10-20T11:46:39Z</time>
      </trkpt>
      <trkpt lat="42.342980200" lon="-2.640767200">
        <ele>1081.00</ele>
        <time>2012-10-20T11:46:39Z</time>
      </trkpt>
      <trkpt lat="42.342982500" lon="-2.640753500">
        <ele>1081.40</ele>
        <time>2012-10-20T11:46:41Z</time>
      </trkpt>
      <trkpt lat="42.342987400" lon="-2.640737400">
        <ele>1082.00</ele>
        <time>2012-10-20T11:46:42Z</time>
      </trkpt>
      <trkpt lat="42.342993200" lon="-2.640720500">
        <ele>1082.00</ele>
        <time>2012-10-20T11:46:42Z</time>
      </trkpt>
      <trkpt lat="42.343005800" lon="-2.640694800">
        <ele>1082.00</ele>
        <time>2012-10-20T11:46:44Z</time>
      </trkpt>
      <trkpt lat="42.343040500" lon="-2.640644300">
        <ele>1082.00</ele>
        <time>2012-10-20T11:46:49Z</time>
      </trkpt>
      <trkpt lat="42.343113800" lon="-2.640522500">
        <ele>1082.40</ele>
        <time>2012-10-20T11:46:56Z</time>
      </trkpt>
      <trkpt lat="42.343116600" lon="-2.640494800">
        <ele>1082.80</ele>
        <time>2012-10-20T11:46:56Z</time>
      </trkpt>
      <trkpt lat="42.343117200" lon="-2.640475100">
        <ele>1083.20</ele>
        <time>2012-10-20T11:46:58Z</time>
      </trkpt>
      <trkpt lat="42.343115100" lon="-2.640451300">
        <ele>1083.60</ele>
        <time>2012-10-20T11:46:58Z</time>
      </trkpt>
      <trkpt lat="42.343115400" lon="-2.640431400">
        <ele>1084.00</ele>
        <time>2012-10-20T11:47:00Z</time>
      </trkpt>
      <trkpt lat="42.343108900" lon="-2.640377900">
        <ele>1084.00</ele>
        <time>2012-10-20T11:47:03Z</time>
      </trkpt>
      <trkpt lat="42.343060100" lon="-2.640286200">
        <ele>1084.00</ele>
        <time>2012-10-20T11:47:08Z</time>
      </trkpt>
      <trkpt lat="42.343049400" lon="-2.640276300">
        <ele>1084.40</ele>
        <time>2012-10-20T11:47:10Z</time>
      </trkpt>
      <trkpt lat="42.343037800" lon="-2.640273200">
        <ele>1084.80</ele>
        <time>2012-10-20T11:47:10Z</time>
      </trkpt>
      <trkpt lat="42.343024500" lon="-2.640272700">
        <ele>1085.20</ele>
        <time>2012-10-20T11:47:12Z</time>
      </trkpt>
      <trkpt lat="42.343007100" lon="-2.640271500">
        <ele>1085.80</ele>
        <time>2012-10-20T11:47:12Z</time>
      </trkpt>
      <trkpt lat="42.342994000" lon="-2.640272900">
        <ele>1086.20</ele>
        <time>2012-10-20T11:47:14Z</time>
      </trkpt>
      <trkpt lat="42.342977700" lon="-2.640274500">
        <ele>1086.20</ele>
        <time>2012-10-20T11:47:14Z</time>
      </trkpt>
      <trkpt lat="42.342879800" lon="-2.640278500">
        <ele>1086.20</ele>
        <time>2012-10-20T11:47:22Z</time>
      </trkpt>
      <trkpt lat="42.342781800" lon="-2.640274900">
        <ele>1086.20</ele>
        <time>2012-10-20T11:47:29Z</time>
      </trkpt>
      <trkpt lat="42.342705900" lon="-2.640275600">
        <ele>1086.60</ele>
        <time>2012-10-20T11:47:35Z</time>
      </trkpt>
      <trkpt lat="42.342689600" lon="-2.640276600">
        <ele>1087.00</ele>
        <time>2012-10-20T11:47:36Z</time>
      </trkpt>
      <trkpt lat="42.342672400" lon="-2.640278000">
        <ele>1087.40</ele>
        <time>2012-10-20T11:47:36Z</time>
      </trkpt>
      <trkpt lat="42.342656800" lon="-2.640277000">
        <ele>1087.80</ele>
        <time>2012-10-20T11:47:38Z</time>
      </trkpt>
      <trkpt lat="42.342641700" lon="-2.640271200">
        <ele>1088.20</ele>
        <time>2012-10-20T11:47:38Z</time>
      </trkpt>
      <trkpt lat="42.342570600" lon="-2.640270700">
        <ele>1088.20</ele>
        <time>2012-10-20T11:47:43Z</time>
      </trkpt>
      <trkpt lat="42.342499800" lon="-2.640263800">
        <ele>1088.20</ele>
        <time>2012-10-20T11:47:48Z</time>
      </trkpt>
      <trkpt lat="42.342488300" lon="-2.640258200">
        <ele>1088.20</ele>
        <time>2012-10-20T11:47:50Z</time>
      </trkpt>
      <trkpt lat="42.342474100" lon="-2.640253800">
        <ele>1088.60</ele>
        <time>2012-10-20T11:47:50Z</time>
      </trkpt>
      <trkpt lat="42.342460500" lon="-2.640244300">
        <ele>1089.00</ele>
        <time>2012-10-20T11:47:52Z</time>
      </trkpt>
      <trkpt lat="42.342443400" lon="-2.640238300">
        <ele>1089.60</ele>
        <time>2012-10-20T11:47:52Z</time>
      </trkpt>
      <trkpt lat="42.342430700" lon="-2.640236600">
        <ele>1090.00</ele>
        <time>2012-10-20T11:47:54Z</time>
      </trkpt>
      <trkpt lat="42.342415300" lon="-2.640236700">
        <ele>1090.40</ele>
        <time>2012-10-20T11:47:54Z</time>
      </trkpt>
      <trkpt lat="42.342400300" lon="-2.640239600">
        <ele>1090.40</ele>
        <time>2012-10-20T11:47:55Z</time>
      </trkpt>
      <trkpt lat="42.342331400" lon="-2.640244300">
        <ele>1090.40</ele>
        <time>2012-10-20T11:48:01Z</time>
      </trkpt>
      <trkpt lat="42.342320100" lon="-2.640240300">
        <ele>1090.40</ele>
        <time>2012-10-20T11:48:02Z</time>
      </trkpt>
      <trkpt lat="42.342225800" lon="-2.640251200">
        <ele>1090.40</ele>
        <time>2012-10-20T11:48:11Z</time>
      </trkpt>
      <trkpt lat="42.342219600" lon="-2.640262000">
        <ele>1090.40</ele>
        <time>2012-10-20T11:48:11Z</time>
      </trkpt>
      <trkpt lat="42.342196500" lon="-2.640258500">
        <ele>1090.80</ele>
        <time>2012-10-20T11:48:13Z</time>
      </trkpt>
      <trkpt lat="42.342184800" lon="-2.640260100">
        <ele>1091.40</ele>
        <time>2012-10-20T11:48:15Z</time>
      </trkpt>
      <trkpt lat="42.342175900" lon="-2.640262900">
        <ele>1091.80</ele>
        <time>2012-10-20T11:48:16Z</time>
      </trkpt>
      <trkpt lat="42.342166800" lon="-2.640257300">
        <ele>1092.20</ele>
        <time>2012-10-20T11:48:16Z</time>
      </trkpt>
      <trkpt lat="42.342156600" lon="-2.640252400">
        <ele>1092.80</ele>
        <time>2012-10-20T11:48:18Z</time>
      </trkpt>
      <trkpt lat="42.342096600" lon="-2.640237200">
        <ele>1092.80</ele>
        <time>2012-10-20T11:48:23Z</time>
      </trkpt>
      <trkpt lat="42.342009700" lon="-2.640207600">
        <ele>1092.80</ele>
        <time>2012-10-20T11:48:29Z</time>
      </trkpt>
      <trkpt lat="42.341971900" lon="-2.640204700">
        <ele>1092.80</ele>
        <time>2012-10-20T11:48:30Z</time>
      </trkpt>
      <trkpt lat="42.341904500" lon="-2.640194500">
        <ele>1092.80</ele>
        <time>2012-10-20T11:48:34Z</time>
      </trkpt>
      <trkpt lat="42.341888800" lon="-2.640192000">
        <ele>1093.20</ele>
        <time>2012-10-20T11:48:36Z</time>
      </trkpt>
      <trkpt lat="42.341875500" lon="-2.640193200">
        <ele>1093.60</ele>
        <time>2012-10-20T11:48:37Z</time>
      </trkpt>
      <trkpt lat="42.341851000" lon="-2.640190900">
        <ele>1094.40</ele>
        <time>2012-10-20T11:48:39Z</time>
      </trkpt>
      <trkpt lat="42.341837800" lon="-2.640190500">
        <ele>1094.80</ele>
        <time>2012-10-20T11:48:39Z</time>
      </trkpt>
      <trkpt lat="42.341787000" lon="-2.640184000">
        <ele>1094.80</ele>
        <time>2012-10-20T11:48:44Z</time>
      </trkpt>
      <trkpt lat="42.341682800" lon="-2.640167300">
        <ele>1094.80</ele>
        <time>2012-10-20T11:48:51Z</time>
      </trkpt>
      <trkpt lat="42.341654300" lon="-2.640158100">
        <ele>1095.20</ele>
        <time>2012-10-20T11:48:53Z</time>
      </trkpt>
      <trkpt lat="42.341640600" lon="-2.640156800">
        <ele>1095.60</ele>
        <time>2012-10-20T11:48:53Z</time>
      </trkpt>
      <trkpt lat="42.341632200" lon="-2.640150700">
        <ele>1096.00</ele>
        <time>2012-10-20T11:48:55Z</time>
      </trkpt>
      <trkpt lat="42.341623500" lon="-2.640141500">
        <ele>1096.60</ele>
        <time>2012-10-20T11:48:55Z</time>
      </trkpt>
      <trkpt lat="42.341617900" lon="-2.640126800">
        <ele>1097.00</ele>
        <time>2012-10-20T11:48:56Z</time>
      </trkpt>
      <trkpt lat="42.341604200" lon="-2.640073400">
        <ele>1097.00</ele>
        <time>2012-10-20T11:49:00Z</time>
      </trkpt>
      <trkpt lat="42.341598900" lon="-2.640045900">
        <ele>1097.00</ele>
        <time>2012-10-20T11:49:02Z</time>
      </trkpt>
      <trkpt lat="42.341594800" lon="-2.639997900">
        <ele>1097.40</ele>
        <time>2012-10-20T11:49:05Z</time>
      </trkpt>
      <trkpt lat="42.341588300" lon="-2.639972400">
        <ele>1098.20</ele>
        <time>2012-10-20T11:49:07Z</time>
      </trkpt>
      <trkpt lat="42.341583200" lon="-2.639957500">
        <ele>1098.60</ele>
        <time>2012-10-20T11:49:09Z</time>
      </trkpt>
      <trkpt lat="42.341578200" lon="-2.639940900">
        <ele>1099.00</ele>
        <time>2012-10-20T11:49:10Z</time>
      </trkpt>
      <trkpt lat="42.341573800" lon="-2.639893200">
        <ele>1099.00</ele>
        <time>2012-10-20T11:49:12Z</time>
      </trkpt>
      <trkpt lat="42.341570300" lon="-2.639850100">
        <ele>1099.40</ele>
        <time>2012-10-20T11:49:16Z</time>
      </trkpt>
      <trkpt lat="42.341567800" lon="-2.639830900">
        <ele>1099.80</ele>
        <time>2012-10-20T11:49:17Z</time>
      </trkpt>
      <trkpt lat="42.341565600" lon="-2.639800900">
        <ele>1100.60</ele>
        <time>2012-10-20T11:49:19Z</time>
      </trkpt>
      <trkpt lat="42.341562500" lon="-2.639789300">
        <ele>1101.00</ele>
        <time>2012-10-20T11:49:19Z</time>
      </trkpt>
      <trkpt lat="42.341558500" lon="-2.639762200">
        <ele>1101.00</ele>
        <time>2012-10-20T11:49:21Z</time>
      </trkpt>
      <trkpt lat="42.341554400" lon="-2.639680000">
        <ele>1101.00</ele>
        <time>2012-10-20T11:49:28Z</time>
      </trkpt>
      <trkpt lat="42.341545200" lon="-2.639620200">
        <ele>1101.40</ele>
        <time>2012-10-20T11:49:33Z</time>
      </trkpt>
      <trkpt lat="42.341547000" lon="-2.639586300">
        <ele>1102.20</ele>
        <time>2012-10-20T11:49:35Z</time>
      </trkpt>
      <trkpt lat="42.341545400" lon="-2.639569800">
        <ele>1102.60</ele>
        <time>2012-10-20T11:49:35Z</time>
      </trkpt>
      <trkpt lat="42.341550200" lon="-2.639550700">
        <ele>1103.00</ele>
        <time>2012-10-20T11:49:36Z</time>
      </trkpt>
      <trkpt lat="42.341543800" lon="-2.639439900">
        <ele>1103.00</ele>
        <time>2012-10-20T11:49:42Z</time>
      </trkpt>
      <trkpt lat="42.341541200" lon="-2.639411000">
        <ele>1103.40</ele>
        <time>2012-10-20T11:49:45Z</time>
      </trkpt>
      <trkpt lat="42.341541600" lon="-2.639397900">
        <ele>1103.80</ele>
        <time>2012-10-20T11:49:45Z</time>
      </trkpt>
      <trkpt lat="42.341541400" lon="-2.639385500">
        <ele>1104.20</ele>
        <time>2012-10-20T11:49:47Z</time>
      </trkpt>
      <trkpt lat="42.341539000" lon="-2.639374300">
        <ele>1104.60</ele>
        <time>2012-10-20T11:49:47Z</time>
      </trkpt>
      <trkpt lat="42.341539400" lon="-2.639361100">
        <ele>1105.00</ele>
        <time>2012-10-20T11:49:49Z</time>
      </trkpt>
      <trkpt lat="42.341545700" lon="-2.639261200">
        <ele>1105.00</ele>
        <time>2012-10-20T11:49:56Z</time>
      </trkpt>
      <trkpt lat="42.341547800" lon="-2.639228500">
        <ele>1105.40</ele>
        <time>2012-10-20T11:49:57Z</time>
      </trkpt>
      <trkpt lat="42.341546300" lon="-2.639210900">
        <ele>1106.00</ele>
        <time>2012-10-20T11:49:59Z</time>
      </trkpt>
      <trkpt lat="42.341538500" lon="-2.639191200">
        <ele>1106.40</ele>
        <time>2012-10-20T11:49:59Z</time>
      </trkpt>
      <trkpt lat="42.341540000" lon="-2.639168600">
        <ele>1106.80</ele>
        <time>2012-10-20T11:50:01Z</time>
      </trkpt>
      <trkpt lat="42.341538800" lon="-2.639152000">
        <ele>1107.20</ele>
        <time>2012-10-20T11:50:01Z</time>
      </trkpt>
      <trkpt lat="42.341539700" lon="-2.639116000">
        <ele>1107.20</ele>
        <time>2012-10-20T11:50:04Z</time>
      </trkpt>
      <trkpt lat="42.341553500" lon="-2.639037900">
        <ele>1107.20</ele>
        <time>2012-10-20T11:50:08Z</time>
      </trkpt>
      <trkpt lat="42.341554400" lon="-2.639022900">
        <ele>1107.60</ele>
        <time>2012-10-20T11:50:10Z</time>
      </trkpt>
      <trkpt lat="42.341553300" lon="-2.639011900">
        <ele>1108.00</ele>
        <time>2012-10-20T11:50:11Z</time>
      </trkpt>
      <trkpt lat="42.341553800" lon="-2.638995700">
        <ele>1108.40</ele>
        <time>2012-10-20T11:50:11Z</time>
      </trkpt>
      <trkpt lat="42.341550200" lon="-2.638975700">
        <ele>1108.80</ele>
        <time>2012-10-20T11:50:13Z</time>
      </trkpt>
      <trkpt lat="42.341547600" lon="-2.638958400">
        <ele>1109.20</ele>
        <time>2012-10-20T11:50:13Z</time>
      </trkpt>
      <trkpt lat="42.341545000" lon="-2.638929100">
        <ele>1109.20</ele>
        <time>2012-10-20T11:50:15Z</time>
      </trkpt>
      <trkpt lat="42.341551200" lon="-2.638850600">
        <ele>1109.80</ele>
        <time>2012-10-20T11:50:22Z</time>
      </trkpt>
      <trkpt lat="42.341554500" lon="-2.638836200">
        <ele>1110.20</ele>
        <time>2012-10-20T11:50:22Z</time>
      </trkpt>
      <trkpt lat="42.341552900" lon="-2.638826500">
        <ele>1110.60</ele>
        <time>2012-10-20T11:50:24Z</time>
      </trkpt>
      <trkpt lat="42.341555900" lon="-2.638810700">
        <ele>1111.00</ele>
        <time>2012-10-20T11:50:25Z</time>
      </trkpt>
      <trkpt lat="42.341555700" lon="-2.638795900">
        <ele>1111.60</ele>
        <time>2012-10-20T11:50:25Z</time>
      </trkpt>
      <trkpt lat="42.341558600" lon="-2.638723700">
        <ele>1111.60</ele>
        <time>2012-10-20T11:50:29Z</time>
      </trkpt>
      <trkpt lat="42.341553400" lon="-2.638692000">
        <ele>1111.60</ele>
        <time>2012-10-20T11:50:32Z</time>
      </trkpt>
      <trkpt lat="42.341563100" lon="-2.638596500">
        <ele>1112.00</ele>
        <time>2012-10-20T11:50:39Z</time>
      </trkpt>
      <trkpt lat="42.341575500" lon="-2.638581500">
        <ele>1112.40</ele>
        <time>2012-10-20T11:50:41Z</time>
      </trkpt>
      <trkpt lat="42.341579000" lon="-2.638568900">
        <ele>1112.80</ele>
        <time>2012-10-20T11:50:41Z</time>
      </trkpt>
      <trkpt lat="42.341579300" lon="-2.638556300">
        <ele>1113.20</ele>
        <time>2012-10-20T11:50:43Z</time>
      </trkpt>
      <trkpt lat="42.341579700" lon="-2.638539600">
        <ele>1113.60</ele>
        <time>2012-10-20T11:50:43Z</time>
      </trkpt>
      <trkpt lat="42.341574000" lon="-2.638527600">
        <ele>1113.60</ele>
        <time>2012-10-20T11:50:44Z</time>
      </trkpt>
      <trkpt lat="42.341556700" lon="-2.638468600">
        <ele>1113.60</ele>
        <time>2012-10-20T11:50:48Z</time>
      </trkpt>
      <trkpt lat="42.341550600" lon="-2.638411700">
        <ele>1113.60</ele>
        <time>2012-10-20T11:50:50Z</time>
      </trkpt>
      <trkpt lat="42.341546600" lon="-2.638371000">
        <ele>1114.00</ele>
        <time>2012-10-20T11:50:53Z</time>
      </trkpt>
      <trkpt lat="42.341546700" lon="-2.638353900">
        <ele>1114.60</ele>
        <time>2012-10-20T11:50:53Z</time>
      </trkpt>
      <trkpt lat="42.341547000" lon="-2.638340900">
        <ele>1115.00</ele>
        <time>2012-10-20T11:50:55Z</time>
      </trkpt>
      <trkpt lat="42.341547500" lon="-2.638326300">
        <ele>1115.40</ele>
        <time>2012-10-20T11:50:55Z</time>
      </trkpt>
      <trkpt lat="42.341547600" lon="-2.638312600">
        <ele>1115.80</ele>
        <time>2012-10-20T11:50:57Z</time>
      </trkpt>
      <trkpt lat="42.341547900" lon="-2.638298700">
        <ele>1115.80</ele>
        <time>2012-10-20T11:50:58Z</time>
      </trkpt>
      <trkpt lat="42.341555400" lon="-2.638266500">
        <ele>1115.80</ele>
        <time>2012-10-20T11:51:00Z</time>
      </trkpt>
      <trkpt lat="42.341557500" lon="-2.638211700">
        <ele>1115.80</ele>
        <time>2012-10-20T11:51:02Z</time>
      </trkpt>
      <trkpt lat="42.341552300" lon="-2.638182100">
        <ele>1115.80</ele>
        <time>2012-10-20T11:51:05Z</time>
      </trkpt>
      <trkpt lat="42.341558000" lon="-2.638124400">
        <ele>1115.80</ele>
        <time>2012-10-20T11:51:07Z</time>
      </trkpt>
      <trkpt lat="42.341568100" lon="-2.638094000">
        <ele>1115.80</ele>
        <time>2012-10-20T11:51:09Z</time>
      </trkpt>
      <trkpt lat="42.341582800" lon="-2.638061500">
        <ele>1116.20</ele>
        <time>2012-10-20T11:51:12Z</time>
      </trkpt>
      <trkpt lat="42.341589400" lon="-2.638044200">
        <ele>1116.60</ele>
        <time>2012-10-20T11:51:12Z</time>
      </trkpt>
      <trkpt lat="42.341592700" lon="-2.638028100">
        <ele>1117.00</ele>
        <time>2012-10-20T11:51:14Z</time>
      </trkpt>
      <trkpt lat="42.341596800" lon="-2.638001200">
        <ele>1117.80</ele>
        <time>2012-10-20T11:51:16Z</time>
      </trkpt>
      <trkpt lat="42.341607100" lon="-2.637933200">
        <ele>1118.40</ele>
        <time>2012-10-20T11:51:19Z</time>
      </trkpt>
      <trkpt lat="42.341615500" lon="-2.637910600">
        <ele>1118.80</ele>
        <time>2012-10-20T11:51:19Z</time>
      </trkpt>
      <trkpt lat="42.341613100" lon="-2.637899300">
        <ele>1119.20</ele>
        <time>2012-10-20T11:51:21Z</time>
      </trkpt>
      <trkpt lat="42.341615000" lon="-2.637884000">
        <ele>1119.60</ele>
        <time>2012-10-20T11:51:21Z</time>
      </trkpt>
      <trkpt lat="42.341615000" lon="-2.637874900">
        <ele>1120.00</ele>
        <time>2012-10-20T11:51:23Z</time>
      </trkpt>
      <trkpt lat="42.341613100" lon="-2.637867200">
        <ele>1120.00</ele>
        <time>2012-10-20T11:51:23Z</time>
      </trkpt>
      <trkpt lat="42.341620600" lon="-2.637853000">
        <ele>1120.00</ele>
        <time>2012-10-20T11:51:24Z</time>
      </trkpt>
      <trkpt lat="42.341641800" lon="-2.637780900">
        <ele>1120.00</ele>
        <time>2012-10-20T11:51:28Z</time>
      </trkpt>
      <trkpt lat="42.341661400" lon="-2.637663300">
        <ele>1120.00</ele>
        <time>2012-10-20T11:51:33Z</time>
      </trkpt>
      <trkpt lat="42.341636100" lon="-2.637556000">
        <ele>1120.00</ele>
        <time>2012-10-20T11:51:40Z</time>
      </trkpt>
      <trkpt lat="42.341656000" lon="-2.637467000">
        <ele>1120.00</ele>
        <time>2012-10-20T11:51:45Z</time>
      </trkpt>
      <trkpt lat="42.341693000" lon="-2.637381100">
        <ele>1120.40</ele>
        <time>2012-10-20T11:51:52Z</time>
      </trkpt>
      <trkpt lat="42.341694700" lon="-2.637367900">
        <ele>1120.80</ele>
        <time>2012-10-20T11:51:54Z</time>
      </trkpt>
      <trkpt lat="42.341698600" lon="-2.637355500">
        <ele>1121.20</ele>
        <time>2012-10-20T11:51:54Z</time>
      </trkpt>
      <trkpt lat="42.341704100" lon="-2.637341400">
        <ele>1121.60</ele>
        <time>2012-10-20T11:51:56Z</time>
      </trkpt>
      <trkpt lat="42.341712300" lon="-2.637334700">
        <ele>1122.00</ele>
        <time>2012-10-20T11:51:56Z</time>
      </trkpt>
      <trkpt lat="42.341719800" lon="-2.637319600">
        <ele>1122.00</ele>
        <time>2012-10-20T11:51:58Z</time>
      </trkpt>
      <trkpt lat="42.341738300" lon="-2.637271200">
        <ele>1122.00</ele>
        <time>2012-10-20T11:52:01Z</time>
      </trkpt>
      <trkpt lat="42.341839900" lon="-2.637122100">
        <ele>1122.00</ele>
        <time>2012-10-20T11:55:35Z</time>
      </trkpt>
      <trkpt lat="42.341809000" lon="-2.637109300">
        <ele>1122.00</ele>
        <time>2012-10-20T11:55:39Z</time>
      </trkpt>
      <trkpt lat="42.341766800" lon="-2.637108700">
        <ele>1122.00</ele>
        <time>2012-10-20T11:56:31Z</time>
      </trkpt>
      <trkpt lat="42.341809900" lon="-2.637014100">
        <ele>1122.00</ele>
        <time>2012-10-20T11:56:43Z</time>
      </trkpt>
      <trkpt lat="42.341826800" lon="-2.637000100">
        <ele>1122.00</ele>
        <time>2012-10-20T11:56:43Z</time>
      </trkpt>
      <trkpt lat="42.341883000" lon="-2.636961200">
        <ele>1122.00</ele>
        <time>2012-10-20T11:56:47Z</time>
      </trkpt>
      <trkpt lat="42.341905000" lon="-2.636953500">
        <ele>1121.60</ele>
        <time>2012-10-20T11:56:47Z</time>
      </trkpt>
      <trkpt lat="42.341936400" lon="-2.636944700">
        <ele>1121.20</ele>
        <time>2012-10-20T11:56:48Z</time>
      </trkpt>
      <trkpt lat="42.341998300" lon="-2.636938700">
        <ele>1120.40</ele>
        <time>2012-10-20T11:56:50Z</time>
      </trkpt>
      <trkpt lat="42.342031000" lon="-2.636934500">
        <ele>1120.00</ele>
        <time>2012-10-20T11:56:52Z</time>
      </trkpt>
      <trkpt lat="42.342147000" lon="-2.636928300">
        <ele>1120.00</ele>
        <time>2012-10-20T11:56:55Z</time>
      </trkpt>
      <trkpt lat="42.342184100" lon="-2.636922800">
        <ele>1120.00</ele>
        <time>2012-10-20T11:56:57Z</time>
      </trkpt>
      <trkpt lat="42.342262200" lon="-2.636932200">
        <ele>1120.00</ele>
        <time>2012-10-20T11:56:59Z</time>
      </trkpt>
      <trkpt lat="42.342304300" lon="-2.636942900">
        <ele>1120.00</ele>
        <time>2012-10-20T11:56:59Z</time>
      </trkpt>
      <trkpt lat="42.342338900" lon="-2.636955700">
        <ele>1120.00</ele>
        <time>2012-10-20T11:57:01Z</time>
      </trkpt>
      <trkpt lat="42.342409600" lon="-2.636995100">
        <ele>1120.00</ele>
        <time>2012-10-20T11:57:02Z</time>
      </trkpt>
      <trkpt lat="42.342490900" lon="-2.637036500">
        <ele>1119.20</ele>
        <time>2012-10-20T11:57:04Z</time>
      </trkpt>
      <trkpt lat="42.342534300" lon="-2.637053400">
        <ele>1118.80</ele>
        <time>2012-10-20T11:57:06Z</time>
      </trkpt>
      <trkpt lat="42.342582700" lon="-2.637072800">
        <ele>1118.40</ele>
        <time>2012-10-20T11:57:06Z</time>
      </trkpt>
      <trkpt lat="42.342639500" lon="-2.637087500">
        <ele>1118.00</ele>
        <time>2012-10-20T11:57:08Z</time>
      </trkpt>
      <trkpt lat="42.342777200" lon="-2.637096900">
        <ele>1117.40</ele>
        <time>2012-10-20T11:57:09Z</time>
      </trkpt>
      <trkpt lat="42.342848400" lon="-2.637105100">
        <ele>1117.00</ele>
        <time>2012-10-20T11:57:09Z</time>
      </trkpt>
      <trkpt lat="42.342910100" lon="-2.637110200">
        <ele>1116.40</ele>
        <time>2012-10-20T11:57:11Z</time>
      </trkpt>
      <trkpt lat="42.342976800" lon="-2.637125900">
        <ele>1116.00</ele>
        <time>2012-10-20T11:57:11Z</time>
      </trkpt>
      <trkpt lat="42.343035600" lon="-2.637154400">
        <ele>1115.20</ele>
        <time>2012-10-20T11:57:13Z</time>
      </trkpt>
      <trkpt lat="42.343094600" lon="-2.637177700">
        <ele>1114.60</ele>
        <time>2012-10-20T11:57:13Z</time>
      </trkpt>
      <trkpt lat="42.343164200" lon="-2.637199300">
        <ele>1114.00</ele>
        <time>2012-10-20T11:57:15Z</time>
      </trkpt>
      <trkpt lat="42.343217300" lon="-2.637229800">
        <ele>1113.40</ele>
        <time>2012-10-20T11:57:16Z</time>
      </trkpt>
      <trkpt lat="42.343285500" lon="-2.637259400">
        <ele>1112.80</ele>
        <time>2012-10-20T11:57:16Z</time>
      </trkpt>
      <trkpt lat="42.343358800" lon="-2.637280800">
        <ele>1112.00</ele>
        <time>2012-10-20T11:57:18Z</time>
      </trkpt>
      <trkpt lat="42.343434800" lon="-2.637298300">
        <ele>1111.20</ele>
        <time>2012-10-20T11:57:18Z</time>
      </trkpt>
      <trkpt lat="42.343516500" lon="-2.637307900">
        <ele>1110.40</ele>
        <time>2012-10-20T11:57:20Z</time>
      </trkpt>
      <trkpt lat="42.343595000" lon="-2.637307200">
        <ele>1109.60</ele>
        <time>2012-10-20T11:57:20Z</time>
      </trkpt>
      <trkpt lat="42.343745300" lon="-2.637290800">
        <ele>1108.80</ele>
        <time>2012-10-20T11:57:23Z</time>
      </trkpt>
      <trkpt lat="42.343813000" lon="-2.637278500">
        <ele>1108.00</ele>
        <time>2012-10-20T11:57:23Z</time>
      </trkpt>
      <trkpt lat="42.343884500" lon="-2.637264900">
        <ele>1107.20</ele>
        <time>2012-10-20T11:57:25Z</time>
      </trkpt>
      <trkpt lat="42.343957300" lon="-2.637250200">
        <ele>1106.60</ele>
        <time>2012-10-20T11:57:25Z</time>
      </trkpt>
      <trkpt lat="42.344027000" lon="-2.637238100">
        <ele>1105.80</ele>
        <time>2012-10-20T11:57:27Z</time>
      </trkpt>
      <trkpt lat="42.344105600" lon="-2.637233600">
        <ele>1105.20</ele>
        <time>2012-10-20T11:57:27Z</time>
      </trkpt>
      <trkpt lat="42.344176800" lon="-2.637228300">
        <ele>1104.40</ele>
        <time>2012-10-20T11:57:29Z</time>
      </trkpt>
      <trkpt lat="42.344253700" lon="-2.637218200">
        <ele>1103.60</ele>
        <time>2012-10-20T11:57:30Z</time>
      </trkpt>
      <trkpt lat="42.344320100" lon="-2.637201800">
        <ele>1103.00</ele>
        <time>2012-10-20T11:57:30Z</time>
      </trkpt>
      <trkpt lat="42.344392300" lon="-2.637185300">
        <ele>1102.20</ele>
        <time>2012-10-20T11:57:32Z</time>
      </trkpt>
      <trkpt lat="42.344464800" lon="-2.637165700">
        <ele>1101.40</ele>
        <time>2012-10-20T11:57:32Z</time>
      </trkpt>
      <trkpt lat="42.344529800" lon="-2.637140000">
        <ele>1100.60</ele>
        <time>2012-10-20T11:57:34Z</time>
      </trkpt>
      <trkpt lat="42.344594000" lon="-2.637111800">
        <ele>1099.80</ele>
        <time>2012-10-20T11:57:34Z</time>
      </trkpt>
      <trkpt lat="42.344651100" lon="-2.637072100">
        <ele>1099.00</ele>
        <time>2012-10-20T11:57:36Z</time>
      </trkpt>
      <trkpt lat="42.344696100" lon="-2.637024900">
        <ele>1098.20</ele>
        <time>2012-10-20T11:57:37Z</time>
      </trkpt>
      <trkpt lat="42.344785800" lon="-2.636862000">
        <ele>1098.20</ele>
        <time>2012-10-20T11:57:39Z</time>
      </trkpt>
      <trkpt lat="42.344970900" lon="-2.636563300">
        <ele>1098.20</ele>
        <time>2012-10-20T11:57:46Z</time>
      </trkpt>
      <trkpt lat="42.345005500" lon="-2.636515500">
        <ele>1097.80</ele>
        <time>2012-10-20T11:57:46Z</time>
      </trkpt>
      <trkpt lat="42.345071100" lon="-2.636423600">
        <ele>1097.00</ele>
        <time>2012-10-20T11:57:48Z</time>
      </trkpt>
      <trkpt lat="42.345095600" lon="-2.636384500">
        <ele>1096.60</ele>
        <time>2012-10-20T11:57:49Z</time>
      </trkpt>
      <trkpt lat="42.345116900" lon="-2.636341700">
        <ele>1096.20</ele>
        <time>2012-10-20T11:57:51Z</time>
      </trkpt>
      <trkpt lat="42.345215200" lon="-2.636196600">
        <ele>1096.20</ele>
        <time>2012-10-20T11:57:55Z</time>
      </trkpt>
      <trkpt lat="42.345252000" lon="-2.636123700">
        <ele>1096.20</ele>
        <time>2012-10-20T11:57:56Z</time>
      </trkpt>
      <trkpt lat="42.345269900" lon="-2.636003900">
        <ele>1096.20</ele>
        <time>2012-10-20T11:58:00Z</time>
      </trkpt>
      <trkpt lat="42.345276300" lon="-2.635947400">
        <ele>1096.20</ele>
        <time>2012-10-20T11:58:00Z</time>
      </trkpt>
      <trkpt lat="42.345314100" lon="-2.635723700">
        <ele>1096.20</ele>
        <time>2012-10-20T11:58:03Z</time>
      </trkpt>
      <trkpt lat="42.345352300" lon="-2.635582800">
        <ele>1096.20</ele>
        <time>2012-10-20T11:58:05Z</time>
      </trkpt>
      <trkpt lat="42.345396400" lon="-2.635468300">
        <ele>1096.20</ele>
        <time>2012-10-20T11:58:07Z</time>
      </trkpt>
      <trkpt lat="42.345443600" lon="-2.635301900">
        <ele>1096.20</ele>
        <time>2012-10-20T11:58:10Z</time>
      </trkpt>
      <trkpt lat="42.345485000" lon="-2.635186700">
        <ele>1096.20</ele>
        <time>2012-10-20T11:58:12Z</time>
      </trkpt>
      <trkpt lat="42.345553400" lon="-2.634985100">
        <ele>1096.20</ele>
        <time>2012-10-20T11:58:16Z</time>
      </trkpt>
      <trkpt lat="42.345617600" lon="-2.634830100">
        <ele>1096.20</ele>
        <time>2012-10-20T11:58:17Z</time>
      </trkpt>
      <trkpt lat="42.345701700" lon="-2.634556900">
        <ele>1096.20</ele>
        <time>2012-10-20T11:58:21Z</time>
      </trkpt>
      <trkpt lat="42.345725400" lon="-2.634496000">
        <ele>1096.20</ele>
        <time>2012-10-20T11:58:23Z</time>
      </trkpt>
      <trkpt lat="42.345790900" lon="-2.634365500">
        <ele>1095.80</ele>
        <time>2012-10-20T11:58:24Z</time>
      </trkpt>
      <trkpt lat="42.345829000" lon="-2.634287700">
        <ele>1095.40</ele>
        <time>2012-10-20T11:58:26Z</time>
      </trkpt>
      <trkpt lat="42.345865600" lon="-2.634205000">
        <ele>1095.00</ele>
        <time>2012-10-20T11:58:26Z</time>
      </trkpt>
      <trkpt lat="42.345927600" lon="-2.634037000">
        <ele>1094.20</ele>
        <time>2012-10-20T11:58:28Z</time>
      </trkpt>
      <trkpt lat="42.345986500" lon="-2.633878300">
        <ele>1093.80</ele>
        <time>2012-10-20T11:58:31Z</time>
      </trkpt>
      <trkpt lat="42.346013400" lon="-2.633807100">
        <ele>1093.20</ele>
        <time>2012-10-20T11:58:31Z</time>
      </trkpt>
      <trkpt lat="42.346069400" lon="-2.633650700">
        <ele>1092.40</ele>
        <time>2012-10-20T11:58:33Z</time>
      </trkpt>
      <trkpt lat="42.346096700" lon="-2.633576700">
        <ele>1092.00</ele>
        <time>2012-10-20T11:58:35Z</time>
      </trkpt>
      <trkpt lat="42.346126500" lon="-2.633500100">
        <ele>1092.00</ele>
        <time>2012-10-20T11:58:35Z</time>
      </trkpt>
      <trkpt lat="42.346273000" lon="-2.633106100">
        <ele>1092.00</ele>
        <time>2012-10-20T11:58:40Z</time>
      </trkpt>
      <trkpt lat="42.346305000" lon="-2.633025800">
        <ele>1091.60</ele>
        <time>2012-10-20T11:58:42Z</time>
      </trkpt>
      <trkpt lat="42.346334700" lon="-2.632945000">
        <ele>1091.00</ele>
        <time>2012-10-20T11:58:42Z</time>
      </trkpt>
      <trkpt lat="42.346370100" lon="-2.632863100">
        <ele>1090.60</ele>
        <time>2012-10-20T11:58:43Z</time>
      </trkpt>
      <trkpt lat="42.346404200" lon="-2.632794800">
        <ele>1090.20</ele>
        <time>2012-10-20T11:58:45Z</time>
      </trkpt>
      <trkpt lat="42.346440200" lon="-2.632733000">
        <ele>1089.60</ele>
        <time>2012-10-20T11:58:45Z</time>
      </trkpt>
      <trkpt lat="42.346473100" lon="-2.632681400">
        <ele>1089.60</ele>
        <time>2012-10-20T11:58:47Z</time>
      </trkpt>
      <trkpt lat="42.346582000" lon="-2.632500600">
        <ele>1089.60</ele>
        <time>2012-10-20T11:58:50Z</time>
      </trkpt>
      <trkpt lat="42.346613500" lon="-2.632452000">
        <ele>1089.60</ele>
        <time>2012-10-20T11:58:52Z</time>
      </trkpt>
      <trkpt lat="42.346744800" lon="-2.632215700">
        <ele>1089.60</ele>
        <time>2012-10-20T11:58:56Z</time>
      </trkpt>
      <trkpt lat="42.346776200" lon="-2.632151400">
        <ele>1089.60</ele>
        <time>2012-10-20T11:58:57Z</time>
      </trkpt>
      <trkpt lat="42.347009100" lon="-2.631698300">
        <ele>1089.60</ele>
        <time>2012-10-20T11:59:04Z</time>
      </trkpt>
      <trkpt lat="42.347231100" lon="-2.631342200">
        <ele>1089.60</ele>
        <time>2012-10-20T11:59:10Z</time>
      </trkpt>
      <trkpt lat="42.347457400" lon="-2.631061100">
        <ele>1089.60</ele>
        <time>2012-10-20T11:59:15Z</time>
      </trkpt>
      <trkpt lat="42.347496400" lon="-2.631020100">
        <ele>1089.60</ele>
        <time>2012-10-20T11:59:15Z</time>
      </trkpt>
      <trkpt lat="42.347641800" lon="-2.630935600">
        <ele>1089.60</ele>
        <time>2012-10-20T11:59:18Z</time>
      </trkpt>
      <trkpt lat="42.347699400" lon="-2.630925900">
        <ele>1089.20</ele>
        <time>2012-10-20T11:59:20Z</time>
      </trkpt>
      <trkpt lat="42.347804500" lon="-2.630914300">
        <ele>1088.40</ele>
        <time>2012-10-20T11:59:22Z</time>
      </trkpt>
      <trkpt lat="42.347841800" lon="-2.630902700">
        <ele>1088.00</ele>
        <time>2012-10-20T11:59:22Z</time>
      </trkpt>
      <trkpt lat="42.347872600" lon="-2.630887000">
        <ele>1087.60</ele>
        <time>2012-10-20T11:59:24Z</time>
      </trkpt>
      <trkpt lat="42.347894800" lon="-2.630854000">
        <ele>1087.20</ele>
        <time>2012-10-20T11:59:25Z</time>
      </trkpt>
      <trkpt lat="42.347899500" lon="-2.630835000">
        <ele>1086.60</ele>
        <time>2012-10-20T11:59:27Z</time>
      </trkpt>
      <trkpt lat="42.347905300" lon="-2.630816000">
        <ele>1086.20</ele>
        <time>2012-10-20T11:59:27Z</time>
      </trkpt>
      <trkpt lat="42.347907700" lon="-2.630802400">
        <ele>1085.80</ele>
        <time>2012-10-20T11:59:29Z</time>
      </trkpt>
      <trkpt lat="42.347910800" lon="-2.630795300">
        <ele>1085.20</ele>
        <time>2012-10-20T11:59:29Z</time>
      </trkpt>
      <trkpt lat="42.347910500" lon="-2.630790800">
        <ele>1085.20</ele>
        <time>2012-10-20T11:59:30Z</time>
      </trkpt>
      <trkpt lat="42.347905200" lon="-2.630792200">
        <ele>1085.20</ele>
        <time>2012-10-20T11:59:32Z</time>
      </trkpt>
      <trkpt lat="42.347880300" lon="-2.630768600">
        <ele>1085.20</ele>
        <time>2012-10-20T11:59:46Z</time>
      </trkpt>
      <trkpt lat="42.347880800" lon="-2.630582900">
        <ele>1085.20</ele>
        <time>2012-10-20T11:59:50Z</time>
      </trkpt>
      <trkpt lat="42.347878700" lon="-2.630544200">
        <ele>1084.80</ele>
        <time>2012-10-20T11:59:51Z</time>
      </trkpt>
      <trkpt lat="42.347876200" lon="-2.630512200">
        <ele>1084.40</ele>
        <time>2012-10-20T11:59:53Z</time>
      </trkpt>
      <trkpt lat="42.347872500" lon="-2.630485400">
        <ele>1083.80</ele>
        <time>2012-10-20T11:59:53Z</time>
      </trkpt>
      <trkpt lat="42.347868900" lon="-2.630465500">
        <ele>1083.40</ele>
        <time>2012-10-20T11:59:55Z</time>
      </trkpt>
      <trkpt lat="42.347864500" lon="-2.630443600">
        <ele>1083.00</ele>
        <time>2012-10-20T11:59:55Z</time>
      </trkpt>
      <trkpt lat="42.347864500" lon="-2.630422600">
        <ele>1083.00</ele>
        <time>2012-10-20T11:59:57Z</time>
      </trkpt>
      <trkpt lat="42.347848300" lon="-2.630394300">
        <ele>1082.60</ele>
        <time>2012-10-20T11:59:58Z</time>
      </trkpt>
      <trkpt lat="42.347832700" lon="-2.630363900">
        <ele>1082.00</ele>
        <time>2012-10-20T11:59:58Z</time>
      </trkpt>
      <trkpt lat="42.347808400" lon="-2.630324400">
        <ele>1081.60</ele>
        <time>2012-10-20T12:00:00Z</time>
      </trkpt>
      <trkpt lat="42.347782200" lon="-2.630268800">
        <ele>1081.20</ele>
        <time>2012-10-20T12:00:00Z</time>
      </trkpt>
      <trkpt lat="42.347757500" lon="-2.630222200">
        <ele>1080.80</ele>
        <time>2012-10-20T12:00:02Z</time>
      </trkpt>
      <trkpt lat="42.347717500" lon="-2.630145900">
        <ele>1080.80</ele>
        <time>2012-10-20T12:00:04Z</time>
      </trkpt>
      <trkpt lat="42.347711300" lon="-2.630125500">
        <ele>1080.80</ele>
        <time>2012-10-20T12:00:05Z</time>
      </trkpt>
      <trkpt lat="42.347689000" lon="-2.630022200">
        <ele>1080.80</ele>
        <time>2012-10-20T12:00:07Z</time>
      </trkpt>
      <trkpt lat="42.347623600" lon="-2.629847100">
        <ele>1080.80</ele>
        <time>2012-10-20T12:00:12Z</time>
      </trkpt>
      <trkpt lat="42.347622900" lon="-2.629819800">
        <ele>1080.80</ele>
        <time>2012-10-20T12:00:12Z</time>
      </trkpt>
      <trkpt lat="42.347579300" lon="-2.629683100">
        <ele>1080.80</ele>
        <time>2012-10-20T12:00:16Z</time>
      </trkpt>
      <trkpt lat="42.347571400" lon="-2.629643900">
        <ele>1080.80</ele>
        <time>2012-10-20T12:00:18Z</time>
      </trkpt>
      <trkpt lat="42.347539000" lon="-2.629516600">
        <ele>1080.80</ele>
        <time>2012-10-20T12:00:21Z</time>
      </trkpt>
      <trkpt lat="42.347490600" lon="-2.629395600">
        <ele>1081.20</ele>
        <time>2012-10-20T12:00:26Z</time>
      </trkpt>
      <trkpt lat="42.347488300" lon="-2.629365700">
        <ele>1081.80</ele>
        <time>2012-10-20T12:00:26Z</time>
      </trkpt>
      <trkpt lat="42.347485600" lon="-2.629343600">
        <ele>1082.20</ele>
        <time>2012-10-20T12:00:28Z</time>
      </trkpt>
      <trkpt lat="42.347486600" lon="-2.629322700">
        <ele>1082.80</ele>
        <time>2012-10-20T12:00:28Z</time>
      </trkpt>
      <trkpt lat="42.347487200" lon="-2.629312500">
        <ele>1083.20</ele>
        <time>2012-10-20T12:00:30Z</time>
      </trkpt>
      <trkpt lat="42.347493500" lon="-2.629296100">
        <ele>1083.20</ele>
        <time>2012-10-20T12:00:30Z</time>
      </trkpt>
      <trkpt lat="42.347465400" lon="-2.629144900">
        <ele>1083.20</ele>
        <time>2012-10-20T12:00:33Z</time>
      </trkpt>
      <trkpt lat="42.347449800" lon="-2.629083100">
        <ele>1083.20</ele>
        <time>2012-10-20T12:00:35Z</time>
      </trkpt>
      <trkpt lat="42.347422600" lon="-2.628993800">
        <ele>1083.20</ele>
        <time>2012-10-20T12:00:37Z</time>
      </trkpt>
      <trkpt lat="42.347403200" lon="-2.628950300">
        <ele>1083.20</ele>
        <time>2012-10-20T12:00:38Z</time>
      </trkpt>
      <trkpt lat="42.347380800" lon="-2.628861800">
        <ele>1083.20</ele>
        <time>2012-10-20T12:00:42Z</time>
      </trkpt>
      <trkpt lat="42.347372100" lon="-2.628812300">
        <ele>1083.20</ele>
        <time>2012-10-20T12:00:42Z</time>
      </trkpt>
      <trkpt lat="42.347361700" lon="-2.628764700">
        <ele>1083.20</ele>
        <time>2012-10-20T12:00:44Z</time>
      </trkpt>
      <trkpt lat="42.347270000" lon="-2.628595500">
        <ele>1083.20</ele>
        <time>2012-10-20T12:00:47Z</time>
      </trkpt>
      <trkpt lat="42.347213000" lon="-2.628456100">
        <ele>1083.80</ele>
        <time>2012-10-20T12:00:49Z</time>
      </trkpt>
      <trkpt lat="42.347184700" lon="-2.628359500">
        <ele>1084.20</ele>
        <time>2012-10-20T12:00:51Z</time>
      </trkpt>
      <trkpt lat="42.347158500" lon="-2.628252400">
        <ele>1084.60</ele>
        <time>2012-10-20T12:00:52Z</time>
      </trkpt>
      <trkpt lat="42.347143500" lon="-2.628176000">
        <ele>1085.00</ele>
        <time>2012-10-20T12:00:52Z</time>
      </trkpt>
      <trkpt lat="42.347133900" lon="-2.628132700">
        <ele>1085.40</ele>
        <time>2012-10-20T12:00:54Z</time>
      </trkpt>
      <trkpt lat="42.347093200" lon="-2.628033300">
        <ele>1085.40</ele>
        <time>2012-10-20T12:00:56Z</time>
      </trkpt>
      <trkpt lat="42.347075300" lon="-2.627926800">
        <ele>1085.40</ele>
        <time>2012-10-20T12:00:59Z</time>
      </trkpt>
      <trkpt lat="42.347032200" lon="-2.627821900">
        <ele>1085.40</ele>
        <time>2012-10-20T12:01:01Z</time>
      </trkpt>
      <trkpt lat="42.346966500" lon="-2.627733000">
        <ele>1085.40</ele>
        <time>2012-10-20T12:01:03Z</time>
      </trkpt>
      <trkpt lat="42.346945400" lon="-2.627636500">
        <ele>1085.40</ele>
        <time>2012-10-20T12:01:05Z</time>
      </trkpt>
      <trkpt lat="42.346936100" lon="-2.627584300">
        <ele>1085.40</ele>
        <time>2012-10-20T12:01:06Z</time>
      </trkpt>
      <trkpt lat="42.346912000" lon="-2.627356700">
        <ele>1085.40</ele>
        <time>2012-10-20T12:01:10Z</time>
      </trkpt>
      <trkpt lat="42.346910200" lon="-2.627323300">
        <ele>1085.40</ele>
        <time>2012-10-20T12:01:10Z</time>
      </trkpt>
      <trkpt lat="42.346895100" lon="-2.627284500">
        <ele>1085.40</ele>
        <time>2012-10-20T12:01:13Z</time>
      </trkpt>
      <trkpt lat="42.346872600" lon="-2.627173800">
        <ele>1085.40</ele>
        <time>2012-10-20T12:01:15Z</time>
      </trkpt>
      <trkpt lat="42.346788600" lon="-2.626977600">
        <ele>1085.40</ele>
        <time>2012-10-20T12:01:20Z</time>
      </trkpt>
      <trkpt lat="42.346632000" lon="-2.626767000">
        <ele>1085.40</ele>
        <time>2012-10-20T12:01:24Z</time>
      </trkpt>
      <trkpt lat="42.346609300" lon="-2.626622700">
        <ele>1085.40</ele>
        <time>2012-10-20T12:01:27Z</time>
      </trkpt>
      <trkpt lat="42.346575900" lon="-2.626474600">
        <ele>1085.40</ele>
        <time>2012-10-20T12:01:31Z</time>
      </trkpt>
      <trkpt lat="42.346585500" lon="-2.626388600">
        <ele>1085.40</ele>
        <time>2012-10-20T12:01:32Z</time>
      </trkpt>
      <trkpt lat="42.346671400" lon="-2.626101800">
        <ele>1085.40</ele>
        <time>2012-10-20T12:01:36Z</time>
      </trkpt>
      <trkpt lat="42.346769600" lon="-2.625823600">
        <ele>1085.40</ele>
        <time>2012-10-20T12:01:41Z</time>
      </trkpt>
      <trkpt lat="42.346806900" lon="-2.625686500">
        <ele>1085.40</ele>
        <time>2012-10-20T12:01:43Z</time>
      </trkpt>
      <trkpt lat="42.346826700" lon="-2.625550300">
        <ele>1085.40</ele>
        <time>2012-10-20T12:01:45Z</time>
      </trkpt>
      <trkpt lat="42.346751800" lon="-2.625227500">
        <ele>1085.40</ele>
        <time>2012-10-20T12:01:50Z</time>
      </trkpt>
      <trkpt lat="42.346757700" lon="-2.625184200">
        <ele>1085.80</ele>
        <time>2012-10-20T12:01:50Z</time>
      </trkpt>
      <trkpt lat="42.346764100" lon="-2.625145500">
        <ele>1086.20</ele>
        <time>2012-10-20T12:01:52Z</time>
      </trkpt>
      <trkpt lat="42.346770300" lon="-2.625102200">
        <ele>1086.60</ele>
        <time>2012-10-20T12:01:53Z</time>
      </trkpt>
      <trkpt lat="42.346779700" lon="-2.625066900">
        <ele>1087.00</ele>
        <time>2012-10-20T12:01:53Z</time>
      </trkpt>
      <trkpt lat="42.346790900" lon="-2.625030000">
        <ele>1087.40</ele>
        <time>2012-10-20T12:01:55Z</time>
      </trkpt>
      <trkpt lat="42.346796700" lon="-2.624959500">
        <ele>1087.40</ele>
        <time>2012-10-20T12:01:57Z</time>
      </trkpt>
      <trkpt lat="42.346796400" lon="-2.624885300">
        <ele>1087.40</ele>
        <time>2012-10-20T12:01:59Z</time>
      </trkpt>
      <trkpt lat="42.346832800" lon="-2.624718200">
        <ele>1088.00</ele>
        <time>2012-10-20T12:02:04Z</time>
      </trkpt>
      <trkpt lat="42.346851900" lon="-2.624673300">
        <ele>1088.40</ele>
        <time>2012-10-20T12:02:04Z</time>
      </trkpt>
      <trkpt lat="42.346872300" lon="-2.624631300">
        <ele>1088.80</ele>
        <time>2012-10-20T12:02:05Z</time>
      </trkpt>
      <trkpt lat="42.346894500" lon="-2.624588800">
        <ele>1089.40</ele>
        <time>2012-10-20T12:02:07Z</time>
      </trkpt>
      <trkpt lat="42.346917700" lon="-2.624551300">
        <ele>1089.80</ele>
        <time>2012-10-20T12:02:07Z</time>
      </trkpt>
      <trkpt lat="42.346959800" lon="-2.624497100">
        <ele>1089.80</ele>
        <time>2012-10-20T12:02:09Z</time>
      </trkpt>
      <trkpt lat="42.347042700" lon="-2.624425200">
        <ele>1089.80</ele>
        <time>2012-10-20T12:02:14Z</time>
      </trkpt>
      <trkpt lat="42.347101200" lon="-2.624366700">
        <ele>1089.80</ele>
        <time>2012-10-20T12:02:19Z</time>
      </trkpt>
      <trkpt lat="42.347118200" lon="-2.624346800">
        <ele>1090.20</ele>
        <time>2012-10-20T12:02:21Z</time>
      </trkpt>
      <trkpt lat="42.347137800" lon="-2.624320500">
        <ele>1090.80</ele>
        <time>2012-10-20T12:02:21Z</time>
      </trkpt>
      <trkpt lat="42.347157400" lon="-2.624299100">
        <ele>1091.20</ele>
        <time>2012-10-20T12:02:23Z</time>
      </trkpt>
      <trkpt lat="42.347164400" lon="-2.624282700">
        <ele>1091.60</ele>
        <time>2012-10-20T12:02:23Z</time>
      </trkpt>
      <trkpt lat="42.347182600" lon="-2.624272500">
        <ele>1092.00</ele>
        <time>2012-10-20T12:02:25Z</time>
      </trkpt>
      <trkpt lat="42.347247800" lon="-2.624219800">
        <ele>1092.00</ele>
        <time>2012-10-20T12:02:28Z</time>
      </trkpt>
      <trkpt lat="42.347340000" lon="-2.624120000">
        <ele>1091.00</ele>
        <time>2012-10-20T12:02:33Z</time>
      </trkpt>
      <trkpt lat="42.347349900" lon="-2.624101600">
        <ele>1089.80</ele>
        <time>2012-10-20T12:02:33Z</time>
      </trkpt>
      <trkpt lat="42.347368200" lon="-2.624087700">
        <ele>1088.60</ele>
        <time>2012-10-20T12:02:35Z</time>
      </trkpt>
      <trkpt lat="42.347387700" lon="-2.624072900">
        <ele>1089.80</ele>
        <time>2012-10-20T12:02:35Z</time>
      </trkpt>
      <trkpt lat="42.347405500" lon="-2.624063300">
        <ele>1091.00</ele>
        <time>2012-10-20T12:02:37Z</time>
      </trkpt>
      <trkpt lat="42.347426100" lon="-2.624050400">
        <ele>1092.20</ele>
        <time>2012-10-20T12:02:37Z</time>
      </trkpt>
      <trkpt lat="42.347443400" lon="-2.624041600">
        <ele>1093.60</ele>
        <time>2012-10-20T12:02:39Z</time>
      </trkpt>
      <trkpt lat="42.347461400" lon="-2.624028600">
        <ele>1094.80</ele>
        <time>2012-10-20T12:02:40Z</time>
      </trkpt>
      <trkpt lat="42.347505800" lon="-2.623998600">
        <ele>1094.80</ele>
        <time>2012-10-20T12:02:42Z</time>
      </trkpt>
      <trkpt lat="42.347570500" lon="-2.623947700">
        <ele>1094.80</ele>
        <time>2012-10-20T12:02:44Z</time>
      </trkpt>
      <trkpt lat="42.347607300" lon="-2.623923100">
        <ele>1094.80</ele>
        <time>2012-10-20T12:02:47Z</time>
      </trkpt>
      <trkpt lat="42.347678700" lon="-2.623865600">
        <ele>1094.80</ele>
        <time>2012-10-20T12:02:51Z</time>
      </trkpt>
      <trkpt lat="42.347750000" lon="-2.623790300">
        <ele>1094.80</ele>
        <time>2012-10-20T12:02:56Z</time>
      </trkpt>
      <trkpt lat="42.347759100" lon="-2.623773300">
        <ele>1094.80</ele>
        <time>2012-10-20T12:02:58Z</time>
      </trkpt>
      <trkpt lat="42.347767700" lon="-2.623758700">
        <ele>1095.20</ele>
        <time>2012-10-20T12:02:58Z</time>
      </trkpt>
      <trkpt lat="42.347769900" lon="-2.623739500">
        <ele>1095.60</ele>
        <time>2012-10-20T12:02:59Z</time>
      </trkpt>
      <trkpt lat="42.347776600" lon="-2.623722000">
        <ele>1096.00</ele>
        <time>2012-10-20T12:03:01Z</time>
      </trkpt>
      <trkpt lat="42.347790100" lon="-2.623708700">
        <ele>1096.60</ele>
        <time>2012-10-20T12:03:01Z</time>
      </trkpt>
      <trkpt lat="42.347809100" lon="-2.623695500">
        <ele>1097.00</ele>
        <time>2012-10-20T12:03:03Z</time>
      </trkpt>
      <trkpt lat="42.347946300" lon="-2.623625100">
        <ele>1097.00</ele>
        <time>2012-10-20T12:03:08Z</time>
      </trkpt>
      <trkpt lat="42.347984600" lon="-2.623583500">
        <ele>1097.00</ele>
        <time>2012-10-20T12:03:10Z</time>
      </trkpt>
      <trkpt lat="42.348017200" lon="-2.623540400">
        <ele>1097.00</ele>
        <time>2012-10-20T12:03:12Z</time>
      </trkpt>
      <trkpt lat="42.348182100" lon="-2.623458600">
        <ele>1097.00</ele>
        <time>2012-10-20T12:03:17Z</time>
      </trkpt>
      <trkpt lat="42.348231400" lon="-2.623451300">
        <ele>1097.40</ele>
        <time>2012-10-20T12:03:19Z</time>
      </trkpt>
      <trkpt lat="42.348256000" lon="-2.623439600">
        <ele>1097.80</ele>
        <time>2012-10-20T12:03:20Z</time>
      </trkpt>
      <trkpt lat="42.348279000" lon="-2.623431800">
        <ele>1098.20</ele>
        <time>2012-10-20T12:03:22Z</time>
      </trkpt>
      <trkpt lat="42.348303400" lon="-2.623423900">
        <ele>1098.60</ele>
        <time>2012-10-20T12:03:22Z</time>
      </trkpt>
      <trkpt lat="42.348329200" lon="-2.623418400">
        <ele>1099.00</ele>
        <time>2012-10-20T12:03:24Z</time>
      </trkpt>
      <trkpt lat="42.348401700" lon="-2.623405900">
        <ele>1099.00</ele>
        <time>2012-10-20T12:03:27Z</time>
      </trkpt>
      <trkpt lat="42.348483500" lon="-2.623417300">
        <ele>1099.00</ele>
        <time>2012-10-20T12:03:33Z</time>
      </trkpt>
      <trkpt lat="42.348494200" lon="-2.623420400">
        <ele>1099.00</ele>
        <time>2012-10-20T12:03:34Z</time>
      </trkpt>
      <trkpt lat="42.348504000" lon="-2.623420000">
        <ele>1099.00</ele>
        <time>2012-10-20T12:03:34Z</time>
      </trkpt>
      <trkpt lat="42.348563400" lon="-2.623422500">
        <ele>1099.40</ele>
        <time>2012-10-20T12:03:38Z</time>
      </trkpt>
      <trkpt lat="42.348593300" lon="-2.623420200">
        <ele>1099.80</ele>
        <time>2012-10-20T12:03:38Z</time>
      </trkpt>
      <trkpt lat="42.348658200" lon="-2.623412700">
        <ele>1100.60</ele>
        <time>2012-10-20T12:03:41Z</time>
      </trkpt>
      <trkpt lat="42.348687900" lon="-2.623410700">
        <ele>1101.00</ele>
        <time>2012-10-20T12:03:41Z</time>
      </trkpt>
      <trkpt lat="42.348865700" lon="-2.623425100">
        <ele>1101.00</ele>
        <time>2012-10-20T12:03:50Z</time>
      </trkpt>
      <trkpt lat="42.348950500" lon="-2.623420300">
        <ele>1101.00</ele>
        <time>2012-10-20T12:03:55Z</time>
      </trkpt>
      <trkpt lat="42.348973300" lon="-2.623423500">
        <ele>1101.40</ele>
        <time>2012-10-20T12:03:55Z</time>
      </trkpt>
      <trkpt lat="42.348997500" lon="-2.623423400">
        <ele>1101.80</ele>
        <time>2012-10-20T12:03:57Z</time>
      </trkpt>
      <trkpt lat="42.349022500" lon="-2.623425100">
        <ele>1102.20</ele>
        <time>2012-10-20T12:03:57Z</time>
      </trkpt>
      <trkpt lat="42.349041700" lon="-2.623427300">
        <ele>1102.60</ele>
        <time>2012-10-20T12:03:59Z</time>
      </trkpt>
      <trkpt lat="42.349058100" lon="-2.623432900">
        <ele>1103.20</ele>
        <time>2012-10-20T12:03:59Z</time>
      </trkpt>
      <trkpt lat="42.349114700" lon="-2.623446800">
        <ele>1103.20</ele>
        <time>2012-10-20T12:04:04Z</time>
      </trkpt>
      <trkpt lat="42.349150000" lon="-2.623465000">
        <ele>1103.20</ele>
        <time>2012-10-20T12:04:06Z</time>
      </trkpt>
      <trkpt lat="42.349206000" lon="-2.623492100">
        <ele>1103.60</ele>
        <time>2012-10-20T12:04:09Z</time>
      </trkpt>
      <trkpt lat="42.349222300" lon="-2.623501200">
        <ele>1104.00</ele>
        <time>2012-10-20T12:04:09Z</time>
      </trkpt>
      <trkpt lat="42.349238800" lon="-2.623508700">
        <ele>1104.60</ele>
        <time>2012-10-20T12:04:11Z</time>
      </trkpt>
      <trkpt lat="42.349254600" lon="-2.623515000">
        <ele>1105.00</ele>
        <time>2012-10-20T12:04:11Z</time>
      </trkpt>
      <trkpt lat="42.349269700" lon="-2.623519900">
        <ele>1105.60</ele>
        <time>2012-10-20T12:04:13Z</time>
      </trkpt>
      <trkpt lat="42.349354000" lon="-2.623575700">
        <ele>1105.60</ele>
        <time>2012-10-20T12:04:20Z</time>
      </trkpt>
      <trkpt lat="42.349364900" lon="-2.623586000">
        <ele>1106.00</ele>
        <time>2012-10-20T12:04:21Z</time>
      </trkpt>
      <trkpt lat="42.349376000" lon="-2.623594000">
        <ele>1106.40</ele>
        <time>2012-10-20T12:04:21Z</time>
      </trkpt>
      <trkpt lat="42.349405000" lon="-2.623610500">
        <ele>1107.20</ele>
        <time>2012-10-20T12:04:23Z</time>
      </trkpt>
      <trkpt lat="42.349419300" lon="-2.623616100">
        <ele>1107.60</ele>
        <time>2012-10-20T12:04:25Z</time>
      </trkpt>
      <trkpt lat="42.349450100" lon="-2.623627400">
        <ele>1107.60</ele>
        <time>2012-10-20T12:04:27Z</time>
      </trkpt>
      <trkpt lat="42.349597500" lon="-2.623711900">
        <ele>1108.20</ele>
        <time>2012-10-20T12:04:35Z</time>
      </trkpt>
      <trkpt lat="42.349648500" lon="-2.623745000">
        <ele>1109.00</ele>
        <time>2012-10-20T12:04:37Z</time>
      </trkpt>
      <trkpt lat="42.349672800" lon="-2.623763100">
        <ele>1109.40</ele>
        <time>2012-10-20T12:04:39Z</time>
      </trkpt>
      <trkpt lat="42.349693300" lon="-2.623778300">
        <ele>1109.80</ele>
        <time>2012-10-20T12:04:39Z</time>
      </trkpt>
      <trkpt lat="42.349792000" lon="-2.623893200">
        <ele>1109.80</ele>
        <time>2012-10-20T12:04:47Z</time>
      </trkpt>
      <trkpt lat="42.349850000" lon="-2.623935300">
        <ele>1109.80</ele>
        <time>2012-10-20T12:04:53Z</time>
      </trkpt>
      <trkpt lat="42.349862200" lon="-2.623941500">
        <ele>1110.20</ele>
        <time>2012-10-20T12:04:53Z</time>
      </trkpt>
      <trkpt lat="42.349879800" lon="-2.623948200">
        <ele>1110.60</ele>
        <time>2012-10-20T12:04:54Z</time>
      </trkpt>
      <trkpt lat="42.349900700" lon="-2.623956600">
        <ele>1111.20</ele>
        <time>2012-10-20T12:04:56Z</time>
      </trkpt>
      <trkpt lat="42.349921900" lon="-2.623960700">
        <ele>1111.60</ele>
        <time>2012-10-20T12:04:56Z</time>
      </trkpt>
      <trkpt lat="42.349944900" lon="-2.623965200">
        <ele>1112.00</ele>
        <time>2012-10-20T12:04:58Z</time>
      </trkpt>
      <trkpt lat="42.349985800" lon="-2.623974200">
        <ele>1112.00</ele>
        <time>2012-10-20T12:05:00Z</time>
      </trkpt>
      <trkpt lat="42.350042100" lon="-2.624023900">
        <ele>1112.00</ele>
        <time>2012-10-20T12:05:05Z</time>
      </trkpt>
      <trkpt lat="42.350120200" lon="-2.624077300">
        <ele>1112.60</ele>
        <time>2012-10-20T12:05:10Z</time>
      </trkpt>
      <trkpt lat="42.350146300" lon="-2.624088800">
        <ele>1113.00</ele>
        <time>2012-10-20T12:05:12Z</time>
      </trkpt>
      <trkpt lat="42.350172500" lon="-2.624102600">
        <ele>1113.40</ele>
        <time>2012-10-20T12:05:12Z</time>
      </trkpt>
      <trkpt lat="42.350195900" lon="-2.624118600">
        <ele>1114.00</ele>
        <time>2012-10-20T12:05:14Z</time>
      </trkpt>
      <trkpt lat="42.350217200" lon="-2.624133300">
        <ele>1114.40</ele>
        <time>2012-10-20T12:05:14Z</time>
      </trkpt>
      <trkpt lat="42.350269900" lon="-2.624161200">
        <ele>1114.40</ele>
        <time>2012-10-20T12:05:17Z</time>
      </trkpt>
      <trkpt lat="42.350370900" lon="-2.624231100">
        <ele>1114.40</ele>
        <time>2012-10-20T12:05:24Z</time>
      </trkpt>
      <trkpt lat="42.350440100" lon="-2.624262200">
        <ele>1114.80</ele>
        <time>2012-10-20T12:05:26Z</time>
      </trkpt>
      <trkpt lat="42.350460600" lon="-2.624270500">
        <ele>1115.40</ele>
        <time>2012-10-20T12:05:28Z</time>
      </trkpt>
      <trkpt lat="42.350479500" lon="-2.624277300">
        <ele>1115.80</ele>
        <time>2012-10-20T12:05:29Z</time>
      </trkpt>
      <trkpt lat="42.350513900" lon="-2.624286600">
        <ele>1116.60</ele>
        <time>2012-10-20T12:05:31Z</time>
      </trkpt>
      <trkpt lat="42.350622800" lon="-2.624286800">
        <ele>1116.60</ele>
        <time>2012-10-20T12:05:36Z</time>
      </trkpt>
      <trkpt lat="42.350719000" lon="-2.624289600">
        <ele>1116.60</ele>
        <time>2012-10-20T12:05:40Z</time>
      </trkpt>
      <trkpt lat="42.350738600" lon="-2.624293800">
        <ele>1116.60</ele>
        <time>2012-10-20T12:05:43Z</time>
      </trkpt>
      <trkpt lat="42.350761900" lon="-2.624287300">
        <ele>1117.00</ele>
        <time>2012-10-20T12:05:45Z</time>
      </trkpt>
      <trkpt lat="42.350778700" lon="-2.624282400">
        <ele>1117.40</ele>
        <time>2012-10-20T12:05:45Z</time>
      </trkpt>
      <trkpt lat="42.350799000" lon="-2.624278000">
        <ele>1117.80</ele>
        <time>2012-10-20T12:05:47Z</time>
      </trkpt>
      <trkpt lat="42.350820500" lon="-2.624273500">
        <ele>1118.40</ele>
        <time>2012-10-20T12:05:47Z</time>
      </trkpt>
      <trkpt lat="42.350843900" lon="-2.624275900">
        <ele>1118.80</ele>
        <time>2012-10-20T12:05:48Z</time>
      </trkpt>
      <trkpt lat="42.350949200" lon="-2.624287100">
        <ele>1118.80</ele>
        <time>2012-10-20T12:05:52Z</time>
      </trkpt>
      <trkpt lat="42.351128800" lon="-2.624276200">
        <ele>1118.80</ele>
        <time>2012-10-20T12:05:59Z</time>
      </trkpt>
      <trkpt lat="42.351235200" lon="-2.624248800">
        <ele>1118.80</ele>
        <time>2012-10-20T12:06:04Z</time>
      </trkpt>
      <trkpt lat="42.351259100" lon="-2.624242300">
        <ele>1119.20</ele>
        <time>2012-10-20T12:06:06Z</time>
      </trkpt>
      <trkpt lat="42.351307000" lon="-2.624225700">
        <ele>1120.00</ele>
        <time>2012-10-20T12:06:08Z</time>
      </trkpt>
      <trkpt lat="42.351327400" lon="-2.624222300">
        <ele>1120.40</ele>
        <time>2012-10-20T12:06:09Z</time>
      </trkpt>
      <trkpt lat="42.351349100" lon="-2.624215500">
        <ele>1121.00</ele>
        <time>2012-10-20T12:06:09Z</time>
      </trkpt>
      <trkpt lat="42.351546100" lon="-2.624173100">
        <ele>1121.00</ele>
        <time>2012-10-20T12:06:18Z</time>
      </trkpt>
      <trkpt lat="42.351821000" lon="-2.624130600">
        <ele>1121.00</ele>
        <time>2012-10-20T12:06:27Z</time>
      </trkpt>
      <trkpt lat="42.351976500" lon="-2.624112400">
        <ele>1121.00</ele>
        <time>2012-10-20T12:06:32Z</time>
      </trkpt>
      <trkpt lat="42.352028500" lon="-2.624101800">
        <ele>1121.00</ele>
        <time>2012-10-20T12:06:34Z</time>
      </trkpt>
      <trkpt lat="42.352106900" lon="-2.624066300">
        <ele>1121.00</ele>
        <time>2012-10-20T12:06:37Z</time>
      </trkpt>
      <trkpt lat="42.352124100" lon="-2.624052600">
        <ele>1121.00</ele>
        <time>2012-10-20T12:06:39Z</time>
      </trkpt>
      <trkpt lat="42.352183200" lon="-2.623942300">
        <ele>1121.00</ele>
        <time>2012-10-20T12:06:44Z</time>
      </trkpt>
      <trkpt lat="42.352212300" lon="-2.623782600">
        <ele>1121.00</ele>
        <time>2012-10-20T12:06:48Z</time>
      </trkpt>
      <trkpt lat="42.352146600" lon="-2.623622600">
        <ele>1121.00</ele>
        <time>2012-10-20T12:06:55Z</time>
      </trkpt>
      <trkpt lat="42.352051300" lon="-2.623594800">
        <ele>1121.00</ele>
        <time>2012-10-20T12:07:00Z</time>
      </trkpt>
      <trkpt lat="42.352016800" lon="-2.623603300">
        <ele>1121.80</ele>
        <time>2012-10-20T12:07:02Z</time>
      </trkpt>
      <trkpt lat="42.352000500" lon="-2.623611000">
        <ele>1122.20</ele>
        <time>2012-10-20T12:07:02Z</time>
      </trkpt>
      <trkpt lat="42.351982500" lon="-2.623616000">
        <ele>1122.60</ele>
        <time>2012-10-20T12:07:03Z</time>
      </trkpt>
      <trkpt lat="42.351966100" lon="-2.623624700">
        <ele>1123.00</ele>
        <time>2012-10-20T12:07:05Z</time>
      </trkpt>
      <trkpt lat="42.351933100" lon="-2.623641600">
        <ele>1123.00</ele>
        <time>2012-10-20T12:07:07Z</time>
      </trkpt>
      <trkpt lat="42.351840400" lon="-2.623701100">
        <ele>1123.40</ele>
        <time>2012-10-20T12:07:12Z</time>
      </trkpt>
      <trkpt lat="42.351823900" lon="-2.623709200">
        <ele>1123.80</ele>
        <time>2012-10-20T12:07:14Z</time>
      </trkpt>
      <trkpt lat="42.351807400" lon="-2.623716000">
        <ele>1124.40</ele>
        <time>2012-10-20T12:07:14Z</time>
      </trkpt>
      <trkpt lat="42.351789900" lon="-2.623723400">
        <ele>1124.80</ele>
        <time>2012-10-20T12:07:16Z</time>
      </trkpt>
      <trkpt lat="42.351775400" lon="-2.623732600">
        <ele>1125.40</ele>
        <time>2012-10-20T12:07:17Z</time>
      </trkpt>
      <trkpt lat="42.351731400" lon="-2.623756900">
        <ele>1125.40</ele>
        <time>2012-10-20T12:07:19Z</time>
      </trkpt>
      <trkpt lat="42.351632800" lon="-2.623803800">
        <ele>1125.80</ele>
        <time>2012-10-20T12:07:26Z</time>
      </trkpt>
      <trkpt lat="42.351616600" lon="-2.623810200">
        <ele>1126.40</ele>
        <time>2012-10-20T12:07:28Z</time>
      </trkpt>
      <trkpt lat="42.351599600" lon="-2.623816000">
        <ele>1126.80</ele>
        <time>2012-10-20T12:07:28Z</time>
      </trkpt>
      <trkpt lat="42.351580700" lon="-2.623820900">
        <ele>1127.20</ele>
        <time>2012-10-20T12:07:30Z</time>
      </trkpt>
      <trkpt lat="42.351565000" lon="-2.623829300">
        <ele>1127.80</ele>
        <time>2012-10-20T12:07:31Z</time>
      </trkpt>
      <trkpt lat="42.351501400" lon="-2.623853200">
        <ele>1127.80</ele>
        <time>2012-10-20T12:07:35Z</time>
      </trkpt>
      <trkpt lat="42.351351000" lon="-2.623856900">
        <ele>1128.20</ele>
        <time>2012-10-20T12:07:43Z</time>
      </trkpt>
      <trkpt lat="42.351332800" lon="-2.623858100">
        <ele>1128.60</ele>
        <time>2012-10-20T12:07:45Z</time>
      </trkpt>
      <trkpt lat="42.351313600" lon="-2.623859400">
        <ele>1129.00</ele>
        <time>2012-10-20T12:07:45Z</time>
      </trkpt>
      <trkpt lat="42.351267900" lon="-2.623860700">
        <ele>1129.80</ele>
        <time>2012-10-20T12:07:47Z</time>
      </trkpt>
      <trkpt lat="42.351167800" lon="-2.623861400">
        <ele>1129.80</ele>
        <time>2012-10-20T12:07:52Z</time>
      </trkpt>
      <trkpt lat="42.351027200" lon="-2.623859300">
        <ele>1129.80</ele>
        <time>2012-10-20T12:07:59Z</time>
      </trkpt>
      <trkpt lat="42.350910900" lon="-2.623842500">
        <ele>1129.80</ele>
        <time>2012-10-20T12:08:06Z</time>
      </trkpt>
      <trkpt lat="42.350854300" lon="-2.623837300">
        <ele>1130.20</ele>
        <time>2012-10-20T12:08:08Z</time>
      </trkpt>
      <trkpt lat="42.350836300" lon="-2.623836300">
        <ele>1130.60</ele>
        <time>2012-10-20T12:08:10Z</time>
      </trkpt>
      <trkpt lat="42.350820500" lon="-2.623832700">
        <ele>1131.00</ele>
        <time>2012-10-20T12:08:11Z</time>
      </trkpt>
      <trkpt lat="42.350784300" lon="-2.623818400">
        <ele>1131.80</ele>
        <time>2012-10-20T12:08:13Z</time>
      </trkpt>
      <trkpt lat="42.350715900" lon="-2.623783000">
        <ele>1131.80</ele>
        <time>2012-10-20T12:08:17Z</time>
      </trkpt>
      <trkpt lat="42.350607500" lon="-2.623714800">
        <ele>1132.20</ele>
        <time>2012-10-20T12:08:24Z</time>
      </trkpt>
      <trkpt lat="42.350593500" lon="-2.623701600">
        <ele>1132.60</ele>
        <time>2012-10-20T12:08:25Z</time>
      </trkpt>
      <trkpt lat="42.350582600" lon="-2.623687400">
        <ele>1133.20</ele>
        <time>2012-10-20T12:08:25Z</time>
      </trkpt>
      <trkpt lat="42.350562600" lon="-2.623654700">
        <ele>1134.00</ele>
        <time>2012-10-20T12:08:27Z</time>
      </trkpt>
      <trkpt lat="42.350521500" lon="-2.623580500">
        <ele>1134.00</ele>
        <time>2012-10-20T12:08:32Z</time>
      </trkpt>
      <trkpt lat="42.350484800" lon="-2.623525500">
        <ele>1134.00</ele>
        <time>2012-10-20T12:08:36Z</time>
      </trkpt>
      <trkpt lat="42.350434100" lon="-2.623443200">
        <ele>1134.40</ele>
        <time>2012-10-20T12:08:41Z</time>
      </trkpt>
      <trkpt lat="42.350424000" lon="-2.623427700">
        <ele>1134.80</ele>
        <time>2012-10-20T12:08:41Z</time>
      </trkpt>
      <trkpt lat="42.350399200" lon="-2.623390900">
        <ele>1135.60</ele>
        <time>2012-10-20T12:08:43Z</time>
      </trkpt>
      <trkpt lat="42.350382800" lon="-2.623368100">
        <ele>1136.00</ele>
        <time>2012-10-20T12:08:44Z</time>
      </trkpt>
      <trkpt lat="42.350323700" lon="-2.623276000">
        <ele>1136.00</ele>
        <time>2012-10-20T12:08:48Z</time>
      </trkpt>
      <trkpt lat="42.350231400" lon="-2.623130600">
        <ele>1136.00</ele>
        <time>2012-10-20T12:08:55Z</time>
      </trkpt>
      <trkpt lat="42.350173500" lon="-2.623032800">
        <ele>1136.00</ele>
        <time>2012-10-20T12:09:00Z</time>
      </trkpt>
      <trkpt lat="42.350081800" lon="-2.622910700">
        <ele>1136.40</ele>
        <time>2012-10-20T12:09:07Z</time>
      </trkpt>
      <trkpt lat="42.350065800" lon="-2.622892700">
        <ele>1136.80</ele>
        <time>2012-10-20T12:09:07Z</time>
      </trkpt>
      <trkpt lat="42.350051800" lon="-2.622877300">
        <ele>1137.40</ele>
        <time>2012-10-20T12:09:09Z</time>
      </trkpt>
      <trkpt lat="42.350028000" lon="-2.622846900">
        <ele>1138.20</ele>
        <time>2012-10-20T12:09:11Z</time>
      </trkpt>
      <trkpt lat="42.349973100" lon="-2.622765600">
        <ele>1138.20</ele>
        <time>2012-10-20T12:09:16Z</time>
      </trkpt>
      <trkpt lat="42.349951000" lon="-2.622734000">
        <ele>1139.00</ele>
        <time>2012-10-20T12:09:18Z</time>
      </trkpt>
      <trkpt lat="42.349937300" lon="-2.622716400">
        <ele>1139.40</ele>
        <time>2012-10-20T12:09:19Z</time>
      </trkpt>
      <trkpt lat="42.349924200" lon="-2.622700900">
        <ele>1139.80</ele>
        <time>2012-10-20T12:09:19Z</time>
      </trkpt>
      <trkpt lat="42.349911900" lon="-2.622683200">
        <ele>1140.20</ele>
        <time>2012-10-20T12:09:21Z</time>
      </trkpt>
      <trkpt lat="42.349809400" lon="-2.622535100">
        <ele>1140.20</ele>
        <time>2012-10-20T12:09:30Z</time>
      </trkpt>
      <trkpt lat="42.349785000" lon="-2.622504600">
        <ele>1140.60</ele>
        <time>2012-10-20T12:09:31Z</time>
      </trkpt>
      <trkpt lat="42.349759600" lon="-2.622476600">
        <ele>1141.40</ele>
        <time>2012-10-20T12:09:33Z</time>
      </trkpt>
      <trkpt lat="42.349733600" lon="-2.622450500">
        <ele>1142.20</ele>
        <time>2012-10-20T12:09:35Z</time>
      </trkpt>
      <trkpt lat="42.349719700" lon="-2.622436700">
        <ele>1142.20</ele>
        <time>2012-10-20T12:09:37Z</time>
      </trkpt>
      <trkpt lat="42.349596800" lon="-2.622329100">
        <ele>1142.20</ele>
        <time>2012-10-20T12:09:45Z</time>
      </trkpt>
      <trkpt lat="42.349550100" lon="-2.622299400">
        <ele>1142.80</ele>
        <time>2012-10-20T12:09:47Z</time>
      </trkpt>
      <trkpt lat="42.349535100" lon="-2.622287900">
        <ele>1143.20</ele>
        <time>2012-10-20T12:09:49Z</time>
      </trkpt>
      <trkpt lat="42.349517600" lon="-2.622277000">
        <ele>1143.60</ele>
        <time>2012-10-20T12:09:49Z</time>
      </trkpt>
      <trkpt lat="42.349499600" lon="-2.622263200">
        <ele>1144.00</ele>
        <time>2012-10-20T12:09:51Z</time>
      </trkpt>
      <trkpt lat="42.349483200" lon="-2.622250800">
        <ele>1144.60</ele>
        <time>2012-10-20T12:09:52Z</time>
      </trkpt>
      <trkpt lat="42.349394200" lon="-2.622193400">
        <ele>1144.60</ele>
        <time>2012-10-20T12:09:56Z</time>
      </trkpt>
      <trkpt lat="42.349323400" lon="-2.622163100">
        <ele>1144.60</ele>
        <time>2012-10-20T12:10:01Z</time>
      </trkpt>
      <trkpt lat="42.349289400" lon="-2.622142800">
        <ele>1144.60</ele>
        <time>2012-10-20T12:10:03Z</time>
      </trkpt>
      <trkpt lat="42.349244500" lon="-2.622127400">
        <ele>1144.60</ele>
        <time>2012-10-20T12:10:05Z</time>
      </trkpt>
      <trkpt lat="42.349174700" lon="-2.622098500">
        <ele>1144.60</ele>
        <time>2012-10-20T12:10:08Z</time>
      </trkpt>
      <trkpt lat="42.349064300" lon="-2.622029500">
        <ele>1144.60</ele>
        <time>2012-10-20T12:10:12Z</time>
      </trkpt>
      <trkpt lat="42.348907000" lon="-2.621920000">
        <ele>1144.60</ele>
        <time>2012-10-20T12:10:17Z</time>
      </trkpt>
      <trkpt lat="42.348853300" lon="-2.621871300">
        <ele>1144.60</ele>
        <time>2012-10-20T12:10:20Z</time>
      </trkpt>
      <trkpt lat="42.348787100" lon="-2.621829600">
        <ele>1144.60</ele>
        <time>2012-10-20T12:10:22Z</time>
      </trkpt>
      <trkpt lat="42.348672600" lon="-2.621767500">
        <ele>1144.60</ele>
        <time>2012-10-20T12:10:24Z</time>
      </trkpt>
      <trkpt lat="42.348634500" lon="-2.621752400">
        <ele>1144.60</ele>
        <time>2012-10-20T12:10:25Z</time>
      </trkpt>
      <trkpt lat="42.348529400" lon="-2.621716700">
        <ele>1144.60</ele>
        <time>2012-10-20T12:10:29Z</time>
      </trkpt>
      <trkpt lat="42.348498000" lon="-2.621708100">
        <ele>1144.00</ele>
        <time>2012-10-20T12:10:29Z</time>
      </trkpt>
      <trkpt lat="42.348469300" lon="-2.621701000">
        <ele>1143.60</ele>
        <time>2012-10-20T12:10:31Z</time>
      </trkpt>
      <trkpt lat="42.348442700" lon="-2.621693200">
        <ele>1143.20</ele>
        <time>2012-10-20T12:10:31Z</time>
      </trkpt>
      <trkpt lat="42.348418500" lon="-2.621689500">
        <ele>1142.60</ele>
        <time>2012-10-20T12:10:32Z</time>
      </trkpt>
      <trkpt lat="42.348390800" lon="-2.621675300">
        <ele>1142.20</ele>
        <time>2012-10-20T12:10:34Z</time>
      </trkpt>
      <trkpt lat="42.348328600" lon="-2.621636700">
        <ele>1142.20</ele>
        <time>2012-10-20T12:10:36Z</time>
      </trkpt>
      <trkpt lat="42.348173700" lon="-2.621522500">
        <ele>1142.20</ele>
        <time>2012-10-20T12:10:41Z</time>
      </trkpt>
      <trkpt lat="42.348101100" lon="-2.621471900">
        <ele>1142.20</ele>
        <time>2012-10-20T12:10:43Z</time>
      </trkpt>
      <trkpt lat="42.348051800" lon="-2.621418800">
        <ele>1142.20</ele>
        <time>2012-10-20T12:10:46Z</time>
      </trkpt>
      <trkpt lat="42.347969300" lon="-2.621369500">
        <ele>1142.20</ele>
        <time>2012-10-20T12:10:52Z</time>
      </trkpt>
      <trkpt lat="42.347835100" lon="-2.621314200">
        <ele>1141.80</ele>
        <time>2012-10-20T12:10:55Z</time>
      </trkpt>
      <trkpt lat="42.347763700" lon="-2.621301100">
        <ele>1141.00</ele>
        <time>2012-10-20T12:10:57Z</time>
      </trkpt>
      <trkpt lat="42.347732800" lon="-2.621302800">
        <ele>1140.40</ele>
        <time>2012-10-20T12:10:59Z</time>
      </trkpt>
      <trkpt lat="42.347704700" lon="-2.621307400">
        <ele>1140.00</ele>
        <time>2012-10-20T12:11:00Z</time>
      </trkpt>
      <trkpt lat="42.347655600" lon="-2.621322600">
        <ele>1140.00</ele>
        <time>2012-10-20T12:11:02Z</time>
      </trkpt>
      <trkpt lat="42.347619600" lon="-2.621346600">
        <ele>1140.00</ele>
        <time>2012-10-20T12:11:04Z</time>
      </trkpt>
      <trkpt lat="42.347575700" lon="-2.621389300">
        <ele>1140.00</ele>
        <time>2012-10-20T12:11:07Z</time>
      </trkpt>
      <trkpt lat="42.347336800" lon="-2.621472200">
        <ele>1140.00</ele>
        <time>2012-10-20T12:11:18Z</time>
      </trkpt>
      <trkpt lat="42.347224500" lon="-2.621520800">
        <ele>1140.00</ele>
        <time>2012-10-20T12:11:23Z</time>
      </trkpt>
      <trkpt lat="42.347100200" lon="-2.621589100">
        <ele>1140.00</ele>
        <time>2012-10-20T12:11:30Z</time>
      </trkpt>
      <trkpt lat="42.347021300" lon="-2.621656200">
        <ele>1140.00</ele>
        <time>2012-10-20T12:11:35Z</time>
      </trkpt>
      <trkpt lat="42.346978700" lon="-2.621681300">
        <ele>1140.00</ele>
        <time>2012-10-20T12:11:37Z</time>
      </trkpt>
      <trkpt lat="42.346944000" lon="-2.621710500">
        <ele>1140.00</ele>
        <time>2012-10-20T12:11:40Z</time>
      </trkpt>
      <trkpt lat="42.346921500" lon="-2.621729200">
        <ele>1140.60</ele>
        <time>2012-10-20T12:11:42Z</time>
      </trkpt>
      <trkpt lat="42.346911900" lon="-2.621736900">
        <ele>1141.00</ele>
        <time>2012-10-20T12:11:44Z</time>
      </trkpt>
      <trkpt lat="42.346893500" lon="-2.621744500">
        <ele>1141.40</ele>
        <time>2012-10-20T12:11:44Z</time>
      </trkpt>
      <trkpt lat="42.346877400" lon="-2.621748400">
        <ele>1142.00</ele>
        <time>2012-10-20T12:11:46Z</time>
      </trkpt>
      <trkpt lat="42.346860100" lon="-2.621750600">
        <ele>1142.40</ele>
        <time>2012-10-20T12:11:47Z</time>
      </trkpt>
      <trkpt lat="42.346793000" lon="-2.621763900">
        <ele>1142.40</ele>
        <time>2012-10-20T12:11:51Z</time>
      </trkpt>
      <trkpt lat="42.346780500" lon="-2.621772000">
        <ele>1142.40</ele>
        <time>2012-10-20T12:11:51Z</time>
      </trkpt>
      <trkpt lat="42.346773400" lon="-2.621775600">
        <ele>1142.80</ele>
        <time>2012-10-20T12:11:53Z</time>
      </trkpt>
      <trkpt lat="42.346766300" lon="-2.621783100">
        <ele>1143.40</ele>
        <time>2012-10-20T12:11:54Z</time>
      </trkpt>
      <trkpt lat="42.346762300" lon="-2.621792000">
        <ele>1143.80</ele>
        <time>2012-10-20T12:11:54Z</time>
      </trkpt>
      <trkpt lat="42.346757700" lon="-2.621800300">
        <ele>1144.40</ele>
        <time>2012-10-20T12:11:56Z</time>
      </trkpt>
      <trkpt lat="42.346748900" lon="-2.621809500">
        <ele>1144.80</ele>
        <time>2012-10-20T12:11:56Z</time>
      </trkpt>
      <trkpt lat="42.346688400" lon="-2.621835100">
        <ele>1144.80</ele>
        <time>2012-10-20T12:12:00Z</time>
      </trkpt>
      <trkpt lat="42.346635500" lon="-2.621848700">
        <ele>1145.20</ele>
        <time>2012-10-20T12:12:01Z</time>
      </trkpt>
      <trkpt lat="42.346613200" lon="-2.621853500">
        <ele>1145.60</ele>
        <time>2012-10-20T12:12:03Z</time>
      </trkpt>
      <trkpt lat="42.346595600" lon="-2.621858200">
        <ele>1146.00</ele>
        <time>2012-10-20T12:12:03Z</time>
      </trkpt>
      <trkpt lat="42.346579600" lon="-2.621861100">
        <ele>1146.60</ele>
        <time>2012-10-20T12:12:05Z</time>
      </trkpt>
      <trkpt lat="42.346565100" lon="-2.621863200">
        <ele>1147.00</ele>
        <time>2012-10-20T12:12:05Z</time>
      </trkpt>
      <trkpt lat="42.346536400" lon="-2.621866300">
        <ele>1147.00</ele>
        <time>2012-10-20T12:12:08Z</time>
      </trkpt>
      <trkpt lat="42.346525400" lon="-2.621873100">
        <ele>1147.00</ele>
        <time>2012-10-20T12:12:08Z</time>
      </trkpt>
      <trkpt lat="42.346498700" lon="-2.621881800">
        <ele>1147.40</ele>
        <time>2012-10-20T12:12:10Z</time>
      </trkpt>
      <trkpt lat="42.346485800" lon="-2.621888000">
        <ele>1148.00</ele>
        <time>2012-10-20T12:12:12Z</time>
      </trkpt>
      <trkpt lat="42.346472300" lon="-2.621892100">
        <ele>1148.40</ele>
        <time>2012-10-20T12:12:12Z</time>
      </trkpt>
      <trkpt lat="42.346458900" lon="-2.621892200">
        <ele>1149.00</ele>
        <time>2012-10-20T12:12:13Z</time>
      </trkpt>
      <trkpt lat="42.346442900" lon="-2.621895900">
        <ele>1149.40</ele>
        <time>2012-10-20T12:12:15Z</time>
      </trkpt>
      <trkpt lat="42.346395800" lon="-2.621897700">
        <ele>1149.40</ele>
        <time>2012-10-20T12:12:17Z</time>
      </trkpt>
      <trkpt lat="42.346358300" lon="-2.621896400">
        <ele>1149.80</ele>
        <time>2012-10-20T12:12:20Z</time>
      </trkpt>
      <trkpt lat="42.346346900" lon="-2.621893400">
        <ele>1150.40</ele>
        <time>2012-10-20T12:12:22Z</time>
      </trkpt>
      <trkpt lat="42.346336300" lon="-2.621890800">
        <ele>1150.80</ele>
        <time>2012-10-20T12:12:22Z</time>
      </trkpt>
      <trkpt lat="42.346326100" lon="-2.621887000">
        <ele>1151.20</ele>
        <time>2012-10-20T12:12:24Z</time>
      </trkpt>
      <trkpt lat="42.346315400" lon="-2.621881100">
        <ele>1151.60</ele>
        <time>2012-10-20T12:12:24Z</time>
      </trkpt>
      <trkpt lat="42.346267300" lon="-2.621874000">
        <ele>1151.60</ele>
        <time>2012-10-20T12:12:29Z</time>
      </trkpt>
      <trkpt lat="42.346253900" lon="-2.621876700">
        <ele>1152.00</ele>
        <time>2012-10-20T12:12:29Z</time>
      </trkpt>
      <trkpt lat="42.346239700" lon="-2.621877400">
        <ele>1152.40</ele>
        <time>2012-10-20T12:12:31Z</time>
      </trkpt>
      <trkpt lat="42.346224300" lon="-2.621878200">
        <ele>1152.80</ele>
        <time>2012-10-20T12:12:31Z</time>
      </trkpt>
      <trkpt lat="42.346206600" lon="-2.621877400">
        <ele>1153.40</ele>
        <time>2012-10-20T12:12:33Z</time>
      </trkpt>
      <trkpt lat="42.346189900" lon="-2.621877400">
        <ele>1153.80</ele>
        <time>2012-10-20T12:12:34Z</time>
      </trkpt>
      <trkpt lat="42.346174500" lon="-2.621877900">
        <ele>1153.80</ele>
        <time>2012-10-20T12:12:34Z</time>
      </trkpt>
      <trkpt lat="42.346105400" lon="-2.621870300">
        <ele>1153.80</ele>
        <time>2012-10-20T12:12:40Z</time>
      </trkpt>
      <trkpt lat="42.346067300" lon="-2.621856000">
        <ele>1154.20</ele>
        <time>2012-10-20T12:12:43Z</time>
      </trkpt>
      <trkpt lat="42.346059200" lon="-2.621861500">
        <ele>1154.60</ele>
        <time>2012-10-20T12:12:45Z</time>
      </trkpt>
      <trkpt lat="42.346041800" lon="-2.621867700">
        <ele>1155.40</ele>
        <time>2012-10-20T12:12:47Z</time>
      </trkpt>
      <trkpt lat="42.346034100" lon="-2.621867200">
        <ele>1155.80</ele>
        <time>2012-10-20T12:12:48Z</time>
      </trkpt>
      <trkpt lat="42.346026200" lon="-2.621867000">
        <ele>1155.80</ele>
        <time>2012-10-20T12:12:48Z</time>
      </trkpt>
      <trkpt lat="42.345954100" lon="-2.621857400">
        <ele>1155.80</ele>
        <time>2012-10-20T12:12:55Z</time>
      </trkpt>
      <trkpt lat="42.345915600" lon="-2.621856500">
        <ele>1156.20</ele>
        <time>2012-10-20T12:12:59Z</time>
      </trkpt>
      <trkpt lat="42.345904100" lon="-2.621856000">
        <ele>1156.80</ele>
        <time>2012-10-20T12:12:59Z</time>
      </trkpt>
      <trkpt lat="42.345891700" lon="-2.621854600">
        <ele>1157.20</ele>
        <time>2012-10-20T12:13:00Z</time>
      </trkpt>
      <trkpt lat="42.345881000" lon="-2.621853100">
        <ele>1157.60</ele>
        <time>2012-10-20T12:13:02Z</time>
      </trkpt>
      <trkpt lat="42.345869400" lon="-2.621851700">
        <ele>1158.00</ele>
        <time>2012-10-20T12:13:02Z</time>
      </trkpt>
      <trkpt lat="42.345849900" lon="-2.621841200">
        <ele>1158.00</ele>
        <time>2012-10-20T12:13:04Z</time>
      </trkpt>
      <trkpt lat="42.345804100" lon="-2.621806900">
        <ele>1158.00</ele>
        <time>2012-10-20T12:13:09Z</time>
      </trkpt>
      <trkpt lat="42.345785300" lon="-2.621795300">
        <ele>1158.00</ele>
        <time>2012-10-20T12:13:11Z</time>
      </trkpt>
      <trkpt lat="42.345742200" lon="-2.621762400">
        <ele>1158.00</ele>
        <time>2012-10-20T12:13:16Z</time>
      </trkpt>
      <trkpt lat="42.345727100" lon="-2.621740600">
        <ele>1158.40</ele>
        <time>2012-10-20T12:13:18Z</time>
      </trkpt>
      <trkpt lat="42.345719000" lon="-2.621728400">
        <ele>1159.00</ele>
        <time>2012-10-20T12:13:20Z</time>
      </trkpt>
      <trkpt lat="42.345710600" lon="-2.621716900">
        <ele>1159.40</ele>
        <time>2012-10-20T12:13:21Z</time>
      </trkpt>
      <trkpt lat="42.345703200" lon="-2.621707400">
        <ele>1160.00</ele>
        <time>2012-10-20T12:13:21Z</time>
      </trkpt>
      <trkpt lat="42.345695200" lon="-2.621697900">
        <ele>1160.40</ele>
        <time>2012-10-20T12:13:23Z</time>
      </trkpt>
      <trkpt lat="42.345674300" lon="-2.621681100">
        <ele>1160.40</ele>
        <time>2012-10-20T12:13:25Z</time>
      </trkpt>
      <trkpt lat="42.345631000" lon="-2.621660600">
        <ele>1160.40</ele>
        <time>2012-10-20T12:13:28Z</time>
      </trkpt>
      <trkpt lat="42.345620700" lon="-2.621653200">
        <ele>1160.40</ele>
        <time>2012-10-20T12:13:30Z</time>
      </trkpt>
      <trkpt lat="42.345608700" lon="-2.621644500">
        <ele>1160.80</ele>
        <time>2012-10-20T12:13:30Z</time>
      </trkpt>
      <trkpt lat="42.345599000" lon="-2.621639500">
        <ele>1161.20</ele>
        <time>2012-10-20T12:13:32Z</time>
      </trkpt>
      <trkpt lat="42.345585900" lon="-2.621628400">
        <ele>1161.60</ele>
        <time>2012-10-20T12:13:32Z</time>
      </trkpt>
      <trkpt lat="42.345572800" lon="-2.621619000">
        <ele>1162.20</ele>
        <time>2012-10-20T12:13:34Z</time>
      </trkpt>
      <trkpt lat="42.345558900" lon="-2.621608400">
        <ele>1162.60</ele>
        <time>2012-10-20T12:13:35Z</time>
      </trkpt>
      <trkpt lat="42.345479800" lon="-2.621539200">
        <ele>1163.00</ele>
        <time>2012-10-20T12:13:42Z</time>
      </trkpt>
      <trkpt lat="42.345473300" lon="-2.621533400">
        <ele>1163.40</ele>
        <time>2012-10-20T12:13:42Z</time>
      </trkpt>
      <trkpt lat="42.345467800" lon="-2.621528000">
        <ele>1163.80</ele>
        <time>2012-10-20T12:13:44Z</time>
      </trkpt>
      <trkpt lat="42.345462900" lon="-2.621514200">
        <ele>1164.20</ele>
        <time>2012-10-20T12:13:44Z</time>
      </trkpt>
      <trkpt lat="42.345459400" lon="-2.621507400">
        <ele>1164.60</ele>
        <time>2012-10-20T12:13:46Z</time>
      </trkpt>
      <trkpt lat="42.345395400" lon="-2.621437700">
        <ele>1164.60</ele>
        <time>2012-10-20T12:13:53Z</time>
      </trkpt>
      <trkpt lat="42.345357400" lon="-2.621348500">
        <ele>1165.00</ele>
        <time>2012-10-20T12:13:58Z</time>
      </trkpt>
      <trkpt lat="42.345353300" lon="-2.621328700">
        <ele>1165.40</ele>
        <time>2012-10-20T12:13:58Z</time>
      </trkpt>
      <trkpt lat="42.345352100" lon="-2.621308000">
        <ele>1165.40</ele>
        <time>2012-10-20T12:14:00Z</time>
      </trkpt>
      <trkpt lat="42.345350900" lon="-2.621285700">
        <ele>1165.80</ele>
        <time>2012-10-20T12:14:00Z</time>
      </trkpt>
      <trkpt lat="42.345350700" lon="-2.621263900">
        <ele>1166.40</ele>
        <time>2012-10-20T12:14:01Z</time>
      </trkpt>
      <trkpt lat="42.345349900" lon="-2.621242400">
        <ele>1166.80</ele>
        <time>2012-10-20T12:14:03Z</time>
      </trkpt>
      <trkpt lat="42.345360600" lon="-2.621202000">
        <ele>1166.80</ele>
        <time>2012-10-20T12:14:05Z</time>
      </trkpt>
      <trkpt lat="42.345408900" lon="-2.621070500">
        <ele>1166.80</ele>
        <time>2012-10-20T12:14:12Z</time>
      </trkpt>
      <trkpt lat="42.345404700" lon="-2.621000200">
        <ele>1167.60</ele>
        <time>2012-10-20T12:14:15Z</time>
      </trkpt>
      <trkpt lat="42.345403600" lon="-2.620944100">
        <ele>1168.00</ele>
        <time>2012-10-20T12:14:17Z</time>
      </trkpt>
      <trkpt lat="42.345404100" lon="-2.620916300">
        <ele>1168.40</ele>
        <time>2012-10-20T12:14:19Z</time>
      </trkpt>
      <trkpt lat="42.345401600" lon="-2.620894700">
        <ele>1168.80</ele>
        <time>2012-10-20T12:14:19Z</time>
      </trkpt>
      <trkpt lat="42.345376900" lon="-2.620798300">
        <ele>1168.80</ele>
        <time>2012-10-20T12:14:24Z</time>
      </trkpt>
      <trkpt lat="42.345359100" lon="-2.620745500">
        <ele>1168.80</ele>
        <time>2012-10-20T12:14:28Z</time>
      </trkpt>
      <trkpt lat="42.345353400" lon="-2.620690000">
        <ele>1168.80</ele>
        <time>2012-10-20T12:14:31Z</time>
      </trkpt>
      <trkpt lat="42.345351600" lon="-2.620656700">
        <ele>1169.80</ele>
        <time>2012-10-20T12:14:33Z</time>
      </trkpt>
      <trkpt lat="42.345349500" lon="-2.620638400">
        <ele>1170.20</ele>
        <time>2012-10-20T12:14:33Z</time>
      </trkpt>
      <trkpt lat="42.345346200" lon="-2.620619200">
        <ele>1170.60</ele>
        <time>2012-10-20T12:14:35Z</time>
      </trkpt>
      <trkpt lat="42.345342800" lon="-2.620607100">
        <ele>1171.00</ele>
        <time>2012-10-20T12:14:36Z</time>
      </trkpt>
      <trkpt lat="42.345325600" lon="-2.620532700">
        <ele>1171.60</ele>
        <time>2012-10-20T12:14:40Z</time>
      </trkpt>
      <trkpt lat="42.345325000" lon="-2.620517500">
        <ele>1172.00</ele>
        <time>2012-10-20T12:14:41Z</time>
      </trkpt>
      <trkpt lat="42.345326700" lon="-2.620487600">
        <ele>1172.80</ele>
        <time>2012-10-20T12:14:43Z</time>
      </trkpt>
      <trkpt lat="42.345324500" lon="-2.620470000">
        <ele>1173.20</ele>
        <time>2012-10-20T12:14:45Z</time>
      </trkpt>
      <trkpt lat="42.345323400" lon="-2.620432000">
        <ele>1173.20</ele>
        <time>2012-10-20T12:14:47Z</time>
      </trkpt>
      <trkpt lat="42.345310900" lon="-2.620394200">
        <ele>1173.20</ele>
        <time>2012-10-20T12:14:48Z</time>
      </trkpt>
      <trkpt lat="42.345295900" lon="-2.620361900">
        <ele>1173.20</ele>
        <time>2012-10-20T12:14:50Z</time>
      </trkpt>
      <trkpt lat="42.345275200" lon="-2.620328100">
        <ele>1173.60</ele>
        <time>2012-10-20T12:14:52Z</time>
      </trkpt>
      <trkpt lat="42.345268000" lon="-2.620311100">
        <ele>1174.00</ele>
        <time>2012-10-20T12:14:54Z</time>
      </trkpt>
      <trkpt lat="42.345255800" lon="-2.620273500">
        <ele>1174.80</ele>
        <time>2012-10-20T12:14:55Z</time>
      </trkpt>
      <trkpt lat="42.345243600" lon="-2.620262600">
        <ele>1175.20</ele>
        <time>2012-10-20T12:14:57Z</time>
      </trkpt>
      <trkpt lat="42.345226500" lon="-2.620232500">
        <ele>1175.20</ele>
        <time>2012-10-20T12:14:59Z</time>
      </trkpt>
      <trkpt lat="42.345206500" lon="-2.620152500">
        <ele>1175.20</ele>
        <time>2012-10-20T12:15:04Z</time>
      </trkpt>
      <trkpt lat="42.345193000" lon="-2.620086900">
        <ele>1175.80</ele>
        <time>2012-10-20T12:15:06Z</time>
      </trkpt>
      <trkpt lat="42.345183700" lon="-2.620058800">
        <ele>1176.20</ele>
        <time>2012-10-20T12:15:08Z</time>
      </trkpt>
      <trkpt lat="42.345171100" lon="-2.620034100">
        <ele>1176.60</ele>
        <time>2012-10-20T12:15:09Z</time>
      </trkpt>
      <trkpt lat="42.345160900" lon="-2.620008300">
        <ele>1177.00</ele>
        <time>2012-10-20T12:15:09Z</time>
      </trkpt>
      <trkpt lat="42.345151200" lon="-2.619984300">
        <ele>1177.40</ele>
        <time>2012-10-20T12:15:11Z</time>
      </trkpt>
      <trkpt lat="42.345140800" lon="-2.619920200">
        <ele>1177.40</ele>
        <time>2012-10-20T12:15:13Z</time>
      </trkpt>
      <trkpt lat="42.345137400" lon="-2.619857300">
        <ele>1177.40</ele>
        <time>2012-10-20T12:15:16Z</time>
      </trkpt>
      <trkpt lat="42.345128900" lon="-2.619770800">
        <ele>1177.80</ele>
        <time>2012-10-20T12:15:20Z</time>
      </trkpt>
      <trkpt lat="42.345125100" lon="-2.619750300">
        <ele>1178.20</ele>
        <time>2012-10-20T12:15:22Z</time>
      </trkpt>
      <trkpt lat="42.345119900" lon="-2.619730600">
        <ele>1178.80</ele>
        <time>2012-10-20T12:15:23Z</time>
      </trkpt>
      <trkpt lat="42.345115100" lon="-2.619711000">
        <ele>1179.20</ele>
        <time>2012-10-20T12:15:23Z</time>
      </trkpt>
      <trkpt lat="42.345110100" lon="-2.619693000">
        <ele>1179.60</ele>
        <time>2012-10-20T12:15:25Z</time>
      </trkpt>
      <trkpt lat="42.345090800" lon="-2.619620300">
        <ele>1179.60</ele>
        <time>2012-10-20T12:15:29Z</time>
      </trkpt>
      <trkpt lat="42.345084000" lon="-2.619600300">
        <ele>1179.60</ele>
        <time>2012-10-20T12:15:30Z</time>
      </trkpt>
      <trkpt lat="42.345066500" lon="-2.619514400">
        <ele>1180.00</ele>
        <time>2012-10-20T12:15:34Z</time>
      </trkpt>
      <trkpt lat="42.345059500" lon="-2.619477800">
        <ele>1180.80</ele>
        <time>2012-10-20T12:15:35Z</time>
      </trkpt>
      <trkpt lat="42.345053700" lon="-2.619458600">
        <ele>1181.20</ele>
        <time>2012-10-20T12:15:37Z</time>
      </trkpt>
      <trkpt lat="42.345049400" lon="-2.619439200">
        <ele>1181.80</ele>
        <time>2012-10-20T12:15:37Z</time>
      </trkpt>
      <trkpt lat="42.345026100" lon="-2.619376100">
        <ele>1181.80</ele>
        <time>2012-10-20T12:15:41Z</time>
      </trkpt>
      <trkpt lat="42.345007900" lon="-2.619303900">
        <ele>1182.20</ele>
        <time>2012-10-20T12:15:46Z</time>
      </trkpt>
      <trkpt lat="42.345007400" lon="-2.619288300">
        <ele>1182.60</ele>
        <time>2012-10-20T12:15:48Z</time>
      </trkpt>
      <trkpt lat="42.345008900" lon="-2.619271300">
        <ele>1183.20</ele>
        <time>2012-10-20T12:15:48Z</time>
      </trkpt>
      <trkpt lat="42.345009100" lon="-2.619251500">
        <ele>1183.60</ele>
        <time>2012-10-20T12:15:49Z</time>
      </trkpt>
      <trkpt lat="42.345011000" lon="-2.619231700">
        <ele>1184.20</ele>
        <time>2012-10-20T12:15:51Z</time>
      </trkpt>
      <trkpt lat="42.345016700" lon="-2.619108500">
        <ele>1184.20</ele>
        <time>2012-10-20T12:15:56Z</time>
      </trkpt>
      <trkpt lat="42.345034200" lon="-2.619032300">
        <ele>1184.20</ele>
        <time>2012-10-20T12:16:00Z</time>
      </trkpt>
      <trkpt lat="42.345041300" lon="-2.618979100">
        <ele>1184.20</ele>
        <time>2012-10-20T12:16:02Z</time>
      </trkpt>
      <trkpt lat="42.345037500" lon="-2.618964400">
        <ele>1184.60</ele>
        <time>2012-10-20T12:16:03Z</time>
      </trkpt>
      <trkpt lat="42.345034400" lon="-2.618952500">
        <ele>1185.00</ele>
        <time>2012-10-20T12:16:05Z</time>
      </trkpt>
      <trkpt lat="42.345031600" lon="-2.618936300">
        <ele>1185.40</ele>
        <time>2012-10-20T12:16:05Z</time>
      </trkpt>
      <trkpt lat="42.345028500" lon="-2.618921600">
        <ele>1185.80</ele>
        <time>2012-10-20T12:16:07Z</time>
      </trkpt>
      <trkpt lat="42.345023800" lon="-2.618910700">
        <ele>1186.20</ele>
        <time>2012-10-20T12:16:07Z</time>
      </trkpt>
      <trkpt lat="42.345011200" lon="-2.618878900">
        <ele>1186.20</ele>
        <time>2012-10-20T12:16:10Z</time>
      </trkpt>
      <trkpt lat="42.344993600" lon="-2.618810100">
        <ele>1186.20</ele>
        <time>2012-10-20T12:16:14Z</time>
      </trkpt>
      <trkpt lat="42.344983500" lon="-2.618751100">
        <ele>1186.20</ele>
        <time>2012-10-20T12:16:17Z</time>
      </trkpt>
      <trkpt lat="42.344966500" lon="-2.618690500">
        <ele>1186.60</ele>
        <time>2012-10-20T12:16:19Z</time>
      </trkpt>
      <trkpt lat="42.344955300" lon="-2.618669500">
        <ele>1187.20</ele>
        <time>2012-10-20T12:16:21Z</time>
      </trkpt>
      <trkpt lat="42.344925600" lon="-2.618621700">
        <ele>1188.40</ele>
        <time>2012-10-20T12:16:24Z</time>
      </trkpt>
      <trkpt lat="42.344916100" lon="-2.618558300">
        <ele>1188.40</ele>
        <time>2012-10-20T12:16:28Z</time>
      </trkpt>
      <trkpt lat="42.344888500" lon="-2.618498800">
        <ele>1188.40</ele>
        <time>2012-10-20T12:16:33Z</time>
      </trkpt>
      <trkpt lat="42.344882100" lon="-2.618484500">
        <ele>1188.80</ele>
        <time>2012-10-20T12:16:33Z</time>
      </trkpt>
      <trkpt lat="42.344877100" lon="-2.618469900">
        <ele>1189.40</ele>
        <time>2012-10-20T12:16:35Z</time>
      </trkpt>
      <trkpt lat="42.344872200" lon="-2.618458700">
        <ele>1189.80</ele>
        <time>2012-10-20T12:16:35Z</time>
      </trkpt>
      <trkpt lat="42.344860400" lon="-2.618456700">
        <ele>1190.40</ele>
        <time>2012-10-20T12:16:36Z</time>
      </trkpt>
      <trkpt lat="42.344852500" lon="-2.618446900">
        <ele>1190.80</ele>
        <time>2012-10-20T12:16:38Z</time>
      </trkpt>
      <trkpt lat="42.344844600" lon="-2.618437600">
        <ele>1190.80</ele>
        <time>2012-10-20T12:16:38Z</time>
      </trkpt>
      <trkpt lat="42.344825700" lon="-2.618410700">
        <ele>1190.80</ele>
        <time>2012-10-20T12:16:40Z</time>
      </trkpt>
      <trkpt lat="42.344833500" lon="-2.618349600">
        <ele>1190.80</ele>
        <time>2012-10-20T12:16:43Z</time>
      </trkpt>
      <trkpt lat="42.344825100" lon="-2.618258400">
        <ele>1191.20</ele>
        <time>2012-10-20T12:16:49Z</time>
      </trkpt>
      <trkpt lat="42.344807500" lon="-2.618207000">
        <ele>1192.40</ele>
        <time>2012-10-20T12:16:52Z</time>
      </trkpt>
      <trkpt lat="42.344800100" lon="-2.618189800">
        <ele>1193.00</ele>
        <time>2012-10-20T12:16:52Z</time>
      </trkpt>
      <trkpt lat="42.344776200" lon="-2.618114900">
        <ele>1193.00</ele>
        <time>2012-10-20T12:16:57Z</time>
      </trkpt>
      <trkpt lat="42.344772800" lon="-2.618096700">
        <ele>1193.00</ele>
        <time>2012-10-20T12:16:57Z</time>
      </trkpt>
      <trkpt lat="42.344748600" lon="-2.618028500">
        <ele>1193.40</ele>
        <time>2012-10-20T12:17:01Z</time>
      </trkpt>
      <trkpt lat="42.344736000" lon="-2.617992400">
        <ele>1194.20</ele>
        <time>2012-10-20T12:17:04Z</time>
      </trkpt>
      <trkpt lat="42.344728500" lon="-2.617977600">
        <ele>1194.60</ele>
        <time>2012-10-20T12:17:04Z</time>
      </trkpt>
      <trkpt lat="42.344727100" lon="-2.617962600">
        <ele>1195.00</ele>
        <time>2012-10-20T12:17:06Z</time>
      </trkpt>
      <trkpt lat="42.344729800" lon="-2.617895500">
        <ele>1195.00</ele>
        <time>2012-10-20T12:17:10Z</time>
      </trkpt>
      <trkpt lat="42.344721000" lon="-2.617845200">
        <ele>1195.00</ele>
        <time>2012-10-20T12:17:13Z</time>
      </trkpt>
      <trkpt lat="42.344703500" lon="-2.617793200">
        <ele>1195.00</ele>
        <time>2012-10-20T12:17:15Z</time>
      </trkpt>
      <trkpt lat="42.344661300" lon="-2.617711000">
        <ele>1195.60</ele>
        <time>2012-10-20T12:17:20Z</time>
      </trkpt>
      <trkpt lat="42.344655700" lon="-2.617696400">
        <ele>1196.20</ele>
        <time>2012-10-20T12:17:22Z</time>
      </trkpt>
      <trkpt lat="42.344625700" lon="-2.617642500">
        <ele>1198.00</ele>
        <time>2012-10-20T12:17:25Z</time>
      </trkpt>
      <trkpt lat="42.344618500" lon="-2.617622000">
        <ele>1198.00</ele>
        <time>2012-10-20T12:17:25Z</time>
      </trkpt>
      <trkpt lat="42.344610900" lon="-2.617606300">
        <ele>1198.00</ele>
        <time>2012-10-20T12:17:27Z</time>
      </trkpt>
      <trkpt lat="42.344517700" lon="-2.617426700">
        <ele>1198.00</ele>
        <time>2012-10-20T12:17:39Z</time>
      </trkpt>
      <trkpt lat="42.344458000" lon="-2.617348100">
        <ele>1198.00</ele>
        <time>2012-10-20T12:17:44Z</time>
      </trkpt>
      <trkpt lat="42.344448000" lon="-2.617335700">
        <ele>1198.40</ele>
        <time>2012-10-20T12:17:46Z</time>
      </trkpt>
      <trkpt lat="42.344437000" lon="-2.617322900">
        <ele>1199.00</ele>
        <time>2012-10-20T12:17:46Z</time>
      </trkpt>
      <trkpt lat="42.344428700" lon="-2.617311000">
        <ele>1199.40</ele>
        <time>2012-10-20T12:17:48Z</time>
      </trkpt>
      <trkpt lat="42.344421500" lon="-2.617302200">
        <ele>1199.80</ele>
        <time>2012-10-20T12:17:48Z</time>
      </trkpt>
      <trkpt lat="42.344413800" lon="-2.617292600">
        <ele>1200.20</ele>
        <time>2012-10-20T12:17:50Z</time>
      </trkpt>
      <trkpt lat="42.344388700" lon="-2.617263600">
        <ele>1200.20</ele>
        <time>2012-10-20T12:17:53Z</time>
      </trkpt>
      <trkpt lat="42.344365100" lon="-2.617223600">
        <ele>1200.20</ele>
        <time>2012-10-20T12:17:55Z</time>
      </trkpt>
      <trkpt lat="42.344328600" lon="-2.617179400">
        <ele>1200.20</ele>
        <time>2012-10-20T12:17:58Z</time>
      </trkpt>
      <trkpt lat="42.344283700" lon="-2.617136000">
        <ele>1200.80</ele>
        <time>2012-10-20T12:18:02Z</time>
      </trkpt>
      <trkpt lat="42.344269900" lon="-2.617126100">
        <ele>1201.20</ele>
        <time>2012-10-20T12:18:02Z</time>
      </trkpt>
      <trkpt lat="42.344257500" lon="-2.617113100">
        <ele>1201.60</ele>
        <time>2012-10-20T12:18:04Z</time>
      </trkpt>
      <trkpt lat="42.344248000" lon="-2.617103200">
        <ele>1202.20</ele>
        <time>2012-10-20T12:18:05Z</time>
      </trkpt>
      <trkpt lat="42.344237500" lon="-2.617093300">
        <ele>1202.60</ele>
        <time>2012-10-20T12:18:05Z</time>
      </trkpt>
      <trkpt lat="42.344188400" lon="-2.617024400">
        <ele>1202.60</ele>
        <time>2012-10-20T12:18:11Z</time>
      </trkpt>
      <trkpt lat="42.344135100" lon="-2.616959300">
        <ele>1202.60</ele>
        <time>2012-10-20T12:18:16Z</time>
      </trkpt>
      <trkpt lat="42.344119700" lon="-2.616945500">
        <ele>1202.60</ele>
        <time>2012-10-20T12:18:16Z</time>
      </trkpt>
      <trkpt lat="42.344053800" lon="-2.616894200">
        <ele>1202.60</ele>
        <time>2012-10-20T12:18:21Z</time>
      </trkpt>
      <trkpt lat="42.343983200" lon="-2.616796000">
        <ele>1202.60</ele>
        <time>2012-10-20T12:18:26Z</time>
      </trkpt>
      <trkpt lat="42.343945800" lon="-2.616698800">
        <ele>1203.00</ele>
        <time>2012-10-20T12:18:30Z</time>
      </trkpt>
      <trkpt lat="42.343938700" lon="-2.616679500">
        <ele>1203.40</ele>
        <time>2012-10-20T12:18:31Z</time>
      </trkpt>
      <trkpt lat="42.343936400" lon="-2.616653100">
        <ele>1203.80</ele>
        <time>2012-10-20T12:18:33Z</time>
      </trkpt>
      <trkpt lat="42.343936400" lon="-2.616632700">
        <ele>1204.20</ele>
        <time>2012-10-20T12:18:33Z</time>
      </trkpt>
      <trkpt lat="42.343939800" lon="-2.616608800">
        <ele>1204.60</ele>
        <time>2012-10-20T12:18:35Z</time>
      </trkpt>
      <trkpt lat="42.343961100" lon="-2.616574900">
        <ele>1204.60</ele>
        <time>2012-10-20T12:18:37Z</time>
      </trkpt>
      <trkpt lat="42.343975500" lon="-2.616559600">
        <ele>1204.60</ele>
        <time>2012-10-20T12:18:37Z</time>
      </trkpt>
      <trkpt lat="42.344080200" lon="-2.616496100">
        <ele>1204.60</ele>
        <time>2012-10-20T12:18:42Z</time>
      </trkpt>
      <trkpt lat="42.344121400" lon="-2.616464200">
        <ele>1204.60</ele>
        <time>2012-10-20T12:18:45Z</time>
      </trkpt>
      <trkpt lat="42.344153200" lon="-2.616443800">
        <ele>1204.60</ele>
        <time>2012-10-20T12:18:47Z</time>
      </trkpt>
      <trkpt lat="42.344189100" lon="-2.616426800">
        <ele>1204.60</ele>
        <time>2012-10-20T12:18:49Z</time>
      </trkpt>
      <trkpt lat="42.344255300" lon="-2.616408000">
        <ele>1204.60</ele>
        <time>2012-10-20T12:18:52Z</time>
      </trkpt>
      <trkpt lat="42.344346900" lon="-2.616369500">
        <ele>1204.60</ele>
        <time>2012-10-20T12:18:56Z</time>
      </trkpt>
      <trkpt lat="42.344391100" lon="-2.616340300">
        <ele>1204.60</ele>
        <time>2012-10-20T12:18:58Z</time>
      </trkpt>
      <trkpt lat="42.344579900" lon="-2.616245400">
        <ele>1204.60</ele>
        <time>2012-10-20T12:19:06Z</time>
      </trkpt>
      <trkpt lat="42.344697500" lon="-2.616174300">
        <ele>1204.60</ele>
        <time>2012-10-20T12:19:10Z</time>
      </trkpt>
      <trkpt lat="42.344857300" lon="-2.616100900">
        <ele>1205.00</ele>
        <time>2012-10-20T12:19:17Z</time>
      </trkpt>
      <trkpt lat="42.344883700" lon="-2.616085400">
        <ele>1205.60</ele>
        <time>2012-10-20T12:19:17Z</time>
      </trkpt>
      <trkpt lat="42.344936100" lon="-2.616052100">
        <ele>1206.40</ele>
        <time>2012-10-20T12:19:20Z</time>
      </trkpt>
      <trkpt lat="42.344960800" lon="-2.616034200">
        <ele>1206.80</ele>
        <time>2012-10-20T12:19:20Z</time>
      </trkpt>
      <trkpt lat="42.345090600" lon="-2.615938600">
        <ele>1206.80</ele>
        <time>2012-10-20T12:19:25Z</time>
      </trkpt>
      <trkpt lat="42.345223700" lon="-2.615816000">
        <ele>1206.80</ele>
        <time>2012-10-20T12:19:31Z</time>
      </trkpt>
      <trkpt lat="42.345373000" lon="-2.615610300">
        <ele>1206.80</ele>
        <time>2012-10-20T12:19:38Z</time>
      </trkpt>
      <trkpt lat="42.345483900" lon="-2.615422000">
        <ele>1206.80</ele>
        <time>2012-10-20T12:19:43Z</time>
      </trkpt>
      <trkpt lat="42.345545500" lon="-2.615269000">
        <ele>1206.80</ele>
        <time>2012-10-20T12:19:48Z</time>
      </trkpt>
      <trkpt lat="42.345560100" lon="-2.615228700">
        <ele>1206.80</ele>
        <time>2012-10-20T12:19:48Z</time>
      </trkpt>
      <trkpt lat="42.345664500" lon="-2.615030300">
        <ele>1206.80</ele>
        <time>2012-10-20T12:19:55Z</time>
      </trkpt>
      <trkpt lat="42.345749800" lon="-2.614785600">
        <ele>1206.80</ele>
        <time>2012-10-20T12:20:00Z</time>
      </trkpt>
      <trkpt lat="42.345774300" lon="-2.614507900">
        <ele>1206.80</ele>
        <time>2012-10-20T12:20:07Z</time>
      </trkpt>
      <trkpt lat="42.345677500" lon="-2.614281700">
        <ele>1206.80</ele>
        <time>2012-10-20T12:20:12Z</time>
      </trkpt>
      <trkpt lat="42.345558400" lon="-2.614092200">
        <ele>1206.80</ele>
        <time>2012-10-20T12:20:19Z</time>
      </trkpt>
      <trkpt lat="42.345492400" lon="-2.613794400">
        <ele>1206.80</ele>
        <time>2012-10-20T12:20:28Z</time>
      </trkpt>
      <trkpt lat="42.345488900" lon="-2.613737500">
        <ele>1207.20</ele>
        <time>2012-10-20T12:20:30Z</time>
      </trkpt>
      <trkpt lat="42.345490400" lon="-2.613716300">
        <ele>1207.80</ele>
        <time>2012-10-20T12:20:30Z</time>
      </trkpt>
      <trkpt lat="42.345493900" lon="-2.613697600">
        <ele>1208.20</ele>
        <time>2012-10-20T12:20:32Z</time>
      </trkpt>
      <trkpt lat="42.345501100" lon="-2.613687100">
        <ele>1208.60</ele>
        <time>2012-10-20T12:20:33Z</time>
      </trkpt>
      <trkpt lat="42.345507300" lon="-2.613677400">
        <ele>1209.20</ele>
        <time>2012-10-20T12:20:33Z</time>
      </trkpt>
      <trkpt lat="42.345538100" lon="-2.613653000">
        <ele>1209.20</ele>
        <time>2012-10-20T12:20:49Z</time>
      </trkpt>
      <trkpt lat="42.345494500" lon="-2.613650100">
        <ele>1209.20</ele>
        <time>2012-10-20T12:20:54Z</time>
      </trkpt>
      <trkpt lat="42.345485500" lon="-2.613644700">
        <ele>1209.20</ele>
        <time>2012-10-20T12:20:54Z</time>
      </trkpt>
      <trkpt lat="42.345515500" lon="-2.613655900">
        <ele>1209.20</ele>
        <time>2012-10-20T12:23:17Z</time>
      </trkpt>
      <trkpt lat="42.345533700" lon="-2.613652000">
        <ele>1209.20</ele>
        <time>2012-10-20T12:23:19Z</time>
      </trkpt>
      <trkpt lat="42.345575400" lon="-2.613634500">
        <ele>1209.20</ele>
        <time>2012-10-20T12:24:30Z</time>
      </trkpt>
      <trkpt lat="42.345583200" lon="-2.613619000">
        <ele>1209.20</ele>
        <time>2012-10-20T12:24:30Z</time>
      </trkpt>
      <trkpt lat="42.345590400" lon="-2.613597400">
        <ele>1209.20</ele>
        <time>2012-10-20T12:24:32Z</time>
      </trkpt>
      <trkpt lat="42.345601800" lon="-2.613448200">
        <ele>1208.20</ele>
        <time>2012-10-20T12:24:34Z</time>
      </trkpt>
      <trkpt lat="42.345605400" lon="-2.613379400">
        <ele>1207.80</ele>
        <time>2012-10-20T12:24:35Z</time>
      </trkpt>
      <trkpt lat="42.345613000" lon="-2.613301100">
        <ele>1207.00</ele>
        <time>2012-10-20T12:24:37Z</time>
      </trkpt>
      <trkpt lat="42.345655800" lon="-2.613106800">
        <ele>1206.40</ele>
        <time>2012-10-20T12:24:37Z</time>
      </trkpt>
      <trkpt lat="42.345702600" lon="-2.613034500">
        <ele>1205.80</ele>
        <time>2012-10-20T12:24:39Z</time>
      </trkpt>
      <trkpt lat="42.345749200" lon="-2.612973900">
        <ele>1205.20</ele>
        <time>2012-10-20T12:24:39Z</time>
      </trkpt>
      <trkpt lat="42.345802800" lon="-2.612920800">
        <ele>1204.40</ele>
        <time>2012-10-20T12:24:41Z</time>
      </trkpt>
      <trkpt lat="42.345848200" lon="-2.612867200">
        <ele>1203.80</ele>
        <time>2012-10-20T12:24:41Z</time>
      </trkpt>
      <trkpt lat="42.345901700" lon="-2.612812100">
        <ele>1203.00</ele>
        <time>2012-10-20T12:24:42Z</time>
      </trkpt>
      <trkpt lat="42.345953600" lon="-2.612743400">
        <ele>1202.20</ele>
        <time>2012-10-20T12:24:44Z</time>
      </trkpt>
      <trkpt lat="42.346006900" lon="-2.612685500">
        <ele>1201.40</ele>
        <time>2012-10-20T12:24:44Z</time>
      </trkpt>
      <trkpt lat="42.346052300" lon="-2.612635100">
        <ele>1200.60</ele>
        <time>2012-10-20T12:24:46Z</time>
      </trkpt>
      <trkpt lat="42.346107700" lon="-2.612574800">
        <ele>1199.80</ele>
        <time>2012-10-20T12:24:46Z</time>
      </trkpt>
      <trkpt lat="42.346161700" lon="-2.612514300">
        <ele>1198.80</ele>
        <time>2012-10-20T12:24:48Z</time>
      </trkpt>
      <trkpt lat="42.346216500" lon="-2.612451600">
        <ele>1198.00</ele>
        <time>2012-10-20T12:24:48Z</time>
      </trkpt>
      <trkpt lat="42.346266700" lon="-2.612386100">
        <ele>1197.20</ele>
        <time>2012-10-20T12:24:49Z</time>
      </trkpt>
      <trkpt lat="42.346309600" lon="-2.612313600">
        <ele>1196.40</ele>
        <time>2012-10-20T12:24:51Z</time>
      </trkpt>
      <trkpt lat="42.346349400" lon="-2.612232700">
        <ele>1195.60</ele>
        <time>2012-10-20T12:24:51Z</time>
      </trkpt>
      <trkpt lat="42.346385500" lon="-2.612148500">
        <ele>1195.00</ele>
        <time>2012-10-20T12:24:53Z</time>
      </trkpt>
      <trkpt lat="42.346411700" lon="-2.612054700">
        <ele>1194.40</ele>
        <time>2012-10-20T12:24:53Z</time>
      </trkpt>
      <trkpt lat="42.346433600" lon="-2.611958500">
        <ele>1193.40</ele>
        <time>2012-10-20T12:24:55Z</time>
      </trkpt>
      <trkpt lat="42.346447800" lon="-2.611861200">
        <ele>1192.60</ele>
        <time>2012-10-20T12:24:55Z</time>
      </trkpt>
      <trkpt lat="42.346459600" lon="-2.611758400">
        <ele>1191.80</ele>
        <time>2012-10-20T12:24:56Z</time>
      </trkpt>
      <trkpt lat="42.346471200" lon="-2.611660200">
        <ele>1191.00</ele>
        <time>2012-10-20T12:24:58Z</time>
      </trkpt>
      <trkpt lat="42.346494000" lon="-2.611562100">
        <ele>1190.20</ele>
        <time>2012-10-20T12:24:58Z</time>
      </trkpt>
      <trkpt lat="42.346520000" lon="-2.611464700">
        <ele>1189.20</ele>
        <time>2012-10-20T12:25:00Z</time>
      </trkpt>
      <trkpt lat="42.346552500" lon="-2.611370700">
        <ele>1188.20</ele>
        <time>2012-10-20T12:25:00Z</time>
      </trkpt>
      <trkpt lat="42.346591600" lon="-2.611273900">
        <ele>1187.20</ele>
        <time>2012-10-20T12:25:02Z</time>
      </trkpt>
      <trkpt lat="42.346682500" lon="-2.611085000">
        <ele>1185.20</ele>
        <time>2012-10-20T12:25:03Z</time>
      </trkpt>
      <trkpt lat="42.346726000" lon="-2.610995100">
        <ele>1184.00</ele>
        <time>2012-10-20T12:25:05Z</time>
      </trkpt>
      <trkpt lat="42.346774200" lon="-2.610902000">
        <ele>1183.00</ele>
        <time>2012-10-20T12:25:05Z</time>
      </trkpt>
      <trkpt lat="42.346813100" lon="-2.610801600">
        <ele>1182.00</ele>
        <time>2012-10-20T12:25:07Z</time>
      </trkpt>
      <trkpt lat="42.346840300" lon="-2.610699700">
        <ele>1181.00</ele>
        <time>2012-10-20T12:25:07Z</time>
      </trkpt>
      <trkpt lat="42.346859000" lon="-2.610592900">
        <ele>1180.00</ele>
        <time>2012-10-20T12:25:09Z</time>
      </trkpt>
      <trkpt lat="42.346882500" lon="-2.610368400">
        <ele>1178.00</ele>
        <time>2012-10-20T12:25:10Z</time>
      </trkpt>
      <trkpt lat="42.346905400" lon="-2.610263000">
        <ele>1176.80</ele>
        <time>2012-10-20T12:25:12Z</time>
      </trkpt>
      <trkpt lat="42.346944300" lon="-2.610169400">
        <ele>1175.60</ele>
        <time>2012-10-20T12:25:12Z</time>
      </trkpt>
      <trkpt lat="42.346998300" lon="-2.610081600">
        <ele>1174.60</ele>
        <time>2012-10-20T12:25:14Z</time>
      </trkpt>
      <trkpt lat="42.347062800" lon="-2.609997600">
        <ele>1173.40</ele>
        <time>2012-10-20T12:25:14Z</time>
      </trkpt>
      <trkpt lat="42.347132600" lon="-2.609914500">
        <ele>1172.20</ele>
        <time>2012-10-20T12:25:16Z</time>
      </trkpt>
      <trkpt lat="42.347204600" lon="-2.609828200">
        <ele>1171.00</ele>
        <time>2012-10-20T12:25:17Z</time>
      </trkpt>
      <trkpt lat="42.347275800" lon="-2.609735500">
        <ele>1169.80</ele>
        <time>2012-10-20T12:25:17Z</time>
      </trkpt>
      <trkpt lat="42.347345100" lon="-2.609636200">
        <ele>1168.60</ele>
        <time>2012-10-20T12:25:19Z</time>
      </trkpt>
      <trkpt lat="42.347413900" lon="-2.609526500">
        <ele>1167.40</ele>
        <time>2012-10-20T12:25:19Z</time>
      </trkpt>
      <trkpt lat="42.347479800" lon="-2.609412200">
        <ele>1166.20</ele>
        <time>2012-10-20T12:25:21Z</time>
      </trkpt>
      <trkpt lat="42.347540000" lon="-2.609293900">
        <ele>1165.00</ele>
        <time>2012-10-20T12:25:21Z</time>
      </trkpt>
      <trkpt lat="42.347644100" lon="-2.609050500">
        <ele>1163.80</ele>
        <time>2012-10-20T12:25:24Z</time>
      </trkpt>
      <trkpt lat="42.347688800" lon="-2.608929100">
        <ele>1162.40</ele>
        <time>2012-10-20T12:25:24Z</time>
      </trkpt>
      <trkpt lat="42.347729600" lon="-2.608812700">
        <ele>1161.00</ele>
        <time>2012-10-20T12:25:26Z</time>
      </trkpt>
      <trkpt lat="42.347762200" lon="-2.608708500">
        <ele>1159.60</ele>
        <time>2012-10-20T12:25:26Z</time>
      </trkpt>
      <trkpt lat="42.347787500" lon="-2.608613600">
        <ele>1158.20</ele>
        <time>2012-10-20T12:25:28Z</time>
      </trkpt>
      <trkpt lat="42.347805300" lon="-2.608530100">
        <ele>1156.80</ele>
        <time>2012-10-20T12:25:28Z</time>
      </trkpt>
      <trkpt lat="42.347835200" lon="-2.608456700">
        <ele>1155.60</ele>
        <time>2012-10-20T12:25:29Z</time>
      </trkpt>
      <trkpt lat="42.347876400" lon="-2.608404800">
        <ele>1154.20</ele>
        <time>2012-10-20T12:25:31Z</time>
      </trkpt>
      <trkpt lat="42.347941800" lon="-2.608364300">
        <ele>1153.00</ele>
        <time>2012-10-20T12:25:31Z</time>
      </trkpt>
      <trkpt lat="42.348021100" lon="-2.608352100">
        <ele>1151.80</ele>
        <time>2012-10-20T12:25:33Z</time>
      </trkpt>
      <trkpt lat="42.348111900" lon="-2.608354700">
        <ele>1150.80</ele>
        <time>2012-10-20T12:25:33Z</time>
      </trkpt>
      <trkpt lat="42.348210600" lon="-2.608372500">
        <ele>1149.80</ele>
        <time>2012-10-20T12:25:35Z</time>
      </trkpt>
      <trkpt lat="42.348310900" lon="-2.608395200">
        <ele>1149.00</ele>
        <time>2012-10-20T12:25:35Z</time>
      </trkpt>
      <trkpt lat="42.348409000" lon="-2.608416700">
        <ele>1148.00</ele>
        <time>2012-10-20T12:25:36Z</time>
      </trkpt>
      <trkpt lat="42.348507300" lon="-2.608429600">
        <ele>1147.00</ele>
        <time>2012-10-20T12:25:38Z</time>
      </trkpt>
      <trkpt lat="42.348609700" lon="-2.608435600">
        <ele>1146.00</ele>
        <time>2012-10-20T12:25:38Z</time>
      </trkpt>
      <trkpt lat="42.348715300" lon="-2.608430400">
        <ele>1145.00</ele>
        <time>2012-10-20T12:25:40Z</time>
      </trkpt>
      <trkpt lat="42.348821100" lon="-2.608420900">
        <ele>1143.80</ele>
        <time>2012-10-20T12:25:40Z</time>
      </trkpt>
      <trkpt lat="42.348925600" lon="-2.608407700">
        <ele>1142.60</ele>
        <time>2012-10-20T12:25:42Z</time>
      </trkpt>
      <trkpt lat="42.349026200" lon="-2.608393400">
        <ele>1141.40</ele>
        <time>2012-10-20T12:25:42Z</time>
      </trkpt>
      <trkpt lat="42.349122400" lon="-2.608376600">
        <ele>1140.00</ele>
        <time>2012-10-20T12:25:43Z</time>
      </trkpt>
      <trkpt lat="42.349207500" lon="-2.608362500">
        <ele>1138.80</ele>
        <time>2012-10-20T12:25:45Z</time>
      </trkpt>
      <trkpt lat="42.349289700" lon="-2.608350500">
        <ele>1137.40</ele>
        <time>2012-10-20T12:25:45Z</time>
      </trkpt>
      <trkpt lat="42.349370900" lon="-2.608333100">
        <ele>1136.00</ele>
        <time>2012-10-20T12:25:47Z</time>
      </trkpt>
      <trkpt lat="42.349452100" lon="-2.608307200">
        <ele>1134.60</ele>
        <time>2012-10-20T12:25:47Z</time>
      </trkpt>
      <trkpt lat="42.349539100" lon="-2.608269900">
        <ele>1133.40</ele>
        <time>2012-10-20T12:25:49Z</time>
      </trkpt>
      <trkpt lat="42.349623900" lon="-2.608217000">
        <ele>1132.00</ele>
        <time>2012-10-20T12:25:49Z</time>
      </trkpt>
      <trkpt lat="42.349699400" lon="-2.608146400">
        <ele>1130.80</ele>
        <time>2012-10-20T12:25:50Z</time>
      </trkpt>
      <trkpt lat="42.349772700" lon="-2.608065800">
        <ele>1129.60</ele>
        <time>2012-10-20T12:25:52Z</time>
      </trkpt>
      <trkpt lat="42.349918900" lon="-2.607886700">
        <ele>1127.20</ele>
        <time>2012-10-20T12:25:54Z</time>
      </trkpt>
      <trkpt lat="42.349997900" lon="-2.607798700">
        <ele>1126.20</ele>
        <time>2012-10-20T12:25:54Z</time>
      </trkpt>
      <trkpt lat="42.350086000" lon="-2.607721200">
        <ele>1125.00</ele>
        <time>2012-10-20T12:25:56Z</time>
      </trkpt>
      <trkpt lat="42.350170300" lon="-2.607655400">
        <ele>1123.80</ele>
        <time>2012-10-20T12:25:57Z</time>
      </trkpt>
      <trkpt lat="42.350261100" lon="-2.607581700">
        <ele>1123.80</ele>
        <time>2012-10-20T12:25:57Z</time>
      </trkpt>
      <trkpt lat="42.350549500" lon="-2.607317300">
        <ele>1123.80</ele>
        <time>2012-10-20T12:26:01Z</time>
      </trkpt>
      <trkpt lat="42.350636100" lon="-2.607131900">
        <ele>1123.80</ele>
        <time>2012-10-20T12:26:04Z</time>
      </trkpt>
      <trkpt lat="42.350668300" lon="-2.606900300">
        <ele>1123.80</ele>
        <time>2012-10-20T12:26:06Z</time>
      </trkpt>
      <trkpt lat="42.350675800" lon="-2.606776400">
        <ele>1123.40</ele>
        <time>2012-10-20T12:26:06Z</time>
      </trkpt>
      <trkpt lat="42.350712800" lon="-2.606658000">
        <ele>1122.80</ele>
        <time>2012-10-20T12:26:08Z</time>
      </trkpt>
      <trkpt lat="42.350765500" lon="-2.606543800">
        <ele>1122.40</ele>
        <time>2012-10-20T12:26:08Z</time>
      </trkpt>
      <trkpt lat="42.350839300" lon="-2.606441600">
        <ele>1122.00</ele>
        <time>2012-10-20T12:26:10Z</time>
      </trkpt>
      <trkpt lat="42.350925800" lon="-2.606357200">
        <ele>1121.40</ele>
        <time>2012-10-20T12:26:11Z</time>
      </trkpt>
      <trkpt lat="42.351107500" lon="-2.606216400">
        <ele>1121.40</ele>
        <time>2012-10-20T12:26:13Z</time>
      </trkpt>
      <trkpt lat="42.351277100" lon="-2.606066600">
        <ele>1121.40</ele>
        <time>2012-10-20T12:26:15Z</time>
      </trkpt>
      <trkpt lat="42.351350000" lon="-2.605977100">
        <ele>1121.40</ele>
        <time>2012-10-20T12:26:15Z</time>
      </trkpt>
      <trkpt lat="42.351521700" lon="-2.605652100">
        <ele>1121.40</ele>
        <time>2012-10-20T12:26:18Z</time>
      </trkpt>
      <trkpt lat="42.351562700" lon="-2.605528600">
        <ele>1121.40</ele>
        <time>2012-10-20T12:26:20Z</time>
      </trkpt>
      <trkpt lat="42.351699800" lon="-2.604988000">
        <ele>1121.40</ele>
        <time>2012-10-20T12:26:23Z</time>
      </trkpt>
      <trkpt lat="42.351744600" lon="-2.604853300">
        <ele>1121.00</ele>
        <time>2012-10-20T12:26:25Z</time>
      </trkpt>
      <trkpt lat="42.351893200" lon="-2.604447800">
        <ele>1119.80</ele>
        <time>2012-10-20T12:26:27Z</time>
      </trkpt>
      <trkpt lat="42.351948400" lon="-2.604325500">
        <ele>1119.40</ele>
        <time>2012-10-20T12:26:29Z</time>
      </trkpt>
      <trkpt lat="42.352198600" lon="-2.603916800">
        <ele>1119.40</ele>
        <time>2012-10-20T12:26:32Z</time>
      </trkpt>
      <trkpt lat="42.352556700" lon="-2.603726800">
        <ele>1118.60</ele>
        <time>2012-10-20T12:26:36Z</time>
      </trkpt>
      <trkpt lat="42.352661000" lon="-2.603737900">
        <ele>1118.20</ele>
        <time>2012-10-20T12:26:37Z</time>
      </trkpt>
      <trkpt lat="42.352770200" lon="-2.603754700">
        <ele>1117.60</ele>
        <time>2012-10-20T12:26:39Z</time>
      </trkpt>
      <trkpt lat="42.352882100" lon="-2.603770100">
        <ele>1117.20</ele>
        <time>2012-10-20T12:26:39Z</time>
      </trkpt>
      <trkpt lat="42.353224600" lon="-2.603755700">
        <ele>1117.20</ele>
        <time>2012-10-20T12:26:43Z</time>
      </trkpt>
      <trkpt lat="42.353571700" lon="-2.603589100">
        <ele>1117.20</ele>
        <time>2012-10-20T12:26:46Z</time>
      </trkpt>
      <trkpt lat="42.353907400" lon="-2.603374200">
        <ele>1116.80</ele>
        <time>2012-10-20T12:26:48Z</time>
      </trkpt>
      <trkpt lat="42.354115600" lon="-2.603225000">
        <ele>1116.00</ele>
        <time>2012-10-20T12:26:50Z</time>
      </trkpt>
      <trkpt lat="42.354222300" lon="-2.603152600">
        <ele>1115.60</ele>
        <time>2012-10-20T12:26:51Z</time>
      </trkpt>
      <trkpt lat="42.354327600" lon="-2.603085500">
        <ele>1115.20</ele>
        <time>2012-10-20T12:26:53Z</time>
      </trkpt>
      <trkpt lat="42.354553700" lon="-2.602974600">
        <ele>1115.20</ele>
        <time>2012-10-20T12:26:55Z</time>
      </trkpt>
      <trkpt lat="42.354877300" lon="-2.602855400">
        <ele>1114.80</ele>
        <time>2012-10-20T12:26:58Z</time>
      </trkpt>
      <trkpt lat="42.354971400" lon="-2.602826900">
        <ele>1114.20</ele>
        <time>2012-10-20T12:26:58Z</time>
      </trkpt>
      <trkpt lat="42.355059700" lon="-2.602814000">
        <ele>1113.80</ele>
        <time>2012-10-20T12:27:00Z</time>
      </trkpt>
      <trkpt lat="42.355150800" lon="-2.602818400">
        <ele>1113.40</ele>
        <time>2012-10-20T12:27:00Z</time>
      </trkpt>
      <trkpt lat="42.355246800" lon="-2.602844300">
        <ele>1113.00</ele>
        <time>2012-10-20T12:27:02Z</time>
      </trkpt>
      <trkpt lat="42.355344300" lon="-2.602886200">
        <ele>1113.00</ele>
        <time>2012-10-20T12:27:02Z</time>
      </trkpt>
      <trkpt lat="42.355547900" lon="-2.602994800">
        <ele>1113.00</ele>
        <time>2012-10-20T12:27:05Z</time>
      </trkpt>
      <trkpt lat="42.355650700" lon="-2.603032700">
        <ele>1113.00</ele>
        <time>2012-10-20T12:27:05Z</time>
      </trkpt>
      <trkpt lat="42.355762900" lon="-2.603051700">
        <ele>1113.00</ele>
        <time>2012-10-20T12:27:07Z</time>
      </trkpt>
      <trkpt lat="42.356099300" lon="-2.603100500">
        <ele>1113.00</ele>
        <time>2012-10-20T12:27:09Z</time>
      </trkpt>
      <trkpt lat="42.356206700" lon="-2.603131000">
        <ele>1112.60</ele>
        <time>2012-10-20T12:27:11Z</time>
      </trkpt>
      <trkpt lat="42.356309700" lon="-2.603167200">
        <ele>1112.00</ele>
        <time>2012-10-20T12:27:12Z</time>
      </trkpt>
      <trkpt lat="42.356405300" lon="-2.603194100">
        <ele>1111.60</ele>
        <time>2012-10-20T12:27:12Z</time>
      </trkpt>
      <trkpt lat="42.356510900" lon="-2.603186800">
        <ele>1111.20</ele>
        <time>2012-10-20T12:27:14Z</time>
      </trkpt>
      <trkpt lat="42.356615400" lon="-2.603157900">
        <ele>1110.80</ele>
        <time>2012-10-20T12:27:14Z</time>
      </trkpt>
      <trkpt lat="42.357058400" lon="-2.602923300">
        <ele>1110.80</ele>
        <time>2012-10-20T12:27:19Z</time>
      </trkpt>
      <trkpt lat="42.357170600" lon="-2.602884900">
        <ele>1110.80</ele>
        <time>2012-10-20T12:27:19Z</time>
      </trkpt>
      <trkpt lat="42.357381600" lon="-2.602857100">
        <ele>1110.80</ele>
        <time>2012-10-20T12:27:21Z</time>
      </trkpt>
      <trkpt lat="42.357491600" lon="-2.602862800">
        <ele>1110.80</ele>
        <time>2012-10-20T12:27:23Z</time>
      </trkpt>
      <trkpt lat="42.357714700" lon="-2.602885100">
        <ele>1110.40</ele>
        <time>2012-10-20T12:27:24Z</time>
      </trkpt>
      <trkpt lat="42.357833800" lon="-2.602920700">
        <ele>1110.00</ele>
        <time>2012-10-20T12:27:26Z</time>
      </trkpt>
      <trkpt lat="42.357961700" lon="-2.602981700">
        <ele>1109.40</ele>
        <time>2012-10-20T12:27:26Z</time>
      </trkpt>
      <trkpt lat="42.358088200" lon="-2.603017000">
        <ele>1109.00</ele>
        <time>2012-10-20T12:27:28Z</time>
      </trkpt>
      <trkpt lat="42.358207000" lon="-2.603044200">
        <ele>1108.60</ele>
        <time>2012-10-20T12:27:28Z</time>
      </trkpt>
      <trkpt lat="42.358703500" lon="-2.603134600">
        <ele>1108.60</ele>
        <time>2012-10-20T12:27:33Z</time>
      </trkpt>
      <trkpt lat="42.359112300" lon="-2.603124500">
        <ele>1108.20</ele>
        <time>2012-10-20T12:27:35Z</time>
      </trkpt>
      <trkpt lat="42.359248600" lon="-2.603122200">
        <ele>1107.80</ele>
        <time>2012-10-20T12:27:37Z</time>
      </trkpt>
      <trkpt lat="42.359385100" lon="-2.603116400">
        <ele>1107.40</ele>
        <time>2012-10-20T12:27:37Z</time>
      </trkpt>
      <trkpt lat="42.359508700" lon="-2.603121600">
        <ele>1106.80</ele>
        <time>2012-10-20T12:27:38Z</time>
      </trkpt>
      <trkpt lat="42.359623700" lon="-2.603126500">
        <ele>1106.40</ele>
        <time>2012-10-20T12:27:40Z</time>
      </trkpt>
      <trkpt lat="42.359743800" lon="-2.603130800">
        <ele>1106.40</ele>
        <time>2012-10-20T12:27:40Z</time>
      </trkpt>
      <trkpt lat="42.359990700" lon="-2.603145700">
        <ele>1106.40</ele>
        <time>2012-10-20T12:27:42Z</time>
      </trkpt>
      <trkpt lat="42.360115100" lon="-2.603162500">
        <ele>1106.40</ele>
        <time>2012-10-20T12:27:44Z</time>
      </trkpt>
      <trkpt lat="42.360473900" lon="-2.603314900">
        <ele>1106.40</ele>
        <time>2012-10-20T12:27:47Z</time>
      </trkpt>
      <trkpt lat="42.360588100" lon="-2.603382100">
        <ele>1106.40</ele>
        <time>2012-10-20T12:27:47Z</time>
      </trkpt>
      <trkpt lat="42.360824400" lon="-2.603524200">
        <ele>1106.00</ele>
        <time>2012-10-20T12:27:49Z</time>
      </trkpt>
      <trkpt lat="42.360939000" lon="-2.603589600">
        <ele>1105.60</ele>
        <time>2012-10-20T12:27:51Z</time>
      </trkpt>
      <trkpt lat="42.361053300" lon="-2.603642800">
        <ele>1105.20</ele>
        <time>2012-10-20T12:27:52Z</time>
      </trkpt>
      <trkpt lat="42.361161600" lon="-2.603687800">
        <ele>1104.80</ele>
        <time>2012-10-20T12:27:52Z</time>
      </trkpt>
      <trkpt lat="42.361272000" lon="-2.603721900">
        <ele>1104.40</ele>
        <time>2012-10-20T12:27:54Z</time>
      </trkpt>
      <trkpt lat="42.361467700" lon="-2.603770800">
        <ele>1104.40</ele>
        <time>2012-10-20T12:27:56Z</time>
      </trkpt>
      <trkpt lat="42.361573400" lon="-2.603772400">
        <ele>1104.40</ele>
        <time>2012-10-20T12:27:56Z</time>
      </trkpt>
      <trkpt lat="42.361793600" lon="-2.603731600">
        <ele>1104.40</ele>
        <time>2012-10-20T12:27:59Z</time>
      </trkpt>
      <trkpt lat="42.362236900" lon="-2.603531900">
        <ele>1104.00</ele>
        <time>2012-10-20T12:28:03Z</time>
      </trkpt>
      <trkpt lat="42.362351100" lon="-2.603471300">
        <ele>1103.60</ele>
        <time>2012-10-20T12:28:03Z</time>
      </trkpt>
      <trkpt lat="42.362469400" lon="-2.603420200">
        <ele>1103.20</ele>
        <time>2012-10-20T12:28:05Z</time>
      </trkpt>
      <trkpt lat="42.362585400" lon="-2.603374700">
        <ele>1102.80</ele>
        <time>2012-10-20T12:28:06Z</time>
      </trkpt>
      <trkpt lat="42.362715100" lon="-2.603339500">
        <ele>1102.40</ele>
        <time>2012-10-20T12:28:06Z</time>
      </trkpt>
      <trkpt lat="42.363081700" lon="-2.603283900">
        <ele>1102.40</ele>
        <time>2012-10-20T12:28:10Z</time>
      </trkpt>
      <trkpt lat="42.363305500" lon="-2.603200000">
        <ele>1102.40</ele>
        <time>2012-10-20T12:28:12Z</time>
      </trkpt>
      <trkpt lat="42.363417500" lon="-2.603137700">
        <ele>1102.40</ele>
        <time>2012-10-20T12:28:13Z</time>
      </trkpt>
      <trkpt lat="42.363525100" lon="-2.603070400">
        <ele>1101.80</ele>
        <time>2012-10-20T12:28:13Z</time>
      </trkpt>
      <trkpt lat="42.363635400" lon="-2.603006100">
        <ele>1101.40</ele>
        <time>2012-10-20T12:28:15Z</time>
      </trkpt>
      <trkpt lat="42.363746100" lon="-2.602948300">
        <ele>1101.00</ele>
        <time>2012-10-20T12:28:15Z</time>
      </trkpt>
      <trkpt lat="42.363966000" lon="-2.602850300">
        <ele>1100.20</ele>
        <time>2012-10-20T12:28:17Z</time>
      </trkpt>
      <trkpt lat="42.364297900" lon="-2.602722600">
        <ele>1100.20</ele>
        <time>2012-10-20T12:28:20Z</time>
      </trkpt>
      <trkpt lat="42.364400900" lon="-2.602667700">
        <ele>1100.20</ele>
        <time>2012-10-20T12:28:22Z</time>
      </trkpt>
      <trkpt lat="42.364731500" lon="-2.602500600">
        <ele>1099.80</ele>
        <time>2012-10-20T12:28:24Z</time>
      </trkpt>
      <trkpt lat="42.364838700" lon="-2.602459300">
        <ele>1099.20</ele>
        <time>2012-10-20T12:28:25Z</time>
      </trkpt>
      <trkpt lat="42.364938200" lon="-2.602429200">
        <ele>1098.80</ele>
        <time>2012-10-20T12:28:27Z</time>
      </trkpt>
      <trkpt lat="42.365027600" lon="-2.602388300">
        <ele>1098.40</ele>
        <time>2012-10-20T12:28:27Z</time>
      </trkpt>
      <trkpt lat="42.365106000" lon="-2.602341500">
        <ele>1098.00</ele>
        <time>2012-10-20T12:28:29Z</time>
      </trkpt>
      <trkpt lat="42.365282900" lon="-2.602154500">
        <ele>1098.00</ele>
        <time>2012-10-20T12:28:31Z</time>
      </trkpt>
      <trkpt lat="42.365432500" lon="-2.602065900">
        <ele>1098.00</ele>
        <time>2012-10-20T12:28:34Z</time>
      </trkpt>
      <trkpt lat="42.365526300" lon="-2.602037500">
        <ele>1098.00</ele>
        <time>2012-10-20T12:28:34Z</time>
      </trkpt>
      <trkpt lat="42.365970400" lon="-2.602053100">
        <ele>1097.60</ele>
        <time>2012-10-20T12:28:38Z</time>
      </trkpt>
      <trkpt lat="42.366074700" lon="-2.602064200">
        <ele>1097.00</ele>
        <time>2012-10-20T12:28:39Z</time>
      </trkpt>
      <trkpt lat="42.366172700" lon="-2.602075100">
        <ele>1096.60</ele>
        <time>2012-10-20T12:28:41Z</time>
      </trkpt>
      <trkpt lat="42.366266000" lon="-2.602094500">
        <ele>1096.00</ele>
        <time>2012-10-20T12:28:41Z</time>
      </trkpt>
      <trkpt lat="42.366355100" lon="-2.602122700">
        <ele>1095.60</ele>
        <time>2012-10-20T12:28:43Z</time>
      </trkpt>
      <trkpt lat="42.366451100" lon="-2.602170900">
        <ele>1095.60</ele>
        <time>2012-10-20T12:28:43Z</time>
      </trkpt>
      <trkpt lat="42.366653200" lon="-2.602309200">
        <ele>1095.60</ele>
        <time>2012-10-20T12:28:46Z</time>
      </trkpt>
      <trkpt lat="42.366825200" lon="-2.602451900">
        <ele>1095.60</ele>
        <time>2012-10-20T12:28:48Z</time>
      </trkpt>
      <trkpt lat="42.366902700" lon="-2.602506000">
        <ele>1095.60</ele>
        <time>2012-10-20T12:28:48Z</time>
      </trkpt>
      <trkpt lat="42.367059600" lon="-2.602612000">
        <ele>1095.20</ele>
        <time>2012-10-20T12:28:50Z</time>
      </trkpt>
      <trkpt lat="42.367139000" lon="-2.602671800">
        <ele>1094.80</ele>
        <time>2012-10-20T12:28:52Z</time>
      </trkpt>
      <trkpt lat="42.367213600" lon="-2.602745400">
        <ele>1094.40</ele>
        <time>2012-10-20T12:28:53Z</time>
      </trkpt>
      <trkpt lat="42.367272800" lon="-2.602836900">
        <ele>1093.80</ele>
        <time>2012-10-20T12:28:53Z</time>
      </trkpt>
      <trkpt lat="42.367320500" lon="-2.602932000">
        <ele>1093.40</ele>
        <time>2012-10-20T12:28:55Z</time>
      </trkpt>
      <trkpt lat="42.367453200" lon="-2.603304200">
        <ele>1093.40</ele>
        <time>2012-10-20T12:28:59Z</time>
      </trkpt>
      <trkpt lat="42.367499700" lon="-2.603380200">
        <ele>1093.40</ele>
        <time>2012-10-20T12:29:00Z</time>
      </trkpt>
      <trkpt lat="42.367556900" lon="-2.603438500">
        <ele>1093.40</ele>
        <time>2012-10-20T12:29:00Z</time>
      </trkpt>
      <trkpt lat="42.367692100" lon="-2.603519300">
        <ele>1093.40</ele>
        <time>2012-10-20T12:29:02Z</time>
      </trkpt>
      <trkpt lat="42.367846100" lon="-2.603462100">
        <ele>1093.40</ele>
        <time>2012-10-20T12:29:06Z</time>
      </trkpt>
      <trkpt lat="42.367941400" lon="-2.603248300">
        <ele>1093.40</ele>
        <time>2012-10-20T12:29:07Z</time>
      </trkpt>
      <trkpt lat="42.367984700" lon="-2.603124800">
        <ele>1093.40</ele>
        <time>2012-10-20T12:29:09Z</time>
      </trkpt>
      <trkpt lat="42.368044600" lon="-2.603012200">
        <ele>1093.40</ele>
        <time>2012-10-20T12:29:09Z</time>
      </trkpt>
      <trkpt lat="42.368170200" lon="-2.602803700">
        <ele>1093.00</ele>
        <time>2012-10-20T12:29:11Z</time>
      </trkpt>
      <trkpt lat="42.368247600" lon="-2.602728400">
        <ele>1092.60</ele>
        <time>2012-10-20T12:29:12Z</time>
      </trkpt>
      <trkpt lat="42.368346700" lon="-2.602661900">
        <ele>1092.00</ele>
        <time>2012-10-20T12:29:14Z</time>
      </trkpt>
      <trkpt lat="42.368445900" lon="-2.602616400">
        <ele>1091.60</ele>
        <time>2012-10-20T12:29:14Z</time>
      </trkpt>
      <trkpt lat="42.368554500" lon="-2.602618000">
        <ele>1091.20</ele>
        <time>2012-10-20T12:29:16Z</time>
      </trkpt>
      <trkpt lat="42.369048500" lon="-2.602524900">
        <ele>1091.20</ele>
        <time>2012-10-20T12:29:21Z</time>
      </trkpt>
      <trkpt lat="42.369365800" lon="-2.602394300">
        <ele>1091.20</ele>
        <time>2012-10-20T12:29:26Z</time>
      </trkpt>
      <trkpt lat="42.369707900" lon="-2.602343400">
        <ele>1091.20</ele>
        <time>2012-10-20T12:29:32Z</time>
      </trkpt>
      <trkpt lat="42.370127700" lon="-2.602241700">
        <ele>1091.20</ele>
        <time>2012-10-20T12:29:42Z</time>
      </trkpt>
      <trkpt lat="42.370158900" lon="-2.602242100">
        <ele>1091.20</ele>
        <time>2012-10-20T12:29:42Z</time>
      </trkpt>
      <trkpt lat="42.370203400" lon="-2.602237900">
        <ele>1091.20</ele>
        <time>2012-10-20T12:29:46Z</time>
      </trkpt>
      <trkpt lat="42.370224700" lon="-2.602237800">
        <ele>1090.80</ele>
        <time>2012-10-20T12:29:47Z</time>
      </trkpt>
      <trkpt lat="42.370268700" lon="-2.602232900">
        <ele>1090.40</ele>
        <time>2012-10-20T12:29:47Z</time>
      </trkpt>
      <trkpt lat="42.370323200" lon="-2.602224900">
        <ele>1090.00</ele>
        <time>2012-10-20T12:29:49Z</time>
      </trkpt>
      <trkpt lat="42.370381600" lon="-2.602206100">
        <ele>1089.60</ele>
        <time>2012-10-20T12:29:49Z</time>
      </trkpt>
      <trkpt lat="42.370436000" lon="-2.602192000">
        <ele>1089.20</ele>
        <time>2012-10-20T12:29:51Z</time>
      </trkpt>
      <trkpt lat="42.370580400" lon="-2.602146900">
        <ele>1089.20</ele>
        <time>2012-10-20T12:29:54Z</time>
      </trkpt>
      <trkpt lat="42.370624900" lon="-2.602144700">
        <ele>1089.20</ele>
        <time>2012-10-20T12:29:54Z</time>
      </trkpt>
      <trkpt lat="42.370718300" lon="-2.602129400">
        <ele>1089.20</ele>
        <time>2012-10-20T12:29:56Z</time>
      </trkpt>
      <trkpt lat="42.370815200" lon="-2.602093500">
        <ele>1089.20</ele>
        <time>2012-10-20T12:29:58Z</time>
      </trkpt>
      <trkpt lat="42.370970700" lon="-2.601997900">
        <ele>1089.20</ele>
        <time>2012-10-20T12:30:01Z</time>
      </trkpt>
      <trkpt lat="42.371075400" lon="-2.601944400">
        <ele>1089.20</ele>
        <time>2012-10-20T12:30:03Z</time>
      </trkpt>
      <trkpt lat="42.371145800" lon="-2.601929800">
        <ele>1089.20</ele>
        <time>2012-10-20T12:30:05Z</time>
      </trkpt>
      <trkpt lat="42.371186900" lon="-2.601918900">
        <ele>1088.60</ele>
        <time>2012-10-20T12:30:08Z</time>
      </trkpt>
      <trkpt lat="42.371210400" lon="-2.601915100">
        <ele>1088.20</ele>
        <time>2012-10-20T12:30:08Z</time>
      </trkpt>
      <trkpt lat="42.371240300" lon="-2.601905000">
        <ele>1087.80</ele>
        <time>2012-10-20T12:30:10Z</time>
      </trkpt>
      <trkpt lat="42.371279300" lon="-2.601888200">
        <ele>1087.40</ele>
        <time>2012-10-20T12:30:10Z</time>
      </trkpt>
      <trkpt lat="42.371330400" lon="-2.601867400">
        <ele>1087.00</ele>
        <time>2012-10-20T12:30:12Z</time>
      </trkpt>
      <trkpt lat="42.371453400" lon="-2.601818500">
        <ele>1087.00</ele>
        <time>2012-10-20T12:30:13Z</time>
      </trkpt>
      <trkpt lat="42.371777600" lon="-2.601668800">
        <ele>1087.00</ele>
        <time>2012-10-20T12:30:17Z</time>
      </trkpt>
      <trkpt lat="42.372286700" lon="-2.601402800">
        <ele>1086.60</ele>
        <time>2012-10-20T12:30:24Z</time>
      </trkpt>
      <trkpt lat="42.372380900" lon="-2.601360200">
        <ele>1086.20</ele>
        <time>2012-10-20T12:30:24Z</time>
      </trkpt>
      <trkpt lat="42.372477500" lon="-2.601313500">
        <ele>1085.80</ele>
        <time>2012-10-20T12:30:26Z</time>
      </trkpt>
      <trkpt lat="42.372574200" lon="-2.601255100">
        <ele>1085.20</ele>
        <time>2012-10-20T12:30:26Z</time>
      </trkpt>
      <trkpt lat="42.372675800" lon="-2.601187900">
        <ele>1084.80</ele>
        <time>2012-10-20T12:30:27Z</time>
      </trkpt>
      <trkpt lat="42.372976300" lon="-2.600964600">
        <ele>1084.80</ele>
        <time>2012-10-20T12:30:31Z</time>
      </trkpt>
      <trkpt lat="42.373188700" lon="-2.600828600">
        <ele>1084.80</ele>
        <time>2012-10-20T12:30:33Z</time>
      </trkpt>
      <trkpt lat="42.373397900" lon="-2.600692800">
        <ele>1084.40</ele>
        <time>2012-10-20T12:30:34Z</time>
      </trkpt>
      <trkpt lat="42.373491800" lon="-2.600619100">
        <ele>1084.00</ele>
        <time>2012-10-20T12:30:36Z</time>
      </trkpt>
      <trkpt lat="42.373583200" lon="-2.600529100">
        <ele>1083.60</ele>
        <time>2012-10-20T12:30:36Z</time>
      </trkpt>
      <trkpt lat="42.373675900" lon="-2.600431900">
        <ele>1083.20</ele>
        <time>2012-10-20T12:30:38Z</time>
      </trkpt>
      <trkpt lat="42.373760400" lon="-2.600330900">
        <ele>1082.80</ele>
        <time>2012-10-20T12:30:38Z</time>
      </trkpt>
      <trkpt lat="42.373989000" lon="-2.599994000">
        <ele>1082.80</ele>
        <time>2012-10-20T12:30:41Z</time>
      </trkpt>
      <trkpt lat="42.374133600" lon="-2.599768400">
        <ele>1082.80</ele>
        <time>2012-10-20T12:30:43Z</time>
      </trkpt>
      <trkpt lat="42.374212100" lon="-2.599658300">
        <ele>1082.80</ele>
        <time>2012-10-20T12:30:45Z</time>
      </trkpt>
      <trkpt lat="42.374300300" lon="-2.599554500">
        <ele>1082.40</ele>
        <time>2012-10-20T12:30:45Z</time>
      </trkpt>
      <trkpt lat="42.374394800" lon="-2.599451600">
        <ele>1081.80</ele>
        <time>2012-10-20T12:30:47Z</time>
      </trkpt>
      <trkpt lat="42.374499000" lon="-2.599356200">
        <ele>1081.40</ele>
        <time>2012-10-20T12:30:48Z</time>
      </trkpt>
      <trkpt lat="42.374646600" lon="-2.599273900">
        <ele>1081.00</ele>
        <time>2012-10-20T12:30:48Z</time>
      </trkpt>
      <trkpt lat="42.374763800" lon="-2.599189000">
        <ele>1080.60</ele>
        <time>2012-10-20T12:30:50Z</time>
      </trkpt>
      <trkpt lat="42.375059200" lon="-2.598961500">
        <ele>1080.60</ele>
        <time>2012-10-20T12:30:52Z</time>
      </trkpt>
      <trkpt lat="42.375148800" lon="-2.598863400">
        <ele>1080.60</ele>
        <time>2012-10-20T12:30:54Z</time>
      </trkpt>
      <trkpt lat="42.375256800" lon="-2.598767900">
        <ele>1080.20</ele>
        <time>2012-10-20T12:30:55Z</time>
      </trkpt>
      <trkpt lat="42.375366100" lon="-2.598643100">
        <ele>1079.80</ele>
        <time>2012-10-20T12:30:55Z</time>
      </trkpt>
      <trkpt lat="42.375485500" lon="-2.598545400">
        <ele>1079.40</ele>
        <time>2012-10-20T12:30:57Z</time>
      </trkpt>
      <trkpt lat="42.375587700" lon="-2.598464400">
        <ele>1079.00</ele>
        <time>2012-10-20T12:30:57Z</time>
      </trkpt>
      <trkpt lat="42.375674500" lon="-2.598392000">
        <ele>1078.60</ele>
        <time>2012-10-20T12:30:59Z</time>
      </trkpt>
      <trkpt lat="42.376163800" lon="-2.598040500">
        <ele>1078.60</ele>
        <time>2012-10-20T12:31:04Z</time>
      </trkpt>
      <trkpt lat="42.376255300" lon="-2.597982900">
        <ele>1078.20</ele>
        <time>2012-10-20T12:31:04Z</time>
      </trkpt>
      <trkpt lat="42.376352500" lon="-2.597917700">
        <ele>1077.60</ele>
        <time>2012-10-20T12:31:06Z</time>
      </trkpt>
      <trkpt lat="42.376447200" lon="-2.597839300">
        <ele>1077.20</ele>
        <time>2012-10-20T12:31:06Z</time>
      </trkpt>
      <trkpt lat="42.376531100" lon="-2.597760400">
        <ele>1076.80</ele>
        <time>2012-10-20T12:31:07Z</time>
      </trkpt>
      <trkpt lat="42.376618500" lon="-2.597639600">
        <ele>1076.40</ele>
        <time>2012-10-20T12:31:09Z</time>
      </trkpt>
      <trkpt lat="42.376693300" lon="-2.597457400">
        <ele>1076.40</ele>
        <time>2012-10-20T12:31:09Z</time>
      </trkpt>
      <trkpt lat="42.377024800" lon="-2.596951600">
        <ele>1076.40</ele>
        <time>2012-10-20T12:31:13Z</time>
      </trkpt>
      <trkpt lat="42.377129200" lon="-2.596858100">
        <ele>1076.00</ele>
        <time>2012-10-20T12:31:14Z</time>
      </trkpt>
      <trkpt lat="42.377231300" lon="-2.596770600">
        <ele>1075.60</ele>
        <time>2012-10-20T12:31:16Z</time>
      </trkpt>
      <trkpt lat="42.377335700" lon="-2.596663800">
        <ele>1075.20</ele>
        <time>2012-10-20T12:31:16Z</time>
      </trkpt>
      <trkpt lat="42.377451300" lon="-2.596584900">
        <ele>1074.80</ele>
        <time>2012-10-20T12:31:18Z</time>
      </trkpt>
      <trkpt lat="42.377569200" lon="-2.596507700">
        <ele>1074.40</ele>
        <time>2012-10-20T12:31:18Z</time>
      </trkpt>
      <trkpt lat="42.377901200" lon="-2.596309400">
        <ele>1074.40</ele>
        <time>2012-10-20T12:31:21Z</time>
      </trkpt>
      <trkpt lat="42.378010100" lon="-2.596258700">
        <ele>1074.40</ele>
        <time>2012-10-20T12:31:23Z</time>
      </trkpt>
      <trkpt lat="42.378228200" lon="-2.596149400">
        <ele>1074.00</ele>
        <time>2012-10-20T12:31:25Z</time>
      </trkpt>
      <trkpt lat="42.378333600" lon="-2.596081600">
        <ele>1073.60</ele>
        <time>2012-10-20T12:31:25Z</time>
      </trkpt>
      <trkpt lat="42.378434000" lon="-2.596007000">
        <ele>1073.20</ele>
        <time>2012-10-20T12:31:27Z</time>
      </trkpt>
      <trkpt lat="42.378522100" lon="-2.595938900">
        <ele>1072.80</ele>
        <time>2012-10-20T12:31:28Z</time>
      </trkpt>
      <trkpt lat="42.378608900" lon="-2.595875200">
        <ele>1072.40</ele>
        <time>2012-10-20T12:31:28Z</time>
      </trkpt>
      <trkpt lat="42.378704100" lon="-2.595837600">
        <ele>1072.40</ele>
        <time>2012-10-20T12:31:30Z</time>
      </trkpt>
      <trkpt lat="42.378797400" lon="-2.595795600">
        <ele>1072.00</ele>
        <time>2012-10-20T12:31:30Z</time>
      </trkpt>
      <trkpt lat="42.378894600" lon="-2.595755600">
        <ele>1071.60</ele>
        <time>2012-10-20T12:31:32Z</time>
      </trkpt>
      <trkpt lat="42.378989300" lon="-2.595711800">
        <ele>1071.20</ele>
        <time>2012-10-20T12:31:32Z</time>
      </trkpt>
      <trkpt lat="42.379081800" lon="-2.595655500">
        <ele>1071.20</ele>
        <time>2012-10-20T12:31:34Z</time>
      </trkpt>
      <trkpt lat="42.379166000" lon="-2.595598800">
        <ele>1070.40</ele>
        <time>2012-10-20T12:31:35Z</time>
      </trkpt>
      <trkpt lat="42.379230000" lon="-2.595538100">
        <ele>1070.40</ele>
        <time>2012-10-20T12:31:35Z</time>
      </trkpt>
      <trkpt lat="42.379289800" lon="-2.595462700">
        <ele>1070.40</ele>
        <time>2012-10-20T12:31:37Z</time>
      </trkpt>
      <trkpt lat="42.379377700" lon="-2.595252100">
        <ele>1070.00</ele>
        <time>2012-10-20T12:31:39Z</time>
      </trkpt>
      <trkpt lat="42.379412100" lon="-2.595118000">
        <ele>1069.60</ele>
        <time>2012-10-20T12:31:39Z</time>
      </trkpt>
      <trkpt lat="42.379454500" lon="-2.594975500">
        <ele>1069.20</ele>
        <time>2012-10-20T12:31:41Z</time>
      </trkpt>
      <trkpt lat="42.379498100" lon="-2.594851700">
        <ele>1068.80</ele>
        <time>2012-10-20T12:31:42Z</time>
      </trkpt>
      <trkpt lat="42.379550600" lon="-2.594732000">
        <ele>1068.20</ele>
        <time>2012-10-20T12:31:42Z</time>
      </trkpt>
      <trkpt lat="42.379683300" lon="-2.594515500">
        <ele>1067.80</ele>
        <time>2012-10-20T12:31:44Z</time>
      </trkpt>
      <trkpt lat="42.379819600" lon="-2.594320700">
        <ele>1067.00</ele>
        <time>2012-10-20T12:31:46Z</time>
      </trkpt>
      <trkpt lat="42.379882000" lon="-2.594233300">
        <ele>1066.60</ele>
        <time>2012-10-20T12:31:48Z</time>
      </trkpt>
      <trkpt lat="42.379947300" lon="-2.594147100">
        <ele>1066.20</ele>
        <time>2012-10-20T12:31:49Z</time>
      </trkpt>
      <trkpt lat="42.380008500" lon="-2.594068800">
        <ele>1066.20</ele>
        <time>2012-10-20T12:31:49Z</time>
      </trkpt>
      <trkpt lat="42.380059000" lon="-2.593978300">
        <ele>1066.20</ele>
        <time>2012-10-20T12:31:51Z</time>
      </trkpt>
      <trkpt lat="42.380125500" lon="-2.593762300">
        <ele>1066.20</ele>
        <time>2012-10-20T12:31:53Z</time>
      </trkpt>
      <trkpt lat="42.380132100" lon="-2.593639500">
        <ele>1065.80</ele>
        <time>2012-10-20T12:31:53Z</time>
      </trkpt>
      <trkpt lat="42.380127200" lon="-2.593512500">
        <ele>1065.20</ele>
        <time>2012-10-20T12:31:54Z</time>
      </trkpt>
      <trkpt lat="42.380101100" lon="-2.593394500">
        <ele>1064.80</ele>
        <time>2012-10-20T12:31:56Z</time>
      </trkpt>
      <trkpt lat="42.380060800" lon="-2.593287800">
        <ele>1064.40</ele>
        <time>2012-10-20T12:31:56Z</time>
      </trkpt>
      <trkpt lat="42.380012900" lon="-2.593189500">
        <ele>1063.80</ele>
        <time>2012-10-20T12:31:58Z</time>
      </trkpt>
      <trkpt lat="42.379955700" lon="-2.593102800">
        <ele>1063.80</ele>
        <time>2012-10-20T12:31:58Z</time>
      </trkpt>
      <trkpt lat="42.379807000" lon="-2.592816900">
        <ele>1063.40</ele>
        <time>2012-10-20T12:32:01Z</time>
      </trkpt>
      <trkpt lat="42.379771400" lon="-2.592710400">
        <ele>1063.00</ele>
        <time>2012-10-20T12:32:03Z</time>
      </trkpt>
      <trkpt lat="42.379743800" lon="-2.592603800">
        <ele>1062.60</ele>
        <time>2012-10-20T12:32:03Z</time>
      </trkpt>
      <trkpt lat="42.379718100" lon="-2.592497100">
        <ele>1062.20</ele>
        <time>2012-10-20T12:32:05Z</time>
      </trkpt>
      <trkpt lat="42.379692600" lon="-2.592392100">
        <ele>1061.60</ele>
        <time>2012-10-20T12:32:05Z</time>
      </trkpt>
      <trkpt lat="42.379615200" lon="-2.592080500">
        <ele>1061.20</ele>
        <time>2012-10-20T12:32:08Z</time>
      </trkpt>
      <trkpt lat="42.379568800" lon="-2.591876700">
        <ele>1060.40</ele>
        <time>2012-10-20T12:32:10Z</time>
      </trkpt>
      <trkpt lat="42.379543700" lon="-2.591774800">
        <ele>1059.80</ele>
        <time>2012-10-20T12:32:12Z</time>
      </trkpt>
      <trkpt lat="42.379521200" lon="-2.591680400">
        <ele>1059.40</ele>
        <time>2012-10-20T12:32:12Z</time>
      </trkpt>
      <trkpt lat="42.379440300" lon="-2.591389900">
        <ele>1059.40</ele>
        <time>2012-10-20T12:32:15Z</time>
      </trkpt>
      <trkpt lat="42.379413100" lon="-2.591290300">
        <ele>1059.00</ele>
        <time>2012-10-20T12:32:17Z</time>
      </trkpt>
      <trkpt lat="42.379383100" lon="-2.591189800">
        <ele>1058.60</ele>
        <time>2012-10-20T12:32:17Z</time>
      </trkpt>
      <trkpt lat="42.379357300" lon="-2.591089300">
        <ele>1058.00</ele>
        <time>2012-10-20T12:32:19Z</time>
      </trkpt>
      <trkpt lat="42.379327700" lon="-2.590980900">
        <ele>1057.60</ele>
        <time>2012-10-20T12:32:19Z</time>
      </trkpt>
      <trkpt lat="42.379300100" lon="-2.590879200">
        <ele>1057.20</ele>
        <time>2012-10-20T12:32:21Z</time>
      </trkpt>
      <trkpt lat="42.379223300" lon="-2.590568000">
        <ele>1056.80</ele>
        <time>2012-10-20T12:32:24Z</time>
      </trkpt>
      <trkpt lat="42.379197600" lon="-2.590468700">
        <ele>1056.40</ele>
        <time>2012-10-20T12:32:24Z</time>
      </trkpt>
      <trkpt lat="42.379170700" lon="-2.590373000">
        <ele>1056.00</ele>
        <time>2012-10-20T12:32:26Z</time>
      </trkpt>
      <trkpt lat="42.379142200" lon="-2.590271900">
        <ele>1056.00</ele>
        <time>2012-10-20T12:32:26Z</time>
      </trkpt>
      <trkpt lat="42.379118200" lon="-2.590177000">
        <ele>1055.60</ele>
        <time>2012-10-20T12:32:28Z</time>
      </trkpt>
      <trkpt lat="42.379096600" lon="-2.590085500">
        <ele>1055.20</ele>
        <time>2012-10-20T12:32:29Z</time>
      </trkpt>
      <trkpt lat="42.379084500" lon="-2.589991100">
        <ele>1055.20</ele>
        <time>2012-10-20T12:32:29Z</time>
      </trkpt>
      <trkpt lat="42.379082200" lon="-2.589907600">
        <ele>1055.20</ele>
        <time>2012-10-20T12:32:31Z</time>
      </trkpt>
      <trkpt lat="42.379144000" lon="-2.589504800">
        <ele>1054.80</ele>
        <time>2012-10-20T12:32:36Z</time>
      </trkpt>
      <trkpt lat="42.379163100" lon="-2.589420300">
        <ele>1054.20</ele>
        <time>2012-10-20T12:32:36Z</time>
      </trkpt>
      <trkpt lat="42.379191200" lon="-2.589331800">
        <ele>1053.80</ele>
        <time>2012-10-20T12:32:38Z</time>
      </trkpt>
      <trkpt lat="42.379210300" lon="-2.589245300">
        <ele>1053.40</ele>
        <time>2012-10-20T12:32:38Z</time>
      </trkpt>
      <trkpt lat="42.379232600" lon="-2.589165900">
        <ele>1053.00</ele>
        <time>2012-10-20T12:32:40Z</time>
      </trkpt>
      <trkpt lat="42.379267100" lon="-2.589007200">
        <ele>1053.00</ele>
        <time>2012-10-20T12:32:42Z</time>
      </trkpt>
      <trkpt lat="42.379284500" lon="-2.588827000">
        <ele>1053.00</ele>
        <time>2012-10-20T12:32:43Z</time>
      </trkpt>
      <trkpt lat="42.379291000" lon="-2.588725300">
        <ele>1052.40</ele>
        <time>2012-10-20T12:32:45Z</time>
      </trkpt>
      <trkpt lat="42.379297600" lon="-2.588614900">
        <ele>1052.00</ele>
        <time>2012-10-20T12:32:45Z</time>
      </trkpt>
      <trkpt lat="42.379306400" lon="-2.588502100">
        <ele>1051.60</ele>
        <time>2012-10-20T12:32:47Z</time>
      </trkpt>
      <trkpt lat="42.379315900" lon="-2.588385700">
        <ele>1051.20</ele>
        <time>2012-10-20T12:32:47Z</time>
      </trkpt>
      <trkpt lat="42.379326100" lon="-2.588266100">
        <ele>1050.60</ele>
        <time>2012-10-20T12:32:48Z</time>
      </trkpt>
      <trkpt lat="42.379381700" lon="-2.587770400">
        <ele>1050.60</ele>
        <time>2012-10-20T12:32:52Z</time>
      </trkpt>
      <trkpt lat="42.379400400" lon="-2.587633200">
        <ele>1050.60</ele>
        <time>2012-10-20T12:32:54Z</time>
      </trkpt>
      <trkpt lat="42.379429600" lon="-2.587358100">
        <ele>1050.60</ele>
        <time>2012-10-20T12:32:55Z</time>
      </trkpt>
      <trkpt lat="42.379466300" lon="-2.587087100">
        <ele>1050.60</ele>
        <time>2012-10-20T12:32:57Z</time>
      </trkpt>
      <trkpt lat="42.379509300" lon="-2.586952200">
        <ele>1050.60</ele>
        <time>2012-10-20T12:32:59Z</time>
      </trkpt>
      <trkpt lat="42.379621600" lon="-2.586701000">
        <ele>1050.20</ele>
        <time>2012-10-20T12:33:01Z</time>
      </trkpt>
      <trkpt lat="42.379688300" lon="-2.586578100">
        <ele>1049.80</ele>
        <time>2012-10-20T12:33:01Z</time>
      </trkpt>
      <trkpt lat="42.379789700" lon="-2.586327800">
        <ele>1049.00</ele>
        <time>2012-10-20T12:33:04Z</time>
      </trkpt>
      <trkpt lat="42.379835800" lon="-2.586198100">
        <ele>1048.60</ele>
        <time>2012-10-20T12:33:04Z</time>
      </trkpt>
      <trkpt lat="42.379987600" lon="-2.585817500">
        <ele>1048.60</ele>
        <time>2012-10-20T12:33:08Z</time>
      </trkpt>
      <trkpt lat="42.380042000" lon="-2.585705600">
        <ele>1048.20</ele>
        <time>2012-10-20T12:33:09Z</time>
      </trkpt>
      <trkpt lat="42.380092200" lon="-2.585604900">
        <ele>1047.80</ele>
        <time>2012-10-20T12:33:09Z</time>
      </trkpt>
      <trkpt lat="42.380182800" lon="-2.585416500">
        <ele>1047.00</ele>
        <time>2012-10-20T12:33:11Z</time>
      </trkpt>
      <trkpt lat="42.380229500" lon="-2.585324800">
        <ele>1046.60</ele>
        <time>2012-10-20T12:33:13Z</time>
      </trkpt>
      <trkpt lat="42.380266300" lon="-2.585233300">
        <ele>1046.20</ele>
        <time>2012-10-20T12:33:13Z</time>
      </trkpt>
      <trkpt lat="42.380298100" lon="-2.585139100">
        <ele>1045.80</ele>
        <time>2012-10-20T12:33:15Z</time>
      </trkpt>
      <trkpt lat="42.380326500" lon="-2.585041000">
        <ele>1045.20</ele>
        <time>2012-10-20T12:33:16Z</time>
      </trkpt>
      <trkpt lat="42.380337200" lon="-2.584951900">
        <ele>1044.80</ele>
        <time>2012-10-20T12:33:16Z</time>
      </trkpt>
      <trkpt lat="42.380329700" lon="-2.584876500">
        <ele>1044.40</ele>
        <time>2012-10-20T12:33:18Z</time>
      </trkpt>
      <trkpt lat="42.380321500" lon="-2.584811600">
        <ele>1044.40</ele>
        <time>2012-10-20T12:33:18Z</time>
      </trkpt>
      <trkpt lat="42.380299400" lon="-2.584712000">
        <ele>1044.40</ele>
        <time>2012-10-20T12:33:20Z</time>
      </trkpt>
      <trkpt lat="42.380289000" lon="-2.584645100">
        <ele>1044.00</ele>
        <time>2012-10-20T12:33:23Z</time>
      </trkpt>
      <trkpt lat="42.380286000" lon="-2.584628300">
        <ele>1043.40</ele>
        <time>2012-10-20T12:33:23Z</time>
      </trkpt>
      <trkpt lat="42.380287000" lon="-2.584621400">
        <ele>1043.00</ele>
        <time>2012-10-20T12:33:25Z</time>
      </trkpt>
      <trkpt lat="42.380289600" lon="-2.584623800">
        <ele>1042.40</ele>
        <time>2012-10-20T12:33:25Z</time>
      </trkpt>
      <trkpt lat="42.380356200" lon="-2.584623500">
        <ele>1017.40</ele>
        <time>2012-10-20T12:35:01Z</time>
      </trkpt>
      <trkpt lat="42.380380300" lon="-2.584591800">
        <ele>1016.80</ele>
        <time>2012-10-20T12:35:03Z</time>
      </trkpt>
      <trkpt lat="42.380404900" lon="-2.584564900">
        <ele>1016.40</ele>
        <time>2012-10-20T12:35:04Z</time>
      </trkpt>
      <trkpt lat="42.380441600" lon="-2.584547400">
        <ele>1016.00</ele>
        <time>2012-10-20T12:35:04Z</time>
      </trkpt>
      <trkpt lat="42.380483700" lon="-2.584547300">
        <ele>1015.40</ele>
        <time>2012-10-20T12:35:06Z</time>
      </trkpt>
      <trkpt lat="42.380526300" lon="-2.584554700">
        <ele>1015.40</ele>
        <time>2012-10-20T12:35:06Z</time>
      </trkpt>
      <trkpt lat="42.380619600" lon="-2.584576100">
        <ele>1015.40</ele>
        <time>2012-10-20T12:35:08Z</time>
      </trkpt>
      <trkpt lat="42.380718400" lon="-2.584593600">
        <ele>1015.00</ele>
        <time>2012-10-20T12:35:11Z</time>
      </trkpt>
      <trkpt lat="42.380762800" lon="-2.584600500">
        <ele>1014.60</ele>
        <time>2012-10-20T12:35:11Z</time>
      </trkpt>
      <trkpt lat="42.380807300" lon="-2.584606100">
        <ele>1014.20</ele>
        <time>2012-10-20T12:35:13Z</time>
      </trkpt>
      <trkpt lat="42.380856800" lon="-2.584611200">
        <ele>1013.80</ele>
        <time>2012-10-20T12:35:13Z</time>
      </trkpt>
      <trkpt lat="42.380909000" lon="-2.584615800">
        <ele>1013.40</ele>
        <time>2012-10-20T12:35:15Z</time>
      </trkpt>
      <trkpt lat="42.381014900" lon="-2.584627700">
        <ele>1013.00</ele>
        <time>2012-10-20T12:35:17Z</time>
      </trkpt>
      <trkpt lat="42.381190600" lon="-2.584640000">
        <ele>1011.80</ele>
        <time>2012-10-20T12:35:20Z</time>
      </trkpt>
      <trkpt lat="42.381253600" lon="-2.584640500">
        <ele>1011.20</ele>
        <time>2012-10-20T12:35:20Z</time>
      </trkpt>
      <trkpt lat="42.381500300" lon="-2.584651700">
        <ele>1011.20</ele>
        <time>2012-10-20T12:35:25Z</time>
      </trkpt>
      <trkpt lat="42.381555800" lon="-2.584656700">
        <ele>1010.80</ele>
        <time>2012-10-20T12:35:25Z</time>
      </trkpt>
      <trkpt lat="42.381608500" lon="-2.584663700">
        <ele>1010.40</ele>
        <time>2012-10-20T12:35:27Z</time>
      </trkpt>
      <trkpt lat="42.381717000" lon="-2.584673300">
        <ele>1009.60</ele>
        <time>2012-10-20T12:35:29Z</time>
      </trkpt>
      <trkpt lat="42.381774300" lon="-2.584677700">
        <ele>1009.00</ele>
        <time>2012-10-20T12:35:29Z</time>
      </trkpt>
      <trkpt lat="42.381836000" lon="-2.584680800">
        <ele>1009.00</ele>
        <time>2012-10-20T12:35:30Z</time>
      </trkpt>
      <trkpt lat="42.382178900" lon="-2.584701100">
        <ele>1008.60</ele>
        <time>2012-10-20T12:35:36Z</time>
      </trkpt>
      <trkpt lat="42.382323600" lon="-2.584709400">
        <ele>1007.80</ele>
        <time>2012-10-20T12:35:37Z</time>
      </trkpt>
      <trkpt lat="42.382463400" lon="-2.584716500">
        <ele>1007.00</ele>
        <time>2012-10-20T12:35:39Z</time>
      </trkpt>
      <trkpt lat="42.382609400" lon="-2.584724500">
        <ele>1006.60</ele>
        <time>2012-10-20T12:35:41Z</time>
      </trkpt>
      <trkpt lat="42.382682700" lon="-2.584730800">
        <ele>1006.20</ele>
        <time>2012-10-20T12:35:43Z</time>
      </trkpt>
      <trkpt lat="42.382761900" lon="-2.584740600">
        <ele>1005.80</ele>
        <time>2012-10-20T12:35:43Z</time>
      </trkpt>
      <trkpt lat="42.382841300" lon="-2.584757300">
        <ele>1005.20</ele>
        <time>2012-10-20T12:35:44Z</time>
      </trkpt>
      <trkpt lat="42.382924500" lon="-2.584767800">
        <ele>1004.80</ele>
        <time>2012-10-20T12:35:46Z</time>
      </trkpt>
      <trkpt lat="42.383006500" lon="-2.584783800">
        <ele>1004.80</ele>
        <time>2012-10-20T12:35:46Z</time>
      </trkpt>
      <trkpt lat="42.383358600" lon="-2.584815800">
        <ele>1004.40</ele>
        <time>2012-10-20T12:35:50Z</time>
      </trkpt>
      <trkpt lat="42.383445300" lon="-2.584824700">
        <ele>1004.00</ele>
        <time>2012-10-20T12:35:51Z</time>
      </trkpt>
      <trkpt lat="42.383532300" lon="-2.584831200">
        <ele>1003.60</ele>
        <time>2012-10-20T12:35:53Z</time>
      </trkpt>
      <trkpt lat="42.383612500" lon="-2.584839400">
        <ele>1003.00</ele>
        <time>2012-10-20T12:35:53Z</time>
      </trkpt>
      <trkpt lat="42.383701500" lon="-2.584843800">
        <ele>1002.60</ele>
        <time>2012-10-20T12:35:55Z</time>
      </trkpt>
      <trkpt lat="42.383792300" lon="-2.584847600">
        <ele>1002.60</ele>
        <time>2012-10-20T12:35:55Z</time>
      </trkpt>
      <trkpt lat="42.384234200" lon="-2.584881100">
        <ele>1002.20</ele>
        <time>2012-10-20T12:36:00Z</time>
      </trkpt>
      <trkpt lat="42.384321000" lon="-2.584884600">
        <ele>1001.80</ele>
        <time>2012-10-20T12:36:02Z</time>
      </trkpt>
      <trkpt lat="42.384412100" lon="-2.584894400">
        <ele>1001.40</ele>
        <time>2012-10-20T12:36:02Z</time>
      </trkpt>
      <trkpt lat="42.384599200" lon="-2.584914700">
        <ele>1000.60</ele>
        <time>2012-10-20T12:36:05Z</time>
      </trkpt>
      <trkpt lat="42.384701200" lon="-2.584926700">
        <ele>1000.60</ele>
        <time>2012-10-20T12:36:05Z</time>
      </trkpt>
      <trkpt lat="42.384898800" lon="-2.584940300">
        <ele>1000.20</ele>
        <time>2012-10-20T12:36:07Z</time>
      </trkpt>
      <trkpt lat="42.384988300" lon="-2.584942800">
        <ele>999.80</ele>
        <time>2012-10-20T12:36:09Z</time>
      </trkpt>
      <trkpt lat="42.385084900" lon="-2.584946600">
        <ele>999.40</ele>
        <time>2012-10-20T12:36:09Z</time>
      </trkpt>
      <trkpt lat="42.385260900" lon="-2.584963100">
        <ele>998.60</ele>
        <time>2012-10-20T12:36:12Z</time>
      </trkpt>
      <trkpt lat="42.385347700" lon="-2.584973500">
        <ele>998.60</ele>
        <time>2012-10-20T12:36:12Z</time>
      </trkpt>
      <trkpt lat="42.385539100" lon="-2.584990900">
        <ele>998.60</ele>
        <time>2012-10-20T12:36:14Z</time>
      </trkpt>
      <trkpt lat="42.385733900" lon="-2.585007700">
        <ele>998.20</ele>
        <time>2012-10-20T12:36:16Z</time>
      </trkpt>
      <trkpt lat="42.385827100" lon="-2.585012200">
        <ele>997.80</ele>
        <time>2012-10-20T12:36:17Z</time>
      </trkpt>
      <trkpt lat="42.385914500" lon="-2.585023400">
        <ele>997.20</ele>
        <time>2012-10-20T12:36:19Z</time>
      </trkpt>
      <trkpt lat="42.386106000" lon="-2.585036900">
        <ele>996.40</ele>
        <time>2012-10-20T12:36:21Z</time>
      </trkpt>
      <trkpt lat="42.386409800" lon="-2.585052900">
        <ele>996.00</ele>
        <time>2012-10-20T12:36:23Z</time>
      </trkpt>
      <trkpt lat="42.386509500" lon="-2.585059700">
        <ele>995.60</ele>
        <time>2012-10-20T12:36:24Z</time>
      </trkpt>
      <trkpt lat="42.386604000" lon="-2.585067500">
        <ele>995.20</ele>
        <time>2012-10-20T12:36:26Z</time>
      </trkpt>
      <trkpt lat="42.386699900" lon="-2.585079100">
        <ele>994.80</ele>
        <time>2012-10-20T12:36:26Z</time>
      </trkpt>
      <trkpt lat="42.386792500" lon="-2.585092600">
        <ele>994.40</ele>
        <time>2012-10-20T12:36:28Z</time>
      </trkpt>
      <trkpt lat="42.386976500" lon="-2.585117900">
        <ele>994.40</ele>
        <time>2012-10-20T12:36:30Z</time>
      </trkpt>
      <trkpt lat="42.387161400" lon="-2.585132800">
        <ele>993.80</ele>
        <time>2012-10-20T12:36:31Z</time>
      </trkpt>
      <trkpt lat="42.387342900" lon="-2.585144200">
        <ele>993.00</ele>
        <time>2012-10-20T12:36:33Z</time>
      </trkpt>
      <trkpt lat="42.387536000" lon="-2.585159000">
        <ele>992.20</ele>
        <time>2012-10-20T12:36:35Z</time>
      </trkpt>
      <trkpt lat="42.387727600" lon="-2.585152300">
        <ele>992.20</ele>
        <time>2012-10-20T12:36:37Z</time>
      </trkpt>
      <trkpt lat="42.387922800" lon="-2.585128900">
        <ele>992.20</ele>
        <time>2012-10-20T12:36:40Z</time>
      </trkpt>
      <trkpt lat="42.388019400" lon="-2.585110300">
        <ele>991.60</ele>
        <time>2012-10-20T12:36:40Z</time>
      </trkpt>
      <trkpt lat="42.388215600" lon="-2.585069000">
        <ele>990.80</ele>
        <time>2012-10-20T12:36:42Z</time>
      </trkpt>
      <trkpt lat="42.388306600" lon="-2.585045300">
        <ele>990.20</ele>
        <time>2012-10-20T12:36:44Z</time>
      </trkpt>
      <trkpt lat="42.388401500" lon="-2.585025000">
        <ele>989.80</ele>
        <time>2012-10-20T12:36:45Z</time>
      </trkpt>
      <trkpt lat="42.388782500" lon="-2.584952900">
        <ele>989.40</ele>
        <time>2012-10-20T12:36:49Z</time>
      </trkpt>
      <trkpt lat="42.388875000" lon="-2.584934500">
        <ele>989.00</ele>
        <time>2012-10-20T12:36:49Z</time>
      </trkpt>
      <trkpt lat="42.388966300" lon="-2.584914300">
        <ele>988.60</ele>
        <time>2012-10-20T12:36:51Z</time>
      </trkpt>
      <trkpt lat="42.389044000" lon="-2.584895800">
        <ele>988.20</ele>
        <time>2012-10-20T12:36:52Z</time>
      </trkpt>
      <trkpt lat="42.389126800" lon="-2.584875800">
        <ele>987.80</ele>
        <time>2012-10-20T12:36:52Z</time>
      </trkpt>
      <trkpt lat="42.389199800" lon="-2.584857100">
        <ele>987.80</ele>
        <time>2012-10-20T12:36:54Z</time>
      </trkpt>
      <trkpt lat="42.389333200" lon="-2.584826800">
        <ele>987.80</ele>
        <time>2012-10-20T12:36:56Z</time>
      </trkpt>
      <trkpt lat="42.389391000" lon="-2.584816200">
        <ele>987.40</ele>
        <time>2012-10-20T12:36:56Z</time>
      </trkpt>
      <trkpt lat="42.389442200" lon="-2.584810400">
        <ele>986.80</ele>
        <time>2012-10-20T12:36:58Z</time>
      </trkpt>
      <trkpt lat="42.389487200" lon="-2.584815700">
        <ele>986.40</ele>
        <time>2012-10-20T12:36:59Z</time>
      </trkpt>
      <trkpt lat="42.389528600" lon="-2.584817100">
        <ele>986.00</ele>
        <time>2012-10-20T12:36:59Z</time>
      </trkpt>
      <trkpt lat="42.389572200" lon="-2.584819300">
        <ele>985.40</ele>
        <time>2012-10-20T12:37:01Z</time>
      </trkpt>
      <trkpt lat="42.389611000" lon="-2.584821600">
        <ele>985.40</ele>
        <time>2012-10-20T12:37:01Z</time>
      </trkpt>
      <trkpt lat="42.389857700" lon="-2.584856100">
        <ele>985.40</ele>
        <time>2012-10-20T12:37:06Z</time>
      </trkpt>
      <trkpt lat="42.389981500" lon="-2.584871300">
        <ele>985.00</ele>
        <time>2012-10-20T12:37:08Z</time>
      </trkpt>
      <trkpt lat="42.390041000" lon="-2.584869800">
        <ele>984.60</ele>
        <time>2012-10-20T12:37:10Z</time>
      </trkpt>
      <trkpt lat="42.390103600" lon="-2.584868500">
        <ele>984.00</ele>
        <time>2012-10-20T12:37:10Z</time>
      </trkpt>
      <trkpt lat="42.390234700" lon="-2.584876800">
        <ele>983.20</ele>
        <time>2012-10-20T12:37:13Z</time>
      </trkpt>
      <trkpt lat="42.390442600" lon="-2.584914900">
        <ele>983.20</ele>
        <time>2012-10-20T12:37:15Z</time>
      </trkpt>
      <trkpt lat="42.390622000" lon="-2.584919600">
        <ele>983.20</ele>
        <time>2012-10-20T12:37:18Z</time>
      </trkpt>
      <trkpt lat="42.390657600" lon="-2.584903500">
        <ele>983.20</ele>
        <time>2012-10-20T12:37:20Z</time>
      </trkpt>
      <trkpt lat="42.390733900" lon="-2.584775300">
        <ele>983.20</ele>
        <time>2012-10-20T12:37:22Z</time>
      </trkpt>
      <trkpt lat="42.390745000" lon="-2.584732900">
        <ele>983.20</ele>
        <time>2012-10-20T12:37:24Z</time>
      </trkpt>
      <trkpt lat="42.390818100" lon="-2.584668800">
        <ele>983.20</ele>
        <time>2012-10-20T12:37:25Z</time>
      </trkpt>
      <trkpt lat="42.390904700" lon="-2.584643500">
        <ele>983.20</ele>
        <time>2012-10-20T12:37:27Z</time>
      </trkpt>
      <trkpt lat="42.390958600" lon="-2.584646000">
        <ele>983.20</ele>
        <time>2012-10-20T12:37:29Z</time>
      </trkpt>
      <trkpt lat="42.391143100" lon="-2.584639600">
        <ele>983.20</ele>
        <time>2012-10-20T12:37:31Z</time>
      </trkpt>
      <trkpt lat="42.391213100" lon="-2.584636500">
        <ele>982.80</ele>
        <time>2012-10-20T12:37:32Z</time>
      </trkpt>
      <trkpt lat="42.391275600" lon="-2.584638800">
        <ele>982.40</ele>
        <time>2012-10-20T12:37:34Z</time>
      </trkpt>
      <trkpt lat="42.391348100" lon="-2.584639000">
        <ele>982.00</ele>
        <time>2012-10-20T12:37:34Z</time>
      </trkpt>
      <trkpt lat="42.391421200" lon="-2.584634400">
        <ele>981.40</ele>
        <time>2012-10-20T12:37:36Z</time>
      </trkpt>
      <trkpt lat="42.391496800" lon="-2.584628500">
        <ele>981.00</ele>
        <time>2012-10-20T12:37:36Z</time>
      </trkpt>
      <trkpt lat="42.391826400" lon="-2.584660800">
        <ele>981.00</ele>
        <time>2012-10-20T12:37:41Z</time>
      </trkpt>
      <trkpt lat="42.392264500" lon="-2.584741900">
        <ele>981.00</ele>
        <time>2012-10-20T12:37:46Z</time>
      </trkpt>
      <trkpt lat="42.392342100" lon="-2.584765000">
        <ele>980.60</ele>
        <time>2012-10-20T12:37:48Z</time>
      </trkpt>
      <trkpt lat="42.392414600" lon="-2.584795500">
        <ele>980.20</ele>
        <time>2012-10-20T12:37:48Z</time>
      </trkpt>
      <trkpt lat="42.392482000" lon="-2.584835600">
        <ele>979.80</ele>
        <time>2012-10-20T12:37:50Z</time>
      </trkpt>
      <trkpt lat="42.392546200" lon="-2.584880600">
        <ele>979.40</ele>
        <time>2012-10-20T12:37:50Z</time>
      </trkpt>
      <trkpt lat="42.392609200" lon="-2.584928100">
        <ele>978.80</ele>
        <time>2012-10-20T12:37:52Z</time>
      </trkpt>
      <trkpt lat="42.392861000" lon="-2.585090200">
        <ele>978.80</ele>
        <time>2012-10-20T12:37:55Z</time>
      </trkpt>
      <trkpt lat="42.392932100" lon="-2.585095900">
        <ele>978.80</ele>
        <time>2012-10-20T12:37:57Z</time>
      </trkpt>
      <trkpt lat="42.393081200" lon="-2.585054700">
        <ele>978.40</ele>
        <time>2012-10-20T12:37:59Z</time>
      </trkpt>
      <trkpt lat="42.393157500" lon="-2.585015400">
        <ele>977.80</ele>
        <time>2012-10-20T12:38:00Z</time>
      </trkpt>
      <trkpt lat="42.393301500" lon="-2.584932800">
        <ele>977.00</ele>
        <time>2012-10-20T12:38:02Z</time>
      </trkpt>
      <trkpt lat="42.393377500" lon="-2.584894400">
        <ele>976.40</ele>
        <time>2012-10-20T12:38:02Z</time>
      </trkpt>
      <trkpt lat="42.393599000" lon="-2.584788900">
        <ele>976.40</ele>
        <time>2012-10-20T12:38:05Z</time>
      </trkpt>
      <trkpt lat="42.393816100" lon="-2.584695400">
        <ele>976.40</ele>
        <time>2012-10-20T12:38:09Z</time>
      </trkpt>
      <trkpt lat="42.393892500" lon="-2.584665200">
        <ele>976.00</ele>
        <time>2012-10-20T12:38:09Z</time>
      </trkpt>
      <trkpt lat="42.393971200" lon="-2.584636200">
        <ele>975.60</ele>
        <time>2012-10-20T12:38:11Z</time>
      </trkpt>
      <trkpt lat="42.394058300" lon="-2.584604300">
        <ele>975.00</ele>
        <time>2012-10-20T12:38:11Z</time>
      </trkpt>
      <trkpt lat="42.394139100" lon="-2.584579100">
        <ele>974.60</ele>
        <time>2012-10-20T12:38:12Z</time>
      </trkpt>
      <trkpt lat="42.394220300" lon="-2.584563000">
        <ele>974.20</ele>
        <time>2012-10-20T12:38:14Z</time>
      </trkpt>
      <trkpt lat="42.394430800" lon="-2.584552800">
        <ele>974.20</ele>
        <time>2012-10-20T12:38:16Z</time>
      </trkpt>
      <trkpt lat="42.394501200" lon="-2.584569200">
        <ele>973.80</ele>
        <time>2012-10-20T12:38:18Z</time>
      </trkpt>
      <trkpt lat="42.394567600" lon="-2.584591800">
        <ele>973.20</ele>
        <time>2012-10-20T12:38:18Z</time>
      </trkpt>
      <trkpt lat="42.394634400" lon="-2.584622400">
        <ele>972.80</ele>
        <time>2012-10-20T12:38:19Z</time>
      </trkpt>
      <trkpt lat="42.394699300" lon="-2.584661300">
        <ele>972.40</ele>
        <time>2012-10-20T12:38:21Z</time>
      </trkpt>
      <trkpt lat="42.394761400" lon="-2.584696600">
        <ele>972.00</ele>
        <time>2012-10-20T12:38:21Z</time>
      </trkpt>
      <trkpt lat="42.395053400" lon="-2.584857500">
        <ele>972.00</ele>
        <time>2012-10-20T12:38:26Z</time>
      </trkpt>
      <trkpt lat="42.395106400" lon="-2.584893400">
        <ele>971.60</ele>
        <time>2012-10-20T12:38:28Z</time>
      </trkpt>
      <trkpt lat="42.395153300" lon="-2.584933300">
        <ele>971.20</ele>
        <time>2012-10-20T12:38:28Z</time>
      </trkpt>
      <trkpt lat="42.395191600" lon="-2.584968400">
        <ele>970.80</ele>
        <time>2012-10-20T12:38:30Z</time>
      </trkpt>
      <trkpt lat="42.395226000" lon="-2.585001300">
        <ele>970.40</ele>
        <time>2012-10-20T12:38:30Z</time>
      </trkpt>
      <trkpt lat="42.395263200" lon="-2.585031600">
        <ele>970.00</ele>
        <time>2012-10-20T12:38:32Z</time>
      </trkpt>
      <trkpt lat="42.395300200" lon="-2.585063000">
        <ele>970.00</ele>
        <time>2012-10-20T12:38:33Z</time>
      </trkpt>
      <trkpt lat="42.395437400" lon="-2.585175400">
        <ele>969.60</ele>
        <time>2012-10-20T12:38:35Z</time>
      </trkpt>
      <trkpt lat="42.395493200" lon="-2.585222700">
        <ele>969.00</ele>
        <time>2012-10-20T12:38:37Z</time>
      </trkpt>
      <trkpt lat="42.395606800" lon="-2.585318500">
        <ele>968.20</ele>
        <time>2012-10-20T12:38:39Z</time>
      </trkpt>
      <trkpt lat="42.395664200" lon="-2.585364800">
        <ele>967.60</ele>
        <time>2012-10-20T12:38:40Z</time>
      </trkpt>
      <trkpt lat="42.395973100" lon="-2.585621700">
        <ele>967.60</ele>
        <time>2012-10-20T12:38:44Z</time>
      </trkpt>
      <trkpt lat="42.396036100" lon="-2.585687300">
        <ele>967.20</ele>
        <time>2012-10-20T12:38:46Z</time>
      </trkpt>
      <trkpt lat="42.396099000" lon="-2.585756600">
        <ele>966.80</ele>
        <time>2012-10-20T12:38:47Z</time>
      </trkpt>
      <trkpt lat="42.396162400" lon="-2.585821100">
        <ele>966.40</ele>
        <time>2012-10-20T12:38:47Z</time>
      </trkpt>
      <trkpt lat="42.396296000" lon="-2.585959000">
        <ele>965.60</ele>
        <time>2012-10-20T12:38:49Z</time>
      </trkpt>
      <trkpt lat="42.396364100" lon="-2.586027800">
        <ele>965.60</ele>
        <time>2012-10-20T12:38:51Z</time>
      </trkpt>
      <trkpt lat="42.396567400" lon="-2.586239600">
        <ele>965.20</ele>
        <time>2012-10-20T12:38:54Z</time>
      </trkpt>
      <trkpt lat="42.396635100" lon="-2.586307600">
        <ele>964.60</ele>
        <time>2012-10-20T12:38:54Z</time>
      </trkpt>
      <trkpt lat="42.396767900" lon="-2.586445200">
        <ele>963.80</ele>
        <time>2012-10-20T12:38:56Z</time>
      </trkpt>
      <trkpt lat="42.396833300" lon="-2.586512600">
        <ele>963.20</ele>
        <time>2012-10-20T12:38:58Z</time>
      </trkpt>
      <trkpt lat="42.397040300" lon="-2.586715600">
        <ele>963.20</ele>
        <time>2012-10-20T12:39:01Z</time>
      </trkpt>
      <trkpt lat="42.397258700" lon="-2.586925600">
        <ele>962.80</ele>
        <time>2012-10-20T12:39:03Z</time>
      </trkpt>
      <trkpt lat="42.397331700" lon="-2.587000700">
        <ele>962.40</ele>
        <time>2012-10-20T12:39:05Z</time>
      </trkpt>
      <trkpt lat="42.397403700" lon="-2.587077700">
        <ele>961.80</ele>
        <time>2012-10-20T12:39:05Z</time>
      </trkpt>
      <trkpt lat="42.397475700" lon="-2.587153900">
        <ele>961.40</ele>
        <time>2012-10-20T12:39:06Z</time>
      </trkpt>
      <trkpt lat="42.397548800" lon="-2.587230100">
        <ele>960.40</ele>
        <time>2012-10-20T12:39:08Z</time>
      </trkpt>
      <trkpt lat="42.397620400" lon="-2.587303200">
        <ele>959.40</ele>
        <time>2012-10-20T12:39:08Z</time>
      </trkpt>
      <trkpt lat="42.397695100" lon="-2.587372800">
        <ele>958.20</ele>
        <time>2012-10-20T12:39:10Z</time>
      </trkpt>
      <trkpt lat="42.397769300" lon="-2.587439800">
        <ele>958.00</ele>
        <time>2012-10-20T12:39:10Z</time>
      </trkpt>
      <trkpt lat="42.397846400" lon="-2.587507300">
        <ele>957.80</ele>
        <time>2012-10-20T12:39:12Z</time>
      </trkpt>
      <trkpt lat="42.397924500" lon="-2.587571400">
        <ele>957.60</ele>
        <time>2012-10-20T12:39:12Z</time>
      </trkpt>
      <trkpt lat="42.398007400" lon="-2.587634200">
        <ele>957.20</ele>
        <time>2012-10-20T12:39:13Z</time>
      </trkpt>
      <trkpt lat="42.398176500" lon="-2.587752900">
        <ele>957.00</ele>
        <time>2012-10-20T12:39:15Z</time>
      </trkpt>
      <trkpt lat="42.398355200" lon="-2.587857500">
        <ele>956.60</ele>
        <time>2012-10-20T12:39:17Z</time>
      </trkpt>
      <trkpt lat="42.398447300" lon="-2.587906400">
        <ele>956.20</ele>
        <time>2012-10-20T12:39:19Z</time>
      </trkpt>
      <trkpt lat="42.398541800" lon="-2.587953600">
        <ele>955.80</ele>
        <time>2012-10-20T12:39:19Z</time>
      </trkpt>
      <trkpt lat="42.398637000" lon="-2.587997900">
        <ele>955.40</ele>
        <time>2012-10-20T12:39:20Z</time>
      </trkpt>
      <trkpt lat="42.398735400" lon="-2.588037800">
        <ele>955.00</ele>
        <time>2012-10-20T12:39:22Z</time>
      </trkpt>
      <trkpt lat="42.399142600" lon="-2.588192500">
        <ele>955.00</ele>
        <time>2012-10-20T12:39:26Z</time>
      </trkpt>
      <trkpt lat="42.399665000" lon="-2.588374600">
        <ele>954.60</ele>
        <time>2012-10-20T12:39:31Z</time>
      </trkpt>
      <trkpt lat="42.399973600" lon="-2.588485700">
        <ele>953.40</ele>
        <time>2012-10-20T12:39:34Z</time>
      </trkpt>
      <trkpt lat="42.400082100" lon="-2.588518500">
        <ele>953.00</ele>
        <time>2012-10-20T12:39:34Z</time>
      </trkpt>
      <trkpt lat="42.400283900" lon="-2.588589600">
        <ele>952.40</ele>
        <time>2012-10-20T12:39:36Z</time>
      </trkpt>
      <trkpt lat="42.400474300" lon="-2.588657400">
        <ele>951.60</ele>
        <time>2012-10-20T12:39:38Z</time>
      </trkpt>
      <trkpt lat="42.400574300" lon="-2.588691400">
        <ele>951.20</ele>
        <time>2012-10-20T12:39:40Z</time>
      </trkpt>
      <trkpt lat="42.400672200" lon="-2.588721900">
        <ele>950.80</ele>
        <time>2012-10-20T12:39:41Z</time>
      </trkpt>
      <trkpt lat="42.400867900" lon="-2.588785700">
        <ele>950.80</ele>
        <time>2012-10-20T12:39:43Z</time>
      </trkpt>
      <trkpt lat="42.401336200" lon="-2.588948000">
        <ele>950.20</ele>
        <time>2012-10-20T12:39:48Z</time>
      </trkpt>
      <trkpt lat="42.401431000" lon="-2.588975800">
        <ele>949.80</ele>
        <time>2012-10-20T12:39:48Z</time>
      </trkpt>
      <trkpt lat="42.401521000" lon="-2.589003200">
        <ele>949.40</ele>
        <time>2012-10-20T12:39:50Z</time>
      </trkpt>
      <trkpt lat="42.401613000" lon="-2.589028200">
        <ele>948.80</ele>
        <time>2012-10-20T12:39:50Z</time>
      </trkpt>
      <trkpt lat="42.401704800" lon="-2.589048500">
        <ele>948.40</ele>
        <time>2012-10-20T12:39:52Z</time>
      </trkpt>
      <trkpt lat="42.401883100" lon="-2.589076900">
        <ele>948.40</ele>
        <time>2012-10-20T12:39:54Z</time>
      </trkpt>
      <trkpt lat="42.402250100" lon="-2.589093300">
        <ele>948.00</ele>
        <time>2012-10-20T12:39:57Z</time>
      </trkpt>
      <trkpt lat="42.402342900" lon="-2.589092300">
        <ele>947.40</ele>
        <time>2012-10-20T12:39:59Z</time>
      </trkpt>
      <trkpt lat="42.402436700" lon="-2.589090600">
        <ele>947.00</ele>
        <time>2012-10-20T12:39:59Z</time>
      </trkpt>
      <trkpt lat="42.402618900" lon="-2.589075600">
        <ele>946.60</ele>
        <time>2012-10-20T12:40:02Z</time>
      </trkpt>
      <trkpt lat="42.402710100" lon="-2.589065700">
        <ele>946.00</ele>
        <time>2012-10-20T12:40:02Z</time>
      </trkpt>
      <trkpt lat="42.402800400" lon="-2.589054600">
        <ele>946.00</ele>
        <time>2012-10-20T12:40:04Z</time>
      </trkpt>
      <trkpt lat="42.403244800" lon="-2.588990400">
        <ele>945.60</ele>
        <time>2012-10-20T12:40:09Z</time>
      </trkpt>
      <trkpt lat="42.403337500" lon="-2.588991000">
        <ele>945.20</ele>
        <time>2012-10-20T12:40:09Z</time>
      </trkpt>
      <trkpt lat="42.403428700" lon="-2.588994900">
        <ele>944.80</ele>
        <time>2012-10-20T12:40:11Z</time>
      </trkpt>
      <trkpt lat="42.403519500" lon="-2.589004300">
        <ele>944.40</ele>
        <time>2012-10-20T12:40:11Z</time>
      </trkpt>
      <trkpt lat="42.403604800" lon="-2.589020500">
        <ele>944.00</ele>
        <time>2012-10-20T12:40:13Z</time>
      </trkpt>
      <trkpt lat="42.403769100" lon="-2.589071000">
        <ele>944.00</ele>
        <time>2012-10-20T12:40:14Z</time>
      </trkpt>
      <trkpt lat="42.403928200" lon="-2.589146400">
        <ele>943.40</ele>
        <time>2012-10-20T12:40:16Z</time>
      </trkpt>
      <trkpt lat="42.404005800" lon="-2.589193400">
        <ele>943.00</ele>
        <time>2012-10-20T12:40:18Z</time>
      </trkpt>
      <trkpt lat="42.404156900" lon="-2.589299400">
        <ele>942.20</ele>
        <time>2012-10-20T12:40:20Z</time>
      </trkpt>
      <trkpt lat="42.404228900" lon="-2.589358100">
        <ele>941.60</ele>
        <time>2012-10-20T12:40:21Z</time>
      </trkpt>
      <trkpt lat="42.404604100" lon="-2.589680300">
        <ele>941.20</ele>
        <time>2012-10-20T12:40:25Z</time>
      </trkpt>
      <trkpt lat="42.404681000" lon="-2.589742300">
        <ele>940.80</ele>
        <time>2012-10-20T12:40:27Z</time>
      </trkpt>
      <trkpt lat="42.404916100" lon="-2.589925400">
        <ele>939.60</ele>
        <time>2012-10-20T12:40:30Z</time>
      </trkpt>
      <trkpt lat="42.405390200" lon="-2.590300800">
        <ele>939.20</ele>
        <time>2012-10-20T12:40:35Z</time>
      </trkpt>
      <trkpt lat="42.405547300" lon="-2.590423600">
        <ele>938.40</ele>
        <time>2012-10-20T12:40:37Z</time>
      </trkpt>
      <trkpt lat="42.405702400" lon="-2.590551500">
        <ele>937.60</ele>
        <time>2012-10-20T12:40:39Z</time>
      </trkpt>
      <trkpt lat="42.405858500" lon="-2.590681900">
        <ele>937.20</ele>
        <time>2012-10-20T12:40:42Z</time>
      </trkpt>
      <trkpt lat="42.405935500" lon="-2.590743900">
        <ele>936.80</ele>
        <time>2012-10-20T12:40:42Z</time>
      </trkpt>
      <trkpt lat="42.406013200" lon="-2.590803200">
        <ele>936.20</ele>
        <time>2012-10-20T12:40:44Z</time>
      </trkpt>
      <trkpt lat="42.406168100" lon="-2.590923500">
        <ele>935.40</ele>
        <time>2012-10-20T12:40:46Z</time>
      </trkpt>
      <trkpt lat="42.406398000" lon="-2.591112400">
        <ele>935.00</ele>
        <time>2012-10-20T12:40:49Z</time>
      </trkpt>
      <trkpt lat="42.406546800" lon="-2.591239900">
        <ele>934.20</ele>
        <time>2012-10-20T12:40:51Z</time>
      </trkpt>
      <trkpt lat="42.406696600" lon="-2.591363600">
        <ele>933.40</ele>
        <time>2012-10-20T12:40:53Z</time>
      </trkpt>
      <trkpt lat="42.407007000" lon="-2.591608900">
        <ele>933.40</ele>
        <time>2012-10-20T12:40:56Z</time>
      </trkpt>
      <trkpt lat="42.407163800" lon="-2.591734200">
        <ele>933.00</ele>
        <time>2012-10-20T12:40:58Z</time>
      </trkpt>
      <trkpt lat="42.407242700" lon="-2.591795200">
        <ele>932.40</ele>
        <time>2012-10-20T12:41:00Z</time>
      </trkpt>
      <trkpt lat="42.407474000" lon="-2.591978600">
        <ele>931.20</ele>
        <time>2012-10-20T12:41:03Z</time>
      </trkpt>
      <trkpt lat="42.407769200" lon="-2.592221700">
        <ele>930.60</ele>
        <time>2012-10-20T12:41:07Z</time>
      </trkpt>
      <trkpt lat="42.407915600" lon="-2.592346300">
        <ele>929.80</ele>
        <time>2012-10-20T12:41:08Z</time>
      </trkpt>
      <trkpt lat="42.408065300" lon="-2.592463700">
        <ele>929.00</ele>
        <time>2012-10-20T12:41:10Z</time>
      </trkpt>
      <trkpt lat="42.408295500" lon="-2.592648200">
        <ele>928.60</ele>
        <time>2012-10-20T12:41:14Z</time>
      </trkpt>
      <trkpt lat="42.408371500" lon="-2.592711200">
        <ele>928.00</ele>
        <time>2012-10-20T12:41:14Z</time>
      </trkpt>
      <trkpt lat="42.408609700" lon="-2.592906700">
        <ele>926.80</ele>
        <time>2012-10-20T12:41:17Z</time>
      </trkpt>
      <trkpt lat="42.409083000" lon="-2.593281600">
        <ele>926.40</ele>
        <time>2012-10-20T12:41:24Z</time>
      </trkpt>
      <trkpt lat="42.409157800" lon="-2.593343700">
        <ele>926.00</ele>
        <time>2012-10-20T12:41:24Z</time>
      </trkpt>
      <trkpt lat="42.409231800" lon="-2.593404900">
        <ele>925.40</ele>
        <time>2012-10-20T12:41:26Z</time>
      </trkpt>
      <trkpt lat="42.409305900" lon="-2.593462300">
        <ele>925.00</ele>
        <time>2012-10-20T12:41:26Z</time>
      </trkpt>
      <trkpt lat="42.409381100" lon="-2.593503500">
        <ele>924.60</ele>
        <time>2012-10-20T12:41:28Z</time>
      </trkpt>
      <trkpt lat="42.409538300" lon="-2.593535900">
        <ele>924.60</ele>
        <time>2012-10-20T12:41:29Z</time>
      </trkpt>
      <trkpt lat="42.409624000" lon="-2.593528500">
        <ele>924.20</ele>
        <time>2012-10-20T12:41:31Z</time>
      </trkpt>
      <trkpt lat="42.409712700" lon="-2.593509700">
        <ele>923.80</ele>
        <time>2012-10-20T12:41:31Z</time>
      </trkpt>
      <trkpt lat="42.409796300" lon="-2.593480900">
        <ele>923.40</ele>
        <time>2012-10-20T12:41:33Z</time>
      </trkpt>
      <trkpt lat="42.409877600" lon="-2.593440300">
        <ele>923.00</ele>
        <time>2012-10-20T12:41:33Z</time>
      </trkpt>
      <trkpt lat="42.409954500" lon="-2.593393100">
        <ele>922.60</ele>
        <time>2012-10-20T12:41:35Z</time>
      </trkpt>
      <trkpt lat="42.410030600" lon="-2.593339100">
        <ele>922.60</ele>
        <time>2012-10-20T12:41:36Z</time>
      </trkpt>
      <trkpt lat="42.410189900" lon="-2.593218500">
        <ele>921.80</ele>
        <time>2012-10-20T12:41:38Z</time>
      </trkpt>
      <trkpt lat="42.410270500" lon="-2.593164000">
        <ele>921.20</ele>
        <time>2012-10-20T12:41:38Z</time>
      </trkpt>
      <trkpt lat="42.410433400" lon="-2.593058700">
        <ele>920.40</ele>
        <time>2012-10-20T12:41:40Z</time>
      </trkpt>
      <trkpt lat="42.410683400" lon="-2.592897100">
        <ele>920.40</ele>
        <time>2012-10-20T12:41:43Z</time>
      </trkpt>
      <trkpt lat="42.410850600" lon="-2.592785200">
        <ele>920.40</ele>
        <time>2012-10-20T12:41:45Z</time>
      </trkpt>
      <trkpt lat="42.411016000" lon="-2.592673700">
        <ele>920.00</ele>
        <time>2012-10-20T12:41:47Z</time>
      </trkpt>
      <trkpt lat="42.411183700" lon="-2.592565900">
        <ele>919.20</ele>
        <time>2012-10-20T12:41:50Z</time>
      </trkpt>
      <trkpt lat="42.411267600" lon="-2.592512300">
        <ele>918.80</ele>
        <time>2012-10-20T12:41:50Z</time>
      </trkpt>
      <trkpt lat="42.411355300" lon="-2.592458100">
        <ele>918.40</ele>
        <time>2012-10-20T12:41:52Z</time>
      </trkpt>
      <trkpt lat="42.411441300" lon="-2.592405100">
        <ele>917.80</ele>
        <time>2012-10-20T12:41:52Z</time>
      </trkpt>
      <trkpt lat="42.411527200" lon="-2.592351200">
        <ele>917.40</ele>
        <time>2012-10-20T12:41:54Z</time>
      </trkpt>
      <trkpt lat="42.411614500" lon="-2.592299900">
        <ele>917.00</ele>
        <time>2012-10-20T12:41:54Z</time>
      </trkpt>
      <trkpt lat="42.411701500" lon="-2.592253200">
        <ele>916.60</ele>
        <time>2012-10-20T12:41:55Z</time>
      </trkpt>
      <trkpt lat="42.411791800" lon="-2.592217800">
        <ele>916.00</ele>
        <time>2012-10-20T12:41:57Z</time>
      </trkpt>
      <trkpt lat="42.412282300" lon="-2.592143500">
        <ele>915.60</ele>
        <time>2012-10-20T12:42:01Z</time>
      </trkpt>
      <trkpt lat="42.412379400" lon="-2.592151500">
        <ele>915.20</ele>
        <time>2012-10-20T12:42:02Z</time>
      </trkpt>
      <trkpt lat="42.412679700" lon="-2.592185200">
        <ele>914.00</ele>
        <time>2012-10-20T12:42:06Z</time>
      </trkpt>
      <trkpt lat="42.412877300" lon="-2.592205100">
        <ele>913.60</ele>
        <time>2012-10-20T12:42:08Z</time>
      </trkpt>
      <trkpt lat="42.412975400" lon="-2.592214600">
        <ele>913.00</ele>
        <time>2012-10-20T12:42:09Z</time>
      </trkpt>
      <trkpt lat="42.413167200" lon="-2.592231700">
        <ele>912.20</ele>
        <time>2012-10-20T12:42:11Z</time>
      </trkpt>
      <trkpt lat="42.413260100" lon="-2.592240200">
        <ele>911.60</ele>
        <time>2012-10-20T12:42:11Z</time>
      </trkpt>
      <trkpt lat="42.413350100" lon="-2.592249100">
        <ele>911.60</ele>
        <time>2012-10-20T12:42:13Z</time>
      </trkpt>
      <trkpt lat="42.413624000" lon="-2.592277800">
        <ele>911.20</ele>
        <time>2012-10-20T12:42:16Z</time>
      </trkpt>
      <trkpt lat="42.413804000" lon="-2.592293800">
        <ele>910.40</ele>
        <time>2012-10-20T12:42:18Z</time>
      </trkpt>
      <trkpt lat="42.413893600" lon="-2.592302600">
        <ele>909.80</ele>
        <time>2012-10-20T12:42:18Z</time>
      </trkpt>
      <trkpt lat="42.414154400" lon="-2.592324400">
        <ele>908.60</ele>
        <time>2012-10-20T12:42:22Z</time>
      </trkpt>
      <trkpt lat="42.414238900" lon="-2.592331500">
        <ele>908.00</ele>
        <time>2012-10-20T12:42:23Z</time>
      </trkpt>
      <trkpt lat="42.414403200" lon="-2.592350700">
        <ele>907.20</ele>
        <time>2012-10-20T12:42:25Z</time>
      </trkpt>
      <trkpt lat="42.414747200" lon="-2.592391300">
        <ele>906.80</ele>
        <time>2012-10-20T12:42:29Z</time>
      </trkpt>
      <trkpt lat="42.414929400" lon="-2.592402500">
        <ele>906.00</ele>
        <time>2012-10-20T12:42:30Z</time>
      </trkpt>
      <trkpt lat="42.415022000" lon="-2.592409900">
        <ele>905.40</ele>
        <time>2012-10-20T12:42:32Z</time>
      </trkpt>
      <trkpt lat="42.415112700" lon="-2.592417500">
        <ele>905.00</ele>
        <time>2012-10-20T12:42:32Z</time>
      </trkpt>
      <trkpt lat="42.415471900" lon="-2.592434100">
        <ele>904.60</ele>
        <time>2012-10-20T12:42:37Z</time>
      </trkpt>
      <trkpt lat="42.415558100" lon="-2.592422200">
        <ele>904.20</ele>
        <time>2012-10-20T12:42:37Z</time>
      </trkpt>
      <trkpt lat="42.415653000" lon="-2.592405400">
        <ele>903.80</ele>
        <time>2012-10-20T12:42:39Z</time>
      </trkpt>
      <trkpt lat="42.415745900" lon="-2.592385200">
        <ele>903.40</ele>
        <time>2012-10-20T12:42:39Z</time>
      </trkpt>
      <trkpt lat="42.415845300" lon="-2.592357200">
        <ele>903.00</ele>
        <time>2012-10-20T12:42:41Z</time>
      </trkpt>
      <trkpt lat="42.415943200" lon="-2.592325800">
        <ele>903.00</ele>
        <time>2012-10-20T12:42:41Z</time>
      </trkpt>
      <trkpt lat="42.416042000" lon="-2.592296400">
        <ele>902.60</ele>
        <time>2012-10-20T12:42:42Z</time>
      </trkpt>
      <trkpt lat="42.416434800" lon="-2.592162100">
        <ele>901.00</ele>
        <time>2012-10-20T12:42:46Z</time>
      </trkpt>
      <trkpt lat="42.416533200" lon="-2.592128500">
        <ele>901.00</ele>
        <time>2012-10-20T12:42:48Z</time>
      </trkpt>
      <trkpt lat="42.416734200" lon="-2.592061500">
        <ele>900.20</ele>
        <time>2012-10-20T12:42:49Z</time>
      </trkpt>
      <trkpt lat="42.416835100" lon="-2.592027400">
        <ele>899.60</ele>
        <time>2012-10-20T12:42:51Z</time>
      </trkpt>
      <trkpt lat="42.417036100" lon="-2.591960300">
        <ele>898.80</ele>
        <time>2012-10-20T12:42:53Z</time>
      </trkpt>
      <trkpt lat="42.417338900" lon="-2.591856100">
        <ele>898.80</ele>
        <time>2012-10-20T12:42:55Z</time>
      </trkpt>
      <trkpt lat="42.417640100" lon="-2.591713400">
        <ele>898.40</ele>
        <time>2012-10-20T12:42:58Z</time>
      </trkpt>
      <trkpt lat="42.417738100" lon="-2.591656100">
        <ele>897.80</ele>
        <time>2012-10-20T12:43:00Z</time>
      </trkpt>
      <trkpt lat="42.417837500" lon="-2.591593600">
        <ele>897.40</ele>
        <time>2012-10-20T12:43:00Z</time>
      </trkpt>
      <trkpt lat="42.418032800" lon="-2.591468000">
        <ele>896.80</ele>
        <time>2012-10-20T12:43:02Z</time>
      </trkpt>
      <trkpt lat="42.418131400" lon="-2.591405500">
        <ele>896.40</ele>
        <time>2012-10-20T12:43:03Z</time>
      </trkpt>
      <trkpt lat="42.418422700" lon="-2.591223500">
        <ele>895.80</ele>
        <time>2012-10-20T12:43:07Z</time>
      </trkpt>
      <trkpt lat="42.418613000" lon="-2.591101500">
        <ele>895.00</ele>
        <time>2012-10-20T12:43:09Z</time>
      </trkpt>
      <trkpt lat="42.418708200" lon="-2.591039200">
        <ele>894.60</ele>
        <time>2012-10-20T12:43:10Z</time>
      </trkpt>
      <trkpt lat="42.418801100" lon="-2.590978000">
        <ele>894.00</ele>
        <time>2012-10-20T12:43:10Z</time>
      </trkpt>
      <trkpt lat="42.419171200" lon="-2.590748800">
        <ele>894.00</ele>
        <time>2012-10-20T12:43:14Z</time>
      </trkpt>
      <trkpt lat="42.419355600" lon="-2.590633200">
        <ele>893.20</ele>
        <time>2012-10-20T12:43:17Z</time>
      </trkpt>
      <trkpt lat="42.419447500" lon="-2.590572700">
        <ele>892.60</ele>
        <time>2012-10-20T12:43:17Z</time>
      </trkpt>
      <trkpt lat="42.419537600" lon="-2.590509100">
        <ele>892.20</ele>
        <time>2012-10-20T12:43:19Z</time>
      </trkpt>
      <trkpt lat="42.419626200" lon="-2.590443900">
        <ele>891.80</ele>
        <time>2012-10-20T12:43:19Z</time>
      </trkpt>
      <trkpt lat="42.419892600" lon="-2.590240600">
        <ele>891.40</ele>
        <time>2012-10-20T12:43:23Z</time>
      </trkpt>
      <trkpt lat="42.419980900" lon="-2.590175500">
        <ele>891.00</ele>
        <time>2012-10-20T12:43:24Z</time>
      </trkpt>
      <trkpt lat="42.420067900" lon="-2.590106700">
        <ele>890.60</ele>
        <time>2012-10-20T12:43:24Z</time>
      </trkpt>
      <trkpt lat="42.420150900" lon="-2.590035400">
        <ele>890.20</ele>
        <time>2012-10-20T12:43:26Z</time>
      </trkpt>
      <trkpt lat="42.420234900" lon="-2.589960300">
        <ele>889.80</ele>
        <time>2012-10-20T12:43:26Z</time>
      </trkpt>
      <trkpt lat="42.420311700" lon="-2.589876200">
        <ele>889.80</ele>
        <time>2012-10-20T12:43:28Z</time>
      </trkpt>
      <trkpt lat="42.420389200" lon="-2.589787600">
        <ele>889.80</ele>
        <time>2012-10-20T12:43:28Z</time>
      </trkpt>
      <trkpt lat="42.420471100" lon="-2.589699100">
        <ele>889.20</ele>
        <time>2012-10-20T12:43:30Z</time>
      </trkpt>
      <trkpt lat="42.420548600" lon="-2.589615300">
        <ele>888.80</ele>
        <time>2012-10-20T12:43:31Z</time>
      </trkpt>
      <trkpt lat="42.420624400" lon="-2.589521300">
        <ele>888.40</ele>
        <time>2012-10-20T12:43:31Z</time>
      </trkpt>
      <trkpt lat="42.420696300" lon="-2.589417900">
        <ele>887.80</ele>
        <time>2012-10-20T12:43:33Z</time>
      </trkpt>
      <trkpt lat="42.420757700" lon="-2.589310500">
        <ele>887.40</ele>
        <time>2012-10-20T12:43:33Z</time>
      </trkpt>
      <trkpt lat="42.420894400" lon="-2.588955200">
        <ele>887.00</ele>
        <time>2012-10-20T12:43:36Z</time>
      </trkpt>
      <trkpt lat="42.420931400" lon="-2.588838900">
        <ele>886.60</ele>
        <time>2012-10-20T12:43:38Z</time>
      </trkpt>
      <trkpt lat="42.420969500" lon="-2.588726500">
        <ele>886.00</ele>
        <time>2012-10-20T12:43:38Z</time>
      </trkpt>
      <trkpt lat="42.421057700" lon="-2.588499400">
        <ele>885.20</ele>
        <time>2012-10-20T12:43:40Z</time>
      </trkpt>
      <trkpt lat="42.421155700" lon="-2.588271700">
        <ele>885.20</ele>
        <time>2012-10-20T12:43:42Z</time>
      </trkpt>
      <trkpt lat="42.421309800" lon="-2.587926000">
        <ele>884.80</ele>
        <time>2012-10-20T12:43:45Z</time>
      </trkpt>
      <trkpt lat="42.421362500" lon="-2.587808200">
        <ele>884.20</ele>
        <time>2012-10-20T12:43:47Z</time>
      </trkpt>
      <trkpt lat="42.421412900" lon="-2.587691000">
        <ele>883.80</ele>
        <time>2012-10-20T12:43:47Z</time>
      </trkpt>
      <trkpt lat="42.421463600" lon="-2.587572100">
        <ele>883.20</ele>
        <time>2012-10-20T12:43:49Z</time>
      </trkpt>
      <trkpt lat="42.421513800" lon="-2.587451500">
        <ele>882.80</ele>
        <time>2012-10-20T12:43:49Z</time>
      </trkpt>
      <trkpt lat="42.421563100" lon="-2.587332200">
        <ele>882.80</ele>
        <time>2012-10-20T12:43:50Z</time>
      </trkpt>
      <trkpt lat="42.421662800" lon="-2.587093000">
        <ele>882.40</ele>
        <time>2012-10-20T12:43:52Z</time>
      </trkpt>
      <trkpt lat="42.421824200" lon="-2.586731600">
        <ele>881.20</ele>
        <time>2012-10-20T12:43:56Z</time>
      </trkpt>
      <trkpt lat="42.421877200" lon="-2.586610100">
        <ele>880.80</ele>
        <time>2012-10-20T12:43:57Z</time>
      </trkpt>
      <trkpt lat="42.421932000" lon="-2.586484200">
        <ele>880.80</ele>
        <time>2012-10-20T12:43:57Z</time>
      </trkpt>
      <trkpt lat="42.422090100" lon="-2.586111900">
        <ele>880.40</ele>
        <time>2012-10-20T12:44:01Z</time>
      </trkpt>
      <trkpt lat="42.422299600" lon="-2.585609900">
        <ele>878.80</ele>
        <time>2012-10-20T12:44:04Z</time>
      </trkpt>
      <trkpt lat="42.422456500" lon="-2.585234600">
        <ele>878.80</ele>
        <time>2012-10-20T12:44:08Z</time>
      </trkpt>
      <trkpt lat="42.422509000" lon="-2.585109100">
        <ele>878.40</ele>
        <time>2012-10-20T12:44:08Z</time>
      </trkpt>
      <trkpt lat="42.422562500" lon="-2.584985900">
        <ele>877.80</ele>
        <time>2012-10-20T12:44:10Z</time>
      </trkpt>
      <trkpt lat="42.422724500" lon="-2.584615800">
        <ele>876.60</ele>
        <time>2012-10-20T12:44:13Z</time>
      </trkpt>
      <trkpt lat="42.422828700" lon="-2.584372900">
        <ele>876.20</ele>
        <time>2012-10-20T12:44:15Z</time>
      </trkpt>
      <trkpt lat="42.422877900" lon="-2.584255200">
        <ele>875.80</ele>
        <time>2012-10-20T12:44:15Z</time>
      </trkpt>
      <trkpt lat="42.422925400" lon="-2.584134700">
        <ele>875.40</ele>
        <time>2012-10-20T12:44:17Z</time>
      </trkpt>
      <trkpt lat="42.422975600" lon="-2.584012000">
        <ele>875.00</ele>
        <time>2012-10-20T12:44:18Z</time>
      </trkpt>
      <trkpt lat="42.423023300" lon="-2.583896000">
        <ele>874.60</ele>
        <time>2012-10-20T12:44:18Z</time>
      </trkpt>
      <trkpt lat="42.423124900" lon="-2.583655900">
        <ele>874.20</ele>
        <time>2012-10-20T12:44:20Z</time>
      </trkpt>
      <trkpt lat="42.423173800" lon="-2.583539200">
        <ele>873.60</ele>
        <time>2012-10-20T12:44:22Z</time>
      </trkpt>
      <trkpt lat="42.423225200" lon="-2.583416300">
        <ele>873.20</ele>
        <time>2012-10-20T12:44:22Z</time>
      </trkpt>
      <trkpt lat="42.423325900" lon="-2.583181000">
        <ele>872.40</ele>
        <time>2012-10-20T12:44:25Z</time>
      </trkpt>
      <trkpt lat="42.423432700" lon="-2.582943600">
        <ele>872.00</ele>
        <time>2012-10-20T12:44:27Z</time>
      </trkpt>
      <trkpt lat="42.423587500" lon="-2.582586100">
        <ele>870.80</ele>
        <time>2012-10-20T12:44:29Z</time>
      </trkpt>
      <trkpt lat="42.423635700" lon="-2.582472000">
        <ele>870.20</ele>
        <time>2012-10-20T12:44:30Z</time>
      </trkpt>
      <trkpt lat="42.423736600" lon="-2.582234000">
        <ele>869.80</ele>
        <time>2012-10-20T12:44:32Z</time>
      </trkpt>
      <trkpt lat="42.423786700" lon="-2.582117900">
        <ele>869.20</ele>
        <time>2012-10-20T12:44:34Z</time>
      </trkpt>
      <trkpt lat="42.423887700" lon="-2.581880000">
        <ele>868.40</ele>
        <time>2012-10-20T12:44:36Z</time>
      </trkpt>
      <trkpt lat="42.423938100" lon="-2.581757900">
        <ele>867.80</ele>
        <time>2012-10-20T12:44:36Z</time>
      </trkpt>
      <trkpt lat="42.424135400" lon="-2.581280400">
        <ele>867.80</ele>
        <time>2012-10-20T12:44:41Z</time>
      </trkpt>
      <trkpt lat="42.424190600" lon="-2.581159100">
        <ele>867.40</ele>
        <time>2012-10-20T12:44:41Z</time>
      </trkpt>
      <trkpt lat="42.424244000" lon="-2.581040300">
        <ele>866.80</ele>
        <time>2012-10-20T12:44:43Z</time>
      </trkpt>
      <trkpt lat="42.424299200" lon="-2.580914300">
        <ele>866.40</ele>
        <time>2012-10-20T12:44:43Z</time>
      </trkpt>
      <trkpt lat="42.424350400" lon="-2.580794700">
        <ele>865.80</ele>
        <time>2012-10-20T12:44:44Z</time>
      </trkpt>
      <trkpt lat="42.424402700" lon="-2.580671500">
        <ele>865.40</ele>
        <time>2012-10-20T12:44:46Z</time>
      </trkpt>
      <trkpt lat="42.424454400" lon="-2.580547100">
        <ele>865.40</ele>
        <time>2012-10-20T12:44:46Z</time>
      </trkpt>
      <trkpt lat="42.424658100" lon="-2.580060900">
        <ele>865.00</ele>
        <time>2012-10-20T12:44:50Z</time>
      </trkpt>
      <trkpt lat="42.424708300" lon="-2.579940200">
        <ele>864.40</ele>
        <time>2012-10-20T12:44:51Z</time>
      </trkpt>
      <trkpt lat="42.424760500" lon="-2.579816700">
        <ele>864.00</ele>
        <time>2012-10-20T12:44:53Z</time>
      </trkpt>
      <trkpt lat="42.424864800" lon="-2.579574100">
        <ele>863.20</ele>
        <time>2012-10-20T12:44:55Z</time>
      </trkpt>
      <trkpt lat="42.424916600" lon="-2.579453500">
        <ele>863.20</ele>
        <time>2012-10-20T12:44:55Z</time>
      </trkpt>
      <trkpt lat="42.425016600" lon="-2.579218800">
        <ele>862.60</ele>
        <time>2012-10-20T12:44:58Z</time>
      </trkpt>
      <trkpt lat="42.425067900" lon="-2.579099500">
        <ele>862.00</ele>
        <time>2012-10-20T12:44:58Z</time>
      </trkpt>
      <trkpt lat="42.425119600" lon="-2.578979500">
        <ele>861.60</ele>
        <time>2012-10-20T12:45:00Z</time>
      </trkpt>
      <trkpt lat="42.425219500" lon="-2.578748400">
        <ele>860.40</ele>
        <time>2012-10-20T12:45:02Z</time>
      </trkpt>
      <trkpt lat="42.425318200" lon="-2.578517300">
        <ele>860.40</ele>
        <time>2012-10-20T12:45:04Z</time>
      </trkpt>
      <trkpt lat="42.425465600" lon="-2.578172900">
        <ele>860.00</ele>
        <time>2012-10-20T12:45:07Z</time>
      </trkpt>
      <trkpt lat="42.425515100" lon="-2.578058500">
        <ele>859.40</ele>
        <time>2012-10-20T12:45:07Z</time>
      </trkpt>
      <trkpt lat="42.425564100" lon="-2.577946200">
        <ele>859.00</ele>
        <time>2012-10-20T12:45:09Z</time>
      </trkpt>
      <trkpt lat="42.425613400" lon="-2.577832300">
        <ele>858.40</ele>
        <time>2012-10-20T12:45:09Z</time>
      </trkpt>
      <trkpt lat="42.425663100" lon="-2.577717900">
        <ele>858.00</ele>
        <time>2012-10-20T12:45:11Z</time>
      </trkpt>
      <trkpt lat="42.425712300" lon="-2.577603900">
        <ele>858.00</ele>
        <time>2012-10-20T12:45:12Z</time>
      </trkpt>
      <trkpt lat="42.425807700" lon="-2.577379700">
        <ele>857.60</ele>
        <time>2012-10-20T12:45:14Z</time>
      </trkpt>
      <trkpt lat="42.425858400" lon="-2.577265500">
        <ele>857.20</ele>
        <time>2012-10-20T12:45:14Z</time>
      </trkpt>
      <trkpt lat="42.425910400" lon="-2.577154900">
        <ele>856.80</ele>
        <time>2012-10-20T12:45:16Z</time>
      </trkpt>
      <trkpt lat="42.425960300" lon="-2.577039700">
        <ele>856.40</ele>
        <time>2012-10-20T12:45:16Z</time>
      </trkpt>
      <trkpt lat="42.426007200" lon="-2.576927500">
        <ele>855.80</ele>
        <time>2012-10-20T12:45:18Z</time>
      </trkpt>
      <trkpt lat="42.426054400" lon="-2.576813000">
        <ele>855.80</ele>
        <time>2012-10-20T12:45:19Z</time>
      </trkpt>
      <trkpt lat="42.426191400" lon="-2.576477300">
        <ele>855.40</ele>
        <time>2012-10-20T12:45:21Z</time>
      </trkpt>
      <trkpt lat="42.426387700" lon="-2.576027000">
        <ele>853.80</ele>
        <time>2012-10-20T12:45:26Z</time>
      </trkpt>
      <trkpt lat="42.426481400" lon="-2.575802900">
        <ele>853.80</ele>
        <time>2012-10-20T12:45:28Z</time>
      </trkpt>
      <trkpt lat="42.426671400" lon="-2.575361200">
        <ele>853.40</ele>
        <time>2012-10-20T12:45:31Z</time>
      </trkpt>
      <trkpt lat="42.426719800" lon="-2.575252300">
        <ele>852.80</ele>
        <time>2012-10-20T12:45:33Z</time>
      </trkpt>
      <trkpt lat="42.426766600" lon="-2.575146800">
        <ele>852.40</ele>
        <time>2012-10-20T12:45:33Z</time>
      </trkpt>
      <trkpt lat="42.426817600" lon="-2.575039900">
        <ele>852.00</ele>
        <time>2012-10-20T12:45:35Z</time>
      </trkpt>
      <trkpt lat="42.426869200" lon="-2.574931200">
        <ele>851.40</ele>
        <time>2012-10-20T12:45:35Z</time>
      </trkpt>
      <trkpt lat="42.426970800" lon="-2.574719400">
        <ele>851.40</ele>
        <time>2012-10-20T12:45:37Z</time>
      </trkpt>
      <trkpt lat="42.427074100" lon="-2.574508300">
        <ele>850.60</ele>
        <time>2012-10-20T12:45:40Z</time>
      </trkpt>
      <trkpt lat="42.427125700" lon="-2.574402800">
        <ele>850.00</ele>
        <time>2012-10-20T12:45:40Z</time>
      </trkpt>
      <trkpt lat="42.427228400" lon="-2.574192800">
        <ele>849.20</ele>
        <time>2012-10-20T12:45:42Z</time>
      </trkpt>
      <trkpt lat="42.427433800" lon="-2.573777400">
        <ele>848.60</ele>
        <time>2012-10-20T12:45:47Z</time>
      </trkpt>
      <trkpt lat="42.427529600" lon="-2.573573100">
        <ele>847.80</ele>
        <time>2012-10-20T12:45:49Z</time>
      </trkpt>
      <trkpt lat="42.427621100" lon="-2.573370200">
        <ele>847.00</ele>
        <time>2012-10-20T12:45:51Z</time>
      </trkpt>
      <trkpt lat="42.427715100" lon="-2.573170500">
        <ele>846.60</ele>
        <time>2012-10-20T12:45:52Z</time>
      </trkpt>
      <trkpt lat="42.427763700" lon="-2.573071700">
        <ele>846.20</ele>
        <time>2012-10-20T12:45:54Z</time>
      </trkpt>
      <trkpt lat="42.427812700" lon="-2.572976700">
        <ele>845.60</ele>
        <time>2012-10-20T12:45:54Z</time>
      </trkpt>
      <trkpt lat="42.427909300" lon="-2.572783700">
        <ele>844.80</ele>
        <time>2012-10-20T12:45:56Z</time>
      </trkpt>
      <trkpt lat="42.428002800" lon="-2.572583000">
        <ele>844.80</ele>
        <time>2012-10-20T12:45:59Z</time>
      </trkpt>
      <trkpt lat="42.428093800" lon="-2.572378700">
        <ele>844.40</ele>
        <time>2012-10-20T12:46:01Z</time>
      </trkpt>
      <trkpt lat="42.428137800" lon="-2.572279400">
        <ele>844.00</ele>
        <time>2012-10-20T12:46:01Z</time>
      </trkpt>
      <trkpt lat="42.428182800" lon="-2.572182700">
        <ele>843.60</ele>
        <time>2012-10-20T12:46:03Z</time>
      </trkpt>
      <trkpt lat="42.428271900" lon="-2.571995700">
        <ele>842.80</ele>
        <time>2012-10-20T12:46:05Z</time>
      </trkpt>
      <trkpt lat="42.428317800" lon="-2.571903900">
        <ele>842.80</ele>
        <time>2012-10-20T12:46:06Z</time>
      </trkpt>
      <trkpt lat="42.428447500" lon="-2.571632200">
        <ele>842.20</ele>
        <time>2012-10-20T12:46:08Z</time>
      </trkpt>
      <trkpt lat="42.428529300" lon="-2.571451000">
        <ele>841.40</ele>
        <time>2012-10-20T12:46:10Z</time>
      </trkpt>
      <trkpt lat="42.428611300" lon="-2.571275100">
        <ele>840.60</ele>
        <time>2012-10-20T12:46:13Z</time>
      </trkpt>
      <trkpt lat="42.428732000" lon="-2.571013100">
        <ele>840.60</ele>
        <time>2012-10-20T12:46:15Z</time>
      </trkpt>
      <trkpt lat="42.428905500" lon="-2.570676200">
        <ele>840.00</ele>
        <time>2012-10-20T12:46:20Z</time>
      </trkpt>
      <trkpt lat="42.428995300" lon="-2.570523900">
        <ele>839.20</ele>
        <time>2012-10-20T12:46:22Z</time>
      </trkpt>
      <trkpt lat="42.429039500" lon="-2.570444600">
        <ele>838.60</ele>
        <time>2012-10-20T12:46:22Z</time>
      </trkpt>
      <trkpt lat="42.429079400" lon="-2.570365300">
        <ele>838.20</ele>
        <time>2012-10-20T12:46:24Z</time>
      </trkpt>
      <trkpt lat="42.429116200" lon="-2.570284300">
        <ele>838.20</ele>
        <time>2012-10-20T12:46:24Z</time>
      </trkpt>
      <trkpt lat="42.429185900" lon="-2.570118900">
        <ele>837.40</ele>
        <time>2012-10-20T12:46:27Z</time>
      </trkpt>
      <trkpt lat="42.429222000" lon="-2.570039500">
        <ele>836.80</ele>
        <time>2012-10-20T12:46:27Z</time>
      </trkpt>
      <trkpt lat="42.429297100" lon="-2.569877700">
        <ele>836.40</ele>
        <time>2012-10-20T12:46:29Z</time>
      </trkpt>
      <trkpt lat="42.429334200" lon="-2.569796900">
        <ele>836.00</ele>
        <time>2012-10-20T12:46:31Z</time>
      </trkpt>
      <trkpt lat="42.429520400" lon="-2.569395400">
        <ele>835.60</ele>
        <time>2012-10-20T12:46:36Z</time>
      </trkpt>
      <trkpt lat="42.429558000" lon="-2.569315100">
        <ele>835.20</ele>
        <time>2012-10-20T12:46:36Z</time>
      </trkpt>
      <trkpt lat="42.429638200" lon="-2.569146400">
        <ele>834.80</ele>
        <time>2012-10-20T12:46:38Z</time>
      </trkpt>
      <trkpt lat="42.429675200" lon="-2.569065800">
        <ele>834.40</ele>
        <time>2012-10-20T12:46:39Z</time>
      </trkpt>
      <trkpt lat="42.429712800" lon="-2.568986800">
        <ele>833.80</ele>
        <time>2012-10-20T12:46:41Z</time>
      </trkpt>
      <trkpt lat="42.429895000" lon="-2.568580500">
        <ele>833.40</ele>
        <time>2012-10-20T12:46:46Z</time>
      </trkpt>
      <trkpt lat="42.429931900" lon="-2.568494200">
        <ele>833.00</ele>
        <time>2012-10-20T12:46:46Z</time>
      </trkpt>
      <trkpt lat="42.430001300" lon="-2.568330500">
        <ele>832.20</ele>
        <time>2012-10-20T12:46:48Z</time>
      </trkpt>
      <trkpt lat="42.430035000" lon="-2.568246100">
        <ele>831.80</ele>
        <time>2012-10-20T12:46:50Z</time>
      </trkpt>
      <trkpt lat="42.430118900" lon="-2.567999800">
        <ele>831.80</ele>
        <time>2012-10-20T12:46:53Z</time>
      </trkpt>
      <trkpt lat="42.430136100" lon="-2.567911600">
        <ele>831.80</ele>
        <time>2012-10-20T12:46:53Z</time>
      </trkpt>
      <trkpt lat="42.430156700" lon="-2.567819300">
        <ele>831.20</ele>
        <time>2012-10-20T12:46:55Z</time>
      </trkpt>
      <trkpt lat="42.430168500" lon="-2.567727100">
        <ele>830.80</ele>
        <time>2012-10-20T12:46:55Z</time>
      </trkpt>
      <trkpt lat="42.430192200" lon="-2.567532500">
        <ele>830.00</ele>
        <time>2012-10-20T12:46:57Z</time>
      </trkpt>
      <trkpt lat="42.430207600" lon="-2.567438200">
        <ele>829.60</ele>
        <time>2012-10-20T12:46:59Z</time>
      </trkpt>
      <trkpt lat="42.430285800" lon="-2.566940700">
        <ele>829.60</ele>
        <time>2012-10-20T12:47:04Z</time>
      </trkpt>
      <trkpt lat="42.430316100" lon="-2.566744900">
        <ele>829.20</ele>
        <time>2012-10-20T12:47:05Z</time>
      </trkpt>
      <trkpt lat="42.430332300" lon="-2.566649600">
        <ele>828.60</ele>
        <time>2012-10-20T12:47:07Z</time>
      </trkpt>
      <trkpt lat="42.430368500" lon="-2.566460200">
        <ele>827.80</ele>
        <time>2012-10-20T12:47:09Z</time>
      </trkpt>
      <trkpt lat="42.430385700" lon="-2.566363400">
        <ele>827.40</ele>
        <time>2012-10-20T12:47:09Z</time>
      </trkpt>
      <trkpt lat="42.430401300" lon="-2.566268100">
        <ele>827.40</ele>
        <time>2012-10-20T12:47:11Z</time>
      </trkpt>
      <trkpt lat="42.430525800" lon="-2.565716100">
        <ele>827.00</ele>
        <time>2012-10-20T12:47:16Z</time>
      </trkpt>
      <trkpt lat="42.430540600" lon="-2.565622700">
        <ele>826.40</ele>
        <time>2012-10-20T12:47:18Z</time>
      </trkpt>
      <trkpt lat="42.430574700" lon="-2.565444700">
        <ele>825.60</ele>
        <time>2012-10-20T12:47:19Z</time>
      </trkpt>
      <trkpt lat="42.430587800" lon="-2.565361000">
        <ele>825.20</ele>
        <time>2012-10-20T12:47:21Z</time>
      </trkpt>
      <trkpt lat="42.430616600" lon="-2.565122100">
        <ele>825.20</ele>
        <time>2012-10-20T12:47:23Z</time>
      </trkpt>
      <trkpt lat="42.430617200" lon="-2.564877500">
        <ele>824.80</ele>
        <time>2012-10-20T12:47:26Z</time>
      </trkpt>
      <trkpt lat="42.430621500" lon="-2.564803200">
        <ele>824.20</ele>
        <time>2012-10-20T12:47:28Z</time>
      </trkpt>
      <trkpt lat="42.430626200" lon="-2.564729900">
        <ele>823.80</ele>
        <time>2012-10-20T12:47:28Z</time>
      </trkpt>
      <trkpt lat="42.430642800" lon="-2.564671000">
        <ele>823.20</ele>
        <time>2012-10-20T12:47:30Z</time>
      </trkpt>
      <trkpt lat="42.430654700" lon="-2.564641300">
        <ele>822.80</ele>
        <time>2012-10-20T12:47:30Z</time>
      </trkpt>
      <trkpt lat="42.430664200" lon="-2.564625300">
        <ele>822.80</ele>
        <time>2012-10-20T12:47:32Z</time>
      </trkpt>
      <trkpt lat="42.430651300" lon="-2.564621400">
        <ele>822.80</ele>
        <time>2012-10-20T12:47:33Z</time>
      </trkpt>
      <trkpt lat="42.430611600" lon="-2.564627900">
        <ele>822.80</ele>
        <time>2012-10-20T12:47:35Z</time>
      </trkpt>
      <trkpt lat="42.430593200" lon="-2.564620700">
        <ele>822.40</ele>
        <time>2012-10-20T12:47:37Z</time>
      </trkpt>
      <trkpt lat="42.430577400" lon="-2.564614900">
        <ele>822.00</ele>
        <time>2012-10-20T12:47:37Z</time>
      </trkpt>
      <trkpt lat="42.430562400" lon="-2.564606100">
        <ele>821.60</ele>
        <time>2012-10-20T12:47:39Z</time>
      </trkpt>
      <trkpt lat="42.430538300" lon="-2.564590900">
        <ele>821.20</ele>
        <time>2012-10-20T12:47:40Z</time>
      </trkpt>
      <trkpt lat="42.430510500" lon="-2.564574500">
        <ele>820.60</ele>
        <time>2012-10-20T12:47:40Z</time>
      </trkpt>
      <trkpt lat="42.430303500" lon="-2.564483300">
        <ele>820.60</ele>
        <time>2012-10-20T12:47:44Z</time>
      </trkpt>
      <trkpt lat="42.430181300" lon="-2.564414100">
        <ele>820.20</ele>
        <time>2012-10-20T12:47:47Z</time>
      </trkpt>
      <trkpt lat="42.430134100" lon="-2.564362300">
        <ele>819.80</ele>
        <time>2012-10-20T12:47:47Z</time>
      </trkpt>
      <trkpt lat="42.430061000" lon="-2.564241800">
        <ele>819.00</ele>
        <time>2012-10-20T12:47:49Z</time>
      </trkpt>
      <trkpt lat="42.430024200" lon="-2.564187200">
        <ele>818.60</ele>
        <time>2012-10-20T12:47:51Z</time>
      </trkpt>
      <trkpt lat="42.429984900" lon="-2.564119000">
        <ele>818.60</ele>
        <time>2012-10-20T12:47:51Z</time>
      </trkpt>
      <trkpt lat="42.429944500" lon="-2.564059600">
        <ele>818.60</ele>
        <time>2012-10-20T12:47:53Z</time>
      </trkpt>
      <trkpt lat="42.429859600" lon="-2.563946700">
        <ele>818.60</ele>
        <time>2012-10-20T12:47:54Z</time>
      </trkpt>
      <trkpt lat="42.429751500" lon="-2.563818700">
        <ele>818.60</ele>
        <time>2012-10-20T12:47:58Z</time>
      </trkpt>
      <trkpt lat="42.429596300" lon="-2.563602100">
        <ele>818.60</ele>
        <time>2012-10-20T12:48:03Z</time>
      </trkpt>
      <trkpt lat="42.429525500" lon="-2.563527800">
        <ele>818.60</ele>
        <time>2012-10-20T12:48:05Z</time>
      </trkpt>
      <trkpt lat="42.429498700" lon="-2.563475200">
        <ele>818.20</ele>
        <time>2012-10-20T12:48:05Z</time>
      </trkpt>
      <trkpt lat="42.429470500" lon="-2.563426800">
        <ele>817.80</ele>
        <time>2012-10-20T12:48:06Z</time>
      </trkpt>
      <trkpt lat="42.429452100" lon="-2.563379900">
        <ele>817.40</ele>
        <time>2012-10-20T12:48:08Z</time>
      </trkpt>
      <trkpt lat="42.429442000" lon="-2.563330500">
        <ele>817.00</ele>
        <time>2012-10-20T12:48:08Z</time>
      </trkpt>
      <trkpt lat="42.429437800" lon="-2.563286900">
        <ele>816.60</ele>
        <time>2012-10-20T12:48:10Z</time>
      </trkpt>
      <trkpt lat="42.429428700" lon="-2.563250900">
        <ele>816.60</ele>
        <time>2012-10-20T12:48:10Z</time>
      </trkpt>
      <trkpt lat="42.429360100" lon="-2.563082800">
        <ele>816.60</ele>
        <time>2012-10-20T12:48:15Z</time>
      </trkpt>
      <trkpt lat="42.429264600" lon="-2.562813800">
        <ele>816.60</ele>
        <time>2012-10-20T12:48:19Z</time>
      </trkpt>
      <trkpt lat="42.429256500" lon="-2.562670500">
        <ele>816.60</ele>
        <time>2012-10-20T12:48:20Z</time>
      </trkpt>
      <trkpt lat="42.429225000" lon="-2.562511900">
        <ele>816.60</ele>
        <time>2012-10-20T12:48:24Z</time>
      </trkpt>
      <trkpt lat="42.429191400" lon="-2.562357400">
        <ele>816.60</ele>
        <time>2012-10-20T12:48:26Z</time>
      </trkpt>
      <trkpt lat="42.429173800" lon="-2.562222100">
        <ele>816.60</ele>
        <time>2012-10-20T12:48:29Z</time>
      </trkpt>
      <trkpt lat="42.429183600" lon="-2.562012100">
        <ele>816.60</ele>
        <time>2012-10-20T12:48:34Z</time>
      </trkpt>
      <trkpt lat="42.429191800" lon="-2.561993100">
        <ele>816.60</ele>
        <time>2012-10-20T12:48:36Z</time>
      </trkpt>
      <trkpt lat="42.429206800" lon="-2.561939100">
        <ele>816.60</ele>
        <time>2012-10-20T12:48:38Z</time>
      </trkpt>
      <trkpt lat="42.429200900" lon="-2.561859100">
        <ele>816.60</ele>
        <time>2012-10-20T12:48:41Z</time>
      </trkpt>
      <trkpt lat="42.429185600" lon="-2.561814100">
        <ele>816.60</ele>
        <time>2012-10-20T12:48:43Z</time>
      </trkpt>
      <trkpt lat="42.429178300" lon="-2.561778800">
        <ele>816.60</ele>
        <time>2012-10-20T12:48:45Z</time>
      </trkpt>
      <trkpt lat="42.429167500" lon="-2.561749800">
        <ele>816.60</ele>
        <time>2012-10-20T12:48:48Z</time>
      </trkpt>
      <trkpt lat="42.429105800" lon="-2.561663400">
        <ele>753.60</ele>
        <time>2012-10-20T12:53:34Z</time>
      </trkpt>
      <trkpt lat="42.429113300" lon="-2.561646200">
        <ele>753.20</ele>
        <time>2012-10-20T12:53:36Z</time>
      </trkpt>
      <trkpt lat="42.429121300" lon="-2.561625700">
        <ele>752.80</ele>
        <time>2012-10-20T12:53:36Z</time>
      </trkpt>
      <trkpt lat="42.429128300" lon="-2.561604200">
        <ele>752.40</ele>
        <time>2012-10-20T12:53:37Z</time>
      </trkpt>
      <trkpt lat="42.429126500" lon="-2.561576400">
        <ele>751.80</ele>
        <time>2012-10-20T12:53:39Z</time>
      </trkpt>
      <trkpt lat="42.429085800" lon="-2.561511000">
        <ele>751.80</ele>
        <time>2012-10-20T12:53:43Z</time>
      </trkpt>
      <trkpt lat="42.428969200" lon="-2.561493200">
        <ele>751.40</ele>
        <time>2012-10-20T12:53:48Z</time>
      </trkpt>
      <trkpt lat="42.428913600" lon="-2.561487000">
        <ele>750.60</ele>
        <time>2012-10-20T12:53:50Z</time>
      </trkpt>
      <trkpt lat="42.428887800" lon="-2.561484800">
        <ele>750.20</ele>
        <time>2012-10-20T12:53:50Z</time>
      </trkpt>
      <trkpt lat="42.428862000" lon="-2.561504000">
        <ele>749.80</ele>
        <time>2012-10-20T12:53:51Z</time>
      </trkpt>
      <trkpt lat="42.428838300" lon="-2.561521900">
        <ele>749.80</ele>
        <time>2012-10-20T12:53:53Z</time>
      </trkpt>
      <trkpt lat="42.428795600" lon="-2.561525800">
        <ele>749.80</ele>
        <time>2012-10-20T12:53:55Z</time>
      </trkpt>
      <trkpt lat="42.428743100" lon="-2.561445100">
        <ele>749.40</ele>
        <time>2012-10-20T12:53:58Z</time>
      </trkpt>
      <trkpt lat="42.428735700" lon="-2.561385300">
        <ele>749.00</ele>
        <time>2012-10-20T12:53:58Z</time>
      </trkpt>
      <trkpt lat="42.428729200" lon="-2.561337400">
        <ele>748.60</ele>
        <time>2012-10-20T12:54:00Z</time>
      </trkpt>
      <trkpt lat="42.428728100" lon="-2.561287600">
        <ele>748.20</ele>
        <time>2012-10-20T12:54:00Z</time>
      </trkpt>
      <trkpt lat="42.428728200" lon="-2.561231800">
        <ele>747.60</ele>
        <time>2012-10-20T12:54:02Z</time>
      </trkpt>
      <trkpt lat="42.428727100" lon="-2.561163900">
        <ele>747.60</ele>
        <time>2012-10-20T12:54:02Z</time>
      </trkpt>
      <trkpt lat="42.428735300" lon="-2.561101700">
        <ele>747.60</ele>
        <time>2012-10-20T12:54:04Z</time>
      </trkpt>
      <trkpt lat="42.428761800" lon="-2.560741400">
        <ele>747.60</ele>
        <time>2012-10-20T12:54:09Z</time>
      </trkpt>
      <trkpt lat="42.428776200" lon="-2.560661200">
        <ele>747.60</ele>
        <time>2012-10-20T12:54:09Z</time>
      </trkpt>
      <trkpt lat="42.428857400" lon="-2.560333800">
        <ele>747.60</ele>
        <time>2012-10-20T12:54:12Z</time>
      </trkpt>
      <trkpt lat="42.428852100" lon="-2.560261600">
        <ele>747.60</ele>
        <time>2012-10-20T12:54:14Z</time>
      </trkpt>
      <trkpt lat="42.428852600" lon="-2.560185900">
        <ele>747.60</ele>
        <time>2012-10-20T12:54:14Z</time>
      </trkpt>
      <trkpt lat="42.428876300" lon="-2.560032200">
        <ele>747.20</ele>
        <time>2012-10-20T12:54:16Z</time>
      </trkpt>
      <trkpt lat="42.428881700" lon="-2.559950400">
        <ele>746.80</ele>
        <time>2012-10-20T12:54:18Z</time>
      </trkpt>
      <trkpt lat="42.428903300" lon="-2.559867500">
        <ele>746.40</ele>
        <time>2012-10-20T12:54:19Z</time>
      </trkpt>
      <trkpt lat="42.428920500" lon="-2.559780600">
        <ele>746.00</ele>
        <time>2012-10-20T12:54:19Z</time>
      </trkpt>
      <trkpt lat="42.428931100" lon="-2.559685100">
        <ele>745.60</ele>
        <time>2012-10-20T12:54:21Z</time>
      </trkpt>
      <trkpt lat="42.428971400" lon="-2.559216700">
        <ele>745.60</ele>
        <time>2012-10-20T12:54:26Z</time>
      </trkpt>
      <trkpt lat="42.428999400" lon="-2.558927800">
        <ele>745.60</ele>
        <time>2012-10-20T12:54:28Z</time>
      </trkpt>
      <trkpt lat="42.429023800" lon="-2.558632600">
        <ele>745.20</ele>
        <time>2012-10-20T12:54:31Z</time>
      </trkpt>
      <trkpt lat="42.429032300" lon="-2.558531900">
        <ele>744.80</ele>
        <time>2012-10-20T12:54:33Z</time>
      </trkpt>
      <trkpt lat="42.429038500" lon="-2.558426700">
        <ele>744.40</ele>
        <time>2012-10-20T12:54:33Z</time>
      </trkpt>
      <trkpt lat="42.429055700" lon="-2.558326200">
        <ele>744.00</ele>
        <time>2012-10-20T12:54:35Z</time>
      </trkpt>
      <trkpt lat="42.429078500" lon="-2.558224900">
        <ele>743.60</ele>
        <time>2012-10-20T12:54:35Z</time>
      </trkpt>
      <trkpt lat="42.429125000" lon="-2.557936600">
        <ele>743.60</ele>
        <time>2012-10-20T12:54:38Z</time>
      </trkpt>
      <trkpt lat="42.429146300" lon="-2.557469000">
        <ele>743.60</ele>
        <time>2012-10-20T12:54:44Z</time>
      </trkpt>
      <trkpt lat="42.429157600" lon="-2.557377800">
        <ele>743.00</ele>
        <time>2012-10-20T12:54:45Z</time>
      </trkpt>
      <trkpt lat="42.429170000" lon="-2.557281900">
        <ele>742.60</ele>
        <time>2012-10-20T12:54:45Z</time>
      </trkpt>
      <trkpt lat="42.429191400" lon="-2.557184500">
        <ele>742.20</ele>
        <time>2012-10-20T12:54:47Z</time>
      </trkpt>
      <trkpt lat="42.429221700" lon="-2.557097300">
        <ele>741.60</ele>
        <time>2012-10-20T12:54:47Z</time>
      </trkpt>
      <trkpt lat="42.429260300" lon="-2.557017300">
        <ele>741.20</ele>
        <time>2012-10-20T12:54:49Z</time>
      </trkpt>
      <trkpt lat="42.429354500" lon="-2.556913600">
        <ele>741.20</ele>
        <time>2012-10-20T12:54:51Z</time>
      </trkpt>
      <trkpt lat="42.429522700" lon="-2.556864400">
        <ele>741.20</ele>
        <time>2012-10-20T12:54:54Z</time>
      </trkpt>
      <trkpt lat="42.429605000" lon="-2.556778400">
        <ele>741.20</ele>
        <time>2012-10-20T12:54:56Z</time>
      </trkpt>
      <trkpt lat="42.429621200" lon="-2.556713200">
        <ele>741.20</ele>
        <time>2012-10-20T12:54:56Z</time>
      </trkpt>
      <trkpt lat="42.429634600" lon="-2.556529200">
        <ele>741.20</ele>
        <time>2012-10-20T12:54:59Z</time>
      </trkpt>
      <trkpt lat="42.429637900" lon="-2.556328900">
        <ele>740.80</ele>
        <time>2012-10-20T12:55:01Z</time>
      </trkpt>
      <trkpt lat="42.429651600" lon="-2.555993500">
        <ele>739.60</ele>
        <time>2012-10-20T12:55:03Z</time>
      </trkpt>
      <trkpt lat="42.429662100" lon="-2.555869200">
        <ele>739.20</ele>
        <time>2012-10-20T12:55:05Z</time>
      </trkpt>
      <trkpt lat="42.429668400" lon="-2.555749700">
        <ele>739.20</ele>
        <time>2012-10-20T12:55:06Z</time>
      </trkpt>
      <trkpt lat="42.429708000" lon="-2.555377400">
        <ele>739.20</ele>
        <time>2012-10-20T12:55:08Z</time>
      </trkpt>
      <trkpt lat="42.429748800" lon="-2.555136300">
        <ele>739.20</ele>
        <time>2012-10-20T12:55:10Z</time>
      </trkpt>
      <trkpt lat="42.429771700" lon="-2.555014900">
        <ele>739.20</ele>
        <time>2012-10-20T12:55:12Z</time>
      </trkpt>
      <trkpt lat="42.429811500" lon="-2.554765400">
        <ele>738.60</ele>
        <time>2012-10-20T12:55:13Z</time>
      </trkpt>
      <trkpt lat="42.429837500" lon="-2.554510400">
        <ele>737.80</ele>
        <time>2012-10-20T12:55:15Z</time>
      </trkpt>
      <trkpt lat="42.429847600" lon="-2.554382400">
        <ele>737.40</ele>
        <time>2012-10-20T12:55:17Z</time>
      </trkpt>
      <trkpt lat="42.429859800" lon="-2.554254700">
        <ele>737.00</ele>
        <time>2012-10-20T12:55:17Z</time>
      </trkpt>
      <trkpt lat="42.429922000" lon="-2.553773300">
        <ele>737.00</ele>
        <time>2012-10-20T12:55:22Z</time>
      </trkpt>
      <trkpt lat="42.429930300" lon="-2.553654500">
        <ele>737.00</ele>
        <time>2012-10-20T12:55:22Z</time>
      </trkpt>
      <trkpt lat="42.429914400" lon="-2.553312700">
        <ele>736.60</ele>
        <time>2012-10-20T12:55:25Z</time>
      </trkpt>
      <trkpt lat="42.429888100" lon="-2.553094100">
        <ele>735.80</ele>
        <time>2012-10-20T12:55:27Z</time>
      </trkpt>
      <trkpt lat="42.429874400" lon="-2.552997700">
        <ele>735.40</ele>
        <time>2012-10-20T12:55:29Z</time>
      </trkpt>
      <trkpt lat="42.429862700" lon="-2.552898600">
        <ele>735.00</ele>
        <time>2012-10-20T12:55:29Z</time>
      </trkpt>
      <trkpt lat="42.429850700" lon="-2.552807700">
        <ele>735.00</ele>
        <time>2012-10-20T12:55:31Z</time>
      </trkpt>
      <trkpt lat="42.429815900" lon="-2.552649700">
        <ele>735.00</ele>
        <time>2012-10-20T12:55:32Z</time>
      </trkpt>
      <trkpt lat="42.429651900" lon="-2.552344200">
        <ele>735.00</ele>
        <time>2012-10-20T12:55:38Z</time>
      </trkpt>
      <trkpt lat="42.429645400" lon="-2.552276100">
        <ele>734.60</ele>
        <time>2012-10-20T12:55:38Z</time>
      </trkpt>
      <trkpt lat="42.429649700" lon="-2.552206800">
        <ele>734.20</ele>
        <time>2012-10-20T12:55:39Z</time>
      </trkpt>
      <trkpt lat="42.429683400" lon="-2.552147900">
        <ele>733.80</ele>
        <time>2012-10-20T12:55:41Z</time>
      </trkpt>
      <trkpt lat="42.429732700" lon="-2.552104500">
        <ele>733.40</ele>
        <time>2012-10-20T12:55:41Z</time>
      </trkpt>
      <trkpt lat="42.429787500" lon="-2.552077900">
        <ele>733.00</ele>
        <time>2012-10-20T12:55:43Z</time>
      </trkpt>
      <trkpt lat="42.429845200" lon="-2.552056000">
        <ele>733.00</ele>
        <time>2012-10-20T12:55:43Z</time>
      </trkpt>
      <trkpt lat="42.429957100" lon="-2.552004300">
        <ele>733.00</ele>
        <time>2012-10-20T12:55:46Z</time>
      </trkpt>
      <trkpt lat="42.430052600" lon="-2.551910600">
        <ele>733.00</ele>
        <time>2012-10-20T12:55:48Z</time>
      </trkpt>
      <trkpt lat="42.430127300" lon="-2.551784300">
        <ele>733.00</ele>
        <time>2012-10-20T12:55:50Z</time>
      </trkpt>
      <trkpt lat="42.430206500" lon="-2.551562800">
        <ele>732.60</ele>
        <time>2012-10-20T12:55:53Z</time>
      </trkpt>
      <trkpt lat="42.430232800" lon="-2.551486300">
        <ele>732.00</ele>
        <time>2012-10-20T12:55:53Z</time>
      </trkpt>
      <trkpt lat="42.430257900" lon="-2.551415800">
        <ele>731.60</ele>
        <time>2012-10-20T12:55:55Z</time>
      </trkpt>
      <trkpt lat="42.430310400" lon="-2.551278200">
        <ele>730.80</ele>
        <time>2012-10-20T12:55:57Z</time>
      </trkpt>
      <trkpt lat="42.430398800" lon="-2.551006300">
        <ele>730.80</ele>
        <time>2012-10-20T12:56:00Z</time>
      </trkpt>
      <trkpt lat="42.430419500" lon="-2.550934700">
        <ele>730.80</ele>
        <time>2012-10-20T12:56:02Z</time>
      </trkpt>
      <trkpt lat="42.430439500" lon="-2.550867100">
        <ele>730.40</ele>
        <time>2012-10-20T12:56:02Z</time>
      </trkpt>
      <trkpt lat="42.430452100" lon="-2.550796900">
        <ele>730.00</ele>
        <time>2012-10-20T12:56:04Z</time>
      </trkpt>
      <trkpt lat="42.430466100" lon="-2.550721300">
        <ele>729.60</ele>
        <time>2012-10-20T12:56:04Z</time>
      </trkpt>
      <trkpt lat="42.430477000" lon="-2.550648100">
        <ele>729.20</ele>
        <time>2012-10-20T12:56:06Z</time>
      </trkpt>
      <trkpt lat="42.430484700" lon="-2.550571900">
        <ele>728.80</ele>
        <time>2012-10-20T12:56:07Z</time>
      </trkpt>
      <trkpt lat="42.430519100" lon="-2.550270700">
        <ele>728.80</ele>
        <time>2012-10-20T12:56:11Z</time>
      </trkpt>
      <trkpt lat="42.430554600" lon="-2.550126500">
        <ele>728.80</ele>
        <time>2012-10-20T12:56:12Z</time>
      </trkpt>
      <trkpt lat="42.430623600" lon="-2.549906200">
        <ele>728.80</ele>
        <time>2012-10-20T12:56:16Z</time>
      </trkpt>
      <trkpt lat="42.430665500" lon="-2.549763200">
        <ele>728.20</ele>
        <time>2012-10-20T12:56:18Z</time>
      </trkpt>
      <trkpt lat="42.430716300" lon="-2.549563700">
        <ele>727.00</ele>
        <time>2012-10-20T12:56:21Z</time>
      </trkpt>
      <trkpt lat="42.430735500" lon="-2.549492400">
        <ele>726.60</ele>
        <time>2012-10-20T12:56:21Z</time>
      </trkpt>
      <trkpt lat="42.430829800" lon="-2.549208900">
        <ele>726.60</ele>
        <time>2012-10-20T12:56:25Z</time>
      </trkpt>
      <trkpt lat="42.430944900" lon="-2.548877600">
        <ele>726.20</ele>
        <time>2012-10-20T12:56:30Z</time>
      </trkpt>
      <trkpt lat="42.430965500" lon="-2.548815000">
        <ele>725.60</ele>
        <time>2012-10-20T12:56:32Z</time>
      </trkpt>
      <trkpt lat="42.430989900" lon="-2.548746400">
        <ele>725.20</ele>
        <time>2012-10-20T12:56:33Z</time>
      </trkpt>
      <trkpt lat="42.431014700" lon="-2.548679700">
        <ele>724.80</ele>
        <time>2012-10-20T12:56:33Z</time>
      </trkpt>
      <trkpt lat="42.431039600" lon="-2.548613000">
        <ele>724.20</ele>
        <time>2012-10-20T12:56:35Z</time>
      </trkpt>
      <trkpt lat="42.431111300" lon="-2.548414100">
        <ele>724.20</ele>
        <time>2012-10-20T12:56:37Z</time>
      </trkpt>
      <trkpt lat="42.431190600" lon="-2.548207900">
        <ele>723.80</ele>
        <time>2012-10-20T12:56:40Z</time>
      </trkpt>
      <trkpt lat="42.431277700" lon="-2.548014500">
        <ele>722.60</ele>
        <time>2012-10-20T12:56:44Z</time>
      </trkpt>
      <trkpt lat="42.431303800" lon="-2.547954200">
        <ele>722.20</ele>
        <time>2012-10-20T12:56:44Z</time>
      </trkpt>
      <trkpt lat="42.431502100" lon="-2.547504900">
        <ele>722.20</ele>
        <time>2012-10-20T12:56:51Z</time>
      </trkpt>
      <trkpt lat="42.431600000" lon="-2.547322700">
        <ele>721.80</ele>
        <time>2012-10-20T12:56:54Z</time>
      </trkpt>
      <trkpt lat="42.431668400" lon="-2.547206600">
        <ele>720.60</ele>
        <time>2012-10-20T12:56:56Z</time>
      </trkpt>
      <trkpt lat="42.431700000" lon="-2.547148300">
        <ele>720.20</ele>
        <time>2012-10-20T12:56:58Z</time>
      </trkpt>
      <trkpt lat="42.431731600" lon="-2.547090000">
        <ele>719.60</ele>
        <time>2012-10-20T12:56:58Z</time>
      </trkpt>
      <trkpt lat="42.431761600" lon="-2.547032600">
        <ele>719.60</ele>
        <time>2012-10-20T12:57:00Z</time>
      </trkpt>
      <trkpt lat="42.431865800" lon="-2.546791400">
        <ele>719.60</ele>
        <time>2012-10-20T12:57:03Z</time>
      </trkpt>
      <trkpt lat="42.431901000" lon="-2.546654900">
        <ele>719.60</ele>
        <time>2012-10-20T12:57:05Z</time>
      </trkpt>
      <trkpt lat="42.431967100" lon="-2.546350000">
        <ele>719.20</ele>
        <time>2012-10-20T12:57:10Z</time>
      </trkpt>
      <trkpt lat="42.431980900" lon="-2.546297000">
        <ele>718.80</ele>
        <time>2012-10-20T12:57:12Z</time>
      </trkpt>
      <trkpt lat="42.431996500" lon="-2.546246500">
        <ele>718.40</ele>
        <time>2012-10-20T12:57:12Z</time>
      </trkpt>
      <trkpt lat="42.432013400" lon="-2.546197500">
        <ele>718.00</ele>
        <time>2012-10-20T12:57:13Z</time>
      </trkpt>
      <trkpt lat="42.432030600" lon="-2.546151200">
        <ele>717.60</ele>
        <time>2012-10-20T12:57:15Z</time>
      </trkpt>
      <trkpt lat="42.432050200" lon="-2.546109600">
        <ele>717.60</ele>
        <time>2012-10-20T12:57:15Z</time>
      </trkpt>
      <trkpt lat="42.432096400" lon="-2.546034100">
        <ele>717.60</ele>
        <time>2012-10-20T12:57:17Z</time>
      </trkpt>
      <trkpt lat="42.432182600" lon="-2.545943300">
        <ele>717.60</ele>
        <time>2012-10-20T12:57:20Z</time>
      </trkpt>
      <trkpt lat="42.432308300" lon="-2.545845300">
        <ele>717.60</ele>
        <time>2012-10-20T12:57:24Z</time>
      </trkpt>
      <trkpt lat="42.432504300" lon="-2.545709100">
        <ele>717.60</ele>
        <time>2012-10-20T12:57:31Z</time>
      </trkpt>
      <trkpt lat="42.432725800" lon="-2.545539100">
        <ele>717.60</ele>
        <time>2012-10-20T12:57:38Z</time>
      </trkpt>
      <trkpt lat="42.432843000" lon="-2.545462400">
        <ele>717.20</ele>
        <time>2012-10-20T12:57:41Z</time>
      </trkpt>
      <trkpt lat="42.432897000" lon="-2.545420900">
        <ele>716.80</ele>
        <time>2012-10-20T12:57:43Z</time>
      </trkpt>
      <trkpt lat="42.432927900" lon="-2.545398500">
        <ele>716.40</ele>
        <time>2012-10-20T12:57:45Z</time>
      </trkpt>
      <trkpt lat="42.432955600" lon="-2.545378600">
        <ele>716.00</ele>
        <time>2012-10-20T12:57:45Z</time>
      </trkpt>
      <trkpt lat="42.432988200" lon="-2.545360000">
        <ele>715.60</ele>
        <time>2012-10-20T12:57:47Z</time>
      </trkpt>
      <trkpt lat="42.433101700" lon="-2.545292800">
        <ele>715.60</ele>
        <time>2012-10-20T12:57:50Z</time>
      </trkpt>
      <trkpt lat="42.433180700" lon="-2.545233900">
        <ele>714.00</ele>
        <time>2012-10-20T12:57:54Z</time>
      </trkpt>
      <trkpt lat="42.433207800" lon="-2.545212000">
        <ele>712.40</ele>
        <time>2012-10-20T12:57:55Z</time>
      </trkpt>
      <trkpt lat="42.433236800" lon="-2.545191300">
        <ele>710.80</ele>
        <time>2012-10-20T12:57:55Z</time>
      </trkpt>
      <trkpt lat="42.433265200" lon="-2.545171500">
        <ele>711.00</ele>
        <time>2012-10-20T12:57:57Z</time>
      </trkpt>
      <trkpt lat="42.433325800" lon="-2.545131800">
        <ele>711.80</ele>
        <time>2012-10-20T12:57:59Z</time>
      </trkpt>
      <trkpt lat="42.433360200" lon="-2.545102500">
        <ele>712.20</ele>
        <time>2012-10-20T12:57:59Z</time>
      </trkpt>
      <trkpt lat="42.433390100" lon="-2.545063200">
        <ele>712.60</ele>
        <time>2012-10-20T12:58:00Z</time>
      </trkpt>
      <trkpt lat="42.433420500" lon="-2.545018100">
        <ele>712.60</ele>
        <time>2012-10-20T12:58:02Z</time>
      </trkpt>
      <trkpt lat="42.433448800" lon="-2.544843900">
        <ele>712.60</ele>
        <time>2012-10-20T12:58:04Z</time>
      </trkpt>
      <trkpt lat="42.433422900" lon="-2.544719100">
        <ele>712.60</ele>
        <time>2012-10-20T12:58:06Z</time>
      </trkpt>
      <trkpt lat="42.433397500" lon="-2.544584600">
        <ele>712.60</ele>
        <time>2012-10-20T12:58:09Z</time>
      </trkpt>
      <trkpt lat="42.433394400" lon="-2.544513000">
        <ele>712.60</ele>
        <time>2012-10-20T12:58:09Z</time>
      </trkpt>
      <trkpt lat="42.433418400" lon="-2.544184600">
        <ele>712.60</ele>
        <time>2012-10-20T12:58:13Z</time>
      </trkpt>
      <trkpt lat="42.433441300" lon="-2.544097000">
        <ele>712.60</ele>
        <time>2012-10-20T12:58:14Z</time>
      </trkpt>
      <trkpt lat="42.433472600" lon="-2.544008500">
        <ele>712.20</ele>
        <time>2012-10-20T12:58:16Z</time>
      </trkpt>
      <trkpt lat="42.433513600" lon="-2.543919200">
        <ele>711.80</ele>
        <time>2012-10-20T12:58:16Z</time>
      </trkpt>
      <trkpt lat="42.433560800" lon="-2.543833900">
        <ele>711.40</ele>
        <time>2012-10-20T12:58:18Z</time>
      </trkpt>
      <trkpt lat="42.433609400" lon="-2.543755400">
        <ele>711.00</ele>
        <time>2012-10-20T12:58:18Z</time>
      </trkpt>
      <trkpt lat="42.433661700" lon="-2.543676700">
        <ele>710.60</ele>
        <time>2012-10-20T12:58:20Z</time>
      </trkpt>
      <trkpt lat="42.433874000" lon="-2.543405200">
        <ele>710.60</ele>
        <time>2012-10-20T12:58:23Z</time>
      </trkpt>
      <trkpt lat="42.434131300" lon="-2.543087500">
        <ele>710.60</ele>
        <time>2012-10-20T12:58:30Z</time>
      </trkpt>
      <trkpt lat="42.434310300" lon="-2.542860800">
        <ele>710.60</ele>
        <time>2012-10-20T12:58:35Z</time>
      </trkpt>
      <trkpt lat="42.434446000" lon="-2.542693500">
        <ele>710.60</ele>
        <time>2012-10-20T12:58:39Z</time>
      </trkpt>
      <trkpt lat="42.434479200" lon="-2.542654400">
        <ele>710.00</ele>
        <time>2012-10-20T12:58:39Z</time>
      </trkpt>
      <trkpt lat="42.434612300" lon="-2.542495900">
        <ele>708.40</ele>
        <time>2012-10-20T12:58:44Z</time>
      </trkpt>
      <trkpt lat="42.434778200" lon="-2.542247900">
        <ele>708.40</ele>
        <time>2012-10-20T12:58:49Z</time>
      </trkpt>
      <trkpt lat="42.434995500" lon="-2.541772400">
        <ele>708.40</ele>
        <time>2012-10-20T12:59:01Z</time>
      </trkpt>
      <trkpt lat="42.435015200" lon="-2.541738600">
        <ele>708.40</ele>
        <time>2012-10-20T12:59:03Z</time>
      </trkpt>
      <trkpt lat="42.435033100" lon="-2.541706500">
        <ele>708.00</ele>
        <time>2012-10-20T12:59:03Z</time>
      </trkpt>
      <trkpt lat="42.435048400" lon="-2.541666500">
        <ele>707.60</ele>
        <time>2012-10-20T12:59:05Z</time>
      </trkpt>
      <trkpt lat="42.435070500" lon="-2.541575500">
        <ele>706.80</ele>
        <time>2012-10-20T12:59:07Z</time>
      </trkpt>
      <trkpt lat="42.435079500" lon="-2.541527400">
        <ele>706.20</ele>
        <time>2012-10-20T12:59:07Z</time>
      </trkpt>
      <trkpt lat="42.435138700" lon="-2.541370800">
        <ele>706.20</ele>
        <time>2012-10-20T12:59:12Z</time>
      </trkpt>
      <trkpt lat="42.435370100" lon="-2.541014300">
        <ele>706.20</ele>
        <time>2012-10-20T12:59:22Z</time>
      </trkpt>
      <trkpt lat="42.435512700" lon="-2.540833600">
        <ele>706.20</ele>
        <time>2012-10-20T12:59:29Z</time>
      </trkpt>
      <trkpt lat="42.435556100" lon="-2.540776800">
        <ele>705.80</ele>
        <time>2012-10-20T12:59:31Z</time>
      </trkpt>
      <trkpt lat="42.435573800" lon="-2.540746900">
        <ele>705.40</ele>
        <time>2012-10-20T12:59:33Z</time>
      </trkpt>
      <trkpt lat="42.435590300" lon="-2.540717500">
        <ele>704.60</ele>
        <time>2012-10-20T12:59:33Z</time>
      </trkpt>
      <trkpt lat="42.435610500" lon="-2.540687700">
        <ele>703.00</ele>
        <time>2012-10-20T12:59:35Z</time>
      </trkpt>
      <trkpt lat="42.435630200" lon="-2.540657600">
        <ele>701.00</ele>
        <time>2012-10-20T12:59:36Z</time>
      </trkpt>
      <trkpt lat="42.435650800" lon="-2.540628100">
        <ele>698.40</ele>
        <time>2012-10-20T12:59:36Z</time>
      </trkpt>
      <trkpt lat="42.435672000" lon="-2.540599400">
        <ele>695.00</ele>
        <time>2012-10-20T12:59:38Z</time>
      </trkpt>
      <trkpt lat="42.435692700" lon="-2.540569900">
        <ele>690.60</ele>
        <time>2012-10-20T12:59:38Z</time>
      </trkpt>
      <trkpt lat="42.435708500" lon="-2.540538300">
        <ele>685.20</ele>
        <time>2012-10-20T12:59:40Z</time>
      </trkpt>
      <trkpt lat="42.435729300" lon="-2.540504700">
        <ele>678.40</ele>
        <time>2012-10-20T12:59:40Z</time>
      </trkpt>
      <trkpt lat="42.435746500" lon="-2.540475100">
        <ele>670.20</ele>
        <time>2012-10-20T12:59:41Z</time>
      </trkpt>
      <trkpt lat="42.435766000" lon="-2.540445100">
        <ele>660.60</ele>
        <time>2012-10-20T12:59:43Z</time>
      </trkpt>
      <trkpt lat="42.435787500" lon="-2.540413700">
        <ele>650.20</ele>
        <time>2012-10-20T12:59:43Z</time>
      </trkpt>
      <trkpt lat="42.435807300" lon="-2.540384800">
        <ele>638.60</ele>
        <time>2012-10-20T12:59:45Z</time>
      </trkpt>
      <trkpt lat="42.435826500" lon="-2.540356500">
        <ele>626.20</ele>
        <time>2012-10-20T12:59:45Z</time>
      </trkpt>
      <trkpt lat="42.435846400" lon="-2.540328100">
        <ele>612.80</ele>
        <time>2012-10-20T12:59:47Z</time>
      </trkpt>
      <trkpt lat="42.435866700" lon="-2.540299000">
        <ele>598.40</ele>
        <time>2012-10-20T12:59:47Z</time>
      </trkpt>
      <trkpt lat="42.435887100" lon="-2.540271500">
        <ele>583.20</ele>
        <time>2012-10-20T12:59:48Z</time>
      </trkpt>
      <trkpt lat="42.435909400" lon="-2.540243500">
        <ele>567.40</ele>
        <time>2012-10-20T12:59:50Z</time>
      </trkpt>
      <trkpt lat="42.435928000" lon="-2.540219000">
        <ele>551.00</ele>
        <time>2012-10-20T12:59:50Z</time>
      </trkpt>
      <trkpt lat="42.435962500" lon="-2.540166900">
        <ele>517.80</ele>
        <time>2012-10-20T12:59:52Z</time>
      </trkpt>
      <trkpt lat="42.435976700" lon="-2.540140900">
        <ele>501.00</ele>
        <time>2012-10-20T12:59:54Z</time>
      </trkpt>
      <trkpt lat="42.435990800" lon="-2.540114200">
        <ele>484.40</ele>
        <time>2012-10-20T12:59:54Z</time>
      </trkpt>
      <trkpt lat="42.436003400" lon="-2.540092600">
        <ele>468.20</ele>
        <time>2012-10-20T12:59:55Z</time>
      </trkpt>
      <trkpt lat="42.436016000" lon="-2.540073200">
        <ele>452.80</ele>
        <time>2012-10-20T12:59:57Z</time>
      </trkpt>
      <trkpt lat="42.436020600" lon="-2.540067200">
        <ele>437.80</ele>
        <time>2012-10-20T12:59:57Z</time>
      </trkpt>
      <trkpt lat="42.436023300" lon="-2.540066000">
        <ele>437.80</ele>
        <time>2012-10-20T12:59:59Z</time>
      </trkpt>
      <trkpt lat="42.436013000" lon="-2.540079400">
        <ele>410.20</ele>
        <time>2012-10-20T13:00:01Z</time>
      </trkpt>
      <trkpt lat="42.436015200" lon="-2.540071500">
        <ele>371.40</ele>
        <time>2012-10-20T13:00:04Z</time>
      </trkpt>
      <trkpt lat="42.436025000" lon="-2.540060000">
        <ele>360.40</ele>
        <time>2012-10-20T13:00:06Z</time>
      </trkpt>
      <trkpt lat="42.436038900" lon="-2.540042400">
        <ele>350.60</ele>
        <time>2012-10-20T13:00:06Z</time>
      </trkpt>
      <trkpt lat="42.436055000" lon="-2.540019300">
        <ele>341.80</ele>
        <time>2012-10-20T13:00:08Z</time>
      </trkpt>
      <trkpt lat="42.436069700" lon="-2.539993700">
        <ele>334.00</ele>
        <time>2012-10-20T13:00:09Z</time>
      </trkpt>
      <trkpt lat="42.436083900" lon="-2.539968500">
        <ele>327.20</ele>
        <time>2012-10-20T13:00:09Z</time>
      </trkpt>
      <trkpt lat="42.436098400" lon="-2.539945100">
        <ele>321.00</ele>
        <time>2012-10-20T13:00:11Z</time>
      </trkpt>
      <trkpt lat="42.436113900" lon="-2.539923000">
        <ele>315.60</ele>
        <time>2012-10-20T13:00:11Z</time>
      </trkpt>
      <trkpt lat="42.436129500" lon="-2.539900500">
        <ele>310.60</ele>
        <time>2012-10-20T13:00:13Z</time>
      </trkpt>
      <trkpt lat="42.436142900" lon="-2.539877300">
        <ele>306.40</ele>
        <time>2012-10-20T13:00:13Z</time>
      </trkpt>
      <trkpt lat="42.436154700" lon="-2.539854600">
        <ele>302.40</ele>
        <time>2012-10-20T13:00:15Z</time>
      </trkpt>
      <trkpt lat="42.436169600" lon="-2.539833000">
        <ele>298.40</ele>
        <time>2012-10-20T13:00:16Z</time>
      </trkpt>
      <trkpt lat="42.436186400" lon="-2.539813600">
        <ele>295.60</ele>
        <time>2012-10-20T13:00:16Z</time>
      </trkpt>
      <trkpt lat="42.436205800" lon="-2.539794600">
        <ele>292.80</ele>
        <time>2012-10-20T13:00:18Z</time>
      </trkpt>
      <trkpt lat="42.436227800" lon="-2.539774900">
        <ele>290.40</ele>
        <time>2012-10-20T13:00:18Z</time>
      </trkpt>
      <trkpt lat="42.436248000" lon="-2.539755600">
        <ele>288.20</ele>
        <time>2012-10-20T13:00:20Z</time>
      </trkpt>
      <trkpt lat="42.436266300" lon="-2.539735900">
        <ele>286.40</ele>
        <time>2012-10-20T13:00:20Z</time>
      </trkpt>
      <trkpt lat="42.436286000" lon="-2.539715000">
        <ele>284.60</ele>
        <time>2012-10-20T13:00:22Z</time>
      </trkpt>
      <trkpt lat="42.436305200" lon="-2.539696200">
        <ele>283.00</ele>
        <time>2012-10-20T13:00:23Z</time>
      </trkpt>
      <trkpt lat="42.436322900" lon="-2.539677900">
        <ele>281.80</ele>
        <time>2012-10-20T13:00:23Z</time>
      </trkpt>
      <trkpt lat="42.436341800" lon="-2.539656100">
        <ele>280.60</ele>
        <time>2012-10-20T13:00:25Z</time>
      </trkpt>
      <trkpt lat="42.436359400" lon="-2.539634800">
        <ele>279.40</ele>
        <time>2012-10-20T13:00:25Z</time>
      </trkpt>
      <trkpt lat="42.436376800" lon="-2.539616300">
        <ele>278.40</ele>
        <time>2012-10-20T13:00:27Z</time>
      </trkpt>
      <trkpt lat="42.436395200" lon="-2.539598600">
        <ele>277.20</ele>
        <time>2012-10-20T13:00:27Z</time>
      </trkpt>
      <trkpt lat="42.436442400" lon="-2.539549000">
        <ele>277.20</ele>
        <time>2012-10-20T13:00:30Z</time>
      </trkpt>
      <trkpt lat="42.436565100" lon="-2.539447900">
        <ele>277.20</ele>
        <time>2012-10-20T13:00:37Z</time>
      </trkpt>
      <trkpt lat="42.436664200" lon="-2.539389800">
        <ele>277.20</ele>
        <time>2012-10-20T13:00:42Z</time>
      </trkpt>
      <trkpt lat="42.436773900" lon="-2.539326100">
        <ele>277.60</ele>
        <time>2012-10-20T13:00:48Z</time>
      </trkpt>
      <trkpt lat="42.436792500" lon="-2.539310200">
        <ele>278.20</ele>
        <time>2012-10-20T13:00:48Z</time>
      </trkpt>
      <trkpt lat="42.436811000" lon="-2.539295400">
        <ele>278.60</ele>
        <time>2012-10-20T13:00:49Z</time>
      </trkpt>
      <trkpt lat="42.436830400" lon="-2.539280500">
        <ele>279.20</ele>
        <time>2012-10-20T13:00:51Z</time>
      </trkpt>
      <trkpt lat="42.436848700" lon="-2.539265300">
        <ele>279.60</ele>
        <time>2012-10-20T13:00:51Z</time>
      </trkpt>
      <trkpt lat="42.436866500" lon="-2.539247800">
        <ele>279.60</ele>
        <time>2012-10-20T13:00:53Z</time>
      </trkpt>
      <trkpt lat="42.436900400" lon="-2.539212600">
        <ele>280.00</ele>
        <time>2012-10-20T13:00:55Z</time>
      </trkpt>
      <trkpt lat="42.436918400" lon="-2.539196100">
        <ele>280.40</ele>
        <time>2012-10-20T13:00:55Z</time>
      </trkpt>
      <trkpt lat="42.436937100" lon="-2.539177800">
        <ele>281.00</ele>
        <time>2012-10-20T13:00:56Z</time>
      </trkpt>
      <trkpt lat="42.436955900" lon="-2.539158300">
        <ele>281.40</ele>
        <time>2012-10-20T13:00:58Z</time>
      </trkpt>
      <trkpt lat="42.436976200" lon="-2.539138000">
        <ele>281.80</ele>
        <time>2012-10-20T13:00:58Z</time>
      </trkpt>
      <trkpt lat="42.437150200" lon="-2.538929900">
        <ele>281.80</ele>
        <time>2012-10-20T13:01:05Z</time>
      </trkpt>
      <trkpt lat="42.437202700" lon="-2.538862700">
        <ele>282.40</ele>
        <time>2012-10-20T13:01:07Z</time>
      </trkpt>
      <trkpt lat="42.437231800" lon="-2.538826000">
        <ele>282.80</ele>
        <time>2012-10-20T13:01:09Z</time>
      </trkpt>
      <trkpt lat="42.437260900" lon="-2.538787600">
        <ele>283.40</ele>
        <time>2012-10-20T13:01:10Z</time>
      </trkpt>
      <trkpt lat="42.437322700" lon="-2.538705100">
        <ele>284.20</ele>
        <time>2012-10-20T13:01:12Z</time>
      </trkpt>
      <trkpt lat="42.437355700" lon="-2.538661300">
        <ele>284.20</ele>
        <time>2012-10-20T13:01:12Z</time>
      </trkpt>
      <trkpt lat="42.437479000" lon="-2.538463100">
        <ele>284.20</ele>
        <time>2012-10-20T13:01:17Z</time>
      </trkpt>
      <trkpt lat="42.437547800" lon="-2.538366900">
        <ele>284.20</ele>
        <time>2012-10-20T13:01:19Z</time>
      </trkpt>
      <trkpt lat="42.437678400" lon="-2.538248700">
        <ele>284.20</ele>
        <time>2012-10-20T13:01:23Z</time>
      </trkpt>
      <trkpt lat="42.437720500" lon="-2.538160300">
        <ele>284.20</ele>
        <time>2012-10-20T13:01:24Z</time>
      </trkpt>
      <trkpt lat="42.437745400" lon="-2.538045100">
        <ele>284.20</ele>
        <time>2012-10-20T13:01:26Z</time>
      </trkpt>
      <trkpt lat="42.437812500" lon="-2.537792300">
        <ele>284.20</ele>
        <time>2012-10-20T13:01:31Z</time>
      </trkpt>
      <trkpt lat="42.437959000" lon="-2.537305200">
        <ele>284.20</ele>
        <time>2012-10-20T13:01:38Z</time>
      </trkpt>
      <trkpt lat="42.437965300" lon="-2.537251700">
        <ele>284.20</ele>
        <time>2012-10-20T13:01:40Z</time>
      </trkpt>
      <trkpt lat="42.437969500" lon="-2.537081800">
        <ele>284.20</ele>
        <time>2012-10-20T13:01:42Z</time>
      </trkpt>
      <trkpt lat="42.437991800" lon="-2.536968300">
        <ele>284.20</ele>
        <time>2012-10-20T13:01:45Z</time>
      </trkpt>
      <trkpt lat="42.438079700" lon="-2.536676800">
        <ele>284.20</ele>
        <time>2012-10-20T13:01:49Z</time>
      </trkpt>
      <trkpt lat="42.438183900" lon="-2.536365300">
        <ele>284.20</ele>
        <time>2012-10-20T13:01:54Z</time>
      </trkpt>
      <trkpt lat="42.438205500" lon="-2.536304600">
        <ele>284.60</ele>
        <time>2012-10-20T13:01:56Z</time>
      </trkpt>
      <trkpt lat="42.438224300" lon="-2.536246000">
        <ele>285.00</ele>
        <time>2012-10-20T13:01:57Z</time>
      </trkpt>
      <trkpt lat="42.438246200" lon="-2.536183400">
        <ele>285.60</ele>
        <time>2012-10-20T13:01:57Z</time>
      </trkpt>
      <trkpt lat="42.438267400" lon="-2.536122600">
        <ele>286.00</ele>
        <time>2012-10-20T13:01:59Z</time>
      </trkpt>
      <trkpt lat="42.438287900" lon="-2.536065400">
        <ele>286.40</ele>
        <time>2012-10-20T13:01:59Z</time>
      </trkpt>
      <trkpt lat="42.438381300" lon="-2.535810200">
        <ele>286.40</ele>
        <time>2012-10-20T13:02:04Z</time>
      </trkpt>
      <trkpt lat="42.438430000" lon="-2.535706500">
        <ele>286.40</ele>
        <time>2012-10-20T13:02:06Z</time>
      </trkpt>
      <trkpt lat="42.438499500" lon="-2.535419200">
        <ele>286.40</ele>
        <time>2012-10-20T13:02:11Z</time>
      </trkpt>
      <trkpt lat="42.438517800" lon="-2.535296700">
        <ele>287.20</ele>
        <time>2012-10-20T13:02:13Z</time>
      </trkpt>
      <trkpt lat="42.438530300" lon="-2.535123100">
        <ele>288.40</ele>
        <time>2012-10-20T13:02:17Z</time>
      </trkpt>
      <trkpt lat="42.438540500" lon="-2.535007700">
        <ele>288.40</ele>
        <time>2012-10-20T13:02:18Z</time>
      </trkpt>
      <trkpt lat="42.438555700" lon="-2.534894200">
        <ele>288.40</ele>
        <time>2012-10-20T13:02:20Z</time>
      </trkpt>
      <trkpt lat="42.438572800" lon="-2.534780100">
        <ele>289.20</ele>
        <time>2012-10-20T13:02:22Z</time>
      </trkpt>
      <trkpt lat="42.438579300" lon="-2.534725300">
        <ele>289.80</ele>
        <time>2012-10-20T13:02:24Z</time>
      </trkpt>
      <trkpt lat="42.438583800" lon="-2.534674800">
        <ele>290.20</ele>
        <time>2012-10-20T13:02:25Z</time>
      </trkpt>
      <trkpt lat="42.438588500" lon="-2.534627600">
        <ele>290.60</ele>
        <time>2012-10-20T13:02:25Z</time>
      </trkpt>
      <trkpt lat="42.438598800" lon="-2.534541700">
        <ele>291.00</ele>
        <time>2012-10-20T13:02:27Z</time>
      </trkpt>
      <trkpt lat="42.438605600" lon="-2.534498300">
        <ele>291.60</ele>
        <time>2012-10-20T13:02:29Z</time>
      </trkpt>
      <trkpt lat="42.438614800" lon="-2.534453800">
        <ele>292.00</ele>
        <time>2012-10-20T13:02:29Z</time>
      </trkpt>
      <trkpt lat="42.438625700" lon="-2.534409200">
        <ele>292.40</ele>
        <time>2012-10-20T13:02:30Z</time>
      </trkpt>
      <trkpt lat="42.438636700" lon="-2.534362600">
        <ele>293.00</ele>
        <time>2012-10-20T13:02:32Z</time>
      </trkpt>
      <trkpt lat="42.438664400" lon="-2.534213600">
        <ele>293.00</ele>
        <time>2012-10-20T13:02:34Z</time>
      </trkpt>
      <trkpt lat="42.438671600" lon="-2.534159900">
        <ele>293.40</ele>
        <time>2012-10-20T13:02:36Z</time>
      </trkpt>
      <trkpt lat="42.438680700" lon="-2.534101300">
        <ele>293.80</ele>
        <time>2012-10-20T13:02:36Z</time>
      </trkpt>
      <trkpt lat="42.438692700" lon="-2.534037600">
        <ele>294.20</ele>
        <time>2012-10-20T13:02:37Z</time>
      </trkpt>
      <trkpt lat="42.438719100" lon="-2.533897800">
        <ele>295.00</ele>
        <time>2012-10-20T13:02:39Z</time>
      </trkpt>
      <trkpt lat="42.438770500" lon="-2.533571900">
        <ele>295.00</ele>
        <time>2012-10-20T13:02:44Z</time>
      </trkpt>
      <trkpt lat="42.438787800" lon="-2.533400600">
        <ele>295.00</ele>
        <time>2012-10-20T13:02:48Z</time>
      </trkpt>
      <trkpt lat="42.438806600" lon="-2.533295900">
        <ele>295.00</ele>
        <time>2012-10-20T13:02:50Z</time>
      </trkpt>
      <trkpt lat="42.438827300" lon="-2.533044100">
        <ele>295.00</ele>
        <time>2012-10-20T13:02:55Z</time>
      </trkpt>
      <trkpt lat="42.438830400" lon="-2.532990000">
        <ele>295.40</ele>
        <time>2012-10-20T13:02:55Z</time>
      </trkpt>
      <trkpt lat="42.438836200" lon="-2.532931600">
        <ele>295.80</ele>
        <time>2012-10-20T13:02:57Z</time>
      </trkpt>
      <trkpt lat="42.438848200" lon="-2.532809700">
        <ele>296.60</ele>
        <time>2012-10-20T13:02:58Z</time>
      </trkpt>
      <trkpt lat="42.438851200" lon="-2.532749500">
        <ele>297.00</ele>
        <time>2012-10-20T13:03:00Z</time>
      </trkpt>
      <trkpt lat="42.438852700" lon="-2.532579400">
        <ele>297.00</ele>
        <time>2012-10-20T13:03:02Z</time>
      </trkpt>
      <trkpt lat="42.438857400" lon="-2.532466500">
        <ele>297.40</ele>
        <time>2012-10-20T13:03:05Z</time>
      </trkpt>
      <trkpt lat="42.438865400" lon="-2.532410800">
        <ele>297.80</ele>
        <time>2012-10-20T13:03:05Z</time>
      </trkpt>
      <trkpt lat="42.438873300" lon="-2.532357800">
        <ele>298.20</ele>
        <time>2012-10-20T13:03:07Z</time>
      </trkpt>
      <trkpt lat="42.438886000" lon="-2.532250400">
        <ele>299.00</ele>
        <time>2012-10-20T13:03:09Z</time>
      </trkpt>
      <trkpt lat="42.438923900" lon="-2.531967400">
        <ele>299.40</ele>
        <time>2012-10-20T13:03:14Z</time>
      </trkpt>
      <trkpt lat="42.438938100" lon="-2.531913200">
        <ele>300.00</ele>
        <time>2012-10-20T13:03:14Z</time>
      </trkpt>
      <trkpt lat="42.438954400" lon="-2.531857500">
        <ele>300.40</ele>
        <time>2012-10-20T13:03:16Z</time>
      </trkpt>
      <trkpt lat="42.438969800" lon="-2.531804600">
        <ele>300.80</ele>
        <time>2012-10-20T13:03:16Z</time>
      </trkpt>
      <trkpt lat="42.438983600" lon="-2.531750100">
        <ele>301.20</ele>
        <time>2012-10-20T13:03:18Z</time>
      </trkpt>
      <trkpt lat="42.439045000" lon="-2.531436500">
        <ele>301.20</ele>
        <time>2012-10-20T13:03:24Z</time>
      </trkpt>
      <trkpt lat="42.439077000" lon="-2.531293200">
        <ele>301.20</ele>
        <time>2012-10-20T13:03:28Z</time>
      </trkpt>
      <trkpt lat="42.439097400" lon="-2.531213500">
        <ele>301.20</ele>
        <time>2012-10-20T13:03:31Z</time>
      </trkpt>
      <trkpt lat="42.439106400" lon="-2.531184600">
        <ele>301.60</ele>
        <time>2012-10-20T13:03:33Z</time>
      </trkpt>
      <trkpt lat="42.439114000" lon="-2.531151800">
        <ele>302.20</ele>
        <time>2012-10-20T13:03:33Z</time>
      </trkpt>
      <trkpt lat="42.439119500" lon="-2.531118000">
        <ele>302.60</ele>
        <time>2012-10-20T13:03:35Z</time>
      </trkpt>
      <trkpt lat="42.439119100" lon="-2.531088500">
        <ele>303.00</ele>
        <time>2012-10-20T13:03:35Z</time>
      </trkpt>
      <trkpt lat="42.439120500" lon="-2.531054900">
        <ele>303.40</ele>
        <time>2012-10-20T13:03:37Z</time>
      </trkpt>
      <trkpt lat="42.439141300" lon="-2.530920700">
        <ele>303.40</ele>
        <time>2012-10-20T13:03:40Z</time>
      </trkpt>
      <trkpt lat="42.439182900" lon="-2.530808800">
        <ele>303.80</ele>
        <time>2012-10-20T13:03:44Z</time>
      </trkpt>
      <trkpt lat="42.439195800" lon="-2.530773600">
        <ele>304.40</ele>
        <time>2012-10-20T13:03:45Z</time>
      </trkpt>
      <trkpt lat="42.439209200" lon="-2.530738500">
        <ele>304.80</ele>
        <time>2012-10-20T13:03:45Z</time>
      </trkpt>
      <trkpt lat="42.439228800" lon="-2.530699000">
        <ele>305.20</ele>
        <time>2012-10-20T13:03:47Z</time>
      </trkpt>
      <trkpt lat="42.439248200" lon="-2.530661900">
        <ele>305.80</ele>
        <time>2012-10-20T13:03:47Z</time>
      </trkpt>
      <trkpt lat="42.439286300" lon="-2.530584200">
        <ele>305.80</ele>
        <time>2012-10-20T13:03:49Z</time>
      </trkpt>
      <trkpt lat="42.439334900" lon="-2.530375900">
        <ele>305.80</ele>
        <time>2012-10-20T13:03:54Z</time>
      </trkpt>
      <trkpt lat="42.439364200" lon="-2.530291000">
        <ele>306.20</ele>
        <time>2012-10-20T13:03:56Z</time>
      </trkpt>
      <trkpt lat="42.439368600" lon="-2.530253200">
        <ele>306.60</ele>
        <time>2012-10-20T13:03:58Z</time>
      </trkpt>
      <trkpt lat="42.439370100" lon="-2.530220300">
        <ele>307.20</ele>
        <time>2012-10-20T13:03:59Z</time>
      </trkpt>
      <trkpt lat="42.439370400" lon="-2.530155400">
        <ele>308.00</ele>
        <time>2012-10-20T13:04:01Z</time>
      </trkpt>
      <trkpt lat="42.439362400" lon="-2.529891000">
        <ele>308.60</ele>
        <time>2012-10-20T13:04:08Z</time>
      </trkpt>
      <trkpt lat="42.439379000" lon="-2.529810800">
        <ele>309.40</ele>
        <time>2012-10-20T13:04:10Z</time>
      </trkpt>
      <trkpt lat="42.439399200" lon="-2.529725500">
        <ele>310.20</ele>
        <time>2012-10-20T13:04:12Z</time>
      </trkpt>
      <trkpt lat="42.439429200" lon="-2.529592500">
        <ele>309.80</ele>
        <time>2012-10-20T13:04:15Z</time>
      </trkpt>
      <trkpt lat="42.439438600" lon="-2.529549200">
        <ele>309.40</ele>
        <time>2012-10-20T13:04:15Z</time>
      </trkpt>
      <trkpt lat="42.439448300" lon="-2.529506700">
        <ele>309.80</ele>
        <time>2012-10-20T13:04:17Z</time>
      </trkpt>
      <trkpt lat="42.439479500" lon="-2.529381900">
        <ele>313.40</ele>
        <time>2012-10-20T13:04:20Z</time>
      </trkpt>
      <trkpt lat="42.439488100" lon="-2.529340900">
        <ele>314.40</ele>
        <time>2012-10-20T13:04:20Z</time>
      </trkpt>
      <trkpt lat="42.439497400" lon="-2.529300100">
        <ele>314.40</ele>
        <time>2012-10-20T13:04:22Z</time>
      </trkpt>
      <trkpt lat="42.439514600" lon="-2.529215200">
        <ele>314.00</ele>
        <time>2012-10-20T13:04:24Z</time>
      </trkpt>
      <trkpt lat="42.439525900" lon="-2.529171400">
        <ele>313.80</ele>
        <time>2012-10-20T13:04:24Z</time>
      </trkpt>
      <trkpt lat="42.439535300" lon="-2.529126800">
        <ele>313.60</ele>
        <time>2012-10-20T13:04:25Z</time>
      </trkpt>
      <trkpt lat="42.439558700" lon="-2.528936400">
        <ele>314.00</ele>
        <time>2012-10-20T13:04:31Z</time>
      </trkpt>
      <trkpt lat="42.439561300" lon="-2.528905300">
        <ele>314.40</ele>
        <time>2012-10-20T13:04:31Z</time>
      </trkpt>
      <trkpt lat="42.439563800" lon="-2.528876400">
        <ele>315.00</ele>
        <time>2012-10-20T13:04:32Z</time>
      </trkpt>
      <trkpt lat="42.439569000" lon="-2.528820600">
        <ele>315.80</ele>
        <time>2012-10-20T13:04:34Z</time>
      </trkpt>
      <trkpt lat="42.439573000" lon="-2.528792600">
        <ele>316.40</ele>
        <time>2012-10-20T13:04:36Z</time>
      </trkpt>
      <trkpt lat="42.439577700" lon="-2.528763200">
        <ele>316.80</ele>
        <time>2012-10-20T13:04:36Z</time>
      </trkpt>
      <trkpt lat="42.439582900" lon="-2.528730200">
        <ele>317.20</ele>
        <time>2012-10-20T13:04:38Z</time>
      </trkpt>
      <trkpt lat="42.439592400" lon="-2.528659700">
        <ele>318.00</ele>
        <time>2012-10-20T13:04:39Z</time>
      </trkpt>
      <trkpt lat="42.439599100" lon="-2.528623500">
        <ele>318.60</ele>
        <time>2012-10-20T13:04:41Z</time>
      </trkpt>
      <trkpt lat="42.439611900" lon="-2.528555900">
        <ele>319.40</ele>
        <time>2012-10-20T13:04:43Z</time>
      </trkpt>
      <trkpt lat="42.439618700" lon="-2.528520200">
        <ele>319.80</ele>
        <time>2012-10-20T13:04:43Z</time>
      </trkpt>
      <trkpt lat="42.439624500" lon="-2.528482400">
        <ele>320.20</ele>
        <time>2012-10-20T13:04:45Z</time>
      </trkpt>
      <trkpt lat="42.439642800" lon="-2.528363000">
        <ele>320.20</ele>
        <time>2012-10-20T13:04:48Z</time>
      </trkpt>
      <trkpt lat="42.439678500" lon="-2.528083800">
        <ele>320.20</ele>
        <time>2012-10-20T13:04:53Z</time>
      </trkpt>
      <trkpt lat="42.439688300" lon="-2.528034100">
        <ele>320.20</ele>
        <time>2012-10-20T13:04:55Z</time>
      </trkpt>
      <trkpt lat="42.439736200" lon="-2.527825800">
        <ele>320.60</ele>
        <time>2012-10-20T13:05:00Z</time>
      </trkpt>
      <trkpt lat="42.439745700" lon="-2.527786500">
        <ele>321.00</ele>
        <time>2012-10-20T13:05:00Z</time>
      </trkpt>
      <trkpt lat="42.439758200" lon="-2.527746300">
        <ele>321.40</ele>
        <time>2012-10-20T13:05:02Z</time>
      </trkpt>
      <trkpt lat="42.439768000" lon="-2.527706000">
        <ele>321.80</ele>
        <time>2012-10-20T13:05:02Z</time>
      </trkpt>
      <trkpt lat="42.439779800" lon="-2.527665000">
        <ele>322.40</ele>
        <time>2012-10-20T13:05:04Z</time>
      </trkpt>
      <trkpt lat="42.439792900" lon="-2.527461100">
        <ele>322.80</ele>
        <time>2012-10-20T13:05:09Z</time>
      </trkpt>
      <trkpt lat="42.439795000" lon="-2.527419300">
        <ele>323.20</ele>
        <time>2012-10-20T13:05:09Z</time>
      </trkpt>
      <trkpt lat="42.439800100" lon="-2.527342600">
        <ele>324.00</ele>
        <time>2012-10-20T13:05:11Z</time>
      </trkpt>
      <trkpt lat="42.439802600" lon="-2.527271800">
        <ele>325.20</ele>
        <time>2012-10-20T13:05:14Z</time>
      </trkpt>
      <trkpt lat="42.439803900" lon="-2.527236300">
        <ele>325.60</ele>
        <time>2012-10-20T13:05:14Z</time>
      </trkpt>
      <trkpt lat="42.439804800" lon="-2.527199800">
        <ele>326.20</ele>
        <time>2012-10-20T13:05:16Z</time>
      </trkpt>
      <trkpt lat="42.439805300" lon="-2.527162200">
        <ele>326.60</ele>
        <time>2012-10-20T13:05:16Z</time>
      </trkpt>
      <trkpt lat="42.439804700" lon="-2.527124500">
        <ele>327.20</ele>
        <time>2012-10-20T13:05:18Z</time>
      </trkpt>
      <trkpt lat="42.439805000" lon="-2.527046200">
        <ele>328.00</ele>
        <time>2012-10-20T13:05:19Z</time>
      </trkpt>
      <trkpt lat="42.439805000" lon="-2.527006800">
        <ele>328.60</ele>
        <time>2012-10-20T13:05:21Z</time>
      </trkpt>
      <trkpt lat="42.439803900" lon="-2.526969500">
        <ele>329.00</ele>
        <time>2012-10-20T13:05:21Z</time>
      </trkpt>
      <trkpt lat="42.439805700" lon="-2.526854100">
        <ele>329.40</ele>
        <time>2012-10-20T13:05:25Z</time>
      </trkpt>
      <trkpt lat="42.439805200" lon="-2.526694700">
        <ele>331.00</ele>
        <time>2012-10-20T13:05:28Z</time>
      </trkpt>
      <trkpt lat="42.439811500" lon="-2.526528600">
        <ele>331.40</ele>
        <time>2012-10-20T13:05:33Z</time>
      </trkpt>
      <trkpt lat="42.439811200" lon="-2.526485200">
        <ele>332.00</ele>
        <time>2012-10-20T13:05:33Z</time>
      </trkpt>
      <trkpt lat="42.439811400" lon="-2.526440600">
        <ele>332.40</ele>
        <time>2012-10-20T13:05:35Z</time>
      </trkpt>
      <trkpt lat="42.439813100" lon="-2.526396600">
        <ele>332.80</ele>
        <time>2012-10-20T13:05:35Z</time>
      </trkpt>
      <trkpt lat="42.439821200" lon="-2.526307100">
        <ele>333.20</ele>
        <time>2012-10-20T13:05:37Z</time>
      </trkpt>
      <trkpt lat="42.439825500" lon="-2.526216300">
        <ele>333.20</ele>
        <time>2012-10-20T13:05:40Z</time>
      </trkpt>
      <trkpt lat="42.439843600" lon="-2.525992700">
        <ele>333.80</ele>
        <time>2012-10-20T13:05:44Z</time>
      </trkpt>
      <trkpt lat="42.439846900" lon="-2.525947600">
        <ele>334.20</ele>
        <time>2012-10-20T13:05:46Z</time>
      </trkpt>
      <trkpt lat="42.439850600" lon="-2.525905600">
        <ele>334.80</ele>
        <time>2012-10-20T13:05:47Z</time>
      </trkpt>
      <trkpt lat="42.439854700" lon="-2.525863100">
        <ele>335.20</ele>
        <time>2012-10-20T13:05:47Z</time>
      </trkpt>
      <trkpt lat="42.439858200" lon="-2.525819500">
        <ele>335.80</ele>
        <time>2012-10-20T13:05:49Z</time>
      </trkpt>
      <trkpt lat="42.439876400" lon="-2.525427700">
        <ele>335.80</ele>
        <time>2012-10-20T13:05:56Z</time>
      </trkpt>
      <trkpt lat="42.439880300" lon="-2.525376400">
        <ele>336.20</ele>
        <time>2012-10-20T13:05:58Z</time>
      </trkpt>
      <trkpt lat="42.439884100" lon="-2.525324500">
        <ele>336.80</ele>
        <time>2012-10-20T13:05:58Z</time>
      </trkpt>
      <trkpt lat="42.439887500" lon="-2.525272400">
        <ele>337.20</ele>
        <time>2012-10-20T13:06:00Z</time>
      </trkpt>
      <trkpt lat="42.439891000" lon="-2.525219000">
        <ele>337.80</ele>
        <time>2012-10-20T13:06:01Z</time>
      </trkpt>
      <trkpt lat="42.439893800" lon="-2.525168600">
        <ele>338.20</ele>
        <time>2012-10-20T13:06:01Z</time>
      </trkpt>
      <trkpt lat="42.439905000" lon="-2.524979800">
        <ele>338.20</ele>
        <time>2012-10-20T13:06:05Z</time>
      </trkpt>
      <trkpt lat="42.439929600" lon="-2.524792900">
        <ele>338.20</ele>
        <time>2012-10-20T13:06:10Z</time>
      </trkpt>
      <trkpt lat="42.439943100" lon="-2.524674200">
        <ele>338.20</ele>
        <time>2012-10-20T13:06:12Z</time>
      </trkpt>
      <trkpt lat="42.439963000" lon="-2.524549100">
        <ele>338.20</ele>
        <time>2012-10-20T13:06:13Z</time>
      </trkpt>
      <trkpt lat="42.439987700" lon="-2.524409700">
        <ele>338.20</ele>
        <time>2012-10-20T13:06:15Z</time>
      </trkpt>
      <trkpt lat="42.440037600" lon="-2.524164500">
        <ele>338.20</ele>
        <time>2012-10-20T13:06:19Z</time>
      </trkpt>
      <trkpt lat="42.440079000" lon="-2.523974700">
        <ele>337.80</ele>
        <time>2012-10-20T13:06:20Z</time>
      </trkpt>
      <trkpt lat="42.440090700" lon="-2.523874900">
        <ele>337.20</ele>
        <time>2012-10-20T13:06:22Z</time>
      </trkpt>
      <trkpt lat="42.440090000" lon="-2.523776900">
        <ele>336.80</ele>
        <time>2012-10-20T13:06:22Z</time>
      </trkpt>
      <trkpt lat="42.440075900" lon="-2.523682200">
        <ele>336.20</ele>
        <time>2012-10-20T13:06:24Z</time>
      </trkpt>
      <trkpt lat="42.440050300" lon="-2.523592200">
        <ele>335.80</ele>
        <time>2012-10-20T13:06:24Z</time>
      </trkpt>
      <trkpt lat="42.439981400" lon="-2.523426100">
        <ele>335.80</ele>
        <time>2012-10-20T13:06:26Z</time>
      </trkpt>
      <trkpt lat="42.439948600" lon="-2.523349800">
        <ele>335.40</ele>
        <time>2012-10-20T13:06:27Z</time>
      </trkpt>
      <trkpt lat="42.439918400" lon="-2.523276900">
        <ele>335.00</ele>
        <time>2012-10-20T13:06:29Z</time>
      </trkpt>
      <trkpt lat="42.439889400" lon="-2.523206800">
        <ele>334.60</ele>
        <time>2012-10-20T13:06:29Z</time>
      </trkpt>
      <trkpt lat="42.439857900" lon="-2.523139300">
        <ele>334.20</ele>
        <time>2012-10-20T13:06:31Z</time>
      </trkpt>
      <trkpt lat="42.439822400" lon="-2.523074900">
        <ele>333.80</ele>
        <time>2012-10-20T13:06:31Z</time>
      </trkpt>
      <trkpt lat="42.439738400" lon="-2.522951200">
        <ele>333.80</ele>
        <time>2012-10-20T13:06:34Z</time>
      </trkpt>
      <trkpt lat="42.439641100" lon="-2.522815500">
        <ele>333.80</ele>
        <time>2012-10-20T13:06:36Z</time>
      </trkpt>
      <trkpt lat="42.439553900" lon="-2.522648300">
        <ele>333.20</ele>
        <time>2012-10-20T13:06:38Z</time>
      </trkpt>
      <trkpt lat="42.439519300" lon="-2.522557800">
        <ele>332.80</ele>
        <time>2012-10-20T13:06:38Z</time>
      </trkpt>
      <trkpt lat="42.439459000" lon="-2.522379400">
        <ele>332.00</ele>
        <time>2012-10-20T13:06:41Z</time>
      </trkpt>
      <trkpt lat="42.439431100" lon="-2.522293000">
        <ele>331.40</ele>
        <time>2012-10-20T13:06:41Z</time>
      </trkpt>
      <trkpt lat="42.439353600" lon="-2.522004900">
        <ele>331.40</ele>
        <time>2012-10-20T13:06:45Z</time>
      </trkpt>
      <trkpt lat="42.439301400" lon="-2.521798500">
        <ele>330.60</ele>
        <time>2012-10-20T13:06:47Z</time>
      </trkpt>
      <trkpt lat="42.439271400" lon="-2.521693500">
        <ele>330.00</ele>
        <time>2012-10-20T13:06:48Z</time>
      </trkpt>
      <trkpt lat="42.439240700" lon="-2.521587400">
        <ele>329.60</ele>
        <time>2012-10-20T13:06:48Z</time>
      </trkpt>
      <trkpt lat="42.439212300" lon="-2.521482400">
        <ele>329.20</ele>
        <time>2012-10-20T13:06:50Z</time>
      </trkpt>
      <trkpt lat="42.439187800" lon="-2.521382500">
        <ele>328.60</ele>
        <time>2012-10-20T13:06:50Z</time>
      </trkpt>
      <trkpt lat="42.439164500" lon="-2.521288400">
        <ele>328.20</ele>
        <time>2012-10-20T13:06:52Z</time>
      </trkpt>
      <trkpt lat="42.439135700" lon="-2.521203600">
        <ele>327.80</ele>
        <time>2012-10-20T13:06:52Z</time>
      </trkpt>
      <trkpt lat="42.439098000" lon="-2.521127100">
        <ele>327.20</ele>
        <time>2012-10-20T13:06:54Z</time>
      </trkpt>
      <trkpt lat="42.439049600" lon="-2.521053500">
        <ele>326.80</ele>
        <time>2012-10-20T13:06:55Z</time>
      </trkpt>
      <trkpt lat="42.438991700" lon="-2.520976000">
        <ele>326.40</ele>
        <time>2012-10-20T13:06:55Z</time>
      </trkpt>
      <trkpt lat="42.438930700" lon="-2.520890800">
        <ele>326.00</ele>
        <time>2012-10-20T13:06:57Z</time>
      </trkpt>
      <trkpt lat="42.438872200" lon="-2.520796700">
        <ele>325.60</ele>
        <time>2012-10-20T13:06:57Z</time>
      </trkpt>
      <trkpt lat="42.438819600" lon="-2.520694400">
        <ele>325.20</ele>
        <time>2012-10-20T13:06:59Z</time>
      </trkpt>
      <trkpt lat="42.438773100" lon="-2.520585300">
        <ele>324.60</ele>
        <time>2012-10-20T13:06:59Z</time>
      </trkpt>
      <trkpt lat="42.438695600" lon="-2.520354000">
        <ele>324.20</ele>
        <time>2012-10-20T13:07:02Z</time>
      </trkpt>
      <trkpt lat="42.438657700" lon="-2.520241800">
        <ele>323.80</ele>
        <time>2012-10-20T13:07:02Z</time>
      </trkpt>
      <trkpt lat="42.438620200" lon="-2.520137200">
        <ele>323.40</ele>
        <time>2012-10-20T13:07:04Z</time>
      </trkpt>
      <trkpt lat="42.438582900" lon="-2.520041400">
        <ele>322.80</ele>
        <time>2012-10-20T13:07:04Z</time>
      </trkpt>
      <trkpt lat="42.438542100" lon="-2.519951100">
        <ele>322.40</ele>
        <time>2012-10-20T13:07:06Z</time>
      </trkpt>
      <trkpt lat="42.438500700" lon="-2.519873700">
        <ele>322.40</ele>
        <time>2012-10-20T13:07:06Z</time>
      </trkpt>
      <trkpt lat="42.438450900" lon="-2.519798600">
        <ele>322.40</ele>
        <time>2012-10-20T13:07:07Z</time>
      </trkpt>
      <trkpt lat="42.438235500" lon="-2.519507700">
        <ele>322.00</ele>
        <time>2012-10-20T13:07:11Z</time>
      </trkpt>
      <trkpt lat="42.438199700" lon="-2.519438000">
        <ele>321.40</ele>
        <time>2012-10-20T13:07:13Z</time>
      </trkpt>
      <trkpt lat="42.438171000" lon="-2.519373600">
        <ele>321.00</ele>
        <time>2012-10-20T13:07:13Z</time>
      </trkpt>
      <trkpt lat="42.438145000" lon="-2.519314400">
        <ele>320.20</ele>
        <time>2012-10-20T13:07:14Z</time>
      </trkpt>
      <trkpt lat="42.438117800" lon="-2.519258400">
        <ele>319.60</ele>
        <time>2012-10-20T13:07:16Z</time>
      </trkpt>
      <trkpt lat="42.438086800" lon="-2.519205100">
        <ele>318.80</ele>
        <time>2012-10-20T13:07:16Z</time>
      </trkpt>
      <trkpt lat="42.438053600" lon="-2.519151000">
        <ele>318.20</ele>
        <time>2012-10-20T13:07:18Z</time>
      </trkpt>
      <trkpt lat="42.438021700" lon="-2.519092800">
        <ele>317.60</ele>
        <time>2012-10-20T13:07:18Z</time>
      </trkpt>
      <trkpt lat="42.437946400" lon="-2.518895800">
        <ele>317.00</ele>
        <time>2012-10-20T13:07:21Z</time>
      </trkpt>
      <trkpt lat="42.437928000" lon="-2.518828500">
        <ele>316.60</ele>
        <time>2012-10-20T13:07:23Z</time>
      </trkpt>
      <trkpt lat="42.437912000" lon="-2.518762800">
        <ele>316.20</ele>
        <time>2012-10-20T13:07:23Z</time>
      </trkpt>
      <trkpt lat="42.437886700" lon="-2.518635100">
        <ele>315.40</ele>
        <time>2012-10-20T13:07:25Z</time>
      </trkpt>
      <trkpt lat="42.437828500" lon="-2.518427100">
        <ele>315.40</ele>
        <time>2012-10-20T13:07:28Z</time>
      </trkpt>
      <trkpt lat="42.437779100" lon="-2.518272100">
        <ele>315.00</ele>
        <time>2012-10-20T13:07:30Z</time>
      </trkpt>
      <trkpt lat="42.437753000" lon="-2.518193400">
        <ele>314.60</ele>
        <time>2012-10-20T13:07:32Z</time>
      </trkpt>
      <trkpt lat="42.437726300" lon="-2.518116100">
        <ele>314.00</ele>
        <time>2012-10-20T13:07:32Z</time>
      </trkpt>
      <trkpt lat="42.437698100" lon="-2.518039900">
        <ele>313.60</ele>
        <time>2012-10-20T13:07:34Z</time>
      </trkpt>
      <trkpt lat="42.437669000" lon="-2.517967800">
        <ele>313.20</ele>
        <time>2012-10-20T13:07:35Z</time>
      </trkpt>
      <trkpt lat="42.437639700" lon="-2.517902600">
        <ele>313.20</ele>
        <time>2012-10-20T13:07:35Z</time>
      </trkpt>
      <trkpt lat="42.437579100" lon="-2.517785200">
        <ele>313.20</ele>
        <time>2012-10-20T13:07:37Z</time>
      </trkpt>
      <trkpt lat="42.437516400" lon="-2.517677500">
        <ele>313.20</ele>
        <time>2012-10-20T13:07:39Z</time>
      </trkpt>
      <trkpt lat="42.437415400" lon="-2.517524400">
        <ele>313.20</ele>
        <time>2012-10-20T13:07:42Z</time>
      </trkpt>
      <trkpt lat="42.437350200" lon="-2.517421000">
        <ele>313.20</ele>
        <time>2012-10-20T13:07:44Z</time>
      </trkpt>
      <trkpt lat="42.437242100" lon="-2.517273900">
        <ele>313.20</ele>
        <time>2012-10-20T13:07:48Z</time>
      </trkpt>
      <trkpt lat="42.436989100" lon="-2.516946800">
        <ele>313.20</ele>
        <time>2012-10-20T13:07:53Z</time>
      </trkpt>
      <trkpt lat="42.436945000" lon="-2.516887000">
        <ele>313.20</ele>
        <time>2012-10-20T13:07:54Z</time>
      </trkpt>
      <trkpt lat="42.436864000" lon="-2.516771500">
        <ele>313.20</ele>
        <time>2012-10-20T13:07:56Z</time>
      </trkpt>
      <trkpt lat="42.436758100" lon="-2.516600000">
        <ele>313.20</ele>
        <time>2012-10-20T13:08:00Z</time>
      </trkpt>
      <trkpt lat="42.436588100" lon="-2.516397900">
        <ele>313.20</ele>
        <time>2012-10-20T13:08:03Z</time>
      </trkpt>
      <trkpt lat="42.436558200" lon="-2.516338000">
        <ele>313.20</ele>
        <time>2012-10-20T13:08:05Z</time>
      </trkpt>
      <trkpt lat="42.436561300" lon="-2.516181800">
        <ele>313.20</ele>
        <time>2012-10-20T13:08:07Z</time>
      </trkpt>
      <trkpt lat="42.436649300" lon="-2.516007900">
        <ele>312.80</ele>
        <time>2012-10-20T13:08:08Z</time>
      </trkpt>
      <trkpt lat="42.436706400" lon="-2.515926100">
        <ele>312.20</ele>
        <time>2012-10-20T13:08:10Z</time>
      </trkpt>
      <trkpt lat="42.436769200" lon="-2.515850500">
        <ele>311.60</ele>
        <time>2012-10-20T13:08:10Z</time>
      </trkpt>
      <trkpt lat="42.436832200" lon="-2.515787300">
        <ele>311.00</ele>
        <time>2012-10-20T13:08:12Z</time>
      </trkpt>
      <trkpt lat="42.436901300" lon="-2.515729300">
        <ele>310.40</ele>
        <time>2012-10-20T13:08:12Z</time>
      </trkpt>
      <trkpt lat="42.436974900" lon="-2.515675800">
        <ele>309.60</ele>
        <time>2012-10-20T13:08:14Z</time>
      </trkpt>
      <trkpt lat="42.437048500" lon="-2.515621800">
        <ele>309.00</ele>
        <time>2012-10-20T13:08:14Z</time>
      </trkpt>
      <trkpt lat="42.437119900" lon="-2.515560600">
        <ele>308.40</ele>
        <time>2012-10-20T13:08:15Z</time>
      </trkpt>
      <trkpt lat="42.437186500" lon="-2.515491100">
        <ele>307.60</ele>
        <time>2012-10-20T13:08:17Z</time>
      </trkpt>
      <trkpt lat="42.437248700" lon="-2.515412500">
        <ele>306.80</ele>
        <time>2012-10-20T13:08:17Z</time>
      </trkpt>
      <trkpt lat="42.437307100" lon="-2.515330000">
        <ele>306.00</ele>
        <time>2012-10-20T13:08:19Z</time>
      </trkpt>
      <trkpt lat="42.437364500" lon="-2.515244100">
        <ele>305.00</ele>
        <time>2012-10-20T13:08:19Z</time>
      </trkpt>
      <trkpt lat="42.437417600" lon="-2.515152200">
        <ele>304.00</ele>
        <time>2012-10-20T13:08:21Z</time>
      </trkpt>
      <trkpt lat="42.437463900" lon="-2.515051400">
        <ele>303.00</ele>
        <time>2012-10-20T13:08:22Z</time>
      </trkpt>
      <trkpt lat="42.437507800" lon="-2.514941900">
        <ele>302.00</ele>
        <time>2012-10-20T13:08:22Z</time>
      </trkpt>
      <trkpt lat="42.437550900" lon="-2.514828400">
        <ele>301.00</ele>
        <time>2012-10-20T13:08:24Z</time>
      </trkpt>
      <trkpt lat="42.437593400" lon="-2.514717800">
        <ele>300.20</ele>
        <time>2012-10-20T13:08:24Z</time>
      </trkpt>
      <trkpt lat="42.437636300" lon="-2.514615500">
        <ele>299.20</ele>
        <time>2012-10-20T13:08:26Z</time>
      </trkpt>
      <trkpt lat="42.437679200" lon="-2.514525200">
        <ele>298.20</ele>
        <time>2012-10-20T13:08:26Z</time>
      </trkpt>
      <trkpt lat="42.437720800" lon="-2.514448300">
        <ele>297.20</ele>
        <time>2012-10-20T13:08:28Z</time>
      </trkpt>
      <trkpt lat="42.437767200" lon="-2.514388900">
        <ele>296.40</ele>
        <time>2012-10-20T13:08:29Z</time>
      </trkpt>
      <trkpt lat="42.437821200" lon="-2.514356400">
        <ele>295.80</ele>
        <time>2012-10-20T13:08:29Z</time>
      </trkpt>
      <trkpt lat="42.437883700" lon="-2.514354300">
        <ele>295.20</ele>
        <time>2012-10-20T13:08:31Z</time>
      </trkpt>
      <trkpt lat="42.437953400" lon="-2.514381000">
        <ele>294.60</ele>
        <time>2012-10-20T13:08:31Z</time>
      </trkpt>
      <trkpt lat="42.438026400" lon="-2.514427000">
        <ele>293.80</ele>
        <time>2012-10-20T13:08:33Z</time>
      </trkpt>
      <trkpt lat="42.438100700" lon="-2.514484200">
        <ele>293.20</ele>
        <time>2012-10-20T13:08:33Z</time>
      </trkpt>
      <trkpt lat="42.438323000" lon="-2.514664100">
        <ele>292.00</ele>
        <time>2012-10-20T13:08:36Z</time>
      </trkpt>
      <trkpt lat="42.438398000" lon="-2.514727300">
        <ele>291.60</ele>
        <time>2012-10-20T13:08:38Z</time>
      </trkpt>
      <trkpt lat="42.438473400" lon="-2.514799300">
        <ele>291.00</ele>
        <time>2012-10-20T13:08:38Z</time>
      </trkpt>
      <trkpt lat="42.438547100" lon="-2.514880300">
        <ele>290.60</ele>
        <time>2012-10-20T13:08:40Z</time>
      </trkpt>
      <trkpt lat="42.438615700" lon="-2.514973300">
        <ele>290.00</ele>
        <time>2012-10-20T13:08:40Z</time>
      </trkpt>
      <trkpt lat="42.438678900" lon="-2.515072100">
        <ele>289.40</ele>
        <time>2012-10-20T13:08:42Z</time>
      </trkpt>
      <trkpt lat="42.438738800" lon="-2.515168500">
        <ele>288.80</ele>
        <time>2012-10-20T13:08:43Z</time>
      </trkpt>
      <trkpt lat="42.438800100" lon="-2.515248500">
        <ele>288.40</ele>
        <time>2012-10-20T13:08:43Z</time>
      </trkpt>
      <trkpt lat="42.438864400" lon="-2.515307800">
        <ele>287.80</ele>
        <time>2012-10-20T13:08:45Z</time>
      </trkpt>
      <trkpt lat="42.438932900" lon="-2.515343300">
        <ele>287.20</ele>
        <time>2012-10-20T13:08:45Z</time>
      </trkpt>
      <trkpt lat="42.439000800" lon="-2.515360800">
        <ele>286.60</ele>
        <time>2012-10-20T13:08:47Z</time>
      </trkpt>
      <trkpt lat="42.439061600" lon="-2.515368200">
        <ele>286.00</ele>
        <time>2012-10-20T13:08:47Z</time>
      </trkpt>
      <trkpt lat="42.439114800" lon="-2.515368900">
        <ele>286.00</ele>
        <time>2012-10-20T13:08:48Z</time>
      </trkpt>
      <trkpt lat="42.439162600" lon="-2.515365500">
        <ele>286.00</ele>
        <time>2012-10-20T13:08:50Z</time>
      </trkpt>
      <trkpt lat="42.439252900" lon="-2.515346900">
        <ele>286.00</ele>
        <time>2012-10-20T13:08:52Z</time>
      </trkpt>
      <trkpt lat="42.439339400" lon="-2.515308100">
        <ele>286.00</ele>
        <time>2012-10-20T13:08:54Z</time>
      </trkpt>
      <trkpt lat="42.439419800" lon="-2.515252200">
        <ele>286.00</ele>
        <time>2012-10-20T13:08:55Z</time>
      </trkpt>
      <trkpt lat="42.439584800" lon="-2.515115500">
        <ele>286.00</ele>
        <time>2012-10-20T13:08:59Z</time>
      </trkpt>
      <trkpt lat="42.439725000" lon="-2.515019600">
        <ele>286.00</ele>
        <time>2012-10-20T13:09:02Z</time>
      </trkpt>
      <trkpt lat="42.439882900" lon="-2.514955900">
        <ele>286.00</ele>
        <time>2012-10-20T13:09:06Z</time>
      </trkpt>
      <trkpt lat="42.440185200" lon="-2.514895100">
        <ele>286.00</ele>
        <time>2012-10-20T13:09:11Z</time>
      </trkpt>
      <trkpt lat="42.440445400" lon="-2.514865600">
        <ele>286.00</ele>
        <time>2012-10-20T13:09:16Z</time>
      </trkpt>
      <trkpt lat="42.440601700" lon="-2.514836200">
        <ele>286.00</ele>
        <time>2012-10-20T13:09:20Z</time>
      </trkpt>
      <trkpt lat="42.440963000" lon="-2.514823900">
        <ele>286.00</ele>
        <time>2012-10-20T13:09:27Z</time>
      </trkpt>
      <trkpt lat="42.441441700" lon="-2.514798600">
        <ele>286.00</ele>
        <time>2012-10-20T13:09:37Z</time>
      </trkpt>
      <trkpt lat="42.441549000" lon="-2.514776400">
        <ele>286.00</ele>
        <time>2012-10-20T13:09:41Z</time>
      </trkpt>
      <trkpt lat="42.441577400" lon="-2.514739100">
        <ele>286.00</ele>
        <time>2012-10-20T13:09:41Z</time>
      </trkpt>
      <trkpt lat="42.441581500" lon="-2.514543500">
        <ele>286.00</ele>
        <time>2012-10-20T13:09:44Z</time>
      </trkpt>
      <trkpt lat="42.441562400" lon="-2.514475900">
        <ele>286.00</ele>
        <time>2012-10-20T13:09:46Z</time>
      </trkpt>
      <trkpt lat="42.441540600" lon="-2.514417300">
        <ele>286.00</ele>
        <time>2012-10-20T13:09:46Z</time>
      </trkpt>
      <trkpt lat="42.441491000" lon="-2.514265000">
        <ele>286.00</ele>
        <time>2012-10-20T13:09:49Z</time>
      </trkpt>
      <trkpt lat="42.441402600" lon="-2.513900100">
        <ele>286.00</ele>
        <time>2012-10-20T13:09:58Z</time>
      </trkpt>
      <trkpt lat="42.441355000" lon="-2.513752000">
        <ele>286.00</ele>
        <time>2012-10-20T13:10:02Z</time>
      </trkpt>
      <trkpt lat="42.441344000" lon="-2.513624600">
        <ele>286.00</ele>
        <time>2012-10-20T13:10:05Z</time>
      </trkpt>
      <trkpt lat="42.441348900" lon="-2.513575300">
        <ele>286.00</ele>
        <time>2012-10-20T13:10:05Z</time>
      </trkpt>
      <trkpt lat="42.441376200" lon="-2.513412700">
        <ele>286.00</ele>
        <time>2012-10-20T13:10:10Z</time>
      </trkpt>
      <trkpt lat="42.441391700" lon="-2.513387500">
        <ele>286.00</ele>
        <time>2012-10-20T13:10:10Z</time>
      </trkpt>
      <trkpt lat="42.441475100" lon="-2.513373500">
        <ele>286.00</ele>
        <time>2012-10-20T13:10:14Z</time>
      </trkpt>
      <trkpt lat="42.441563500" lon="-2.513419800">
        <ele>286.00</ele>
        <time>2012-10-20T13:10:17Z</time>
      </trkpt>
      <trkpt lat="42.441637000" lon="-2.513429600">
        <ele>286.00</ele>
        <time>2012-10-20T13:10:19Z</time>
      </trkpt>
      <trkpt lat="42.441719700" lon="-2.513413200">
        <ele>286.00</ele>
        <time>2012-10-20T13:10:21Z</time>
      </trkpt>
      <trkpt lat="42.441756600" lon="-2.513400500">
        <ele>286.40</ele>
        <time>2012-10-20T13:10:21Z</time>
      </trkpt>
      <trkpt lat="42.441793300" lon="-2.513384000">
        <ele>286.80</ele>
        <time>2012-10-20T13:10:23Z</time>
      </trkpt>
      <trkpt lat="42.441860800" lon="-2.513343800">
        <ele>287.60</ele>
        <time>2012-10-20T13:10:24Z</time>
      </trkpt>
      <trkpt lat="42.441898900" lon="-2.513321100">
        <ele>288.00</ele>
        <time>2012-10-20T13:10:26Z</time>
      </trkpt>
      <trkpt lat="42.442064800" lon="-2.513242500">
        <ele>288.00</ele>
        <time>2012-10-20T13:10:29Z</time>
      </trkpt>
      <trkpt lat="42.442106600" lon="-2.513229800">
        <ele>288.00</ele>
        <time>2012-10-20T13:10:31Z</time>
      </trkpt>
      <trkpt lat="42.442325400" lon="-2.513224300">
        <ele>288.00</ele>
        <time>2012-10-20T13:10:35Z</time>
      </trkpt>
      <trkpt lat="42.442454000" lon="-2.513224800">
        <ele>288.00</ele>
        <time>2012-10-20T13:10:38Z</time>
      </trkpt>
      <trkpt lat="42.442580800" lon="-2.513233200">
        <ele>288.00</ele>
        <time>2012-10-20T13:10:42Z</time>
      </trkpt>
      <trkpt lat="42.442686500" lon="-2.513266800">
        <ele>288.00</ele>
        <time>2012-10-20T13:10:45Z</time>
      </trkpt>
      <trkpt lat="42.442717800" lon="-2.513279100">
        <ele>288.60</ele>
        <time>2012-10-20T13:10:45Z</time>
      </trkpt>
      <trkpt lat="42.442752100" lon="-2.513291400">
        <ele>289.20</ele>
        <time>2012-10-20T13:10:47Z</time>
      </trkpt>
      <trkpt lat="42.442786000" lon="-2.513300800">
        <ele>289.80</ele>
        <time>2012-10-20T13:10:47Z</time>
      </trkpt>
      <trkpt lat="42.442820700" lon="-2.513306500">
        <ele>290.40</ele>
        <time>2012-10-20T13:10:49Z</time>
      </trkpt>
      <trkpt lat="42.442857800" lon="-2.513306400">
        <ele>291.00</ele>
        <time>2012-10-20T13:10:49Z</time>
      </trkpt>
      <trkpt lat="42.442896300" lon="-2.513300700">
        <ele>291.00</ele>
        <time>2012-10-20T13:10:50Z</time>
      </trkpt>
      <trkpt lat="42.443044600" lon="-2.513257100">
        <ele>291.00</ele>
        <time>2012-10-20T13:10:54Z</time>
      </trkpt>
      <trkpt lat="42.443238900" lon="-2.513225200">
        <ele>291.00</ele>
        <time>2012-10-20T13:10:57Z</time>
      </trkpt>
      <trkpt lat="42.443350700" lon="-2.513160900">
        <ele>291.00</ele>
        <time>2012-10-20T13:10:59Z</time>
      </trkpt>
      <trkpt lat="42.443438900" lon="-2.512947500">
        <ele>291.00</ele>
        <time>2012-10-20T13:11:01Z</time>
      </trkpt>
      <trkpt lat="42.443463600" lon="-2.512876900">
        <ele>291.00</ele>
        <time>2012-10-20T13:11:03Z</time>
      </trkpt>
      <trkpt lat="42.443606100" lon="-2.512620900">
        <ele>291.00</ele>
        <time>2012-10-20T13:11:08Z</time>
      </trkpt>
      <trkpt lat="42.443654300" lon="-2.512526600">
        <ele>291.00</ele>
        <time>2012-10-20T13:11:10Z</time>
      </trkpt>
      <trkpt lat="42.443762700" lon="-2.512344900">
        <ele>291.00</ele>
        <time>2012-10-20T13:11:13Z</time>
      </trkpt>
      <trkpt lat="42.443792300" lon="-2.512303400">
        <ele>291.00</ele>
        <time>2012-10-20T13:11:15Z</time>
      </trkpt>
      <trkpt lat="42.443893800" lon="-2.512143800">
        <ele>291.00</ele>
        <time>2012-10-20T13:11:18Z</time>
      </trkpt>
      <trkpt lat="42.443924700" lon="-2.512113900">
        <ele>291.00</ele>
        <time>2012-10-20T13:11:20Z</time>
      </trkpt>
      <trkpt lat="42.444011200" lon="-2.512113200">
        <ele>291.00</ele>
        <time>2012-10-20T13:11:22Z</time>
      </trkpt>
      <trkpt lat="42.444168100" lon="-2.512303900">
        <ele>291.00</ele>
        <time>2012-10-20T13:11:25Z</time>
      </trkpt>
      <trkpt lat="42.444184700" lon="-2.512366600">
        <ele>291.00</ele>
        <time>2012-10-20T13:11:27Z</time>
      </trkpt>
      <trkpt lat="42.444231800" lon="-2.512581200">
        <ele>291.00</ele>
        <time>2012-10-20T13:11:30Z</time>
      </trkpt>
      <trkpt lat="42.444308900" lon="-2.512821600">
        <ele>291.00</ele>
        <time>2012-10-20T13:11:36Z</time>
      </trkpt>
      <trkpt lat="42.444346300" lon="-2.512978100">
        <ele>291.00</ele>
        <time>2012-10-20T13:11:39Z</time>
      </trkpt>
      <trkpt lat="42.444355900" lon="-2.513027600">
        <ele>291.00</ele>
        <time>2012-10-20T13:11:39Z</time>
      </trkpt>
      <trkpt lat="42.444374200" lon="-2.513129200">
        <ele>291.40</ele>
        <time>2012-10-20T13:11:41Z</time>
      </trkpt>
      <trkpt lat="42.444382100" lon="-2.513181000">
        <ele>291.80</ele>
        <time>2012-10-20T13:11:43Z</time>
      </trkpt>
      <trkpt lat="42.444388900" lon="-2.513229700">
        <ele>292.20</ele>
        <time>2012-10-20T13:11:43Z</time>
      </trkpt>
      <trkpt lat="42.444401400" lon="-2.513272500">
        <ele>292.60</ele>
        <time>2012-10-20T13:11:44Z</time>
      </trkpt>
      <trkpt lat="42.444418800" lon="-2.513314800">
        <ele>293.00</ele>
        <time>2012-10-20T13:11:46Z</time>
      </trkpt>
      <trkpt lat="42.444442700" lon="-2.513349500">
        <ele>293.00</ele>
        <time>2012-10-20T13:11:46Z</time>
      </trkpt>
      <trkpt lat="42.444519400" lon="-2.513397900">
        <ele>293.00</ele>
        <time>2012-10-20T13:11:48Z</time>
      </trkpt>
      <trkpt lat="42.444668700" lon="-2.513380700">
        <ele>293.00</ele>
        <time>2012-10-20T13:11:51Z</time>
      </trkpt>
      <trkpt lat="42.444715500" lon="-2.513360700">
        <ele>293.00</ele>
        <time>2012-10-20T13:11:53Z</time>
      </trkpt>
      <trkpt lat="42.444759500" lon="-2.513337200">
        <ele>293.00</ele>
        <time>2012-10-20T13:11:53Z</time>
      </trkpt>
      <trkpt lat="42.444873900" lon="-2.513245500">
        <ele>293.00</ele>
        <time>2012-10-20T13:11:57Z</time>
      </trkpt>
      <trkpt lat="42.444905400" lon="-2.513207800">
        <ele>293.00</ele>
        <time>2012-10-20T13:11:58Z</time>
      </trkpt>
      <trkpt lat="42.444978700" lon="-2.513063400">
        <ele>293.40</ele>
        <time>2012-10-20T13:12:00Z</time>
      </trkpt>
      <trkpt lat="42.444993000" lon="-2.513007600">
        <ele>293.80</ele>
        <time>2012-10-20T13:12:02Z</time>
      </trkpt>
      <trkpt lat="42.445002700" lon="-2.512948000">
        <ele>294.20</ele>
        <time>2012-10-20T13:12:02Z</time>
      </trkpt>
      <trkpt lat="42.445010200" lon="-2.512886800">
        <ele>294.60</ele>
        <time>2012-10-20T13:12:04Z</time>
      </trkpt>
      <trkpt lat="42.445020100" lon="-2.512822200">
        <ele>295.00</ele>
        <time>2012-10-20T13:12:05Z</time>
      </trkpt>
      <trkpt lat="42.445057700" lon="-2.512699500">
        <ele>295.00</ele>
        <time>2012-10-20T13:12:07Z</time>
      </trkpt>
      <trkpt lat="42.445116700" lon="-2.512599500">
        <ele>295.00</ele>
        <time>2012-10-20T13:12:09Z</time>
      </trkpt>
      <trkpt lat="42.445175000" lon="-2.512507800">
        <ele>295.00</ele>
        <time>2012-10-20T13:12:11Z</time>
      </trkpt>
      <trkpt lat="42.445197500" lon="-2.512458600">
        <ele>295.00</ele>
        <time>2012-10-20T13:12:12Z</time>
      </trkpt>
      <trkpt lat="42.445309800" lon="-2.512164000">
        <ele>295.00</ele>
        <time>2012-10-20T13:12:17Z</time>
      </trkpt>
      <trkpt lat="42.445416300" lon="-2.511912600">
        <ele>295.00</ele>
        <time>2012-10-20T13:12:23Z</time>
      </trkpt>
      <trkpt lat="42.445503000" lon="-2.511650900">
        <ele>295.00</ele>
        <time>2012-10-20T13:12:28Z</time>
      </trkpt>
      <trkpt lat="42.445546700" lon="-2.511525800">
        <ele>295.00</ele>
        <time>2012-10-20T13:12:33Z</time>
      </trkpt>
      <trkpt lat="42.445565500" lon="-2.511447300">
        <ele>295.00</ele>
        <time>2012-10-20T13:12:37Z</time>
      </trkpt>
      <trkpt lat="42.445605100" lon="-2.511323000">
        <ele>295.00</ele>
        <time>2012-10-20T13:12:42Z</time>
      </trkpt>
      <trkpt lat="42.445680400" lon="-2.511182800">
        <ele>295.00</ele>
        <time>2012-10-20T13:12:47Z</time>
      </trkpt>
      <trkpt lat="42.445766100" lon="-2.511127400">
        <ele>295.00</ele>
        <time>2012-10-20T13:12:52Z</time>
      </trkpt>
      <trkpt lat="42.445849700" lon="-2.511007800">
        <ele>295.00</ele>
        <time>2012-10-20T13:12:58Z</time>
      </trkpt>
      <trkpt lat="42.445943200" lon="-2.510835900">
        <ele>295.00</ele>
        <time>2012-10-20T13:13:03Z</time>
      </trkpt>
      <trkpt lat="42.446030300" lon="-2.510636800">
        <ele>295.00</ele>
        <time>2012-10-20T13:13:10Z</time>
      </trkpt>
      <trkpt lat="42.446044100" lon="-2.510600100">
        <ele>295.60</ele>
        <time>2012-10-20T13:13:10Z</time>
      </trkpt>
      <trkpt lat="42.446058200" lon="-2.510562500">
        <ele>296.00</ele>
        <time>2012-10-20T13:13:12Z</time>
      </trkpt>
      <trkpt lat="42.446071200" lon="-2.510527900">
        <ele>296.40</ele>
        <time>2012-10-20T13:13:13Z</time>
      </trkpt>
      <trkpt lat="42.446087700" lon="-2.510488500">
        <ele>297.00</ele>
        <time>2012-10-20T13:13:13Z</time>
      </trkpt>
      <trkpt lat="42.446103600" lon="-2.510452500">
        <ele>297.40</ele>
        <time>2012-10-20T13:13:15Z</time>
      </trkpt>
      <trkpt lat="42.446170300" lon="-2.510287500">
        <ele>297.40</ele>
        <time>2012-10-20T13:13:20Z</time>
      </trkpt>
      <trkpt lat="42.446245400" lon="-2.510141500">
        <ele>297.40</ele>
        <time>2012-10-20T13:13:25Z</time>
      </trkpt>
      <trkpt lat="42.446289300" lon="-2.510051600">
        <ele>297.40</ele>
        <time>2012-10-20T13:13:27Z</time>
      </trkpt>
      <trkpt lat="42.446330700" lon="-2.509944100">
        <ele>297.40</ele>
        <time>2012-10-20T13:13:29Z</time>
      </trkpt>
      <trkpt lat="42.446344200" lon="-2.509893500">
        <ele>297.40</ele>
        <time>2012-10-20T13:13:31Z</time>
      </trkpt>
      <trkpt lat="42.446361700" lon="-2.509783000">
        <ele>297.40</ele>
        <time>2012-10-20T13:13:32Z</time>
      </trkpt>
      <trkpt lat="42.446468000" lon="-2.509502300">
        <ele>297.40</ele>
        <time>2012-10-20T13:13:36Z</time>
      </trkpt>
      <trkpt lat="42.446549100" lon="-2.509357700">
        <ele>297.40</ele>
        <time>2012-10-20T13:13:38Z</time>
      </trkpt>
      <trkpt lat="42.446664800" lon="-2.509189200">
        <ele>297.40</ele>
        <time>2012-10-20T13:13:41Z</time>
      </trkpt>
      <trkpt lat="42.446696400" lon="-2.509139900">
        <ele>297.40</ele>
        <time>2012-10-20T13:13:43Z</time>
      </trkpt>
      <trkpt lat="42.446786700" lon="-2.508984500">
        <ele>297.40</ele>
        <time>2012-10-20T13:13:46Z</time>
      </trkpt>
      <trkpt lat="42.446834900" lon="-2.508888400">
        <ele>297.40</ele>
        <time>2012-10-20T13:13:48Z</time>
      </trkpt>
      <trkpt lat="42.446896500" lon="-2.508737600">
        <ele>297.40</ele>
        <time>2012-10-20T13:13:50Z</time>
      </trkpt>
      <trkpt lat="42.447043400" lon="-2.508302600">
        <ele>297.40</ele>
        <time>2012-10-20T13:13:57Z</time>
      </trkpt>
      <trkpt lat="42.447111600" lon="-2.507984800">
        <ele>297.40</ele>
        <time>2012-10-20T13:14:02Z</time>
      </trkpt>
      <trkpt lat="42.447111900" lon="-2.507920700">
        <ele>297.40</ele>
        <time>2012-10-20T13:14:04Z</time>
      </trkpt>
      <trkpt lat="42.447106100" lon="-2.507855500">
        <ele>297.80</ele>
        <time>2012-10-20T13:14:04Z</time>
      </trkpt>
      <trkpt lat="42.447094900" lon="-2.507787700">
        <ele>298.20</ele>
        <time>2012-10-20T13:14:06Z</time>
      </trkpt>
      <trkpt lat="42.447080800" lon="-2.507717300">
        <ele>298.60</ele>
        <time>2012-10-20T13:14:07Z</time>
      </trkpt>
      <trkpt lat="42.447065600" lon="-2.507643800">
        <ele>299.00</ele>
        <time>2012-10-20T13:14:07Z</time>
      </trkpt>
      <trkpt lat="42.447048300" lon="-2.507572100">
        <ele>299.40</ele>
        <time>2012-10-20T13:14:09Z</time>
      </trkpt>
      <trkpt lat="42.446933100" lon="-2.507219800">
        <ele>299.40</ele>
        <time>2012-10-20T13:14:14Z</time>
      </trkpt>
      <trkpt lat="42.446867300" lon="-2.507005400">
        <ele>299.40</ele>
        <time>2012-10-20T13:14:16Z</time>
      </trkpt>
      <trkpt lat="42.446796700" lon="-2.506802900">
        <ele>299.40</ele>
        <time>2012-10-20T13:14:19Z</time>
      </trkpt>
      <trkpt lat="42.446723300" lon="-2.506520000">
        <ele>299.40</ele>
        <time>2012-10-20T13:14:23Z</time>
      </trkpt>
      <trkpt lat="42.446713600" lon="-2.506378100">
        <ele>299.40</ele>
        <time>2012-10-20T13:14:25Z</time>
      </trkpt>
      <trkpt lat="42.446719500" lon="-2.506060600">
        <ele>299.40</ele>
        <time>2012-10-20T13:14:30Z</time>
      </trkpt>
      <trkpt lat="42.446685800" lon="-2.505743200">
        <ele>299.40</ele>
        <time>2012-10-20T13:14:37Z</time>
      </trkpt>
      <trkpt lat="42.446686700" lon="-2.505671900">
        <ele>299.40</ele>
        <time>2012-10-20T13:14:37Z</time>
      </trkpt>
      <trkpt lat="42.446718500" lon="-2.505463800">
        <ele>299.40</ele>
        <time>2012-10-20T13:14:40Z</time>
      </trkpt>
      <trkpt lat="42.446728400" lon="-2.505406800">
        <ele>299.40</ele>
        <time>2012-10-20T13:14:42Z</time>
      </trkpt>
      <trkpt lat="42.446736700" lon="-2.505358600">
        <ele>300.00</ele>
        <time>2012-10-20T13:14:42Z</time>
      </trkpt>
      <trkpt lat="42.446745900" lon="-2.505319800">
        <ele>300.40</ele>
        <time>2012-10-20T13:14:44Z</time>
      </trkpt>
      <trkpt lat="42.446755400" lon="-2.505289200">
        <ele>300.80</ele>
        <time>2012-10-20T13:14:44Z</time>
      </trkpt>
      <trkpt lat="42.446768200" lon="-2.505264100">
        <ele>301.40</ele>
        <time>2012-10-20T13:14:46Z</time>
      </trkpt>
      <trkpt lat="42.446786100" lon="-2.505239000">
        <ele>302.00</ele>
        <time>2012-10-20T13:14:47Z</time>
      </trkpt>
      <trkpt lat="42.446808800" lon="-2.505213600">
        <ele>302.60</ele>
        <time>2012-10-20T13:14:47Z</time>
      </trkpt>
      <trkpt lat="42.446830600" lon="-2.505189900">
        <ele>303.20</ele>
        <time>2012-10-20T13:14:49Z</time>
      </trkpt>
      <trkpt lat="42.446842500" lon="-2.505169600">
        <ele>303.80</ele>
        <time>2012-10-20T13:14:49Z</time>
      </trkpt>
      <trkpt lat="42.446849800" lon="-2.505135500">
        <ele>303.80</ele>
        <time>2012-10-20T13:14:53Z</time>
      </trkpt>
      <trkpt lat="42.446857400" lon="-2.505130000">
        <ele>303.80</ele>
        <time>2012-10-20T13:14:54Z</time>
      </trkpt>
      <trkpt lat="42.446874100" lon="-2.505125300">
        <ele>304.80</ele>
        <time>2012-10-20T13:14:54Z</time>
      </trkpt>
      <trkpt lat="42.446901200" lon="-2.505119600">
        <ele>305.60</ele>
        <time>2012-10-20T13:14:56Z</time>
      </trkpt>
      <trkpt lat="42.446936500" lon="-2.505111600">
        <ele>305.60</ele>
        <time>2012-10-20T13:14:56Z</time>
      </trkpt>
      <trkpt lat="42.446976300" lon="-2.505101800">
        <ele>305.80</ele>
        <time>2012-10-20T13:14:58Z</time>
      </trkpt>
      <trkpt lat="42.447019800" lon="-2.505087800">
        <ele>305.80</ele>
        <time>2012-10-20T13:14:58Z</time>
      </trkpt>
      <trkpt lat="42.447063600" lon="-2.505073900">
        <ele>306.00</ele>
        <time>2012-10-20T13:15:00Z</time>
      </trkpt>
      <trkpt lat="42.447103700" lon="-2.505061400">
        <ele>306.00</ele>
        <time>2012-10-20T13:15:01Z</time>
      </trkpt>
      <trkpt lat="42.447175200" lon="-2.505024000">
        <ele>306.00</ele>
        <time>2012-10-20T13:15:03Z</time>
      </trkpt>
      <trkpt lat="42.447271600" lon="-2.504961100">
        <ele>306.00</ele>
        <time>2012-10-20T13:15:08Z</time>
      </trkpt>
      <trkpt lat="42.447613500" lon="-2.504825600">
        <ele>306.00</ele>
        <time>2012-10-20T13:15:17Z</time>
      </trkpt>
      <trkpt lat="42.447792700" lon="-2.504721000">
        <ele>306.00</ele>
        <time>2012-10-20T13:15:22Z</time>
      </trkpt>
      <trkpt lat="42.447957100" lon="-2.504634700">
        <ele>306.00</ele>
        <time>2012-10-20T13:15:26Z</time>
      </trkpt>
      <trkpt lat="42.448081600" lon="-2.504558400">
        <ele>306.00</ele>
        <time>2012-10-20T13:15:29Z</time>
      </trkpt>
      <trkpt lat="42.448184100" lon="-2.504529200">
        <ele>305.60</ele>
        <time>2012-10-20T13:15:33Z</time>
      </trkpt>
      <trkpt lat="42.448259600" lon="-2.504509600">
        <ele>304.80</ele>
        <time>2012-10-20T13:15:34Z</time>
      </trkpt>
      <trkpt lat="42.448291500" lon="-2.504503200">
        <ele>304.40</ele>
        <time>2012-10-20T13:15:36Z</time>
      </trkpt>
      <trkpt lat="42.448315400" lon="-2.504494600">
        <ele>304.00</ele>
        <time>2012-10-20T13:15:36Z</time>
      </trkpt>
      <trkpt lat="42.448324200" lon="-2.504393100">
        <ele>304.00</ele>
        <time>2012-10-20T13:15:38Z</time>
      </trkpt>
      <trkpt lat="42.448312300" lon="-2.504320600">
        <ele>303.40</ele>
        <time>2012-10-20T13:15:40Z</time>
      </trkpt>
      <trkpt lat="42.448293500" lon="-2.504245600">
        <ele>303.00</ele>
        <time>2012-10-20T13:15:41Z</time>
      </trkpt>
      <trkpt lat="42.448278500" lon="-2.504175400">
        <ele>302.40</ele>
        <time>2012-10-20T13:15:41Z</time>
      </trkpt>
      <trkpt lat="42.448274600" lon="-2.504118700">
        <ele>302.00</ele>
        <time>2012-10-20T13:15:43Z</time>
      </trkpt>
      <trkpt lat="42.448268900" lon="-2.504067300">
        <ele>301.40</ele>
        <time>2012-10-20T13:15:43Z</time>
      </trkpt>
      <trkpt lat="42.448248800" lon="-2.503934000">
        <ele>301.40</ele>
        <time>2012-10-20T13:15:45Z</time>
      </trkpt>
      <trkpt lat="42.448231300" lon="-2.503858000">
        <ele>301.40</ele>
        <time>2012-10-20T13:15:47Z</time>
      </trkpt>
      <trkpt lat="42.448172900" lon="-2.503547700">
        <ele>301.40</ele>
        <time>2012-10-20T13:15:50Z</time>
      </trkpt>
      <trkpt lat="42.448182900" lon="-2.503327900">
        <ele>301.40</ele>
        <time>2012-10-20T13:15:54Z</time>
      </trkpt>
      <trkpt lat="42.448175700" lon="-2.503246500">
        <ele>301.40</ele>
        <time>2012-10-20T13:15:55Z</time>
      </trkpt>
      <trkpt lat="42.448171800" lon="-2.503160600">
        <ele>301.00</ele>
        <time>2012-10-20T13:15:55Z</time>
      </trkpt>
      <trkpt lat="42.448176700" lon="-2.503082000">
        <ele>300.60</ele>
        <time>2012-10-20T13:15:57Z</time>
      </trkpt>
      <trkpt lat="42.448193800" lon="-2.503011400">
        <ele>300.00</ele>
        <time>2012-10-20T13:15:57Z</time>
      </trkpt>
      <trkpt lat="42.448219100" lon="-2.502949800">
        <ele>299.60</ele>
        <time>2012-10-20T13:15:59Z</time>
      </trkpt>
      <trkpt lat="42.448253100" lon="-2.502887200">
        <ele>299.20</ele>
        <time>2012-10-20T13:15:59Z</time>
      </trkpt>
      <trkpt lat="42.448290300" lon="-2.502825900">
        <ele>299.20</ele>
        <time>2012-10-20T13:16:00Z</time>
      </trkpt>
      <trkpt lat="42.448355600" lon="-2.502693900">
        <ele>299.20</ele>
        <time>2012-10-20T13:16:02Z</time>
      </trkpt>
      <trkpt lat="42.448426000" lon="-2.502285500">
        <ele>298.80</ele>
        <time>2012-10-20T13:16:06Z</time>
      </trkpt>
      <trkpt lat="42.448413700" lon="-2.502169100">
        <ele>298.20</ele>
        <time>2012-10-20T13:16:07Z</time>
      </trkpt>
      <trkpt lat="42.448382800" lon="-2.502056600">
        <ele>297.80</ele>
        <time>2012-10-20T13:16:09Z</time>
      </trkpt>
      <trkpt lat="42.448343200" lon="-2.501949200">
        <ele>297.20</ele>
        <time>2012-10-20T13:16:09Z</time>
      </trkpt>
      <trkpt lat="42.448309900" lon="-2.501843000">
        <ele>296.80</ele>
        <time>2012-10-20T13:16:11Z</time>
      </trkpt>
      <trkpt lat="42.448300700" lon="-2.501657200">
        <ele>296.20</ele>
        <time>2012-10-20T13:16:13Z</time>
      </trkpt>
      <trkpt lat="42.448306900" lon="-2.501562700">
        <ele>295.80</ele>
        <time>2012-10-20T13:16:13Z</time>
      </trkpt>
      <trkpt lat="42.448302500" lon="-2.501482000">
        <ele>295.20</ele>
        <time>2012-10-20T13:16:14Z</time>
      </trkpt>
      <trkpt lat="42.448270600" lon="-2.501409900">
        <ele>294.80</ele>
        <time>2012-10-20T13:16:16Z</time>
      </trkpt>
      <trkpt lat="42.448227900" lon="-2.501350800">
        <ele>294.20</ele>
        <time>2012-10-20T13:16:16Z</time>
      </trkpt>
      <trkpt lat="42.448171200" lon="-2.501316800">
        <ele>293.80</ele>
        <time>2012-10-20T13:16:18Z</time>
      </trkpt>
      <trkpt lat="42.448106200" lon="-2.501301300">
        <ele>293.40</ele>
        <time>2012-10-20T13:16:18Z</time>
      </trkpt>
      <trkpt lat="42.448039000" lon="-2.501292000">
        <ele>293.00</ele>
        <time>2012-10-20T13:16:20Z</time>
      </trkpt>
      <trkpt lat="42.447974800" lon="-2.501288700">
        <ele>292.60</ele>
        <time>2012-10-20T13:16:21Z</time>
      </trkpt>
      <trkpt lat="42.447917700" lon="-2.501269000">
        <ele>292.20</ele>
        <time>2012-10-20T13:16:21Z</time>
      </trkpt>
      <trkpt lat="42.447864600" lon="-2.501226800">
        <ele>292.20</ele>
        <time>2012-10-20T13:16:23Z</time>
      </trkpt>
      <trkpt lat="42.447700300" lon="-2.500891800">
        <ele>292.20</ele>
        <time>2012-10-20T13:16:27Z</time>
      </trkpt>
      <trkpt lat="42.447712000" lon="-2.500625700">
        <ele>292.20</ele>
        <time>2012-10-20T13:16:30Z</time>
      </trkpt>
      <trkpt lat="42.447779600" lon="-2.500509200">
        <ele>292.20</ele>
        <time>2012-10-20T13:16:32Z</time>
      </trkpt>
      <trkpt lat="42.447863500" lon="-2.500338400">
        <ele>292.20</ele>
        <time>2012-10-20T13:16:35Z</time>
      </trkpt>
      <trkpt lat="42.447880100" lon="-2.500288600">
        <ele>292.20</ele>
        <time>2012-10-20T13:16:35Z</time>
      </trkpt>
      <trkpt lat="42.447900300" lon="-2.500189300">
        <ele>292.20</ele>
        <time>2012-10-20T13:16:37Z</time>
      </trkpt>
      <trkpt lat="42.447909100" lon="-2.500097400">
        <ele>292.20</ele>
        <time>2012-10-20T13:16:39Z</time>
      </trkpt>
      <trkpt lat="42.447940300" lon="-2.500038500">
        <ele>292.20</ele>
        <time>2012-10-20T13:16:42Z</time>
      </trkpt>
      <trkpt lat="42.447997300" lon="-2.499972300">
        <ele>292.20</ele>
        <time>2012-10-20T13:16:44Z</time>
      </trkpt>
      <trkpt lat="42.448081900" lon="-2.499859300">
        <ele>292.20</ele>
        <time>2012-10-20T13:16:46Z</time>
      </trkpt>
      <trkpt lat="42.448168300" lon="-2.499708100">
        <ele>292.20</ele>
        <time>2012-10-20T13:16:48Z</time>
      </trkpt>
      <trkpt lat="42.448226800" lon="-2.499563700">
        <ele>292.20</ele>
        <time>2012-10-20T13:16:49Z</time>
      </trkpt>
      <trkpt lat="42.448250900" lon="-2.499468600">
        <ele>292.20</ele>
        <time>2012-10-20T13:16:51Z</time>
      </trkpt>
      <trkpt lat="42.448255800" lon="-2.499425000">
        <ele>292.20</ele>
        <time>2012-10-20T13:16:53Z</time>
      </trkpt>
      <trkpt lat="42.448287700" lon="-2.499277800">
        <ele>292.20</ele>
        <time>2012-10-20T13:16:56Z</time>
      </trkpt>
      <trkpt lat="42.448314300" lon="-2.499229400">
        <ele>292.60</ele>
        <time>2012-10-20T13:16:56Z</time>
      </trkpt>
      <trkpt lat="42.448347300" lon="-2.499186600">
        <ele>293.00</ele>
        <time>2012-10-20T13:16:58Z</time>
      </trkpt>
      <trkpt lat="42.448386200" lon="-2.499141600">
        <ele>293.40</ele>
        <time>2012-10-20T13:16:58Z</time>
      </trkpt>
      <trkpt lat="42.448430500" lon="-2.499099700">
        <ele>293.80</ele>
        <time>2012-10-20T13:17:00Z</time>
      </trkpt>
      <trkpt lat="42.448478900" lon="-2.499059100">
        <ele>294.20</ele>
        <time>2012-10-20T13:17:00Z</time>
      </trkpt>
      <trkpt lat="42.448572600" lon="-2.498983100">
        <ele>294.20</ele>
        <time>2012-10-20T13:17:03Z</time>
      </trkpt>
      <trkpt lat="42.448710900" lon="-2.498802700">
        <ele>294.20</ele>
        <time>2012-10-20T13:17:07Z</time>
      </trkpt>
      <trkpt lat="42.448757000" lon="-2.498678100">
        <ele>294.20</ele>
        <time>2012-10-20T13:17:08Z</time>
      </trkpt>
      <trkpt lat="42.448789100" lon="-2.498546200">
        <ele>294.20</ele>
        <time>2012-10-20T13:17:10Z</time>
      </trkpt>
      <trkpt lat="42.448796800" lon="-2.498481800">
        <ele>294.20</ele>
        <time>2012-10-20T13:17:12Z</time>
      </trkpt>
      <trkpt lat="42.448821900" lon="-2.498252300">
        <ele>294.60</ele>
        <time>2012-10-20T13:17:15Z</time>
      </trkpt>
      <trkpt lat="42.448852200" lon="-2.498215500">
        <ele>295.00</ele>
        <time>2012-10-20T13:17:17Z</time>
      </trkpt>
      <trkpt lat="42.448893100" lon="-2.498193600">
        <ele>295.40</ele>
        <time>2012-10-20T13:17:17Z</time>
      </trkpt>
      <trkpt lat="42.448935400" lon="-2.498188900">
        <ele>295.80</ele>
        <time>2012-10-20T13:17:19Z</time>
      </trkpt>
      <trkpt lat="42.448979300" lon="-2.498195800">
        <ele>296.20</ele>
        <time>2012-10-20T13:17:19Z</time>
      </trkpt>
      <trkpt lat="42.449202800" lon="-2.498247700">
        <ele>296.80</ele>
        <time>2012-10-20T13:17:26Z</time>
      </trkpt>
      <trkpt lat="42.449233900" lon="-2.498242300">
        <ele>297.20</ele>
        <time>2012-10-20T13:17:26Z</time>
      </trkpt>
      <trkpt lat="42.449263900" lon="-2.498231900">
        <ele>297.80</ele>
        <time>2012-10-20T13:17:28Z</time>
      </trkpt>
      <trkpt lat="42.449291300" lon="-2.498214500">
        <ele>298.20</ele>
        <time>2012-10-20T13:17:29Z</time>
      </trkpt>
      <trkpt lat="42.449319100" lon="-2.498194600">
        <ele>298.80</ele>
        <time>2012-10-20T13:17:29Z</time>
      </trkpt>
      <trkpt lat="42.449346900" lon="-2.498173000">
        <ele>298.80</ele>
        <time>2012-10-20T13:17:31Z</time>
      </trkpt>
      <trkpt lat="42.449405900" lon="-2.498123100">
        <ele>299.20</ele>
        <time>2012-10-20T13:17:33Z</time>
      </trkpt>
      <trkpt lat="42.449440000" lon="-2.498097200">
        <ele>299.80</ele>
        <time>2012-10-20T13:17:33Z</time>
      </trkpt>
      <trkpt lat="42.449474500" lon="-2.498068600">
        <ele>300.20</ele>
        <time>2012-10-20T13:17:35Z</time>
      </trkpt>
      <trkpt lat="42.449510500" lon="-2.498038100">
        <ele>300.80</ele>
        <time>2012-10-20T13:17:36Z</time>
      </trkpt>
      <trkpt lat="42.449545800" lon="-2.498008100">
        <ele>301.20</ele>
        <time>2012-10-20T13:17:36Z</time>
      </trkpt>
      <trkpt lat="42.449707800" lon="-2.497870800">
        <ele>301.20</ele>
        <time>2012-10-20T13:17:42Z</time>
      </trkpt>
      <trkpt lat="42.449776300" lon="-2.497804000">
        <ele>301.20</ele>
        <time>2012-10-20T13:17:43Z</time>
      </trkpt>
      <trkpt lat="42.449814300" lon="-2.497755800">
        <ele>301.20</ele>
        <time>2012-10-20T13:17:45Z</time>
      </trkpt>
      <trkpt lat="42.449906200" lon="-2.497543700">
        <ele>301.20</ele>
        <time>2012-10-20T13:17:47Z</time>
      </trkpt>
      <trkpt lat="42.449923600" lon="-2.497457900">
        <ele>301.20</ele>
        <time>2012-10-20T13:17:48Z</time>
      </trkpt>
      <trkpt lat="42.449935300" lon="-2.497368300">
        <ele>301.20</ele>
        <time>2012-10-20T13:17:50Z</time>
      </trkpt>
      <trkpt lat="42.449942700" lon="-2.497274500">
        <ele>300.80</ele>
        <time>2012-10-20T13:17:50Z</time>
      </trkpt>
      <trkpt lat="42.449943300" lon="-2.497183000">
        <ele>300.40</ele>
        <time>2012-10-20T13:17:52Z</time>
      </trkpt>
      <trkpt lat="42.449940900" lon="-2.497086700">
        <ele>300.00</ele>
        <time>2012-10-20T13:17:52Z</time>
      </trkpt>
      <trkpt lat="42.449933900" lon="-2.496883000">
        <ele>299.20</ele>
        <time>2012-10-20T13:17:54Z</time>
      </trkpt>
      <trkpt lat="42.449954200" lon="-2.496566300">
        <ele>299.20</ele>
        <time>2012-10-20T13:17:57Z</time>
      </trkpt>
      <trkpt lat="42.449967100" lon="-2.496461900">
        <ele>299.20</ele>
        <time>2012-10-20T13:17:59Z</time>
      </trkpt>
      <trkpt lat="42.449988300" lon="-2.496250700">
        <ele>299.20</ele>
        <time>2012-10-20T13:18:01Z</time>
      </trkpt>
      <trkpt lat="42.449991200" lon="-2.496037500">
        <ele>298.80</ele>
        <time>2012-10-20T13:18:02Z</time>
      </trkpt>
      <trkpt lat="42.449986400" lon="-2.495931900">
        <ele>298.20</ele>
        <time>2012-10-20T13:18:04Z</time>
      </trkpt>
      <trkpt lat="42.449968300" lon="-2.495726300">
        <ele>297.40</ele>
        <time>2012-10-20T13:18:06Z</time>
      </trkpt>
      <trkpt lat="42.449960400" lon="-2.495628700">
        <ele>297.00</ele>
        <time>2012-10-20T13:18:06Z</time>
      </trkpt>
      <trkpt lat="42.449946700" lon="-2.495441500">
        <ele>297.00</ele>
        <time>2012-10-20T13:18:09Z</time>
      </trkpt>
      <trkpt lat="42.449943400" lon="-2.495350000">
        <ele>297.00</ele>
        <time>2012-10-20T13:18:09Z</time>
      </trkpt>
      <trkpt lat="42.449949500" lon="-2.495165800">
        <ele>296.40</ele>
        <time>2012-10-20T13:18:11Z</time>
      </trkpt>
      <trkpt lat="42.449962900" lon="-2.495077100">
        <ele>296.00</ele>
        <time>2012-10-20T13:18:13Z</time>
      </trkpt>
      <trkpt lat="42.449988700" lon="-2.494997700">
        <ele>295.60</ele>
        <time>2012-10-20T13:18:13Z</time>
      </trkpt>
      <trkpt lat="42.450026600" lon="-2.494934600">
        <ele>295.20</ele>
        <time>2012-10-20T13:18:15Z</time>
      </trkpt>
      <trkpt lat="42.450074900" lon="-2.494891900">
        <ele>294.80</ele>
        <time>2012-10-20T13:18:16Z</time>
      </trkpt>
      <trkpt lat="42.450188300" lon="-2.494902800">
        <ele>294.80</ele>
        <time>2012-10-20T13:18:18Z</time>
      </trkpt>
      <trkpt lat="42.450377500" lon="-2.495020000">
        <ele>294.80</ele>
        <time>2012-10-20T13:18:22Z</time>
      </trkpt>
      <trkpt lat="42.450440400" lon="-2.494922600">
        <ele>294.40</ele>
        <time>2012-10-20T13:18:23Z</time>
      </trkpt>
      <trkpt lat="42.450462700" lon="-2.494847600">
        <ele>294.00</ele>
        <time>2012-10-20T13:18:25Z</time>
      </trkpt>
      <trkpt lat="42.450505800" lon="-2.494684700">
        <ele>293.20</ele>
        <time>2012-10-20T13:18:27Z</time>
      </trkpt>
      <trkpt lat="42.450529200" lon="-2.494604000">
        <ele>292.80</ele>
        <time>2012-10-20T13:18:27Z</time>
      </trkpt>
      <trkpt lat="42.450666400" lon="-2.494132400">
        <ele>292.80</ele>
        <time>2012-10-20T13:18:34Z</time>
      </trkpt>
      <trkpt lat="42.450840600" lon="-2.493577700">
        <ele>292.80</ele>
        <time>2012-10-20T13:18:41Z</time>
      </trkpt>
      <trkpt lat="42.450940500" lon="-2.493182300">
        <ele>292.40</ele>
        <time>2012-10-20T13:18:46Z</time>
      </trkpt>
      <trkpt lat="42.450980000" lon="-2.493017900">
        <ele>291.60</ele>
        <time>2012-10-20T13:18:48Z</time>
      </trkpt>
      <trkpt lat="42.450999500" lon="-2.492939000">
        <ele>291.20</ele>
        <time>2012-10-20T13:18:48Z</time>
      </trkpt>
      <trkpt lat="42.451018200" lon="-2.492866000">
        <ele>290.80</ele>
        <time>2012-10-20T13:18:49Z</time>
      </trkpt>
      <trkpt lat="42.451094100" lon="-2.492585100">
        <ele>290.80</ele>
        <time>2012-10-20T13:18:55Z</time>
      </trkpt>
      <trkpt lat="42.451166700" lon="-2.492355500">
        <ele>290.80</ele>
        <time>2012-10-20T13:18:58Z</time>
      </trkpt>
      <trkpt lat="42.451204100" lon="-2.492222300">
        <ele>290.80</ele>
        <time>2012-10-20T13:19:00Z</time>
      </trkpt>
      <trkpt lat="42.451312800" lon="-2.491799700">
        <ele>290.80</ele>
        <time>2012-10-20T13:19:07Z</time>
      </trkpt>
      <trkpt lat="42.451335900" lon="-2.491722200">
        <ele>290.80</ele>
        <time>2012-10-20T13:19:07Z</time>
      </trkpt>
      <trkpt lat="42.451399300" lon="-2.491495600">
        <ele>290.80</ele>
        <time>2012-10-20T13:19:10Z</time>
      </trkpt>
      <trkpt lat="42.451500500" lon="-2.491100400">
        <ele>290.80</ele>
        <time>2012-10-20T13:19:16Z</time>
      </trkpt>
      <trkpt lat="42.451523300" lon="-2.491017800">
        <ele>290.80</ele>
        <time>2012-10-20T13:19:17Z</time>
      </trkpt>
      <trkpt lat="42.451544900" lon="-2.490934400">
        <ele>290.20</ele>
        <time>2012-10-20T13:19:17Z</time>
      </trkpt>
      <trkpt lat="42.451616800" lon="-2.490603000">
        <ele>288.60</ele>
        <time>2012-10-20T13:19:21Z</time>
      </trkpt>
      <trkpt lat="42.451691500" lon="-2.490271900">
        <ele>288.60</ele>
        <time>2012-10-20T13:19:26Z</time>
      </trkpt>
      <trkpt lat="42.451870800" lon="-2.489780100">
        <ele>288.60</ele>
        <time>2012-10-20T13:19:31Z</time>
      </trkpt>
      <trkpt lat="42.451999300" lon="-2.489452400">
        <ele>288.20</ele>
        <time>2012-10-20T13:19:35Z</time>
      </trkpt>
      <trkpt lat="42.452094800" lon="-2.489211100">
        <ele>287.00</ele>
        <time>2012-10-20T13:19:38Z</time>
      </trkpt>
      <trkpt lat="42.452125200" lon="-2.489130800">
        <ele>286.40</ele>
        <time>2012-10-20T13:19:40Z</time>
      </trkpt>
      <trkpt lat="42.452181300" lon="-2.488974900">
        <ele>286.40</ele>
        <time>2012-10-20T13:19:42Z</time>
      </trkpt>
      <trkpt lat="42.452415000" lon="-2.488376200">
        <ele>286.40</ele>
        <time>2012-10-20T13:19:49Z</time>
      </trkpt>
      <trkpt lat="42.452619300" lon="-2.487844700">
        <ele>286.40</ele>
        <time>2012-10-20T13:19:57Z</time>
      </trkpt>
      <trkpt lat="42.452809900" lon="-2.487364600">
        <ele>286.40</ele>
        <time>2012-10-20T13:20:03Z</time>
      </trkpt>
      <trkpt lat="42.452912000" lon="-2.487125900">
        <ele>286.00</ele>
        <time>2012-10-20T13:20:06Z</time>
      </trkpt>
      <trkpt lat="42.452943000" lon="-2.487049000">
        <ele>285.60</ele>
        <time>2012-10-20T13:20:06Z</time>
      </trkpt>
      <trkpt lat="42.452973500" lon="-2.486971900">
        <ele>285.20</ele>
        <time>2012-10-20T13:20:08Z</time>
      </trkpt>
      <trkpt lat="42.453002100" lon="-2.486892000">
        <ele>284.80</ele>
        <time>2012-10-20T13:20:08Z</time>
      </trkpt>
      <trkpt lat="42.453025500" lon="-2.486807300">
        <ele>284.40</ele>
        <time>2012-10-20T13:20:10Z</time>
      </trkpt>
      <trkpt lat="42.453058400" lon="-2.486627500">
        <ele>284.40</ele>
        <time>2012-10-20T13:20:11Z</time>
      </trkpt>
      <trkpt lat="42.453090100" lon="-2.486174900">
        <ele>284.40</ele>
        <time>2012-10-20T13:20:17Z</time>
      </trkpt>
      <trkpt lat="42.453156500" lon="-2.485652200">
        <ele>284.40</ele>
        <time>2012-10-20T13:20:24Z</time>
      </trkpt>
      <trkpt lat="42.453170300" lon="-2.485489400">
        <ele>284.40</ele>
        <time>2012-10-20T13:20:27Z</time>
      </trkpt>
      <trkpt lat="42.453171800" lon="-2.485377900">
        <ele>284.40</ele>
        <time>2012-10-20T13:20:29Z</time>
      </trkpt>
      <trkpt lat="42.453182500" lon="-2.485246400">
        <ele>284.40</ele>
        <time>2012-10-20T13:20:30Z</time>
      </trkpt>
      <trkpt lat="42.453203500" lon="-2.485098100">
        <ele>284.40</ele>
        <time>2012-10-20T13:20:32Z</time>
      </trkpt>
      <trkpt lat="42.453230600" lon="-2.484943800">
        <ele>284.40</ele>
        <time>2012-10-20T13:20:34Z</time>
      </trkpt>
      <trkpt lat="42.453264200" lon="-2.484796900">
        <ele>284.40</ele>
        <time>2012-10-20T13:20:36Z</time>
      </trkpt>
      <trkpt lat="42.453299000" lon="-2.484571400">
        <ele>284.40</ele>
        <time>2012-10-20T13:20:39Z</time>
      </trkpt>
      <trkpt lat="42.453363100" lon="-2.484039700">
        <ele>284.40</ele>
        <time>2012-10-20T13:20:46Z</time>
      </trkpt>
      <trkpt lat="42.453411500" lon="-2.483812500">
        <ele>284.40</ele>
        <time>2012-10-20T13:20:50Z</time>
      </trkpt>
      <trkpt lat="42.453438900" lon="-2.483658700">
        <ele>284.40</ele>
        <time>2012-10-20T13:20:51Z</time>
      </trkpt>
      <trkpt lat="42.453494200" lon="-2.483188700">
        <ele>284.40</ele>
        <time>2012-10-20T13:20:58Z</time>
      </trkpt>
      <trkpt lat="42.453606800" lon="-2.482824900">
        <ele>284.40</ele>
        <time>2012-10-20T13:21:02Z</time>
      </trkpt>
      <trkpt lat="42.453741200" lon="-2.482415700">
        <ele>284.40</ele>
        <time>2012-10-20T13:21:09Z</time>
      </trkpt>
      <trkpt lat="42.453907600" lon="-2.481928000">
        <ele>284.40</ele>
        <time>2012-10-20T13:21:16Z</time>
      </trkpt>
      <trkpt lat="42.453956800" lon="-2.481796500">
        <ele>285.20</ele>
        <time>2012-10-20T13:21:17Z</time>
      </trkpt>
      <trkpt lat="42.453982400" lon="-2.481733000">
        <ele>285.60</ele>
        <time>2012-10-20T13:21:19Z</time>
      </trkpt>
      <trkpt lat="42.454010000" lon="-2.481670100">
        <ele>286.00</ele>
        <time>2012-10-20T13:21:19Z</time>
      </trkpt>
      <trkpt lat="42.454036300" lon="-2.481609700">
        <ele>286.40</ele>
        <time>2012-10-20T13:21:21Z</time>
      </trkpt>
      <trkpt lat="42.454158200" lon="-2.481337500">
        <ele>286.40</ele>
        <time>2012-10-20T13:21:26Z</time>
      </trkpt>
      <trkpt lat="42.454263900" lon="-2.481108000">
        <ele>286.40</ele>
        <time>2012-10-20T13:21:30Z</time>
      </trkpt>
      <trkpt lat="42.454364500" lon="-2.480896600">
        <ele>286.40</ele>
        <time>2012-10-20T13:21:33Z</time>
      </trkpt>
      <trkpt lat="42.454381300" lon="-2.480848900">
        <ele>286.40</ele>
        <time>2012-10-20T13:21:35Z</time>
      </trkpt>
      <trkpt lat="42.454403600" lon="-2.480796200">
        <ele>286.40</ele>
        <time>2012-10-20T13:21:35Z</time>
      </trkpt>
      <trkpt lat="42.454500900" lon="-2.480602200">
        <ele>286.40</ele>
        <time>2012-10-20T13:21:38Z</time>
      </trkpt>
      <trkpt lat="42.454745800" lon="-2.480088100">
        <ele>286.40</ele>
        <time>2012-10-20T13:21:47Z</time>
      </trkpt>
      <trkpt lat="42.454918200" lon="-2.479719800">
        <ele>286.40</ele>
        <time>2012-10-20T13:21:52Z</time>
      </trkpt>
      <trkpt lat="42.454983600" lon="-2.479451200">
        <ele>286.40</ele>
        <time>2012-10-20T13:21:56Z</time>
      </trkpt>
      <trkpt lat="42.454993000" lon="-2.479382300">
        <ele>286.40</ele>
        <time>2012-10-20T13:21:58Z</time>
      </trkpt>
      <trkpt lat="42.455029400" lon="-2.479169600">
        <ele>286.40</ele>
        <time>2012-10-20T13:22:01Z</time>
      </trkpt>
      <trkpt lat="42.455045100" lon="-2.479101800">
        <ele>286.40</ele>
        <time>2012-10-20T13:22:01Z</time>
      </trkpt>
      <trkpt lat="42.455088300" lon="-2.478825700">
        <ele>286.40</ele>
        <time>2012-10-20T13:22:06Z</time>
      </trkpt>
      <trkpt lat="42.455098000" lon="-2.478755400">
        <ele>286.40</ele>
        <time>2012-10-20T13:22:06Z</time>
      </trkpt>
      <trkpt lat="42.455161200" lon="-2.478420500">
        <ele>286.40</ele>
        <time>2012-10-20T13:22:11Z</time>
      </trkpt>
      <trkpt lat="42.455237200" lon="-2.478043300">
        <ele>286.40</ele>
        <time>2012-10-20T13:22:17Z</time>
      </trkpt>
      <trkpt lat="42.455283000" lon="-2.477670300">
        <ele>286.40</ele>
        <time>2012-10-20T13:22:22Z</time>
      </trkpt>
      <trkpt lat="42.455296000" lon="-2.477527000">
        <ele>286.40</ele>
        <time>2012-10-20T13:22:24Z</time>
      </trkpt>
      <trkpt lat="42.455329600" lon="-2.477416500">
        <ele>286.40</ele>
        <time>2012-10-20T13:22:27Z</time>
      </trkpt>
      <trkpt lat="42.455451700" lon="-2.477337600">
        <ele>286.40</ele>
        <time>2012-10-20T13:22:29Z</time>
      </trkpt>
      <trkpt lat="42.455499500" lon="-2.477294400">
        <ele>286.40</ele>
        <time>2012-10-20T13:22:31Z</time>
      </trkpt>
      <trkpt lat="42.455739800" lon="-2.477034100">
        <ele>286.40</ele>
        <time>2012-10-20T13:22:36Z</time>
      </trkpt>
      <trkpt lat="42.455871300" lon="-2.476984900">
        <ele>286.40</ele>
        <time>2012-10-20T13:22:39Z</time>
      </trkpt>
      <trkpt lat="42.455882600" lon="-2.476947800">
        <ele>286.40</ele>
        <time>2012-10-20T13:22:43Z</time>
      </trkpt>
      <trkpt lat="42.455898800" lon="-2.476909000">
        <ele>286.40</ele>
        <time>2012-10-20T13:22:45Z</time>
      </trkpt>
      <trkpt lat="42.455961500" lon="-2.476794700">
        <ele>286.40</ele>
        <time>2012-10-20T13:22:48Z</time>
      </trkpt>
      <trkpt lat="42.455996200" lon="-2.476673800">
        <ele>286.40</ele>
        <time>2012-10-20T13:22:50Z</time>
      </trkpt>
      <trkpt lat="42.456011700" lon="-2.476586800">
        <ele>286.40</ele>
        <time>2012-10-20T13:22:53Z</time>
      </trkpt>
      <trkpt lat="42.456023500" lon="-2.476540600">
        <ele>286.80</ele>
        <time>2012-10-20T13:22:53Z</time>
      </trkpt>
      <trkpt lat="42.456035900" lon="-2.476494100">
        <ele>287.40</ele>
        <time>2012-10-20T13:22:55Z</time>
      </trkpt>
      <trkpt lat="42.456043900" lon="-2.476450500">
        <ele>287.80</ele>
        <time>2012-10-20T13:22:55Z</time>
      </trkpt>
      <trkpt lat="42.456050800" lon="-2.476406200">
        <ele>288.60</ele>
        <time>2012-10-20T13:22:57Z</time>
      </trkpt>
      <trkpt lat="42.456055100" lon="-2.476361000">
        <ele>289.20</ele>
        <time>2012-10-20T13:22:57Z</time>
      </trkpt>
      <trkpt lat="42.456061300" lon="-2.476314700">
        <ele>289.80</ele>
        <time>2012-10-20T13:22:59Z</time>
      </trkpt>
      <trkpt lat="42.456070700" lon="-2.476267100">
        <ele>290.60</ele>
        <time>2012-10-20T13:23:00Z</time>
      </trkpt>
      <trkpt lat="42.456081000" lon="-2.476221100">
        <ele>291.20</ele>
        <time>2012-10-20T13:23:00Z</time>
      </trkpt>
      <trkpt lat="42.456100900" lon="-2.476132700">
        <ele>291.60</ele>
        <time>2012-10-20T13:23:02Z</time>
      </trkpt>
      <trkpt lat="42.456121900" lon="-2.476046900">
        <ele>292.40</ele>
        <time>2012-10-20T13:23:04Z</time>
      </trkpt>
      <trkpt lat="42.456131000" lon="-2.476007200">
        <ele>292.80</ele>
        <time>2012-10-20T13:23:05Z</time>
      </trkpt>
      <trkpt lat="42.456144700" lon="-2.475970600">
        <ele>293.20</ele>
        <time>2012-10-20T13:23:07Z</time>
      </trkpt>
      <trkpt lat="42.456176500" lon="-2.475888600">
        <ele>293.20</ele>
        <time>2012-10-20T13:23:09Z</time>
      </trkpt>
      <trkpt lat="42.456216400" lon="-2.475680300">
        <ele>293.60</ele>
        <time>2012-10-20T13:23:12Z</time>
      </trkpt>
      <trkpt lat="42.456219500" lon="-2.475627800">
        <ele>294.00</ele>
        <time>2012-10-20T13:23:14Z</time>
      </trkpt>
      <trkpt lat="42.456221400" lon="-2.475579300">
        <ele>294.40</ele>
        <time>2012-10-20T13:23:14Z</time>
      </trkpt>
      <trkpt lat="42.456227000" lon="-2.475489100">
        <ele>295.20</ele>
        <time>2012-10-20T13:23:16Z</time>
      </trkpt>
      <trkpt lat="42.456258400" lon="-2.475365500">
        <ele>295.20</ele>
        <time>2012-10-20T13:23:19Z</time>
      </trkpt>
      <trkpt lat="42.456424600" lon="-2.474813800">
        <ele>295.20</ele>
        <time>2012-10-20T13:23:32Z</time>
      </trkpt>
      <trkpt lat="42.456437300" lon="-2.474760600">
        <ele>295.20</ele>
        <time>2012-10-20T13:23:33Z</time>
      </trkpt>
      <trkpt lat="42.456488600" lon="-2.474463100">
        <ele>295.20</ele>
        <time>2012-10-20T13:23:37Z</time>
      </trkpt>
      <trkpt lat="42.456497800" lon="-2.474232200">
        <ele>295.20</ele>
        <time>2012-10-20T13:23:42Z</time>
      </trkpt>
      <trkpt lat="42.456503700" lon="-2.473910600">
        <ele>295.20</ele>
        <time>2012-10-20T13:23:47Z</time>
      </trkpt>
      <trkpt lat="42.456503200" lon="-2.473843700">
        <ele>295.20</ele>
        <time>2012-10-20T13:23:47Z</time>
      </trkpt>
      <trkpt lat="42.456506900" lon="-2.473777200">
        <ele>295.20</ele>
        <time>2012-10-20T13:23:49Z</time>
      </trkpt>
      <trkpt lat="42.456564100" lon="-2.473493800">
        <ele>295.20</ele>
        <time>2012-10-20T13:23:53Z</time>
      </trkpt>
      <trkpt lat="42.456612700" lon="-2.473357000">
        <ele>294.80</ele>
        <time>2012-10-20T13:23:54Z</time>
      </trkpt>
      <trkpt lat="42.456641200" lon="-2.473294200">
        <ele>294.40</ele>
        <time>2012-10-20T13:23:56Z</time>
      </trkpt>
      <trkpt lat="42.456669100" lon="-2.473235900">
        <ele>293.80</ele>
        <time>2012-10-20T13:23:56Z</time>
      </trkpt>
      <trkpt lat="42.456700800" lon="-2.473178300">
        <ele>293.40</ele>
        <time>2012-10-20T13:23:58Z</time>
      </trkpt>
      <trkpt lat="42.456734600" lon="-2.473125300">
        <ele>292.80</ele>
        <time>2012-10-20T13:23:58Z</time>
      </trkpt>
      <trkpt lat="42.456802000" lon="-2.473034400">
        <ele>292.80</ele>
        <time>2012-10-20T13:24:01Z</time>
      </trkpt>
      <trkpt lat="42.456834100" lon="-2.472996800">
        <ele>292.80</ele>
        <time>2012-10-20T13:24:01Z</time>
      </trkpt>
      <trkpt lat="42.456893900" lon="-2.472926200">
        <ele>292.40</ele>
        <time>2012-10-20T13:24:03Z</time>
      </trkpt>
      <trkpt lat="42.456928600" lon="-2.472892400">
        <ele>292.00</ele>
        <time>2012-10-20T13:24:05Z</time>
      </trkpt>
      <trkpt lat="42.456968000" lon="-2.472861500">
        <ele>291.60</ele>
        <time>2012-10-20T13:24:05Z</time>
      </trkpt>
      <trkpt lat="42.457051300" lon="-2.472804500">
        <ele>290.80</ele>
        <time>2012-10-20T13:24:08Z</time>
      </trkpt>
      <trkpt lat="42.457089000" lon="-2.472783600">
        <ele>290.80</ele>
        <time>2012-10-20T13:24:08Z</time>
      </trkpt>
      <trkpt lat="42.457121300" lon="-2.472777800">
        <ele>290.80</ele>
        <time>2012-10-20T13:24:10Z</time>
      </trkpt>
      <trkpt lat="42.457214100" lon="-2.472877700">
        <ele>290.80</ele>
        <time>2012-10-20T13:24:13Z</time>
      </trkpt>
      <trkpt lat="42.457243000" lon="-2.472890400">
        <ele>290.80</ele>
        <time>2012-10-20T13:24:15Z</time>
      </trkpt>
      <trkpt lat="42.457297200" lon="-2.472856700">
        <ele>290.80</ele>
        <time>2012-10-20T13:24:17Z</time>
      </trkpt>
      <trkpt lat="42.457357100" lon="-2.472661100">
        <ele>290.80</ele>
        <time>2012-10-20T13:24:20Z</time>
      </trkpt>
      <trkpt lat="42.457382700" lon="-2.472488800">
        <ele>290.80</ele>
        <time>2012-10-20T13:24:24Z</time>
      </trkpt>
      <trkpt lat="42.457388500" lon="-2.472428100">
        <ele>290.80</ele>
        <time>2012-10-20T13:24:24Z</time>
      </trkpt>
      <trkpt lat="42.457397400" lon="-2.472367800">
        <ele>290.80</ele>
        <time>2012-10-20T13:24:26Z</time>
      </trkpt>
      <trkpt lat="42.457439400" lon="-2.472222100">
        <ele>290.80</ele>
        <time>2012-10-20T13:24:29Z</time>
      </trkpt>
      <trkpt lat="42.457454900" lon="-2.472182000">
        <ele>290.80</ele>
        <time>2012-10-20T13:24:29Z</time>
      </trkpt>
      <trkpt lat="42.457507500" lon="-2.472061500">
        <ele>290.80</ele>
        <time>2012-10-20T13:24:33Z</time>
      </trkpt>
      <trkpt lat="42.457534700" lon="-2.472028900">
        <ele>290.80</ele>
        <time>2012-10-20T13:24:34Z</time>
      </trkpt>
      <trkpt lat="42.457655300" lon="-2.471917700">
        <ele>290.80</ele>
        <time>2012-10-20T13:24:38Z</time>
      </trkpt>
      <trkpt lat="42.457666800" lon="-2.471764400">
        <ele>290.80</ele>
        <time>2012-10-20T13:24:43Z</time>
      </trkpt>
      <trkpt lat="42.457715500" lon="-2.471582400">
        <ele>290.80</ele>
        <time>2012-10-20T13:24:47Z</time>
      </trkpt>
      <trkpt lat="42.457727700" lon="-2.471466400">
        <ele>290.80</ele>
        <time>2012-10-20T13:24:50Z</time>
      </trkpt>
      <trkpt lat="42.457753100" lon="-2.471391800">
        <ele>291.20</ele>
        <time>2012-10-20T13:24:52Z</time>
      </trkpt>
      <trkpt lat="42.457767800" lon="-2.471353900">
        <ele>291.80</ele>
        <time>2012-10-20T13:24:52Z</time>
      </trkpt>
      <trkpt lat="42.457782100" lon="-2.471313000">
        <ele>292.20</ele>
        <time>2012-10-20T13:24:54Z</time>
      </trkpt>
      <trkpt lat="42.457797900" lon="-2.471272600">
        <ele>292.60</ele>
        <time>2012-10-20T13:24:55Z</time>
      </trkpt>
      <trkpt lat="42.457815100" lon="-2.471232900">
        <ele>293.20</ele>
        <time>2012-10-20T13:24:55Z</time>
      </trkpt>
      <trkpt lat="42.457872800" lon="-2.471119300">
        <ele>293.20</ele>
        <time>2012-10-20T13:24:59Z</time>
      </trkpt>
      <trkpt lat="42.457954000" lon="-2.470949600">
        <ele>293.20</ele>
        <time>2012-10-20T13:25:02Z</time>
      </trkpt>
      <trkpt lat="42.458027900" lon="-2.470818900">
        <ele>293.20</ele>
        <time>2012-10-20T13:25:06Z</time>
      </trkpt>
      <trkpt lat="42.458160200" lon="-2.470595700">
        <ele>293.20</ele>
        <time>2012-10-20T13:25:11Z</time>
      </trkpt>
      <trkpt lat="42.458209200" lon="-2.470483200">
        <ele>293.20</ele>
        <time>2012-10-20T13:25:13Z</time>
      </trkpt>
      <trkpt lat="42.458268700" lon="-2.470297800">
        <ele>293.20</ele>
        <time>2012-10-20T13:25:16Z</time>
      </trkpt>
      <trkpt lat="42.458300300" lon="-2.470180800">
        <ele>293.20</ele>
        <time>2012-10-20T13:25:18Z</time>
      </trkpt>
      <trkpt lat="42.458352200" lon="-2.469893400">
        <ele>293.20</ele>
        <time>2012-10-20T13:25:23Z</time>
      </trkpt>
      <trkpt lat="42.458360200" lon="-2.469514600">
        <ele>294.40</ele>
        <time>2012-10-20T13:25:28Z</time>
      </trkpt>
      <trkpt lat="42.458359400" lon="-2.469452800">
        <ele>295.00</ele>
        <time>2012-10-20T13:25:30Z</time>
      </trkpt>
      <trkpt lat="42.458355600" lon="-2.469394100">
        <ele>295.40</ele>
        <time>2012-10-20T13:25:30Z</time>
      </trkpt>
      <trkpt lat="42.458338300" lon="-2.469218700">
        <ele>295.40</ele>
        <time>2012-10-20T13:25:34Z</time>
      </trkpt>
      <trkpt lat="42.458322800" lon="-2.468901200">
        <ele>295.40</ele>
        <time>2012-10-20T13:25:39Z</time>
      </trkpt>
      <trkpt lat="42.458297600" lon="-2.468568000">
        <ele>295.40</ele>
        <time>2012-10-20T13:25:44Z</time>
      </trkpt>
      <trkpt lat="42.458292100" lon="-2.468499700">
        <ele>295.40</ele>
        <time>2012-10-20T13:25:44Z</time>
      </trkpt>
      <trkpt lat="42.458262500" lon="-2.468249700">
        <ele>295.40</ele>
        <time>2012-10-20T13:25:49Z</time>
      </trkpt>
      <trkpt lat="42.458263500" lon="-2.468146700">
        <ele>295.40</ele>
        <time>2012-10-20T13:25:51Z</time>
      </trkpt>
      <trkpt lat="42.458287900" lon="-2.468077200">
        <ele>295.40</ele>
        <time>2012-10-20T13:25:53Z</time>
      </trkpt>
      <trkpt lat="42.458333700" lon="-2.468032300">
        <ele>295.40</ele>
        <time>2012-10-20T13:25:54Z</time>
      </trkpt>
      <trkpt lat="42.458480500" lon="-2.468004600">
        <ele>295.40</ele>
        <time>2012-10-20T13:25:58Z</time>
      </trkpt>
      <trkpt lat="42.458525700" lon="-2.468004600">
        <ele>295.40</ele>
        <time>2012-10-20T13:26:00Z</time>
      </trkpt>
      <trkpt lat="42.458613200" lon="-2.468009500">
        <ele>295.40</ele>
        <time>2012-10-20T13:26:01Z</time>
      </trkpt>
      <trkpt lat="42.458693900" lon="-2.468010600">
        <ele>295.40</ele>
        <time>2012-10-20T13:26:03Z</time>
      </trkpt>
      <trkpt lat="42.458826100" lon="-2.467979100">
        <ele>295.40</ele>
        <time>2012-10-20T13:26:07Z</time>
      </trkpt>
      <trkpt lat="42.458917800" lon="-2.467949700">
        <ele>295.40</ele>
        <time>2012-10-20T13:26:08Z</time>
      </trkpt>
      <trkpt lat="42.459084200" lon="-2.467820300">
        <ele>295.40</ele>
        <time>2012-10-20T13:26:12Z</time>
      </trkpt>
      <trkpt lat="42.459160400" lon="-2.467613000">
        <ele>295.40</ele>
        <time>2012-10-20T13:26:15Z</time>
      </trkpt>
      <trkpt lat="42.459171100" lon="-2.467448100">
        <ele>295.40</ele>
        <time>2012-10-20T13:26:17Z</time>
      </trkpt>
      <trkpt lat="42.459173100" lon="-2.467197800">
        <ele>295.40</ele>
        <time>2012-10-20T13:26:21Z</time>
      </trkpt>
      <trkpt lat="42.459168900" lon="-2.467033000">
        <ele>295.40</ele>
        <time>2012-10-20T13:26:22Z</time>
      </trkpt>
      <trkpt lat="42.459166200" lon="-2.466817400">
        <ele>295.40</ele>
        <time>2012-10-20T13:26:26Z</time>
      </trkpt>
      <trkpt lat="42.459168600" lon="-2.466674000">
        <ele>295.40</ele>
        <time>2012-10-20T13:26:28Z</time>
      </trkpt>
      <trkpt lat="42.459212200" lon="-2.466486800">
        <ele>295.40</ele>
        <time>2012-10-20T13:26:31Z</time>
      </trkpt>
      <trkpt lat="42.459235800" lon="-2.466437800">
        <ele>295.40</ele>
        <time>2012-10-20T13:26:31Z</time>
      </trkpt>
      <trkpt lat="42.459336500" lon="-2.466136900">
        <ele>295.40</ele>
        <time>2012-10-20T13:26:36Z</time>
      </trkpt>
      <trkpt lat="42.459376800" lon="-2.465899300">
        <ele>295.40</ele>
        <time>2012-10-20T13:26:40Z</time>
      </trkpt>
      <trkpt lat="42.459413400" lon="-2.465723100">
        <ele>295.40</ele>
        <time>2012-10-20T13:26:45Z</time>
      </trkpt>
      <trkpt lat="42.459440600" lon="-2.465564800">
        <ele>295.40</ele>
        <time>2012-10-20T13:26:48Z</time>
      </trkpt>
      <trkpt lat="42.459530100" lon="-2.465251900">
        <ele>295.00</ele>
        <time>2012-10-20T13:26:54Z</time>
      </trkpt>
      <trkpt lat="42.459545100" lon="-2.465186900">
        <ele>294.60</ele>
        <time>2012-10-20T13:26:54Z</time>
      </trkpt>
      <trkpt lat="42.459560100" lon="-2.465125800">
        <ele>294.20</ele>
        <time>2012-10-20T13:26:55Z</time>
      </trkpt>
      <trkpt lat="42.459575200" lon="-2.465068000">
        <ele>293.60</ele>
        <time>2012-10-20T13:26:57Z</time>
      </trkpt>
      <trkpt lat="42.459589700" lon="-2.465014400">
        <ele>293.20</ele>
        <time>2012-10-20T13:26:57Z</time>
      </trkpt>
      <trkpt lat="42.459619500" lon="-2.464906600">
        <ele>293.20</ele>
        <time>2012-10-20T13:26:59Z</time>
      </trkpt>
      <trkpt lat="42.459662700" lon="-2.464686300">
        <ele>293.20</ele>
        <time>2012-10-20T13:27:04Z</time>
      </trkpt>
      <trkpt lat="42.459695200" lon="-2.464508400">
        <ele>293.20</ele>
        <time>2012-10-20T13:27:06Z</time>
      </trkpt>
      <trkpt lat="42.459765800" lon="-2.464249900">
        <ele>293.20</ele>
        <time>2012-10-20T13:27:11Z</time>
      </trkpt>
      <trkpt lat="42.459779800" lon="-2.464173400">
        <ele>293.20</ele>
        <time>2012-10-20T13:27:13Z</time>
      </trkpt>
      <trkpt lat="42.459780600" lon="-2.464072600">
        <ele>293.20</ele>
        <time>2012-10-20T13:27:16Z</time>
      </trkpt>
      <trkpt lat="42.459694600" lon="-2.464009000">
        <ele>293.20</ele>
        <time>2012-10-20T13:27:20Z</time>
      </trkpt>
      <trkpt lat="42.459658600" lon="-2.463995400">
        <ele>293.20</ele>
        <time>2012-10-20T13:27:20Z</time>
      </trkpt>
      <trkpt lat="42.459634000" lon="-2.463982600">
        <ele>293.20</ele>
        <time>2012-10-20T13:27:22Z</time>
      </trkpt>
      <trkpt lat="42.459465300" lon="-2.463938600">
        <ele>293.20</ele>
        <time>2012-10-20T13:27:25Z</time>
      </trkpt>
      <trkpt lat="42.459341100" lon="-2.463895400">
        <ele>293.20</ele>
        <time>2012-10-20T13:27:27Z</time>
      </trkpt>
      <trkpt lat="42.459179900" lon="-2.463831800">
        <ele>293.20</ele>
        <time>2012-10-20T13:27:30Z</time>
      </trkpt>
      <trkpt lat="42.459138600" lon="-2.463813500">
        <ele>293.20</ele>
        <time>2012-10-20T13:27:30Z</time>
      </trkpt>
      <trkpt lat="42.459053500" lon="-2.463762100">
        <ele>293.20</ele>
        <time>2012-10-20T13:27:34Z</time>
      </trkpt>
      <trkpt lat="42.459033400" lon="-2.463735000">
        <ele>293.20</ele>
        <time>2012-10-20T13:27:34Z</time>
      </trkpt>
      <trkpt lat="42.458960900" lon="-2.463631100">
        <ele>292.80</ele>
        <time>2012-10-20T13:27:37Z</time>
      </trkpt>
      <trkpt lat="42.458920200" lon="-2.463598600">
        <ele>292.40</ele>
        <time>2012-10-20T13:27:39Z</time>
      </trkpt>
      <trkpt lat="42.458812000" lon="-2.463546000">
        <ele>291.60</ele>
        <time>2012-10-20T13:27:41Z</time>
      </trkpt>
      <trkpt lat="42.458761200" lon="-2.463522200">
        <ele>291.20</ele>
        <time>2012-10-20T13:27:41Z</time>
      </trkpt>
      <trkpt lat="42.458708400" lon="-2.463512400">
        <ele>291.20</ele>
        <time>2012-10-20T13:27:42Z</time>
      </trkpt>
      <trkpt lat="42.458626800" lon="-2.463449400">
        <ele>291.20</ele>
        <time>2012-10-20T13:27:44Z</time>
      </trkpt>
      <trkpt lat="42.458592500" lon="-2.463396600">
        <ele>291.20</ele>
        <time>2012-10-20T13:27:46Z</time>
      </trkpt>
      <trkpt lat="42.458533000" lon="-2.463239600">
        <ele>291.20</ele>
        <time>2012-10-20T13:27:48Z</time>
      </trkpt>
      <trkpt lat="42.458522200" lon="-2.463207200">
        <ele>291.20</ele>
        <time>2012-10-20T13:27:49Z</time>
      </trkpt>
      <trkpt lat="42.458500800" lon="-2.463155900">
        <ele>290.80</ele>
        <time>2012-10-20T13:27:51Z</time>
      </trkpt>
      <trkpt lat="42.458493600" lon="-2.463135300">
        <ele>290.20</ele>
        <time>2012-10-20T13:27:53Z</time>
      </trkpt>
      <trkpt lat="42.458484200" lon="-2.463119800">
        <ele>289.80</ele>
        <time>2012-10-20T13:27:53Z</time>
      </trkpt>
      <trkpt lat="42.458470300" lon="-2.463109700">
        <ele>289.40</ele>
        <time>2012-10-20T13:27:55Z</time>
      </trkpt>
      <trkpt lat="42.458456100" lon="-2.463102300">
        <ele>289.00</ele>
        <time>2012-10-20T13:27:55Z</time>
      </trkpt>
      <trkpt lat="42.458422700" lon="-2.463111400">
        <ele>289.00</ele>
        <time>2012-10-20T13:27:58Z</time>
      </trkpt>
      <trkpt lat="42.458356500" lon="-2.463145000">
        <ele>289.00</ele>
        <time>2012-10-20T13:28:00Z</time>
      </trkpt>
      <trkpt lat="42.458352100" lon="-2.463088800">
        <ele>289.00</ele>
        <time>2012-10-20T13:28:02Z</time>
      </trkpt>
      <trkpt lat="42.458350600" lon="-2.463044400">
        <ele>289.00</ele>
        <time>2012-10-20T13:28:05Z</time>
      </trkpt>
      <trkpt lat="42.458335000" lon="-2.463034500">
        <ele>289.00</ele>
        <time>2012-10-20T13:28:05Z</time>
      </trkpt>
      <trkpt lat="42.458295200" lon="-2.462959200">
        <ele>289.00</ele>
        <time>2012-10-20T13:28:07Z</time>
      </trkpt>
      <trkpt lat="42.458264100" lon="-2.462829300">
        <ele>289.00</ele>
        <time>2012-10-20T13:28:10Z</time>
      </trkpt>
      <trkpt lat="42.458250000" lon="-2.462824100">
        <ele>289.00</ele>
        <time>2012-10-20T13:28:12Z</time>
      </trkpt>
      <trkpt lat="42.458244700" lon="-2.462828100">
        <ele>289.00</ele>
        <time>2012-10-20T13:28:14Z</time>
      </trkpt>
      <trkpt lat="42.458239300" lon="-2.462826400">
        <ele>289.00</ele>
        <time>2012-10-20T13:28:14Z</time>
      </trkpt>
      <trkpt lat="42.458240700" lon="-2.462789300">
        <ele>289.00</ele>
        <time>2012-10-20T13:28:16Z</time>
      </trkpt>
      <trkpt lat="42.458215400" lon="-2.462581500">
        <ele>289.00</ele>
        <time>2012-10-20T13:28:19Z</time>
      </trkpt>
      <trkpt lat="42.458192800" lon="-2.462371900">
        <ele>289.00</ele>
        <time>2012-10-20T13:28:21Z</time>
      </trkpt>
      <trkpt lat="42.458180100" lon="-2.462034000">
        <ele>289.00</ele>
        <time>2012-10-20T13:28:24Z</time>
      </trkpt>
      <trkpt lat="42.458152700" lon="-2.461566100">
        <ele>289.00</ele>
        <time>2012-10-20T13:28:28Z</time>
      </trkpt>
      <trkpt lat="42.458141800" lon="-2.461329300">
        <ele>289.00</ele>
        <time>2012-10-20T13:28:33Z</time>
      </trkpt>
      <trkpt lat="42.458119100" lon="-2.461227900">
        <ele>289.00</ele>
        <time>2012-10-20T13:28:38Z</time>
      </trkpt>
      <trkpt lat="42.458109000" lon="-2.461191700">
        <ele>288.60</ele>
        <time>2012-10-20T13:28:40Z</time>
      </trkpt>
      <trkpt lat="42.458109700" lon="-2.461188000">
        <ele>288.20</ele>
        <time>2012-10-20T13:28:42Z</time>
      </trkpt>
      <trkpt lat="42.458119400" lon="-2.461192500">
        <ele>287.00</ele>
        <time>2012-10-20T13:28:45Z</time>
      </trkpt>
      <trkpt lat="42.458120400" lon="-2.461194100">
        <ele>287.00</ele>
        <time>2012-10-20T13:28:47Z</time>
      </trkpt>
      <trkpt lat="42.458125800" lon="-2.461147500">
        <ele>287.00</ele>
        <time>2012-10-20T13:29:04Z</time>
      </trkpt>
      <trkpt lat="42.458120900" lon="-2.461092200">
        <ele>287.00</ele>
        <time>2012-10-20T13:29:06Z</time>
      </trkpt>
      <trkpt lat="42.458107500" lon="-2.460948200">
        <ele>287.40</ele>
        <time>2012-10-20T13:29:08Z</time>
      </trkpt>
      <trkpt lat="42.458100500" lon="-2.460876000">
        <ele>287.80</ele>
        <time>2012-10-20T13:29:08Z</time>
      </trkpt>
      <trkpt lat="42.458101800" lon="-2.460806400">
        <ele>288.20</ele>
        <time>2012-10-20T13:29:10Z</time>
      </trkpt>
      <trkpt lat="42.458114400" lon="-2.460732700">
        <ele>288.60</ele>
        <time>2012-10-20T13:29:11Z</time>
      </trkpt>
      <trkpt lat="42.458131000" lon="-2.460662700">
        <ele>289.00</ele>
        <time>2012-10-20T13:29:11Z</time>
      </trkpt>
      <trkpt lat="42.458173900" lon="-2.460503700">
        <ele>289.00</ele>
        <time>2012-10-20T13:29:13Z</time>
      </trkpt>
      <trkpt lat="42.458237700" lon="-2.460167100">
        <ele>289.00</ele>
        <time>2012-10-20T13:29:18Z</time>
      </trkpt>
      <trkpt lat="42.458265600" lon="-2.459923000">
        <ele>289.00</ele>
        <time>2012-10-20T13:29:20Z</time>
      </trkpt>
      <trkpt lat="42.458246900" lon="-2.459852100">
        <ele>289.00</ele>
        <time>2012-10-20T13:29:22Z</time>
      </trkpt>
      <trkpt lat="42.458144600" lon="-2.459638000">
        <ele>289.00</ele>
        <time>2012-10-20T13:29:25Z</time>
      </trkpt>
      <trkpt lat="42.458133900" lon="-2.459549100">
        <ele>289.00</ele>
        <time>2012-10-20T13:29:25Z</time>
      </trkpt>
      <trkpt lat="42.458039600" lon="-2.459147900">
        <ele>289.00</ele>
        <time>2012-10-20T13:29:30Z</time>
      </trkpt>
      <trkpt lat="42.457901500" lon="-2.458785900">
        <ele>289.00</ele>
        <time>2012-10-20T13:29:36Z</time>
      </trkpt>
      <trkpt lat="42.457769600" lon="-2.458405700">
        <ele>289.00</ele>
        <time>2012-10-20T13:29:41Z</time>
      </trkpt>
      <trkpt lat="42.457649200" lon="-2.458127300">
        <ele>289.00</ele>
        <time>2012-10-20T13:29:44Z</time>
      </trkpt>
      <trkpt lat="42.457623200" lon="-2.458055800">
        <ele>289.00</ele>
        <time>2012-10-20T13:29:46Z</time>
      </trkpt>
      <trkpt lat="42.457551900" lon="-2.457858300">
        <ele>289.40</ele>
        <time>2012-10-20T13:29:48Z</time>
      </trkpt>
      <trkpt lat="42.457534800" lon="-2.457790500">
        <ele>289.80</ele>
        <time>2012-10-20T13:29:50Z</time>
      </trkpt>
      <trkpt lat="42.457518500" lon="-2.457721400">
        <ele>290.40</ele>
        <time>2012-10-20T13:29:50Z</time>
      </trkpt>
      <trkpt lat="42.457506800" lon="-2.457644200">
        <ele>290.80</ele>
        <time>2012-10-20T13:29:51Z</time>
      </trkpt>
      <trkpt lat="42.457502100" lon="-2.457560000">
        <ele>291.20</ele>
        <time>2012-10-20T13:29:53Z</time>
      </trkpt>
      <trkpt lat="42.457416700" lon="-2.457448700">
        <ele>291.20</ele>
        <time>2012-10-20T13:29:55Z</time>
      </trkpt>
      <trkpt lat="42.457205700" lon="-2.457242500">
        <ele>291.20</ele>
        <time>2012-10-20T13:29:58Z</time>
      </trkpt>
      <trkpt lat="42.457166700" lon="-2.457174400">
        <ele>291.20</ele>
        <time>2012-10-20T13:30:00Z</time>
      </trkpt>
      <trkpt lat="42.457160800" lon="-2.456926300">
        <ele>291.20</ele>
        <time>2012-10-20T13:30:02Z</time>
      </trkpt>
      <trkpt lat="42.457269900" lon="-2.456717500">
        <ele>291.20</ele>
        <time>2012-10-20T13:30:05Z</time>
      </trkpt>
      <trkpt lat="42.457298100" lon="-2.456652100">
        <ele>291.20</ele>
        <time>2012-10-20T13:30:07Z</time>
      </trkpt>
      <trkpt lat="42.457313800" lon="-2.456581500">
        <ele>291.20</ele>
        <time>2012-10-20T13:30:07Z</time>
      </trkpt>
      <trkpt lat="42.457317900" lon="-2.456507700">
        <ele>291.20</ele>
        <time>2012-10-20T13:30:09Z</time>
      </trkpt>
      <trkpt lat="42.457287300" lon="-2.456284900">
        <ele>291.20</ele>
        <time>2012-10-20T13:30:12Z</time>
      </trkpt>
      <trkpt lat="42.457211400" lon="-2.455497000">
        <ele>291.20</ele>
        <time>2012-10-20T13:30:21Z</time>
      </trkpt>
      <trkpt lat="42.457207100" lon="-2.455420900">
        <ele>291.20</ele>
        <time>2012-10-20T13:30:23Z</time>
      </trkpt>
      <trkpt lat="42.457200100" lon="-2.455353100">
        <ele>291.20</ele>
        <time>2012-10-20T13:30:23Z</time>
      </trkpt>
      <trkpt lat="42.457175700" lon="-2.455235300">
        <ele>291.20</ele>
        <time>2012-10-20T13:30:26Z</time>
      </trkpt>
      <trkpt lat="42.457021100" lon="-2.454911000">
        <ele>291.20</ele>
        <time>2012-10-20T13:30:30Z</time>
      </trkpt>
      <trkpt lat="42.456956300" lon="-2.454579000">
        <ele>291.20</ele>
        <time>2012-10-20T13:30:35Z</time>
      </trkpt>
      <trkpt lat="42.456895500" lon="-2.454402800">
        <ele>291.20</ele>
        <time>2012-10-20T13:30:38Z</time>
      </trkpt>
      <trkpt lat="42.456870100" lon="-2.454346700">
        <ele>291.20</ele>
        <time>2012-10-20T13:30:40Z</time>
      </trkpt>
      <trkpt lat="42.456820500" lon="-2.454084800">
        <ele>291.20</ele>
        <time>2012-10-20T13:30:44Z</time>
      </trkpt>
      <trkpt lat="42.456829700" lon="-2.453693200">
        <ele>291.20</ele>
        <time>2012-10-20T13:30:47Z</time>
      </trkpt>
      <trkpt lat="42.456811700" lon="-2.453513100">
        <ele>291.20</ele>
        <time>2012-10-20T13:30:49Z</time>
      </trkpt>
      <trkpt lat="42.456811100" lon="-2.453345300">
        <ele>291.20</ele>
        <time>2012-10-20T13:30:52Z</time>
      </trkpt>
      <trkpt lat="42.456730400" lon="-2.453274000">
        <ele>291.20</ele>
        <time>2012-10-20T13:30:54Z</time>
      </trkpt>
      <trkpt lat="42.456611100" lon="-2.453313600">
        <ele>291.20</ele>
        <time>2012-10-20T13:30:58Z</time>
      </trkpt>
      <trkpt lat="42.456415500" lon="-2.453355900">
        <ele>291.20</ele>
        <time>2012-10-20T13:31:01Z</time>
      </trkpt>
      <trkpt lat="42.456209400" lon="-2.453315300">
        <ele>291.20</ele>
        <time>2012-10-20T13:31:05Z</time>
      </trkpt>
      <trkpt lat="42.456160900" lon="-2.453318500">
        <ele>291.20</ele>
        <time>2012-10-20T13:31:06Z</time>
      </trkpt>
      <trkpt lat="42.455994200" lon="-2.453369200">
        <ele>291.20</ele>
        <time>2012-10-20T13:31:08Z</time>
      </trkpt>
      <trkpt lat="42.455788300" lon="-2.453417300">
        <ele>291.20</ele>
        <time>2012-10-20T13:31:13Z</time>
      </trkpt>
      <trkpt lat="42.455641800" lon="-2.453415400">
        <ele>291.20</ele>
        <time>2012-10-20T13:31:15Z</time>
      </trkpt>
      <trkpt lat="42.455590100" lon="-2.453406300">
        <ele>291.20</ele>
        <time>2012-10-20T13:31:17Z</time>
      </trkpt>
      <trkpt lat="42.455434800" lon="-2.453463500">
        <ele>291.20</ele>
        <time>2012-10-20T13:31:20Z</time>
      </trkpt>
      <trkpt lat="42.455349200" lon="-2.453524800">
        <ele>291.20</ele>
        <time>2012-10-20T13:31:22Z</time>
      </trkpt>
      <trkpt lat="42.455234300" lon="-2.453574200">
        <ele>291.20</ele>
        <time>2012-10-20T13:31:24Z</time>
      </trkpt>
      <trkpt lat="42.455148200" lon="-2.453597700">
        <ele>291.20</ele>
        <time>2012-10-20T13:31:27Z</time>
      </trkpt>
      <trkpt lat="42.455010400" lon="-2.453661000">
        <ele>291.20</ele>
        <time>2012-10-20T13:31:29Z</time>
      </trkpt>
      <trkpt lat="42.454913600" lon="-2.453653600">
        <ele>291.20</ele>
        <time>2012-10-20T13:31:31Z</time>
      </trkpt>
      <trkpt lat="42.454793400" lon="-2.453490300">
        <ele>291.20</ele>
        <time>2012-10-20T13:31:34Z</time>
      </trkpt>
      <trkpt lat="42.454653900" lon="-2.453125500">
        <ele>291.20</ele>
        <time>2012-10-20T13:31:41Z</time>
      </trkpt>
      <trkpt lat="42.454600500" lon="-2.452955300">
        <ele>291.20</ele>
        <time>2012-10-20T13:31:43Z</time>
      </trkpt>
      <trkpt lat="42.454560000" lon="-2.452803500">
        <ele>291.20</ele>
        <time>2012-10-20T13:31:46Z</time>
      </trkpt>
      <trkpt lat="42.454521600" lon="-2.452479600">
        <ele>291.20</ele>
        <time>2012-10-20T13:31:53Z</time>
      </trkpt>
      <trkpt lat="42.454475400" lon="-2.452299300">
        <ele>291.60</ele>
        <time>2012-10-20T13:31:57Z</time>
      </trkpt>
      <trkpt lat="42.454463600" lon="-2.452266000">
        <ele>292.00</ele>
        <time>2012-10-20T13:31:57Z</time>
      </trkpt>
      <trkpt lat="42.454454000" lon="-2.452234100">
        <ele>292.40</ele>
        <time>2012-10-20T13:31:59Z</time>
      </trkpt>
      <trkpt lat="42.454447600" lon="-2.452206400">
        <ele>292.80</ele>
        <time>2012-10-20T13:32:00Z</time>
      </trkpt>
      <trkpt lat="42.454442200" lon="-2.452183900">
        <ele>293.20</ele>
        <time>2012-10-20T13:32:00Z</time>
      </trkpt>
      <trkpt lat="42.454434600" lon="-2.452168900">
        <ele>293.20</ele>
        <time>2012-10-20T13:32:02Z</time>
      </trkpt>
      <trkpt lat="42.454327700" lon="-2.452176400">
        <ele>293.20</ele>
        <time>2012-10-20T13:32:07Z</time>
      </trkpt>
      <trkpt lat="42.454150800" lon="-2.452218900">
        <ele>293.20</ele>
        <time>2012-10-20T13:32:11Z</time>
      </trkpt>
      <trkpt lat="42.453979600" lon="-2.452241800">
        <ele>293.20</ele>
        <time>2012-10-20T13:32:16Z</time>
      </trkpt>
      <trkpt lat="42.453832900" lon="-2.452233600">
        <ele>293.20</ele>
        <time>2012-10-20T13:32:18Z</time>
      </trkpt>
      <trkpt lat="42.453677300" lon="-2.452031800">
        <ele>293.20</ele>
        <time>2012-10-20T13:32:23Z</time>
      </trkpt>
      <trkpt lat="42.453553400" lon="-2.451973100">
        <ele>293.20</ele>
        <time>2012-10-20T13:32:25Z</time>
      </trkpt>
      <trkpt lat="42.453244600" lon="-2.452118700">
        <ele>293.20</ele>
        <time>2012-10-20T13:32:32Z</time>
      </trkpt>
      <trkpt lat="42.453151600" lon="-2.452161100">
        <ele>293.60</ele>
        <time>2012-10-20T13:32:33Z</time>
      </trkpt>
      <trkpt lat="42.453106600" lon="-2.452183800">
        <ele>294.20</ele>
        <time>2012-10-20T13:32:35Z</time>
      </trkpt>
      <trkpt lat="42.453057000" lon="-2.452203600">
        <ele>294.60</ele>
        <time>2012-10-20T13:32:35Z</time>
      </trkpt>
      <trkpt lat="42.453006300" lon="-2.452228300">
        <ele>295.00</ele>
        <time>2012-10-20T13:32:37Z</time>
      </trkpt>
      <trkpt lat="42.452954800" lon="-2.452258000">
        <ele>295.40</ele>
        <time>2012-10-20T13:32:37Z</time>
      </trkpt>
      <trkpt lat="42.452807700" lon="-2.452311900">
        <ele>295.40</ele>
        <time>2012-10-20T13:32:40Z</time>
      </trkpt>
      <trkpt lat="42.452603600" lon="-2.452352500">
        <ele>295.40</ele>
        <time>2012-10-20T13:32:44Z</time>
      </trkpt>
    </trkseg>
  </trk>
</gpx>
